<?xml version="1.0" encoding="UTF-8"?><gpx version="1.1" creator="Exported from Strava via extension e-ivanov.ru"  xsi:schemaLocation="http://www.topografix.com/GPX/1/1 http://www.topografix.com/GPX/1/1/gpx.xsd http://www.garmin.com/xmlschemas/GpxExtensions/v3 http://www.garmin.com/xmlschemas/GpxExtensionsv3.xsd http://www.garmin.com/xmlschemas/TrackPointExtension/v1 http://www.garmin.com/xmlschemas/TrackPointExtensionv1.xsd"  xmlns="http://www.topografix.com/GPX/1/1"  xmlns:gpxtpx="http://www.garmin.com/xmlschemas/TrackPointExtension/v1"  xmlns:gpxx="http://www.garmin.com/xmlschemas/GpxExtensions/v3" xmlns:xsi="http://www.w3.org/2001/XMLSchema-instance"><metadata><link href="http://e-ivanov.ru/projects/strava-export-gpx/"><text>Strava gpx export</text></link><time>2022-05-22T11:35:30.352Z</time></metadata><trk><name>RR 22/13 - Dalheimer Muhle | Fietsrit | Strava</name><trkseg><trkpt lon="5.742074" lat="51.14505"><ele>29.8</ele><time>2022-05-22T06:00:00.000Z</time></trkpt><trkpt lon="5.742074" lat="51.14505"><ele>29.8</ele><time>2022-05-22T06:00:01.000Z</time></trkpt><trkpt lon="5.742074" lat="51.14505"><ele>29.8</ele><time>2022-05-22T06:00:02.000Z</time></trkpt><trkpt lon="5.742074" lat="51.14505"><ele>29.8</ele><time>2022-05-22T06:00:03.000Z</time></trkpt><trkpt lon="5.742074" lat="51.14505"><ele>29.8</ele><time>2022-05-22T06:00:04.000Z</time></trkpt><trkpt lon="5.742096" lat="51.145046"><ele>29.8</ele><time>2022-05-22T06:00:05.000Z</time></trkpt><trkpt lon="5.742106" lat="51.145043"><ele>29.8</ele><time>2022-05-22T06:00:06.000Z</time></trkpt><trkpt lon="5.742116" lat="51.145039"><ele>29.8</ele><time>2022-05-22T06:00:07.000Z</time></trkpt><trkpt lon="5.742129" lat="51.145039"><ele>29.8</ele><time>2022-05-22T06:00:08.000Z</time></trkpt><trkpt lon="5.742151" lat="51.145031"><ele>29.8</ele><time>2022-05-22T06:00:09.000Z</time></trkpt><trkpt lon="5.742179" lat="51.145027"><ele>29.8</ele><time>2022-05-22T06:00:10.000Z</time></trkpt><trkpt lon="5.742214" lat="51.145023"><ele>29.6</ele><time>2022-05-22T06:00:11.000Z</time></trkpt><trkpt lon="5.742258" lat="51.145016"><ele>29.6</ele><time>2022-05-22T06:00:12.000Z</time></trkpt><trkpt lon="5.742312" lat="51.145016"><ele>29.6</ele><time>2022-05-22T06:00:13.000Z</time></trkpt><trkpt lon="5.742372" lat="51.145019"><ele>29.6</ele><time>2022-05-22T06:00:14.000Z</time></trkpt><trkpt lon="5.742429" lat="51.145023"><ele>29.6</ele><time>2022-05-22T06:00:15.000Z</time></trkpt><trkpt lon="5.742482" lat="51.145023"><ele>29.6</ele><time>2022-05-22T06:00:16.000Z</time></trkpt><trkpt lon="5.742535" lat="51.145023"><ele>29.6</ele><time>2022-05-22T06:00:17.000Z</time></trkpt><trkpt lon="5.742583" lat="51.145016"><ele>29.6</ele><time>2022-05-22T06:00:18.000Z</time></trkpt><trkpt lon="5.742622" lat="51.144997"><ele>29.8</ele><time>2022-05-22T06:00:19.000Z</time></trkpt><trkpt lon="5.742652" lat="51.144975"><ele>29.8</ele><time>2022-05-22T06:00:20.000Z</time></trkpt><trkpt lon="5.742681" lat="51.144951"><ele>29.8</ele><time>2022-05-22T06:00:21.000Z</time></trkpt><trkpt lon="5.742713" lat="51.144928"><ele>29.8</ele><time>2022-05-22T06:00:22.000Z</time></trkpt><trkpt lon="5.742746" lat="51.144902"><ele>29.8</ele><time>2022-05-22T06:00:23.000Z</time></trkpt><trkpt lon="5.742784" lat="51.144871"><ele>29.8</ele><time>2022-05-22T06:00:24.000Z</time></trkpt><trkpt lon="5.742825" lat="51.144842"><ele>29.8</ele><time>2022-05-22T06:00:25.000Z</time></trkpt><trkpt lon="5.742872" lat="51.14481"><ele>29.8</ele><time>2022-05-22T06:00:26.000Z</time></trkpt><trkpt lon="5.742922" lat="51.14478"><ele>29.8</ele><time>2022-05-22T06:00:27.000Z</time></trkpt><trkpt lon="5.742974" lat="51.144746"><ele>29.8</ele><time>2022-05-22T06:00:28.000Z</time></trkpt><trkpt lon="5.743024" lat="51.144715"><ele>29.8</ele><time>2022-05-22T06:00:29.000Z</time></trkpt><trkpt lon="5.743073" lat="51.144683"><ele>29.8</ele><time>2022-05-22T06:00:30.000Z</time></trkpt><trkpt lon="5.743129" lat="51.144646"><ele>29.8</ele><time>2022-05-22T06:00:31.000Z</time></trkpt><trkpt lon="5.743181" lat="51.144616"><ele>29.8</ele><time>2022-05-22T06:00:32.000Z</time></trkpt><trkpt lon="5.743234" lat="51.144582"><ele>29.6</ele><time>2022-05-22T06:00:33.000Z</time></trkpt><trkpt lon="5.743288" lat="51.144548"><ele>29.6</ele><time>2022-05-22T06:00:34.000Z</time></trkpt><trkpt lon="5.74334" lat="51.144509"><ele>29.8</ele><time>2022-05-22T06:00:35.000Z</time></trkpt><trkpt lon="5.743394" lat="51.144475"><ele>29.8</ele><time>2022-05-22T06:00:36.000Z</time></trkpt><trkpt lon="5.743449" lat="51.14444"><ele>29.8</ele><time>2022-05-22T06:00:37.000Z</time></trkpt><trkpt lon="5.743502" lat="51.144406"><ele>29.8</ele><time>2022-05-22T06:00:38.000Z</time></trkpt><trkpt lon="5.743552" lat="51.144372"><ele>29.8</ele><time>2022-05-22T06:00:39.000Z</time></trkpt><trkpt lon="5.743597" lat="51.144337"><ele>29.8</ele><time>2022-05-22T06:00:40.000Z</time></trkpt><trkpt lon="5.743644" lat="51.144303"><ele>29.8</ele><time>2022-05-22T06:00:41.000Z</time></trkpt><trkpt lon="5.743688" lat="51.144273"><ele>29.8</ele><time>2022-05-22T06:00:42.000Z</time></trkpt><trkpt lon="5.743726" lat="51.144238"><ele>29.8</ele><time>2022-05-22T06:00:43.000Z</time></trkpt><trkpt lon="5.743756" lat="51.144204"><ele>29.8</ele><time>2022-05-22T06:00:44.000Z</time></trkpt><trkpt lon="5.743775" lat="51.144166"><ele>29.8</ele><time>2022-05-22T06:00:45.000Z</time></trkpt><trkpt lon="5.74378" lat="51.144131"><ele>29.6</ele><time>2022-05-22T06:00:46.000Z</time></trkpt><trkpt lon="5.743782" lat="51.144097"><ele>29.6</ele><time>2022-05-22T06:00:47.000Z</time></trkpt><trkpt lon="5.743791" lat="51.144059"><ele>29.6</ele><time>2022-05-22T06:00:48.000Z</time></trkpt><trkpt lon="5.743814" lat="51.144028"><ele>29.4</ele><time>2022-05-22T06:00:49.000Z</time></trkpt><trkpt lon="5.743847" lat="51.143995"><ele>29.4</ele><time>2022-05-22T06:00:50.000Z</time></trkpt><trkpt lon="5.743891" lat="51.143967"><ele>29.4</ele><time>2022-05-22T06:00:51.000Z</time></trkpt><trkpt lon="5.743944" lat="51.143952"><ele>29.4</ele><time>2022-05-22T06:00:52.000Z</time></trkpt><trkpt lon="5.744004" lat="51.14394"><ele>29.4</ele><time>2022-05-22T06:00:53.000Z</time></trkpt><trkpt lon="5.744069" lat="51.143929"><ele>29.4</ele><time>2022-05-22T06:00:54.000Z</time></trkpt><trkpt lon="5.744143" lat="51.143917"><ele>29.4</ele><time>2022-05-22T06:00:55.000Z</time></trkpt><trkpt lon="5.744197" lat="51.143907"><ele>29.4</ele><time>2022-05-22T06:00:56.000Z</time></trkpt><trkpt lon="5.744291" lat="51.143881"><ele>29.2</ele><time>2022-05-22T06:00:57.000Z</time></trkpt><trkpt lon="5.744362" lat="51.143847"><ele>29.2</ele><time>2022-05-22T06:00:58.000Z</time></trkpt><trkpt lon="5.74443" lat="51.143804"><ele>29.4</ele><time>2022-05-22T06:00:59.000Z</time></trkpt><trkpt lon="5.744493" lat="51.143762"><ele>29.4</ele><time>2022-05-22T06:01:00.000Z</time></trkpt><trkpt lon="5.744559" lat="51.143724"><ele>29.4</ele><time>2022-05-22T06:01:01.000Z</time></trkpt><trkpt lon="5.744627" lat="51.143681"><ele>29.4</ele><time>2022-05-22T06:01:02.000Z</time></trkpt><trkpt lon="5.744695" lat="51.143636"><ele>29.4</ele><time>2022-05-22T06:01:03.000Z</time></trkpt><trkpt lon="5.744761" lat="51.143594"><ele>29.4</ele><time>2022-05-22T06:01:04.000Z</time></trkpt><trkpt lon="5.744823" lat="51.143552"><ele>29.4</ele><time>2022-05-22T06:01:05.000Z</time></trkpt><trkpt lon="5.744886" lat="51.14351"><ele>29.4</ele><time>2022-05-22T06:01:06.000Z</time></trkpt><trkpt lon="5.744949" lat="51.143468"><ele>29.2</ele><time>2022-05-22T06:01:07.000Z</time></trkpt><trkpt lon="5.745014" lat="51.143426"><ele>29.2</ele><time>2022-05-22T06:01:08.000Z</time></trkpt><trkpt lon="5.74508" lat="51.14338"><ele>29.2</ele><time>2022-05-22T06:01:09.000Z</time></trkpt><trkpt lon="5.745144" lat="51.143338"><ele>29.2</ele><time>2022-05-22T06:01:10.000Z</time></trkpt><trkpt lon="5.74521" lat="51.143296"><ele>29.2</ele><time>2022-05-22T06:01:11.000Z</time></trkpt><trkpt lon="5.745277" lat="51.143254"><ele>29.2</ele><time>2022-05-22T06:01:12.000Z</time></trkpt><trkpt lon="5.745338" lat="51.143212"><ele>29.2</ele><time>2022-05-22T06:01:13.000Z</time></trkpt><trkpt lon="5.745404" lat="51.143167"><ele>29.2</ele><time>2022-05-22T06:01:14.000Z</time></trkpt><trkpt lon="5.745468" lat="51.143125"><ele>29.2</ele><time>2022-05-22T06:01:15.000Z</time></trkpt><trkpt lon="5.745533" lat="51.143083"><ele>29.2</ele><time>2022-05-22T06:01:16.000Z</time></trkpt><trkpt lon="5.7456" lat="51.143041"><ele>29.4</ele><time>2022-05-22T06:01:17.000Z</time></trkpt><trkpt lon="5.745666" lat="51.142999"><ele>29.4</ele><time>2022-05-22T06:01:18.000Z</time></trkpt><trkpt lon="5.745732" lat="51.142958"><ele>29.4</ele><time>2022-05-22T06:01:19.000Z</time></trkpt><trkpt lon="5.745799" lat="51.142912"><ele>29.2</ele><time>2022-05-22T06:01:20.000Z</time></trkpt><trkpt lon="5.745861" lat="51.142873"><ele>29.2</ele><time>2022-05-22T06:01:21.000Z</time></trkpt><trkpt lon="5.745927" lat="51.142831"><ele>29.2</ele><time>2022-05-22T06:01:22.000Z</time></trkpt><trkpt lon="5.74599" lat="51.142786"><ele>29.2</ele><time>2022-05-22T06:01:23.000Z</time></trkpt><trkpt lon="5.746057" lat="51.142743"><ele>29</ele><time>2022-05-22T06:01:24.000Z</time></trkpt><trkpt lon="5.74612" lat="51.142702"><ele>29</ele><time>2022-05-22T06:01:25.000Z</time></trkpt><trkpt lon="5.746186" lat="51.142661"><ele>29.2</ele><time>2022-05-22T06:01:26.000Z</time></trkpt><trkpt lon="5.746254" lat="51.142621"><ele>29.2</ele><time>2022-05-22T06:01:27.000Z</time></trkpt><trkpt lon="5.746317" lat="51.142579"><ele>29.2</ele><time>2022-05-22T06:01:28.000Z</time></trkpt><trkpt lon="5.746382" lat="51.142534"><ele>29.2</ele><time>2022-05-22T06:01:29.000Z</time></trkpt><trkpt lon="5.746444" lat="51.142487"><ele>29.2</ele><time>2022-05-22T06:01:30.000Z</time></trkpt><trkpt lon="5.746505" lat="51.142443"><ele>29</ele><time>2022-05-22T06:01:31.000Z</time></trkpt><trkpt lon="5.74657" lat="51.142393"><ele>29</ele><time>2022-05-22T06:01:32.000Z</time></trkpt><trkpt lon="5.746627" lat="51.14235"><ele>29</ele><time>2022-05-22T06:01:33.000Z</time></trkpt><trkpt lon="5.746692" lat="51.142302"><ele>29</ele><time>2022-05-22T06:01:34.000Z</time></trkpt><trkpt lon="5.746756" lat="51.142254"><ele>29</ele><time>2022-05-22T06:01:35.000Z</time></trkpt><trkpt lon="5.746815" lat="51.142209"><ele>29</ele><time>2022-05-22T06:01:36.000Z</time></trkpt><trkpt lon="5.746875" lat="51.142164"><ele>29</ele><time>2022-05-22T06:01:37.000Z</time></trkpt><trkpt lon="5.746939" lat="51.142122"><ele>29</ele><time>2022-05-22T06:01:38.000Z</time></trkpt><trkpt lon="5.747008" lat="51.142081"><ele>29</ele><time>2022-05-22T06:01:39.000Z</time></trkpt><trkpt lon="5.747081" lat="51.142033"><ele>29</ele><time>2022-05-22T06:01:40.000Z</time></trkpt><trkpt lon="5.747145" lat="51.141992"><ele>29</ele><time>2022-05-22T06:01:41.000Z</time></trkpt><trkpt lon="5.747208" lat="51.141946"><ele>29.2</ele><time>2022-05-22T06:01:42.000Z</time></trkpt><trkpt lon="5.747273" lat="51.1419"><ele>29.2</ele><time>2022-05-22T06:01:43.000Z</time></trkpt><trkpt lon="5.747339" lat="51.141859"><ele>29.2</ele><time>2022-05-22T06:01:44.000Z</time></trkpt><trkpt lon="5.747409" lat="51.141816"><ele>29.2</ele><time>2022-05-22T06:01:45.000Z</time></trkpt><trkpt lon="5.747473" lat="51.141774"><ele>29.2</ele><time>2022-05-22T06:01:46.000Z</time></trkpt><trkpt lon="5.74754" lat="51.14173"><ele>29.2</ele><time>2022-05-22T06:01:47.000Z</time></trkpt><trkpt lon="5.74761" lat="51.141682"><ele>29.2</ele><time>2022-05-22T06:01:48.000Z</time></trkpt><trkpt lon="5.74768" lat="51.141641"><ele>29</ele><time>2022-05-22T06:01:49.000Z</time></trkpt><trkpt lon="5.747749" lat="51.141595"><ele>29</ele><time>2022-05-22T06:01:50.000Z</time></trkpt><trkpt lon="5.747814" lat="51.14155"><ele>29</ele><time>2022-05-22T06:01:51.000Z</time></trkpt><trkpt lon="5.747881" lat="51.141503"><ele>29</ele><time>2022-05-22T06:01:52.000Z</time></trkpt><trkpt lon="5.747942" lat="51.141458"><ele>29</ele><time>2022-05-22T06:01:53.000Z</time></trkpt><trkpt lon="5.74801" lat="51.141415"><ele>29</ele><time>2022-05-22T06:01:54.000Z</time></trkpt><trkpt lon="5.748079" lat="51.14137"><ele>29</ele><time>2022-05-22T06:01:55.000Z</time></trkpt><trkpt lon="5.748144" lat="51.141329"><ele>29</ele><time>2022-05-22T06:01:56.000Z</time></trkpt><trkpt lon="5.748215" lat="51.141282"><ele>29</ele><time>2022-05-22T06:01:57.000Z</time></trkpt><trkpt lon="5.748282" lat="51.141237"><ele>29</ele><time>2022-05-22T06:01:58.000Z</time></trkpt><trkpt lon="5.748354" lat="51.141194"><ele>29</ele><time>2022-05-22T06:01:59.000Z</time></trkpt><trkpt lon="5.74842" lat="51.141148"><ele>29</ele><time>2022-05-22T06:02:00.000Z</time></trkpt><trkpt lon="5.748485" lat="51.141103"><ele>29</ele><time>2022-05-22T06:02:01.000Z</time></trkpt><trkpt lon="5.74855" lat="51.141061"><ele>29</ele><time>2022-05-22T06:02:02.000Z</time></trkpt><trkpt lon="5.748611" lat="51.14102"><ele>29</ele><time>2022-05-22T06:02:03.000Z</time></trkpt><trkpt lon="5.748685" lat="51.140973"><ele>29</ele><time>2022-05-22T06:02:04.000Z</time></trkpt><trkpt lon="5.748753" lat="51.140932"><ele>29</ele><time>2022-05-22T06:02:05.000Z</time></trkpt><trkpt lon="5.748821" lat="51.140893"><ele>29</ele><time>2022-05-22T06:02:06.000Z</time></trkpt><trkpt lon="5.748892" lat="51.140851"><ele>28.8</ele><time>2022-05-22T06:02:07.000Z</time></trkpt><trkpt lon="5.74896" lat="51.140806"><ele>28.8</ele><time>2022-05-22T06:02:08.000Z</time></trkpt><trkpt lon="5.749028" lat="51.140761"><ele>28.8</ele><time>2022-05-22T06:02:09.000Z</time></trkpt><trkpt lon="5.749098" lat="51.140714"><ele>28.8</ele><time>2022-05-22T06:02:10.000Z</time></trkpt><trkpt lon="5.749164" lat="51.140673"><ele>28.8</ele><time>2022-05-22T06:02:11.000Z</time></trkpt><trkpt lon="5.74923" lat="51.140627"><ele>28.8</ele><time>2022-05-22T06:02:12.000Z</time></trkpt><trkpt lon="5.749292" lat="51.140578"><ele>28.8</ele><time>2022-05-22T06:02:13.000Z</time></trkpt><trkpt lon="5.74935" lat="51.140531"><ele>28.8</ele><time>2022-05-22T06:02:14.000Z</time></trkpt><trkpt lon="5.749411" lat="51.140481"><ele>28.8</ele><time>2022-05-22T06:02:15.000Z</time></trkpt><trkpt lon="5.749473" lat="51.140428"><ele>28.8</ele><time>2022-05-22T06:02:16.000Z</time></trkpt><trkpt lon="5.749536" lat="51.140383"><ele>28.8</ele><time>2022-05-22T06:02:17.000Z</time></trkpt><trkpt lon="5.749607" lat="51.140336"><ele>28.8</ele><time>2022-05-22T06:02:18.000Z</time></trkpt><trkpt lon="5.749678" lat="51.140287"><ele>28.8</ele><time>2022-05-22T06:02:19.000Z</time></trkpt><trkpt lon="5.749752" lat="51.140241"><ele>28.8</ele><time>2022-05-22T06:02:20.000Z</time></trkpt><trkpt lon="5.749825" lat="51.140195"><ele>28.6</ele><time>2022-05-22T06:02:21.000Z</time></trkpt><trkpt lon="5.749897" lat="51.140149"><ele>28.6</ele><time>2022-05-22T06:02:22.000Z</time></trkpt><trkpt lon="5.749963" lat="51.140106"><ele>28.6</ele><time>2022-05-22T06:02:23.000Z</time></trkpt><trkpt lon="5.750033" lat="51.14006"><ele>28.6</ele><time>2022-05-22T06:02:24.000Z</time></trkpt><trkpt lon="5.750107" lat="51.140008"><ele>28.8</ele><time>2022-05-22T06:02:25.000Z</time></trkpt><trkpt lon="5.750175" lat="51.139963"><ele>28.8</ele><time>2022-05-22T06:02:26.000Z</time></trkpt><trkpt lon="5.750245" lat="51.139913"><ele>28.8</ele><time>2022-05-22T06:02:27.000Z</time></trkpt><trkpt lon="5.750315" lat="51.139868"><ele>28.8</ele><time>2022-05-22T06:02:28.000Z</time></trkpt><trkpt lon="5.750381" lat="51.139823"><ele>28.8</ele><time>2022-05-22T06:02:29.000Z</time></trkpt><trkpt lon="5.750449" lat="51.139775"><ele>28.8</ele><time>2022-05-22T06:02:30.000Z</time></trkpt><trkpt lon="5.750518" lat="51.139726"><ele>28.8</ele><time>2022-05-22T06:02:31.000Z</time></trkpt><trkpt lon="5.750587" lat="51.13968"><ele>28.8</ele><time>2022-05-22T06:02:32.000Z</time></trkpt><trkpt lon="5.750648" lat="51.139638"><ele>28.8</ele><time>2022-05-22T06:02:33.000Z</time></trkpt><trkpt lon="5.75072" lat="51.139594"><ele>28.8</ele><time>2022-05-22T06:02:34.000Z</time></trkpt><trkpt lon="5.75078" lat="51.139551"><ele>28.8</ele><time>2022-05-22T06:02:35.000Z</time></trkpt><trkpt lon="5.750859" lat="51.139498"><ele>28.8</ele><time>2022-05-22T06:02:36.000Z</time></trkpt><trkpt lon="5.750929" lat="51.139452"><ele>28.8</ele><time>2022-05-22T06:02:37.000Z</time></trkpt><trkpt lon="5.750997" lat="51.139406"><ele>28.8</ele><time>2022-05-22T06:02:38.000Z</time></trkpt><trkpt lon="5.751066" lat="51.13936"><ele>28.8</ele><time>2022-05-22T06:02:39.000Z</time></trkpt><trkpt lon="5.751135" lat="51.139311"><ele>28.8</ele><time>2022-05-22T06:02:40.000Z</time></trkpt><trkpt lon="5.751205" lat="51.139265"><ele>28.8</ele><time>2022-05-22T06:02:41.000Z</time></trkpt><trkpt lon="5.751276" lat="51.139216"><ele>28.8</ele><time>2022-05-22T06:02:42.000Z</time></trkpt><trkpt lon="5.751347" lat="51.139169"><ele>28.8</ele><time>2022-05-22T06:02:43.000Z</time></trkpt><trkpt lon="5.751416" lat="51.139123"><ele>29</ele><time>2022-05-22T06:02:44.000Z</time></trkpt><trkpt lon="5.751484" lat="51.139075"><ele>29</ele><time>2022-05-22T06:02:45.000Z</time></trkpt><trkpt lon="5.751555" lat="51.139028"><ele>29</ele><time>2022-05-22T06:02:46.000Z</time></trkpt><trkpt lon="5.751626" lat="51.138983"><ele>29</ele><time>2022-05-22T06:02:47.000Z</time></trkpt><trkpt lon="5.751695" lat="51.138936"><ele>29</ele><time>2022-05-22T06:02:48.000Z</time></trkpt><trkpt lon="5.751765" lat="51.138891"><ele>29</ele><time>2022-05-22T06:02:49.000Z</time></trkpt><trkpt lon="5.751838" lat="51.138841"><ele>28.8</ele><time>2022-05-22T06:02:50.000Z</time></trkpt><trkpt lon="5.751904" lat="51.138796"><ele>28.8</ele><time>2022-05-22T06:02:51.000Z</time></trkpt><trkpt lon="5.751975" lat="51.138746"><ele>28.8</ele><time>2022-05-22T06:02:52.000Z</time></trkpt><trkpt lon="5.752045" lat="51.138696"><ele>28.8</ele><time>2022-05-22T06:02:53.000Z</time></trkpt><trkpt lon="5.752115" lat="51.13865"><ele>29</ele><time>2022-05-22T06:02:54.000Z</time></trkpt><trkpt lon="5.752185" lat="51.138604"><ele>29</ele><time>2022-05-22T06:02:55.000Z</time></trkpt><trkpt lon="5.752259" lat="51.138555"><ele>29</ele><time>2022-05-22T06:02:56.000Z</time></trkpt><trkpt lon="5.752331" lat="51.138505"><ele>29</ele><time>2022-05-22T06:02:57.000Z</time></trkpt><trkpt lon="5.752401" lat="51.138461"><ele>29</ele><time>2022-05-22T06:02:58.000Z</time></trkpt><trkpt lon="5.752473" lat="51.138412"><ele>29</ele><time>2022-05-22T06:02:59.000Z</time></trkpt><trkpt lon="5.752546" lat="51.138365"><ele>29</ele><time>2022-05-22T06:03:00.000Z</time></trkpt><trkpt lon="5.75262" lat="51.138315"><ele>29.2</ele><time>2022-05-22T06:03:01.000Z</time></trkpt><trkpt lon="5.752692" lat="51.138269"><ele>29</ele><time>2022-05-22T06:03:02.000Z</time></trkpt><trkpt lon="5.752763" lat="51.138221"><ele>29</ele><time>2022-05-22T06:03:03.000Z</time></trkpt><trkpt lon="5.75282" lat="51.138182"><ele>29</ele><time>2022-05-22T06:03:04.000Z</time></trkpt><trkpt lon="5.752907" lat="51.138122"><ele>29</ele><time>2022-05-22T06:03:05.000Z</time></trkpt><trkpt lon="5.752982" lat="51.13807"><ele>29</ele><time>2022-05-22T06:03:06.000Z</time></trkpt><trkpt lon="5.753054" lat="51.138025"><ele>29</ele><time>2022-05-22T06:03:07.000Z</time></trkpt><trkpt lon="5.753129" lat="51.137976"><ele>29</ele><time>2022-05-22T06:03:08.000Z</time></trkpt><trkpt lon="5.753202" lat="51.137925"><ele>29</ele><time>2022-05-22T06:03:09.000Z</time></trkpt><trkpt lon="5.753272" lat="51.13788"><ele>29</ele><time>2022-05-22T06:03:10.000Z</time></trkpt><trkpt lon="5.753342" lat="51.13783"><ele>29</ele><time>2022-05-22T06:03:11.000Z</time></trkpt><trkpt lon="5.753411" lat="51.137784"><ele>29</ele><time>2022-05-22T06:03:12.000Z</time></trkpt><trkpt lon="5.753486" lat="51.137739"><ele>29.2</ele><time>2022-05-22T06:03:13.000Z</time></trkpt><trkpt lon="5.753568" lat="51.137696"><ele>29.2</ele><time>2022-05-22T06:03:14.000Z</time></trkpt><trkpt lon="5.753644" lat="51.137656"><ele>29.2</ele><time>2022-05-22T06:03:15.000Z</time></trkpt><trkpt lon="5.753724" lat="51.137616"><ele>29.2</ele><time>2022-05-22T06:03:16.000Z</time></trkpt><trkpt lon="5.753797" lat="51.13757"><ele>29.2</ele><time>2022-05-22T06:03:17.000Z</time></trkpt><trkpt lon="5.753867" lat="51.137525"><ele>29.2</ele><time>2022-05-22T06:03:18.000Z</time></trkpt><trkpt lon="5.753936" lat="51.137476"><ele>29.2</ele><time>2022-05-22T06:03:19.000Z</time></trkpt><trkpt lon="5.754009" lat="51.137429"><ele>29.2</ele><time>2022-05-22T06:03:20.000Z</time></trkpt><trkpt lon="5.75408" lat="51.13738"><ele>29.2</ele><time>2022-05-22T06:03:21.000Z</time></trkpt><trkpt lon="5.754152" lat="51.137334"><ele>29.2</ele><time>2022-05-22T06:03:22.000Z</time></trkpt><trkpt lon="5.754222" lat="51.137285"><ele>29.2</ele><time>2022-05-22T06:03:23.000Z</time></trkpt><trkpt lon="5.754294" lat="51.137236"><ele>29.4</ele><time>2022-05-22T06:03:24.000Z</time></trkpt><trkpt lon="5.754366" lat="51.13719"><ele>29.2</ele><time>2022-05-22T06:03:25.000Z</time></trkpt><trkpt lon="5.75443" lat="51.137146"><ele>29.2</ele><time>2022-05-22T06:03:26.000Z</time></trkpt><trkpt lon="5.754508" lat="51.137096"><ele>29.2</ele><time>2022-05-22T06:03:27.000Z</time></trkpt><trkpt lon="5.754582" lat="51.137049"><ele>29.2</ele><time>2022-05-22T06:03:28.000Z</time></trkpt><trkpt lon="5.754657" lat="51.136998"><ele>29.2</ele><time>2022-05-22T06:03:29.000Z</time></trkpt><trkpt lon="5.75473" lat="51.136952"><ele>29.2</ele><time>2022-05-22T06:03:30.000Z</time></trkpt><trkpt lon="5.754802" lat="51.136903"><ele>29.4</ele><time>2022-05-22T06:03:31.000Z</time></trkpt><trkpt lon="5.754874" lat="51.136858"><ele>29.4</ele><time>2022-05-22T06:03:32.000Z</time></trkpt><trkpt lon="5.754948" lat="51.136808"><ele>29.4</ele><time>2022-05-22T06:03:33.000Z</time></trkpt><trkpt lon="5.755019" lat="51.136759"><ele>29.4</ele><time>2022-05-22T06:03:34.000Z</time></trkpt><trkpt lon="5.755092" lat="51.136712"><ele>29.4</ele><time>2022-05-22T06:03:35.000Z</time></trkpt><trkpt lon="5.755162" lat="51.136662"><ele>29.4</ele><time>2022-05-22T06:03:36.000Z</time></trkpt><trkpt lon="5.755234" lat="51.136616"><ele>29.4</ele><time>2022-05-22T06:03:37.000Z</time></trkpt><trkpt lon="5.755305" lat="51.136571"><ele>29.4</ele><time>2022-05-22T06:03:38.000Z</time></trkpt><trkpt lon="5.755376" lat="51.136526"><ele>29.4</ele><time>2022-05-22T06:03:39.000Z</time></trkpt><trkpt lon="5.755447" lat="51.136475"><ele>29.4</ele><time>2022-05-22T06:03:40.000Z</time></trkpt><trkpt lon="5.75552" lat="51.13643"><ele>29.4</ele><time>2022-05-22T06:03:41.000Z</time></trkpt><trkpt lon="5.755594" lat="51.136384"><ele>29.4</ele><time>2022-05-22T06:03:42.000Z</time></trkpt><trkpt lon="5.755659" lat="51.136338"><ele>29.4</ele><time>2022-05-22T06:03:43.000Z</time></trkpt><trkpt lon="5.755731" lat="51.13629"><ele>29.4</ele><time>2022-05-22T06:03:44.000Z</time></trkpt><trkpt lon="5.7558" lat="51.136241"><ele>29.4</ele><time>2022-05-22T06:03:45.000Z</time></trkpt><trkpt lon="5.755871" lat="51.13619"><ele>29.4</ele><time>2022-05-22T06:03:46.000Z</time></trkpt><trkpt lon="5.755944" lat="51.136143"><ele>29.4</ele><time>2022-05-22T06:03:47.000Z</time></trkpt><trkpt lon="5.756017" lat="51.136094"><ele>29.4</ele><time>2022-05-22T06:03:48.000Z</time></trkpt><trkpt lon="5.75609" lat="51.136048"><ele>29.4</ele><time>2022-05-22T06:03:49.000Z</time></trkpt><trkpt lon="5.756162" lat="51.136003"><ele>29.4</ele><time>2022-05-22T06:03:50.000Z</time></trkpt><trkpt lon="5.756233" lat="51.135957"><ele>29.4</ele><time>2022-05-22T06:03:51.000Z</time></trkpt><trkpt lon="5.756305" lat="51.135911"><ele>29.4</ele><time>2022-05-22T06:03:52.000Z</time></trkpt><trkpt lon="5.756371" lat="51.135871"><ele>29.4</ele><time>2022-05-22T06:03:53.000Z</time></trkpt><trkpt lon="5.756451" lat="51.135822"><ele>29.4</ele><time>2022-05-22T06:03:54.000Z</time></trkpt><trkpt lon="5.756529" lat="51.135773"><ele>29.4</ele><time>2022-05-22T06:03:55.000Z</time></trkpt><trkpt lon="5.7566" lat="51.135724"><ele>29.4</ele><time>2022-05-22T06:03:56.000Z</time></trkpt><trkpt lon="5.75667" lat="51.135682"><ele>29.4</ele><time>2022-05-22T06:03:57.000Z</time></trkpt><trkpt lon="5.756741" lat="51.135641"><ele>29.2</ele><time>2022-05-22T06:03:58.000Z</time></trkpt><trkpt lon="5.756817" lat="51.135602"><ele>29.2</ele><time>2022-05-22T06:03:59.000Z</time></trkpt><trkpt lon="5.756892" lat="51.135568"><ele>29.2</ele><time>2022-05-22T06:04:00.000Z</time></trkpt><trkpt lon="5.756966" lat="51.135527"><ele>29.2</ele><time>2022-05-22T06:04:01.000Z</time></trkpt><trkpt lon="5.757041" lat="51.13548"><ele>29.2</ele><time>2022-05-22T06:04:02.000Z</time></trkpt><trkpt lon="5.757111" lat="51.135435"><ele>29.2</ele><time>2022-05-22T06:04:03.000Z</time></trkpt><trkpt lon="5.757185" lat="51.135392"><ele>29.4</ele><time>2022-05-22T06:04:04.000Z</time></trkpt><trkpt lon="5.757253" lat="51.135348"><ele>29.2</ele><time>2022-05-22T06:04:05.000Z</time></trkpt><trkpt lon="5.757325" lat="51.135304"><ele>29.4</ele><time>2022-05-22T06:04:06.000Z</time></trkpt><trkpt lon="5.757399" lat="51.135266"><ele>29.4</ele><time>2022-05-22T06:04:07.000Z</time></trkpt><trkpt lon="5.757477" lat="51.135236"><ele>29.4</ele><time>2022-05-22T06:04:08.000Z</time></trkpt><trkpt lon="5.757561" lat="51.135212"><ele>29.4</ele><time>2022-05-22T06:04:09.000Z</time></trkpt><trkpt lon="5.757648" lat="51.135205"><ele>29.4</ele><time>2022-05-22T06:04:10.000Z</time></trkpt><trkpt lon="5.757731" lat="51.135212"><ele>29.4</ele><time>2022-05-22T06:04:11.000Z</time></trkpt><trkpt lon="5.757822" lat="51.135231"><ele>29.4</ele><time>2022-05-22T06:04:12.000Z</time></trkpt><trkpt lon="5.757914" lat="51.135235"><ele>29.4</ele><time>2022-05-22T06:04:13.000Z</time></trkpt><trkpt lon="5.758017" lat="51.135227"><ele>29.2</ele><time>2022-05-22T06:04:14.000Z</time></trkpt><trkpt lon="5.758116" lat="51.135205"><ele>29.2</ele><time>2022-05-22T06:04:15.000Z</time></trkpt><trkpt lon="5.758216" lat="51.135182"><ele>29.2</ele><time>2022-05-22T06:04:16.000Z</time></trkpt><trkpt lon="5.758311" lat="51.135157"><ele>29.2</ele><time>2022-05-22T06:04:17.000Z</time></trkpt><trkpt lon="5.758415" lat="51.135129"><ele>29.2</ele><time>2022-05-22T06:04:18.000Z</time></trkpt><trkpt lon="5.75852" lat="51.135106"><ele>29.2</ele><time>2022-05-22T06:04:19.000Z</time></trkpt><trkpt lon="5.758622" lat="51.135076"><ele>29.2</ele><time>2022-05-22T06:04:20.000Z</time></trkpt><trkpt lon="5.758722" lat="51.135049"><ele>29.2</ele><time>2022-05-22T06:04:21.000Z</time></trkpt><trkpt lon="5.758826" lat="51.135018"><ele>29.2</ele><time>2022-05-22T06:04:22.000Z</time></trkpt><trkpt lon="5.758926" lat="51.134992"><ele>29.2</ele><time>2022-05-22T06:04:23.000Z</time></trkpt><trkpt lon="5.75903" lat="51.134964"><ele>29.2</ele><time>2022-05-22T06:04:24.000Z</time></trkpt><trkpt lon="5.759129" lat="51.134938"><ele>29.2</ele><time>2022-05-22T06:04:25.000Z</time></trkpt><trkpt lon="5.759226" lat="51.134916"><ele>29.2</ele><time>2022-05-22T06:04:26.000Z</time></trkpt><trkpt lon="5.759323" lat="51.134889"><ele>29</ele><time>2022-05-22T06:04:27.000Z</time></trkpt><trkpt lon="5.759424" lat="51.134861"><ele>29</ele><time>2022-05-22T06:04:28.000Z</time></trkpt><trkpt lon="5.759521" lat="51.134835"><ele>29</ele><time>2022-05-22T06:04:29.000Z</time></trkpt><trkpt lon="5.75962" lat="51.134812"><ele>29</ele><time>2022-05-22T06:04:30.000Z</time></trkpt><trkpt lon="5.75972" lat="51.134785"><ele>29</ele><time>2022-05-22T06:04:31.000Z</time></trkpt><trkpt lon="5.759818" lat="51.134759"><ele>29.2</ele><time>2022-05-22T06:04:32.000Z</time></trkpt><trkpt lon="5.759911" lat="51.134737"><ele>29.2</ele><time>2022-05-22T06:04:33.000Z</time></trkpt><trkpt lon="5.76001" lat="51.13471"><ele>29.2</ele><time>2022-05-22T06:04:34.000Z</time></trkpt><trkpt lon="5.760111" lat="51.13469"><ele>29.2</ele><time>2022-05-22T06:04:35.000Z</time></trkpt><trkpt lon="5.76021" lat="51.134671"><ele>29.2</ele><time>2022-05-22T06:04:36.000Z</time></trkpt><trkpt lon="5.76031" lat="51.134652"><ele>29.2</ele><time>2022-05-22T06:04:37.000Z</time></trkpt><trkpt lon="5.76041" lat="51.134636"><ele>29.2</ele><time>2022-05-22T06:04:38.000Z</time></trkpt><trkpt lon="5.760506" lat="51.134617"><ele>29.2</ele><time>2022-05-22T06:04:39.000Z</time></trkpt><trkpt lon="5.760604" lat="51.134602"><ele>29.4</ele><time>2022-05-22T06:04:40.000Z</time></trkpt><trkpt lon="5.760701" lat="51.134587"><ele>29.4</ele><time>2022-05-22T06:04:41.000Z</time></trkpt><trkpt lon="5.760799" lat="51.134572"><ele>29.4</ele><time>2022-05-22T06:04:42.000Z</time></trkpt><trkpt lon="5.76089" lat="51.134561"><ele>29.4</ele><time>2022-05-22T06:04:43.000Z</time></trkpt><trkpt lon="5.760999" lat="51.134549"><ele>29.2</ele><time>2022-05-22T06:04:44.000Z</time></trkpt><trkpt lon="5.7611" lat="51.134537"><ele>29.2</ele><time>2022-05-22T06:04:45.000Z</time></trkpt><trkpt lon="5.761203" lat="51.134522"><ele>29.2</ele><time>2022-05-22T06:04:46.000Z</time></trkpt><trkpt lon="5.761304" lat="51.134507"><ele>29.2</ele><time>2022-05-22T06:04:47.000Z</time></trkpt><trkpt lon="5.761406" lat="51.134495"><ele>29</ele><time>2022-05-22T06:04:48.000Z</time></trkpt><trkpt lon="5.761508" lat="51.13448"><ele>28.8</ele><time>2022-05-22T06:04:49.000Z</time></trkpt><trkpt lon="5.761611" lat="51.134465"><ele>28.8</ele><time>2022-05-22T06:04:50.000Z</time></trkpt><trkpt lon="5.761711" lat="51.134446"><ele>28.8</ele><time>2022-05-22T06:04:51.000Z</time></trkpt><trkpt lon="5.761811" lat="51.13443"><ele>29</ele><time>2022-05-22T06:04:52.000Z</time></trkpt><trkpt lon="5.761899" lat="51.134416"><ele>29</ele><time>2022-05-22T06:04:53.000Z</time></trkpt><trkpt lon="5.761991" lat="51.134401"><ele>29.2</ele><time>2022-05-22T06:04:54.000Z</time></trkpt><trkpt lon="5.762098" lat="51.134384"><ele>29.2</ele><time>2022-05-22T06:04:55.000Z</time></trkpt><trkpt lon="5.762191" lat="51.13437"><ele>29.4</ele><time>2022-05-22T06:04:56.000Z</time></trkpt><trkpt lon="5.762293" lat="51.134358"><ele>29.4</ele><time>2022-05-22T06:04:57.000Z</time></trkpt><trkpt lon="5.762392" lat="51.134343"><ele>29.4</ele><time>2022-05-22T06:04:58.000Z</time></trkpt><trkpt lon="5.762495" lat="51.134323"><ele>29.4</ele><time>2022-05-22T06:04:59.000Z</time></trkpt><trkpt lon="5.762595" lat="51.134312"><ele>29.4</ele><time>2022-05-22T06:05:00.000Z</time></trkpt><trkpt lon="5.762697" lat="51.134297"><ele>29.4</ele><time>2022-05-22T06:05:01.000Z</time></trkpt><trkpt lon="5.762797" lat="51.134282"><ele>29.4</ele><time>2022-05-22T06:05:02.000Z</time></trkpt><trkpt lon="5.762892" lat="51.134267"><ele>29.4</ele><time>2022-05-22T06:05:03.000Z</time></trkpt><trkpt lon="5.762995" lat="51.134252"><ele>29.4</ele><time>2022-05-22T06:05:04.000Z</time></trkpt><trkpt lon="5.763099" lat="51.134236"><ele>29.4</ele><time>2022-05-22T06:05:05.000Z</time></trkpt><trkpt lon="5.763199" lat="51.134221"><ele>29.6</ele><time>2022-05-22T06:05:06.000Z</time></trkpt><trkpt lon="5.763292" lat="51.134207"><ele>29.6</ele><time>2022-05-22T06:05:07.000Z</time></trkpt><trkpt lon="5.763405" lat="51.134186"><ele>29.6</ele><time>2022-05-22T06:05:08.000Z</time></trkpt><trkpt lon="5.763504" lat="51.134175"><ele>29.6</ele><time>2022-05-22T06:05:09.000Z</time></trkpt><trkpt lon="5.763607" lat="51.13416"><ele>29.4</ele><time>2022-05-22T06:05:10.000Z</time></trkpt><trkpt lon="5.76371" lat="51.134148"><ele>29.4</ele><time>2022-05-22T06:05:11.000Z</time></trkpt><trkpt lon="5.763813" lat="51.134136"><ele>29.4</ele><time>2022-05-22T06:05:12.000Z</time></trkpt><trkpt lon="5.763917" lat="51.134129"><ele>29.4</ele><time>2022-05-22T06:05:13.000Z</time></trkpt><trkpt lon="5.764024" lat="51.134117"><ele>29.4</ele><time>2022-05-22T06:05:14.000Z</time></trkpt><trkpt lon="5.764129" lat="51.13411"><ele>29.4</ele><time>2022-05-22T06:05:15.000Z</time></trkpt><trkpt lon="5.764239" lat="51.134102"><ele>29.4</ele><time>2022-05-22T06:05:16.000Z</time></trkpt><trkpt lon="5.764346" lat="51.134098"><ele>29.4</ele><time>2022-05-22T06:05:17.000Z</time></trkpt><trkpt lon="5.764451" lat="51.134091"><ele>29.4</ele><time>2022-05-22T06:05:18.000Z</time></trkpt><trkpt lon="5.764556" lat="51.134087"><ele>29.4</ele><time>2022-05-22T06:05:19.000Z</time></trkpt><trkpt lon="5.764659" lat="51.134087"><ele>29.4</ele><time>2022-05-22T06:05:20.000Z</time></trkpt><trkpt lon="5.764764" lat="51.134079"><ele>29.4</ele><time>2022-05-22T06:05:21.000Z</time></trkpt><trkpt lon="5.76487" lat="51.134075"><ele>29.4</ele><time>2022-05-22T06:05:22.000Z</time></trkpt><trkpt lon="5.764973" lat="51.134072"><ele>29.4</ele><time>2022-05-22T06:05:23.000Z</time></trkpt><trkpt lon="5.765081" lat="51.134068"><ele>29.4</ele><time>2022-05-22T06:05:24.000Z</time></trkpt><trkpt lon="5.765186" lat="51.134064"><ele>29.4</ele><time>2022-05-22T06:05:25.000Z</time></trkpt><trkpt lon="5.765295" lat="51.13406"><ele>29.4</ele><time>2022-05-22T06:05:26.000Z</time></trkpt><trkpt lon="5.765404" lat="51.134052"><ele>29.6</ele><time>2022-05-22T06:05:27.000Z</time></trkpt><trkpt lon="5.765511" lat="51.134049"><ele>29.6</ele><time>2022-05-22T06:05:28.000Z</time></trkpt><trkpt lon="5.765618" lat="51.134045"><ele>29.6</ele><time>2022-05-22T06:05:29.000Z</time></trkpt><trkpt lon="5.765723" lat="51.134041"><ele>29.6</ele><time>2022-05-22T06:05:30.000Z</time></trkpt><trkpt lon="5.765826" lat="51.134037"><ele>29.6</ele><time>2022-05-22T06:05:31.000Z</time></trkpt><trkpt lon="5.765936" lat="51.134033"><ele>29.6</ele><time>2022-05-22T06:05:32.000Z</time></trkpt><trkpt lon="5.766036" lat="51.13403"><ele>29.6</ele><time>2022-05-22T06:05:33.000Z</time></trkpt><trkpt lon="5.766146" lat="51.134026"><ele>29.6</ele><time>2022-05-22T06:05:34.000Z</time></trkpt><trkpt lon="5.766254" lat="51.134022"><ele>29.6</ele><time>2022-05-22T06:05:35.000Z</time></trkpt><trkpt lon="5.76636" lat="51.134022"><ele>29.8</ele><time>2022-05-22T06:05:36.000Z</time></trkpt><trkpt lon="5.766459" lat="51.134018"><ele>29.8</ele><time>2022-05-22T06:05:37.000Z</time></trkpt><trkpt lon="5.766557" lat="51.134014"><ele>29.8</ele><time>2022-05-22T06:05:38.000Z</time></trkpt><trkpt lon="5.766653" lat="51.13401"><ele>29.8</ele><time>2022-05-22T06:05:39.000Z</time></trkpt><trkpt lon="5.766746" lat="51.134007"><ele>29.8</ele><time>2022-05-22T06:05:40.000Z</time></trkpt><trkpt lon="5.766836" lat="51.134006"><ele>29.8</ele><time>2022-05-22T06:05:41.000Z</time></trkpt><trkpt lon="5.766922" lat="51.134003"><ele>29.8</ele><time>2022-05-22T06:05:42.000Z</time></trkpt><trkpt lon="5.766999" lat="51.134003"><ele>29.8</ele><time>2022-05-22T06:05:43.000Z</time></trkpt><trkpt lon="5.767078" lat="51.133995"><ele>29.6</ele><time>2022-05-22T06:05:44.000Z</time></trkpt><trkpt lon="5.76714" lat="51.133976"><ele>29.6</ele><time>2022-05-22T06:05:45.000Z</time></trkpt><trkpt lon="5.767176" lat="51.133935"><ele>29.6</ele><time>2022-05-22T06:05:46.000Z</time></trkpt><trkpt lon="5.767193" lat="51.133882"><ele>29.6</ele><time>2022-05-22T06:05:47.000Z</time></trkpt><trkpt lon="5.767203" lat="51.133826"><ele>29.6</ele><time>2022-05-22T06:05:48.000Z</time></trkpt><trkpt lon="5.767213" lat="51.13376"><ele>29.4</ele><time>2022-05-22T06:05:49.000Z</time></trkpt><trkpt lon="5.767223" lat="51.133696"><ele>29.4</ele><time>2022-05-22T06:05:50.000Z</time></trkpt><trkpt lon="5.767236" lat="51.13363"><ele>29.4</ele><time>2022-05-22T06:05:51.000Z</time></trkpt><trkpt lon="5.76725" lat="51.133562"><ele>29.4</ele><time>2022-05-22T06:05:52.000Z</time></trkpt><trkpt lon="5.767261" lat="51.133508"><ele>29.4</ele><time>2022-05-22T06:05:53.000Z</time></trkpt><trkpt lon="5.767277" lat="51.133431"><ele>29.2</ele><time>2022-05-22T06:05:54.000Z</time></trkpt><trkpt lon="5.76729" lat="51.133363"><ele>29.2</ele><time>2022-05-22T06:05:55.000Z</time></trkpt><trkpt lon="5.767303" lat="51.133295"><ele>29</ele><time>2022-05-22T06:05:56.000Z</time></trkpt><trkpt lon="5.767316" lat="51.133223"><ele>29</ele><time>2022-05-22T06:05:57.000Z</time></trkpt><trkpt lon="5.767328" lat="51.133154"><ele>28.8</ele><time>2022-05-22T06:05:58.000Z</time></trkpt><trkpt lon="5.76734" lat="51.133085"><ele>28.8</ele><time>2022-05-22T06:05:59.000Z</time></trkpt><trkpt lon="5.76735" lat="51.133023"><ele>28.6</ele><time>2022-05-22T06:06:00.000Z</time></trkpt><trkpt lon="5.76736" lat="51.132951"><ele>28.6</ele><time>2022-05-22T06:06:01.000Z</time></trkpt><trkpt lon="5.76737" lat="51.132888"><ele>28.4</ele><time>2022-05-22T06:06:02.000Z</time></trkpt><trkpt lon="5.76738" lat="51.132823"><ele>28.4</ele><time>2022-05-22T06:06:03.000Z</time></trkpt><trkpt lon="5.767391" lat="51.132754"><ele>28.2</ele><time>2022-05-22T06:06:04.000Z</time></trkpt><trkpt lon="5.767404" lat="51.132692"><ele>28.2</ele><time>2022-05-22T06:06:05.000Z</time></trkpt><trkpt lon="5.767419" lat="51.132622"><ele>28.2</ele><time>2022-05-22T06:06:06.000Z</time></trkpt><trkpt lon="5.767436" lat="51.132554"><ele>28.2</ele><time>2022-05-22T06:06:07.000Z</time></trkpt><trkpt lon="5.767455" lat="51.132489"><ele>28.2</ele><time>2022-05-22T06:06:08.000Z</time></trkpt><trkpt lon="5.767476" lat="51.132425"><ele>28</ele><time>2022-05-22T06:06:09.000Z</time></trkpt><trkpt lon="5.767502" lat="51.132361"><ele>28</ele><time>2022-05-22T06:06:10.000Z</time></trkpt><trkpt lon="5.767529" lat="51.132291"><ele>28</ele><time>2022-05-22T06:06:11.000Z</time></trkpt><trkpt lon="5.767557" lat="51.13223"><ele>28.2</ele><time>2022-05-22T06:06:12.000Z</time></trkpt><trkpt lon="5.767583" lat="51.132165"><ele>28.2</ele><time>2022-05-22T06:06:13.000Z</time></trkpt><trkpt lon="5.767611" lat="51.132101"><ele>28.2</ele><time>2022-05-22T06:06:14.000Z</time></trkpt><trkpt lon="5.767637" lat="51.13204"><ele>28.2</ele><time>2022-05-22T06:06:15.000Z</time></trkpt><trkpt lon="5.767666" lat="51.131975"><ele>28.2</ele><time>2022-05-22T06:06:16.000Z</time></trkpt><trkpt lon="5.767694" lat="51.13191"><ele>28.2</ele><time>2022-05-22T06:06:17.000Z</time></trkpt><trkpt lon="5.767726" lat="51.131845"><ele>28.2</ele><time>2022-05-22T06:06:18.000Z</time></trkpt><trkpt lon="5.767758" lat="51.13178"><ele>28.2</ele><time>2022-05-22T06:06:19.000Z</time></trkpt><trkpt lon="5.767791" lat="51.131722"><ele>28.2</ele><time>2022-05-22T06:06:20.000Z</time></trkpt><trkpt lon="5.767828" lat="51.13166"><ele>28.2</ele><time>2022-05-22T06:06:21.000Z</time></trkpt><trkpt lon="5.767866" lat="51.131597"><ele>28.2</ele><time>2022-05-22T06:06:22.000Z</time></trkpt><trkpt lon="5.7679" lat="51.131541"><ele>28.2</ele><time>2022-05-22T06:06:23.000Z</time></trkpt><trkpt lon="5.767936" lat="51.131476"><ele>28.2</ele><time>2022-05-22T06:06:24.000Z</time></trkpt><trkpt lon="5.76797" lat="51.131419"><ele>28.2</ele><time>2022-05-22T06:06:25.000Z</time></trkpt><trkpt lon="5.768003" lat="51.131353"><ele>28.2</ele><time>2022-05-22T06:06:26.000Z</time></trkpt><trkpt lon="5.768034" lat="51.131295"><ele>28.4</ele><time>2022-05-22T06:06:27.000Z</time></trkpt><trkpt lon="5.768066" lat="51.131235"><ele>28.4</ele><time>2022-05-22T06:06:28.000Z</time></trkpt><trkpt lon="5.768092" lat="51.131174"><ele>28.4</ele><time>2022-05-22T06:06:29.000Z</time></trkpt><trkpt lon="5.768121" lat="51.131113"><ele>28.6</ele><time>2022-05-22T06:06:30.000Z</time></trkpt><trkpt lon="5.768149" lat="51.131052"><ele>28.4</ele><time>2022-05-22T06:06:31.000Z</time></trkpt><trkpt lon="5.768176" lat="51.130987"><ele>28.4</ele><time>2022-05-22T06:06:32.000Z</time></trkpt><trkpt lon="5.768202" lat="51.130927"><ele>28.4</ele><time>2022-05-22T06:06:33.000Z</time></trkpt><trkpt lon="5.768227" lat="51.130868"><ele>28.4</ele><time>2022-05-22T06:06:34.000Z</time></trkpt><trkpt lon="5.768249" lat="51.1308"><ele>28.4</ele><time>2022-05-22T06:06:35.000Z</time></trkpt><trkpt lon="5.768269" lat="51.130735"><ele>28.4</ele><time>2022-05-22T06:06:36.000Z</time></trkpt><trkpt lon="5.768286" lat="51.130671"><ele>28.4</ele><time>2022-05-22T06:06:37.000Z</time></trkpt><trkpt lon="5.768304" lat="51.130605"><ele>28.4</ele><time>2022-05-22T06:06:38.000Z</time></trkpt><trkpt lon="5.768323" lat="51.130544"><ele>28.6</ele><time>2022-05-22T06:06:39.000Z</time></trkpt><trkpt lon="5.76834" lat="51.130482"><ele>28.4</ele><time>2022-05-22T06:06:40.000Z</time></trkpt><trkpt lon="5.768359" lat="51.130418"><ele>28.4</ele><time>2022-05-22T06:06:41.000Z</time></trkpt><trkpt lon="5.768376" lat="51.13035"><ele>28.6</ele><time>2022-05-22T06:06:42.000Z</time></trkpt><trkpt lon="5.768394" lat="51.130287"><ele>28.6</ele><time>2022-05-22T06:06:43.000Z</time></trkpt><trkpt lon="5.768411" lat="51.130221"><ele>28.6</ele><time>2022-05-22T06:06:44.000Z</time></trkpt><trkpt lon="5.768428" lat="51.130155"><ele>28.6</ele><time>2022-05-22T06:06:45.000Z</time></trkpt><trkpt lon="5.768444" lat="51.130101"><ele>28.6</ele><time>2022-05-22T06:06:46.000Z</time></trkpt><trkpt lon="5.768465" lat="51.130031"><ele>28.6</ele><time>2022-05-22T06:06:47.000Z</time></trkpt><trkpt lon="5.768486" lat="51.12997"><ele>28.4</ele><time>2022-05-22T06:06:48.000Z</time></trkpt><trkpt lon="5.768505" lat="51.129904"><ele>28.4</ele><time>2022-05-22T06:06:49.000Z</time></trkpt><trkpt lon="5.768521" lat="51.129839"><ele>28.4</ele><time>2022-05-22T06:06:50.000Z</time></trkpt><trkpt lon="5.768539" lat="51.129774"><ele>28.4</ele><time>2022-05-22T06:06:51.000Z</time></trkpt><trkpt lon="5.768561" lat="51.129709"><ele>28.4</ele><time>2022-05-22T06:06:52.000Z</time></trkpt><trkpt lon="5.76858" lat="51.129643"><ele>28.2</ele><time>2022-05-22T06:06:53.000Z</time></trkpt><trkpt lon="5.768601" lat="51.12958"><ele>28.2</ele><time>2022-05-22T06:06:54.000Z</time></trkpt><trkpt lon="5.768619" lat="51.129515"><ele>28.2</ele><time>2022-05-22T06:06:55.000Z</time></trkpt><trkpt lon="5.768638" lat="51.129454"><ele>28.2</ele><time>2022-05-22T06:06:56.000Z</time></trkpt><trkpt lon="5.768653" lat="51.129388"><ele>28.2</ele><time>2022-05-22T06:06:57.000Z</time></trkpt><trkpt lon="5.76867" lat="51.129324"><ele>28.2</ele><time>2022-05-22T06:06:58.000Z</time></trkpt><trkpt lon="5.768688" lat="51.129262"><ele>28</ele><time>2022-05-22T06:06:59.000Z</time></trkpt><trkpt lon="5.768707" lat="51.129201"><ele>28</ele><time>2022-05-22T06:07:00.000Z</time></trkpt><trkpt lon="5.768728" lat="51.129133"><ele>28</ele><time>2022-05-22T06:07:01.000Z</time></trkpt><trkpt lon="5.768747" lat="51.12907"><ele>28</ele><time>2022-05-22T06:07:02.000Z</time></trkpt><trkpt lon="5.768767" lat="51.129007"><ele>28</ele><time>2022-05-22T06:07:03.000Z</time></trkpt><trkpt lon="5.768783" lat="51.128949"><ele>28</ele><time>2022-05-22T06:07:04.000Z</time></trkpt><trkpt lon="5.768803" lat="51.128885"><ele>28</ele><time>2022-05-22T06:07:05.000Z</time></trkpt><trkpt lon="5.768822" lat="51.128821"><ele>27.8</ele><time>2022-05-22T06:07:06.000Z</time></trkpt><trkpt lon="5.768841" lat="51.128756"><ele>27.8</ele><time>2022-05-22T06:07:07.000Z</time></trkpt><trkpt lon="5.768859" lat="51.12869"><ele>27.8</ele><time>2022-05-22T06:07:08.000Z</time></trkpt><trkpt lon="5.768878" lat="51.128628"><ele>27.8</ele><time>2022-05-22T06:07:09.000Z</time></trkpt><trkpt lon="5.768899" lat="51.128561"><ele>27.8</ele><time>2022-05-22T06:07:10.000Z</time></trkpt><trkpt lon="5.768921" lat="51.128496"><ele>28</ele><time>2022-05-22T06:07:11.000Z</time></trkpt><trkpt lon="5.768941" lat="51.128431"><ele>28</ele><time>2022-05-22T06:07:12.000Z</time></trkpt><trkpt lon="5.768962" lat="51.128367"><ele>28</ele><time>2022-05-22T06:07:13.000Z</time></trkpt><trkpt lon="5.768984" lat="51.128297"><ele>28</ele><time>2022-05-22T06:07:14.000Z</time></trkpt><trkpt lon="5.769003" lat="51.128234"><ele>28</ele><time>2022-05-22T06:07:15.000Z</time></trkpt><trkpt lon="5.76902" lat="51.128168"><ele>28</ele><time>2022-05-22T06:07:16.000Z</time></trkpt><trkpt lon="5.769038" lat="51.1281"><ele>28</ele><time>2022-05-22T06:07:17.000Z</time></trkpt><trkpt lon="5.769058" lat="51.128038"><ele>28.2</ele><time>2022-05-22T06:07:18.000Z</time></trkpt><trkpt lon="5.76908" lat="51.127977"><ele>28.2</ele><time>2022-05-22T06:07:19.000Z</time></trkpt><trkpt lon="5.769101" lat="51.127916"><ele>28.2</ele><time>2022-05-22T06:07:20.000Z</time></trkpt><trkpt lon="5.769123" lat="51.127855"><ele>28.2</ele><time>2022-05-22T06:07:21.000Z</time></trkpt><trkpt lon="5.769149" lat="51.127794"><ele>28.2</ele><time>2022-05-22T06:07:22.000Z</time></trkpt><trkpt lon="5.769175" lat="51.127734"><ele>28.2</ele><time>2022-05-22T06:07:23.000Z</time></trkpt><trkpt lon="5.769204" lat="51.127672"><ele>28.2</ele><time>2022-05-22T06:07:24.000Z</time></trkpt><trkpt lon="5.769234" lat="51.127611"><ele>28.2</ele><time>2022-05-22T06:07:25.000Z</time></trkpt><trkpt lon="5.769262" lat="51.127551"><ele>28.2</ele><time>2022-05-22T06:07:26.000Z</time></trkpt><trkpt lon="5.769293" lat="51.127489"><ele>28.2</ele><time>2022-05-22T06:07:27.000Z</time></trkpt><trkpt lon="5.769322" lat="51.127428"><ele>28.2</ele><time>2022-05-22T06:07:28.000Z</time></trkpt><trkpt lon="5.769353" lat="51.127366"><ele>28.2</ele><time>2022-05-22T06:07:29.000Z</time></trkpt><trkpt lon="5.769382" lat="51.127303"><ele>28.2</ele><time>2022-05-22T06:07:30.000Z</time></trkpt><trkpt lon="5.769416" lat="51.12724"><ele>28.2</ele><time>2022-05-22T06:07:31.000Z</time></trkpt><trkpt lon="5.769451" lat="51.127182"><ele>28.2</ele><time>2022-05-22T06:07:32.000Z</time></trkpt><trkpt lon="5.769491" lat="51.127119"><ele>28.2</ele><time>2022-05-22T06:07:33.000Z</time></trkpt><trkpt lon="5.769537" lat="51.127055"><ele>28.2</ele><time>2022-05-22T06:07:34.000Z</time></trkpt><trkpt lon="5.769582" lat="51.126996"><ele>28.2</ele><time>2022-05-22T06:07:35.000Z</time></trkpt><trkpt lon="5.769628" lat="51.126936"><ele>28.2</ele><time>2022-05-22T06:07:36.000Z</time></trkpt><trkpt lon="5.769668" lat="51.126884"><ele>28.2</ele><time>2022-05-22T06:07:37.000Z</time></trkpt><trkpt lon="5.769717" lat="51.12682"><ele>28</ele><time>2022-05-22T06:07:38.000Z</time></trkpt><trkpt lon="5.769766" lat="51.12676"><ele>28</ele><time>2022-05-22T06:07:39.000Z</time></trkpt><trkpt lon="5.769819" lat="51.126707"><ele>28</ele><time>2022-05-22T06:07:40.000Z</time></trkpt><trkpt lon="5.76988" lat="51.12665"><ele>28</ele><time>2022-05-22T06:07:41.000Z</time></trkpt><trkpt lon="5.769947" lat="51.126599"><ele>28</ele><time>2022-05-22T06:07:42.000Z</time></trkpt><trkpt lon="5.770018" lat="51.126551"><ele>28</ele><time>2022-05-22T06:07:43.000Z</time></trkpt><trkpt lon="5.7701" lat="51.126504"><ele>28</ele><time>2022-05-22T06:07:44.000Z</time></trkpt><trkpt lon="5.77018" lat="51.126462"><ele>28</ele><time>2022-05-22T06:07:45.000Z</time></trkpt><trkpt lon="5.77026" lat="51.126424"><ele>28</ele><time>2022-05-22T06:07:46.000Z</time></trkpt><trkpt lon="5.77034" lat="51.126386"><ele>28</ele><time>2022-05-22T06:07:47.000Z</time></trkpt><trkpt lon="5.770419" lat="51.126348"><ele>28.2</ele><time>2022-05-22T06:07:48.000Z</time></trkpt><trkpt lon="5.7705" lat="51.126306"><ele>28.2</ele><time>2022-05-22T06:07:49.000Z</time></trkpt><trkpt lon="5.770582" lat="51.126268"><ele>28.4</ele><time>2022-05-22T06:07:50.000Z</time></trkpt><trkpt lon="5.770664" lat="51.12623"><ele>28.4</ele><time>2022-05-22T06:07:51.000Z</time></trkpt><trkpt lon="5.770746" lat="51.126192"><ele>28.4</ele><time>2022-05-22T06:07:52.000Z</time></trkpt><trkpt lon="5.770825" lat="51.126155"><ele>28.4</ele><time>2022-05-22T06:07:53.000Z</time></trkpt><trkpt lon="5.77091" lat="51.126116"><ele>28.6</ele><time>2022-05-22T06:07:54.000Z</time></trkpt><trkpt lon="5.770992" lat="51.126077"><ele>28.6</ele><time>2022-05-22T06:07:55.000Z</time></trkpt><trkpt lon="5.771072" lat="51.126042"><ele>28.6</ele><time>2022-05-22T06:07:56.000Z</time></trkpt><trkpt lon="5.771155" lat="51.126004"><ele>28.6</ele><time>2022-05-22T06:07:57.000Z</time></trkpt><trkpt lon="5.771238" lat="51.125966"><ele>28.8</ele><time>2022-05-22T06:07:58.000Z</time></trkpt><trkpt lon="5.771321" lat="51.125924"><ele>28.8</ele><time>2022-05-22T06:07:59.000Z</time></trkpt><trkpt lon="5.771394" lat="51.12589"><ele>29</ele><time>2022-05-22T06:08:00.000Z</time></trkpt><trkpt lon="5.771476" lat="51.125851"><ele>29</ele><time>2022-05-22T06:08:01.000Z</time></trkpt><trkpt lon="5.771561" lat="51.125815"><ele>29.2</ele><time>2022-05-22T06:08:02.000Z</time></trkpt><trkpt lon="5.771643" lat="51.125777"><ele>29.2</ele><time>2022-05-22T06:08:03.000Z</time></trkpt><trkpt lon="5.771725" lat="51.125738"><ele>29.2</ele><time>2022-05-22T06:08:04.000Z</time></trkpt><trkpt lon="5.771809" lat="51.125699"><ele>29.2</ele><time>2022-05-22T06:08:05.000Z</time></trkpt><trkpt lon="5.771886" lat="51.125654"><ele>29.2</ele><time>2022-05-22T06:08:06.000Z</time></trkpt><trkpt lon="5.771965" lat="51.125615"><ele>29.2</ele><time>2022-05-22T06:08:07.000Z</time></trkpt><trkpt lon="5.772041" lat="51.125573"><ele>29.2</ele><time>2022-05-22T06:08:08.000Z</time></trkpt><trkpt lon="5.772119" lat="51.125535"><ele>29.2</ele><time>2022-05-22T06:08:09.000Z</time></trkpt><trkpt lon="5.772193" lat="51.125497"><ele>29.2</ele><time>2022-05-22T06:08:10.000Z</time></trkpt><trkpt lon="5.772268" lat="51.125459"><ele>29.2</ele><time>2022-05-22T06:08:11.000Z</time></trkpt><trkpt lon="5.772345" lat="51.12542"><ele>29.4</ele><time>2022-05-22T06:08:12.000Z</time></trkpt><trkpt lon="5.772421" lat="51.125383"><ele>29.4</ele><time>2022-05-22T06:08:13.000Z</time></trkpt><trkpt lon="5.772494" lat="51.125349"><ele>29.4</ele><time>2022-05-22T06:08:14.000Z</time></trkpt><trkpt lon="5.77257" lat="51.125314"><ele>29.4</ele><time>2022-05-22T06:08:15.000Z</time></trkpt><trkpt lon="5.772648" lat="51.125279"><ele>29.4</ele><time>2022-05-22T06:08:16.000Z</time></trkpt><trkpt lon="5.772727" lat="51.125245"><ele>29.6</ele><time>2022-05-22T06:08:17.000Z</time></trkpt><trkpt lon="5.772807" lat="51.125211"><ele>29.6</ele><time>2022-05-22T06:08:18.000Z</time></trkpt><trkpt lon="5.772888" lat="51.125173"><ele>29.6</ele><time>2022-05-22T06:08:19.000Z</time></trkpt><trkpt lon="5.772952" lat="51.125142"><ele>29.6</ele><time>2022-05-22T06:08:20.000Z</time></trkpt><trkpt lon="5.773049" lat="51.125097"><ele>29.6</ele><time>2022-05-22T06:08:21.000Z</time></trkpt><trkpt lon="5.773134" lat="51.125064"><ele>29.6</ele><time>2022-05-22T06:08:22.000Z</time></trkpt><trkpt lon="5.773211" lat="51.125034"><ele>29.6</ele><time>2022-05-22T06:08:23.000Z</time></trkpt><trkpt lon="5.773299" lat="51.125"><ele>29.6</ele><time>2022-05-22T06:08:24.000Z</time></trkpt><trkpt lon="5.773402" lat="51.124964"><ele>29.6</ele><time>2022-05-22T06:08:25.000Z</time></trkpt><trkpt lon="5.773496" lat="51.124933"><ele>29.6</ele><time>2022-05-22T06:08:26.000Z</time></trkpt><trkpt lon="5.773591" lat="51.124899"><ele>29.6</ele><time>2022-05-22T06:08:27.000Z</time></trkpt><trkpt lon="5.773688" lat="51.124871"><ele>29.6</ele><time>2022-05-22T06:08:28.000Z</time></trkpt><trkpt lon="5.773785" lat="51.12484"><ele>29.6</ele><time>2022-05-22T06:08:29.000Z</time></trkpt><trkpt lon="5.77388" lat="51.124818"><ele>29.6</ele><time>2022-05-22T06:08:30.000Z</time></trkpt><trkpt lon="5.773977" lat="51.124791"><ele>29.6</ele><time>2022-05-22T06:08:31.000Z</time></trkpt><trkpt lon="5.774072" lat="51.124769"><ele>29.6</ele><time>2022-05-22T06:08:32.000Z</time></trkpt><trkpt lon="5.774173" lat="51.124749"><ele>29.8</ele><time>2022-05-22T06:08:33.000Z</time></trkpt><trkpt lon="5.774266" lat="51.124731"><ele>29.8</ele><time>2022-05-22T06:08:34.000Z</time></trkpt><trkpt lon="5.774368" lat="51.124711"><ele>29.8</ele><time>2022-05-22T06:08:35.000Z</time></trkpt><trkpt lon="5.774468" lat="51.124696"><ele>29.6</ele><time>2022-05-22T06:08:36.000Z</time></trkpt><trkpt lon="5.77457" lat="51.12468"><ele>29.6</ele><time>2022-05-22T06:08:37.000Z</time></trkpt><trkpt lon="5.774673" lat="51.124661"><ele>29.6</ele><time>2022-05-22T06:08:38.000Z</time></trkpt><trkpt lon="5.774773" lat="51.124645"><ele>29.6</ele><time>2022-05-22T06:08:39.000Z</time></trkpt><trkpt lon="5.774874" lat="51.12463"><ele>29.6</ele><time>2022-05-22T06:08:40.000Z</time></trkpt><trkpt lon="5.774975" lat="51.124615"><ele>29.8</ele><time>2022-05-22T06:08:41.000Z</time></trkpt><trkpt lon="5.775075" lat="51.1246"><ele>29.6</ele><time>2022-05-22T06:08:42.000Z</time></trkpt><trkpt lon="5.775177" lat="51.124584"><ele>29.6</ele><time>2022-05-22T06:08:43.000Z</time></trkpt><trkpt lon="5.775263" lat="51.124568"><ele>29.8</ele><time>2022-05-22T06:08:44.000Z</time></trkpt><trkpt lon="5.775376" lat="51.12455"><ele>29.8</ele><time>2022-05-22T06:08:45.000Z</time></trkpt><trkpt lon="5.775474" lat="51.124532"><ele>29.8</ele><time>2022-05-22T06:08:46.000Z</time></trkpt><trkpt lon="5.775567" lat="51.124514"><ele>29.8</ele><time>2022-05-22T06:08:47.000Z</time></trkpt><trkpt lon="5.775663" lat="51.124495"><ele>29.8</ele><time>2022-05-22T06:08:48.000Z</time></trkpt><trkpt lon="5.775775" lat="51.124474"><ele>29.8</ele><time>2022-05-22T06:08:49.000Z</time></trkpt><trkpt lon="5.775871" lat="51.124452"><ele>29.8</ele><time>2022-05-22T06:08:50.000Z</time></trkpt><trkpt lon="5.775968" lat="51.124432"><ele>29.8</ele><time>2022-05-22T06:08:51.000Z</time></trkpt><trkpt lon="5.776064" lat="51.12441"><ele>29.8</ele><time>2022-05-22T06:08:52.000Z</time></trkpt><trkpt lon="5.776159" lat="51.124386"><ele>29.8</ele><time>2022-05-22T06:08:53.000Z</time></trkpt><trkpt lon="5.776253" lat="51.124364"><ele>29.8</ele><time>2022-05-22T06:08:54.000Z</time></trkpt><trkpt lon="5.776347" lat="51.124337"><ele>29.8</ele><time>2022-05-22T06:08:55.000Z</time></trkpt><trkpt lon="5.776445" lat="51.124314"><ele>29.8</ele><time>2022-05-22T06:08:56.000Z</time></trkpt><trkpt lon="5.776543" lat="51.124291"><ele>29.8</ele><time>2022-05-22T06:08:57.000Z</time></trkpt><trkpt lon="5.776639" lat="51.124268"><ele>29.8</ele><time>2022-05-22T06:08:58.000Z</time></trkpt><trkpt lon="5.776737" lat="51.124245"><ele>29.6</ele><time>2022-05-22T06:08:59.000Z</time></trkpt><trkpt lon="5.776836" lat="51.124218"><ele>29.6</ele><time>2022-05-22T06:09:00.000Z</time></trkpt><trkpt lon="5.776935" lat="51.124192"><ele>29.6</ele><time>2022-05-22T06:09:01.000Z</time></trkpt><trkpt lon="5.777035" lat="51.124169"><ele>29.6</ele><time>2022-05-22T06:09:02.000Z</time></trkpt><trkpt lon="5.777134" lat="51.124142"><ele>29.6</ele><time>2022-05-22T06:09:03.000Z</time></trkpt><trkpt lon="5.777234" lat="51.124119"><ele>29.6</ele><time>2022-05-22T06:09:04.000Z</time></trkpt><trkpt lon="5.77733" lat="51.124097"><ele>29.6</ele><time>2022-05-22T06:09:05.000Z</time></trkpt><trkpt lon="5.777432" lat="51.124074"><ele>29.6</ele><time>2022-05-22T06:09:06.000Z</time></trkpt><trkpt lon="5.777531" lat="51.124051"><ele>29.6</ele><time>2022-05-22T06:09:07.000Z</time></trkpt><trkpt lon="5.777631" lat="51.124024"><ele>29.8</ele><time>2022-05-22T06:09:08.000Z</time></trkpt><trkpt lon="5.777731" lat="51.124005"><ele>29.8</ele><time>2022-05-22T06:09:09.000Z</time></trkpt><trkpt lon="5.777824" lat="51.123987"><ele>29.8</ele><time>2022-05-22T06:09:10.000Z</time></trkpt><trkpt lon="5.777931" lat="51.123967"><ele>29.8</ele><time>2022-05-22T06:09:11.000Z</time></trkpt><trkpt lon="5.778028" lat="51.123945"><ele>29.8</ele><time>2022-05-22T06:09:12.000Z</time></trkpt><trkpt lon="5.778132" lat="51.123925"><ele>29.8</ele><time>2022-05-22T06:09:13.000Z</time></trkpt><trkpt lon="5.778223" lat="51.123908"><ele>29.8</ele><time>2022-05-22T06:09:14.000Z</time></trkpt><trkpt lon="5.778333" lat="51.12389"><ele>29.8</ele><time>2022-05-22T06:09:15.000Z</time></trkpt><trkpt lon="5.778434" lat="51.123875"><ele>29.6</ele><time>2022-05-22T06:09:16.000Z</time></trkpt><trkpt lon="5.778532" lat="51.123856"><ele>29.6</ele><time>2022-05-22T06:09:17.000Z</time></trkpt><trkpt lon="5.778631" lat="51.123841"><ele>29.6</ele><time>2022-05-22T06:09:18.000Z</time></trkpt><trkpt lon="5.778729" lat="51.123822"><ele>29.6</ele><time>2022-05-22T06:09:19.000Z</time></trkpt><trkpt lon="5.778824" lat="51.123803"><ele>29.6</ele><time>2022-05-22T06:09:20.000Z</time></trkpt><trkpt lon="5.778925" lat="51.123784"><ele>29.6</ele><time>2022-05-22T06:09:21.000Z</time></trkpt><trkpt lon="5.779021" lat="51.123768"><ele>29.6</ele><time>2022-05-22T06:09:22.000Z</time></trkpt><trkpt lon="5.779117" lat="51.123749"><ele>29.4</ele><time>2022-05-22T06:09:23.000Z</time></trkpt><trkpt lon="5.77921" lat="51.123734"><ele>29.4</ele><time>2022-05-22T06:09:24.000Z</time></trkpt><trkpt lon="5.779308" lat="51.123715"><ele>29.4</ele><time>2022-05-22T06:09:25.000Z</time></trkpt><trkpt lon="5.779406" lat="51.123696"><ele>29.6</ele><time>2022-05-22T06:09:26.000Z</time></trkpt><trkpt lon="5.779507" lat="51.123681"><ele>29.6</ele><time>2022-05-22T06:09:27.000Z</time></trkpt><trkpt lon="5.779607" lat="51.123658"><ele>29.6</ele><time>2022-05-22T06:09:28.000Z</time></trkpt><trkpt lon="5.779708" lat="51.123639"><ele>29.6</ele><time>2022-05-22T06:09:29.000Z</time></trkpt><trkpt lon="5.779808" lat="51.123623"><ele>29.6</ele><time>2022-05-22T06:09:30.000Z</time></trkpt><trkpt lon="5.77991" lat="51.123604"><ele>29.6</ele><time>2022-05-22T06:09:31.000Z</time></trkpt><trkpt lon="5.780013" lat="51.123585"><ele>29.6</ele><time>2022-05-22T06:09:32.000Z</time></trkpt><trkpt lon="5.780107" lat="51.123567"><ele>29.6</ele><time>2022-05-22T06:09:33.000Z</time></trkpt><trkpt lon="5.78021" lat="51.123551"><ele>29.6</ele><time>2022-05-22T06:09:34.000Z</time></trkpt><trkpt lon="5.780311" lat="51.123536"><ele>29.6</ele><time>2022-05-22T06:09:35.000Z</time></trkpt><trkpt lon="5.780419" lat="51.12352"><ele>29.6</ele><time>2022-05-22T06:09:36.000Z</time></trkpt><trkpt lon="5.780522" lat="51.123502"><ele>29.4</ele><time>2022-05-22T06:09:37.000Z</time></trkpt><trkpt lon="5.780625" lat="51.123483"><ele>29.4</ele><time>2022-05-22T06:09:38.000Z</time></trkpt><trkpt lon="5.780727" lat="51.123464"><ele>29.4</ele><time>2022-05-22T06:09:39.000Z</time></trkpt><trkpt lon="5.780832" lat="51.123441"><ele>29.4</ele><time>2022-05-22T06:09:40.000Z</time></trkpt><trkpt lon="5.780937" lat="51.123421"><ele>29.4</ele><time>2022-05-22T06:09:41.000Z</time></trkpt><trkpt lon="5.781041" lat="51.123406"><ele>29.4</ele><time>2022-05-22T06:09:42.000Z</time></trkpt><trkpt lon="5.781131" lat="51.123392"><ele>29.2</ele><time>2022-05-22T06:09:43.000Z</time></trkpt><trkpt lon="5.781246" lat="51.123372"><ele>29.2</ele><time>2022-05-22T06:09:44.000Z</time></trkpt><trkpt lon="5.781346" lat="51.123356"><ele>29.4</ele><time>2022-05-22T06:09:45.000Z</time></trkpt><trkpt lon="5.781448" lat="51.123337"><ele>29.4</ele><time>2022-05-22T06:09:46.000Z</time></trkpt><trkpt lon="5.781548" lat="51.123318"><ele>29.4</ele><time>2022-05-22T06:09:47.000Z</time></trkpt><trkpt lon="5.781646" lat="51.123303"><ele>29.4</ele><time>2022-05-22T06:09:48.000Z</time></trkpt><trkpt lon="5.781748" lat="51.123284"><ele>29.4</ele><time>2022-05-22T06:09:49.000Z</time></trkpt><trkpt lon="5.781853" lat="51.123265"><ele>29.4</ele><time>2022-05-22T06:09:50.000Z</time></trkpt><trkpt lon="5.781955" lat="51.123246"><ele>29.4</ele><time>2022-05-22T06:09:51.000Z</time></trkpt><trkpt lon="5.782058" lat="51.12323"><ele>29.4</ele><time>2022-05-22T06:09:52.000Z</time></trkpt><trkpt lon="5.782121" lat="51.123218"><ele>29.4</ele><time>2022-05-22T06:09:53.000Z</time></trkpt><trkpt lon="5.782259" lat="51.123193"><ele>29.4</ele><time>2022-05-22T06:09:54.000Z</time></trkpt><trkpt lon="5.782365" lat="51.123177"><ele>29.4</ele><time>2022-05-22T06:09:55.000Z</time></trkpt><trkpt lon="5.782467" lat="51.123158"><ele>29.4</ele><time>2022-05-22T06:09:56.000Z</time></trkpt><trkpt lon="5.782569" lat="51.123139"><ele>29.4</ele><time>2022-05-22T06:09:57.000Z</time></trkpt><trkpt lon="5.782668" lat="51.123124"><ele>29.4</ele><time>2022-05-22T06:09:58.000Z</time></trkpt><trkpt lon="5.782771" lat="51.123104"><ele>29.4</ele><time>2022-05-22T06:09:59.000Z</time></trkpt><trkpt lon="5.78287" lat="51.12309"><ele>29.6</ele><time>2022-05-22T06:10:00.000Z</time></trkpt><trkpt lon="5.782974" lat="51.12307"><ele>29.6</ele><time>2022-05-22T06:10:01.000Z</time></trkpt><trkpt lon="5.783071" lat="51.123056"><ele>29.6</ele><time>2022-05-22T06:10:02.000Z</time></trkpt><trkpt lon="5.783145" lat="51.123042"><ele>29.6</ele><time>2022-05-22T06:10:03.000Z</time></trkpt><trkpt lon="5.783255" lat="51.123024"><ele>29.6</ele><time>2022-05-22T06:10:04.000Z</time></trkpt><trkpt lon="5.783362" lat="51.123004"><ele>29.6</ele><time>2022-05-22T06:10:05.000Z</time></trkpt><trkpt lon="5.783468" lat="51.122986"><ele>29.4</ele><time>2022-05-22T06:10:06.000Z</time></trkpt><trkpt lon="5.783574" lat="51.122967"><ele>29.4</ele><time>2022-05-22T06:10:07.000Z</time></trkpt><trkpt lon="5.783673" lat="51.122948"><ele>29.4</ele><time>2022-05-22T06:10:08.000Z</time></trkpt><trkpt lon="5.783768" lat="51.122929"><ele>29.4</ele><time>2022-05-22T06:10:09.000Z</time></trkpt><trkpt lon="5.783869" lat="51.12291"><ele>29.6</ele><time>2022-05-22T06:10:10.000Z</time></trkpt><trkpt lon="5.783968" lat="51.122895"><ele>29.6</ele><time>2022-05-22T06:10:11.000Z</time></trkpt><trkpt lon="5.784066" lat="51.122876"><ele>29.6</ele><time>2022-05-22T06:10:12.000Z</time></trkpt><trkpt lon="5.784166" lat="51.12286"><ele>29.6</ele><time>2022-05-22T06:10:13.000Z</time></trkpt><trkpt lon="5.784267" lat="51.122845"><ele>29.6</ele><time>2022-05-22T06:10:14.000Z</time></trkpt><trkpt lon="5.78437" lat="51.122833"><ele>29.6</ele><time>2022-05-22T06:10:15.000Z</time></trkpt><trkpt lon="5.784471" lat="51.12283"><ele>29.4</ele><time>2022-05-22T06:10:16.000Z</time></trkpt><trkpt lon="5.784573" lat="51.122837"><ele>29.4</ele><time>2022-05-22T06:10:17.000Z</time></trkpt><trkpt lon="5.784673" lat="51.122856"><ele>29.4</ele><time>2022-05-22T06:10:18.000Z</time></trkpt><trkpt lon="5.784762" lat="51.122886"><ele>29.4</ele><time>2022-05-22T06:10:19.000Z</time></trkpt><trkpt lon="5.784843" lat="51.122924"><ele>29.4</ele><time>2022-05-22T06:10:20.000Z</time></trkpt><trkpt lon="5.784929" lat="51.122962"><ele>29.6</ele><time>2022-05-22T06:10:21.000Z</time></trkpt><trkpt lon="5.785016" lat="51.123"><ele>29.6</ele><time>2022-05-22T06:10:22.000Z</time></trkpt><trkpt lon="5.785102" lat="51.123031"><ele>29.8</ele><time>2022-05-22T06:10:23.000Z</time></trkpt><trkpt lon="5.785186" lat="51.12306"><ele>29.8</ele><time>2022-05-22T06:10:24.000Z</time></trkpt><trkpt lon="5.785279" lat="51.123081"><ele>29.8</ele><time>2022-05-22T06:10:25.000Z</time></trkpt><trkpt lon="5.785365" lat="51.123092"><ele>30</ele><time>2022-05-22T06:10:26.000Z</time></trkpt><trkpt lon="5.785453" lat="51.123096"><ele>30</ele><time>2022-05-22T06:10:27.000Z</time></trkpt><trkpt lon="5.78555" lat="51.123096"><ele>30</ele><time>2022-05-22T06:10:28.000Z</time></trkpt><trkpt lon="5.785652" lat="51.123104"><ele>30</ele><time>2022-05-22T06:10:29.000Z</time></trkpt><trkpt lon="5.785753" lat="51.123104"><ele>30</ele><time>2022-05-22T06:10:30.000Z</time></trkpt><trkpt lon="5.78585" lat="51.123104"><ele>30</ele><time>2022-05-22T06:10:31.000Z</time></trkpt><trkpt lon="5.785968" lat="51.123104"><ele>30</ele><time>2022-05-22T06:10:32.000Z</time></trkpt><trkpt lon="5.786075" lat="51.123108"><ele>30</ele><time>2022-05-22T06:10:33.000Z</time></trkpt><trkpt lon="5.786184" lat="51.123111"><ele>30</ele><time>2022-05-22T06:10:34.000Z</time></trkpt><trkpt lon="5.786295" lat="51.123115"><ele>30</ele><time>2022-05-22T06:10:35.000Z</time></trkpt><trkpt lon="5.786407" lat="51.123119"><ele>30</ele><time>2022-05-22T06:10:36.000Z</time></trkpt><trkpt lon="5.78652" lat="51.123123"><ele>30</ele><time>2022-05-22T06:10:37.000Z</time></trkpt><trkpt lon="5.786631" lat="51.123123"><ele>30</ele><time>2022-05-22T06:10:38.000Z</time></trkpt><trkpt lon="5.786739" lat="51.123127"><ele>30</ele><time>2022-05-22T06:10:39.000Z</time></trkpt><trkpt lon="5.786849" lat="51.123131"><ele>30</ele><time>2022-05-22T06:10:40.000Z</time></trkpt><trkpt lon="5.786959" lat="51.123131"><ele>30</ele><time>2022-05-22T06:10:41.000Z</time></trkpt><trkpt lon="5.787068" lat="51.123135"><ele>30</ele><time>2022-05-22T06:10:42.000Z</time></trkpt><trkpt lon="5.787178" lat="51.123138"><ele>30</ele><time>2022-05-22T06:10:43.000Z</time></trkpt><trkpt lon="5.787288" lat="51.123138"><ele>29.8</ele><time>2022-05-22T06:10:44.000Z</time></trkpt><trkpt lon="5.7874" lat="51.123138"><ele>29.8</ele><time>2022-05-22T06:10:45.000Z</time></trkpt><trkpt lon="5.787511" lat="51.123142"><ele>29.8</ele><time>2022-05-22T06:10:46.000Z</time></trkpt><trkpt lon="5.787626" lat="51.123146"><ele>29.6</ele><time>2022-05-22T06:10:47.000Z</time></trkpt><trkpt lon="5.787742" lat="51.123152"><ele>29.6</ele><time>2022-05-22T06:10:48.000Z</time></trkpt><trkpt lon="5.787857" lat="51.123157"><ele>29.4</ele><time>2022-05-22T06:10:49.000Z</time></trkpt><trkpt lon="5.787969" lat="51.123165"><ele>29.4</ele><time>2022-05-22T06:10:50.000Z</time></trkpt><trkpt lon="5.788084" lat="51.123173"><ele>29.2</ele><time>2022-05-22T06:10:51.000Z</time></trkpt><trkpt lon="5.788191" lat="51.123188"><ele>29.2</ele><time>2022-05-22T06:10:52.000Z</time></trkpt><trkpt lon="5.788287" lat="51.123209"><ele>29.2</ele><time>2022-05-22T06:10:53.000Z</time></trkpt><trkpt lon="5.788391" lat="51.123237"><ele>29.2</ele><time>2022-05-22T06:10:54.000Z</time></trkpt><trkpt lon="5.788482" lat="51.123261"><ele>29</ele><time>2022-05-22T06:10:55.000Z</time></trkpt><trkpt lon="5.788584" lat="51.12329"><ele>29</ele><time>2022-05-22T06:10:56.000Z</time></trkpt><trkpt lon="5.788678" lat="51.123313"><ele>29</ele><time>2022-05-22T06:10:57.000Z</time></trkpt><trkpt lon="5.788765" lat="51.123336"><ele>28.8</ele><time>2022-05-22T06:10:58.000Z</time></trkpt><trkpt lon="5.788849" lat="51.123359"><ele>28.8</ele><time>2022-05-22T06:10:59.000Z</time></trkpt><trkpt lon="5.788923" lat="51.123382"><ele>28.8</ele><time>2022-05-22T06:11:00.000Z</time></trkpt><trkpt lon="5.788995" lat="51.123401"><ele>28.8</ele><time>2022-05-22T06:11:01.000Z</time></trkpt><trkpt lon="5.789057" lat="51.123409"><ele>28.8</ele><time>2022-05-22T06:11:02.000Z</time></trkpt><trkpt lon="5.789105" lat="51.123402"><ele>28.8</ele><time>2022-05-22T06:11:03.000Z</time></trkpt><trkpt lon="5.789133" lat="51.123376"><ele>28.8</ele><time>2022-05-22T06:11:04.000Z</time></trkpt><trkpt lon="5.789135" lat="51.123338"><ele>28.8</ele><time>2022-05-22T06:11:05.000Z</time></trkpt><trkpt lon="5.789112" lat="51.123296"><ele>28.8</ele><time>2022-05-22T06:11:06.000Z</time></trkpt><trkpt lon="5.789076" lat="51.12325"><ele>28.8</ele><time>2022-05-22T06:11:07.000Z</time></trkpt><trkpt lon="5.789038" lat="51.123201"><ele>28.8</ele><time>2022-05-22T06:11:08.000Z</time></trkpt><trkpt lon="5.789002" lat="51.12314"><ele>28.8</ele><time>2022-05-22T06:11:09.000Z</time></trkpt><trkpt lon="5.788976" lat="51.12308"><ele>28.8</ele><time>2022-05-22T06:11:10.000Z</time></trkpt><trkpt lon="5.788966" lat="51.123018"><ele>28.8</ele><time>2022-05-22T06:11:11.000Z</time></trkpt><trkpt lon="5.788965" lat="51.122945"><ele>28.8</ele><time>2022-05-22T06:11:12.000Z</time></trkpt><trkpt lon="5.788968" lat="51.122877"><ele>28.6</ele><time>2022-05-22T06:11:13.000Z</time></trkpt><trkpt lon="5.788975" lat="51.122808"><ele>28.6</ele><time>2022-05-22T06:11:14.000Z</time></trkpt><trkpt lon="5.788978" lat="51.122742"><ele>28.6</ele><time>2022-05-22T06:11:15.000Z</time></trkpt><trkpt lon="5.788975" lat="51.122663"><ele>28.6</ele><time>2022-05-22T06:11:16.000Z</time></trkpt><trkpt lon="5.788964" lat="51.122594"><ele>28.6</ele><time>2022-05-22T06:11:17.000Z</time></trkpt><trkpt lon="5.788944" lat="51.122522"><ele>28.6</ele><time>2022-05-22T06:11:18.000Z</time></trkpt><trkpt lon="5.788919" lat="51.122454"><ele>28.8</ele><time>2022-05-22T06:11:19.000Z</time></trkpt><trkpt lon="5.788893" lat="51.12239"><ele>28.8</ele><time>2022-05-22T06:11:20.000Z</time></trkpt><trkpt lon="5.78886" lat="51.122318"><ele>28.8</ele><time>2022-05-22T06:11:21.000Z</time></trkpt><trkpt lon="5.788824" lat="51.122246"><ele>28.8</ele><time>2022-05-22T06:11:22.000Z</time></trkpt><trkpt lon="5.788786" lat="51.122176"><ele>29</ele><time>2022-05-22T06:11:23.000Z</time></trkpt><trkpt lon="5.78875" lat="51.122111"><ele>29</ele><time>2022-05-22T06:11:24.000Z</time></trkpt><trkpt lon="5.788711" lat="51.122042"><ele>29.2</ele><time>2022-05-22T06:11:25.000Z</time></trkpt><trkpt lon="5.788671" lat="51.121977"><ele>29.2</ele><time>2022-05-22T06:11:26.000Z</time></trkpt><trkpt lon="5.788629" lat="51.121915"><ele>29.2</ele><time>2022-05-22T06:11:27.000Z</time></trkpt><trkpt lon="5.788584" lat="51.121858"><ele>29.4</ele><time>2022-05-22T06:11:28.000Z</time></trkpt><trkpt lon="5.788535" lat="51.121797"><ele>29.4</ele><time>2022-05-22T06:11:29.000Z</time></trkpt><trkpt lon="5.788484" lat="51.121736"><ele>29.4</ele><time>2022-05-22T06:11:30.000Z</time></trkpt><trkpt lon="5.788435" lat="51.121679"><ele>29.4</ele><time>2022-05-22T06:11:31.000Z</time></trkpt><trkpt lon="5.788384" lat="51.121618"><ele>29.4</ele><time>2022-05-22T06:11:32.000Z</time></trkpt><trkpt lon="5.78834" lat="51.121561"><ele>29.6</ele><time>2022-05-22T06:11:33.000Z</time></trkpt><trkpt lon="5.788289" lat="51.121501"><ele>29.6</ele><time>2022-05-22T06:11:34.000Z</time></trkpt><trkpt lon="5.788237" lat="51.121443"><ele>29.8</ele><time>2022-05-22T06:11:35.000Z</time></trkpt><trkpt lon="5.788187" lat="51.121384"><ele>29.6</ele><time>2022-05-22T06:11:36.000Z</time></trkpt><trkpt lon="5.788136" lat="51.121324"><ele>29.6</ele><time>2022-05-22T06:11:37.000Z</time></trkpt><trkpt lon="5.788086" lat="51.121266"><ele>29.6</ele><time>2022-05-22T06:11:38.000Z</time></trkpt><trkpt lon="5.788039" lat="51.121209"><ele>29.6</ele><time>2022-05-22T06:11:39.000Z</time></trkpt><trkpt lon="5.787993" lat="51.12115"><ele>29.6</ele><time>2022-05-22T06:11:40.000Z</time></trkpt><trkpt lon="5.787943" lat="51.121091"><ele>29.6</ele><time>2022-05-22T06:11:41.000Z</time></trkpt><trkpt lon="5.787895" lat="51.121032"><ele>29.6</ele><time>2022-05-22T06:11:42.000Z</time></trkpt><trkpt lon="5.78785" lat="51.12097"><ele>29.6</ele><time>2022-05-22T06:11:43.000Z</time></trkpt><trkpt lon="5.787811" lat="51.120918"><ele>29.6</ele><time>2022-05-22T06:11:44.000Z</time></trkpt><trkpt lon="5.787766" lat="51.120849"><ele>29.6</ele><time>2022-05-22T06:11:45.000Z</time></trkpt><trkpt lon="5.787721" lat="51.120782"><ele>29.6</ele><time>2022-05-22T06:11:46.000Z</time></trkpt><trkpt lon="5.787685" lat="51.12073"><ele>29.6</ele><time>2022-05-22T06:11:47.000Z</time></trkpt><trkpt lon="5.787642" lat="51.120658"><ele>29.6</ele><time>2022-05-22T06:11:48.000Z</time></trkpt><trkpt lon="5.787605" lat="51.120596"><ele>29.6</ele><time>2022-05-22T06:11:49.000Z</time></trkpt><trkpt lon="5.787569" lat="51.120532"><ele>29.6</ele><time>2022-05-22T06:11:50.000Z</time></trkpt><trkpt lon="5.787533" lat="51.12047"><ele>29.6</ele><time>2022-05-22T06:11:51.000Z</time></trkpt><trkpt lon="5.787498" lat="51.120405"><ele>29.6</ele><time>2022-05-22T06:11:52.000Z</time></trkpt><trkpt lon="5.787466" lat="51.12035"><ele>29.6</ele><time>2022-05-22T06:11:53.000Z</time></trkpt><trkpt lon="5.787425" lat="51.120277"><ele>29.6</ele><time>2022-05-22T06:11:54.000Z</time></trkpt><trkpt lon="5.787386" lat="51.12021"><ele>29.6</ele><time>2022-05-22T06:11:55.000Z</time></trkpt><trkpt lon="5.787351" lat="51.120149"><ele>29.6</ele><time>2022-05-22T06:11:56.000Z</time></trkpt><trkpt lon="5.787314" lat="51.120084"><ele>29.6</ele><time>2022-05-22T06:11:57.000Z</time></trkpt><trkpt lon="5.78728" lat="51.120025"><ele>29.6</ele><time>2022-05-22T06:11:58.000Z</time></trkpt><trkpt lon="5.787241" lat="51.119959"><ele>29.4</ele><time>2022-05-22T06:11:59.000Z</time></trkpt><trkpt lon="5.787204" lat="51.119893"><ele>29.4</ele><time>2022-05-22T06:12:00.000Z</time></trkpt><trkpt lon="5.787169" lat="51.119828"><ele>29.4</ele><time>2022-05-22T06:12:01.000Z</time></trkpt><trkpt lon="5.787134" lat="51.119767"><ele>29.4</ele><time>2022-05-22T06:12:02.000Z</time></trkpt><trkpt lon="5.787102" lat="51.119705"><ele>29.4</ele><time>2022-05-22T06:12:03.000Z</time></trkpt><trkpt lon="5.787067" lat="51.119638"><ele>29.4</ele><time>2022-05-22T06:12:04.000Z</time></trkpt><trkpt lon="5.787038" lat="51.119574"><ele>29.4</ele><time>2022-05-22T06:12:05.000Z</time></trkpt><trkpt lon="5.78701" lat="51.119511"><ele>29.4</ele><time>2022-05-22T06:12:06.000Z</time></trkpt><trkpt lon="5.786978" lat="51.119443"><ele>29.4</ele><time>2022-05-22T06:12:07.000Z</time></trkpt><trkpt lon="5.786945" lat="51.119374"><ele>29.2</ele><time>2022-05-22T06:12:08.000Z</time></trkpt><trkpt lon="5.786915" lat="51.119314"><ele>29.2</ele><time>2022-05-22T06:12:09.000Z</time></trkpt><trkpt lon="5.78689" lat="51.119251"><ele>29.2</ele><time>2022-05-22T06:12:10.000Z</time></trkpt><trkpt lon="5.786859" lat="51.11919"><ele>29.2</ele><time>2022-05-22T06:12:11.000Z</time></trkpt><trkpt lon="5.786826" lat="51.119123"><ele>29.2</ele><time>2022-05-22T06:12:12.000Z</time></trkpt><trkpt lon="5.786796" lat="51.119058"><ele>29.2</ele><time>2022-05-22T06:12:13.000Z</time></trkpt><trkpt lon="5.786769" lat="51.118993"><ele>29</ele><time>2022-05-22T06:12:14.000Z</time></trkpt><trkpt lon="5.786744" lat="51.118928"><ele>29</ele><time>2022-05-22T06:12:15.000Z</time></trkpt><trkpt lon="5.786722" lat="51.11886"><ele>29</ele><time>2022-05-22T06:12:16.000Z</time></trkpt><trkpt lon="5.786706" lat="51.118796"><ele>29</ele><time>2022-05-22T06:12:17.000Z</time></trkpt><trkpt lon="5.7867" lat="51.11873"><ele>29</ele><time>2022-05-22T06:12:18.000Z</time></trkpt><trkpt lon="5.78671" lat="51.118662"><ele>29</ele><time>2022-05-22T06:12:19.000Z</time></trkpt><trkpt lon="5.786729" lat="51.118599"><ele>28.8</ele><time>2022-05-22T06:12:20.000Z</time></trkpt><trkpt lon="5.786759" lat="51.118528"><ele>28.8</ele><time>2022-05-22T06:12:21.000Z</time></trkpt><trkpt lon="5.786796" lat="51.118466"><ele>28.8</ele><time>2022-05-22T06:12:22.000Z</time></trkpt><trkpt lon="5.786837" lat="51.118406"><ele>28.8</ele><time>2022-05-22T06:12:23.000Z</time></trkpt><trkpt lon="5.786875" lat="51.118348"><ele>28.8</ele><time>2022-05-22T06:12:24.000Z</time></trkpt><trkpt lon="5.786911" lat="51.11828"><ele>28.8</ele><time>2022-05-22T06:12:25.000Z</time></trkpt><trkpt lon="5.786935" lat="51.118218"><ele>28.8</ele><time>2022-05-22T06:12:26.000Z</time></trkpt><trkpt lon="5.786951" lat="51.118146"><ele>28.6</ele><time>2022-05-22T06:12:27.000Z</time></trkpt><trkpt lon="5.786957" lat="51.118074"><ele>28.6</ele><time>2022-05-22T06:12:28.000Z</time></trkpt><trkpt lon="5.786952" lat="51.118004"><ele>28.6</ele><time>2022-05-22T06:12:29.000Z</time></trkpt><trkpt lon="5.78694" lat="51.117934"><ele>28.6</ele><time>2022-05-22T06:12:30.000Z</time></trkpt><trkpt lon="5.786924" lat="51.117866"><ele>28.6</ele><time>2022-05-22T06:12:31.000Z</time></trkpt><trkpt lon="5.786904" lat="51.117795"><ele>28.6</ele><time>2022-05-22T06:12:32.000Z</time></trkpt><trkpt lon="5.786885" lat="51.117734"><ele>28.6</ele><time>2022-05-22T06:12:33.000Z</time></trkpt><trkpt lon="5.786866" lat="51.117672"><ele>28.8</ele><time>2022-05-22T06:12:34.000Z</time></trkpt><trkpt lon="5.786845" lat="51.117608"><ele>28.8</ele><time>2022-05-22T06:12:35.000Z</time></trkpt><trkpt lon="5.786824" lat="51.117544"><ele>28.8</ele><time>2022-05-22T06:12:36.000Z</time></trkpt><trkpt lon="5.786804" lat="51.117488"><ele>28.8</ele><time>2022-05-22T06:12:37.000Z</time></trkpt><trkpt lon="5.786781" lat="51.117423"><ele>28.8</ele><time>2022-05-22T06:12:38.000Z</time></trkpt><trkpt lon="5.786757" lat="51.117358"><ele>28.8</ele><time>2022-05-22T06:12:39.000Z</time></trkpt><trkpt lon="5.786732" lat="51.117295"><ele>29</ele><time>2022-05-22T06:12:40.000Z</time></trkpt><trkpt lon="5.78671" lat="51.117234"><ele>29</ele><time>2022-05-22T06:12:41.000Z</time></trkpt><trkpt lon="5.786689" lat="51.11717"><ele>29</ele><time>2022-05-22T06:12:42.000Z</time></trkpt><trkpt lon="5.786669" lat="51.117101"><ele>29</ele><time>2022-05-22T06:12:43.000Z</time></trkpt><trkpt lon="5.786649" lat="51.117034"><ele>29</ele><time>2022-05-22T06:12:44.000Z</time></trkpt><trkpt lon="5.786634" lat="51.116969"><ele>29</ele><time>2022-05-22T06:12:45.000Z</time></trkpt><trkpt lon="5.786624" lat="51.116899"><ele>29</ele><time>2022-05-22T06:12:46.000Z</time></trkpt><trkpt lon="5.786617" lat="51.116835"><ele>29</ele><time>2022-05-22T06:12:47.000Z</time></trkpt><trkpt lon="5.786613" lat="51.116761"><ele>28.8</ele><time>2022-05-22T06:12:48.000Z</time></trkpt><trkpt lon="5.786612" lat="51.116694"><ele>28.8</ele><time>2022-05-22T06:12:49.000Z</time></trkpt><trkpt lon="5.786613" lat="51.116624"><ele>28.8</ele><time>2022-05-22T06:12:50.000Z</time></trkpt><trkpt lon="5.786621" lat="51.116559"><ele>28.8</ele><time>2022-05-22T06:12:51.000Z</time></trkpt><trkpt lon="5.786633" lat="51.116495"><ele>28.8</ele><time>2022-05-22T06:12:52.000Z</time></trkpt><trkpt lon="5.786649" lat="51.116435"><ele>28.6</ele><time>2022-05-22T06:12:53.000Z</time></trkpt><trkpt lon="5.786667" lat="51.116374"><ele>28.6</ele><time>2022-05-22T06:12:54.000Z</time></trkpt><trkpt lon="5.786688" lat="51.116304"><ele>28.6</ele><time>2022-05-22T06:12:55.000Z</time></trkpt><trkpt lon="5.786709" lat="51.116235"><ele>28.6</ele><time>2022-05-22T06:12:56.000Z</time></trkpt><trkpt lon="5.786735" lat="51.116167"><ele>28.6</ele><time>2022-05-22T06:12:57.000Z</time></trkpt><trkpt lon="5.786756" lat="51.116098"><ele>28.6</ele><time>2022-05-22T06:12:58.000Z</time></trkpt><trkpt lon="5.786778" lat="51.116029"><ele>28.6</ele><time>2022-05-22T06:12:59.000Z</time></trkpt><trkpt lon="5.786798" lat="51.115964"><ele>28.4</ele><time>2022-05-22T06:13:00.000Z</time></trkpt><trkpt lon="5.786826" lat="51.115888"><ele>28.4</ele><time>2022-05-22T06:13:01.000Z</time></trkpt><trkpt lon="5.786847" lat="51.115823"><ele>28.4</ele><time>2022-05-22T06:13:02.000Z</time></trkpt><trkpt lon="5.786867" lat="51.115756"><ele>28.4</ele><time>2022-05-22T06:13:03.000Z</time></trkpt><trkpt lon="5.786883" lat="51.115684"><ele>28.4</ele><time>2022-05-22T06:13:04.000Z</time></trkpt><trkpt lon="5.786896" lat="51.115615"><ele>28.4</ele><time>2022-05-22T06:13:05.000Z</time></trkpt><trkpt lon="5.786905" lat="51.115546"><ele>28.4</ele><time>2022-05-22T06:13:06.000Z</time></trkpt><trkpt lon="5.786916" lat="51.115469"><ele>28.6</ele><time>2022-05-22T06:13:07.000Z</time></trkpt><trkpt lon="5.786927" lat="51.1154"><ele>28.6</ele><time>2022-05-22T06:13:08.000Z</time></trkpt><trkpt lon="5.786933" lat="51.115335"><ele>28.8</ele><time>2022-05-22T06:13:09.000Z</time></trkpt><trkpt lon="5.786938" lat="51.115266"><ele>28.8</ele><time>2022-05-22T06:13:10.000Z</time></trkpt><trkpt lon="5.78694" lat="51.115197"><ele>28.8</ele><time>2022-05-22T06:13:11.000Z</time></trkpt><trkpt lon="5.786941" lat="51.115134"><ele>28.8</ele><time>2022-05-22T06:13:12.000Z</time></trkpt><trkpt lon="5.786942" lat="51.115064"><ele>28.6</ele><time>2022-05-22T06:13:13.000Z</time></trkpt><trkpt lon="5.78694" lat="51.114999"><ele>28.4</ele><time>2022-05-22T06:13:14.000Z</time></trkpt><trkpt lon="5.786938" lat="51.114927"><ele>28.4</ele><time>2022-05-22T06:13:15.000Z</time></trkpt><trkpt lon="5.786938" lat="51.114862"><ele>28.4</ele><time>2022-05-22T06:13:16.000Z</time></trkpt><trkpt lon="5.786937" lat="51.114798"><ele>28.4</ele><time>2022-05-22T06:13:17.000Z</time></trkpt><trkpt lon="5.786935" lat="51.114739"><ele>28.6</ele><time>2022-05-22T06:13:18.000Z</time></trkpt><trkpt lon="5.786934" lat="51.114676"><ele>28.8</ele><time>2022-05-22T06:13:19.000Z</time></trkpt><trkpt lon="5.786932" lat="51.114619"><ele>28.8</ele><time>2022-05-22T06:13:20.000Z</time></trkpt><trkpt lon="5.786931" lat="51.11456"><ele>29</ele><time>2022-05-22T06:13:21.000Z</time></trkpt><trkpt lon="5.78694" lat="51.114499"><ele>29</ele><time>2022-05-22T06:13:22.000Z</time></trkpt><trkpt lon="5.786948" lat="51.11444"><ele>29.2</ele><time>2022-05-22T06:13:23.000Z</time></trkpt><trkpt lon="5.786957" lat="51.11437"><ele>29.2</ele><time>2022-05-22T06:13:24.000Z</time></trkpt><trkpt lon="5.786961" lat="51.114306"><ele>29.2</ele><time>2022-05-22T06:13:25.000Z</time></trkpt><trkpt lon="5.786963" lat="51.114237"><ele>29.4</ele><time>2022-05-22T06:13:26.000Z</time></trkpt><trkpt lon="5.786963" lat="51.114171"><ele>29.4</ele><time>2022-05-22T06:13:27.000Z</time></trkpt><trkpt lon="5.786958" lat="51.114103"><ele>29.4</ele><time>2022-05-22T06:13:28.000Z</time></trkpt><trkpt lon="5.786948" lat="51.114034"><ele>29.4</ele><time>2022-05-22T06:13:29.000Z</time></trkpt><trkpt lon="5.786934" lat="51.113977"><ele>29.4</ele><time>2022-05-22T06:13:30.000Z</time></trkpt><trkpt lon="5.786905" lat="51.113901"><ele>29.6</ele><time>2022-05-22T06:13:31.000Z</time></trkpt><trkpt lon="5.786874" lat="51.113846"><ele>29.6</ele><time>2022-05-22T06:13:32.000Z</time></trkpt><trkpt lon="5.786832" lat="51.113786"><ele>29.8</ele><time>2022-05-22T06:13:33.000Z</time></trkpt><trkpt lon="5.786778" lat="51.113728"><ele>29.8</ele><time>2022-05-22T06:13:34.000Z</time></trkpt><trkpt lon="5.78672" lat="51.11367"><ele>30</ele><time>2022-05-22T06:13:35.000Z</time></trkpt><trkpt lon="5.786658" lat="51.113614"><ele>30</ele><time>2022-05-22T06:13:36.000Z</time></trkpt><trkpt lon="5.786596" lat="51.113564"><ele>30.2</ele><time>2022-05-22T06:13:37.000Z</time></trkpt><trkpt lon="5.786533" lat="51.113511"><ele>30.2</ele><time>2022-05-22T06:13:38.000Z</time></trkpt><trkpt lon="5.786468" lat="51.113458"><ele>30.4</ele><time>2022-05-22T06:13:39.000Z</time></trkpt><trkpt lon="5.786408" lat="51.11341"><ele>30.4</ele><time>2022-05-22T06:13:40.000Z</time></trkpt><trkpt lon="5.786344" lat="51.113356"><ele>30.4</ele><time>2022-05-22T06:13:41.000Z</time></trkpt><trkpt lon="5.786282" lat="51.113302"><ele>30.4</ele><time>2022-05-22T06:13:42.000Z</time></trkpt><trkpt lon="5.786219" lat="51.113244"><ele>30.6</ele><time>2022-05-22T06:13:43.000Z</time></trkpt><trkpt lon="5.786162" lat="51.113191"><ele>30.6</ele><time>2022-05-22T06:13:44.000Z</time></trkpt><trkpt lon="5.786107" lat="51.113131"><ele>30.6</ele><time>2022-05-22T06:13:45.000Z</time></trkpt><trkpt lon="5.786061" lat="51.113073"><ele>30.6</ele><time>2022-05-22T06:13:46.000Z</time></trkpt><trkpt lon="5.786021" lat="51.113008"><ele>30.6</ele><time>2022-05-22T06:13:47.000Z</time></trkpt><trkpt lon="5.785987" lat="51.112943"><ele>30.6</ele><time>2022-05-22T06:13:48.000Z</time></trkpt><trkpt lon="5.785955" lat="51.112878"><ele>30.6</ele><time>2022-05-22T06:13:49.000Z</time></trkpt><trkpt lon="5.785923" lat="51.112815"><ele>30.6</ele><time>2022-05-22T06:13:50.000Z</time></trkpt><trkpt lon="5.785891" lat="51.112753"><ele>30.6</ele><time>2022-05-22T06:13:51.000Z</time></trkpt><trkpt lon="5.785859" lat="51.112688"><ele>30.6</ele><time>2022-05-22T06:13:52.000Z</time></trkpt><trkpt lon="5.785835" lat="51.112639"><ele>30.8</ele><time>2022-05-22T06:13:53.000Z</time></trkpt><trkpt lon="5.7858" lat="51.112567"><ele>30.8</ele><time>2022-05-22T06:13:54.000Z</time></trkpt><trkpt lon="5.785767" lat="51.112501"><ele>30.8</ele><time>2022-05-22T06:13:55.000Z</time></trkpt><trkpt lon="5.785738" lat="51.112438"><ele>30.6</ele><time>2022-05-22T06:13:56.000Z</time></trkpt><trkpt lon="5.785707" lat="51.112374"><ele>30.6</ele><time>2022-05-22T06:13:57.000Z</time></trkpt><trkpt lon="5.785677" lat="51.11231"><ele>30.6</ele><time>2022-05-22T06:13:58.000Z</time></trkpt><trkpt lon="5.785647" lat="51.112245"><ele>30.6</ele><time>2022-05-22T06:13:59.000Z</time></trkpt><trkpt lon="5.785618" lat="51.112185"><ele>30.6</ele><time>2022-05-22T06:14:00.000Z</time></trkpt><trkpt lon="5.785588" lat="51.11212"><ele>30.6</ele><time>2022-05-22T06:14:01.000Z</time></trkpt><trkpt lon="5.785557" lat="51.112058"><ele>30.6</ele><time>2022-05-22T06:14:02.000Z</time></trkpt><trkpt lon="5.785526" lat="51.111996"><ele>30.6</ele><time>2022-05-22T06:14:03.000Z</time></trkpt><trkpt lon="5.785485" lat="51.111934"><ele>30.6</ele><time>2022-05-22T06:14:04.000Z</time></trkpt><trkpt lon="5.785443" lat="51.111878"><ele>30.6</ele><time>2022-05-22T06:14:05.000Z</time></trkpt><trkpt lon="5.785385" lat="51.111815"><ele>30.6</ele><time>2022-05-22T06:14:06.000Z</time></trkpt><trkpt lon="5.78533" lat="51.111759"><ele>30.4</ele><time>2022-05-22T06:14:07.000Z</time></trkpt><trkpt lon="5.785269" lat="51.111699"><ele>30.4</ele><time>2022-05-22T06:14:08.000Z</time></trkpt><trkpt lon="5.78521" lat="51.111642"><ele>30.2</ele><time>2022-05-22T06:14:09.000Z</time></trkpt><trkpt lon="5.785151" lat="51.111581"><ele>30.2</ele><time>2022-05-22T06:14:10.000Z</time></trkpt><trkpt lon="5.785091" lat="51.111521"><ele>30</ele><time>2022-05-22T06:14:11.000Z</time></trkpt><trkpt lon="5.785025" lat="51.11146"><ele>30</ele><time>2022-05-22T06:14:12.000Z</time></trkpt><trkpt lon="5.784959" lat="51.111399"><ele>29.8</ele><time>2022-05-22T06:14:13.000Z</time></trkpt><trkpt lon="5.784896" lat="51.111341"><ele>29.8</ele><time>2022-05-22T06:14:14.000Z</time></trkpt><trkpt lon="5.784829" lat="51.111276"><ele>29.6</ele><time>2022-05-22T06:14:15.000Z</time></trkpt><trkpt lon="5.784764" lat="51.111211"><ele>29.6</ele><time>2022-05-22T06:14:16.000Z</time></trkpt><trkpt lon="5.784703" lat="51.111147"><ele>29.6</ele><time>2022-05-22T06:14:17.000Z</time></trkpt><trkpt lon="5.784646" lat="51.111082"><ele>29.8</ele><time>2022-05-22T06:14:18.000Z</time></trkpt><trkpt lon="5.784591" lat="51.111014"><ele>29.8</ele><time>2022-05-22T06:14:19.000Z</time></trkpt><trkpt lon="5.784544" lat="51.110951"><ele>29.8</ele><time>2022-05-22T06:14:20.000Z</time></trkpt><trkpt lon="5.784491" lat="51.110885"><ele>29.8</ele><time>2022-05-22T06:14:21.000Z</time></trkpt><trkpt lon="5.784436" lat="51.110822"><ele>30</ele><time>2022-05-22T06:14:22.000Z</time></trkpt><trkpt lon="5.78438" lat="51.110754"><ele>29.8</ele><time>2022-05-22T06:14:23.000Z</time></trkpt><trkpt lon="5.78433" lat="51.110695"><ele>29.6</ele><time>2022-05-22T06:14:24.000Z</time></trkpt><trkpt lon="5.784278" lat="51.110631"><ele>29.4</ele><time>2022-05-22T06:14:25.000Z</time></trkpt><trkpt lon="5.784228" lat="51.11057"><ele>29.4</ele><time>2022-05-22T06:14:26.000Z</time></trkpt><trkpt lon="5.78418" lat="51.110515"><ele>29.4</ele><time>2022-05-22T06:14:27.000Z</time></trkpt><trkpt lon="5.784129" lat="51.110452"><ele>29.4</ele><time>2022-05-22T06:14:28.000Z</time></trkpt><trkpt lon="5.784079" lat="51.110391"><ele>29.4</ele><time>2022-05-22T06:14:29.000Z</time></trkpt><trkpt lon="5.784032" lat="51.110333"><ele>29.6</ele><time>2022-05-22T06:14:30.000Z</time></trkpt><trkpt lon="5.783981" lat="51.110269"><ele>29.6</ele><time>2022-05-22T06:14:31.000Z</time></trkpt><trkpt lon="5.783934" lat="51.110208"><ele>29.6</ele><time>2022-05-22T06:14:32.000Z</time></trkpt><trkpt lon="5.783889" lat="51.11015"><ele>29.4</ele><time>2022-05-22T06:14:33.000Z</time></trkpt><trkpt lon="5.783847" lat="51.110091"><ele>29.4</ele><time>2022-05-22T06:14:34.000Z</time></trkpt><trkpt lon="5.783807" lat="51.110028"><ele>29.4</ele><time>2022-05-22T06:14:35.000Z</time></trkpt><trkpt lon="5.783768" lat="51.109964"><ele>29.2</ele><time>2022-05-22T06:14:36.000Z</time></trkpt><trkpt lon="5.783734" lat="51.109899"><ele>29</ele><time>2022-05-22T06:14:37.000Z</time></trkpt><trkpt lon="5.783703" lat="51.109839"><ele>29</ele><time>2022-05-22T06:14:38.000Z</time></trkpt><trkpt lon="5.783675" lat="51.109775"><ele>29</ele><time>2022-05-22T06:14:39.000Z</time></trkpt><trkpt lon="5.783646" lat="51.109709"><ele>29.2</ele><time>2022-05-22T06:14:40.000Z</time></trkpt><trkpt lon="5.783616" lat="51.109647"><ele>29.2</ele><time>2022-05-22T06:14:41.000Z</time></trkpt><trkpt lon="5.783586" lat="51.109586"><ele>29.2</ele><time>2022-05-22T06:14:42.000Z</time></trkpt><trkpt lon="5.783556" lat="51.109521"><ele>29.2</ele><time>2022-05-22T06:14:43.000Z</time></trkpt><trkpt lon="5.783526" lat="51.109463"><ele>29.2</ele><time>2022-05-22T06:14:44.000Z</time></trkpt><trkpt lon="5.783492" lat="51.109396"><ele>29.2</ele><time>2022-05-22T06:14:45.000Z</time></trkpt><trkpt lon="5.783458" lat="51.109335"><ele>29.4</ele><time>2022-05-22T06:14:46.000Z</time></trkpt><trkpt lon="5.78343" lat="51.109275"><ele>29.4</ele><time>2022-05-22T06:14:47.000Z</time></trkpt><trkpt lon="5.7834" lat="51.109214"><ele>29.2</ele><time>2022-05-22T06:14:48.000Z</time></trkpt><trkpt lon="5.78336" lat="51.109141"><ele>29</ele><time>2022-05-22T06:14:49.000Z</time></trkpt><trkpt lon="5.783318" lat="51.10908"><ele>29</ele><time>2022-05-22T06:14:50.000Z</time></trkpt><trkpt lon="5.783271" lat="51.109018"><ele>29</ele><time>2022-05-22T06:14:51.000Z</time></trkpt><trkpt lon="5.783223" lat="51.108954"><ele>29</ele><time>2022-05-22T06:14:52.000Z</time></trkpt><trkpt lon="5.783182" lat="51.108889"><ele>29</ele><time>2022-05-22T06:14:53.000Z</time></trkpt><trkpt lon="5.783142" lat="51.108823"><ele>29</ele><time>2022-05-22T06:14:54.000Z</time></trkpt><trkpt lon="5.783101" lat="51.108758"><ele>29</ele><time>2022-05-22T06:14:55.000Z</time></trkpt><trkpt lon="5.783058" lat="51.108697"><ele>29</ele><time>2022-05-22T06:14:56.000Z</time></trkpt><trkpt lon="5.783012" lat="51.108636"><ele>29</ele><time>2022-05-22T06:14:57.000Z</time></trkpt><trkpt lon="5.782963" lat="51.108579"><ele>29</ele><time>2022-05-22T06:14:58.000Z</time></trkpt><trkpt lon="5.782917" lat="51.108518"><ele>28.8</ele><time>2022-05-22T06:14:59.000Z</time></trkpt><trkpt lon="5.782875" lat="51.108466"><ele>28.8</ele><time>2022-05-22T06:15:00.000Z</time></trkpt><trkpt lon="5.782836" lat="51.108416"><ele>28.8</ele><time>2022-05-22T06:15:01.000Z</time></trkpt><trkpt lon="5.782798" lat="51.108369"><ele>28.8</ele><time>2022-05-22T06:15:02.000Z</time></trkpt><trkpt lon="5.782756" lat="51.10832"><ele>28.6</ele><time>2022-05-22T06:15:03.000Z</time></trkpt><trkpt lon="5.782713" lat="51.108263"><ele>28.4</ele><time>2022-05-22T06:15:04.000Z</time></trkpt><trkpt lon="5.782681" lat="51.108218"><ele>28.4</ele><time>2022-05-22T06:15:05.000Z</time></trkpt><trkpt lon="5.782643" lat="51.108148"><ele>28.4</ele><time>2022-05-22T06:15:06.000Z</time></trkpt><trkpt lon="5.782614" lat="51.108091"><ele>28.4</ele><time>2022-05-22T06:15:07.000Z</time></trkpt><trkpt lon="5.782587" lat="51.10803"><ele>28.4</ele><time>2022-05-22T06:15:08.000Z</time></trkpt><trkpt lon="5.782567" lat="51.107966"><ele>28.4</ele><time>2022-05-22T06:15:09.000Z</time></trkpt><trkpt lon="5.782546" lat="51.107889"><ele>28.4</ele><time>2022-05-22T06:15:10.000Z</time></trkpt><trkpt lon="5.78253" lat="51.107816"><ele>28.4</ele><time>2022-05-22T06:15:11.000Z</time></trkpt><trkpt lon="5.782524" lat="51.107747"><ele>28.4</ele><time>2022-05-22T06:15:12.000Z</time></trkpt><trkpt lon="5.782513" lat="51.107671"><ele>28.4</ele><time>2022-05-22T06:15:13.000Z</time></trkpt><trkpt lon="5.782512" lat="51.107601"><ele>28.2</ele><time>2022-05-22T06:15:14.000Z</time></trkpt><trkpt lon="5.782503" lat="51.107526"><ele>28.4</ele><time>2022-05-22T06:15:15.000Z</time></trkpt><trkpt lon="5.782508" lat="51.107458"><ele>28.2</ele><time>2022-05-22T06:15:16.000Z</time></trkpt><trkpt lon="5.782515" lat="51.107382"><ele>28.4</ele><time>2022-05-22T06:15:17.000Z</time></trkpt><trkpt lon="5.782522" lat="51.107309"><ele>28.4</ele><time>2022-05-22T06:15:18.000Z</time></trkpt><trkpt lon="5.782533" lat="51.107236"><ele>28.4</ele><time>2022-05-22T06:15:19.000Z</time></trkpt><trkpt lon="5.782543" lat="51.107168"><ele>28.4</ele><time>2022-05-22T06:15:20.000Z</time></trkpt><trkpt lon="5.782555" lat="51.107095"><ele>28.4</ele><time>2022-05-22T06:15:21.000Z</time></trkpt><trkpt lon="5.782565" lat="51.107027"><ele>28.4</ele><time>2022-05-22T06:15:22.000Z</time></trkpt><trkpt lon="5.782572" lat="51.10695"><ele>28.4</ele><time>2022-05-22T06:15:23.000Z</time></trkpt><trkpt lon="5.782577" lat="51.106881"><ele>28.4</ele><time>2022-05-22T06:15:24.000Z</time></trkpt><trkpt lon="5.78259" lat="51.10682"><ele>28.4</ele><time>2022-05-22T06:15:25.000Z</time></trkpt><trkpt lon="5.782596" lat="51.106759"><ele>28.4</ele><time>2022-05-22T06:15:26.000Z</time></trkpt><trkpt lon="5.782603" lat="51.1067"><ele>28.4</ele><time>2022-05-22T06:15:27.000Z</time></trkpt><trkpt lon="5.782608" lat="51.106641"><ele>28.2</ele><time>2022-05-22T06:15:28.000Z</time></trkpt><trkpt lon="5.78261" lat="51.106584"><ele>28.2</ele><time>2022-05-22T06:15:29.000Z</time></trkpt><trkpt lon="5.782613" lat="51.106523"><ele>28</ele><time>2022-05-22T06:15:30.000Z</time></trkpt><trkpt lon="5.78261" lat="51.106463"><ele>27.8</ele><time>2022-05-22T06:15:31.000Z</time></trkpt><trkpt lon="5.782605" lat="51.106396"><ele>27.6</ele><time>2022-05-22T06:15:32.000Z</time></trkpt><trkpt lon="5.7826" lat="51.106324"><ele>27.4</ele><time>2022-05-22T06:15:33.000Z</time></trkpt><trkpt lon="5.782596" lat="51.106263"><ele>27.4</ele><time>2022-05-22T06:15:34.000Z</time></trkpt><trkpt lon="5.78259" lat="51.106196"><ele>27.4</ele><time>2022-05-22T06:15:35.000Z</time></trkpt><trkpt lon="5.782585" lat="51.106108"><ele>27.4</ele><time>2022-05-22T06:15:36.000Z</time></trkpt><trkpt lon="5.782582" lat="51.106035"><ele>27.4</ele><time>2022-05-22T06:15:37.000Z</time></trkpt><trkpt lon="5.782583" lat="51.105959"><ele>27.6</ele><time>2022-05-22T06:15:38.000Z</time></trkpt><trkpt lon="5.78259" lat="51.105887"><ele>27.6</ele><time>2022-05-22T06:15:39.000Z</time></trkpt><trkpt lon="5.782603" lat="51.10581"><ele>27.4</ele><time>2022-05-22T06:15:40.000Z</time></trkpt><trkpt lon="5.782621" lat="51.105738"><ele>27.4</ele><time>2022-05-22T06:15:41.000Z</time></trkpt><trkpt lon="5.78264" lat="51.105669"><ele>27.4</ele><time>2022-05-22T06:15:42.000Z</time></trkpt><trkpt lon="5.782664" lat="51.105603"><ele>27.4</ele><time>2022-05-22T06:15:43.000Z</time></trkpt><trkpt lon="5.782694" lat="51.105535"><ele>27.6</ele><time>2022-05-22T06:15:44.000Z</time></trkpt><trkpt lon="5.782726" lat="51.105471"><ele>27.8</ele><time>2022-05-22T06:15:45.000Z</time></trkpt><trkpt lon="5.782759" lat="51.105407"><ele>28</ele><time>2022-05-22T06:15:46.000Z</time></trkpt><trkpt lon="5.782797" lat="51.105341"><ele>28</ele><time>2022-05-22T06:15:47.000Z</time></trkpt><trkpt lon="5.782839" lat="51.105275"><ele>28</ele><time>2022-05-22T06:15:48.000Z</time></trkpt><trkpt lon="5.782884" lat="51.105216"><ele>28</ele><time>2022-05-22T06:15:49.000Z</time></trkpt><trkpt lon="5.782939" lat="51.10516"><ele>27.8</ele><time>2022-05-22T06:15:50.000Z</time></trkpt><trkpt lon="5.783007" lat="51.105104"><ele>27.8</ele><time>2022-05-22T06:15:51.000Z</time></trkpt><trkpt lon="5.78308" lat="51.105054"><ele>27.6</ele><time>2022-05-22T06:15:52.000Z</time></trkpt><trkpt lon="5.783158" lat="51.105011"><ele>27.6</ele><time>2022-05-22T06:15:53.000Z</time></trkpt><trkpt lon="5.783236" lat="51.104968"><ele>27.8</ele><time>2022-05-22T06:15:54.000Z</time></trkpt><trkpt lon="5.783318" lat="51.10492"><ele>28</ele><time>2022-05-22T06:15:55.000Z</time></trkpt><trkpt lon="5.783404" lat="51.104883"><ele>28</ele><time>2022-05-22T06:15:56.000Z</time></trkpt><trkpt lon="5.783493" lat="51.104844"><ele>28</ele><time>2022-05-22T06:15:57.000Z</time></trkpt><trkpt lon="5.783578" lat="51.104802"><ele>28</ele><time>2022-05-22T06:15:58.000Z</time></trkpt><trkpt lon="5.783664" lat="51.104764"><ele>28</ele><time>2022-05-22T06:15:59.000Z</time></trkpt><trkpt lon="5.783745" lat="51.104726"><ele>28.2</ele><time>2022-05-22T06:16:00.000Z</time></trkpt><trkpt lon="5.783829" lat="51.104691"><ele>28.2</ele><time>2022-05-22T06:16:01.000Z</time></trkpt><trkpt lon="5.78391" lat="51.104657"><ele>28.4</ele><time>2022-05-22T06:16:02.000Z</time></trkpt><trkpt lon="5.783987" lat="51.104626"><ele>28.6</ele><time>2022-05-22T06:16:03.000Z</time></trkpt><trkpt lon="5.784061" lat="51.104596"><ele>28.6</ele><time>2022-05-22T06:16:04.000Z</time></trkpt><trkpt lon="5.784114" lat="51.104571"><ele>28.6</ele><time>2022-05-22T06:16:05.000Z</time></trkpt><trkpt lon="5.784172" lat="51.104524"><ele>28.8</ele><time>2022-05-22T06:16:06.000Z</time></trkpt><trkpt lon="5.784194" lat="51.104475"><ele>28.8</ele><time>2022-05-22T06:16:07.000Z</time></trkpt><trkpt lon="5.784182" lat="51.104413"><ele>28.8</ele><time>2022-05-22T06:16:08.000Z</time></trkpt><trkpt lon="5.784149" lat="51.10436"><ele>28.8</ele><time>2022-05-22T06:16:09.000Z</time></trkpt><trkpt lon="5.784114" lat="51.104308"><ele>28.8</ele><time>2022-05-22T06:16:10.000Z</time></trkpt><trkpt lon="5.784075" lat="51.104254"><ele>29</ele><time>2022-05-22T06:16:11.000Z</time></trkpt><trkpt lon="5.784033" lat="51.104199"><ele>29</ele><time>2022-05-22T06:16:12.000Z</time></trkpt><trkpt lon="5.783993" lat="51.10415"><ele>29.2</ele><time>2022-05-22T06:16:13.000Z</time></trkpt><trkpt lon="5.783964" lat="51.104104"><ele>29.2</ele><time>2022-05-22T06:16:14.000Z</time></trkpt><trkpt lon="5.783959" lat="51.104051"><ele>29.2</ele><time>2022-05-22T06:16:15.000Z</time></trkpt><trkpt lon="5.783979" lat="51.104002"><ele>29.2</ele><time>2022-05-22T06:16:16.000Z</time></trkpt><trkpt lon="5.784047" lat="51.10397"><ele>29.2</ele><time>2022-05-22T06:16:17.000Z</time></trkpt><trkpt lon="5.784132" lat="51.103951"><ele>29</ele><time>2022-05-22T06:16:18.000Z</time></trkpt><trkpt lon="5.784222" lat="51.103939"><ele>28.6</ele><time>2022-05-22T06:16:19.000Z</time></trkpt><trkpt lon="5.784321" lat="51.103932"><ele>28.4</ele><time>2022-05-22T06:16:20.000Z</time></trkpt><trkpt lon="5.784426" lat="51.103931"><ele>28.2</ele><time>2022-05-22T06:16:21.000Z</time></trkpt><trkpt lon="5.784538" lat="51.103928"><ele>28.2</ele><time>2022-05-22T06:16:22.000Z</time></trkpt><trkpt lon="5.78465" lat="51.103924"><ele>28.2</ele><time>2022-05-22T06:16:23.000Z</time></trkpt><trkpt lon="5.784761" lat="51.103924"><ele>28</ele><time>2022-05-22T06:16:24.000Z</time></trkpt><trkpt lon="5.784874" lat="51.103924"><ele>28</ele><time>2022-05-22T06:16:25.000Z</time></trkpt><trkpt lon="5.784986" lat="51.10392"><ele>28</ele><time>2022-05-22T06:16:26.000Z</time></trkpt><trkpt lon="5.785098" lat="51.103909"><ele>27.8</ele><time>2022-05-22T06:16:27.000Z</time></trkpt><trkpt lon="5.785211" lat="51.103894"><ele>27.8</ele><time>2022-05-22T06:16:28.000Z</time></trkpt><trkpt lon="5.78532" lat="51.103879"><ele>27.6</ele><time>2022-05-22T06:16:29.000Z</time></trkpt><trkpt lon="5.785433" lat="51.103859"><ele>27.2</ele><time>2022-05-22T06:16:30.000Z</time></trkpt><trkpt lon="5.785543" lat="51.103844"><ele>27</ele><time>2022-05-22T06:16:31.000Z</time></trkpt><trkpt lon="5.785651" lat="51.103825"><ele>26.8</ele><time>2022-05-22T06:16:32.000Z</time></trkpt><trkpt lon="5.785761" lat="51.103806"><ele>26.6</ele><time>2022-05-22T06:16:33.000Z</time></trkpt><trkpt lon="5.785871" lat="51.103791"><ele>26.4</ele><time>2022-05-22T06:16:34.000Z</time></trkpt><trkpt lon="5.785986" lat="51.103775"><ele>26.4</ele><time>2022-05-22T06:16:35.000Z</time></trkpt><trkpt lon="5.786068" lat="51.103761"><ele>26.4</ele><time>2022-05-22T06:16:36.000Z</time></trkpt><trkpt lon="5.786197" lat="51.103734"><ele>26.4</ele><time>2022-05-22T06:16:37.000Z</time></trkpt><trkpt lon="5.786301" lat="51.103707"><ele>26.4</ele><time>2022-05-22T06:16:38.000Z</time></trkpt><trkpt lon="5.786404" lat="51.10368"><ele>26.2</ele><time>2022-05-22T06:16:39.000Z</time></trkpt><trkpt lon="5.786503" lat="51.103657"><ele>26.2</ele><time>2022-05-22T06:16:40.000Z</time></trkpt><trkpt lon="5.786597" lat="51.103631"><ele>26</ele><time>2022-05-22T06:16:41.000Z</time></trkpt><trkpt lon="5.78669" lat="51.103604"><ele>26</ele><time>2022-05-22T06:16:42.000Z</time></trkpt><trkpt lon="5.786781" lat="51.103577"><ele>26</ele><time>2022-05-22T06:16:43.000Z</time></trkpt><trkpt lon="5.786869" lat="51.103552"><ele>26</ele><time>2022-05-22T06:16:44.000Z</time></trkpt><trkpt lon="5.786965" lat="51.103524"><ele>26.2</ele><time>2022-05-22T06:16:45.000Z</time></trkpt><trkpt lon="5.787057" lat="51.103501"><ele>26.4</ele><time>2022-05-22T06:16:46.000Z</time></trkpt><trkpt lon="5.787146" lat="51.103474"><ele>26.4</ele><time>2022-05-22T06:16:47.000Z</time></trkpt><trkpt lon="5.787236" lat="51.103448"><ele>26.4</ele><time>2022-05-22T06:16:48.000Z</time></trkpt><trkpt lon="5.787326" lat="51.103425"><ele>26.6</ele><time>2022-05-22T06:16:49.000Z</time></trkpt><trkpt lon="5.787414" lat="51.103402"><ele>26.6</ele><time>2022-05-22T06:16:50.000Z</time></trkpt><trkpt lon="5.787497" lat="51.103379"><ele>26.6</ele><time>2022-05-22T06:16:51.000Z</time></trkpt><trkpt lon="5.787578" lat="51.103356"><ele>26.4</ele><time>2022-05-22T06:16:52.000Z</time></trkpt><trkpt lon="5.787655" lat="51.103334"><ele>26.6</ele><time>2022-05-22T06:16:53.000Z</time></trkpt><trkpt lon="5.78773" lat="51.103314"><ele>26.6</ele><time>2022-05-22T06:16:54.000Z</time></trkpt><trkpt lon="5.787798" lat="51.103291"><ele>26.8</ele><time>2022-05-22T06:16:55.000Z</time></trkpt><trkpt lon="5.787848" lat="51.103265"><ele>27</ele><time>2022-05-22T06:16:56.000Z</time></trkpt><trkpt lon="5.787862" lat="51.103227"><ele>27</ele><time>2022-05-22T06:16:57.000Z</time></trkpt><trkpt lon="5.787834" lat="51.103181"><ele>27.2</ele><time>2022-05-22T06:16:58.000Z</time></trkpt><trkpt lon="5.787786" lat="51.103131"><ele>27.2</ele><time>2022-05-22T06:16:59.000Z</time></trkpt><trkpt lon="5.787732" lat="51.103084"><ele>27.4</ele><time>2022-05-22T06:17:00.000Z</time></trkpt><trkpt lon="5.787676" lat="51.103029"><ele>27.4</ele><time>2022-05-22T06:17:01.000Z</time></trkpt><trkpt lon="5.787631" lat="51.102972"><ele>27.4</ele><time>2022-05-22T06:17:02.000Z</time></trkpt><trkpt lon="5.787591" lat="51.10291"><ele>27.2</ele><time>2022-05-22T06:17:03.000Z</time></trkpt><trkpt lon="5.787554" lat="51.102849"><ele>27.2</ele><time>2022-05-22T06:17:04.000Z</time></trkpt><trkpt lon="5.787519" lat="51.102788"><ele>27.4</ele><time>2022-05-22T06:17:05.000Z</time></trkpt><trkpt lon="5.787494" lat="51.102728"><ele>27.4</ele><time>2022-05-22T06:17:06.000Z</time></trkpt><trkpt lon="5.78748" lat="51.102663"><ele>27.4</ele><time>2022-05-22T06:17:07.000Z</time></trkpt><trkpt lon="5.787478" lat="51.102597"><ele>27.2</ele><time>2022-05-22T06:17:08.000Z</time></trkpt><trkpt lon="5.787486" lat="51.102533"><ele>27.4</ele><time>2022-05-22T06:17:09.000Z</time></trkpt><trkpt lon="5.787498" lat="51.102468"><ele>27.2</ele><time>2022-05-22T06:17:10.000Z</time></trkpt><trkpt lon="5.787512" lat="51.102403"><ele>27.2</ele><time>2022-05-22T06:17:11.000Z</time></trkpt><trkpt lon="5.787526" lat="51.102335"><ele>27.2</ele><time>2022-05-22T06:17:12.000Z</time></trkpt><trkpt lon="5.787542" lat="51.102266"><ele>27.2</ele><time>2022-05-22T06:17:13.000Z</time></trkpt><trkpt lon="5.787558" lat="51.102201"><ele>27.2</ele><time>2022-05-22T06:17:14.000Z</time></trkpt><trkpt lon="5.787574" lat="51.102133"><ele>27.2</ele><time>2022-05-22T06:17:15.000Z</time></trkpt><trkpt lon="5.787588" lat="51.102063"><ele>27.2</ele><time>2022-05-22T06:17:16.000Z</time></trkpt><trkpt lon="5.787601" lat="51.101999"><ele>27.4</ele><time>2022-05-22T06:17:17.000Z</time></trkpt><trkpt lon="5.78761" lat="51.101935"><ele>27.4</ele><time>2022-05-22T06:17:18.000Z</time></trkpt><trkpt lon="5.78762" lat="51.101872"><ele>27.6</ele><time>2022-05-22T06:17:19.000Z</time></trkpt><trkpt lon="5.787633" lat="51.101801"><ele>27.6</ele><time>2022-05-22T06:17:20.000Z</time></trkpt><trkpt lon="5.787648" lat="51.101732"><ele>27.6</ele><time>2022-05-22T06:17:21.000Z</time></trkpt><trkpt lon="5.787661" lat="51.101667"><ele>27.6</ele><time>2022-05-22T06:17:22.000Z</time></trkpt><trkpt lon="5.787675" lat="51.101598"><ele>27.6</ele><time>2022-05-22T06:17:23.000Z</time></trkpt><trkpt lon="5.787686" lat="51.101531"><ele>27.6</ele><time>2022-05-22T06:17:24.000Z</time></trkpt><trkpt lon="5.787699" lat="51.101463"><ele>27.6</ele><time>2022-05-22T06:17:25.000Z</time></trkpt><trkpt lon="5.787713" lat="51.101394"><ele>27.4</ele><time>2022-05-22T06:17:26.000Z</time></trkpt><trkpt lon="5.787727" lat="51.101324"><ele>27.2</ele><time>2022-05-22T06:17:27.000Z</time></trkpt><trkpt lon="5.787743" lat="51.101259"><ele>27</ele><time>2022-05-22T06:17:28.000Z</time></trkpt><trkpt lon="5.787756" lat="51.101191"><ele>27</ele><time>2022-05-22T06:17:29.000Z</time></trkpt><trkpt lon="5.787773" lat="51.101126"><ele>27</ele><time>2022-05-22T06:17:30.000Z</time></trkpt><trkpt lon="5.787788" lat="51.101057"><ele>27</ele><time>2022-05-22T06:17:31.000Z</time></trkpt><trkpt lon="5.787803" lat="51.100993"><ele>27</ele><time>2022-05-22T06:17:32.000Z</time></trkpt><trkpt lon="5.787818" lat="51.100923"><ele>27</ele><time>2022-05-22T06:17:33.000Z</time></trkpt><trkpt lon="5.787833" lat="51.100854"><ele>27</ele><time>2022-05-22T06:17:34.000Z</time></trkpt><trkpt lon="5.78785" lat="51.100785"><ele>27</ele><time>2022-05-22T06:17:35.000Z</time></trkpt><trkpt lon="5.787865" lat="51.100718"><ele>26.8</ele><time>2022-05-22T06:17:36.000Z</time></trkpt><trkpt lon="5.787882" lat="51.100645"><ele>26.8</ele><time>2022-05-22T06:17:37.000Z</time></trkpt><trkpt lon="5.787896" lat="51.10058"><ele>27</ele><time>2022-05-22T06:17:38.000Z</time></trkpt><trkpt lon="5.787911" lat="51.100513"><ele>26.8</ele><time>2022-05-22T06:17:39.000Z</time></trkpt><trkpt lon="5.787926" lat="51.100447"><ele>27</ele><time>2022-05-22T06:17:40.000Z</time></trkpt><trkpt lon="5.787941" lat="51.100381"><ele>27</ele><time>2022-05-22T06:17:41.000Z</time></trkpt><trkpt lon="5.787956" lat="51.100317"><ele>27</ele><time>2022-05-22T06:17:42.000Z</time></trkpt><trkpt lon="5.78797" lat="51.100248"><ele>26.8</ele><time>2022-05-22T06:17:43.000Z</time></trkpt><trkpt lon="5.787984" lat="51.10019"><ele>26.8</ele><time>2022-05-22T06:17:44.000Z</time></trkpt><trkpt lon="5.787998" lat="51.100127"><ele>26.8</ele><time>2022-05-22T06:17:45.000Z</time></trkpt><trkpt lon="5.788015" lat="51.100064"><ele>26.6</ele><time>2022-05-22T06:17:46.000Z</time></trkpt><trkpt lon="5.788033" lat="51.100004"><ele>26.6</ele><time>2022-05-22T06:17:47.000Z</time></trkpt><trkpt lon="5.788053" lat="51.099943"><ele>26.6</ele><time>2022-05-22T06:17:48.000Z</time></trkpt><trkpt lon="5.788074" lat="51.099886"><ele>26.8</ele><time>2022-05-22T06:17:49.000Z</time></trkpt><trkpt lon="5.788098" lat="51.099828"><ele>26.8</ele><time>2022-05-22T06:17:50.000Z</time></trkpt><trkpt lon="5.788116" lat="51.099771"><ele>27</ele><time>2022-05-22T06:17:51.000Z</time></trkpt><trkpt lon="5.788128" lat="51.099714"><ele>27.2</ele><time>2022-05-22T06:17:52.000Z</time></trkpt><trkpt lon="5.788133" lat="51.099673"><ele>27.2</ele><time>2022-05-22T06:17:53.000Z</time></trkpt><trkpt lon="5.788133" lat="51.099607"><ele>27.4</ele><time>2022-05-22T06:17:54.000Z</time></trkpt><trkpt lon="5.788119" lat="51.099561"><ele>27.4</ele><time>2022-05-22T06:17:55.000Z</time></trkpt><trkpt lon="5.788112" lat="51.099523"><ele>27.6</ele><time>2022-05-22T06:17:56.000Z</time></trkpt><trkpt lon="5.788123" lat="51.099484"><ele>27.6</ele><time>2022-05-22T06:17:57.000Z</time></trkpt><trkpt lon="5.788167" lat="51.099457"><ele>27.6</ele><time>2022-05-22T06:17:58.000Z</time></trkpt><trkpt lon="5.788233" lat="51.099449"><ele>27.6</ele><time>2022-05-22T06:17:59.000Z</time></trkpt><trkpt lon="5.788312" lat="51.09946"><ele>27.6</ele><time>2022-05-22T06:18:00.000Z</time></trkpt><trkpt lon="5.788408" lat="51.099475"><ele>27.6</ele><time>2022-05-22T06:18:01.000Z</time></trkpt><trkpt lon="5.788509" lat="51.099491"><ele>27.6</ele><time>2022-05-22T06:18:02.000Z</time></trkpt><trkpt lon="5.788618" lat="51.099495"><ele>27.6</ele><time>2022-05-22T06:18:03.000Z</time></trkpt><trkpt lon="5.788731" lat="51.099502"><ele>27.6</ele><time>2022-05-22T06:18:04.000Z</time></trkpt><trkpt lon="5.788843" lat="51.09951"><ele>27.4</ele><time>2022-05-22T06:18:05.000Z</time></trkpt><trkpt lon="5.788962" lat="51.099518"><ele>27.4</ele><time>2022-05-22T06:18:06.000Z</time></trkpt><trkpt lon="5.789081" lat="51.099529"><ele>27.4</ele><time>2022-05-22T06:18:07.000Z</time></trkpt><trkpt lon="5.789199" lat="51.09954"><ele>27.4</ele><time>2022-05-22T06:18:08.000Z</time></trkpt><trkpt lon="5.789312" lat="51.099548"><ele>27.2</ele><time>2022-05-22T06:18:09.000Z</time></trkpt><trkpt lon="5.789432" lat="51.099559"><ele>27.2</ele><time>2022-05-22T06:18:10.000Z</time></trkpt><trkpt lon="5.789547" lat="51.099567"><ele>27.2</ele><time>2022-05-22T06:18:11.000Z</time></trkpt><trkpt lon="5.789664" lat="51.099575"><ele>27.2</ele><time>2022-05-22T06:18:12.000Z</time></trkpt><trkpt lon="5.789782" lat="51.099583"><ele>27.2</ele><time>2022-05-22T06:18:13.000Z</time></trkpt><trkpt lon="5.789897" lat="51.099586"><ele>27.2</ele><time>2022-05-22T06:18:14.000Z</time></trkpt><trkpt lon="5.790011" lat="51.09959"><ele>27.2</ele><time>2022-05-22T06:18:15.000Z</time></trkpt><trkpt lon="5.790128" lat="51.099594"><ele>27.2</ele><time>2022-05-22T06:18:16.000Z</time></trkpt><trkpt lon="5.79024" lat="51.099602"><ele>27.2</ele><time>2022-05-22T06:18:17.000Z</time></trkpt><trkpt lon="5.790351" lat="51.099602"><ele>27.2</ele><time>2022-05-22T06:18:18.000Z</time></trkpt><trkpt lon="5.790465" lat="51.099605"><ele>27.2</ele><time>2022-05-22T06:18:19.000Z</time></trkpt><trkpt lon="5.790576" lat="51.099609"><ele>27.2</ele><time>2022-05-22T06:18:20.000Z</time></trkpt><trkpt lon="5.790687" lat="51.099613"><ele>27.2</ele><time>2022-05-22T06:18:21.000Z</time></trkpt><trkpt lon="5.790794" lat="51.099613"><ele>27.2</ele><time>2022-05-22T06:18:22.000Z</time></trkpt><trkpt lon="5.790902" lat="51.099613"><ele>27</ele><time>2022-05-22T06:18:23.000Z</time></trkpt><trkpt lon="5.791013" lat="51.099609"><ele>27</ele><time>2022-05-22T06:18:24.000Z</time></trkpt><trkpt lon="5.791121" lat="51.099606"><ele>27</ele><time>2022-05-22T06:18:25.000Z</time></trkpt><trkpt lon="5.791231" lat="51.099606"><ele>26.8</ele><time>2022-05-22T06:18:26.000Z</time></trkpt><trkpt lon="5.79134" lat="51.099602"><ele>26.8</ele><time>2022-05-22T06:18:27.000Z</time></trkpt><trkpt lon="5.791448" lat="51.099602"><ele>26.8</ele><time>2022-05-22T06:18:28.000Z</time></trkpt><trkpt lon="5.791555" lat="51.099598"><ele>26.8</ele><time>2022-05-22T06:18:29.000Z</time></trkpt><trkpt lon="5.791663" lat="51.09959"><ele>27</ele><time>2022-05-22T06:18:30.000Z</time></trkpt><trkpt lon="5.791766" lat="51.099587"><ele>27</ele><time>2022-05-22T06:18:31.000Z</time></trkpt><trkpt lon="5.791874" lat="51.099579"><ele>27</ele><time>2022-05-22T06:18:32.000Z</time></trkpt><trkpt lon="5.79198" lat="51.099575"><ele>27.2</ele><time>2022-05-22T06:18:33.000Z</time></trkpt><trkpt lon="5.792085" lat="51.099568"><ele>27.2</ele><time>2022-05-22T06:18:34.000Z</time></trkpt><trkpt lon="5.792191" lat="51.09956"><ele>27.2</ele><time>2022-05-22T06:18:35.000Z</time></trkpt><trkpt lon="5.792298" lat="51.099553"><ele>27.2</ele><time>2022-05-22T06:18:36.000Z</time></trkpt><trkpt lon="5.792409" lat="51.099541"><ele>27.2</ele><time>2022-05-22T06:18:37.000Z</time></trkpt><trkpt lon="5.792519" lat="51.099533"><ele>27.2</ele><time>2022-05-22T06:18:38.000Z</time></trkpt><trkpt lon="5.792626" lat="51.099522"><ele>27.2</ele><time>2022-05-22T06:18:39.000Z</time></trkpt><trkpt lon="5.792734" lat="51.099507"><ele>27.2</ele><time>2022-05-22T06:18:40.000Z</time></trkpt><trkpt lon="5.792842" lat="51.099499"><ele>27.2</ele><time>2022-05-22T06:18:41.000Z</time></trkpt><trkpt lon="5.79295" lat="51.099484"><ele>27</ele><time>2022-05-22T06:18:42.000Z</time></trkpt><trkpt lon="5.793057" lat="51.099473"><ele>26.8</ele><time>2022-05-22T06:18:43.000Z</time></trkpt><trkpt lon="5.79317" lat="51.099457"><ele>26.6</ele><time>2022-05-22T06:18:44.000Z</time></trkpt><trkpt lon="5.793283" lat="51.099442"><ele>26.4</ele><time>2022-05-22T06:18:45.000Z</time></trkpt><trkpt lon="5.793388" lat="51.099424"><ele>26.2</ele><time>2022-05-22T06:18:46.000Z</time></trkpt><trkpt lon="5.793503" lat="51.099408"><ele>26</ele><time>2022-05-22T06:18:47.000Z</time></trkpt><trkpt lon="5.793609" lat="51.099392"><ele>26</ele><time>2022-05-22T06:18:48.000Z</time></trkpt><trkpt lon="5.793711" lat="51.099377"><ele>25.8</ele><time>2022-05-22T06:18:49.000Z</time></trkpt><trkpt lon="5.793816" lat="51.099358"><ele>25.8</ele><time>2022-05-22T06:18:50.000Z</time></trkpt><trkpt lon="5.793918" lat="51.099343"><ele>26</ele><time>2022-05-22T06:18:51.000Z</time></trkpt><trkpt lon="5.79402" lat="51.099327"><ele>25.8</ele><time>2022-05-22T06:18:52.000Z</time></trkpt><trkpt lon="5.794116" lat="51.099313"><ele>25.8</ele><time>2022-05-22T06:18:53.000Z</time></trkpt><trkpt lon="5.794198" lat="51.099294"><ele>25.6</ele><time>2022-05-22T06:18:54.000Z</time></trkpt><trkpt lon="5.794309" lat="51.099272"><ele>25.8</ele><time>2022-05-22T06:18:55.000Z</time></trkpt><trkpt lon="5.794415" lat="51.099251"><ele>25.8</ele><time>2022-05-22T06:18:56.000Z</time></trkpt><trkpt lon="5.794512" lat="51.099232"><ele>26</ele><time>2022-05-22T06:18:57.000Z</time></trkpt><trkpt lon="5.794609" lat="51.099213"><ele>26</ele><time>2022-05-22T06:18:58.000Z</time></trkpt><trkpt lon="5.794706" lat="51.099194"><ele>26</ele><time>2022-05-22T06:18:59.000Z</time></trkpt><trkpt lon="5.794805" lat="51.099172"><ele>26</ele><time>2022-05-22T06:19:00.000Z</time></trkpt><trkpt lon="5.794903" lat="51.099149"><ele>26</ele><time>2022-05-22T06:19:01.000Z</time></trkpt><trkpt lon="5.794998" lat="51.099129"><ele>26</ele><time>2022-05-22T06:19:02.000Z</time></trkpt><trkpt lon="5.795093" lat="51.099103"><ele>26.2</ele><time>2022-05-22T06:19:03.000Z</time></trkpt><trkpt lon="5.795187" lat="51.09908"><ele>26.2</ele><time>2022-05-22T06:19:04.000Z</time></trkpt><trkpt lon="5.795279" lat="51.099058"><ele>26.2</ele><time>2022-05-22T06:19:05.000Z</time></trkpt><trkpt lon="5.795376" lat="51.099034"><ele>26.4</ele><time>2022-05-22T06:19:06.000Z</time></trkpt><trkpt lon="5.79547" lat="51.099011"><ele>26.6</ele><time>2022-05-22T06:19:07.000Z</time></trkpt><trkpt lon="5.795555" lat="51.098996"><ele>26.6</ele><time>2022-05-22T06:19:08.000Z</time></trkpt><trkpt lon="5.795636" lat="51.098977"><ele>26.8</ele><time>2022-05-22T06:19:09.000Z</time></trkpt><trkpt lon="5.795712" lat="51.098957"><ele>26.8</ele><time>2022-05-22T06:19:10.000Z</time></trkpt><trkpt lon="5.795779" lat="51.098939"><ele>27</ele><time>2022-05-22T06:19:11.000Z</time></trkpt><trkpt lon="5.795846" lat="51.098916"><ele>27.2</ele><time>2022-05-22T06:19:12.000Z</time></trkpt><trkpt lon="5.795915" lat="51.098893"><ele>27.4</ele><time>2022-05-22T06:19:13.000Z</time></trkpt><trkpt lon="5.795994" lat="51.098874"><ele>27.4</ele><time>2022-05-22T06:19:14.000Z</time></trkpt><trkpt lon="5.796076" lat="51.098858"><ele>27.4</ele><time>2022-05-22T06:19:15.000Z</time></trkpt><trkpt lon="5.79616" lat="51.098847"><ele>27.4</ele><time>2022-05-22T06:19:16.000Z</time></trkpt><trkpt lon="5.79625" lat="51.098846"><ele>27.6</ele><time>2022-05-22T06:19:17.000Z</time></trkpt><trkpt lon="5.796341" lat="51.098854"><ele>27.6</ele><time>2022-05-22T06:19:18.000Z</time></trkpt><trkpt lon="5.79644" lat="51.098854"><ele>27.4</ele><time>2022-05-22T06:19:19.000Z</time></trkpt><trkpt lon="5.796539" lat="51.098847"><ele>27.4</ele><time>2022-05-22T06:19:20.000Z</time></trkpt><trkpt lon="5.796643" lat="51.098828"><ele>27.2</ele><time>2022-05-22T06:19:21.000Z</time></trkpt><trkpt lon="5.796744" lat="51.098805"><ele>27.2</ele><time>2022-05-22T06:19:22.000Z</time></trkpt><trkpt lon="5.796838" lat="51.098778"><ele>27.2</ele><time>2022-05-22T06:19:23.000Z</time></trkpt><trkpt lon="5.79693" lat="51.098752"><ele>27</ele><time>2022-05-22T06:19:24.000Z</time></trkpt><trkpt lon="5.797024" lat="51.098729"><ele>27</ele><time>2022-05-22T06:19:25.000Z</time></trkpt><trkpt lon="5.797112" lat="51.0987"><ele>27</ele><time>2022-05-22T06:19:26.000Z</time></trkpt><trkpt lon="5.797207" lat="51.098664"><ele>27</ele><time>2022-05-22T06:19:27.000Z</time></trkpt><trkpt lon="5.797299" lat="51.098629"><ele>27</ele><time>2022-05-22T06:19:28.000Z</time></trkpt><trkpt lon="5.797386" lat="51.098595"><ele>26.8</ele><time>2022-05-22T06:19:29.000Z</time></trkpt><trkpt lon="5.797466" lat="51.098559"><ele>26.8</ele><time>2022-05-22T06:19:30.000Z</time></trkpt><trkpt lon="5.79755" lat="51.09852"><ele>26.8</ele><time>2022-05-22T06:19:31.000Z</time></trkpt><trkpt lon="5.797637" lat="51.098481"><ele>26.6</ele><time>2022-05-22T06:19:32.000Z</time></trkpt><trkpt lon="5.797718" lat="51.098444"><ele>26.6</ele><time>2022-05-22T06:19:33.000Z</time></trkpt><trkpt lon="5.797795" lat="51.098402"><ele>26.6</ele><time>2022-05-22T06:19:34.000Z</time></trkpt><trkpt lon="5.797874" lat="51.098351"><ele>26.6</ele><time>2022-05-22T06:19:35.000Z</time></trkpt><trkpt lon="5.797947" lat="51.098302"><ele>26.6</ele><time>2022-05-22T06:19:36.000Z</time></trkpt><trkpt lon="5.798022" lat="51.098252"><ele>26.6</ele><time>2022-05-22T06:19:37.000Z</time></trkpt><trkpt lon="5.798097" lat="51.098203"><ele>26.6</ele><time>2022-05-22T06:19:38.000Z</time></trkpt><trkpt lon="5.798169" lat="51.098154"><ele>26.6</ele><time>2022-05-22T06:19:39.000Z</time></trkpt><trkpt lon="5.798245" lat="51.098104"><ele>26.4</ele><time>2022-05-22T06:19:40.000Z</time></trkpt><trkpt lon="5.798317" lat="51.098054"><ele>26.4</ele><time>2022-05-22T06:19:41.000Z</time></trkpt><trkpt lon="5.798388" lat="51.098006"><ele>26.4</ele><time>2022-05-22T06:19:42.000Z</time></trkpt><trkpt lon="5.798464" lat="51.097956"><ele>26.4</ele><time>2022-05-22T06:19:43.000Z</time></trkpt><trkpt lon="5.798536" lat="51.097902"><ele>26.4</ele><time>2022-05-22T06:19:44.000Z</time></trkpt><trkpt lon="5.798608" lat="51.097852"><ele>26.4</ele><time>2022-05-22T06:19:45.000Z</time></trkpt><trkpt lon="5.798681" lat="51.097798"><ele>26.4</ele><time>2022-05-22T06:19:46.000Z</time></trkpt><trkpt lon="5.798753" lat="51.097753"><ele>26.4</ele><time>2022-05-22T06:19:47.000Z</time></trkpt><trkpt lon="5.798827" lat="51.097703"><ele>26.4</ele><time>2022-05-22T06:19:48.000Z</time></trkpt><trkpt lon="5.798897" lat="51.097653"><ele>26.2</ele><time>2022-05-22T06:19:49.000Z</time></trkpt><trkpt lon="5.798967" lat="51.097604"><ele>26</ele><time>2022-05-22T06:19:50.000Z</time></trkpt><trkpt lon="5.799037" lat="51.097555"><ele>26</ele><time>2022-05-22T06:19:51.000Z</time></trkpt><trkpt lon="5.799105" lat="51.09751"><ele>26</ele><time>2022-05-22T06:19:52.000Z</time></trkpt><trkpt lon="5.799174" lat="51.097463"><ele>26</ele><time>2022-05-22T06:19:53.000Z</time></trkpt><trkpt lon="5.799242" lat="51.097417"><ele>26</ele><time>2022-05-22T06:19:54.000Z</time></trkpt><trkpt lon="5.799307" lat="51.097371"><ele>26</ele><time>2022-05-22T06:19:55.000Z</time></trkpt><trkpt lon="5.799369" lat="51.097325"><ele>26.2</ele><time>2022-05-22T06:19:56.000Z</time></trkpt><trkpt lon="5.799429" lat="51.097287"><ele>26.2</ele><time>2022-05-22T06:19:57.000Z</time></trkpt><trkpt lon="5.799482" lat="51.097249"><ele>26.2</ele><time>2022-05-22T06:19:58.000Z</time></trkpt><trkpt lon="5.799523" lat="51.097208"><ele>26.4</ele><time>2022-05-22T06:19:59.000Z</time></trkpt><trkpt lon="5.79955" lat="51.097155"><ele>26.2</ele><time>2022-05-22T06:20:00.000Z</time></trkpt><trkpt lon="5.799563" lat="51.0971"><ele>26.2</ele><time>2022-05-22T06:20:01.000Z</time></trkpt><trkpt lon="5.799555" lat="51.09704"><ele>26.4</ele><time>2022-05-22T06:20:02.000Z</time></trkpt><trkpt lon="5.799531" lat="51.096975"><ele>26.4</ele><time>2022-05-22T06:20:03.000Z</time></trkpt><trkpt lon="5.7995" lat="51.096916"><ele>26.4</ele><time>2022-05-22T06:20:04.000Z</time></trkpt><trkpt lon="5.799467" lat="51.096852"><ele>26.4</ele><time>2022-05-22T06:20:05.000Z</time></trkpt><trkpt lon="5.799434" lat="51.096781"><ele>26.2</ele><time>2022-05-22T06:20:06.000Z</time></trkpt><trkpt lon="5.799399" lat="51.096715"><ele>26.4</ele><time>2022-05-22T06:20:07.000Z</time></trkpt><trkpt lon="5.799362" lat="51.09665"><ele>26.4</ele><time>2022-05-22T06:20:08.000Z</time></trkpt><trkpt lon="5.799321" lat="51.096586"><ele>26.4</ele><time>2022-05-22T06:20:09.000Z</time></trkpt><trkpt lon="5.799279" lat="51.096517"><ele>26.2</ele><time>2022-05-22T06:20:10.000Z</time></trkpt><trkpt lon="5.799238" lat="51.096452"><ele>26.2</ele><time>2022-05-22T06:20:11.000Z</time></trkpt><trkpt lon="5.799193" lat="51.096391"><ele>26.2</ele><time>2022-05-22T06:20:12.000Z</time></trkpt><trkpt lon="5.799146" lat="51.096327"><ele>26.2</ele><time>2022-05-22T06:20:13.000Z</time></trkpt><trkpt lon="5.799097" lat="51.096265"><ele>26.2</ele><time>2022-05-22T06:20:14.000Z</time></trkpt><trkpt lon="5.79905" lat="51.096205"><ele>26.2</ele><time>2022-05-22T06:20:15.000Z</time></trkpt><trkpt lon="5.799001" lat="51.09614"><ele>26.2</ele><time>2022-05-22T06:20:16.000Z</time></trkpt><trkpt lon="5.798951" lat="51.096082"><ele>26.2</ele><time>2022-05-22T06:20:17.000Z</time></trkpt><trkpt lon="5.7989" lat="51.096022"><ele>26</ele><time>2022-05-22T06:20:18.000Z</time></trkpt><trkpt lon="5.79885" lat="51.095965"><ele>26</ele><time>2022-05-22T06:20:19.000Z</time></trkpt><trkpt lon="5.7988" lat="51.095907"><ele>26</ele><time>2022-05-22T06:20:20.000Z</time></trkpt><trkpt lon="5.798747" lat="51.095849"><ele>26.2</ele><time>2022-05-22T06:20:21.000Z</time></trkpt><trkpt lon="5.798692" lat="51.095795"><ele>26.2</ele><time>2022-05-22T06:20:22.000Z</time></trkpt><trkpt lon="5.798641" lat="51.095736"><ele>26.2</ele><time>2022-05-22T06:20:23.000Z</time></trkpt><trkpt lon="5.798589" lat="51.095686"><ele>26.2</ele><time>2022-05-22T06:20:24.000Z</time></trkpt><trkpt lon="5.798531" lat="51.095628"><ele>26.2</ele><time>2022-05-22T06:20:25.000Z</time></trkpt><trkpt lon="5.798476" lat="51.095571"><ele>26.4</ele><time>2022-05-22T06:20:26.000Z</time></trkpt><trkpt lon="5.798421" lat="51.095515"><ele>26.4</ele><time>2022-05-22T06:20:27.000Z</time></trkpt><trkpt lon="5.798361" lat="51.09546"><ele>26.4</ele><time>2022-05-22T06:20:28.000Z</time></trkpt><trkpt lon="5.798303" lat="51.095407"><ele>26.4</ele><time>2022-05-22T06:20:29.000Z</time></trkpt><trkpt lon="5.798243" lat="51.095353"><ele>26.4</ele><time>2022-05-22T06:20:30.000Z</time></trkpt><trkpt lon="5.798182" lat="51.0953"><ele>26.4</ele><time>2022-05-22T06:20:31.000Z</time></trkpt><trkpt lon="5.798115" lat="51.09525"><ele>26.4</ele><time>2022-05-22T06:20:32.000Z</time></trkpt><trkpt lon="5.798052" lat="51.095201"><ele>26.6</ele><time>2022-05-22T06:20:33.000Z</time></trkpt><trkpt lon="5.797991" lat="51.095151"><ele>26.8</ele><time>2022-05-22T06:20:34.000Z</time></trkpt><trkpt lon="5.797936" lat="51.0951"><ele>26.8</ele><time>2022-05-22T06:20:35.000Z</time></trkpt><trkpt lon="5.797878" lat="51.095044"><ele>27</ele><time>2022-05-22T06:20:36.000Z</time></trkpt><trkpt lon="5.797824" lat="51.094995"><ele>27</ele><time>2022-05-22T06:20:37.000Z</time></trkpt><trkpt lon="5.797771" lat="51.094945"><ele>27</ele><time>2022-05-22T06:20:38.000Z</time></trkpt><trkpt lon="5.797718" lat="51.094896"><ele>27</ele><time>2022-05-22T06:20:39.000Z</time></trkpt><trkpt lon="5.797666" lat="51.094846"><ele>27</ele><time>2022-05-22T06:20:40.000Z</time></trkpt><trkpt lon="5.79762" lat="51.094804"><ele>27</ele><time>2022-05-22T06:20:41.000Z</time></trkpt><trkpt lon="5.797556" lat="51.094773"><ele>27</ele><time>2022-05-22T06:20:42.000Z</time></trkpt><trkpt lon="5.797472" lat="51.094754"><ele>27.2</ele><time>2022-05-22T06:20:43.000Z</time></trkpt><trkpt lon="5.79738" lat="51.094742"><ele>27.2</ele><time>2022-05-22T06:20:44.000Z</time></trkpt><trkpt lon="5.797281" lat="51.094742"><ele>27.2</ele><time>2022-05-22T06:20:45.000Z</time></trkpt><trkpt lon="5.797185" lat="51.094735"><ele>27.2</ele><time>2022-05-22T06:20:46.000Z</time></trkpt><trkpt lon="5.797088" lat="51.094727"><ele>27.4</ele><time>2022-05-22T06:20:47.000Z</time></trkpt><trkpt lon="5.796997" lat="51.094715"><ele>27.4</ele><time>2022-05-22T06:20:48.000Z</time></trkpt><trkpt lon="5.796925" lat="51.094693"><ele>27.6</ele><time>2022-05-22T06:20:49.000Z</time></trkpt><trkpt lon="5.796876" lat="51.09467"><ele>27.4</ele><time>2022-05-22T06:20:50.000Z</time></trkpt><trkpt lon="5.796849" lat="51.094613"><ele>27.4</ele><time>2022-05-22T06:20:51.000Z</time></trkpt><trkpt lon="5.796825" lat="51.094548"><ele>27.4</ele><time>2022-05-22T06:20:52.000Z</time></trkpt><trkpt lon="5.796808" lat="51.094499"><ele>27.2</ele><time>2022-05-22T06:20:53.000Z</time></trkpt><trkpt lon="5.796779" lat="51.094417"><ele>27.2</ele><time>2022-05-22T06:20:54.000Z</time></trkpt><trkpt lon="5.796757" lat="51.09435"><ele>27.2</ele><time>2022-05-22T06:20:55.000Z</time></trkpt><trkpt lon="5.796735" lat="51.094285"><ele>27.2</ele><time>2022-05-22T06:20:56.000Z</time></trkpt><trkpt lon="5.796711" lat="51.094225"><ele>27.2</ele><time>2022-05-22T06:20:57.000Z</time></trkpt><trkpt lon="5.796682" lat="51.094163"><ele>27.4</ele><time>2022-05-22T06:20:58.000Z</time></trkpt><trkpt lon="5.796654" lat="51.094106"><ele>27.4</ele><time>2022-05-22T06:20:59.000Z</time></trkpt><trkpt lon="5.796623" lat="51.094046"><ele>27.2</ele><time>2022-05-22T06:21:00.000Z</time></trkpt><trkpt lon="5.79659" lat="51.093989"><ele>27.2</ele><time>2022-05-22T06:21:01.000Z</time></trkpt><trkpt lon="5.796556" lat="51.093926"><ele>27.2</ele><time>2022-05-22T06:21:02.000Z</time></trkpt><trkpt lon="5.796522" lat="51.09387"><ele>27.2</ele><time>2022-05-22T06:21:03.000Z</time></trkpt><trkpt lon="5.796492" lat="51.093817"><ele>27.2</ele><time>2022-05-22T06:21:04.000Z</time></trkpt><trkpt lon="5.796464" lat="51.093769"><ele>27.4</ele><time>2022-05-22T06:21:05.000Z</time></trkpt><trkpt lon="5.79645" lat="51.093727"><ele>27.4</ele><time>2022-05-22T06:21:06.000Z</time></trkpt><trkpt lon="5.79645" lat="51.093668"><ele>27.6</ele><time>2022-05-22T06:21:07.000Z</time></trkpt><trkpt lon="5.79647" lat="51.093617"><ele>27.8</ele><time>2022-05-22T06:21:08.000Z</time></trkpt><trkpt lon="5.796501" lat="51.093572"><ele>28</ele><time>2022-05-22T06:21:09.000Z</time></trkpt><trkpt lon="5.796549" lat="51.09353"><ele>28</ele><time>2022-05-22T06:21:10.000Z</time></trkpt><trkpt lon="5.796613" lat="51.093492"><ele>28</ele><time>2022-05-22T06:21:11.000Z</time></trkpt><trkpt lon="5.796689" lat="51.093472"><ele>28</ele><time>2022-05-22T06:21:12.000Z</time></trkpt><trkpt lon="5.796776" lat="51.093468"><ele>28</ele><time>2022-05-22T06:21:13.000Z</time></trkpt><trkpt lon="5.796859" lat="51.093475"><ele>28.2</ele><time>2022-05-22T06:21:14.000Z</time></trkpt><trkpt lon="5.796942" lat="51.093483"><ele>28.2</ele><time>2022-05-22T06:21:15.000Z</time></trkpt><trkpt lon="5.79702" lat="51.093483"><ele>28.4</ele><time>2022-05-22T06:21:16.000Z</time></trkpt><trkpt lon="5.797101" lat="51.093472"><ele>28.6</ele><time>2022-05-22T06:21:17.000Z</time></trkpt><trkpt lon="5.797178" lat="51.09345"><ele>29</ele><time>2022-05-22T06:21:18.000Z</time></trkpt><trkpt lon="5.79726" lat="51.09343"><ele>29.2</ele><time>2022-05-22T06:21:19.000Z</time></trkpt><trkpt lon="5.797341" lat="51.093404"><ele>29.6</ele><time>2022-05-22T06:21:20.000Z</time></trkpt><trkpt lon="5.79742" lat="51.093373"><ele>30</ele><time>2022-05-22T06:21:21.000Z</time></trkpt><trkpt lon="5.797497" lat="51.093342"><ele>30.4</ele><time>2022-05-22T06:21:22.000Z</time></trkpt><trkpt lon="5.797567" lat="51.093312"><ele>30.6</ele><time>2022-05-22T06:21:23.000Z</time></trkpt><trkpt lon="5.79763" lat="51.093278"><ele>31</ele><time>2022-05-22T06:21:24.000Z</time></trkpt><trkpt lon="5.797697" lat="51.093243"><ele>31.2</ele><time>2022-05-22T06:21:25.000Z</time></trkpt><trkpt lon="5.797764" lat="51.093205"><ele>31.6</ele><time>2022-05-22T06:21:26.000Z</time></trkpt><trkpt lon="5.797829" lat="51.093164"><ele>31.8</ele><time>2022-05-22T06:21:27.000Z</time></trkpt><trkpt lon="5.797902" lat="51.093125"><ele>32</ele><time>2022-05-22T06:21:28.000Z</time></trkpt><trkpt lon="5.797973" lat="51.093083"><ele>32.2</ele><time>2022-05-22T06:21:29.000Z</time></trkpt><trkpt lon="5.798044" lat="51.093045"><ele>32.4</ele><time>2022-05-22T06:21:30.000Z</time></trkpt><trkpt lon="5.798111" lat="51.093004"><ele>32.6</ele><time>2022-05-22T06:21:31.000Z</time></trkpt><trkpt lon="5.798183" lat="51.092961"><ele>32.8</ele><time>2022-05-22T06:21:32.000Z</time></trkpt><trkpt lon="5.798253" lat="51.092919"><ele>32.8</ele><time>2022-05-22T06:21:33.000Z</time></trkpt><trkpt lon="5.798323" lat="51.092878"><ele>33</ele><time>2022-05-22T06:21:34.000Z</time></trkpt><trkpt lon="5.798394" lat="51.092841"><ele>33.2</ele><time>2022-05-22T06:21:35.000Z</time></trkpt><trkpt lon="5.798468" lat="51.092798"><ele>33.4</ele><time>2022-05-22T06:21:36.000Z</time></trkpt><trkpt lon="5.798537" lat="51.092755"><ele>33.6</ele><time>2022-05-22T06:21:37.000Z</time></trkpt><trkpt lon="5.798605" lat="51.092717"><ele>33.6</ele><time>2022-05-22T06:21:38.000Z</time></trkpt><trkpt lon="5.798674" lat="51.092675"><ele>33.6</ele><time>2022-05-22T06:21:39.000Z</time></trkpt><trkpt lon="5.798745" lat="51.092633"><ele>33.6</ele><time>2022-05-22T06:21:40.000Z</time></trkpt><trkpt lon="5.798823" lat="51.092588"><ele>33.4</ele><time>2022-05-22T06:21:41.000Z</time></trkpt><trkpt lon="5.798905" lat="51.092539"><ele>33.2</ele><time>2022-05-22T06:21:42.000Z</time></trkpt><trkpt lon="5.798991" lat="51.092488"><ele>33</ele><time>2022-05-22T06:21:43.000Z</time></trkpt><trkpt lon="5.799075" lat="51.092432"><ele>32.8</ele><time>2022-05-22T06:21:44.000Z</time></trkpt><trkpt lon="5.799163" lat="51.092382"><ele>32.6</ele><time>2022-05-22T06:21:45.000Z</time></trkpt><trkpt lon="5.79925" lat="51.092332"><ele>32.2</ele><time>2022-05-22T06:21:46.000Z</time></trkpt><trkpt lon="5.799329" lat="51.092285"><ele>32</ele><time>2022-05-22T06:21:47.000Z</time></trkpt><trkpt lon="5.799417" lat="51.09223"><ele>31.8</ele><time>2022-05-22T06:21:48.000Z</time></trkpt><trkpt lon="5.799505" lat="51.092179"><ele>31.6</ele><time>2022-05-22T06:21:49.000Z</time></trkpt><trkpt lon="5.799592" lat="51.09213"><ele>31.2</ele><time>2022-05-22T06:21:50.000Z</time></trkpt><trkpt lon="5.799683" lat="51.092076"><ele>31</ele><time>2022-05-22T06:21:51.000Z</time></trkpt><trkpt lon="5.799772" lat="51.092024"><ele>30.6</ele><time>2022-05-22T06:21:52.000Z</time></trkpt><trkpt lon="5.799827" lat="51.091987"><ele>30.4</ele><time>2022-05-22T06:21:53.000Z</time></trkpt><trkpt lon="5.799924" lat="51.091911"><ele>30</ele><time>2022-05-22T06:21:54.000Z</time></trkpt><trkpt lon="5.800012" lat="51.091837"><ele>29.6</ele><time>2022-05-22T06:21:55.000Z</time></trkpt><trkpt lon="5.800086" lat="51.091772"><ele>29.2</ele><time>2022-05-22T06:21:56.000Z</time></trkpt><trkpt lon="5.80016" lat="51.0917"><ele>28.8</ele><time>2022-05-22T06:21:57.000Z</time></trkpt><trkpt lon="5.800229" lat="51.091627"><ele>28.6</ele><time>2022-05-22T06:21:58.000Z</time></trkpt><trkpt lon="5.800295" lat="51.091554"><ele>28.2</ele><time>2022-05-22T06:21:59.000Z</time></trkpt><trkpt lon="5.800347" lat="51.091481"><ele>27.8</ele><time>2022-05-22T06:22:00.000Z</time></trkpt><trkpt lon="5.800389" lat="51.091402"><ele>27.6</ele><time>2022-05-22T06:22:01.000Z</time></trkpt><trkpt lon="5.800417" lat="51.091326"><ele>27.4</ele><time>2022-05-22T06:22:02.000Z</time></trkpt><trkpt lon="5.800438" lat="51.091245"><ele>27.2</ele><time>2022-05-22T06:22:03.000Z</time></trkpt><trkpt lon="5.80045" lat="51.091166"><ele>27</ele><time>2022-05-22T06:22:04.000Z</time></trkpt><trkpt lon="5.800453" lat="51.091088"><ele>27</ele><time>2022-05-22T06:22:05.000Z</time></trkpt><trkpt lon="5.800453" lat="51.09103"><ele>26.8</ele><time>2022-05-22T06:22:06.000Z</time></trkpt><trkpt lon="5.800452" lat="51.090931"><ele>26.8</ele><time>2022-05-22T06:22:07.000Z</time></trkpt><trkpt lon="5.800444" lat="51.090854"><ele>26.8</ele><time>2022-05-22T06:22:08.000Z</time></trkpt><trkpt lon="5.800437" lat="51.090779"><ele>26.8</ele><time>2022-05-22T06:22:09.000Z</time></trkpt><trkpt lon="5.80043" lat="51.0907"><ele>27</ele><time>2022-05-22T06:22:10.000Z</time></trkpt><trkpt lon="5.800425" lat="51.090628"><ele>27.2</ele><time>2022-05-22T06:22:11.000Z</time></trkpt><trkpt lon="5.80042" lat="51.090557"><ele>27.4</ele><time>2022-05-22T06:22:12.000Z</time></trkpt><trkpt lon="5.80042" lat="51.090486"><ele>27.4</ele><time>2022-05-22T06:22:13.000Z</time></trkpt><trkpt lon="5.800422" lat="51.090414"><ele>27.4</ele><time>2022-05-22T06:22:14.000Z</time></trkpt><trkpt lon="5.800426" lat="51.090346"><ele>27.4</ele><time>2022-05-22T06:22:15.000Z</time></trkpt><trkpt lon="5.800435" lat="51.090273"><ele>27.6</ele><time>2022-05-22T06:22:16.000Z</time></trkpt><trkpt lon="5.800448" lat="51.090205"><ele>27.6</ele><time>2022-05-22T06:22:17.000Z</time></trkpt><trkpt lon="5.800465" lat="51.090138"><ele>27.6</ele><time>2022-05-22T06:22:18.000Z</time></trkpt><trkpt lon="5.800489" lat="51.090066"><ele>27.6</ele><time>2022-05-22T06:22:19.000Z</time></trkpt><trkpt lon="5.800519" lat="51.089999"><ele>27.4</ele><time>2022-05-22T06:22:20.000Z</time></trkpt><trkpt lon="5.800556" lat="51.08993"><ele>27.4</ele><time>2022-05-22T06:22:21.000Z</time></trkpt><trkpt lon="5.800596" lat="51.08986"><ele>27.2</ele><time>2022-05-22T06:22:22.000Z</time></trkpt><trkpt lon="5.800641" lat="51.089795"><ele>27.2</ele><time>2022-05-22T06:22:23.000Z</time></trkpt><trkpt lon="5.800687" lat="51.089733"><ele>27</ele><time>2022-05-22T06:22:24.000Z</time></trkpt><trkpt lon="5.800742" lat="51.08967"><ele>27</ele><time>2022-05-22T06:22:25.000Z</time></trkpt><trkpt lon="5.800799" lat="51.089608"><ele>26.8</ele><time>2022-05-22T06:22:26.000Z</time></trkpt><trkpt lon="5.800855" lat="51.089544"><ele>26.8</ele><time>2022-05-22T06:22:27.000Z</time></trkpt><trkpt lon="5.800916" lat="51.089482"><ele>26.8</ele><time>2022-05-22T06:22:28.000Z</time></trkpt><trkpt lon="5.800977" lat="51.089422"><ele>26.8</ele><time>2022-05-22T06:22:29.000Z</time></trkpt><trkpt lon="5.801039" lat="51.089361"><ele>26.8</ele><time>2022-05-22T06:22:30.000Z</time></trkpt><trkpt lon="5.8011" lat="51.089299"><ele>26.8</ele><time>2022-05-22T06:22:31.000Z</time></trkpt><trkpt lon="5.801164" lat="51.089238"><ele>26.8</ele><time>2022-05-22T06:22:32.000Z</time></trkpt><trkpt lon="5.801225" lat="51.089182"><ele>26.8</ele><time>2022-05-22T06:22:33.000Z</time></trkpt><trkpt lon="5.801283" lat="51.089123"><ele>26.8</ele><time>2022-05-22T06:22:34.000Z</time></trkpt><trkpt lon="5.801347" lat="51.089059"><ele>26.8</ele><time>2022-05-22T06:22:35.000Z</time></trkpt><trkpt lon="5.801406" lat="51.088999"><ele>26.8</ele><time>2022-05-22T06:22:36.000Z</time></trkpt><trkpt lon="5.801467" lat="51.088941"><ele>26.8</ele><time>2022-05-22T06:22:37.000Z</time></trkpt><trkpt lon="5.801526" lat="51.088881"><ele>26.8</ele><time>2022-05-22T06:22:38.000Z</time></trkpt><trkpt lon="5.801587" lat="51.088823"><ele>26.8</ele><time>2022-05-22T06:22:39.000Z</time></trkpt><trkpt lon="5.801646" lat="51.088763"><ele>26.8</ele><time>2022-05-22T06:22:40.000Z</time></trkpt><trkpt lon="5.801707" lat="51.088701"><ele>26.8</ele><time>2022-05-22T06:22:41.000Z</time></trkpt><trkpt lon="5.801767" lat="51.08864"><ele>26.8</ele><time>2022-05-22T06:22:42.000Z</time></trkpt><trkpt lon="5.801828" lat="51.088582"><ele>27</ele><time>2022-05-22T06:22:43.000Z</time></trkpt><trkpt lon="5.80189" lat="51.088522"><ele>27</ele><time>2022-05-22T06:22:44.000Z</time></trkpt><trkpt lon="5.801951" lat="51.088468"><ele>27</ele><time>2022-05-22T06:22:45.000Z</time></trkpt><trkpt lon="5.802009" lat="51.088407"><ele>27.2</ele><time>2022-05-22T06:22:46.000Z</time></trkpt><trkpt lon="5.802066" lat="51.08835"><ele>27.2</ele><time>2022-05-22T06:22:47.000Z</time></trkpt><trkpt lon="5.802121" lat="51.088297"><ele>27.2</ele><time>2022-05-22T06:22:48.000Z</time></trkpt><trkpt lon="5.80218" lat="51.088239"><ele>27.4</ele><time>2022-05-22T06:22:49.000Z</time></trkpt><trkpt lon="5.802238" lat="51.088184"><ele>27.4</ele><time>2022-05-22T06:22:50.000Z</time></trkpt><trkpt lon="5.802292" lat="51.088131"><ele>27.6</ele><time>2022-05-22T06:22:51.000Z</time></trkpt><trkpt lon="5.802356" lat="51.088072"><ele>27.8</ele><time>2022-05-22T06:22:52.000Z</time></trkpt><trkpt lon="5.802414" lat="51.088019"><ele>28</ele><time>2022-05-22T06:22:53.000Z</time></trkpt><trkpt lon="5.802463" lat="51.087969"><ele>28</ele><time>2022-05-22T06:22:54.000Z</time></trkpt><trkpt lon="5.80253" lat="51.087907"><ele>28.2</ele><time>2022-05-22T06:22:55.000Z</time></trkpt><trkpt lon="5.802587" lat="51.08785"><ele>28.2</ele><time>2022-05-22T06:22:56.000Z</time></trkpt><trkpt lon="5.802645" lat="51.087793"><ele>28.2</ele><time>2022-05-22T06:22:57.000Z</time></trkpt><trkpt lon="5.802704" lat="51.087739"><ele>28.2</ele><time>2022-05-22T06:22:58.000Z</time></trkpt><trkpt lon="5.802759" lat="51.087687"><ele>28.2</ele><time>2022-05-22T06:22:59.000Z</time></trkpt><trkpt lon="5.80282" lat="51.087629"><ele>28.2</ele><time>2022-05-22T06:23:00.000Z</time></trkpt><trkpt lon="5.802878" lat="51.087572"><ele>28.2</ele><time>2022-05-22T06:23:01.000Z</time></trkpt><trkpt lon="5.802937" lat="51.087514"><ele>28.2</ele><time>2022-05-22T06:23:02.000Z</time></trkpt><trkpt lon="5.802997" lat="51.087457"><ele>28.2</ele><time>2022-05-22T06:23:03.000Z</time></trkpt><trkpt lon="5.803056" lat="51.087401"><ele>28</ele><time>2022-05-22T06:23:04.000Z</time></trkpt><trkpt lon="5.803115" lat="51.087345"><ele>28</ele><time>2022-05-22T06:23:05.000Z</time></trkpt><trkpt lon="5.803165" lat="51.087299"><ele>28</ele><time>2022-05-22T06:23:06.000Z</time></trkpt><trkpt lon="5.803241" lat="51.087229"><ele>27.8</ele><time>2022-05-22T06:23:07.000Z</time></trkpt><trkpt lon="5.803303" lat="51.087167"><ele>27.8</ele><time>2022-05-22T06:23:08.000Z</time></trkpt><trkpt lon="5.803365" lat="51.087106"><ele>27.8</ele><time>2022-05-22T06:23:09.000Z</time></trkpt><trkpt lon="5.803425" lat="51.087047"><ele>27.6</ele><time>2022-05-22T06:23:10.000Z</time></trkpt><trkpt lon="5.803488" lat="51.086986"><ele>27.6</ele><time>2022-05-22T06:23:11.000Z</time></trkpt><trkpt lon="5.803554" lat="51.086924"><ele>27.4</ele><time>2022-05-22T06:23:12.000Z</time></trkpt><trkpt lon="5.803618" lat="51.086862"><ele>27.2</ele><time>2022-05-22T06:23:13.000Z</time></trkpt><trkpt lon="5.803679" lat="51.086801"><ele>27.2</ele><time>2022-05-22T06:23:14.000Z</time></trkpt><trkpt lon="5.80374" lat="51.08674"><ele>27.2</ele><time>2022-05-22T06:23:15.000Z</time></trkpt><trkpt lon="5.803802" lat="51.086675"><ele>27.2</ele><time>2022-05-22T06:23:16.000Z</time></trkpt><trkpt lon="5.803865" lat="51.086618"><ele>27.4</ele><time>2022-05-22T06:23:17.000Z</time></trkpt><trkpt lon="5.803928" lat="51.086554"><ele>27.4</ele><time>2022-05-22T06:23:18.000Z</time></trkpt><trkpt lon="5.803992" lat="51.086496"><ele>27.4</ele><time>2022-05-22T06:23:19.000Z</time></trkpt><trkpt lon="5.804055" lat="51.086435"><ele>27.4</ele><time>2022-05-22T06:23:20.000Z</time></trkpt><trkpt lon="5.804117" lat="51.086379"><ele>27.2</ele><time>2022-05-22T06:23:21.000Z</time></trkpt><trkpt lon="5.80418" lat="51.086317"><ele>27</ele><time>2022-05-22T06:23:22.000Z</time></trkpt><trkpt lon="5.804244" lat="51.086259"><ele>27</ele><time>2022-05-22T06:23:23.000Z</time></trkpt><trkpt lon="5.804301" lat="51.086206"><ele>27</ele><time>2022-05-22T06:23:24.000Z</time></trkpt><trkpt lon="5.804366" lat="51.086146"><ele>27</ele><time>2022-05-22T06:23:25.000Z</time></trkpt><trkpt lon="5.804427" lat="51.086084"><ele>27</ele><time>2022-05-22T06:23:26.000Z</time></trkpt><trkpt lon="5.804489" lat="51.086027"><ele>27</ele><time>2022-05-22T06:23:27.000Z</time></trkpt><trkpt lon="5.80455" lat="51.085969"><ele>26.8</ele><time>2022-05-22T06:23:28.000Z</time></trkpt><trkpt lon="5.80461" lat="51.085908"><ele>26.8</ele><time>2022-05-22T06:23:29.000Z</time></trkpt><trkpt lon="5.80467" lat="51.085851"><ele>26.8</ele><time>2022-05-22T06:23:30.000Z</time></trkpt><trkpt lon="5.804734" lat="51.085794"><ele>26.8</ele><time>2022-05-22T06:23:31.000Z</time></trkpt><trkpt lon="5.804795" lat="51.085734"><ele>26.8</ele><time>2022-05-22T06:23:32.000Z</time></trkpt><trkpt lon="5.804858" lat="51.085676"><ele>26.8</ele><time>2022-05-22T06:23:33.000Z</time></trkpt><trkpt lon="5.80492" lat="51.08562"><ele>26.8</ele><time>2022-05-22T06:23:34.000Z</time></trkpt><trkpt lon="5.804984" lat="51.085562"><ele>26.8</ele><time>2022-05-22T06:23:35.000Z</time></trkpt><trkpt lon="5.805048" lat="51.085509"><ele>26.8</ele><time>2022-05-22T06:23:36.000Z</time></trkpt><trkpt lon="5.805118" lat="51.085451"><ele>26.8</ele><time>2022-05-22T06:23:37.000Z</time></trkpt><trkpt lon="5.805187" lat="51.085397"><ele>27</ele><time>2022-05-22T06:23:38.000Z</time></trkpt><trkpt lon="5.805258" lat="51.085344"><ele>27</ele><time>2022-05-22T06:23:39.000Z</time></trkpt><trkpt lon="5.80533" lat="51.085291"><ele>26.8</ele><time>2022-05-22T06:23:40.000Z</time></trkpt><trkpt lon="5.805405" lat="51.08524"><ele>27</ele><time>2022-05-22T06:23:41.000Z</time></trkpt><trkpt lon="5.805474" lat="51.085194"><ele>27</ele><time>2022-05-22T06:23:42.000Z</time></trkpt><trkpt lon="5.80556" lat="51.085145"><ele>26.8</ele><time>2022-05-22T06:23:43.000Z</time></trkpt><trkpt lon="5.805636" lat="51.085102"><ele>26.8</ele><time>2022-05-22T06:23:44.000Z</time></trkpt><trkpt lon="5.805726" lat="51.085061"><ele>26.8</ele><time>2022-05-22T06:23:45.000Z</time></trkpt><trkpt lon="5.805808" lat="51.085015"><ele>26.8</ele><time>2022-05-22T06:23:46.000Z</time></trkpt><trkpt lon="5.805884" lat="51.084974"><ele>26.8</ele><time>2022-05-22T06:23:47.000Z</time></trkpt><trkpt lon="5.805964" lat="51.084928"><ele>26.8</ele><time>2022-05-22T06:23:48.000Z</time></trkpt><trkpt lon="5.80604" lat="51.084886"><ele>26.8</ele><time>2022-05-22T06:23:49.000Z</time></trkpt><trkpt lon="5.80611" lat="51.084848"><ele>26.8</ele><time>2022-05-22T06:23:50.000Z</time></trkpt><trkpt lon="5.806191" lat="51.084809"><ele>27</ele><time>2022-05-22T06:23:51.000Z</time></trkpt><trkpt lon="5.80627" lat="51.084771"><ele>27</ele><time>2022-05-22T06:23:52.000Z</time></trkpt><trkpt lon="5.806345" lat="51.08473"><ele>27.2</ele><time>2022-05-22T06:23:53.000Z</time></trkpt><trkpt lon="5.806426" lat="51.084691"><ele>27.2</ele><time>2022-05-22T06:23:54.000Z</time></trkpt><trkpt lon="5.806513" lat="51.084642"><ele>27.2</ele><time>2022-05-22T06:23:55.000Z</time></trkpt><trkpt lon="5.806601" lat="51.084593"><ele>27.2</ele><time>2022-05-22T06:23:56.000Z</time></trkpt><trkpt lon="5.806683" lat="51.084546"><ele>27.2</ele><time>2022-05-22T06:23:57.000Z</time></trkpt><trkpt lon="5.80676" lat="51.084494"><ele>27.2</ele><time>2022-05-22T06:23:58.000Z</time></trkpt><trkpt lon="5.80684" lat="51.084447"><ele>27.4</ele><time>2022-05-22T06:23:59.000Z</time></trkpt><trkpt lon="5.806916" lat="51.084401"><ele>27.4</ele><time>2022-05-22T06:24:00.000Z</time></trkpt><trkpt lon="5.806996" lat="51.084356"><ele>27.2</ele><time>2022-05-22T06:24:01.000Z</time></trkpt><trkpt lon="5.807078" lat="51.084313"><ele>27</ele><time>2022-05-22T06:24:02.000Z</time></trkpt><trkpt lon="5.807154" lat="51.084272"><ele>27</ele><time>2022-05-22T06:24:03.000Z</time></trkpt><trkpt lon="5.807223" lat="51.084234"><ele>27</ele><time>2022-05-22T06:24:04.000Z</time></trkpt><trkpt lon="5.80728" lat="51.084193"><ele>27</ele><time>2022-05-22T06:24:05.000Z</time></trkpt><trkpt lon="5.807323" lat="51.084161"><ele>27</ele><time>2022-05-22T06:24:06.000Z</time></trkpt><trkpt lon="5.807396" lat="51.084107"><ele>26.8</ele><time>2022-05-22T06:24:07.000Z</time></trkpt><trkpt lon="5.807461" lat="51.084069"><ele>26.8</ele><time>2022-05-22T06:24:08.000Z</time></trkpt><trkpt lon="5.807539" lat="51.084027"><ele>26.8</ele><time>2022-05-22T06:24:09.000Z</time></trkpt><trkpt lon="5.807625" lat="51.083985"><ele>26.8</ele><time>2022-05-22T06:24:10.000Z</time></trkpt><trkpt lon="5.80771" lat="51.083939"><ele>26.8</ele><time>2022-05-22T06:24:11.000Z</time></trkpt><trkpt lon="5.807794" lat="51.083897"><ele>26.8</ele><time>2022-05-22T06:24:12.000Z</time></trkpt><trkpt lon="5.807878" lat="51.083852"><ele>26.6</ele><time>2022-05-22T06:24:13.000Z</time></trkpt><trkpt lon="5.807962" lat="51.083806"><ele>26.6</ele><time>2022-05-22T06:24:14.000Z</time></trkpt><trkpt lon="5.808047" lat="51.083764"><ele>26.6</ele><time>2022-05-22T06:24:15.000Z</time></trkpt><trkpt lon="5.808136" lat="51.083718"><ele>26.6</ele><time>2022-05-22T06:24:16.000Z</time></trkpt><trkpt lon="5.808224" lat="51.083672"><ele>26.4</ele><time>2022-05-22T06:24:17.000Z</time></trkpt><trkpt lon="5.808309" lat="51.083623"><ele>26.4</ele><time>2022-05-22T06:24:18.000Z</time></trkpt><trkpt lon="5.808395" lat="51.083577"><ele>26.4</ele><time>2022-05-22T06:24:19.000Z</time></trkpt><trkpt lon="5.808477" lat="51.083528"><ele>26.4</ele><time>2022-05-22T06:24:20.000Z</time></trkpt><trkpt lon="5.808553" lat="51.083482"><ele>26.6</ele><time>2022-05-22T06:24:21.000Z</time></trkpt><trkpt lon="5.808631" lat="51.083429"><ele>26.4</ele><time>2022-05-22T06:24:22.000Z</time></trkpt><trkpt lon="5.808708" lat="51.083379"><ele>26.6</ele><time>2022-05-22T06:24:23.000Z</time></trkpt><trkpt lon="5.808783" lat="51.083329"><ele>26.6</ele><time>2022-05-22T06:24:24.000Z</time></trkpt><trkpt lon="5.808857" lat="51.083276"><ele>26.6</ele><time>2022-05-22T06:24:25.000Z</time></trkpt><trkpt lon="5.808931" lat="51.083222"><ele>26.6</ele><time>2022-05-22T06:24:26.000Z</time></trkpt><trkpt lon="5.809005" lat="51.083173"><ele>26.6</ele><time>2022-05-22T06:24:27.000Z</time></trkpt><trkpt lon="5.809077" lat="51.083123"><ele>26.6</ele><time>2022-05-22T06:24:28.000Z</time></trkpt><trkpt lon="5.80915" lat="51.08307"><ele>26.6</ele><time>2022-05-22T06:24:29.000Z</time></trkpt><trkpt lon="5.809221" lat="51.083021"><ele>26.6</ele><time>2022-05-22T06:24:30.000Z</time></trkpt><trkpt lon="5.809294" lat="51.082971"><ele>26.6</ele><time>2022-05-22T06:24:31.000Z</time></trkpt><trkpt lon="5.809367" lat="51.082921"><ele>26.6</ele><time>2022-05-22T06:24:32.000Z</time></trkpt><trkpt lon="5.809438" lat="51.082868"><ele>26.4</ele><time>2022-05-22T06:24:33.000Z</time></trkpt><trkpt lon="5.80951" lat="51.082818"><ele>26.6</ele><time>2022-05-22T06:24:34.000Z</time></trkpt><trkpt lon="5.80958" lat="51.082772"><ele>26.6</ele><time>2022-05-22T06:24:35.000Z</time></trkpt><trkpt lon="5.809655" lat="51.082726"><ele>26.6</ele><time>2022-05-22T06:24:36.000Z</time></trkpt><trkpt lon="5.809737" lat="51.082673"><ele>26.6</ele><time>2022-05-22T06:24:37.000Z</time></trkpt><trkpt lon="5.809814" lat="51.082627"><ele>26.6</ele><time>2022-05-22T06:24:38.000Z</time></trkpt><trkpt lon="5.809893" lat="51.082582"><ele>26.6</ele><time>2022-05-22T06:24:39.000Z</time></trkpt><trkpt lon="5.809973" lat="51.08254"><ele>26.6</ele><time>2022-05-22T06:24:40.000Z</time></trkpt><trkpt lon="5.810055" lat="51.082497"><ele>26.6</ele><time>2022-05-22T06:24:41.000Z</time></trkpt><trkpt lon="5.810139" lat="51.082455"><ele>26.8</ele><time>2022-05-22T06:24:42.000Z</time></trkpt><trkpt lon="5.810225" lat="51.082413"><ele>26.8</ele><time>2022-05-22T06:24:43.000Z</time></trkpt><trkpt lon="5.810312" lat="51.08238"><ele>27</ele><time>2022-05-22T06:24:44.000Z</time></trkpt><trkpt lon="5.810404" lat="51.082341"><ele>27.2</ele><time>2022-05-22T06:24:45.000Z</time></trkpt><trkpt lon="5.810495" lat="51.082307"><ele>27</ele><time>2022-05-22T06:24:46.000Z</time></trkpt><trkpt lon="5.810594" lat="51.082276"><ele>27</ele><time>2022-05-22T06:24:47.000Z</time></trkpt><trkpt lon="5.810691" lat="51.082245"><ele>27</ele><time>2022-05-22T06:24:48.000Z</time></trkpt><trkpt lon="5.810788" lat="51.082215"><ele>27</ele><time>2022-05-22T06:24:49.000Z</time></trkpt><trkpt lon="5.810882" lat="51.082181"><ele>27</ele><time>2022-05-22T06:24:50.000Z</time></trkpt><trkpt lon="5.810976" lat="51.08215"><ele>27</ele><time>2022-05-22T06:24:51.000Z</time></trkpt><trkpt lon="5.81107" lat="51.08212"><ele>27</ele><time>2022-05-22T06:24:52.000Z</time></trkpt><trkpt lon="5.811159" lat="51.082089"><ele>26.8</ele><time>2022-05-22T06:24:53.000Z</time></trkpt><trkpt lon="5.811251" lat="51.082059"><ele>26.8</ele><time>2022-05-22T06:24:54.000Z</time></trkpt><trkpt lon="5.811343" lat="51.082032"><ele>26.8</ele><time>2022-05-22T06:24:55.000Z</time></trkpt><trkpt lon="5.811434" lat="51.082002"><ele>26.8</ele><time>2022-05-22T06:24:56.000Z</time></trkpt><trkpt lon="5.811528" lat="51.081971"><ele>26.6</ele><time>2022-05-22T06:24:57.000Z</time></trkpt><trkpt lon="5.811618" lat="51.081944"><ele>26.6</ele><time>2022-05-22T06:24:58.000Z</time></trkpt><trkpt lon="5.811707" lat="51.081917"><ele>26.6</ele><time>2022-05-22T06:24:59.000Z</time></trkpt><trkpt lon="5.811794" lat="51.081898"><ele>26.6</ele><time>2022-05-22T06:25:00.000Z</time></trkpt><trkpt lon="5.811883" lat="51.081875"><ele>26.6</ele><time>2022-05-22T06:25:01.000Z</time></trkpt><trkpt lon="5.811968" lat="51.08186"><ele>26.6</ele><time>2022-05-22T06:25:02.000Z</time></trkpt><trkpt lon="5.812052" lat="51.081841"><ele>26.6</ele><time>2022-05-22T06:25:03.000Z</time></trkpt><trkpt lon="5.81213" lat="51.081822"><ele>26.6</ele><time>2022-05-22T06:25:04.000Z</time></trkpt><trkpt lon="5.812205" lat="51.081803"><ele>26.6</ele><time>2022-05-22T06:25:05.000Z</time></trkpt><trkpt lon="5.812278" lat="51.081784"><ele>26.8</ele><time>2022-05-22T06:25:06.000Z</time></trkpt><trkpt lon="5.812344" lat="51.081768"><ele>26.8</ele><time>2022-05-22T06:25:07.000Z</time></trkpt><trkpt lon="5.812397" lat="51.081753"><ele>27</ele><time>2022-05-22T06:25:08.000Z</time></trkpt><trkpt lon="5.812428" lat="51.081732"><ele>27</ele><time>2022-05-22T06:25:09.000Z</time></trkpt><trkpt lon="5.81243" lat="51.081704"><ele>27.2</ele><time>2022-05-22T06:25:10.000Z</time></trkpt><trkpt lon="5.812419" lat="51.08167"><ele>27.2</ele><time>2022-05-22T06:25:11.000Z</time></trkpt><trkpt lon="5.81243" lat="51.081643"><ele>27.2</ele><time>2022-05-22T06:25:12.000Z</time></trkpt><trkpt lon="5.812468" lat="51.081616"><ele>27.2</ele><time>2022-05-22T06:25:13.000Z</time></trkpt><trkpt lon="5.812519" lat="51.081597"><ele>27.2</ele><time>2022-05-22T06:25:14.000Z</time></trkpt><trkpt lon="5.812574" lat="51.081578"><ele>27.2</ele><time>2022-05-22T06:25:15.000Z</time></trkpt><trkpt lon="5.812627" lat="51.081559"><ele>27.2</ele><time>2022-05-22T06:25:16.000Z</time></trkpt><trkpt lon="5.812682" lat="51.081547"><ele>27.2</ele><time>2022-05-22T06:25:17.000Z</time></trkpt><trkpt lon="5.812741" lat="51.081554"><ele>27.2</ele><time>2022-05-22T06:25:18.000Z</time></trkpt><trkpt lon="5.812802" lat="51.081577"><ele>27</ele><time>2022-05-22T06:25:19.000Z</time></trkpt><trkpt lon="5.812875" lat="51.0816"><ele>27</ele><time>2022-05-22T06:25:20.000Z</time></trkpt><trkpt lon="5.812958" lat="51.081615"><ele>27</ele><time>2022-05-22T06:25:21.000Z</time></trkpt><trkpt lon="5.813045" lat="51.081615"><ele>26.8</ele><time>2022-05-22T06:25:22.000Z</time></trkpt><trkpt lon="5.813128" lat="51.081608"><ele>26.8</ele><time>2022-05-22T06:25:23.000Z</time></trkpt><trkpt lon="5.813211" lat="51.081585"><ele>26.8</ele><time>2022-05-22T06:25:24.000Z</time></trkpt><trkpt lon="5.813296" lat="51.081566"><ele>27</ele><time>2022-05-22T06:25:25.000Z</time></trkpt><trkpt lon="5.813385" lat="51.081547"><ele>27</ele><time>2022-05-22T06:25:26.000Z</time></trkpt><trkpt lon="5.813478" lat="51.081524"><ele>27</ele><time>2022-05-22T06:25:27.000Z</time></trkpt><trkpt lon="5.813568" lat="51.081502"><ele>27</ele><time>2022-05-22T06:25:28.000Z</time></trkpt><trkpt lon="5.813663" lat="51.081479"><ele>27</ele><time>2022-05-22T06:25:29.000Z</time></trkpt><trkpt lon="5.813756" lat="51.081456"><ele>26.8</ele><time>2022-05-22T06:25:30.000Z</time></trkpt><trkpt lon="5.81385" lat="51.081434"><ele>26.8</ele><time>2022-05-22T06:25:31.000Z</time></trkpt><trkpt lon="5.813949" lat="51.08141"><ele>26.8</ele><time>2022-05-22T06:25:32.000Z</time></trkpt><trkpt lon="5.81405" lat="51.081387"><ele>26.6</ele><time>2022-05-22T06:25:33.000Z</time></trkpt><trkpt lon="5.814136" lat="51.081367"><ele>26.8</ele><time>2022-05-22T06:25:34.000Z</time></trkpt><trkpt lon="5.814245" lat="51.081341"><ele>26.8</ele><time>2022-05-22T06:25:35.000Z</time></trkpt><trkpt lon="5.814342" lat="51.081318"><ele>26.6</ele><time>2022-05-22T06:25:36.000Z</time></trkpt><trkpt lon="5.814439" lat="51.081296"><ele>26.8</ele><time>2022-05-22T06:25:37.000Z</time></trkpt><trkpt lon="5.814534" lat="51.08127"><ele>26.8</ele><time>2022-05-22T06:25:38.000Z</time></trkpt><trkpt lon="5.814638" lat="51.081246"><ele>27</ele><time>2022-05-22T06:25:39.000Z</time></trkpt><trkpt lon="5.81474" lat="51.081227"><ele>27</ele><time>2022-05-22T06:25:40.000Z</time></trkpt><trkpt lon="5.814843" lat="51.081204"><ele>27.2</ele><time>2022-05-22T06:25:41.000Z</time></trkpt><trkpt lon="5.814946" lat="51.081189"><ele>27.2</ele><time>2022-05-22T06:25:42.000Z</time></trkpt><trkpt lon="5.81505" lat="51.081173"><ele>27</ele><time>2022-05-22T06:25:43.000Z</time></trkpt><trkpt lon="5.815148" lat="51.081155"><ele>26.8</ele><time>2022-05-22T06:25:44.000Z</time></trkpt><trkpt lon="5.815253" lat="51.081139"><ele>26.8</ele><time>2022-05-22T06:25:45.000Z</time></trkpt><trkpt lon="5.815353" lat="51.081127"><ele>26.6</ele><time>2022-05-22T06:25:46.000Z</time></trkpt><trkpt lon="5.815455" lat="51.081112"><ele>26.6</ele><time>2022-05-22T06:25:47.000Z</time></trkpt><trkpt lon="5.815552" lat="51.081097"><ele>26.6</ele><time>2022-05-22T06:25:48.000Z</time></trkpt><trkpt lon="5.815654" lat="51.081086"><ele>26.6</ele><time>2022-05-22T06:25:49.000Z</time></trkpt><trkpt lon="5.815757" lat="51.08107"><ele>26.8</ele><time>2022-05-22T06:25:50.000Z</time></trkpt><trkpt lon="5.815857" lat="51.081052"><ele>26.8</ele><time>2022-05-22T06:25:51.000Z</time></trkpt><trkpt lon="5.81596" lat="51.081036"><ele>26.8</ele><time>2022-05-22T06:25:52.000Z</time></trkpt><trkpt lon="5.816063" lat="51.081021"><ele>26.8</ele><time>2022-05-22T06:25:53.000Z</time></trkpt><trkpt lon="5.816166" lat="51.081006"><ele>26.8</ele><time>2022-05-22T06:25:54.000Z</time></trkpt><trkpt lon="5.816273" lat="51.08099"><ele>26.8</ele><time>2022-05-22T06:25:55.000Z</time></trkpt><trkpt lon="5.816379" lat="51.080979"><ele>26.8</ele><time>2022-05-22T06:25:56.000Z</time></trkpt><trkpt lon="5.816483" lat="51.080967"><ele>26.8</ele><time>2022-05-22T06:25:57.000Z</time></trkpt><trkpt lon="5.816586" lat="51.08096"><ele>26.6</ele><time>2022-05-22T06:25:58.000Z</time></trkpt><trkpt lon="5.816694" lat="51.080952"><ele>26.6</ele><time>2022-05-22T06:25:59.000Z</time></trkpt><trkpt lon="5.816794" lat="51.080948"><ele>26.6</ele><time>2022-05-22T06:26:00.000Z</time></trkpt><trkpt lon="5.816903" lat="51.080944"><ele>26.6</ele><time>2022-05-22T06:26:01.000Z</time></trkpt><trkpt lon="5.817006" lat="51.080937"><ele>26.6</ele><time>2022-05-22T06:26:02.000Z</time></trkpt><trkpt lon="5.817108" lat="51.080929"><ele>26.6</ele><time>2022-05-22T06:26:03.000Z</time></trkpt><trkpt lon="5.817213" lat="51.080922"><ele>26.6</ele><time>2022-05-22T06:26:04.000Z</time></trkpt><trkpt lon="5.817323" lat="51.080914"><ele>26.6</ele><time>2022-05-22T06:26:05.000Z</time></trkpt><trkpt lon="5.817426" lat="51.080903"><ele>26.6</ele><time>2022-05-22T06:26:06.000Z</time></trkpt><trkpt lon="5.817532" lat="51.080898"><ele>26.6</ele><time>2022-05-22T06:26:07.000Z</time></trkpt><trkpt lon="5.817634" lat="51.080887"><ele>26.6</ele><time>2022-05-22T06:26:08.000Z</time></trkpt><trkpt lon="5.817737" lat="51.080883"><ele>26.6</ele><time>2022-05-22T06:26:09.000Z</time></trkpt><trkpt lon="5.817837" lat="51.080875"><ele>26.6</ele><time>2022-05-22T06:26:10.000Z</time></trkpt><trkpt lon="5.817938" lat="51.080868"><ele>26.6</ele><time>2022-05-22T06:26:11.000Z</time></trkpt><trkpt lon="5.818041" lat="51.080864"><ele>26.6</ele><time>2022-05-22T06:26:12.000Z</time></trkpt><trkpt lon="5.818145" lat="51.08086"><ele>26.6</ele><time>2022-05-22T06:26:13.000Z</time></trkpt><trkpt lon="5.818244" lat="51.080849"><ele>26.8</ele><time>2022-05-22T06:26:14.000Z</time></trkpt><trkpt lon="5.818349" lat="51.080841"><ele>26.8</ele><time>2022-05-22T06:26:15.000Z</time></trkpt><trkpt lon="5.81845" lat="51.080837"><ele>27</ele><time>2022-05-22T06:26:16.000Z</time></trkpt><trkpt lon="5.818549" lat="51.08083"><ele>27</ele><time>2022-05-22T06:26:17.000Z</time></trkpt><trkpt lon="5.818651" lat="51.080822"><ele>27.2</ele><time>2022-05-22T06:26:18.000Z</time></trkpt><trkpt lon="5.818752" lat="51.080818"><ele>27.2</ele><time>2022-05-22T06:26:19.000Z</time></trkpt><trkpt lon="5.818854" lat="51.080807"><ele>27.4</ele><time>2022-05-22T06:26:20.000Z</time></trkpt><trkpt lon="5.818954" lat="51.080803"><ele>27.4</ele><time>2022-05-22T06:26:21.000Z</time></trkpt><trkpt lon="5.819054" lat="51.080796"><ele>27.6</ele><time>2022-05-22T06:26:22.000Z</time></trkpt><trkpt lon="5.819157" lat="51.080792"><ele>27.6</ele><time>2022-05-22T06:26:23.000Z</time></trkpt><trkpt lon="5.819258" lat="51.080788"><ele>27.8</ele><time>2022-05-22T06:26:24.000Z</time></trkpt><trkpt lon="5.819362" lat="51.08078"><ele>27.8</ele><time>2022-05-22T06:26:25.000Z</time></trkpt><trkpt lon="5.819463" lat="51.08078"><ele>28</ele><time>2022-05-22T06:26:26.000Z</time></trkpt><trkpt lon="5.819562" lat="51.080776"><ele>28.2</ele><time>2022-05-22T06:26:27.000Z</time></trkpt><trkpt lon="5.81966" lat="51.080769"><ele>28.2</ele><time>2022-05-22T06:26:28.000Z</time></trkpt><trkpt lon="5.819755" lat="51.080765"><ele>28.4</ele><time>2022-05-22T06:26:29.000Z</time></trkpt><trkpt lon="5.819849" lat="51.080765"><ele>28.6</ele><time>2022-05-22T06:26:30.000Z</time></trkpt><trkpt lon="5.819945" lat="51.080761"><ele>28.8</ele><time>2022-05-22T06:26:31.000Z</time></trkpt><trkpt lon="5.82004" lat="51.080757"><ele>29</ele><time>2022-05-22T06:26:32.000Z</time></trkpt><trkpt lon="5.820135" lat="51.080753"><ele>29.2</ele><time>2022-05-22T06:26:33.000Z</time></trkpt><trkpt lon="5.820226" lat="51.08075"><ele>29.4</ele><time>2022-05-22T06:26:34.000Z</time></trkpt><trkpt lon="5.820317" lat="51.080746"><ele>29.8</ele><time>2022-05-22T06:26:35.000Z</time></trkpt><trkpt lon="5.820411" lat="51.080742"><ele>30</ele><time>2022-05-22T06:26:36.000Z</time></trkpt><trkpt lon="5.820508" lat="51.080738"><ele>30.2</ele><time>2022-05-22T06:26:37.000Z</time></trkpt><trkpt lon="5.820599" lat="51.080731"><ele>30.4</ele><time>2022-05-22T06:26:38.000Z</time></trkpt><trkpt lon="5.82069" lat="51.080719"><ele>30.8</ele><time>2022-05-22T06:26:39.000Z</time></trkpt><trkpt lon="5.820779" lat="51.080711"><ele>31</ele><time>2022-05-22T06:26:40.000Z</time></trkpt><trkpt lon="5.820868" lat="51.0807"><ele>31.2</ele><time>2022-05-22T06:26:41.000Z</time></trkpt><trkpt lon="5.820959" lat="51.080689"><ele>31.4</ele><time>2022-05-22T06:26:42.000Z</time></trkpt><trkpt lon="5.82105" lat="51.080674"><ele>31.8</ele><time>2022-05-22T06:26:43.000Z</time></trkpt><trkpt lon="5.821136" lat="51.080663"><ele>32</ele><time>2022-05-22T06:26:44.000Z</time></trkpt><trkpt lon="5.821227" lat="51.080647"><ele>32.2</ele><time>2022-05-22T06:26:45.000Z</time></trkpt><trkpt lon="5.82132" lat="51.080632"><ele>32.6</ele><time>2022-05-22T06:26:46.000Z</time></trkpt><trkpt lon="5.821411" lat="51.080616"><ele>32.8</ele><time>2022-05-22T06:26:47.000Z</time></trkpt><trkpt lon="5.821501" lat="51.080601"><ele>33</ele><time>2022-05-22T06:26:48.000Z</time></trkpt><trkpt lon="5.821593" lat="51.080586"><ele>33.2</ele><time>2022-05-22T06:26:49.000Z</time></trkpt><trkpt lon="5.821682" lat="51.080571"><ele>33.4</ele><time>2022-05-22T06:26:50.000Z</time></trkpt><trkpt lon="5.82177" lat="51.080548"><ele>33.6</ele><time>2022-05-22T06:26:51.000Z</time></trkpt><trkpt lon="5.821858" lat="51.080529"><ele>33.8</ele><time>2022-05-22T06:26:52.000Z</time></trkpt><trkpt lon="5.821943" lat="51.080514"><ele>34.2</ele><time>2022-05-22T06:26:53.000Z</time></trkpt><trkpt lon="5.822029" lat="51.080494"><ele>34.4</ele><time>2022-05-22T06:26:54.000Z</time></trkpt><trkpt lon="5.822115" lat="51.080472"><ele>34.6</ele><time>2022-05-22T06:26:55.000Z</time></trkpt><trkpt lon="5.822201" lat="51.080449"><ele>34.8</ele><time>2022-05-22T06:26:56.000Z</time></trkpt><trkpt lon="5.822284" lat="51.080426"><ele>35</ele><time>2022-05-22T06:26:57.000Z</time></trkpt><trkpt lon="5.82237" lat="51.080403"><ele>35.4</ele><time>2022-05-22T06:26:58.000Z</time></trkpt><trkpt lon="5.822451" lat="51.080381"><ele>35.6</ele><time>2022-05-22T06:26:59.000Z</time></trkpt><trkpt lon="5.822534" lat="51.080354"><ele>35.8</ele><time>2022-05-22T06:27:00.000Z</time></trkpt><trkpt lon="5.822616" lat="51.080331"><ele>36</ele><time>2022-05-22T06:27:01.000Z</time></trkpt><trkpt lon="5.822699" lat="51.080304"><ele>36.2</ele><time>2022-05-22T06:27:02.000Z</time></trkpt><trkpt lon="5.822782" lat="51.080277"><ele>36.4</ele><time>2022-05-22T06:27:03.000Z</time></trkpt><trkpt lon="5.822864" lat="51.080247"><ele>36.8</ele><time>2022-05-22T06:27:04.000Z</time></trkpt><trkpt lon="5.822945" lat="51.080224"><ele>37</ele><time>2022-05-22T06:27:05.000Z</time></trkpt><trkpt lon="5.823027" lat="51.080197"><ele>37.2</ele><time>2022-05-22T06:27:06.000Z</time></trkpt><trkpt lon="5.823108" lat="51.080167"><ele>37.4</ele><time>2022-05-22T06:27:07.000Z</time></trkpt><trkpt lon="5.823189" lat="51.08014"><ele>37.8</ele><time>2022-05-22T06:27:08.000Z</time></trkpt><trkpt lon="5.823272" lat="51.080113"><ele>38</ele><time>2022-05-22T06:27:09.000Z</time></trkpt><trkpt lon="5.823352" lat="51.080087"><ele>38.2</ele><time>2022-05-22T06:27:10.000Z</time></trkpt><trkpt lon="5.82343" lat="51.080061"><ele>38.4</ele><time>2022-05-22T06:27:11.000Z</time></trkpt><trkpt lon="5.823511" lat="51.08003"><ele>38.6</ele><time>2022-05-22T06:27:12.000Z</time></trkpt><trkpt lon="5.823593" lat="51.080002"><ele>38.8</ele><time>2022-05-22T06:27:13.000Z</time></trkpt><trkpt lon="5.823674" lat="51.07998"><ele>39</ele><time>2022-05-22T06:27:14.000Z</time></trkpt><trkpt lon="5.823758" lat="51.079949"><ele>39.2</ele><time>2022-05-22T06:27:15.000Z</time></trkpt><trkpt lon="5.823842" lat="51.079922"><ele>39.6</ele><time>2022-05-22T06:27:16.000Z</time></trkpt><trkpt lon="5.823921" lat="51.079897"><ele>39.8</ele><time>2022-05-22T06:27:17.000Z</time></trkpt><trkpt lon="5.824009" lat="51.079866"><ele>40</ele><time>2022-05-22T06:27:18.000Z</time></trkpt><trkpt lon="5.824091" lat="51.079839"><ele>40.2</ele><time>2022-05-22T06:27:19.000Z</time></trkpt><trkpt lon="5.824175" lat="51.079808"><ele>40.4</ele><time>2022-05-22T06:27:20.000Z</time></trkpt><trkpt lon="5.82426" lat="51.079777"><ele>40.6</ele><time>2022-05-22T06:27:21.000Z</time></trkpt><trkpt lon="5.82434" lat="51.079751"><ele>40.8</ele><time>2022-05-22T06:27:22.000Z</time></trkpt><trkpt lon="5.82442" lat="51.079724"><ele>40.8</ele><time>2022-05-22T06:27:23.000Z</time></trkpt><trkpt lon="5.824499" lat="51.079697"><ele>41</ele><time>2022-05-22T06:27:24.000Z</time></trkpt><trkpt lon="5.824577" lat="51.079674"><ele>41.2</ele><time>2022-05-22T06:27:25.000Z</time></trkpt><trkpt lon="5.824655" lat="51.079648"><ele>41.4</ele><time>2022-05-22T06:27:26.000Z</time></trkpt><trkpt lon="5.824734" lat="51.079618"><ele>41.6</ele><time>2022-05-22T06:27:27.000Z</time></trkpt><trkpt lon="5.824812" lat="51.07959"><ele>41.8</ele><time>2022-05-22T06:27:28.000Z</time></trkpt><trkpt lon="5.824892" lat="51.07956"><ele>42</ele><time>2022-05-22T06:27:29.000Z</time></trkpt><trkpt lon="5.824971" lat="51.07953"><ele>42</ele><time>2022-05-22T06:27:30.000Z</time></trkpt><trkpt lon="5.825053" lat="51.079499"><ele>42.2</ele><time>2022-05-22T06:27:31.000Z</time></trkpt><trkpt lon="5.825132" lat="51.079473"><ele>42.2</ele><time>2022-05-22T06:27:32.000Z</time></trkpt><trkpt lon="5.825215" lat="51.079442"><ele>42.2</ele><time>2022-05-22T06:27:33.000Z</time></trkpt><trkpt lon="5.825297" lat="51.079411"><ele>42.2</ele><time>2022-05-22T06:27:34.000Z</time></trkpt><trkpt lon="5.825375" lat="51.079381"><ele>42.4</ele><time>2022-05-22T06:27:35.000Z</time></trkpt><trkpt lon="5.82546" lat="51.079354"><ele>42.4</ele><time>2022-05-22T06:27:36.000Z</time></trkpt><trkpt lon="5.825543" lat="51.079324"><ele>42.4</ele><time>2022-05-22T06:27:37.000Z</time></trkpt><trkpt lon="5.825625" lat="51.079293"><ele>42.4</ele><time>2022-05-22T06:27:38.000Z</time></trkpt><trkpt lon="5.825704" lat="51.079265"><ele>42.6</ele><time>2022-05-22T06:27:39.000Z</time></trkpt><trkpt lon="5.825787" lat="51.079237"><ele>42.6</ele><time>2022-05-22T06:27:40.000Z</time></trkpt><trkpt lon="5.825872" lat="51.079209"><ele>42.6</ele><time>2022-05-22T06:27:41.000Z</time></trkpt><trkpt lon="5.825953" lat="51.079178"><ele>42.4</ele><time>2022-05-22T06:27:42.000Z</time></trkpt><trkpt lon="5.82604" lat="51.079144"><ele>42.4</ele><time>2022-05-22T06:27:43.000Z</time></trkpt><trkpt lon="5.82613" lat="51.079117"><ele>42.4</ele><time>2022-05-22T06:27:44.000Z</time></trkpt><trkpt lon="5.82622" lat="51.079091"><ele>42.4</ele><time>2022-05-22T06:27:45.000Z</time></trkpt><trkpt lon="5.826308" lat="51.07906"><ele>42.2</ele><time>2022-05-22T06:27:46.000Z</time></trkpt><trkpt lon="5.826393" lat="51.07903"><ele>42.2</ele><time>2022-05-22T06:27:47.000Z</time></trkpt><trkpt lon="5.826479" lat="51.078999"><ele>42.2</ele><time>2022-05-22T06:27:48.000Z</time></trkpt><trkpt lon="5.826565" lat="51.078972"><ele>42.2</ele><time>2022-05-22T06:27:49.000Z</time></trkpt><trkpt lon="5.826654" lat="51.078946"><ele>42</ele><time>2022-05-22T06:27:50.000Z</time></trkpt><trkpt lon="5.826742" lat="51.078919"><ele>41.8</ele><time>2022-05-22T06:27:51.000Z</time></trkpt><trkpt lon="5.826833" lat="51.078889"><ele>41.8</ele><time>2022-05-22T06:27:52.000Z</time></trkpt><trkpt lon="5.826925" lat="51.078858"><ele>41.6</ele><time>2022-05-22T06:27:53.000Z</time></trkpt><trkpt lon="5.827019" lat="51.078828"><ele>41.4</ele><time>2022-05-22T06:27:54.000Z</time></trkpt><trkpt lon="5.827116" lat="51.078801"><ele>41.2</ele><time>2022-05-22T06:27:55.000Z</time></trkpt><trkpt lon="5.827212" lat="51.078774"><ele>41</ele><time>2022-05-22T06:27:56.000Z</time></trkpt><trkpt lon="5.827312" lat="51.078744"><ele>40.8</ele><time>2022-05-22T06:27:57.000Z</time></trkpt><trkpt lon="5.827409" lat="51.078717"><ele>40.8</ele><time>2022-05-22T06:27:58.000Z</time></trkpt><trkpt lon="5.827512" lat="51.078687"><ele>40.6</ele><time>2022-05-22T06:27:59.000Z</time></trkpt><trkpt lon="5.827616" lat="51.07866"><ele>40.4</ele><time>2022-05-22T06:28:00.000Z</time></trkpt><trkpt lon="5.827722" lat="51.078629"><ele>40</ele><time>2022-05-22T06:28:01.000Z</time></trkpt><trkpt lon="5.827826" lat="51.078602"><ele>39.8</ele><time>2022-05-22T06:28:02.000Z</time></trkpt><trkpt lon="5.827929" lat="51.078576"><ele>39.6</ele><time>2022-05-22T06:28:03.000Z</time></trkpt><trkpt lon="5.828032" lat="51.078549"><ele>39.2</ele><time>2022-05-22T06:28:04.000Z</time></trkpt><trkpt lon="5.82814" lat="51.078523"><ele>38.8</ele><time>2022-05-22T06:28:05.000Z</time></trkpt><trkpt lon="5.828258" lat="51.078496"><ele>38.6</ele><time>2022-05-22T06:28:06.000Z</time></trkpt><trkpt lon="5.828374" lat="51.078473"><ele>38.2</ele><time>2022-05-22T06:28:07.000Z</time></trkpt><trkpt lon="5.828491" lat="51.07845"><ele>37.8</ele><time>2022-05-22T06:28:08.000Z</time></trkpt><trkpt lon="5.828609" lat="51.078427"><ele>37.4</ele><time>2022-05-22T06:28:09.000Z</time></trkpt><trkpt lon="5.828726" lat="51.078404"><ele>37.2</ele><time>2022-05-22T06:28:10.000Z</time></trkpt><trkpt lon="5.828849" lat="51.078377"><ele>36.8</ele><time>2022-05-22T06:28:11.000Z</time></trkpt><trkpt lon="5.828969" lat="51.078354"><ele>36.4</ele><time>2022-05-22T06:28:12.000Z</time></trkpt><trkpt lon="5.829092" lat="51.078331"><ele>36.2</ele><time>2022-05-22T06:28:13.000Z</time></trkpt><trkpt lon="5.829209" lat="51.078309"><ele>36</ele><time>2022-05-22T06:28:14.000Z</time></trkpt><trkpt lon="5.829339" lat="51.078293"><ele>35.6</ele><time>2022-05-22T06:28:15.000Z</time></trkpt><trkpt lon="5.829469" lat="51.078282"><ele>35.4</ele><time>2022-05-22T06:28:16.000Z</time></trkpt><trkpt lon="5.829599" lat="51.07827"><ele>35</ele><time>2022-05-22T06:28:17.000Z</time></trkpt><trkpt lon="5.829732" lat="51.078259"><ele>34.8</ele><time>2022-05-22T06:28:18.000Z</time></trkpt><trkpt lon="5.829868" lat="51.078247"><ele>34.4</ele><time>2022-05-22T06:28:19.000Z</time></trkpt><trkpt lon="5.830004" lat="51.07824"><ele>34</ele><time>2022-05-22T06:28:20.000Z</time></trkpt><trkpt lon="5.830142" lat="51.078232"><ele>33.8</ele><time>2022-05-22T06:28:21.000Z</time></trkpt><trkpt lon="5.830279" lat="51.078228"><ele>33.6</ele><time>2022-05-22T06:28:22.000Z</time></trkpt><trkpt lon="5.830412" lat="51.078228"><ele>33.2</ele><time>2022-05-22T06:28:23.000Z</time></trkpt><trkpt lon="5.830538" lat="51.078228"><ele>33</ele><time>2022-05-22T06:28:24.000Z</time></trkpt><trkpt lon="5.830657" lat="51.078228"><ele>32.8</ele><time>2022-05-22T06:28:25.000Z</time></trkpt><trkpt lon="5.830768" lat="51.078228"><ele>32.6</ele><time>2022-05-22T06:28:26.000Z</time></trkpt><trkpt lon="5.83087" lat="51.078228"><ele>32.4</ele><time>2022-05-22T06:28:27.000Z</time></trkpt><trkpt lon="5.830956" lat="51.078232"><ele>32.2</ele><time>2022-05-22T06:28:28.000Z</time></trkpt><trkpt lon="5.831035" lat="51.078232"><ele>32.2</ele><time>2022-05-22T06:28:29.000Z</time></trkpt><trkpt lon="5.8311" lat="51.078232"><ele>32.2</ele><time>2022-05-22T06:28:30.000Z</time></trkpt><trkpt lon="5.83115" lat="51.078232"><ele>32.2</ele><time>2022-05-22T06:28:31.000Z</time></trkpt><trkpt lon="5.831186" lat="51.078232"><ele>32.2</ele><time>2022-05-22T06:28:32.000Z</time></trkpt><trkpt lon="5.831208" lat="51.078232"><ele>32</ele><time>2022-05-22T06:29:00.000Z</time></trkpt><trkpt lon="5.831227" lat="51.078235"><ele>32</ele><time>2022-05-22T06:29:01.000Z</time></trkpt><trkpt lon="5.831259" lat="51.078236"><ele>32</ele><time>2022-05-22T06:29:02.000Z</time></trkpt><trkpt lon="5.831292" lat="51.078236"><ele>32</ele><time>2022-05-22T06:29:03.000Z</time></trkpt><trkpt lon="5.831324" lat="51.078236"><ele>32</ele><time>2022-05-22T06:29:04.000Z</time></trkpt><trkpt lon="5.831386" lat="51.078239"><ele>31.8</ele><time>2022-05-22T06:29:05.000Z</time></trkpt><trkpt lon="5.831451" lat="51.078243"><ele>31.6</ele><time>2022-05-22T06:29:06.000Z</time></trkpt><trkpt lon="5.831522" lat="51.078243"><ele>31.6</ele><time>2022-05-22T06:29:07.000Z</time></trkpt><trkpt lon="5.831597" lat="51.078251"><ele>31.4</ele><time>2022-05-22T06:29:08.000Z</time></trkpt><trkpt lon="5.831679" lat="51.078262"><ele>31.4</ele><time>2022-05-22T06:29:09.000Z</time></trkpt><trkpt lon="5.831777" lat="51.078277"><ele>31</ele><time>2022-05-22T06:29:10.000Z</time></trkpt><trkpt lon="5.831878" lat="51.078289"><ele>30.8</ele><time>2022-05-22T06:29:11.000Z</time></trkpt><trkpt lon="5.831989" lat="51.078293"><ele>30.6</ele><time>2022-05-22T06:29:12.000Z</time></trkpt><trkpt lon="5.8321" lat="51.078293"><ele>30.4</ele><time>2022-05-22T06:29:13.000Z</time></trkpt><trkpt lon="5.832212" lat="51.078293"><ele>30.4</ele><time>2022-05-22T06:29:14.000Z</time></trkpt><trkpt lon="5.832323" lat="51.078297"><ele>30.2</ele><time>2022-05-22T06:29:15.000Z</time></trkpt><trkpt lon="5.832436" lat="51.078297"><ele>29.8</ele><time>2022-05-22T06:29:16.000Z</time></trkpt><trkpt lon="5.832548" lat="51.078297"><ele>29.6</ele><time>2022-05-22T06:29:17.000Z</time></trkpt><trkpt lon="5.832667" lat="51.078297"><ele>29.2</ele><time>2022-05-22T06:29:18.000Z</time></trkpt><trkpt lon="5.83279" lat="51.078297"><ele>29</ele><time>2022-05-22T06:29:19.000Z</time></trkpt><trkpt lon="5.832911" lat="51.078297"><ele>28.6</ele><time>2022-05-22T06:29:20.000Z</time></trkpt><trkpt lon="5.833032" lat="51.078304"><ele>28.4</ele><time>2022-05-22T06:29:21.000Z</time></trkpt><trkpt lon="5.833154" lat="51.078308"><ele>28.2</ele><time>2022-05-22T06:29:22.000Z</time></trkpt><trkpt lon="5.833272" lat="51.078312"><ele>28</ele><time>2022-05-22T06:29:23.000Z</time></trkpt><trkpt lon="5.833392" lat="51.078312"><ele>28</ele><time>2022-05-22T06:29:24.000Z</time></trkpt><trkpt lon="5.83351" lat="51.078316"><ele>27.8</ele><time>2022-05-22T06:29:25.000Z</time></trkpt><trkpt lon="5.83363" lat="51.078319"><ele>27.6</ele><time>2022-05-22T06:29:26.000Z</time></trkpt><trkpt lon="5.833747" lat="51.07832"><ele>27.4</ele><time>2022-05-22T06:29:27.000Z</time></trkpt><trkpt lon="5.833861" lat="51.078316"><ele>27.4</ele><time>2022-05-22T06:29:28.000Z</time></trkpt><trkpt lon="5.833975" lat="51.078312"><ele>27.2</ele><time>2022-05-22T06:29:29.000Z</time></trkpt><trkpt lon="5.834088" lat="51.078308"><ele>27.2</ele><time>2022-05-22T06:29:30.000Z</time></trkpt><trkpt lon="5.834199" lat="51.078297"><ele>27</ele><time>2022-05-22T06:29:31.000Z</time></trkpt><trkpt lon="5.834316" lat="51.078285"><ele>27</ele><time>2022-05-22T06:29:32.000Z</time></trkpt><trkpt lon="5.83443" lat="51.078274"><ele>27</ele><time>2022-05-22T06:29:33.000Z</time></trkpt><trkpt lon="5.834541" lat="51.078259"><ele>27</ele><time>2022-05-22T06:29:34.000Z</time></trkpt><trkpt lon="5.834649" lat="51.078244"><ele>27.2</ele><time>2022-05-22T06:29:35.000Z</time></trkpt><trkpt lon="5.834757" lat="51.078229"><ele>27.2</ele><time>2022-05-22T06:29:36.000Z</time></trkpt><trkpt lon="5.834863" lat="51.07821"><ele>27.4</ele><time>2022-05-22T06:29:37.000Z</time></trkpt><trkpt lon="5.834975" lat="51.07819"><ele>27.4</ele><time>2022-05-22T06:29:38.000Z</time></trkpt><trkpt lon="5.83508" lat="51.078171"><ele>27.4</ele><time>2022-05-22T06:29:39.000Z</time></trkpt><trkpt lon="5.835183" lat="51.078152"><ele>27.4</ele><time>2022-05-22T06:29:40.000Z</time></trkpt><trkpt lon="5.835287" lat="51.078133"><ele>27.6</ele><time>2022-05-22T06:29:41.000Z</time></trkpt><trkpt lon="5.83539" lat="51.078114"><ele>27.6</ele><time>2022-05-22T06:29:42.000Z</time></trkpt><trkpt lon="5.835491" lat="51.078095"><ele>27.6</ele><time>2022-05-22T06:29:43.000Z</time></trkpt><trkpt lon="5.835584" lat="51.078072"><ele>27.8</ele><time>2022-05-22T06:29:44.000Z</time></trkpt><trkpt lon="5.835676" lat="51.078057"><ele>27.8</ele><time>2022-05-22T06:29:45.000Z</time></trkpt><trkpt lon="5.835762" lat="51.078038"><ele>28</ele><time>2022-05-22T06:29:46.000Z</time></trkpt><trkpt lon="5.835839" lat="51.078022"><ele>28</ele><time>2022-05-22T06:29:47.000Z</time></trkpt><trkpt lon="5.835908" lat="51.078007"><ele>28</ele><time>2022-05-22T06:29:48.000Z</time></trkpt><trkpt lon="5.83597" lat="51.077996"><ele>28.2</ele><time>2022-05-22T06:29:49.000Z</time></trkpt><trkpt lon="5.836022" lat="51.077984"><ele>28.2</ele><time>2022-05-22T06:29:50.000Z</time></trkpt><trkpt lon="5.836066" lat="51.077976"><ele>28.2</ele><time>2022-05-22T06:29:51.000Z</time></trkpt><trkpt lon="5.836103" lat="51.077969"><ele>28.2</ele><time>2022-05-22T06:29:52.000Z</time></trkpt><trkpt lon="5.836136" lat="51.077969"><ele>28.2</ele><time>2022-05-22T06:29:53.000Z</time></trkpt><trkpt lon="5.836163" lat="51.077976"><ele>28.4</ele><time>2022-05-22T06:29:54.000Z</time></trkpt><trkpt lon="5.836179" lat="51.077987"><ele>28.4</ele><time>2022-05-22T06:29:55.000Z</time></trkpt><trkpt lon="5.836194" lat="51.078006"><ele>28.4</ele><time>2022-05-22T06:29:56.000Z</time></trkpt><trkpt lon="5.836215" lat="51.078033"><ele>28.4</ele><time>2022-05-22T06:29:57.000Z</time></trkpt><trkpt lon="5.836236" lat="51.078063"><ele>28.4</ele><time>2022-05-22T06:29:58.000Z</time></trkpt><trkpt lon="5.836259" lat="51.078109"><ele>28.4</ele><time>2022-05-22T06:29:59.000Z</time></trkpt><trkpt lon="5.836285" lat="51.078158"><ele>28.4</ele><time>2022-05-22T06:30:00.000Z</time></trkpt><trkpt lon="5.836312" lat="51.078215"><ele>28.2</ele><time>2022-05-22T06:30:01.000Z</time></trkpt><trkpt lon="5.836344" lat="51.078276"><ele>28.2</ele><time>2022-05-22T06:30:02.000Z</time></trkpt><trkpt lon="5.836376" lat="51.078337"><ele>28.2</ele><time>2022-05-22T06:30:03.000Z</time></trkpt><trkpt lon="5.836404" lat="51.078402"><ele>28.2</ele><time>2022-05-22T06:30:04.000Z</time></trkpt><trkpt lon="5.836429" lat="51.078463"><ele>28.2</ele><time>2022-05-22T06:30:05.000Z</time></trkpt><trkpt lon="5.836451" lat="51.07852"><ele>28.2</ele><time>2022-05-22T06:30:06.000Z</time></trkpt><trkpt lon="5.836473" lat="51.078584"><ele>28.2</ele><time>2022-05-22T06:30:07.000Z</time></trkpt><trkpt lon="5.836491" lat="51.078646"><ele>28.2</ele><time>2022-05-22T06:30:08.000Z</time></trkpt><trkpt lon="5.836508" lat="51.078711"><ele>28.2</ele><time>2022-05-22T06:30:09.000Z</time></trkpt><trkpt lon="5.836526" lat="51.078776"><ele>28.2</ele><time>2022-05-22T06:30:10.000Z</time></trkpt><trkpt lon="5.836541" lat="51.07884"><ele>28.2</ele><time>2022-05-22T06:30:11.000Z</time></trkpt><trkpt lon="5.836558" lat="51.078909"><ele>28</ele><time>2022-05-22T06:30:12.000Z</time></trkpt><trkpt lon="5.836574" lat="51.078974"><ele>27.8</ele><time>2022-05-22T06:30:13.000Z</time></trkpt><trkpt lon="5.836585" lat="51.079042"><ele>27.8</ele><time>2022-05-22T06:30:14.000Z</time></trkpt><trkpt lon="5.836598" lat="51.079107"><ele>27.8</ele><time>2022-05-22T06:30:15.000Z</time></trkpt><trkpt lon="5.836615" lat="51.079177"><ele>27.6</ele><time>2022-05-22T06:30:16.000Z</time></trkpt><trkpt lon="5.836631" lat="51.079239"><ele>27.6</ele><time>2022-05-22T06:30:17.000Z</time></trkpt><trkpt lon="5.836646" lat="51.079305"><ele>27.6</ele><time>2022-05-22T06:30:18.000Z</time></trkpt><trkpt lon="5.836663" lat="51.07937"><ele>27.6</ele><time>2022-05-22T06:30:19.000Z</time></trkpt><trkpt lon="5.836679" lat="51.079439"><ele>27.6</ele><time>2022-05-22T06:30:20.000Z</time></trkpt><trkpt lon="5.836698" lat="51.079503"><ele>27.6</ele><time>2022-05-22T06:30:21.000Z</time></trkpt><trkpt lon="5.836712" lat="51.079555"><ele>27.6</ele><time>2022-05-22T06:30:22.000Z</time></trkpt><trkpt lon="5.836727" lat="51.079627"><ele>27.4</ele><time>2022-05-22T06:30:23.000Z</time></trkpt><trkpt lon="5.836742" lat="51.079693"><ele>27.2</ele><time>2022-05-22T06:30:24.000Z</time></trkpt><trkpt lon="5.836756" lat="51.079756"><ele>27.2</ele><time>2022-05-22T06:30:25.000Z</time></trkpt><trkpt lon="5.836771" lat="51.079819"><ele>27.2</ele><time>2022-05-22T06:30:26.000Z</time></trkpt><trkpt lon="5.836786" lat="51.079889"><ele>27.2</ele><time>2022-05-22T06:30:27.000Z</time></trkpt><trkpt lon="5.836804" lat="51.079957"><ele>27.2</ele><time>2022-05-22T06:30:28.000Z</time></trkpt><trkpt lon="5.836821" lat="51.080026"><ele>27.2</ele><time>2022-05-22T06:30:29.000Z</time></trkpt><trkpt lon="5.836837" lat="51.080088"><ele>27.2</ele><time>2022-05-22T06:30:30.000Z</time></trkpt><trkpt lon="5.836855" lat="51.08016"><ele>27</ele><time>2022-05-22T06:30:31.000Z</time></trkpt><trkpt lon="5.836873" lat="51.080228"><ele>27</ele><time>2022-05-22T06:30:32.000Z</time></trkpt><trkpt lon="5.836888" lat="51.080292"><ele>27</ele><time>2022-05-22T06:30:33.000Z</time></trkpt><trkpt lon="5.836902" lat="51.080361"><ele>26.8</ele><time>2022-05-22T06:30:34.000Z</time></trkpt><trkpt lon="5.836919" lat="51.080427"><ele>26.8</ele><time>2022-05-22T06:30:35.000Z</time></trkpt><trkpt lon="5.836938" lat="51.080495"><ele>26.8</ele><time>2022-05-22T06:30:36.000Z</time></trkpt><trkpt lon="5.836956" lat="51.080564"><ele>26.8</ele><time>2022-05-22T06:30:37.000Z</time></trkpt><trkpt lon="5.836973" lat="51.080632"><ele>26.6</ele><time>2022-05-22T06:30:38.000Z</time></trkpt><trkpt lon="5.836991" lat="51.080702"><ele>26.6</ele><time>2022-05-22T06:30:39.000Z</time></trkpt><trkpt lon="5.837011" lat="51.080771"><ele>26.6</ele><time>2022-05-22T06:30:40.000Z</time></trkpt><trkpt lon="5.837033" lat="51.080839"><ele>26.8</ele><time>2022-05-22T06:30:41.000Z</time></trkpt><trkpt lon="5.837059" lat="51.080903"><ele>27</ele><time>2022-05-22T06:30:42.000Z</time></trkpt><trkpt lon="5.837089" lat="51.080972"><ele>27</ele><time>2022-05-22T06:30:43.000Z</time></trkpt><trkpt lon="5.837121" lat="51.081036"><ele>27</ele><time>2022-05-22T06:30:44.000Z</time></trkpt><trkpt lon="5.837159" lat="51.081102"><ele>27.2</ele><time>2022-05-22T06:30:45.000Z</time></trkpt><trkpt lon="5.837197" lat="51.081166"><ele>27.2</ele><time>2022-05-22T06:30:46.000Z</time></trkpt><trkpt lon="5.837237" lat="51.081232"><ele>27.2</ele><time>2022-05-22T06:30:47.000Z</time></trkpt><trkpt lon="5.837279" lat="51.081291"><ele>27.2</ele><time>2022-05-22T06:30:48.000Z</time></trkpt><trkpt lon="5.837325" lat="51.08135"><ele>27.2</ele><time>2022-05-22T06:30:49.000Z</time></trkpt><trkpt lon="5.83737" lat="51.081409"><ele>27.2</ele><time>2022-05-22T06:30:50.000Z</time></trkpt><trkpt lon="5.837424" lat="51.081469"><ele>27.2</ele><time>2022-05-22T06:30:51.000Z</time></trkpt><trkpt lon="5.837477" lat="51.081528"><ele>27.2</ele><time>2022-05-22T06:30:52.000Z</time></trkpt><trkpt lon="5.837518" lat="51.081568"><ele>27.2</ele><time>2022-05-22T06:30:53.000Z</time></trkpt><trkpt lon="5.837587" lat="51.081635"><ele>27.4</ele><time>2022-05-22T06:30:54.000Z</time></trkpt><trkpt lon="5.837646" lat="51.081697"><ele>27.4</ele><time>2022-05-22T06:30:55.000Z</time></trkpt><trkpt lon="5.837703" lat="51.08175"><ele>27.4</ele><time>2022-05-22T06:30:56.000Z</time></trkpt><trkpt lon="5.837758" lat="51.081804"><ele>27.2</ele><time>2022-05-22T06:30:57.000Z</time></trkpt><trkpt lon="5.837816" lat="51.081861"><ele>27.2</ele><time>2022-05-22T06:30:58.000Z</time></trkpt><trkpt lon="5.837877" lat="51.081923"><ele>27.2</ele><time>2022-05-22T06:30:59.000Z</time></trkpt><trkpt lon="5.837934" lat="51.081975"><ele>27.4</ele><time>2022-05-22T06:31:00.000Z</time></trkpt><trkpt lon="5.837995" lat="51.082033"><ele>27.4</ele><time>2022-05-22T06:31:01.000Z</time></trkpt><trkpt lon="5.838057" lat="51.082087"><ele>27.4</ele><time>2022-05-22T06:31:02.000Z</time></trkpt><trkpt lon="5.838119" lat="51.082144"><ele>27.2</ele><time>2022-05-22T06:31:03.000Z</time></trkpt><trkpt lon="5.83818" lat="51.082204"><ele>27.2</ele><time>2022-05-22T06:31:04.000Z</time></trkpt><trkpt lon="5.838243" lat="51.082262"><ele>27.2</ele><time>2022-05-22T06:31:05.000Z</time></trkpt><trkpt lon="5.838302" lat="51.082318"><ele>27.2</ele><time>2022-05-22T06:31:06.000Z</time></trkpt><trkpt lon="5.838359" lat="51.082373"><ele>27.2</ele><time>2022-05-22T06:31:07.000Z</time></trkpt><trkpt lon="5.838423" lat="51.082433"><ele>27.2</ele><time>2022-05-22T06:31:08.000Z</time></trkpt><trkpt lon="5.838481" lat="51.082487"><ele>27.4</ele><time>2022-05-22T06:31:09.000Z</time></trkpt><trkpt lon="5.83854" lat="51.082543"><ele>27.4</ele><time>2022-05-22T06:31:10.000Z</time></trkpt><trkpt lon="5.838598" lat="51.082598"><ele>27.6</ele><time>2022-05-22T06:31:11.000Z</time></trkpt><trkpt lon="5.838653" lat="51.082651"><ele>27.6</ele><time>2022-05-22T06:31:12.000Z</time></trkpt><trkpt lon="5.83871" lat="51.082705"><ele>27.6</ele><time>2022-05-22T06:31:13.000Z</time></trkpt><trkpt lon="5.838769" lat="51.082757"><ele>27.6</ele><time>2022-05-22T06:31:14.000Z</time></trkpt><trkpt lon="5.838829" lat="51.082811"><ele>27.6</ele><time>2022-05-22T06:31:15.000Z</time></trkpt><trkpt lon="5.838886" lat="51.082864"><ele>27.6</ele><time>2022-05-22T06:31:16.000Z</time></trkpt><trkpt lon="5.838948" lat="51.082925"><ele>27.6</ele><time>2022-05-22T06:31:17.000Z</time></trkpt><trkpt lon="5.839005" lat="51.082981"><ele>27.6</ele><time>2022-05-22T06:31:18.000Z</time></trkpt><trkpt lon="5.839064" lat="51.083036"><ele>27.6</ele><time>2022-05-22T06:31:19.000Z</time></trkpt><trkpt lon="5.839123" lat="51.083089"><ele>27.6</ele><time>2022-05-22T06:31:20.000Z</time></trkpt><trkpt lon="5.839191" lat="51.083143"><ele>27.6</ele><time>2022-05-22T06:31:21.000Z</time></trkpt><trkpt lon="5.839249" lat="51.083196"><ele>27.6</ele><time>2022-05-22T06:31:22.000Z</time></trkpt><trkpt lon="5.839308" lat="51.08325"><ele>27.6</ele><time>2022-05-22T06:31:23.000Z</time></trkpt><trkpt lon="5.839367" lat="51.083307"><ele>27.6</ele><time>2022-05-22T06:31:24.000Z</time></trkpt><trkpt lon="5.839429" lat="51.083364"><ele>27.6</ele><time>2022-05-22T06:31:25.000Z</time></trkpt><trkpt lon="5.839489" lat="51.083417"><ele>27.6</ele><time>2022-05-22T06:31:26.000Z</time></trkpt><trkpt lon="5.839547" lat="51.083474"><ele>27.6</ele><time>2022-05-22T06:31:27.000Z</time></trkpt><trkpt lon="5.839605" lat="51.083527"><ele>27.6</ele><time>2022-05-22T06:31:28.000Z</time></trkpt><trkpt lon="5.839663" lat="51.083584"><ele>27.6</ele><time>2022-05-22T06:31:29.000Z</time></trkpt><trkpt lon="5.839723" lat="51.083642"><ele>27.6</ele><time>2022-05-22T06:31:30.000Z</time></trkpt><trkpt lon="5.839783" lat="51.083696"><ele>27.6</ele><time>2022-05-22T06:31:31.000Z</time></trkpt><trkpt lon="5.839835" lat="51.083755"><ele>27.6</ele><time>2022-05-22T06:31:32.000Z</time></trkpt><trkpt lon="5.839885" lat="51.083814"><ele>27.6</ele><time>2022-05-22T06:31:33.000Z</time></trkpt><trkpt lon="5.839928" lat="51.083866"><ele>27.6</ele><time>2022-05-22T06:31:34.000Z</time></trkpt><trkpt lon="5.839981" lat="51.083927"><ele>27.8</ele><time>2022-05-22T06:31:35.000Z</time></trkpt><trkpt lon="5.840029" lat="51.083981"><ele>27.8</ele><time>2022-05-22T06:31:36.000Z</time></trkpt><trkpt lon="5.84008" lat="51.084042"><ele>27.8</ele><time>2022-05-22T06:31:37.000Z</time></trkpt><trkpt lon="5.840132" lat="51.084105"><ele>27.8</ele><time>2022-05-22T06:31:38.000Z</time></trkpt><trkpt lon="5.840177" lat="51.08417"><ele>27.6</ele><time>2022-05-22T06:31:39.000Z</time></trkpt><trkpt lon="5.840224" lat="51.084231"><ele>27.6</ele><time>2022-05-22T06:31:40.000Z</time></trkpt><trkpt lon="5.840269" lat="51.084292"><ele>27.6</ele><time>2022-05-22T06:31:41.000Z</time></trkpt><trkpt lon="5.84031" lat="51.084356"><ele>27.6</ele><time>2022-05-22T06:31:42.000Z</time></trkpt><trkpt lon="5.840351" lat="51.084422"><ele>27.6</ele><time>2022-05-22T06:31:43.000Z</time></trkpt><trkpt lon="5.840391" lat="51.084487"><ele>27.6</ele><time>2022-05-22T06:31:44.000Z</time></trkpt><trkpt lon="5.840426" lat="51.084551"><ele>27.4</ele><time>2022-05-22T06:31:45.000Z</time></trkpt><trkpt lon="5.840461" lat="51.084616"><ele>27.4</ele><time>2022-05-22T06:31:46.000Z</time></trkpt><trkpt lon="5.840491" lat="51.084677"><ele>27.2</ele><time>2022-05-22T06:31:47.000Z</time></trkpt><trkpt lon="5.840521" lat="51.084741"><ele>27.2</ele><time>2022-05-22T06:31:48.000Z</time></trkpt><trkpt lon="5.840548" lat="51.084806"><ele>27.2</ele><time>2022-05-22T06:31:49.000Z</time></trkpt><trkpt lon="5.840575" lat="51.084875"><ele>27.2</ele><time>2022-05-22T06:31:50.000Z</time></trkpt><trkpt lon="5.840601" lat="51.084941"><ele>27.2</ele><time>2022-05-22T06:31:51.000Z</time></trkpt><trkpt lon="5.840624" lat="51.085009"><ele>27.2</ele><time>2022-05-22T06:31:52.000Z</time></trkpt><trkpt lon="5.840646" lat="51.085073"><ele>27.2</ele><time>2022-05-22T06:31:53.000Z</time></trkpt><trkpt lon="5.840669" lat="51.085142"><ele>27</ele><time>2022-05-22T06:31:54.000Z</time></trkpt><trkpt lon="5.84069" lat="51.085207"><ele>27</ele><time>2022-05-22T06:31:55.000Z</time></trkpt><trkpt lon="5.840709" lat="51.085275"><ele>27</ele><time>2022-05-22T06:31:56.000Z</time></trkpt><trkpt lon="5.84073" lat="51.085344"><ele>27.2</ele><time>2022-05-22T06:31:57.000Z</time></trkpt><trkpt lon="5.840751" lat="51.085413"><ele>27.2</ele><time>2022-05-22T06:31:58.000Z</time></trkpt><trkpt lon="5.840771" lat="51.085478"><ele>27.2</ele><time>2022-05-22T06:31:59.000Z</time></trkpt><trkpt lon="5.840793" lat="51.085547"><ele>27.4</ele><time>2022-05-22T06:32:00.000Z</time></trkpt><trkpt lon="5.840814" lat="51.085612"><ele>27.2</ele><time>2022-05-22T06:32:01.000Z</time></trkpt><trkpt lon="5.840838" lat="51.08568"><ele>27.2</ele><time>2022-05-22T06:32:02.000Z</time></trkpt><trkpt lon="5.840858" lat="51.085748"><ele>27.2</ele><time>2022-05-22T06:32:03.000Z</time></trkpt><trkpt lon="5.840878" lat="51.085818"><ele>27.2</ele><time>2022-05-22T06:32:04.000Z</time></trkpt><trkpt lon="5.840898" lat="51.085881"><ele>27.2</ele><time>2022-05-22T06:32:05.000Z</time></trkpt><trkpt lon="5.840917" lat="51.085945"><ele>27</ele><time>2022-05-22T06:32:06.000Z</time></trkpt><trkpt lon="5.840936" lat="51.086012"><ele>27</ele><time>2022-05-22T06:32:07.000Z</time></trkpt><trkpt lon="5.840954" lat="51.086078"><ele>27.2</ele><time>2022-05-22T06:32:08.000Z</time></trkpt><trkpt lon="5.840973" lat="51.086146"><ele>27.2</ele><time>2022-05-22T06:32:09.000Z</time></trkpt><trkpt lon="5.840994" lat="51.086211"><ele>27.2</ele><time>2022-05-22T06:32:10.000Z</time></trkpt><trkpt lon="5.841013" lat="51.086276"><ele>27.2</ele><time>2022-05-22T06:32:11.000Z</time></trkpt><trkpt lon="5.841031" lat="51.086343"><ele>27.2</ele><time>2022-05-22T06:32:12.000Z</time></trkpt><trkpt lon="5.841053" lat="51.086412"><ele>27.2</ele><time>2022-05-22T06:32:13.000Z</time></trkpt><trkpt lon="5.841071" lat="51.086482"><ele>27</ele><time>2022-05-22T06:32:14.000Z</time></trkpt><trkpt lon="5.841091" lat="51.086546"><ele>27</ele><time>2022-05-22T06:32:15.000Z</time></trkpt><trkpt lon="5.841113" lat="51.086611"><ele>27</ele><time>2022-05-22T06:32:16.000Z</time></trkpt><trkpt lon="5.841135" lat="51.086676"><ele>27</ele><time>2022-05-22T06:32:17.000Z</time></trkpt><trkpt lon="5.841153" lat="51.086745"><ele>27</ele><time>2022-05-22T06:32:18.000Z</time></trkpt><trkpt lon="5.841173" lat="51.086813"><ele>26.8</ele><time>2022-05-22T06:32:19.000Z</time></trkpt><trkpt lon="5.841193" lat="51.086878"><ele>26.8</ele><time>2022-05-22T06:32:20.000Z</time></trkpt><trkpt lon="5.841212" lat="51.086944"><ele>26.8</ele><time>2022-05-22T06:32:21.000Z</time></trkpt><trkpt lon="5.841233" lat="51.087012"><ele>27</ele><time>2022-05-22T06:32:22.000Z</time></trkpt><trkpt lon="5.841255" lat="51.087081"><ele>27</ele><time>2022-05-22T06:32:23.000Z</time></trkpt><trkpt lon="5.841276" lat="51.087145"><ele>26.8</ele><time>2022-05-22T06:32:24.000Z</time></trkpt><trkpt lon="5.841295" lat="51.087206"><ele>26.8</ele><time>2022-05-22T06:32:25.000Z</time></trkpt><trkpt lon="5.841318" lat="51.087275"><ele>26.8</ele><time>2022-05-22T06:32:26.000Z</time></trkpt><trkpt lon="5.841341" lat="51.087343"><ele>26.8</ele><time>2022-05-22T06:32:27.000Z</time></trkpt><trkpt lon="5.841366" lat="51.087405"><ele>27</ele><time>2022-05-22T06:32:28.000Z</time></trkpt><trkpt lon="5.841393" lat="51.087466"><ele>27</ele><time>2022-05-22T06:32:29.000Z</time></trkpt><trkpt lon="5.841418" lat="51.087527"><ele>27</ele><time>2022-05-22T06:32:30.000Z</time></trkpt><trkpt lon="5.841448" lat="51.087592"><ele>27</ele><time>2022-05-22T06:32:31.000Z</time></trkpt><trkpt lon="5.841481" lat="51.087656"><ele>26.8</ele><time>2022-05-22T06:32:32.000Z</time></trkpt><trkpt lon="5.841516" lat="51.087718"><ele>26.8</ele><time>2022-05-22T06:32:33.000Z</time></trkpt><trkpt lon="5.841551" lat="51.087782"><ele>26.8</ele><time>2022-05-22T06:32:34.000Z</time></trkpt><trkpt lon="5.841586" lat="51.087844"><ele>26.8</ele><time>2022-05-22T06:32:35.000Z</time></trkpt><trkpt lon="5.841621" lat="51.087902"><ele>26.8</ele><time>2022-05-22T06:32:36.000Z</time></trkpt><trkpt lon="5.841661" lat="51.087969"><ele>27</ele><time>2022-05-22T06:32:37.000Z</time></trkpt><trkpt lon="5.841701" lat="51.088034"><ele>26.8</ele><time>2022-05-22T06:32:38.000Z</time></trkpt><trkpt lon="5.841743" lat="51.088099"><ele>26.6</ele><time>2022-05-22T06:32:39.000Z</time></trkpt><trkpt lon="5.841783" lat="51.08816"><ele>26.6</ele><time>2022-05-22T06:32:40.000Z</time></trkpt><trkpt lon="5.841824" lat="51.088225"><ele>26.6</ele><time>2022-05-22T06:32:41.000Z</time></trkpt><trkpt lon="5.841864" lat="51.08829"><ele>26.6</ele><time>2022-05-22T06:32:42.000Z</time></trkpt><trkpt lon="5.841904" lat="51.088355"><ele>26.4</ele><time>2022-05-22T06:32:43.000Z</time></trkpt><trkpt lon="5.841946" lat="51.088423"><ele>26.4</ele><time>2022-05-22T06:32:44.000Z</time></trkpt><trkpt lon="5.841986" lat="51.088488"><ele>26.4</ele><time>2022-05-22T06:32:45.000Z</time></trkpt><trkpt lon="5.842026" lat="51.088553"><ele>26.6</ele><time>2022-05-22T06:32:46.000Z</time></trkpt><trkpt lon="5.842064" lat="51.088617"><ele>26.6</ele><time>2022-05-22T06:32:47.000Z</time></trkpt><trkpt lon="5.842101" lat="51.088682"><ele>26.8</ele><time>2022-05-22T06:32:48.000Z</time></trkpt><trkpt lon="5.84214" lat="51.088748"><ele>26.8</ele><time>2022-05-22T06:32:49.000Z</time></trkpt><trkpt lon="5.842177" lat="51.08881"><ele>26.8</ele><time>2022-05-22T06:32:50.000Z</time></trkpt><trkpt lon="5.842221" lat="51.088874"><ele>26.8</ele><time>2022-05-22T06:32:51.000Z</time></trkpt><trkpt lon="5.842262" lat="51.088942"><ele>26.8</ele><time>2022-05-22T06:32:52.000Z</time></trkpt><trkpt lon="5.842303" lat="51.089006"><ele>26.8</ele><time>2022-05-22T06:32:53.000Z</time></trkpt><trkpt lon="5.842343" lat="51.08907"><ele>26.8</ele><time>2022-05-22T06:32:54.000Z</time></trkpt><trkpt lon="5.842383" lat="51.089136"><ele>26.8</ele><time>2022-05-22T06:32:55.000Z</time></trkpt><trkpt lon="5.842424" lat="51.089198"><ele>26.8</ele><time>2022-05-22T06:32:56.000Z</time></trkpt><trkpt lon="5.842463" lat="51.089263"><ele>26.8</ele><time>2022-05-22T06:32:57.000Z</time></trkpt><trkpt lon="5.842505" lat="51.089326"><ele>26.6</ele><time>2022-05-22T06:32:58.000Z</time></trkpt><trkpt lon="5.842544" lat="51.089388"><ele>26.6</ele><time>2022-05-22T06:32:59.000Z</time></trkpt><trkpt lon="5.842581" lat="51.089457"><ele>26.6</ele><time>2022-05-22T06:33:00.000Z</time></trkpt><trkpt lon="5.84262" lat="51.089516"><ele>26.6</ele><time>2022-05-22T06:33:01.000Z</time></trkpt><trkpt lon="5.842659" lat="51.089583"><ele>26.8</ele><time>2022-05-22T06:33:02.000Z</time></trkpt><trkpt lon="5.842699" lat="51.089648"><ele>26.8</ele><time>2022-05-22T06:33:03.000Z</time></trkpt><trkpt lon="5.842739" lat="51.089712"><ele>26.8</ele><time>2022-05-22T06:33:04.000Z</time></trkpt><trkpt lon="5.842778" lat="51.089771"><ele>26.8</ele><time>2022-05-22T06:33:05.000Z</time></trkpt><trkpt lon="5.842818" lat="51.089839"><ele>27</ele><time>2022-05-22T06:33:06.000Z</time></trkpt><trkpt lon="5.842859" lat="51.0899"><ele>26.8</ele><time>2022-05-22T06:33:07.000Z</time></trkpt><trkpt lon="5.842895" lat="51.089959"><ele>26.6</ele><time>2022-05-22T06:33:08.000Z</time></trkpt><trkpt lon="5.842932" lat="51.090026"><ele>26.6</ele><time>2022-05-22T06:33:09.000Z</time></trkpt><trkpt lon="5.842969" lat="51.09009"><ele>26.8</ele><time>2022-05-22T06:33:10.000Z</time></trkpt><trkpt lon="5.843006" lat="51.090155"><ele>26.6</ele><time>2022-05-22T06:33:11.000Z</time></trkpt><trkpt lon="5.843045" lat="51.09022"><ele>26.6</ele><time>2022-05-22T06:33:12.000Z</time></trkpt><trkpt lon="5.843082" lat="51.090279"><ele>26.6</ele><time>2022-05-22T06:33:13.000Z</time></trkpt><trkpt lon="5.843125" lat="51.090345"><ele>26.6</ele><time>2022-05-22T06:33:14.000Z</time></trkpt><trkpt lon="5.843164" lat="51.090407"><ele>26.6</ele><time>2022-05-22T06:33:15.000Z</time></trkpt><trkpt lon="5.843201" lat="51.090472"><ele>26.6</ele><time>2022-05-22T06:33:16.000Z</time></trkpt><trkpt lon="5.843238" lat="51.090531"><ele>26.6</ele><time>2022-05-22T06:33:17.000Z</time></trkpt><trkpt lon="5.843277" lat="51.090594"><ele>26.8</ele><time>2022-05-22T06:33:18.000Z</time></trkpt><trkpt lon="5.843314" lat="51.090659"><ele>27</ele><time>2022-05-22T06:33:19.000Z</time></trkpt><trkpt lon="5.843351" lat="51.090716"><ele>27</ele><time>2022-05-22T06:33:20.000Z</time></trkpt><trkpt lon="5.843384" lat="51.090777"><ele>27</ele><time>2022-05-22T06:33:21.000Z</time></trkpt><trkpt lon="5.843421" lat="51.090838"><ele>27</ele><time>2022-05-22T06:33:22.000Z</time></trkpt><trkpt lon="5.843456" lat="51.090895"><ele>27</ele><time>2022-05-22T06:33:23.000Z</time></trkpt><trkpt lon="5.843493" lat="51.09096"><ele>27</ele><time>2022-05-22T06:33:24.000Z</time></trkpt><trkpt lon="5.843529" lat="51.091021"><ele>27</ele><time>2022-05-22T06:33:25.000Z</time></trkpt><trkpt lon="5.843565" lat="51.09108"><ele>27</ele><time>2022-05-22T06:33:26.000Z</time></trkpt><trkpt lon="5.843602" lat="51.091147"><ele>27</ele><time>2022-05-22T06:33:27.000Z</time></trkpt><trkpt lon="5.843641" lat="51.091212"><ele>27</ele><time>2022-05-22T06:33:28.000Z</time></trkpt><trkpt lon="5.843681" lat="51.091277"><ele>27</ele><time>2022-05-22T06:33:29.000Z</time></trkpt><trkpt lon="5.843716" lat="51.091338"><ele>27.2</ele><time>2022-05-22T06:33:30.000Z</time></trkpt><trkpt lon="5.843753" lat="51.091403"><ele>27.2</ele><time>2022-05-22T06:33:31.000Z</time></trkpt><trkpt lon="5.843789" lat="51.091463"><ele>27.2</ele><time>2022-05-22T06:33:32.000Z</time></trkpt><trkpt lon="5.843824" lat="51.091527"><ele>27.2</ele><time>2022-05-22T06:33:33.000Z</time></trkpt><trkpt lon="5.843861" lat="51.091593"><ele>27.2</ele><time>2022-05-22T06:33:34.000Z</time></trkpt><trkpt lon="5.843899" lat="51.091657"><ele>27.2</ele><time>2022-05-22T06:33:35.000Z</time></trkpt><trkpt lon="5.843937" lat="51.091719"><ele>27.2</ele><time>2022-05-22T06:33:36.000Z</time></trkpt><trkpt lon="5.843982" lat="51.091783"><ele>27.2</ele><time>2022-05-22T06:33:37.000Z</time></trkpt><trkpt lon="5.844021" lat="51.091849"><ele>27</ele><time>2022-05-22T06:33:38.000Z</time></trkpt><trkpt lon="5.844057" lat="51.091913"><ele>27</ele><time>2022-05-22T06:33:39.000Z</time></trkpt><trkpt lon="5.844096" lat="51.091975"><ele>27</ele><time>2022-05-22T06:33:40.000Z</time></trkpt><trkpt lon="5.844132" lat="51.092039"><ele>27</ele><time>2022-05-22T06:33:41.000Z</time></trkpt><trkpt lon="5.844173" lat="51.092101"><ele>27</ele><time>2022-05-22T06:33:42.000Z</time></trkpt><trkpt lon="5.844209" lat="51.092162"><ele>27</ele><time>2022-05-22T06:33:43.000Z</time></trkpt><trkpt lon="5.844245" lat="51.092226"><ele>27</ele><time>2022-05-22T06:33:44.000Z</time></trkpt><trkpt lon="5.844285" lat="51.092294"><ele>27</ele><time>2022-05-22T06:33:45.000Z</time></trkpt><trkpt lon="5.844321" lat="51.09236"><ele>27</ele><time>2022-05-22T06:33:46.000Z</time></trkpt><trkpt lon="5.844355" lat="51.09242"><ele>27</ele><time>2022-05-22T06:33:47.000Z</time></trkpt><trkpt lon="5.844392" lat="51.092486"><ele>27</ele><time>2022-05-22T06:33:48.000Z</time></trkpt><trkpt lon="5.844424" lat="51.092551"><ele>27</ele><time>2022-05-22T06:33:49.000Z</time></trkpt><trkpt lon="5.844448" lat="51.092619"><ele>26.8</ele><time>2022-05-22T06:33:50.000Z</time></trkpt><trkpt lon="5.844466" lat="51.092687"><ele>26.8</ele><time>2022-05-22T06:33:51.000Z</time></trkpt><trkpt lon="5.844481" lat="51.092752"><ele>27</ele><time>2022-05-22T06:33:52.000Z</time></trkpt><trkpt lon="5.844491" lat="51.092817"><ele>27</ele><time>2022-05-22T06:33:53.000Z</time></trkpt><trkpt lon="5.844495" lat="51.092889"><ele>27</ele><time>2022-05-22T06:33:54.000Z</time></trkpt><trkpt lon="5.844498" lat="51.092955"><ele>26.8</ele><time>2022-05-22T06:33:55.000Z</time></trkpt><trkpt lon="5.844501" lat="51.093027"><ele>26.8</ele><time>2022-05-22T06:33:56.000Z</time></trkpt><trkpt lon="5.8445" lat="51.093096"><ele>26.8</ele><time>2022-05-22T06:33:57.000Z</time></trkpt><trkpt lon="5.844505" lat="51.093168"><ele>26.6</ele><time>2022-05-22T06:33:58.000Z</time></trkpt><trkpt lon="5.844517" lat="51.093237"><ele>26.6</ele><time>2022-05-22T06:33:59.000Z</time></trkpt><trkpt lon="5.84454" lat="51.093306"><ele>26.6</ele><time>2022-05-22T06:34:00.000Z</time></trkpt><trkpt lon="5.844569" lat="51.093373"><ele>26.6</ele><time>2022-05-22T06:34:01.000Z</time></trkpt><trkpt lon="5.844607" lat="51.093439"><ele>26.4</ele><time>2022-05-22T06:34:02.000Z</time></trkpt><trkpt lon="5.844651" lat="51.093504"><ele>26.4</ele><time>2022-05-22T06:34:03.000Z</time></trkpt><trkpt lon="5.844692" lat="51.093561"><ele>26.4</ele><time>2022-05-22T06:34:04.000Z</time></trkpt><trkpt lon="5.844738" lat="51.093626"><ele>26.4</ele><time>2022-05-22T06:34:05.000Z</time></trkpt><trkpt lon="5.844776" lat="51.093695"><ele>26.4</ele><time>2022-05-22T06:34:06.000Z</time></trkpt><trkpt lon="5.844806" lat="51.093767"><ele>26.2</ele><time>2022-05-22T06:34:07.000Z</time></trkpt><trkpt lon="5.844824" lat="51.09384"><ele>26.2</ele><time>2022-05-22T06:34:08.000Z</time></trkpt><trkpt lon="5.844834" lat="51.093907"><ele>26</ele><time>2022-05-22T06:34:09.000Z</time></trkpt><trkpt lon="5.84484" lat="51.093977"><ele>26</ele><time>2022-05-22T06:34:10.000Z</time></trkpt><trkpt lon="5.844834" lat="51.094048"><ele>26</ele><time>2022-05-22T06:34:11.000Z</time></trkpt><trkpt lon="5.844814" lat="51.09411"><ele>26</ele><time>2022-05-22T06:34:12.000Z</time></trkpt><trkpt lon="5.844786" lat="51.094171"><ele>25.8</ele><time>2022-05-22T06:34:13.000Z</time></trkpt><trkpt lon="5.844753" lat="51.094225"><ele>25.8</ele><time>2022-05-22T06:34:14.000Z</time></trkpt><trkpt lon="5.844721" lat="51.094274"><ele>25.8</ele><time>2022-05-22T06:34:15.000Z</time></trkpt><trkpt lon="5.844691" lat="51.094321"><ele>25.8</ele><time>2022-05-22T06:34:16.000Z</time></trkpt><trkpt lon="5.844662" lat="51.094356"><ele>25.8</ele><time>2022-05-22T06:34:17.000Z</time></trkpt><trkpt lon="5.844636" lat="51.094386"><ele>25.8</ele><time>2022-05-22T06:34:18.000Z</time></trkpt><trkpt lon="5.844614" lat="51.094409"><ele>25.8</ele><time>2022-05-22T06:34:19.000Z</time></trkpt><trkpt lon="5.844595" lat="51.094432"><ele>25.8</ele><time>2022-05-22T06:34:20.000Z</time></trkpt><trkpt lon="5.844574" lat="51.094453"><ele>25.8</ele><time>2022-05-22T06:34:21.000Z</time></trkpt><trkpt lon="5.844548" lat="51.094478"><ele>25.8</ele><time>2022-05-22T06:34:22.000Z</time></trkpt><trkpt lon="5.844521" lat="51.094512"><ele>25.8</ele><time>2022-05-22T06:34:23.000Z</time></trkpt><trkpt lon="5.844497" lat="51.09455"><ele>25.8</ele><time>2022-05-22T06:34:24.000Z</time></trkpt><trkpt lon="5.844471" lat="51.094596"><ele>25.6</ele><time>2022-05-22T06:34:25.000Z</time></trkpt><trkpt lon="5.844431" lat="51.094653"><ele>25.6</ele><time>2022-05-22T06:34:26.000Z</time></trkpt><trkpt lon="5.844385" lat="51.09471"><ele>25.6</ele><time>2022-05-22T06:34:27.000Z</time></trkpt><trkpt lon="5.844338" lat="51.094767"><ele>25.6</ele><time>2022-05-22T06:34:28.000Z</time></trkpt><trkpt lon="5.844287" lat="51.094827"><ele>25.4</ele><time>2022-05-22T06:34:29.000Z</time></trkpt><trkpt lon="5.844233" lat="51.094888"><ele>25.4</ele><time>2022-05-22T06:34:30.000Z</time></trkpt><trkpt lon="5.844176" lat="51.094949"><ele>25.4</ele><time>2022-05-22T06:34:31.000Z</time></trkpt><trkpt lon="5.844113" lat="51.095008"><ele>25.4</ele><time>2022-05-22T06:34:32.000Z</time></trkpt><trkpt lon="5.844051" lat="51.095068"><ele>25.4</ele><time>2022-05-22T06:34:33.000Z</time></trkpt><trkpt lon="5.843988" lat="51.095123"><ele>25.4</ele><time>2022-05-22T06:34:34.000Z</time></trkpt><trkpt lon="5.843931" lat="51.095171"><ele>25.6</ele><time>2022-05-22T06:34:35.000Z</time></trkpt><trkpt lon="5.843869" lat="51.095223"><ele>25.6</ele><time>2022-05-22T06:34:36.000Z</time></trkpt><trkpt lon="5.84381" lat="51.095277"><ele>25.6</ele><time>2022-05-22T06:34:37.000Z</time></trkpt><trkpt lon="5.843753" lat="51.095332"><ele>25.6</ele><time>2022-05-22T06:34:38.000Z</time></trkpt><trkpt lon="5.843707" lat="51.095381"><ele>25.6</ele><time>2022-05-22T06:34:39.000Z</time></trkpt><trkpt lon="5.843672" lat="51.095435"><ele>25.4</ele><time>2022-05-22T06:34:40.000Z</time></trkpt><trkpt lon="5.843657" lat="51.095484"><ele>25.4</ele><time>2022-05-22T06:34:41.000Z</time></trkpt><trkpt lon="5.843679" lat="51.095525"><ele>25.4</ele><time>2022-05-22T06:34:42.000Z</time></trkpt><trkpt lon="5.843737" lat="51.095565"><ele>25.4</ele><time>2022-05-22T06:34:43.000Z</time></trkpt><trkpt lon="5.843815" lat="51.095607"><ele>25.4</ele><time>2022-05-22T06:34:44.000Z</time></trkpt><trkpt lon="5.843893" lat="51.095648"><ele>25.4</ele><time>2022-05-22T06:34:45.000Z</time></trkpt><trkpt lon="5.843979" lat="51.095687"><ele>25.4</ele><time>2022-05-22T06:34:46.000Z</time></trkpt><trkpt lon="5.844065" lat="51.095721"><ele>25.4</ele><time>2022-05-22T06:34:47.000Z</time></trkpt><trkpt lon="5.844146" lat="51.095752"><ele>25.4</ele><time>2022-05-22T06:34:48.000Z</time></trkpt><trkpt lon="5.844225" lat="51.095783"><ele>25.6</ele><time>2022-05-22T06:34:49.000Z</time></trkpt><trkpt lon="5.844305" lat="51.095813"><ele>25.8</ele><time>2022-05-22T06:34:50.000Z</time></trkpt><trkpt lon="5.84438" lat="51.095844"><ele>25.8</ele><time>2022-05-22T06:34:51.000Z</time></trkpt><trkpt lon="5.844459" lat="51.095878"><ele>26</ele><time>2022-05-22T06:34:52.000Z</time></trkpt><trkpt lon="5.84452" lat="51.095908"><ele>26.2</ele><time>2022-05-22T06:34:53.000Z</time></trkpt><trkpt lon="5.844604" lat="51.095953"><ele>26.2</ele><time>2022-05-22T06:34:54.000Z</time></trkpt><trkpt lon="5.844672" lat="51.095999"><ele>26.4</ele><time>2022-05-22T06:34:55.000Z</time></trkpt><trkpt lon="5.844738" lat="51.096049"><ele>26.6</ele><time>2022-05-22T06:34:56.000Z</time></trkpt><trkpt lon="5.844796" lat="51.096107"><ele>26.6</ele><time>2022-05-22T06:34:57.000Z</time></trkpt><trkpt lon="5.844844" lat="51.096167"><ele>26.6</ele><time>2022-05-22T06:34:58.000Z</time></trkpt><trkpt lon="5.844887" lat="51.096231"><ele>26.6</ele><time>2022-05-22T06:34:59.000Z</time></trkpt><trkpt lon="5.844932" lat="51.096297"><ele>26.6</ele><time>2022-05-22T06:35:00.000Z</time></trkpt><trkpt lon="5.844978" lat="51.096355"><ele>26.6</ele><time>2022-05-22T06:35:01.000Z</time></trkpt><trkpt lon="5.845035" lat="51.096419"><ele>26.8</ele><time>2022-05-22T06:35:02.000Z</time></trkpt><trkpt lon="5.8451" lat="51.096479"><ele>27</ele><time>2022-05-22T06:35:03.000Z</time></trkpt><trkpt lon="5.845176" lat="51.096533"><ele>27</ele><time>2022-05-22T06:35:04.000Z</time></trkpt><trkpt lon="5.845256" lat="51.096581"><ele>27</ele><time>2022-05-22T06:35:05.000Z</time></trkpt><trkpt lon="5.845342" lat="51.096623"><ele>27.2</ele><time>2022-05-22T06:35:06.000Z</time></trkpt><trkpt lon="5.845437" lat="51.096659"><ele>27.2</ele><time>2022-05-22T06:35:07.000Z</time></trkpt><trkpt lon="5.845533" lat="51.096691"><ele>27.4</ele><time>2022-05-22T06:35:08.000Z</time></trkpt><trkpt lon="5.845631" lat="51.096717"><ele>27.4</ele><time>2022-05-22T06:35:09.000Z</time></trkpt><trkpt lon="5.845731" lat="51.096744"><ele>27.4</ele><time>2022-05-22T06:35:10.000Z</time></trkpt><trkpt lon="5.845835" lat="51.096771"><ele>27.4</ele><time>2022-05-22T06:35:11.000Z</time></trkpt><trkpt lon="5.845937" lat="51.096797"><ele>27.2</ele><time>2022-05-22T06:35:12.000Z</time></trkpt><trkpt lon="5.846034" lat="51.096828"><ele>27.2</ele><time>2022-05-22T06:35:13.000Z</time></trkpt><trkpt lon="5.84613" lat="51.096858"><ele>27.2</ele><time>2022-05-22T06:35:14.000Z</time></trkpt><trkpt lon="5.846226" lat="51.096881"><ele>27</ele><time>2022-05-22T06:35:15.000Z</time></trkpt><trkpt lon="5.84633" lat="51.096904"><ele>27</ele><time>2022-05-22T06:35:16.000Z</time></trkpt><trkpt lon="5.846436" lat="51.096916"><ele>26.8</ele><time>2022-05-22T06:35:17.000Z</time></trkpt><trkpt lon="5.846545" lat="51.09692"><ele>26.8</ele><time>2022-05-22T06:35:18.000Z</time></trkpt><trkpt lon="5.846655" lat="51.09692"><ele>26.8</ele><time>2022-05-22T06:35:19.000Z</time></trkpt><trkpt lon="5.846758" lat="51.096916"><ele>26.8</ele><time>2022-05-22T06:35:20.000Z</time></trkpt><trkpt lon="5.84686" lat="51.096913"><ele>27</ele><time>2022-05-22T06:35:21.000Z</time></trkpt><trkpt lon="5.846969" lat="51.096905"><ele>27</ele><time>2022-05-22T06:35:22.000Z</time></trkpt><trkpt lon="5.847079" lat="51.096894"><ele>27</ele><time>2022-05-22T06:35:23.000Z</time></trkpt><trkpt lon="5.847195" lat="51.096882"><ele>27.2</ele><time>2022-05-22T06:35:24.000Z</time></trkpt><trkpt lon="5.8473" lat="51.096864"><ele>27.2</ele><time>2022-05-22T06:35:25.000Z</time></trkpt><trkpt lon="5.84741" lat="51.096844"><ele>27.2</ele><time>2022-05-22T06:35:26.000Z</time></trkpt><trkpt lon="5.847515" lat="51.096829"><ele>27.4</ele><time>2022-05-22T06:35:27.000Z</time></trkpt><trkpt lon="5.847619" lat="51.09681"><ele>27.4</ele><time>2022-05-22T06:35:28.000Z</time></trkpt><trkpt lon="5.847729" lat="51.096794"><ele>27.4</ele><time>2022-05-22T06:35:29.000Z</time></trkpt><trkpt lon="5.847828" lat="51.096779"><ele>27.6</ele><time>2022-05-22T06:35:30.000Z</time></trkpt><trkpt lon="5.84792" lat="51.096768"><ele>27.6</ele><time>2022-05-22T06:35:31.000Z</time></trkpt><trkpt lon="5.848013" lat="51.09676"><ele>27.6</ele><time>2022-05-22T06:35:32.000Z</time></trkpt><trkpt lon="5.848103" lat="51.096749"><ele>27.6</ele><time>2022-05-22T06:35:33.000Z</time></trkpt><trkpt lon="5.848201" lat="51.096733"><ele>27.6</ele><time>2022-05-22T06:35:34.000Z</time></trkpt><trkpt lon="5.848287" lat="51.09672"><ele>27.6</ele><time>2022-05-22T06:35:35.000Z</time></trkpt><trkpt lon="5.848385" lat="51.0967"><ele>27.8</ele><time>2022-05-22T06:35:36.000Z</time></trkpt><trkpt lon="5.848472" lat="51.09668"><ele>27.8</ele><time>2022-05-22T06:35:37.000Z</time></trkpt><trkpt lon="5.848554" lat="51.096657"><ele>27.8</ele><time>2022-05-22T06:35:38.000Z</time></trkpt><trkpt lon="5.848645" lat="51.096631"><ele>27.8</ele><time>2022-05-22T06:35:39.000Z</time></trkpt><trkpt lon="5.848737" lat="51.096608"><ele>27.8</ele><time>2022-05-22T06:35:40.000Z</time></trkpt><trkpt lon="5.848828" lat="51.096581"><ele>28</ele><time>2022-05-22T06:35:41.000Z</time></trkpt><trkpt lon="5.848933" lat="51.096562"><ele>28</ele><time>2022-05-22T06:35:42.000Z</time></trkpt><trkpt lon="5.849039" lat="51.096547"><ele>28</ele><time>2022-05-22T06:35:43.000Z</time></trkpt><trkpt lon="5.849148" lat="51.096535"><ele>28.2</ele><time>2022-05-22T06:35:44.000Z</time></trkpt><trkpt lon="5.849269" lat="51.096527"><ele>28</ele><time>2022-05-22T06:35:45.000Z</time></trkpt><trkpt lon="5.849384" lat="51.096523"><ele>28</ele><time>2022-05-22T06:35:46.000Z</time></trkpt><trkpt lon="5.849498" lat="51.096523"><ele>28</ele><time>2022-05-22T06:35:47.000Z</time></trkpt><trkpt lon="5.84962" lat="51.09652"><ele>28</ele><time>2022-05-22T06:35:48.000Z</time></trkpt><trkpt lon="5.849738" lat="51.096523"><ele>28</ele><time>2022-05-22T06:35:49.000Z</time></trkpt><trkpt lon="5.849857" lat="51.096523"><ele>28</ele><time>2022-05-22T06:35:50.000Z</time></trkpt><trkpt lon="5.849972" lat="51.096523"><ele>28</ele><time>2022-05-22T06:35:51.000Z</time></trkpt><trkpt lon="5.850081" lat="51.096531"><ele>28</ele><time>2022-05-22T06:35:52.000Z</time></trkpt><trkpt lon="5.85017" lat="51.096534"><ele>28</ele><time>2022-05-22T06:35:53.000Z</time></trkpt><trkpt lon="5.850297" lat="51.096538"><ele>28</ele><time>2022-05-22T06:35:54.000Z</time></trkpt><trkpt lon="5.85041" lat="51.096542"><ele>28</ele><time>2022-05-22T06:35:55.000Z</time></trkpt><trkpt lon="5.850522" lat="51.09655"><ele>28</ele><time>2022-05-22T06:35:56.000Z</time></trkpt><trkpt lon="5.850635" lat="51.096554"><ele>28</ele><time>2022-05-22T06:35:57.000Z</time></trkpt><trkpt lon="5.850748" lat="51.096561"><ele>28</ele><time>2022-05-22T06:35:58.000Z</time></trkpt><trkpt lon="5.850857" lat="51.096565"><ele>28</ele><time>2022-05-22T06:35:59.000Z</time></trkpt><trkpt lon="5.850967" lat="51.096573"><ele>28</ele><time>2022-05-22T06:36:00.000Z</time></trkpt><trkpt lon="5.851077" lat="51.09658"><ele>28</ele><time>2022-05-22T06:36:01.000Z</time></trkpt><trkpt lon="5.851183" lat="51.096591"><ele>28</ele><time>2022-05-22T06:36:02.000Z</time></trkpt><trkpt lon="5.851292" lat="51.096603"><ele>28</ele><time>2022-05-22T06:36:03.000Z</time></trkpt><trkpt lon="5.851396" lat="51.096618"><ele>28</ele><time>2022-05-22T06:36:04.000Z</time></trkpt><trkpt lon="5.851511" lat="51.096634"><ele>28</ele><time>2022-05-22T06:36:05.000Z</time></trkpt><trkpt lon="5.851612" lat="51.096655"><ele>27.8</ele><time>2022-05-22T06:36:06.000Z</time></trkpt><trkpt lon="5.851723" lat="51.096683"><ele>27.8</ele><time>2022-05-22T06:36:07.000Z</time></trkpt><trkpt lon="5.851823" lat="51.096709"><ele>27.8</ele><time>2022-05-22T06:36:08.000Z</time></trkpt><trkpt lon="5.851922" lat="51.096736"><ele>27.8</ele><time>2022-05-22T06:36:09.000Z</time></trkpt><trkpt lon="5.852022" lat="51.096766"><ele>27.6</ele><time>2022-05-22T06:36:10.000Z</time></trkpt><trkpt lon="5.852121" lat="51.096797"><ele>27.6</ele><time>2022-05-22T06:36:11.000Z</time></trkpt><trkpt lon="5.852219" lat="51.096829"><ele>27.6</ele><time>2022-05-22T06:36:12.000Z</time></trkpt><trkpt lon="5.852315" lat="51.096862"><ele>27.6</ele><time>2022-05-22T06:36:13.000Z</time></trkpt><trkpt lon="5.852412" lat="51.096897"><ele>27.4</ele><time>2022-05-22T06:36:14.000Z</time></trkpt><trkpt lon="5.852509" lat="51.096926"><ele>27.4</ele><time>2022-05-22T06:36:15.000Z</time></trkpt><trkpt lon="5.852595" lat="51.096955"><ele>27.4</ele><time>2022-05-22T06:36:16.000Z</time></trkpt><trkpt lon="5.852698" lat="51.096988"><ele>27.4</ele><time>2022-05-22T06:36:17.000Z</time></trkpt><trkpt lon="5.852797" lat="51.097018"><ele>27.4</ele><time>2022-05-22T06:36:18.000Z</time></trkpt><trkpt lon="5.852894" lat="51.097049"><ele>27.4</ele><time>2022-05-22T06:36:19.000Z</time></trkpt><trkpt lon="5.852991" lat="51.097079"><ele>27.4</ele><time>2022-05-22T06:36:20.000Z</time></trkpt><trkpt lon="5.853094" lat="51.097114"><ele>27.4</ele><time>2022-05-22T06:36:21.000Z</time></trkpt><trkpt lon="5.853194" lat="51.097145"><ele>27.4</ele><time>2022-05-22T06:36:22.000Z</time></trkpt><trkpt lon="5.853285" lat="51.097175"><ele>27.4</ele><time>2022-05-22T06:36:23.000Z</time></trkpt><trkpt lon="5.85338" lat="51.097205"><ele>27.4</ele><time>2022-05-22T06:36:24.000Z</time></trkpt><trkpt lon="5.853471" lat="51.097234"><ele>27.4</ele><time>2022-05-22T06:36:25.000Z</time></trkpt><trkpt lon="5.85357" lat="51.09727"><ele>27.4</ele><time>2022-05-22T06:36:26.000Z</time></trkpt><trkpt lon="5.853661" lat="51.0973"><ele>27.6</ele><time>2022-05-22T06:36:27.000Z</time></trkpt><trkpt lon="5.853756" lat="51.097331"><ele>27.6</ele><time>2022-05-22T06:36:28.000Z</time></trkpt><trkpt lon="5.853848" lat="51.097361"><ele>27.6</ele><time>2022-05-22T06:36:29.000Z</time></trkpt><trkpt lon="5.853946" lat="51.097396"><ele>27.8</ele><time>2022-05-22T06:36:30.000Z</time></trkpt><trkpt lon="5.854044" lat="51.09743"><ele>27.8</ele><time>2022-05-22T06:36:31.000Z</time></trkpt><trkpt lon="5.854143" lat="51.097461"><ele>27.8</ele><time>2022-05-22T06:36:32.000Z</time></trkpt><trkpt lon="5.854239" lat="51.097491"><ele>27.8</ele><time>2022-05-22T06:36:33.000Z</time></trkpt><trkpt lon="5.854339" lat="51.097521"><ele>27.8</ele><time>2022-05-22T06:36:34.000Z</time></trkpt><trkpt lon="5.854444" lat="51.097548"><ele>27.8</ele><time>2022-05-22T06:36:35.000Z</time></trkpt><trkpt lon="5.854554" lat="51.097574"><ele>27.8</ele><time>2022-05-22T06:36:36.000Z</time></trkpt><trkpt lon="5.854669" lat="51.097599"><ele>27.8</ele><time>2022-05-22T06:36:37.000Z</time></trkpt><trkpt lon="5.854773" lat="51.097617"><ele>27.8</ele><time>2022-05-22T06:36:38.000Z</time></trkpt><trkpt lon="5.854884" lat="51.09764"><ele>27.8</ele><time>2022-05-22T06:36:39.000Z</time></trkpt><trkpt lon="5.854995" lat="51.097663"><ele>27.6</ele><time>2022-05-22T06:36:40.000Z</time></trkpt><trkpt lon="5.855105" lat="51.097686"><ele>27.6</ele><time>2022-05-22T06:36:41.000Z</time></trkpt><trkpt lon="5.855217" lat="51.097713"><ele>27.4</ele><time>2022-05-22T06:36:42.000Z</time></trkpt><trkpt lon="5.855326" lat="51.097732"><ele>27.4</ele><time>2022-05-22T06:36:43.000Z</time></trkpt><trkpt lon="5.855432" lat="51.097751"><ele>27.4</ele><time>2022-05-22T06:36:44.000Z</time></trkpt><trkpt lon="5.855537" lat="51.09777"><ele>27.4</ele><time>2022-05-22T06:36:45.000Z</time></trkpt><trkpt lon="5.855651" lat="51.097789"><ele>27.4</ele><time>2022-05-22T06:36:46.000Z</time></trkpt><trkpt lon="5.855763" lat="51.097801"><ele>27.4</ele><time>2022-05-22T06:36:47.000Z</time></trkpt><trkpt lon="5.855876" lat="51.097809"><ele>27.4</ele><time>2022-05-22T06:36:48.000Z</time></trkpt><trkpt lon="5.855989" lat="51.097816"><ele>27.4</ele><time>2022-05-22T06:36:49.000Z</time></trkpt><trkpt lon="5.856105" lat="51.097816"><ele>27.4</ele><time>2022-05-22T06:36:50.000Z</time></trkpt><trkpt lon="5.856216" lat="51.09782"><ele>27.2</ele><time>2022-05-22T06:36:51.000Z</time></trkpt><trkpt lon="5.856327" lat="51.097824"><ele>27.2</ele><time>2022-05-22T06:36:52.000Z</time></trkpt><trkpt lon="5.856416" lat="51.097824"><ele>27.2</ele><time>2022-05-22T06:36:53.000Z</time></trkpt><trkpt lon="5.856546" lat="51.097824"><ele>27.2</ele><time>2022-05-22T06:36:54.000Z</time></trkpt><trkpt lon="5.856659" lat="51.097824"><ele>27.2</ele><time>2022-05-22T06:36:55.000Z</time></trkpt><trkpt lon="5.856772" lat="51.097824"><ele>27.2</ele><time>2022-05-22T06:36:56.000Z</time></trkpt><trkpt lon="5.856878" lat="51.097824"><ele>27.2</ele><time>2022-05-22T06:36:57.000Z</time></trkpt><trkpt lon="5.856991" lat="51.097828"><ele>27.2</ele><time>2022-05-22T06:36:58.000Z</time></trkpt><trkpt lon="5.85709" lat="51.097828"><ele>27.2</ele><time>2022-05-22T06:36:59.000Z</time></trkpt><trkpt lon="5.857194" lat="51.097828"><ele>27.2</ele><time>2022-05-22T06:37:00.000Z</time></trkpt><trkpt lon="5.857314" lat="51.097828"><ele>27.2</ele><time>2022-05-22T06:37:01.000Z</time></trkpt><trkpt lon="5.857428" lat="51.097828"><ele>27.2</ele><time>2022-05-22T06:37:02.000Z</time></trkpt><trkpt lon="5.857544" lat="51.097832"><ele>27.2</ele><time>2022-05-22T06:37:03.000Z</time></trkpt><trkpt lon="5.857656" lat="51.097832"><ele>27.2</ele><time>2022-05-22T06:37:04.000Z</time></trkpt><trkpt lon="5.857758" lat="51.097828"><ele>27.2</ele><time>2022-05-22T06:37:05.000Z</time></trkpt><trkpt lon="5.857877" lat="51.097828"><ele>27.4</ele><time>2022-05-22T06:37:06.000Z</time></trkpt><trkpt lon="5.857987" lat="51.097828"><ele>27.4</ele><time>2022-05-22T06:37:07.000Z</time></trkpt><trkpt lon="5.858095" lat="51.097828"><ele>27.2</ele><time>2022-05-22T06:37:08.000Z</time></trkpt><trkpt lon="5.858206" lat="51.097828"><ele>27.2</ele><time>2022-05-22T06:37:09.000Z</time></trkpt><trkpt lon="5.858316" lat="51.097832"><ele>27.2</ele><time>2022-05-22T06:37:10.000Z</time></trkpt><trkpt lon="5.858428" lat="51.097839"><ele>27.2</ele><time>2022-05-22T06:37:11.000Z</time></trkpt><trkpt lon="5.858538" lat="51.09785"><ele>27.2</ele><time>2022-05-22T06:37:12.000Z</time></trkpt><trkpt lon="5.858649" lat="51.097866"><ele>27.2</ele><time>2022-05-22T06:37:13.000Z</time></trkpt><trkpt lon="5.858756" lat="51.097885"><ele>27</ele><time>2022-05-22T06:37:14.000Z</time></trkpt><trkpt lon="5.858862" lat="51.097904"><ele>27</ele><time>2022-05-22T06:37:15.000Z</time></trkpt><trkpt lon="5.858968" lat="51.097927"><ele>27</ele><time>2022-05-22T06:37:16.000Z</time></trkpt><trkpt lon="5.859071" lat="51.09795"><ele>27</ele><time>2022-05-22T06:37:17.000Z</time></trkpt><trkpt lon="5.859172" lat="51.097976"><ele>27</ele><time>2022-05-22T06:37:18.000Z</time></trkpt><trkpt lon="5.859271" lat="51.097999"><ele>27.2</ele><time>2022-05-22T06:37:19.000Z</time></trkpt><trkpt lon="5.859367" lat="51.098025"><ele>27.2</ele><time>2022-05-22T06:37:20.000Z</time></trkpt><trkpt lon="5.859466" lat="51.098056"><ele>27.2</ele><time>2022-05-22T06:37:21.000Z</time></trkpt><trkpt lon="5.85956" lat="51.098089"><ele>27</ele><time>2022-05-22T06:37:22.000Z</time></trkpt><trkpt lon="5.85966" lat="51.09812"><ele>27</ele><time>2022-05-22T06:37:23.000Z</time></trkpt><trkpt lon="5.859758" lat="51.098155"><ele>27</ele><time>2022-05-22T06:37:24.000Z</time></trkpt><trkpt lon="5.859851" lat="51.098185"><ele>27</ele><time>2022-05-22T06:37:25.000Z</time></trkpt><trkpt lon="5.859946" lat="51.098216"><ele>27</ele><time>2022-05-22T06:37:26.000Z</time></trkpt><trkpt lon="5.860037" lat="51.098247"><ele>27</ele><time>2022-05-22T06:37:27.000Z</time></trkpt><trkpt lon="5.860126" lat="51.098273"><ele>27</ele><time>2022-05-22T06:37:28.000Z</time></trkpt><trkpt lon="5.860223" lat="51.098304"><ele>26.8</ele><time>2022-05-22T06:37:29.000Z</time></trkpt><trkpt lon="5.860318" lat="51.098331"><ele>27</ele><time>2022-05-22T06:37:30.000Z</time></trkpt><trkpt lon="5.86041" lat="51.098357"><ele>27</ele><time>2022-05-22T06:37:31.000Z</time></trkpt><trkpt lon="5.860503" lat="51.098388"><ele>27</ele><time>2022-05-22T06:37:32.000Z</time></trkpt><trkpt lon="5.860597" lat="51.098418"><ele>27</ele><time>2022-05-22T06:37:33.000Z</time></trkpt><trkpt lon="5.860691" lat="51.098449"><ele>27</ele><time>2022-05-22T06:37:34.000Z</time></trkpt><trkpt lon="5.860785" lat="51.098479"><ele>27</ele><time>2022-05-22T06:37:35.000Z</time></trkpt><trkpt lon="5.860881" lat="51.098508"><ele>27</ele><time>2022-05-22T06:37:36.000Z</time></trkpt><trkpt lon="5.860976" lat="51.09854"><ele>27.2</ele><time>2022-05-22T06:37:37.000Z</time></trkpt><trkpt lon="5.861069" lat="51.098571"><ele>27.2</ele><time>2022-05-22T06:37:38.000Z</time></trkpt><trkpt lon="5.861167" lat="51.098605"><ele>27.2</ele><time>2022-05-22T06:37:39.000Z</time></trkpt><trkpt lon="5.861268" lat="51.09864"><ele>27.2</ele><time>2022-05-22T06:37:40.000Z</time></trkpt><trkpt lon="5.861364" lat="51.098674"><ele>27.4</ele><time>2022-05-22T06:37:41.000Z</time></trkpt><trkpt lon="5.861466" lat="51.098708"><ele>27.4</ele><time>2022-05-22T06:37:42.000Z</time></trkpt><trkpt lon="5.861567" lat="51.098742"><ele>27.2</ele><time>2022-05-22T06:37:43.000Z</time></trkpt><trkpt lon="5.861669" lat="51.098781"><ele>27.2</ele><time>2022-05-22T06:37:44.000Z</time></trkpt><trkpt lon="5.861766" lat="51.098814"><ele>27.2</ele><time>2022-05-22T06:37:45.000Z</time></trkpt><trkpt lon="5.861865" lat="51.098849"><ele>27</ele><time>2022-05-22T06:37:46.000Z</time></trkpt><trkpt lon="5.861961" lat="51.098888"><ele>27</ele><time>2022-05-22T06:37:47.000Z</time></trkpt><trkpt lon="5.862056" lat="51.098918"><ele>27</ele><time>2022-05-22T06:37:48.000Z</time></trkpt><trkpt lon="5.862145" lat="51.098948"><ele>27.2</ele><time>2022-05-22T06:37:49.000Z</time></trkpt><trkpt lon="5.862239" lat="51.098979"><ele>27</ele><time>2022-05-22T06:37:50.000Z</time></trkpt><trkpt lon="5.862333" lat="51.099012"><ele>27</ele><time>2022-05-22T06:37:51.000Z</time></trkpt><trkpt lon="5.862431" lat="51.099047"><ele>27</ele><time>2022-05-22T06:37:52.000Z</time></trkpt><trkpt lon="5.862529" lat="51.099082"><ele>27</ele><time>2022-05-22T06:37:53.000Z</time></trkpt><trkpt lon="5.862627" lat="51.099113"><ele>27</ele><time>2022-05-22T06:37:54.000Z</time></trkpt><trkpt lon="5.862731" lat="51.099147"><ele>27</ele><time>2022-05-22T06:37:55.000Z</time></trkpt><trkpt lon="5.862833" lat="51.099178"><ele>27.2</ele><time>2022-05-22T06:37:56.000Z</time></trkpt><trkpt lon="5.862931" lat="51.099212"><ele>27.2</ele><time>2022-05-22T06:37:57.000Z</time></trkpt><trkpt lon="5.863029" lat="51.099242"><ele>27.2</ele><time>2022-05-22T06:37:58.000Z</time></trkpt><trkpt lon="5.863124" lat="51.099273"><ele>27.4</ele><time>2022-05-22T06:37:59.000Z</time></trkpt><trkpt lon="5.863222" lat="51.099307"><ele>27.4</ele><time>2022-05-22T06:38:00.000Z</time></trkpt><trkpt lon="5.863317" lat="51.099337"><ele>27.4</ele><time>2022-05-22T06:38:01.000Z</time></trkpt><trkpt lon="5.863416" lat="51.099372"><ele>27.4</ele><time>2022-05-22T06:38:02.000Z</time></trkpt><trkpt lon="5.863511" lat="51.099402"><ele>27.4</ele><time>2022-05-22T06:38:03.000Z</time></trkpt><trkpt lon="5.863606" lat="51.099437"><ele>27.4</ele><time>2022-05-22T06:38:04.000Z</time></trkpt><trkpt lon="5.863699" lat="51.099463"><ele>27.4</ele><time>2022-05-22T06:38:05.000Z</time></trkpt><trkpt lon="5.863799" lat="51.099487"><ele>27.4</ele><time>2022-05-22T06:38:06.000Z</time></trkpt><trkpt lon="5.863898" lat="51.099509"><ele>27.4</ele><time>2022-05-22T06:38:07.000Z</time></trkpt><trkpt lon="5.864001" lat="51.099521"><ele>27.4</ele><time>2022-05-22T06:38:08.000Z</time></trkpt><trkpt lon="5.864104" lat="51.099533"><ele>27.4</ele><time>2022-05-22T06:38:09.000Z</time></trkpt><trkpt lon="5.864208" lat="51.099537"><ele>27.4</ele><time>2022-05-22T06:38:10.000Z</time></trkpt><trkpt lon="5.864308" lat="51.099541"><ele>27.4</ele><time>2022-05-22T06:38:11.000Z</time></trkpt><trkpt lon="5.864398" lat="51.099537"><ele>27.6</ele><time>2022-05-22T06:38:12.000Z</time></trkpt><trkpt lon="5.864476" lat="51.099522"><ele>27.6</ele><time>2022-05-22T06:38:13.000Z</time></trkpt><trkpt lon="5.864545" lat="51.099499"><ele>27.6</ele><time>2022-05-22T06:38:14.000Z</time></trkpt><trkpt lon="5.86458" lat="51.099472"><ele>27.6</ele><time>2022-05-22T06:38:15.000Z</time></trkpt><trkpt lon="5.864597" lat="51.099431"><ele>27.6</ele><time>2022-05-22T06:38:16.000Z</time></trkpt><trkpt lon="5.864601" lat="51.099384"><ele>27.8</ele><time>2022-05-22T06:38:17.000Z</time></trkpt><trkpt lon="5.864622" lat="51.099334"><ele>27.8</ele><time>2022-05-22T06:38:18.000Z</time></trkpt><trkpt lon="5.864671" lat="51.09929"><ele>27.8</ele><time>2022-05-22T06:38:19.000Z</time></trkpt><trkpt lon="5.864737" lat="51.099263"><ele>27.8</ele><time>2022-05-22T06:38:20.000Z</time></trkpt><trkpt lon="5.864825" lat="51.099241"><ele>27.8</ele><time>2022-05-22T06:38:21.000Z</time></trkpt><trkpt lon="5.864919" lat="51.099224"><ele>27.8</ele><time>2022-05-22T06:38:22.000Z</time></trkpt><trkpt lon="5.865015" lat="51.099213"><ele>27.8</ele><time>2022-05-22T06:38:23.000Z</time></trkpt><trkpt lon="5.865124" lat="51.099209"><ele>27.6</ele><time>2022-05-22T06:38:24.000Z</time></trkpt><trkpt lon="5.865239" lat="51.099209"><ele>27.6</ele><time>2022-05-22T06:38:25.000Z</time></trkpt><trkpt lon="5.865356" lat="51.099205"><ele>27.6</ele><time>2022-05-22T06:38:26.000Z</time></trkpt><trkpt lon="5.86547" lat="51.099205"><ele>27.6</ele><time>2022-05-22T06:38:27.000Z</time></trkpt><trkpt lon="5.865589" lat="51.099205"><ele>27.6</ele><time>2022-05-22T06:38:28.000Z</time></trkpt><trkpt lon="5.865697" lat="51.099209"><ele>27.6</ele><time>2022-05-22T06:38:29.000Z</time></trkpt><trkpt lon="5.865804" lat="51.099209"><ele>27.6</ele><time>2022-05-22T06:38:30.000Z</time></trkpt><trkpt lon="5.865916" lat="51.099209"><ele>27.6</ele><time>2022-05-22T06:38:31.000Z</time></trkpt><trkpt lon="5.866029" lat="51.099205"><ele>27.6</ele><time>2022-05-22T06:38:32.000Z</time></trkpt><trkpt lon="5.866145" lat="51.099198"><ele>27.6</ele><time>2022-05-22T06:38:33.000Z</time></trkpt><trkpt lon="5.866255" lat="51.09919"><ele>27.6</ele><time>2022-05-22T06:38:34.000Z</time></trkpt><trkpt lon="5.866364" lat="51.099179"><ele>27.6</ele><time>2022-05-22T06:38:35.000Z</time></trkpt><trkpt lon="5.866478" lat="51.099167"><ele>27.6</ele><time>2022-05-22T06:38:36.000Z</time></trkpt><trkpt lon="5.866589" lat="51.099159"><ele>27.6</ele><time>2022-05-22T06:38:37.000Z</time></trkpt><trkpt lon="5.866699" lat="51.099152"><ele>27.6</ele><time>2022-05-22T06:38:38.000Z</time></trkpt><trkpt lon="5.866802" lat="51.099152"><ele>27.6</ele><time>2022-05-22T06:38:39.000Z</time></trkpt><trkpt lon="5.866901" lat="51.099152"><ele>27.6</ele><time>2022-05-22T06:38:40.000Z</time></trkpt><trkpt lon="5.867005" lat="51.099152"><ele>27.6</ele><time>2022-05-22T06:38:41.000Z</time></trkpt><trkpt lon="5.867129" lat="51.099148"><ele>27.6</ele><time>2022-05-22T06:38:42.000Z</time></trkpt><trkpt lon="5.867232" lat="51.09914"><ele>27.8</ele><time>2022-05-22T06:38:43.000Z</time></trkpt><trkpt lon="5.867338" lat="51.099133"><ele>27.8</ele><time>2022-05-22T06:38:44.000Z</time></trkpt><trkpt lon="5.867438" lat="51.099121"><ele>27.8</ele><time>2022-05-22T06:38:45.000Z</time></trkpt><trkpt lon="5.867538" lat="51.09911"><ele>27.8</ele><time>2022-05-22T06:38:46.000Z</time></trkpt><trkpt lon="5.867642" lat="51.099087"><ele>27.8</ele><time>2022-05-22T06:38:47.000Z</time></trkpt><trkpt lon="5.867752" lat="51.099061"><ele>27.8</ele><time>2022-05-22T06:38:48.000Z</time></trkpt><trkpt lon="5.86786" lat="51.099027"><ele>27.8</ele><time>2022-05-22T06:38:49.000Z</time></trkpt><trkpt lon="5.867963" lat="51.098992"><ele>28</ele><time>2022-05-22T06:38:50.000Z</time></trkpt><trkpt lon="5.868066" lat="51.098954"><ele>28</ele><time>2022-05-22T06:38:51.000Z</time></trkpt><trkpt lon="5.868159" lat="51.098914"><ele>28</ele><time>2022-05-22T06:38:52.000Z</time></trkpt><trkpt lon="5.868265" lat="51.098874"><ele>28</ele><time>2022-05-22T06:38:53.000Z</time></trkpt><trkpt lon="5.868362" lat="51.098828"><ele>28</ele><time>2022-05-22T06:38:54.000Z</time></trkpt><trkpt lon="5.86846" lat="51.098783"><ele>28</ele><time>2022-05-22T06:38:55.000Z</time></trkpt><trkpt lon="5.86855" lat="51.098741"><ele>28</ele><time>2022-05-22T06:38:56.000Z</time></trkpt><trkpt lon="5.868637" lat="51.098699"><ele>28</ele><time>2022-05-22T06:38:57.000Z</time></trkpt><trkpt lon="5.868727" lat="51.098653"><ele>28</ele><time>2022-05-22T06:38:58.000Z</time></trkpt><trkpt lon="5.868804" lat="51.09861"><ele>28</ele><time>2022-05-22T06:38:59.000Z</time></trkpt><trkpt lon="5.868894" lat="51.098561"><ele>28</ele><time>2022-05-22T06:39:00.000Z</time></trkpt><trkpt lon="5.868969" lat="51.098518"><ele>28.2</ele><time>2022-05-22T06:39:01.000Z</time></trkpt><trkpt lon="5.869053" lat="51.098466"><ele>28.2</ele><time>2022-05-22T06:39:02.000Z</time></trkpt><trkpt lon="5.869123" lat="51.098413"><ele>28.2</ele><time>2022-05-22T06:39:03.000Z</time></trkpt><trkpt lon="5.869202" lat="51.098365"><ele>28.4</ele><time>2022-05-22T06:39:04.000Z</time></trkpt><trkpt lon="5.869282" lat="51.098313"><ele>28.2</ele><time>2022-05-22T06:39:05.000Z</time></trkpt><trkpt lon="5.869367" lat="51.098258"><ele>28.2</ele><time>2022-05-22T06:39:06.000Z</time></trkpt><trkpt lon="5.869448" lat="51.098203"><ele>28.2</ele><time>2022-05-22T06:39:07.000Z</time></trkpt><trkpt lon="5.869521" lat="51.09815"><ele>28</ele><time>2022-05-22T06:39:08.000Z</time></trkpt><trkpt lon="5.869593" lat="51.098097"><ele>28</ele><time>2022-05-22T06:39:09.000Z</time></trkpt><trkpt lon="5.869666" lat="51.098044"><ele>28</ele><time>2022-05-22T06:39:10.000Z</time></trkpt><trkpt lon="5.869743" lat="51.097991"><ele>28</ele><time>2022-05-22T06:39:11.000Z</time></trkpt><trkpt lon="5.869818" lat="51.097937"><ele>28</ele><time>2022-05-22T06:39:12.000Z</time></trkpt><trkpt lon="5.869894" lat="51.097881"><ele>27.8</ele><time>2022-05-22T06:39:13.000Z</time></trkpt><trkpt lon="5.869966" lat="51.097823"><ele>27.8</ele><time>2022-05-22T06:39:14.000Z</time></trkpt><trkpt lon="5.870031" lat="51.097771"><ele>27.8</ele><time>2022-05-22T06:39:15.000Z</time></trkpt><trkpt lon="5.870103" lat="51.097715"><ele>27.8</ele><time>2022-05-22T06:39:16.000Z</time></trkpt><trkpt lon="5.870173" lat="51.097661"><ele>27.6</ele><time>2022-05-22T06:39:17.000Z</time></trkpt><trkpt lon="5.87024" lat="51.097608"><ele>27.6</ele><time>2022-05-22T06:39:18.000Z</time></trkpt><trkpt lon="5.87031" lat="51.097554"><ele>27.8</ele><time>2022-05-22T06:39:19.000Z</time></trkpt><trkpt lon="5.870382" lat="51.097497"><ele>27.8</ele><time>2022-05-22T06:39:20.000Z</time></trkpt><trkpt lon="5.870449" lat="51.097447"><ele>27.8</ele><time>2022-05-22T06:39:21.000Z</time></trkpt><trkpt lon="5.870532" lat="51.09739"><ele>27.6</ele><time>2022-05-22T06:39:22.000Z</time></trkpt><trkpt lon="5.870608" lat="51.097335"><ele>27.6</ele><time>2022-05-22T06:39:23.000Z</time></trkpt><trkpt lon="5.870679" lat="51.097281"><ele>27.6</ele><time>2022-05-22T06:39:24.000Z</time></trkpt><trkpt lon="5.870745" lat="51.097227"><ele>27.6</ele><time>2022-05-22T06:39:25.000Z</time></trkpt><trkpt lon="5.870815" lat="51.097166"><ele>27.6</ele><time>2022-05-22T06:39:26.000Z</time></trkpt><trkpt lon="5.870887" lat="51.097108"><ele>27.6</ele><time>2022-05-22T06:39:27.000Z</time></trkpt><trkpt lon="5.870953" lat="51.097057"><ele>27.6</ele><time>2022-05-22T06:39:28.000Z</time></trkpt><trkpt lon="5.87102" lat="51.097001"><ele>27.6</ele><time>2022-05-22T06:39:29.000Z</time></trkpt><trkpt lon="5.871084" lat="51.096944"><ele>27.4</ele><time>2022-05-22T06:39:30.000Z</time></trkpt><trkpt lon="5.871141" lat="51.096891"><ele>27.2</ele><time>2022-05-22T06:39:31.000Z</time></trkpt><trkpt lon="5.871218" lat="51.096823"><ele>27.2</ele><time>2022-05-22T06:39:32.000Z</time></trkpt><trkpt lon="5.871275" lat="51.096772"><ele>27.2</ele><time>2022-05-22T06:39:33.000Z</time></trkpt><trkpt lon="5.871358" lat="51.096712"><ele>27</ele><time>2022-05-22T06:39:34.000Z</time></trkpt><trkpt lon="5.871431" lat="51.096654"><ele>27.2</ele><time>2022-05-22T06:39:35.000Z</time></trkpt><trkpt lon="5.871503" lat="51.096594"><ele>27.2</ele><time>2022-05-22T06:39:36.000Z</time></trkpt><trkpt lon="5.871579" lat="51.09654"><ele>27</ele><time>2022-05-22T06:39:37.000Z</time></trkpt><trkpt lon="5.871656" lat="51.096486"><ele>27.2</ele><time>2022-05-22T06:39:38.000Z</time></trkpt><trkpt lon="5.871731" lat="51.096433"><ele>27.2</ele><time>2022-05-22T06:39:39.000Z</time></trkpt><trkpt lon="5.871807" lat="51.09638"><ele>27.4</ele><time>2022-05-22T06:39:40.000Z</time></trkpt><trkpt lon="5.871879" lat="51.096326"><ele>27.6</ele><time>2022-05-22T06:39:41.000Z</time></trkpt><trkpt lon="5.871956" lat="51.096272"><ele>27.6</ele><time>2022-05-22T06:39:42.000Z</time></trkpt><trkpt lon="5.872033" lat="51.096227"><ele>27.8</ele><time>2022-05-22T06:39:43.000Z</time></trkpt><trkpt lon="5.872114" lat="51.096181"><ele>28</ele><time>2022-05-22T06:39:44.000Z</time></trkpt><trkpt lon="5.872193" lat="51.096139"><ele>28.2</ele><time>2022-05-22T06:39:45.000Z</time></trkpt><trkpt lon="5.872272" lat="51.096093"><ele>28.2</ele><time>2022-05-22T06:39:46.000Z</time></trkpt><trkpt lon="5.872353" lat="51.096055"><ele>28.4</ele><time>2022-05-22T06:39:47.000Z</time></trkpt><trkpt lon="5.872436" lat="51.096018"><ele>28.4</ele><time>2022-05-22T06:39:48.000Z</time></trkpt><trkpt lon="5.872528" lat="51.095982"><ele>28.4</ele><time>2022-05-22T06:39:49.000Z</time></trkpt><trkpt lon="5.872623" lat="51.095952"><ele>28.6</ele><time>2022-05-22T06:39:50.000Z</time></trkpt><trkpt lon="5.872719" lat="51.095929"><ele>28.6</ele><time>2022-05-22T06:39:51.000Z</time></trkpt><trkpt lon="5.872816" lat="51.095906"><ele>28.6</ele><time>2022-05-22T06:39:52.000Z</time></trkpt><trkpt lon="5.872898" lat="51.09589"><ele>28.8</ele><time>2022-05-22T06:39:53.000Z</time></trkpt><trkpt lon="5.873012" lat="51.095871"><ele>28.8</ele><time>2022-05-22T06:39:54.000Z</time></trkpt><trkpt lon="5.873099" lat="51.095861"><ele>28.8</ele><time>2022-05-22T06:39:55.000Z</time></trkpt><trkpt lon="5.873196" lat="51.095853"><ele>29</ele><time>2022-05-22T06:39:56.000Z</time></trkpt><trkpt lon="5.87331" lat="51.095852"><ele>29.2</ele><time>2022-05-22T06:39:57.000Z</time></trkpt><trkpt lon="5.873405" lat="51.095852"><ele>29.2</ele><time>2022-05-22T06:39:58.000Z</time></trkpt><trkpt lon="5.873489" lat="51.095852"><ele>29.4</ele><time>2022-05-22T06:39:59.000Z</time></trkpt><trkpt lon="5.873571" lat="51.095863"><ele>29.6</ele><time>2022-05-22T06:40:00.000Z</time></trkpt><trkpt lon="5.873646" lat="51.095871"><ele>29.8</ele><time>2022-05-22T06:40:01.000Z</time></trkpt><trkpt lon="5.873719" lat="51.095882"><ele>29.8</ele><time>2022-05-22T06:40:02.000Z</time></trkpt><trkpt lon="5.873789" lat="51.095886"><ele>30</ele><time>2022-05-22T06:40:03.000Z</time></trkpt><trkpt lon="5.873857" lat="51.095882"><ele>30</ele><time>2022-05-22T06:40:04.000Z</time></trkpt><trkpt lon="5.873914" lat="51.095864"><ele>30</ele><time>2022-05-22T06:40:05.000Z</time></trkpt><trkpt lon="5.873959" lat="51.095833"><ele>30.2</ele><time>2022-05-22T06:40:06.000Z</time></trkpt><trkpt lon="5.873983" lat="51.095798"><ele>30.2</ele><time>2022-05-22T06:40:07.000Z</time></trkpt><trkpt lon="5.873993" lat="51.095746"><ele>30</ele><time>2022-05-22T06:40:08.000Z</time></trkpt><trkpt lon="5.873995" lat="51.095689"><ele>30</ele><time>2022-05-22T06:40:09.000Z</time></trkpt><trkpt lon="5.873997" lat="51.095628"><ele>30</ele><time>2022-05-22T06:40:10.000Z</time></trkpt><trkpt lon="5.874" lat="51.095564"><ele>30</ele><time>2022-05-22T06:40:11.000Z</time></trkpt><trkpt lon="5.874005" lat="51.095499"><ele>30</ele><time>2022-05-22T06:40:12.000Z</time></trkpt><trkpt lon="5.874007" lat="51.095434"><ele>29.8</ele><time>2022-05-22T06:40:13.000Z</time></trkpt><trkpt lon="5.874008" lat="51.095369"><ele>29.8</ele><time>2022-05-22T06:40:14.000Z</time></trkpt><trkpt lon="5.87401" lat="51.095304"><ele>29.6</ele><time>2022-05-22T06:40:15.000Z</time></trkpt><trkpt lon="5.874013" lat="51.095236"><ele>29.6</ele><time>2022-05-22T06:40:16.000Z</time></trkpt><trkpt lon="5.874018" lat="51.095171"><ele>29.6</ele><time>2022-05-22T06:40:17.000Z</time></trkpt><trkpt lon="5.874023" lat="51.095101"><ele>29.4</ele><time>2022-05-22T06:40:18.000Z</time></trkpt><trkpt lon="5.874028" lat="51.095022"><ele>29.4</ele><time>2022-05-22T06:40:19.000Z</time></trkpt><trkpt lon="5.874035" lat="51.094953"><ele>29.4</ele><time>2022-05-22T06:40:20.000Z</time></trkpt><trkpt lon="5.874043" lat="51.094887"><ele>29.2</ele><time>2022-05-22T06:40:21.000Z</time></trkpt><trkpt lon="5.874049" lat="51.094819"><ele>29.2</ele><time>2022-05-22T06:40:22.000Z</time></trkpt><trkpt lon="5.874051" lat="51.094749"><ele>29.2</ele><time>2022-05-22T06:40:23.000Z</time></trkpt><trkpt lon="5.874055" lat="51.094674"><ele>29.2</ele><time>2022-05-22T06:40:24.000Z</time></trkpt><trkpt lon="5.874061" lat="51.094599"><ele>29.2</ele><time>2022-05-22T06:40:25.000Z</time></trkpt><trkpt lon="5.87407" lat="51.09453"><ele>29.2</ele><time>2022-05-22T06:40:26.000Z</time></trkpt><trkpt lon="5.874075" lat="51.094461"><ele>29.2</ele><time>2022-05-22T06:40:27.000Z</time></trkpt><trkpt lon="5.87408" lat="51.094393"><ele>29.2</ele><time>2022-05-22T06:40:28.000Z</time></trkpt><trkpt lon="5.874085" lat="51.094324"><ele>29.2</ele><time>2022-05-22T06:40:29.000Z</time></trkpt><trkpt lon="5.874093" lat="51.094258"><ele>29.2</ele><time>2022-05-22T06:40:30.000Z</time></trkpt><trkpt lon="5.874106" lat="51.094188"><ele>29.2</ele><time>2022-05-22T06:40:31.000Z</time></trkpt><trkpt lon="5.874122" lat="51.094122"><ele>29</ele><time>2022-05-22T06:40:32.000Z</time></trkpt><trkpt lon="5.874149" lat="51.094053"><ele>29</ele><time>2022-05-22T06:40:33.000Z</time></trkpt><trkpt lon="5.874185" lat="51.093989"><ele>29</ele><time>2022-05-22T06:40:34.000Z</time></trkpt><trkpt lon="5.874227" lat="51.093925"><ele>28.8</ele><time>2022-05-22T06:40:35.000Z</time></trkpt><trkpt lon="5.874269" lat="51.093865"><ele>28.8</ele><time>2022-05-22T06:40:36.000Z</time></trkpt><trkpt lon="5.87431" lat="51.093801"><ele>28.8</ele><time>2022-05-22T06:40:37.000Z</time></trkpt><trkpt lon="5.874346" lat="51.093747"><ele>28.8</ele><time>2022-05-22T06:40:38.000Z</time></trkpt><trkpt lon="5.874385" lat="51.093685"><ele>29</ele><time>2022-05-22T06:40:39.000Z</time></trkpt><trkpt lon="5.874422" lat="51.093622"><ele>29</ele><time>2022-05-22T06:40:40.000Z</time></trkpt><trkpt lon="5.874457" lat="51.093561"><ele>29.2</ele><time>2022-05-22T06:40:41.000Z</time></trkpt><trkpt lon="5.874498" lat="51.0935"><ele>29.2</ele><time>2022-05-22T06:40:42.000Z</time></trkpt><trkpt lon="5.874544" lat="51.093436"><ele>29.2</ele><time>2022-05-22T06:40:43.000Z</time></trkpt><trkpt lon="5.874588" lat="51.093367"><ele>29.4</ele><time>2022-05-22T06:40:44.000Z</time></trkpt><trkpt lon="5.874628" lat="51.093308"><ele>29.4</ele><time>2022-05-22T06:40:45.000Z</time></trkpt><trkpt lon="5.87467" lat="51.093245"><ele>29.4</ele><time>2022-05-22T06:40:46.000Z</time></trkpt><trkpt lon="5.874707" lat="51.093183"><ele>29.4</ele><time>2022-05-22T06:40:47.000Z</time></trkpt><trkpt lon="5.874746" lat="51.09312"><ele>29.6</ele><time>2022-05-22T06:40:48.000Z</time></trkpt><trkpt lon="5.874788" lat="51.093059"><ele>29.6</ele><time>2022-05-22T06:40:49.000Z</time></trkpt><trkpt lon="5.874834" lat="51.092996"><ele>29.6</ele><time>2022-05-22T06:40:50.000Z</time></trkpt><trkpt lon="5.874879" lat="51.092932"><ele>29.6</ele><time>2022-05-22T06:40:51.000Z</time></trkpt><trkpt lon="5.874922" lat="51.09287"><ele>29.6</ele><time>2022-05-22T06:40:52.000Z</time></trkpt><trkpt lon="5.874965" lat="51.092814"><ele>29.6</ele><time>2022-05-22T06:40:53.000Z</time></trkpt><trkpt lon="5.875009" lat="51.092753"><ele>29.6</ele><time>2022-05-22T06:40:54.000Z</time></trkpt><trkpt lon="5.875057" lat="51.092691"><ele>29.6</ele><time>2022-05-22T06:40:55.000Z</time></trkpt><trkpt lon="5.875104" lat="51.09263"><ele>29.6</ele><time>2022-05-22T06:40:56.000Z</time></trkpt><trkpt lon="5.875152" lat="51.092574"><ele>29.6</ele><time>2022-05-22T06:40:57.000Z</time></trkpt><trkpt lon="5.875201" lat="51.092513"><ele>29.6</ele><time>2022-05-22T06:40:58.000Z</time></trkpt><trkpt lon="5.875256" lat="51.092455"><ele>29.6</ele><time>2022-05-22T06:40:59.000Z</time></trkpt><trkpt lon="5.875318" lat="51.092405"><ele>29.4</ele><time>2022-05-22T06:41:00.000Z</time></trkpt><trkpt lon="5.875389" lat="51.092351"><ele>29.4</ele><time>2022-05-22T06:41:01.000Z</time></trkpt><trkpt lon="5.875462" lat="51.092305"><ele>29.2</ele><time>2022-05-22T06:41:02.000Z</time></trkpt><trkpt lon="5.875534" lat="51.092257"><ele>29</ele><time>2022-05-22T06:41:03.000Z</time></trkpt><trkpt lon="5.875604" lat="51.092206"><ele>29</ele><time>2022-05-22T06:41:04.000Z</time></trkpt><trkpt lon="5.875653" lat="51.092152"><ele>29</ele><time>2022-05-22T06:41:05.000Z</time></trkpt><trkpt lon="5.875684" lat="51.092081"><ele>28.8</ele><time>2022-05-22T06:41:06.000Z</time></trkpt><trkpt lon="5.875695" lat="51.09201"><ele>28.8</ele><time>2022-05-22T06:41:07.000Z</time></trkpt><trkpt lon="5.875692" lat="51.091936"><ele>28.8</ele><time>2022-05-22T06:41:08.000Z</time></trkpt><trkpt lon="5.875685" lat="51.091864"><ele>28.8</ele><time>2022-05-22T06:41:09.000Z</time></trkpt><trkpt lon="5.875677" lat="51.091802"><ele>28.8</ele><time>2022-05-22T06:41:10.000Z</time></trkpt><trkpt lon="5.875665" lat="51.091718"><ele>28.8</ele><time>2022-05-22T06:41:11.000Z</time></trkpt><trkpt lon="5.87566" lat="51.091647"><ele>28.6</ele><time>2022-05-22T06:41:12.000Z</time></trkpt><trkpt lon="5.875662" lat="51.091573"><ele>28.6</ele><time>2022-05-22T06:41:13.000Z</time></trkpt><trkpt lon="5.875667" lat="51.091504"><ele>28.6</ele><time>2022-05-22T06:41:14.000Z</time></trkpt><trkpt lon="5.875681" lat="51.09144"><ele>28.4</ele><time>2022-05-22T06:41:15.000Z</time></trkpt><trkpt lon="5.875701" lat="51.091375"><ele>28.4</ele><time>2022-05-22T06:41:16.000Z</time></trkpt><trkpt lon="5.875728" lat="51.091314"><ele>28.2</ele><time>2022-05-22T06:41:17.000Z</time></trkpt><trkpt lon="5.875759" lat="51.091249"><ele>28.2</ele><time>2022-05-22T06:41:18.000Z</time></trkpt><trkpt lon="5.875802" lat="51.091188"><ele>28</ele><time>2022-05-22T06:41:19.000Z</time></trkpt><trkpt lon="5.875855" lat="51.091131"><ele>28</ele><time>2022-05-22T06:41:20.000Z</time></trkpt><trkpt lon="5.875914" lat="51.091071"><ele>28</ele><time>2022-05-22T06:41:21.000Z</time></trkpt><trkpt lon="5.87598" lat="51.091009"><ele>28</ele><time>2022-05-22T06:41:22.000Z</time></trkpt><trkpt lon="5.876045" lat="51.090951"><ele>28</ele><time>2022-05-22T06:41:23.000Z</time></trkpt><trkpt lon="5.876112" lat="51.09089"><ele>28</ele><time>2022-05-22T06:41:24.000Z</time></trkpt><trkpt lon="5.876177" lat="51.090829"><ele>27.8</ele><time>2022-05-22T06:41:25.000Z</time></trkpt><trkpt lon="5.876238" lat="51.090768"><ele>27.8</ele><time>2022-05-22T06:41:26.000Z</time></trkpt><trkpt lon="5.876304" lat="51.090711"><ele>27.8</ele><time>2022-05-22T06:41:27.000Z</time></trkpt><trkpt lon="5.876367" lat="51.09065"><ele>27.8</ele><time>2022-05-22T06:41:28.000Z</time></trkpt><trkpt lon="5.876434" lat="51.090588"><ele>27.6</ele><time>2022-05-22T06:41:29.000Z</time></trkpt><trkpt lon="5.876497" lat="51.09053"><ele>27.6</ele><time>2022-05-22T06:41:30.000Z</time></trkpt><trkpt lon="5.876565" lat="51.090463"><ele>27.6</ele><time>2022-05-22T06:41:31.000Z</time></trkpt><trkpt lon="5.876627" lat="51.090402"><ele>27.6</ele><time>2022-05-22T06:41:32.000Z</time></trkpt><trkpt lon="5.876687" lat="51.090344"><ele>27.6</ele><time>2022-05-22T06:41:33.000Z</time></trkpt><trkpt lon="5.876747" lat="51.09028"><ele>27.6</ele><time>2022-05-22T06:41:34.000Z</time></trkpt><trkpt lon="5.876806" lat="51.090225"><ele>27.6</ele><time>2022-05-22T06:41:35.000Z</time></trkpt><trkpt lon="5.87687" lat="51.090165"><ele>27.6</ele><time>2022-05-22T06:41:36.000Z</time></trkpt><trkpt lon="5.876934" lat="51.090105"><ele>27.6</ele><time>2022-05-22T06:41:37.000Z</time></trkpt><trkpt lon="5.876983" lat="51.090055"><ele>27.8</ele><time>2022-05-22T06:41:38.000Z</time></trkpt><trkpt lon="5.877045" lat="51.08999"><ele>27.8</ele><time>2022-05-22T06:41:39.000Z</time></trkpt><trkpt lon="5.877101" lat="51.089934"><ele>27.8</ele><time>2022-05-22T06:41:40.000Z</time></trkpt><trkpt lon="5.877158" lat="51.089876"><ele>28</ele><time>2022-05-22T06:41:41.000Z</time></trkpt><trkpt lon="5.877214" lat="51.089815"><ele>28</ele><time>2022-05-22T06:41:42.000Z</time></trkpt><trkpt lon="5.877269" lat="51.089757"><ele>28.2</ele><time>2022-05-22T06:41:43.000Z</time></trkpt><trkpt lon="5.877321" lat="51.089697"><ele>28.2</ele><time>2022-05-22T06:41:44.000Z</time></trkpt><trkpt lon="5.877374" lat="51.089639"><ele>28.2</ele><time>2022-05-22T06:41:45.000Z</time></trkpt><trkpt lon="5.877426" lat="51.089582"><ele>28.2</ele><time>2022-05-22T06:41:46.000Z</time></trkpt><trkpt lon="5.877481" lat="51.089526"><ele>28.2</ele><time>2022-05-22T06:41:47.000Z</time></trkpt><trkpt lon="5.877535" lat="51.089467"><ele>28.2</ele><time>2022-05-22T06:41:48.000Z</time></trkpt><trkpt lon="5.877587" lat="51.08941"><ele>28.2</ele><time>2022-05-22T06:41:49.000Z</time></trkpt><trkpt lon="5.877639" lat="51.089355"><ele>28.4</ele><time>2022-05-22T06:41:50.000Z</time></trkpt><trkpt lon="5.87769" lat="51.0893"><ele>28.4</ele><time>2022-05-22T06:41:51.000Z</time></trkpt><trkpt lon="5.877746" lat="51.089242"><ele>28.6</ele><time>2022-05-22T06:41:52.000Z</time></trkpt><trkpt lon="5.877796" lat="51.089193"><ele>28.8</ele><time>2022-05-22T06:41:53.000Z</time></trkpt><trkpt lon="5.87785" lat="51.08914"><ele>28.8</ele><time>2022-05-22T06:41:54.000Z</time></trkpt><trkpt lon="5.877902" lat="51.08909"><ele>29</ele><time>2022-05-22T06:41:55.000Z</time></trkpt><trkpt lon="5.877957" lat="51.089036"><ele>29</ele><time>2022-05-22T06:41:56.000Z</time></trkpt><trkpt lon="5.878012" lat="51.088979"><ele>29.2</ele><time>2022-05-22T06:41:57.000Z</time></trkpt><trkpt lon="5.878069" lat="51.088926"><ele>29.2</ele><time>2022-05-22T06:41:58.000Z</time></trkpt><trkpt lon="5.878128" lat="51.088872"><ele>29.4</ele><time>2022-05-22T06:41:59.000Z</time></trkpt><trkpt lon="5.878187" lat="51.088822"><ele>29.4</ele><time>2022-05-22T06:42:00.000Z</time></trkpt><trkpt lon="5.878245" lat="51.088777"><ele>29.6</ele><time>2022-05-22T06:42:01.000Z</time></trkpt><trkpt lon="5.878303" lat="51.088735"><ele>29.8</ele><time>2022-05-22T06:42:02.000Z</time></trkpt><trkpt lon="5.878359" lat="51.088696"><ele>29.8</ele><time>2022-05-22T06:42:03.000Z</time></trkpt><trkpt lon="5.878411" lat="51.088666"><ele>30</ele><time>2022-05-22T06:42:04.000Z</time></trkpt><trkpt lon="5.87846" lat="51.088636"><ele>30.2</ele><time>2022-05-22T06:42:05.000Z</time></trkpt><trkpt lon="5.878507" lat="51.088609"><ele>30.4</ele><time>2022-05-22T06:42:06.000Z</time></trkpt><trkpt lon="5.878549" lat="51.088587"><ele>30.4</ele><time>2022-05-22T06:42:07.000Z</time></trkpt><trkpt lon="5.878597" lat="51.088566"><ele>30.6</ele><time>2022-05-22T06:42:08.000Z</time></trkpt><trkpt lon="5.878635" lat="51.088547"><ele>30.6</ele><time>2022-05-22T06:42:09.000Z</time></trkpt><trkpt lon="5.878669" lat="51.088532"><ele>30.8</ele><time>2022-05-22T06:42:10.000Z</time></trkpt><trkpt lon="5.878702" lat="51.08852"><ele>30.8</ele><time>2022-05-22T06:42:11.000Z</time></trkpt><trkpt lon="5.878738" lat="51.088509"><ele>30.8</ele><time>2022-05-22T06:42:12.000Z</time></trkpt><trkpt lon="5.878775" lat="51.088494"><ele>31</ele><time>2022-05-22T06:42:13.000Z</time></trkpt><trkpt lon="5.878818" lat="51.088478"><ele>31</ele><time>2022-05-22T06:42:14.000Z</time></trkpt><trkpt lon="5.878862" lat="51.088459"><ele>31</ele><time>2022-05-22T06:42:15.000Z</time></trkpt><trkpt lon="5.878912" lat="51.08844"><ele>31</ele><time>2022-05-22T06:42:16.000Z</time></trkpt><trkpt lon="5.878965" lat="51.088425"><ele>31</ele><time>2022-05-22T06:42:17.000Z</time></trkpt><trkpt lon="5.879022" lat="51.08841"><ele>31</ele><time>2022-05-22T06:42:18.000Z</time></trkpt><trkpt lon="5.879079" lat="51.088395"><ele>31</ele><time>2022-05-22T06:42:19.000Z</time></trkpt><trkpt lon="5.879132" lat="51.088376"><ele>31</ele><time>2022-05-22T06:42:20.000Z</time></trkpt><trkpt lon="5.879182" lat="51.08836"><ele>31</ele><time>2022-05-22T06:42:21.000Z</time></trkpt><trkpt lon="5.879227" lat="51.088334"><ele>31</ele><time>2022-05-22T06:42:22.000Z</time></trkpt><trkpt lon="5.879266" lat="51.088304"><ele>31</ele><time>2022-05-22T06:42:23.000Z</time></trkpt><trkpt lon="5.879296" lat="51.088275"><ele>31</ele><time>2022-05-22T06:42:24.000Z</time></trkpt><trkpt lon="5.879323" lat="51.088243"><ele>31</ele><time>2022-05-22T06:42:25.000Z</time></trkpt><trkpt lon="5.879344" lat="51.088206"><ele>31</ele><time>2022-05-22T06:42:26.000Z</time></trkpt><trkpt lon="5.879365" lat="51.08817"><ele>31</ele><time>2022-05-22T06:42:27.000Z</time></trkpt><trkpt lon="5.879389" lat="51.088132"><ele>31</ele><time>2022-05-22T06:42:28.000Z</time></trkpt><trkpt lon="5.879416" lat="51.088097"><ele>31</ele><time>2022-05-22T06:42:29.000Z</time></trkpt><trkpt lon="5.879448" lat="51.088059"><ele>31</ele><time>2022-05-22T06:42:30.000Z</time></trkpt><trkpt lon="5.879488" lat="51.088017"><ele>31</ele><time>2022-05-22T06:42:31.000Z</time></trkpt><trkpt lon="5.879531" lat="51.08798"><ele>31</ele><time>2022-05-22T06:42:32.000Z</time></trkpt><trkpt lon="5.879581" lat="51.087946"><ele>31</ele><time>2022-05-22T06:42:33.000Z</time></trkpt><trkpt lon="5.879633" lat="51.087911"><ele>31</ele><time>2022-05-22T06:42:34.000Z</time></trkpt><trkpt lon="5.879675" lat="51.087884"><ele>31</ele><time>2022-05-22T06:42:35.000Z</time></trkpt><trkpt lon="5.879731" lat="51.087846"><ele>31</ele><time>2022-05-22T06:42:36.000Z</time></trkpt><trkpt lon="5.879779" lat="51.087807"><ele>31</ele><time>2022-05-22T06:42:37.000Z</time></trkpt><trkpt lon="5.879825" lat="51.087772"><ele>31</ele><time>2022-05-22T06:42:38.000Z</time></trkpt><trkpt lon="5.879877" lat="51.087732"><ele>31</ele><time>2022-05-22T06:42:39.000Z</time></trkpt><trkpt lon="5.879928" lat="51.08769"><ele>31</ele><time>2022-05-22T06:42:40.000Z</time></trkpt><trkpt lon="5.879977" lat="51.087648"><ele>31</ele><time>2022-05-22T06:42:41.000Z</time></trkpt><trkpt lon="5.880022" lat="51.087606"><ele>31</ele><time>2022-05-22T06:42:42.000Z</time></trkpt><trkpt lon="5.880064" lat="51.087564"><ele>31.2</ele><time>2022-05-22T06:42:43.000Z</time></trkpt><trkpt lon="5.880107" lat="51.087522"><ele>31.2</ele><time>2022-05-22T06:42:44.000Z</time></trkpt><trkpt lon="5.880153" lat="51.08748"><ele>31</ele><time>2022-05-22T06:42:45.000Z</time></trkpt><trkpt lon="5.8802" lat="51.087439"><ele>31</ele><time>2022-05-22T06:42:46.000Z</time></trkpt><trkpt lon="5.880251" lat="51.087395"><ele>30.8</ele><time>2022-05-22T06:42:47.000Z</time></trkpt><trkpt lon="5.880307" lat="51.08735"><ele>30.8</ele><time>2022-05-22T06:42:48.000Z</time></trkpt><trkpt lon="5.880366" lat="51.087305"><ele>30.8</ele><time>2022-05-22T06:42:49.000Z</time></trkpt><trkpt lon="5.880422" lat="51.087255"><ele>30.8</ele><time>2022-05-22T06:42:50.000Z</time></trkpt><trkpt lon="5.880474" lat="51.087202"><ele>30.8</ele><time>2022-05-22T06:42:51.000Z</time></trkpt><trkpt lon="5.880529" lat="51.087149"><ele>30.8</ele><time>2022-05-22T06:42:52.000Z</time></trkpt><trkpt lon="5.880585" lat="51.0871"><ele>30.8</ele><time>2022-05-22T06:42:53.000Z</time></trkpt><trkpt lon="5.880645" lat="51.087045"><ele>30.8</ele><time>2022-05-22T06:42:54.000Z</time></trkpt><trkpt lon="5.880707" lat="51.086995"><ele>30.8</ele><time>2022-05-22T06:42:55.000Z</time></trkpt><trkpt lon="5.88077" lat="51.086946"><ele>30.8</ele><time>2022-05-22T06:42:56.000Z</time></trkpt><trkpt lon="5.880834" lat="51.086892"><ele>30.8</ele><time>2022-05-22T06:42:57.000Z</time></trkpt><trkpt lon="5.880899" lat="51.086839"><ele>30.8</ele><time>2022-05-22T06:42:58.000Z</time></trkpt><trkpt lon="5.880962" lat="51.086786"><ele>30.8</ele><time>2022-05-22T06:42:59.000Z</time></trkpt><trkpt lon="5.881025" lat="51.086728"><ele>30.8</ele><time>2022-05-22T06:43:00.000Z</time></trkpt><trkpt lon="5.881088" lat="51.086676"><ele>30.8</ele><time>2022-05-22T06:43:01.000Z</time></trkpt><trkpt lon="5.881148" lat="51.086618"><ele>30.8</ele><time>2022-05-22T06:43:02.000Z</time></trkpt><trkpt lon="5.881205" lat="51.086565"><ele>30.8</ele><time>2022-05-22T06:43:03.000Z</time></trkpt><trkpt lon="5.88126" lat="51.086507"><ele>31</ele><time>2022-05-22T06:43:04.000Z</time></trkpt><trkpt lon="5.881314" lat="51.086447"><ele>31</ele><time>2022-05-22T06:43:05.000Z</time></trkpt><trkpt lon="5.881366" lat="51.086393"><ele>31</ele><time>2022-05-22T06:43:06.000Z</time></trkpt><trkpt lon="5.881423" lat="51.086339"><ele>31</ele><time>2022-05-22T06:43:07.000Z</time></trkpt><trkpt lon="5.881474" lat="51.086293"><ele>31</ele><time>2022-05-22T06:43:08.000Z</time></trkpt><trkpt lon="5.881546" lat="51.086229"><ele>31</ele><time>2022-05-22T06:43:09.000Z</time></trkpt><trkpt lon="5.881612" lat="51.086171"><ele>31</ele><time>2022-05-22T06:43:10.000Z</time></trkpt><trkpt lon="5.881677" lat="51.086118"><ele>30.8</ele><time>2022-05-22T06:43:11.000Z</time></trkpt><trkpt lon="5.881739" lat="51.086066"><ele>30.6</ele><time>2022-05-22T06:43:12.000Z</time></trkpt><trkpt lon="5.881807" lat="51.086011"><ele>30.6</ele><time>2022-05-22T06:43:13.000Z</time></trkpt><trkpt lon="5.881875" lat="51.085958"><ele>30.4</ele><time>2022-05-22T06:43:14.000Z</time></trkpt><trkpt lon="5.881944" lat="51.085904"><ele>30.4</ele><time>2022-05-22T06:43:15.000Z</time></trkpt><trkpt lon="5.882014" lat="51.085851"><ele>30.4</ele><time>2022-05-22T06:43:16.000Z</time></trkpt><trkpt lon="5.882081" lat="51.085802"><ele>30.4</ele><time>2022-05-22T06:43:17.000Z</time></trkpt><trkpt lon="5.882145" lat="51.08575"><ele>30.4</ele><time>2022-05-22T06:43:18.000Z</time></trkpt><trkpt lon="5.882206" lat="51.085696"><ele>30.4</ele><time>2022-05-22T06:43:19.000Z</time></trkpt><trkpt lon="5.882269" lat="51.085641"><ele>30.4</ele><time>2022-05-22T06:43:20.000Z</time></trkpt><trkpt lon="5.882321" lat="51.085588"><ele>30.2</ele><time>2022-05-22T06:43:21.000Z</time></trkpt><trkpt lon="5.882371" lat="51.085532"><ele>30.2</ele><time>2022-05-22T06:43:22.000Z</time></trkpt><trkpt lon="5.882425" lat="51.085474"><ele>30</ele><time>2022-05-22T06:43:23.000Z</time></trkpt><trkpt lon="5.882481" lat="51.085412"><ele>30</ele><time>2022-05-22T06:43:24.000Z</time></trkpt><trkpt lon="5.882539" lat="51.085351"><ele>29.8</ele><time>2022-05-22T06:43:25.000Z</time></trkpt><trkpt lon="5.882593" lat="51.085295"><ele>29.8</ele><time>2022-05-22T06:43:26.000Z</time></trkpt><trkpt lon="5.882643" lat="51.085235"><ele>29.6</ele><time>2022-05-22T06:43:27.000Z</time></trkpt><trkpt lon="5.882696" lat="51.085172"><ele>29.6</ele><time>2022-05-22T06:43:28.000Z</time></trkpt><trkpt lon="5.88275" lat="51.085115"><ele>29.6</ele><time>2022-05-22T06:43:29.000Z</time></trkpt><trkpt lon="5.882799" lat="51.085054"><ele>29.6</ele><time>2022-05-22T06:43:30.000Z</time></trkpt><trkpt lon="5.882847" lat="51.084993"><ele>29.6</ele><time>2022-05-22T06:43:31.000Z</time></trkpt><trkpt lon="5.882897" lat="51.084932"><ele>29.4</ele><time>2022-05-22T06:43:32.000Z</time></trkpt><trkpt lon="5.882947" lat="51.084871"><ele>29.4</ele><time>2022-05-22T06:43:33.000Z</time></trkpt><trkpt lon="5.882999" lat="51.084806"><ele>29.4</ele><time>2022-05-22T06:43:34.000Z</time></trkpt><trkpt lon="5.88305" lat="51.084745"><ele>29.4</ele><time>2022-05-22T06:43:35.000Z</time></trkpt><trkpt lon="5.883101" lat="51.084684"><ele>29.2</ele><time>2022-05-22T06:43:36.000Z</time></trkpt><trkpt lon="5.883142" lat="51.084638"><ele>29.2</ele><time>2022-05-22T06:43:37.000Z</time></trkpt><trkpt lon="5.883205" lat="51.08457"><ele>29.2</ele><time>2022-05-22T06:43:38.000Z</time></trkpt><trkpt lon="5.883262" lat="51.084508"><ele>29.2</ele><time>2022-05-22T06:43:39.000Z</time></trkpt><trkpt lon="5.883323" lat="51.084452"><ele>29.2</ele><time>2022-05-22T06:43:40.000Z</time></trkpt><trkpt lon="5.883391" lat="51.084397"><ele>29</ele><time>2022-05-22T06:43:41.000Z</time></trkpt><trkpt lon="5.883455" lat="51.084348"><ele>29</ele><time>2022-05-22T06:43:42.000Z</time></trkpt><trkpt lon="5.883518" lat="51.0843"><ele>29</ele><time>2022-05-22T06:43:43.000Z</time></trkpt><trkpt lon="5.883584" lat="51.084246"><ele>29</ele><time>2022-05-22T06:43:44.000Z</time></trkpt><trkpt lon="5.88365" lat="51.084195"><ele>29</ele><time>2022-05-22T06:43:45.000Z</time></trkpt><trkpt lon="5.883718" lat="51.084149"><ele>29</ele><time>2022-05-22T06:43:46.000Z</time></trkpt><trkpt lon="5.883782" lat="51.084096"><ele>29</ele><time>2022-05-22T06:43:47.000Z</time></trkpt><trkpt lon="5.883848" lat="51.08405"><ele>28.8</ele><time>2022-05-22T06:43:48.000Z</time></trkpt><trkpt lon="5.883912" lat="51.084001"><ele>28.8</ele><time>2022-05-22T06:43:49.000Z</time></trkpt><trkpt lon="5.883972" lat="51.083944"><ele>28.6</ele><time>2022-05-22T06:43:50.000Z</time></trkpt><trkpt lon="5.884027" lat="51.083886"><ele>28.6</ele><time>2022-05-22T06:43:51.000Z</time></trkpt><trkpt lon="5.884077" lat="51.083829"><ele>28.4</ele><time>2022-05-22T06:43:52.000Z</time></trkpt><trkpt lon="5.884122" lat="51.083765"><ele>28.4</ele><time>2022-05-22T06:43:53.000Z</time></trkpt><trkpt lon="5.884165" lat="51.0837"><ele>28.4</ele><time>2022-05-22T06:43:54.000Z</time></trkpt><trkpt lon="5.88421" lat="51.083639"><ele>28.6</ele><time>2022-05-22T06:43:55.000Z</time></trkpt><trkpt lon="5.884253" lat="51.083575"><ele>28.6</ele><time>2022-05-22T06:43:56.000Z</time></trkpt><trkpt lon="5.884296" lat="51.083513"><ele>28.8</ele><time>2022-05-22T06:43:57.000Z</time></trkpt><trkpt lon="5.884337" lat="51.083452"><ele>28.8</ele><time>2022-05-22T06:43:58.000Z</time></trkpt><trkpt lon="5.884379" lat="51.083394"><ele>28.8</ele><time>2022-05-22T06:43:59.000Z</time></trkpt><trkpt lon="5.884419" lat="51.08333"><ele>28.8</ele><time>2022-05-22T06:44:00.000Z</time></trkpt><trkpt lon="5.884461" lat="51.083272"><ele>29</ele><time>2022-05-22T06:44:01.000Z</time></trkpt><trkpt lon="5.884503" lat="51.083211"><ele>29.2</ele><time>2022-05-22T06:44:02.000Z</time></trkpt><trkpt lon="5.884544" lat="51.083151"><ele>29.2</ele><time>2022-05-22T06:44:03.000Z</time></trkpt><trkpt lon="5.884586" lat="51.08309"><ele>29.4</ele><time>2022-05-22T06:44:04.000Z</time></trkpt><trkpt lon="5.884634" lat="51.083029"><ele>29.6</ele><time>2022-05-22T06:44:05.000Z</time></trkpt><trkpt lon="5.884687" lat="51.082972"><ele>29.6</ele><time>2022-05-22T06:44:06.000Z</time></trkpt><trkpt lon="5.884745" lat="51.082914"><ele>29.8</ele><time>2022-05-22T06:44:07.000Z</time></trkpt><trkpt lon="5.884794" lat="51.08287"><ele>29.8</ele><time>2022-05-22T06:44:08.000Z</time></trkpt><trkpt lon="5.884862" lat="51.082809"><ele>29.6</ele><time>2022-05-22T06:44:09.000Z</time></trkpt><trkpt lon="5.88493" lat="51.082754"><ele>29.6</ele><time>2022-05-22T06:44:10.000Z</time></trkpt><trkpt lon="5.884999" lat="51.082704"><ele>29.6</ele><time>2022-05-22T06:44:11.000Z</time></trkpt><trkpt lon="5.885065" lat="51.08265"><ele>29.8</ele><time>2022-05-22T06:44:12.000Z</time></trkpt><trkpt lon="5.885131" lat="51.082601"><ele>29.8</ele><time>2022-05-22T06:44:13.000Z</time></trkpt><trkpt lon="5.885197" lat="51.082549"><ele>29.8</ele><time>2022-05-22T06:44:14.000Z</time></trkpt><trkpt lon="5.88526" lat="51.082498"><ele>30</ele><time>2022-05-22T06:44:15.000Z</time></trkpt><trkpt lon="5.885332" lat="51.082441"><ele>30.2</ele><time>2022-05-22T06:44:16.000Z</time></trkpt><trkpt lon="5.885398" lat="51.082387"><ele>30.2</ele><time>2022-05-22T06:44:17.000Z</time></trkpt><trkpt lon="5.885464" lat="51.08233"><ele>30.4</ele><time>2022-05-22T06:44:18.000Z</time></trkpt><trkpt lon="5.885531" lat="51.082277"><ele>30.2</ele><time>2022-05-22T06:44:19.000Z</time></trkpt><trkpt lon="5.8856" lat="51.082223"><ele>30</ele><time>2022-05-22T06:44:20.000Z</time></trkpt><trkpt lon="5.885668" lat="51.082171"><ele>30</ele><time>2022-05-22T06:44:21.000Z</time></trkpt><trkpt lon="5.885738" lat="51.08212"><ele>30</ele><time>2022-05-22T06:44:22.000Z</time></trkpt><trkpt lon="5.885812" lat="51.08207"><ele>30</ele><time>2022-05-22T06:44:23.000Z</time></trkpt><trkpt lon="5.885886" lat="51.082023"><ele>30</ele><time>2022-05-22T06:44:24.000Z</time></trkpt><trkpt lon="5.885961" lat="51.081973"><ele>29.8</ele><time>2022-05-22T06:44:25.000Z</time></trkpt><trkpt lon="5.886037" lat="51.081922"><ele>29.8</ele><time>2022-05-22T06:44:26.000Z</time></trkpt><trkpt lon="5.886107" lat="51.08187"><ele>29.8</ele><time>2022-05-22T06:44:27.000Z</time></trkpt><trkpt lon="5.886181" lat="51.081815"><ele>30</ele><time>2022-05-22T06:44:28.000Z</time></trkpt><trkpt lon="5.886251" lat="51.081766"><ele>30.2</ele><time>2022-05-22T06:44:29.000Z</time></trkpt><trkpt lon="5.886318" lat="51.081716"><ele>30.2</ele><time>2022-05-22T06:44:30.000Z</time></trkpt><trkpt lon="5.886385" lat="51.081667"><ele>30.2</ele><time>2022-05-22T06:44:31.000Z</time></trkpt><trkpt lon="5.886455" lat="51.081617"><ele>30.4</ele><time>2022-05-22T06:44:32.000Z</time></trkpt><trkpt lon="5.886523" lat="51.081567"><ele>30.4</ele><time>2022-05-22T06:44:33.000Z</time></trkpt><trkpt lon="5.886581" lat="51.08153"><ele>30.4</ele><time>2022-05-22T06:44:34.000Z</time></trkpt><trkpt lon="5.886658" lat="51.081475"><ele>30.4</ele><time>2022-05-22T06:44:35.000Z</time></trkpt><trkpt lon="5.886724" lat="51.081429"><ele>30.2</ele><time>2022-05-22T06:44:36.000Z</time></trkpt><trkpt lon="5.886792" lat="51.081378"><ele>30.2</ele><time>2022-05-22T06:44:37.000Z</time></trkpt><trkpt lon="5.886862" lat="51.081326"><ele>30.2</ele><time>2022-05-22T06:44:38.000Z</time></trkpt><trkpt lon="5.886924" lat="51.081278"><ele>30.2</ele><time>2022-05-22T06:44:39.000Z</time></trkpt><trkpt lon="5.886992" lat="51.081228"><ele>30.2</ele><time>2022-05-22T06:44:40.000Z</time></trkpt><trkpt lon="5.887062" lat="51.081182"><ele>30.2</ele><time>2022-05-22T06:44:41.000Z</time></trkpt><trkpt lon="5.887138" lat="51.081136"><ele>30</ele><time>2022-05-22T06:44:42.000Z</time></trkpt><trkpt lon="5.887217" lat="51.081094"><ele>29.8</ele><time>2022-05-22T06:44:43.000Z</time></trkpt><trkpt lon="5.8873" lat="51.081053"><ele>29.8</ele><time>2022-05-22T06:44:44.000Z</time></trkpt><trkpt lon="5.887381" lat="51.08101"><ele>29.8</ele><time>2022-05-22T06:44:45.000Z</time></trkpt><trkpt lon="5.887458" lat="51.080968"><ele>29.8</ele><time>2022-05-22T06:44:46.000Z</time></trkpt><trkpt lon="5.887527" lat="51.080922"><ele>29.8</ele><time>2022-05-22T06:44:47.000Z</time></trkpt><trkpt lon="5.887585" lat="51.080876"><ele>29.8</ele><time>2022-05-22T06:44:48.000Z</time></trkpt><trkpt lon="5.887637" lat="51.080828"><ele>29.8</ele><time>2022-05-22T06:44:49.000Z</time></trkpt><trkpt lon="5.887682" lat="51.080781"><ele>29.8</ele><time>2022-05-22T06:44:50.000Z</time></trkpt><trkpt lon="5.887718" lat="51.080741"><ele>29.8</ele><time>2022-05-22T06:44:51.000Z</time></trkpt><trkpt lon="5.887757" lat="51.080701"><ele>29.8</ele><time>2022-05-22T06:44:52.000Z</time></trkpt><trkpt lon="5.887797" lat="51.080664"><ele>29.6</ele><time>2022-05-22T06:44:53.000Z</time></trkpt><trkpt lon="5.887851" lat="51.080639"><ele>29.6</ele><time>2022-05-22T06:44:54.000Z</time></trkpt><trkpt lon="5.887916" lat="51.080624"><ele>29.6</ele><time>2022-05-22T06:44:55.000Z</time></trkpt><trkpt lon="5.887994" lat="51.080627"><ele>29.4</ele><time>2022-05-22T06:44:56.000Z</time></trkpt><trkpt lon="5.888079" lat="51.080646"><ele>29.4</ele><time>2022-05-22T06:44:57.000Z</time></trkpt><trkpt lon="5.888165" lat="51.080669"><ele>29.4</ele><time>2022-05-22T06:44:58.000Z</time></trkpt><trkpt lon="5.88826" lat="51.080692"><ele>29.4</ele><time>2022-05-22T06:44:59.000Z</time></trkpt><trkpt lon="5.888353" lat="51.080718"><ele>29.4</ele><time>2022-05-22T06:45:00.000Z</time></trkpt><trkpt lon="5.888452" lat="51.080745"><ele>29.4</ele><time>2022-05-22T06:45:01.000Z</time></trkpt><trkpt lon="5.888555" lat="51.080768"><ele>29.4</ele><time>2022-05-22T06:45:02.000Z</time></trkpt><trkpt lon="5.888659" lat="51.080791"><ele>29.4</ele><time>2022-05-22T06:45:03.000Z</time></trkpt><trkpt lon="5.888767" lat="51.080806"><ele>29.4</ele><time>2022-05-22T06:45:04.000Z</time></trkpt><trkpt lon="5.888875" lat="51.080814"><ele>29.6</ele><time>2022-05-22T06:45:05.000Z</time></trkpt><trkpt lon="5.888982" lat="51.080818"><ele>29.6</ele><time>2022-05-22T06:45:06.000Z</time></trkpt><trkpt lon="5.889096" lat="51.080818"><ele>29.6</ele><time>2022-05-22T06:45:07.000Z</time></trkpt><trkpt lon="5.889189" lat="51.080815"><ele>29.8</ele><time>2022-05-22T06:45:08.000Z</time></trkpt><trkpt lon="5.88932" lat="51.080811"><ele>29.6</ele><time>2022-05-22T06:45:09.000Z</time></trkpt><trkpt lon="5.889429" lat="51.080807"><ele>29.6</ele><time>2022-05-22T06:45:10.000Z</time></trkpt><trkpt lon="5.889537" lat="51.080803"><ele>29.6</ele><time>2022-05-22T06:45:11.000Z</time></trkpt><trkpt lon="5.889639" lat="51.080796"><ele>29.6</ele><time>2022-05-22T06:45:12.000Z</time></trkpt><trkpt lon="5.889749" lat="51.080792"><ele>29.6</ele><time>2022-05-22T06:45:13.000Z</time></trkpt><trkpt lon="5.889854" lat="51.080788"><ele>29.6</ele><time>2022-05-22T06:45:14.000Z</time></trkpt><trkpt lon="5.889956" lat="51.080784"><ele>29.6</ele><time>2022-05-22T06:45:15.000Z</time></trkpt><trkpt lon="5.890059" lat="51.08078"><ele>29.6</ele><time>2022-05-22T06:45:16.000Z</time></trkpt><trkpt lon="5.890171" lat="51.080776"><ele>29.6</ele><time>2022-05-22T06:45:17.000Z</time></trkpt><trkpt lon="5.890272" lat="51.080769"><ele>29.6</ele><time>2022-05-22T06:45:18.000Z</time></trkpt><trkpt lon="5.89038" lat="51.080765"><ele>29.8</ele><time>2022-05-22T06:45:19.000Z</time></trkpt><trkpt lon="5.890485" lat="51.080761"><ele>29.6</ele><time>2022-05-22T06:45:20.000Z</time></trkpt><trkpt lon="5.890589" lat="51.080757"><ele>29.8</ele><time>2022-05-22T06:45:21.000Z</time></trkpt><trkpt lon="5.890694" lat="51.080753"><ele>29.8</ele><time>2022-05-22T06:45:22.000Z</time></trkpt><trkpt lon="5.890797" lat="51.08075"><ele>29.8</ele><time>2022-05-22T06:45:23.000Z</time></trkpt><trkpt lon="5.890901" lat="51.080742"><ele>29.8</ele><time>2022-05-22T06:45:24.000Z</time></trkpt><trkpt lon="5.891003" lat="51.080738"><ele>29.8</ele><time>2022-05-22T06:45:25.000Z</time></trkpt><trkpt lon="5.891112" lat="51.080731"><ele>29.8</ele><time>2022-05-22T06:45:26.000Z</time></trkpt><trkpt lon="5.891218" lat="51.080727"><ele>29.8</ele><time>2022-05-22T06:45:27.000Z</time></trkpt><trkpt lon="5.891323" lat="51.080723"><ele>29.8</ele><time>2022-05-22T06:45:28.000Z</time></trkpt><trkpt lon="5.89143" lat="51.080719"><ele>29.8</ele><time>2022-05-22T06:45:29.000Z</time></trkpt><trkpt lon="5.891538" lat="51.080715"><ele>29.8</ele><time>2022-05-22T06:45:30.000Z</time></trkpt><trkpt lon="5.891645" lat="51.080711"><ele>30</ele><time>2022-05-22T06:45:31.000Z</time></trkpt><trkpt lon="5.891749" lat="51.080704"><ele>30</ele><time>2022-05-22T06:45:32.000Z</time></trkpt><trkpt lon="5.891857" lat="51.0807"><ele>30</ele><time>2022-05-22T06:45:33.000Z</time></trkpt><trkpt lon="5.891964" lat="51.080692"><ele>30</ele><time>2022-05-22T06:45:34.000Z</time></trkpt><trkpt lon="5.89207" lat="51.080689"><ele>30</ele><time>2022-05-22T06:45:35.000Z</time></trkpt><trkpt lon="5.892173" lat="51.080685"><ele>30</ele><time>2022-05-22T06:45:36.000Z</time></trkpt><trkpt lon="5.892287" lat="51.080677"><ele>29.8</ele><time>2022-05-22T06:45:37.000Z</time></trkpt><trkpt lon="5.89238" lat="51.080674"><ele>29.8</ele><time>2022-05-22T06:45:38.000Z</time></trkpt><trkpt lon="5.892498" lat="51.08067"><ele>29.6</ele><time>2022-05-22T06:45:39.000Z</time></trkpt><trkpt lon="5.892604" lat="51.080666"><ele>29.8</ele><time>2022-05-22T06:45:40.000Z</time></trkpt><trkpt lon="5.892706" lat="51.080662"><ele>29.8</ele><time>2022-05-22T06:45:41.000Z</time></trkpt><trkpt lon="5.892817" lat="51.080654"><ele>29.8</ele><time>2022-05-22T06:45:42.000Z</time></trkpt><trkpt lon="5.892923" lat="51.08065"><ele>29.8</ele><time>2022-05-22T06:45:43.000Z</time></trkpt><trkpt lon="5.893028" lat="51.080647"><ele>29.8</ele><time>2022-05-22T06:45:44.000Z</time></trkpt><trkpt lon="5.893133" lat="51.080639"><ele>29.8</ele><time>2022-05-22T06:45:45.000Z</time></trkpt><trkpt lon="5.893236" lat="51.080635"><ele>29.8</ele><time>2022-05-22T06:45:46.000Z</time></trkpt><trkpt lon="5.893341" lat="51.080628"><ele>29.8</ele><time>2022-05-22T06:45:47.000Z</time></trkpt><trkpt lon="5.893444" lat="51.080624"><ele>29.8</ele><time>2022-05-22T06:45:48.000Z</time></trkpt><trkpt lon="5.893549" lat="51.08062"><ele>29.8</ele><time>2022-05-22T06:45:49.000Z</time></trkpt><trkpt lon="5.893651" lat="51.080612"><ele>30</ele><time>2022-05-22T06:45:50.000Z</time></trkpt><trkpt lon="5.893753" lat="51.080608"><ele>30</ele><time>2022-05-22T06:45:51.000Z</time></trkpt><trkpt lon="5.893856" lat="51.080601"><ele>30.2</ele><time>2022-05-22T06:45:52.000Z</time></trkpt><trkpt lon="5.893955" lat="51.080597"><ele>30.4</ele><time>2022-05-22T06:45:53.000Z</time></trkpt><trkpt lon="5.894061" lat="51.080589"><ele>30.4</ele><time>2022-05-22T06:45:54.000Z</time></trkpt><trkpt lon="5.89416" lat="51.080586"><ele>30.6</ele><time>2022-05-22T06:45:55.000Z</time></trkpt><trkpt lon="5.894262" lat="51.080582"><ele>30.6</ele><time>2022-05-22T06:45:56.000Z</time></trkpt><trkpt lon="5.894364" lat="51.080578"><ele>30.8</ele><time>2022-05-22T06:45:57.000Z</time></trkpt><trkpt lon="5.894469" lat="51.080574"><ele>30.8</ele><time>2022-05-22T06:45:58.000Z</time></trkpt><trkpt lon="5.894574" lat="51.08057"><ele>31</ele><time>2022-05-22T06:45:59.000Z</time></trkpt><trkpt lon="5.894678" lat="51.080563"><ele>31.2</ele><time>2022-05-22T06:46:00.000Z</time></trkpt><trkpt lon="5.894774" lat="51.080559"><ele>31.2</ele><time>2022-05-22T06:46:01.000Z</time></trkpt><trkpt lon="5.894869" lat="51.080551"><ele>31.4</ele><time>2022-05-22T06:46:02.000Z</time></trkpt><trkpt lon="5.894953" lat="51.080548"><ele>31.4</ele><time>2022-05-22T06:46:03.000Z</time></trkpt><trkpt lon="5.895059" lat="51.08054"><ele>31.6</ele><time>2022-05-22T06:46:04.000Z</time></trkpt><trkpt lon="5.895155" lat="51.080532"><ele>31.8</ele><time>2022-05-22T06:46:05.000Z</time></trkpt><trkpt lon="5.895236" lat="51.080532"><ele>31.8</ele><time>2022-05-22T06:46:06.000Z</time></trkpt><trkpt lon="5.895341" lat="51.080528"><ele>32</ele><time>2022-05-22T06:46:07.000Z</time></trkpt><trkpt lon="5.895433" lat="51.080525"><ele>32</ele><time>2022-05-22T06:46:08.000Z</time></trkpt><trkpt lon="5.89553" lat="51.080521"><ele>32.2</ele><time>2022-05-22T06:46:09.000Z</time></trkpt><trkpt lon="5.895629" lat="51.080517"><ele>32.2</ele><time>2022-05-22T06:46:10.000Z</time></trkpt><trkpt lon="5.895728" lat="51.080517"><ele>32.2</ele><time>2022-05-22T06:46:11.000Z</time></trkpt><trkpt lon="5.895822" lat="51.080509"><ele>32.4</ele><time>2022-05-22T06:46:12.000Z</time></trkpt><trkpt lon="5.895918" lat="51.080506"><ele>32.4</ele><time>2022-05-22T06:46:13.000Z</time></trkpt><trkpt lon="5.896018" lat="51.080505"><ele>32.4</ele><time>2022-05-22T06:46:14.000Z</time></trkpt><trkpt lon="5.896116" lat="51.080502"><ele>32.4</ele><time>2022-05-22T06:46:15.000Z</time></trkpt><trkpt lon="5.896212" lat="51.080494"><ele>32.4</ele><time>2022-05-22T06:46:16.000Z</time></trkpt><trkpt lon="5.89631" lat="51.08049"><ele>32.4</ele><time>2022-05-22T06:46:17.000Z</time></trkpt><trkpt lon="5.896413" lat="51.080487"><ele>32.4</ele><time>2022-05-22T06:46:18.000Z</time></trkpt><trkpt lon="5.896518" lat="51.080483"><ele>32.4</ele><time>2022-05-22T06:46:19.000Z</time></trkpt><trkpt lon="5.896621" lat="51.080475"><ele>32.4</ele><time>2022-05-22T06:46:20.000Z</time></trkpt><trkpt lon="5.896722" lat="51.080475"><ele>32.4</ele><time>2022-05-22T06:46:21.000Z</time></trkpt><trkpt lon="5.896824" lat="51.080471"><ele>32.4</ele><time>2022-05-22T06:46:22.000Z</time></trkpt><trkpt lon="5.896927" lat="51.080467"><ele>32.4</ele><time>2022-05-22T06:46:23.000Z</time></trkpt><trkpt lon="5.89703" lat="51.080463"><ele>32.4</ele><time>2022-05-22T06:46:24.000Z</time></trkpt><trkpt lon="5.897139" lat="51.080463"><ele>32.4</ele><time>2022-05-22T06:46:25.000Z</time></trkpt><trkpt lon="5.897247" lat="51.08046"><ele>32.4</ele><time>2022-05-22T06:46:26.000Z</time></trkpt><trkpt lon="5.897353" lat="51.080456"><ele>32.4</ele><time>2022-05-22T06:46:27.000Z</time></trkpt><trkpt lon="5.897453" lat="51.080452"><ele>32.4</ele><time>2022-05-22T06:46:28.000Z</time></trkpt><trkpt lon="5.897568" lat="51.080448"><ele>32.4</ele><time>2022-05-22T06:46:29.000Z</time></trkpt><trkpt lon="5.89768" lat="51.080444"><ele>32.4</ele><time>2022-05-22T06:46:30.000Z</time></trkpt><trkpt lon="5.897797" lat="51.080441"><ele>32.6</ele><time>2022-05-22T06:46:31.000Z</time></trkpt><trkpt lon="5.897909" lat="51.080437"><ele>32.6</ele><time>2022-05-22T06:46:32.000Z</time></trkpt><trkpt lon="5.898019" lat="51.080437"><ele>32.6</ele><time>2022-05-22T06:46:33.000Z</time></trkpt><trkpt lon="5.898133" lat="51.080433"><ele>32.4</ele><time>2022-05-22T06:46:34.000Z</time></trkpt><trkpt lon="5.898245" lat="51.080437"><ele>32.6</ele><time>2022-05-22T06:46:35.000Z</time></trkpt><trkpt lon="5.898344" lat="51.080437"><ele>32.6</ele><time>2022-05-22T06:46:36.000Z</time></trkpt><trkpt lon="5.898464" lat="51.080437"><ele>32.6</ele><time>2022-05-22T06:46:37.000Z</time></trkpt><trkpt lon="5.89857" lat="51.080444"><ele>32.6</ele><time>2022-05-22T06:46:38.000Z</time></trkpt><trkpt lon="5.898688" lat="51.080448"><ele>32.8</ele><time>2022-05-22T06:46:39.000Z</time></trkpt><trkpt lon="5.8988" lat="51.080452"><ele>32.8</ele><time>2022-05-22T06:46:40.000Z</time></trkpt><trkpt lon="5.898907" lat="51.080459"><ele>32.8</ele><time>2022-05-22T06:46:41.000Z</time></trkpt><trkpt lon="5.899021" lat="51.080467"><ele>32.8</ele><time>2022-05-22T06:46:42.000Z</time></trkpt><trkpt lon="5.89913" lat="51.080475"><ele>32.8</ele><time>2022-05-22T06:46:43.000Z</time></trkpt><trkpt lon="5.899235" lat="51.080482"><ele>32.6</ele><time>2022-05-22T06:46:44.000Z</time></trkpt><trkpt lon="5.899339" lat="51.08049"><ele>32.6</ele><time>2022-05-22T06:46:45.000Z</time></trkpt><trkpt lon="5.899444" lat="51.080505"><ele>32.6</ele><time>2022-05-22T06:46:46.000Z</time></trkpt><trkpt lon="5.899554" lat="51.080517"><ele>32.6</ele><time>2022-05-22T06:46:47.000Z</time></trkpt><trkpt lon="5.899658" lat="51.080528"><ele>32.8</ele><time>2022-05-22T06:46:48.000Z</time></trkpt><trkpt lon="5.899759" lat="51.080543"><ele>32.8</ele><time>2022-05-22T06:46:49.000Z</time></trkpt><trkpt lon="5.89986" lat="51.080555"><ele>33</ele><time>2022-05-22T06:46:50.000Z</time></trkpt><trkpt lon="5.899951" lat="51.080568"><ele>33</ele><time>2022-05-22T06:46:51.000Z</time></trkpt><trkpt lon="5.900073" lat="51.080581"><ele>33.2</ele><time>2022-05-22T06:46:52.000Z</time></trkpt><trkpt lon="5.900174" lat="51.080592"><ele>33.2</ele><time>2022-05-22T06:46:53.000Z</time></trkpt><trkpt lon="5.900279" lat="51.080608"><ele>33.2</ele><time>2022-05-22T06:46:54.000Z</time></trkpt><trkpt lon="5.900372" lat="51.080619"><ele>32.8</ele><time>2022-05-22T06:46:55.000Z</time></trkpt><trkpt lon="5.90048" lat="51.080631"><ele>32.6</ele><time>2022-05-22T06:46:56.000Z</time></trkpt><trkpt lon="5.900591" lat="51.080642"><ele>32.2</ele><time>2022-05-22T06:46:57.000Z</time></trkpt><trkpt lon="5.90071" lat="51.080657"><ele>32</ele><time>2022-05-22T06:46:58.000Z</time></trkpt><trkpt lon="5.900828" lat="51.080669"><ele>31.8</ele><time>2022-05-22T06:46:59.000Z</time></trkpt><trkpt lon="5.90095" lat="51.080677"><ele>31.8</ele><time>2022-05-22T06:47:00.000Z</time></trkpt><trkpt lon="5.901068" lat="51.080688"><ele>31.6</ele><time>2022-05-22T06:47:01.000Z</time></trkpt><trkpt lon="5.901179" lat="51.080692"><ele>31.6</ele><time>2022-05-22T06:47:02.000Z</time></trkpt><trkpt lon="5.901298" lat="51.0807"><ele>31.6</ele><time>2022-05-22T06:47:03.000Z</time></trkpt><trkpt lon="5.901412" lat="51.080715"><ele>31.4</ele><time>2022-05-22T06:47:04.000Z</time></trkpt><trkpt lon="5.901524" lat="51.080723"><ele>31.4</ele><time>2022-05-22T06:47:05.000Z</time></trkpt><trkpt lon="5.901628" lat="51.080733"><ele>31.4</ele><time>2022-05-22T06:47:06.000Z</time></trkpt><trkpt lon="5.901733" lat="51.080745"><ele>31.4</ele><time>2022-05-22T06:47:07.000Z</time></trkpt><trkpt lon="5.901832" lat="51.080756"><ele>31.6</ele><time>2022-05-22T06:47:08.000Z</time></trkpt><trkpt lon="5.90195" lat="51.080768"><ele>31.6</ele><time>2022-05-22T06:47:09.000Z</time></trkpt><trkpt lon="5.902062" lat="51.080783"><ele>31.6</ele><time>2022-05-22T06:47:10.000Z</time></trkpt><trkpt lon="5.902175" lat="51.080791"><ele>31.6</ele><time>2022-05-22T06:47:11.000Z</time></trkpt><trkpt lon="5.902288" lat="51.080806"><ele>31.6</ele><time>2022-05-22T06:47:12.000Z</time></trkpt><trkpt lon="5.902395" lat="51.080818"><ele>31.6</ele><time>2022-05-22T06:47:13.000Z</time></trkpt><trkpt lon="5.902505" lat="51.080833"><ele>31.6</ele><time>2022-05-22T06:47:14.000Z</time></trkpt><trkpt lon="5.902618" lat="51.080844"><ele>31.6</ele><time>2022-05-22T06:47:15.000Z</time></trkpt><trkpt lon="5.902733" lat="51.080856"><ele>31.6</ele><time>2022-05-22T06:47:16.000Z</time></trkpt><trkpt lon="5.902846" lat="51.080867"><ele>31.6</ele><time>2022-05-22T06:47:17.000Z</time></trkpt><trkpt lon="5.902956" lat="51.080875"><ele>31.6</ele><time>2022-05-22T06:47:18.000Z</time></trkpt><trkpt lon="5.903071" lat="51.080886"><ele>31.6</ele><time>2022-05-22T06:47:19.000Z</time></trkpt><trkpt lon="5.903182" lat="51.080898"><ele>31.6</ele><time>2022-05-22T06:47:20.000Z</time></trkpt><trkpt lon="5.903292" lat="51.080909"><ele>31.6</ele><time>2022-05-22T06:47:21.000Z</time></trkpt><trkpt lon="5.903401" lat="51.080917"><ele>31.6</ele><time>2022-05-22T06:47:22.000Z</time></trkpt><trkpt lon="5.903506" lat="51.080928"><ele>31.4</ele><time>2022-05-22T06:47:23.000Z</time></trkpt><trkpt lon="5.903612" lat="51.080943"><ele>31.4</ele><time>2022-05-22T06:47:24.000Z</time></trkpt><trkpt lon="5.903719" lat="51.080951"><ele>31.4</ele><time>2022-05-22T06:47:25.000Z</time></trkpt><trkpt lon="5.903826" lat="51.080963"><ele>31.4</ele><time>2022-05-22T06:47:26.000Z</time></trkpt><trkpt lon="5.903935" lat="51.080974"><ele>31.4</ele><time>2022-05-22T06:47:27.000Z</time></trkpt><trkpt lon="5.904039" lat="51.080986"><ele>31.4</ele><time>2022-05-22T06:47:28.000Z</time></trkpt><trkpt lon="5.904142" lat="51.080997"><ele>31.4</ele><time>2022-05-22T06:47:29.000Z</time></trkpt><trkpt lon="5.904252" lat="51.081008"><ele>31.2</ele><time>2022-05-22T06:47:30.000Z</time></trkpt><trkpt lon="5.904367" lat="51.08102"><ele>31.2</ele><time>2022-05-22T06:47:31.000Z</time></trkpt><trkpt lon="5.904478" lat="51.081035"><ele>31.2</ele><time>2022-05-22T06:47:32.000Z</time></trkpt><trkpt lon="5.904587" lat="51.08105"><ele>31.2</ele><time>2022-05-22T06:47:33.000Z</time></trkpt><trkpt lon="5.904693" lat="51.081062"><ele>31.2</ele><time>2022-05-22T06:47:34.000Z</time></trkpt><trkpt lon="5.904805" lat="51.081073"><ele>31.4</ele><time>2022-05-22T06:47:35.000Z</time></trkpt><trkpt lon="5.904909" lat="51.081085"><ele>31.4</ele><time>2022-05-22T06:47:36.000Z</time></trkpt><trkpt lon="5.905012" lat="51.081096"><ele>31.2</ele><time>2022-05-22T06:47:37.000Z</time></trkpt><trkpt lon="5.905118" lat="51.081108"><ele>31.2</ele><time>2022-05-22T06:47:38.000Z</time></trkpt><trkpt lon="5.905227" lat="51.081119"><ele>31.2</ele><time>2022-05-22T06:47:39.000Z</time></trkpt><trkpt lon="5.905331" lat="51.081127"><ele>31.2</ele><time>2022-05-22T06:47:40.000Z</time></trkpt><trkpt lon="5.90544" lat="51.081138"><ele>31.4</ele><time>2022-05-22T06:47:41.000Z</time></trkpt><trkpt lon="5.905549" lat="51.081149"><ele>31.4</ele><time>2022-05-22T06:47:42.000Z</time></trkpt><trkpt lon="5.905657" lat="51.081161"><ele>31.4</ele><time>2022-05-22T06:47:43.000Z</time></trkpt><trkpt lon="5.905771" lat="51.081169"><ele>31.2</ele><time>2022-05-22T06:47:44.000Z</time></trkpt><trkpt lon="5.905879" lat="51.081176"><ele>31.2</ele><time>2022-05-22T06:47:45.000Z</time></trkpt><trkpt lon="5.905991" lat="51.081188"><ele>31.2</ele><time>2022-05-22T06:47:46.000Z</time></trkpt><trkpt lon="5.906103" lat="51.081199"><ele>31.2</ele><time>2022-05-22T06:47:47.000Z</time></trkpt><trkpt lon="5.906219" lat="51.08121"><ele>31.2</ele><time>2022-05-22T06:47:48.000Z</time></trkpt><trkpt lon="5.906332" lat="51.081222"><ele>31.2</ele><time>2022-05-22T06:47:49.000Z</time></trkpt><trkpt lon="5.906443" lat="51.08123"><ele>31.2</ele><time>2022-05-22T06:47:50.000Z</time></trkpt><trkpt lon="5.906547" lat="51.081241"><ele>31.2</ele><time>2022-05-22T06:47:51.000Z</time></trkpt><trkpt lon="5.906655" lat="51.081252"><ele>31.2</ele><time>2022-05-22T06:47:52.000Z</time></trkpt><trkpt lon="5.906761" lat="51.081264"><ele>31.2</ele><time>2022-05-22T06:47:53.000Z</time></trkpt><trkpt lon="5.906872" lat="51.081272"><ele>31.4</ele><time>2022-05-22T06:47:54.000Z</time></trkpt><trkpt lon="5.906982" lat="51.081283"><ele>31.4</ele><time>2022-05-22T06:47:55.000Z</time></trkpt><trkpt lon="5.907095" lat="51.081294"><ele>31.4</ele><time>2022-05-22T06:47:56.000Z</time></trkpt><trkpt lon="5.907208" lat="51.081302"><ele>31.4</ele><time>2022-05-22T06:47:57.000Z</time></trkpt><trkpt lon="5.907321" lat="51.081306"><ele>31.4</ele><time>2022-05-22T06:47:58.000Z</time></trkpt><trkpt lon="5.90743" lat="51.081314"><ele>31.4</ele><time>2022-05-22T06:47:59.000Z</time></trkpt><trkpt lon="5.907542" lat="51.081325"><ele>31.4</ele><time>2022-05-22T06:48:00.000Z</time></trkpt><trkpt lon="5.907657" lat="51.081336"><ele>31.4</ele><time>2022-05-22T06:48:01.000Z</time></trkpt><trkpt lon="5.907767" lat="51.081351"><ele>31.2</ele><time>2022-05-22T06:48:02.000Z</time></trkpt><trkpt lon="5.907882" lat="51.081363"><ele>31.2</ele><time>2022-05-22T06:48:03.000Z</time></trkpt><trkpt lon="5.907991" lat="51.081374"><ele>31.2</ele><time>2022-05-22T06:48:04.000Z</time></trkpt><trkpt lon="5.908101" lat="51.081382"><ele>31.2</ele><time>2022-05-22T06:48:05.000Z</time></trkpt><trkpt lon="5.908212" lat="51.08139"><ele>31.2</ele><time>2022-05-22T06:48:06.000Z</time></trkpt><trkpt lon="5.908325" lat="51.081401"><ele>31</ele><time>2022-05-22T06:48:07.000Z</time></trkpt><trkpt lon="5.908425" lat="51.081412"><ele>31</ele><time>2022-05-22T06:48:08.000Z</time></trkpt><trkpt lon="5.908546" lat="51.081424"><ele>31</ele><time>2022-05-22T06:48:09.000Z</time></trkpt><trkpt lon="5.908657" lat="51.081432"><ele>31</ele><time>2022-05-22T06:48:10.000Z</time></trkpt><trkpt lon="5.908768" lat="51.081443"><ele>31</ele><time>2022-05-22T06:48:11.000Z</time></trkpt><trkpt lon="5.908877" lat="51.081451"><ele>31.2</ele><time>2022-05-22T06:48:12.000Z</time></trkpt><trkpt lon="5.908987" lat="51.081462"><ele>31.2</ele><time>2022-05-22T06:48:13.000Z</time></trkpt><trkpt lon="5.909092" lat="51.08147"><ele>31.2</ele><time>2022-05-22T06:48:14.000Z</time></trkpt><trkpt lon="5.909209" lat="51.081476"><ele>31.2</ele><time>2022-05-22T06:48:15.000Z</time></trkpt><trkpt lon="5.909327" lat="51.081483"><ele>31</ele><time>2022-05-22T06:48:16.000Z</time></trkpt><trkpt lon="5.909444" lat="51.081489"><ele>31</ele><time>2022-05-22T06:48:17.000Z</time></trkpt><trkpt lon="5.909558" lat="51.081493"><ele>31</ele><time>2022-05-22T06:48:18.000Z</time></trkpt><trkpt lon="5.909659" lat="51.081499"><ele>31</ele><time>2022-05-22T06:48:19.000Z</time></trkpt><trkpt lon="5.909758" lat="51.081516"><ele>31</ele><time>2022-05-22T06:48:20.000Z</time></trkpt><trkpt lon="5.909856" lat="51.081523"><ele>31</ele><time>2022-05-22T06:48:21.000Z</time></trkpt><trkpt lon="5.90996" lat="51.081527"><ele>31</ele><time>2022-05-22T06:48:22.000Z</time></trkpt><trkpt lon="5.910072" lat="51.081535"><ele>31</ele><time>2022-05-22T06:48:23.000Z</time></trkpt><trkpt lon="5.91018" lat="51.081543"><ele>31</ele><time>2022-05-22T06:48:24.000Z</time></trkpt><trkpt lon="5.910283" lat="51.08155"><ele>31</ele><time>2022-05-22T06:48:25.000Z</time></trkpt><trkpt lon="5.910388" lat="51.081558"><ele>31.2</ele><time>2022-05-22T06:48:26.000Z</time></trkpt><trkpt lon="5.910491" lat="51.081562"><ele>31.2</ele><time>2022-05-22T06:48:27.000Z</time></trkpt><trkpt lon="5.910594" lat="51.081573"><ele>31.2</ele><time>2022-05-22T06:48:28.000Z</time></trkpt><trkpt lon="5.910702" lat="51.081581"><ele>31.2</ele><time>2022-05-22T06:48:29.000Z</time></trkpt><trkpt lon="5.910805" lat="51.081585"><ele>31.2</ele><time>2022-05-22T06:48:30.000Z</time></trkpt><trkpt lon="5.910909" lat="51.081592"><ele>31.2</ele><time>2022-05-22T06:48:31.000Z</time></trkpt><trkpt lon="5.911016" lat="51.0816"><ele>31.2</ele><time>2022-05-22T06:48:32.000Z</time></trkpt><trkpt lon="5.911123" lat="51.081607"><ele>31.2</ele><time>2022-05-22T06:48:33.000Z</time></trkpt><trkpt lon="5.911231" lat="51.081611"><ele>31.2</ele><time>2022-05-22T06:48:34.000Z</time></trkpt><trkpt lon="5.911339" lat="51.081619"><ele>31.2</ele><time>2022-05-22T06:48:35.000Z</time></trkpt><trkpt lon="5.911439" lat="51.081626"><ele>31.2</ele><time>2022-05-22T06:48:36.000Z</time></trkpt><trkpt lon="5.911551" lat="51.081634"><ele>31.2</ele><time>2022-05-22T06:48:37.000Z</time></trkpt><trkpt lon="5.911654" lat="51.081638"><ele>31.2</ele><time>2022-05-22T06:48:38.000Z</time></trkpt><trkpt lon="5.911757" lat="51.081642"><ele>31.2</ele><time>2022-05-22T06:48:39.000Z</time></trkpt><trkpt lon="5.911864" lat="51.081642"><ele>31</ele><time>2022-05-22T06:48:40.000Z</time></trkpt><trkpt lon="5.911969" lat="51.081639"><ele>31</ele><time>2022-05-22T06:48:41.000Z</time></trkpt><trkpt lon="5.912073" lat="51.081631"><ele>31</ele><time>2022-05-22T06:48:42.000Z</time></trkpt><trkpt lon="5.912167" lat="51.081616"><ele>31.2</ele><time>2022-05-22T06:48:43.000Z</time></trkpt><trkpt lon="5.912261" lat="51.081612"><ele>31.4</ele><time>2022-05-22T06:48:44.000Z</time></trkpt><trkpt lon="5.912344" lat="51.081619"><ele>31.4</ele><time>2022-05-22T06:48:45.000Z</time></trkpt><trkpt lon="5.91241" lat="51.081644"><ele>31.4</ele><time>2022-05-22T06:48:46.000Z</time></trkpt><trkpt lon="5.912472" lat="51.081685"><ele>31.4</ele><time>2022-05-22T06:48:47.000Z</time></trkpt><trkpt lon="5.912525" lat="51.081732"><ele>31.4</ele><time>2022-05-22T06:48:48.000Z</time></trkpt><trkpt lon="5.912565" lat="51.081781"><ele>31.4</ele><time>2022-05-22T06:48:49.000Z</time></trkpt><trkpt lon="5.912602" lat="51.081831"><ele>31.4</ele><time>2022-05-22T06:48:50.000Z</time></trkpt><trkpt lon="5.912646" lat="51.081885"><ele>31.4</ele><time>2022-05-22T06:48:51.000Z</time></trkpt><trkpt lon="5.912692" lat="51.081942"><ele>31.4</ele><time>2022-05-22T06:48:52.000Z</time></trkpt><trkpt lon="5.912741" lat="51.081995"><ele>31.4</ele><time>2022-05-22T06:48:53.000Z</time></trkpt><trkpt lon="5.912782" lat="51.082044"><ele>31.6</ele><time>2022-05-22T06:48:54.000Z</time></trkpt><trkpt lon="5.912838" lat="51.082111"><ele>31.6</ele><time>2022-05-22T06:48:55.000Z</time></trkpt><trkpt lon="5.912885" lat="51.082165"><ele>31.6</ele><time>2022-05-22T06:48:56.000Z</time></trkpt><trkpt lon="5.912933" lat="51.082223"><ele>31.8</ele><time>2022-05-22T06:48:57.000Z</time></trkpt><trkpt lon="5.912982" lat="51.082274"><ele>31.8</ele><time>2022-05-22T06:48:58.000Z</time></trkpt><trkpt lon="5.913031" lat="51.082326"><ele>31.8</ele><time>2022-05-22T06:48:59.000Z</time></trkpt><trkpt lon="5.913082" lat="51.082388"><ele>31.8</ele><time>2022-05-22T06:49:00.000Z</time></trkpt><trkpt lon="5.913133" lat="51.082441"><ele>31.8</ele><time>2022-05-22T06:49:01.000Z</time></trkpt><trkpt lon="5.913187" lat="51.082499"><ele>31.8</ele><time>2022-05-22T06:49:02.000Z</time></trkpt><trkpt lon="5.913241" lat="51.082557"><ele>32</ele><time>2022-05-22T06:49:03.000Z</time></trkpt><trkpt lon="5.913294" lat="51.082616"><ele>32</ele><time>2022-05-22T06:49:04.000Z</time></trkpt><trkpt lon="5.913348" lat="51.082675"><ele>32.2</ele><time>2022-05-22T06:49:05.000Z</time></trkpt><trkpt lon="5.913396" lat="51.08273"><ele>32.2</ele><time>2022-05-22T06:49:06.000Z</time></trkpt><trkpt lon="5.913444" lat="51.082786"><ele>32.2</ele><time>2022-05-22T06:49:07.000Z</time></trkpt><trkpt lon="5.913494" lat="51.082839"><ele>32.4</ele><time>2022-05-22T06:49:08.000Z</time></trkpt><trkpt lon="5.913544" lat="51.0829"><ele>32.4</ele><time>2022-05-22T06:49:09.000Z</time></trkpt><trkpt lon="5.913591" lat="51.082959"><ele>32.4</ele><time>2022-05-22T06:49:10.000Z</time></trkpt><trkpt lon="5.91364" lat="51.083021"><ele>32.4</ele><time>2022-05-22T06:49:11.000Z</time></trkpt><trkpt lon="5.913689" lat="51.083083"><ele>32.4</ele><time>2022-05-22T06:49:12.000Z</time></trkpt><trkpt lon="5.913734" lat="51.083151"><ele>32.6</ele><time>2022-05-22T06:49:13.000Z</time></trkpt><trkpt lon="5.913777" lat="51.08322"><ele>32.8</ele><time>2022-05-22T06:49:14.000Z</time></trkpt><trkpt lon="5.913817" lat="51.083281"><ele>32.8</ele><time>2022-05-22T06:49:15.000Z</time></trkpt><trkpt lon="5.913852" lat="51.083332"><ele>32.8</ele><time>2022-05-22T06:49:16.000Z</time></trkpt><trkpt lon="5.913891" lat="51.083388"><ele>32.8</ele><time>2022-05-22T06:49:17.000Z</time></trkpt><trkpt lon="5.913921" lat="51.083441"><ele>32.8</ele><time>2022-05-22T06:49:18.000Z</time></trkpt><trkpt lon="5.913957" lat="51.083497"><ele>32.6</ele><time>2022-05-22T06:49:19.000Z</time></trkpt><trkpt lon="5.913994" lat="51.083555"><ele>32.4</ele><time>2022-05-22T06:49:20.000Z</time></trkpt><trkpt lon="5.914033" lat="51.083616"><ele>32.4</ele><time>2022-05-22T06:49:21.000Z</time></trkpt><trkpt lon="5.91408" lat="51.083685"><ele>32.4</ele><time>2022-05-22T06:49:22.000Z</time></trkpt><trkpt lon="5.914129" lat="51.083747"><ele>32.4</ele><time>2022-05-22T06:49:23.000Z</time></trkpt><trkpt lon="5.914178" lat="51.083804"><ele>32.4</ele><time>2022-05-22T06:49:24.000Z</time></trkpt><trkpt lon="5.914226" lat="51.083857"><ele>32.2</ele><time>2022-05-22T06:49:25.000Z</time></trkpt><trkpt lon="5.914275" lat="51.08391"><ele>32.2</ele><time>2022-05-22T06:49:26.000Z</time></trkpt><trkpt lon="5.914325" lat="51.083962"><ele>32.2</ele><time>2022-05-22T06:49:27.000Z</time></trkpt><trkpt lon="5.914371" lat="51.084014"><ele>32.2</ele><time>2022-05-22T06:49:28.000Z</time></trkpt><trkpt lon="5.914412" lat="51.08407"><ele>32</ele><time>2022-05-22T06:49:29.000Z</time></trkpt><trkpt lon="5.914453" lat="51.084117"><ele>32</ele><time>2022-05-22T06:49:30.000Z</time></trkpt><trkpt lon="5.9145" lat="51.084158"><ele>32</ele><time>2022-05-22T06:49:31.000Z</time></trkpt><trkpt lon="5.914574" lat="51.084213"><ele>32</ele><time>2022-05-22T06:49:32.000Z</time></trkpt><trkpt lon="5.914645" lat="51.084265"><ele>31.8</ele><time>2022-05-22T06:49:33.000Z</time></trkpt><trkpt lon="5.914709" lat="51.084322"><ele>31.8</ele><time>2022-05-22T06:49:34.000Z</time></trkpt><trkpt lon="5.914772" lat="51.084368"><ele>31.6</ele><time>2022-05-22T06:49:35.000Z</time></trkpt><trkpt lon="5.914832" lat="51.084407"><ele>31.6</ele><time>2022-05-22T06:49:36.000Z</time></trkpt><trkpt lon="5.914888" lat="51.084452"><ele>31.4</ele><time>2022-05-22T06:49:37.000Z</time></trkpt><trkpt lon="5.914944" lat="51.084498"><ele>31.4</ele><time>2022-05-22T06:49:38.000Z</time></trkpt><trkpt lon="5.914992" lat="51.084548"><ele>31.4</ele><time>2022-05-22T06:49:39.000Z</time></trkpt><trkpt lon="5.915033" lat="51.084597"><ele>31.2</ele><time>2022-05-22T06:49:40.000Z</time></trkpt><trkpt lon="5.915079" lat="51.084654"><ele>31.2</ele><time>2022-05-22T06:49:41.000Z</time></trkpt><trkpt lon="5.915122" lat="51.084708"><ele>31.2</ele><time>2022-05-22T06:49:42.000Z</time></trkpt><trkpt lon="5.915174" lat="51.084761"><ele>31.2</ele><time>2022-05-22T06:49:43.000Z</time></trkpt><trkpt lon="5.915219" lat="51.084815"><ele>31.2</ele><time>2022-05-22T06:49:44.000Z</time></trkpt><trkpt lon="5.915272" lat="51.084872"><ele>31.2</ele><time>2022-05-22T06:49:45.000Z</time></trkpt><trkpt lon="5.915336" lat="51.084929"><ele>31.2</ele><time>2022-05-22T06:49:46.000Z</time></trkpt><trkpt lon="5.915386" lat="51.084982"><ele>31.2</ele><time>2022-05-22T06:49:47.000Z</time></trkpt><trkpt lon="5.91545" lat="51.08504"><ele>31.2</ele><time>2022-05-22T06:49:48.000Z</time></trkpt><trkpt lon="5.915519" lat="51.085094"><ele>31.2</ele><time>2022-05-22T06:49:49.000Z</time></trkpt><trkpt lon="5.915588" lat="51.085157"><ele>31.2</ele><time>2022-05-22T06:49:50.000Z</time></trkpt><trkpt lon="5.915646" lat="51.085214"><ele>31.2</ele><time>2022-05-22T06:49:51.000Z</time></trkpt><trkpt lon="5.915705" lat="51.085276"><ele>31.2</ele><time>2022-05-22T06:49:52.000Z</time></trkpt><trkpt lon="5.915767" lat="51.085341"><ele>31.2</ele><time>2022-05-22T06:49:53.000Z</time></trkpt><trkpt lon="5.915826" lat="51.085406"><ele>31.2</ele><time>2022-05-22T06:49:54.000Z</time></trkpt><trkpt lon="5.915886" lat="51.085471"><ele>31.2</ele><time>2022-05-22T06:49:55.000Z</time></trkpt><trkpt lon="5.915931" lat="51.085532"><ele>31.2</ele><time>2022-05-22T06:49:56.000Z</time></trkpt><trkpt lon="5.915985" lat="51.085604"><ele>31.2</ele><time>2022-05-22T06:49:57.000Z</time></trkpt><trkpt lon="5.916036" lat="51.085671"><ele>31.2</ele><time>2022-05-22T06:49:58.000Z</time></trkpt><trkpt lon="5.916092" lat="51.085742"><ele>31.2</ele><time>2022-05-22T06:49:59.000Z</time></trkpt><trkpt lon="5.916142" lat="51.085797"><ele>31.2</ele><time>2022-05-22T06:50:00.000Z</time></trkpt><trkpt lon="5.916203" lat="51.085861"><ele>31</ele><time>2022-05-22T06:50:01.000Z</time></trkpt><trkpt lon="5.916258" lat="51.085924"><ele>31</ele><time>2022-05-22T06:50:02.000Z</time></trkpt><trkpt lon="5.916318" lat="51.085987"><ele>31</ele><time>2022-05-22T06:50:03.000Z</time></trkpt><trkpt lon="5.916375" lat="51.086043"><ele>31.2</ele><time>2022-05-22T06:50:04.000Z</time></trkpt><trkpt lon="5.91642" lat="51.086094"><ele>31.2</ele><time>2022-05-22T06:50:05.000Z</time></trkpt><trkpt lon="5.916482" lat="51.086167"><ele>31.2</ele><time>2022-05-22T06:50:06.000Z</time></trkpt><trkpt lon="5.916543" lat="51.086231"><ele>31.2</ele><time>2022-05-22T06:50:07.000Z</time></trkpt><trkpt lon="5.916606" lat="51.086298"><ele>31.2</ele><time>2022-05-22T06:50:08.000Z</time></trkpt><trkpt lon="5.916665" lat="51.086356"><ele>31.2</ele><time>2022-05-22T06:50:09.000Z</time></trkpt><trkpt lon="5.916724" lat="51.086423"><ele>31.2</ele><time>2022-05-22T06:50:10.000Z</time></trkpt><trkpt lon="5.916777" lat="51.086489"><ele>31.2</ele><time>2022-05-22T06:50:11.000Z</time></trkpt><trkpt lon="5.916829" lat="51.08655"><ele>31.4</ele><time>2022-05-22T06:50:12.000Z</time></trkpt><trkpt lon="5.916885" lat="51.086615"><ele>31.4</ele><time>2022-05-22T06:50:13.000Z</time></trkpt><trkpt lon="5.916941" lat="51.08668"><ele>31.4</ele><time>2022-05-22T06:50:14.000Z</time></trkpt><trkpt lon="5.917001" lat="51.086751"><ele>31.4</ele><time>2022-05-22T06:50:15.000Z</time></trkpt><trkpt lon="5.917057" lat="51.086815"><ele>31.2</ele><time>2022-05-22T06:50:16.000Z</time></trkpt><trkpt lon="5.917115" lat="51.086878"><ele>31.2</ele><time>2022-05-22T06:50:17.000Z</time></trkpt><trkpt lon="5.917172" lat="51.086936"><ele>31</ele><time>2022-05-22T06:50:18.000Z</time></trkpt><trkpt lon="5.91723" lat="51.087004"><ele>31</ele><time>2022-05-22T06:50:19.000Z</time></trkpt><trkpt lon="5.917285" lat="51.087069"><ele>31</ele><time>2022-05-22T06:50:20.000Z</time></trkpt><trkpt lon="5.917339" lat="51.087136"><ele>31</ele><time>2022-05-22T06:50:21.000Z</time></trkpt><trkpt lon="5.917392" lat="51.087199"><ele>31</ele><time>2022-05-22T06:50:22.000Z</time></trkpt><trkpt lon="5.917451" lat="51.087264"><ele>31</ele><time>2022-05-22T06:50:23.000Z</time></trkpt><trkpt lon="5.917516" lat="51.087332"><ele>31</ele><time>2022-05-22T06:50:24.000Z</time></trkpt><trkpt lon="5.917578" lat="51.0874"><ele>31</ele><time>2022-05-22T06:50:25.000Z</time></trkpt><trkpt lon="5.917627" lat="51.087451"><ele>31</ele><time>2022-05-22T06:50:26.000Z</time></trkpt><trkpt lon="5.917672" lat="51.0875"><ele>31</ele><time>2022-05-22T06:50:27.000Z</time></trkpt><trkpt lon="5.917727" lat="51.087561"><ele>31</ele><time>2022-05-22T06:50:28.000Z</time></trkpt><trkpt lon="5.917765" lat="51.087608"><ele>31</ele><time>2022-05-22T06:50:29.000Z</time></trkpt><trkpt lon="5.917804" lat="51.087666"><ele>31.2</ele><time>2022-05-22T06:50:30.000Z</time></trkpt><trkpt lon="5.917842" lat="51.08774"><ele>31.2</ele><time>2022-05-22T06:50:31.000Z</time></trkpt><trkpt lon="5.917861" lat="51.087809"><ele>31.2</ele><time>2022-05-22T06:50:32.000Z</time></trkpt><trkpt lon="5.917847" lat="51.087866"><ele>31.2</ele><time>2022-05-22T06:50:33.000Z</time></trkpt><trkpt lon="5.917836" lat="51.087923"><ele>31.2</ele><time>2022-05-22T06:50:34.000Z</time></trkpt><trkpt lon="5.917835" lat="51.087981"><ele>31.4</ele><time>2022-05-22T06:50:35.000Z</time></trkpt><trkpt lon="5.917853" lat="51.088042"><ele>31.4</ele><time>2022-05-22T06:50:36.000Z</time></trkpt><trkpt lon="5.917879" lat="51.088098"><ele>31.4</ele><time>2022-05-22T06:50:37.000Z</time></trkpt><trkpt lon="5.917906" lat="51.088168"><ele>31.4</ele><time>2022-05-22T06:50:38.000Z</time></trkpt><trkpt lon="5.917924" lat="51.088239"><ele>31.4</ele><time>2022-05-22T06:50:39.000Z</time></trkpt><trkpt lon="5.917923" lat="51.088309"><ele>31.4</ele><time>2022-05-22T06:50:40.000Z</time></trkpt><trkpt lon="5.917909" lat="51.08837"><ele>31.6</ele><time>2022-05-22T06:50:41.000Z</time></trkpt><trkpt lon="5.917898" lat="51.088424"><ele>31.6</ele><time>2022-05-22T06:50:42.000Z</time></trkpt><trkpt lon="5.91791" lat="51.088466"><ele>31.8</ele><time>2022-05-22T06:50:43.000Z</time></trkpt><trkpt lon="5.91793" lat="51.0885"><ele>31.8</ele><time>2022-05-22T06:50:44.000Z</time></trkpt><trkpt lon="5.917953" lat="51.088538"><ele>31.8</ele><time>2022-05-22T06:50:45.000Z</time></trkpt><trkpt lon="5.917978" lat="51.08858"><ele>31.8</ele><time>2022-05-22T06:50:46.000Z</time></trkpt><trkpt lon="5.918012" lat="51.088611"><ele>31.8</ele><time>2022-05-22T06:50:47.000Z</time></trkpt><trkpt lon="5.918065" lat="51.088638"><ele>31.8</ele><time>2022-05-22T06:50:48.000Z</time></trkpt><trkpt lon="5.918131" lat="51.088646"><ele>31.8</ele><time>2022-05-22T06:50:49.000Z</time></trkpt><trkpt lon="5.918207" lat="51.088635"><ele>31.6</ele><time>2022-05-22T06:50:50.000Z</time></trkpt><trkpt lon="5.918292" lat="51.088616"><ele>31.4</ele><time>2022-05-22T06:50:51.000Z</time></trkpt><trkpt lon="5.918383" lat="51.088593"><ele>31.4</ele><time>2022-05-22T06:50:52.000Z</time></trkpt><trkpt lon="5.918478" lat="51.08857"><ele>31.2</ele><time>2022-05-22T06:50:53.000Z</time></trkpt><trkpt lon="5.918577" lat="51.088548"><ele>31.2</ele><time>2022-05-22T06:50:54.000Z</time></trkpt><trkpt lon="5.918677" lat="51.088525"><ele>31.2</ele><time>2022-05-22T06:50:55.000Z</time></trkpt><trkpt lon="5.918775" lat="51.088505"><ele>31.2</ele><time>2022-05-22T06:50:56.000Z</time></trkpt><trkpt lon="5.918871" lat="51.088483"><ele>31</ele><time>2022-05-22T06:50:57.000Z</time></trkpt><trkpt lon="5.918969" lat="51.088459"><ele>31</ele><time>2022-05-22T06:50:58.000Z</time></trkpt><trkpt lon="5.919064" lat="51.088437"><ele>30.8</ele><time>2022-05-22T06:50:59.000Z</time></trkpt><trkpt lon="5.919159" lat="51.088414"><ele>30.8</ele><time>2022-05-22T06:51:00.000Z</time></trkpt><trkpt lon="5.919253" lat="51.088395"><ele>30.8</ele><time>2022-05-22T06:51:01.000Z</time></trkpt><trkpt lon="5.919348" lat="51.088372"><ele>30.8</ele><time>2022-05-22T06:51:02.000Z</time></trkpt><trkpt lon="5.91944" lat="51.088349"><ele>30.8</ele><time>2022-05-22T06:51:03.000Z</time></trkpt><trkpt lon="5.919532" lat="51.08833"><ele>30.6</ele><time>2022-05-22T06:51:04.000Z</time></trkpt><trkpt lon="5.919627" lat="51.088307"><ele>30.6</ele><time>2022-05-22T06:51:05.000Z</time></trkpt><trkpt lon="5.91972" lat="51.088284"><ele>30.4</ele><time>2022-05-22T06:51:06.000Z</time></trkpt><trkpt lon="5.919814" lat="51.088262"><ele>30.4</ele><time>2022-05-22T06:51:07.000Z</time></trkpt><trkpt lon="5.919905" lat="51.08824"><ele>30.6</ele><time>2022-05-22T06:51:08.000Z</time></trkpt><trkpt lon="5.920005" lat="51.088215"><ele>30.4</ele><time>2022-05-22T06:51:09.000Z</time></trkpt><trkpt lon="5.920094" lat="51.088193"><ele>30.4</ele><time>2022-05-22T06:51:10.000Z</time></trkpt><trkpt lon="5.920183" lat="51.088173"><ele>30.4</ele><time>2022-05-22T06:51:11.000Z</time></trkpt><trkpt lon="5.920277" lat="51.088151"><ele>30.4</ele><time>2022-05-22T06:51:12.000Z</time></trkpt><trkpt lon="5.92037" lat="51.088131"><ele>30.2</ele><time>2022-05-22T06:51:13.000Z</time></trkpt><trkpt lon="5.920467" lat="51.088112"><ele>30.2</ele><time>2022-05-22T06:51:14.000Z</time></trkpt><trkpt lon="5.920564" lat="51.088086"><ele>30.2</ele><time>2022-05-22T06:51:15.000Z</time></trkpt><trkpt lon="5.920658" lat="51.088063"><ele>30.2</ele><time>2022-05-22T06:51:16.000Z</time></trkpt><trkpt lon="5.920756" lat="51.088044"><ele>30.2</ele><time>2022-05-22T06:51:17.000Z</time></trkpt><trkpt lon="5.92085" lat="51.088021"><ele>30.4</ele><time>2022-05-22T06:51:18.000Z</time></trkpt><trkpt lon="5.920932" lat="51.088004"><ele>30.4</ele><time>2022-05-22T06:51:19.000Z</time></trkpt><trkpt lon="5.921025" lat="51.087985"><ele>30.4</ele><time>2022-05-22T06:51:20.000Z</time></trkpt><trkpt lon="5.921131" lat="51.087964"><ele>30.4</ele><time>2022-05-22T06:51:21.000Z</time></trkpt><trkpt lon="5.921224" lat="51.087941"><ele>30.6</ele><time>2022-05-22T06:51:22.000Z</time></trkpt><trkpt lon="5.921318" lat="51.087922"><ele>30.6</ele><time>2022-05-22T06:51:23.000Z</time></trkpt><trkpt lon="5.921412" lat="51.087899"><ele>30.6</ele><time>2022-05-22T06:51:24.000Z</time></trkpt><trkpt lon="5.921514" lat="51.087876"><ele>30.6</ele><time>2022-05-22T06:51:25.000Z</time></trkpt><trkpt lon="5.921607" lat="51.087854"><ele>30.8</ele><time>2022-05-22T06:51:26.000Z</time></trkpt><trkpt lon="5.921706" lat="51.087834"><ele>31</ele><time>2022-05-22T06:51:27.000Z</time></trkpt><trkpt lon="5.921803" lat="51.087811"><ele>31.2</ele><time>2022-05-22T06:51:28.000Z</time></trkpt><trkpt lon="5.921906" lat="51.087792"><ele>31.2</ele><time>2022-05-22T06:51:29.000Z</time></trkpt><trkpt lon="5.922008" lat="51.087769"><ele>31</ele><time>2022-05-22T06:51:30.000Z</time></trkpt><trkpt lon="5.922109" lat="51.087746"><ele>31</ele><time>2022-05-22T06:51:31.000Z</time></trkpt><trkpt lon="5.922215" lat="51.087727"><ele>30.8</ele><time>2022-05-22T06:51:32.000Z</time></trkpt><trkpt lon="5.922309" lat="51.087706"><ele>30.8</ele><time>2022-05-22T06:51:33.000Z</time></trkpt><trkpt lon="5.922418" lat="51.087685"><ele>30.6</ele><time>2022-05-22T06:51:34.000Z</time></trkpt><trkpt lon="5.92252" lat="51.087666"><ele>30.6</ele><time>2022-05-22T06:51:35.000Z</time></trkpt><trkpt lon="5.922615" lat="51.087644"><ele>30.6</ele><time>2022-05-22T06:51:36.000Z</time></trkpt><trkpt lon="5.92271" lat="51.087625"><ele>30.8</ele><time>2022-05-22T06:51:37.000Z</time></trkpt><trkpt lon="5.922816" lat="51.087601"><ele>30.8</ele><time>2022-05-22T06:51:38.000Z</time></trkpt><trkpt lon="5.922915" lat="51.087582"><ele>31</ele><time>2022-05-22T06:51:39.000Z</time></trkpt><trkpt lon="5.923014" lat="51.087555"><ele>31</ele><time>2022-05-22T06:51:40.000Z</time></trkpt><trkpt lon="5.923115" lat="51.087537"><ele>31</ele><time>2022-05-22T06:51:41.000Z</time></trkpt><trkpt lon="5.923218" lat="51.087513"><ele>31</ele><time>2022-05-22T06:51:42.000Z</time></trkpt><trkpt lon="5.92332" lat="51.087491"><ele>31</ele><time>2022-05-22T06:51:43.000Z</time></trkpt><trkpt lon="5.923425" lat="51.087468"><ele>31.2</ele><time>2022-05-22T06:51:44.000Z</time></trkpt><trkpt lon="5.923531" lat="51.087449"><ele>31</ele><time>2022-05-22T06:51:45.000Z</time></trkpt><trkpt lon="5.923631" lat="51.087426"><ele>31</ele><time>2022-05-22T06:51:46.000Z</time></trkpt><trkpt lon="5.923734" lat="51.087407"><ele>31</ele><time>2022-05-22T06:51:47.000Z</time></trkpt><trkpt lon="5.923837" lat="51.087384"><ele>30.8</ele><time>2022-05-22T06:51:48.000Z</time></trkpt><trkpt lon="5.923932" lat="51.087362"><ele>30.6</ele><time>2022-05-22T06:51:49.000Z</time></trkpt><trkpt lon="5.924037" lat="51.087338"><ele>30.6</ele><time>2022-05-22T06:51:50.000Z</time></trkpt><trkpt lon="5.924136" lat="51.087315"><ele>30.4</ele><time>2022-05-22T06:51:51.000Z</time></trkpt><trkpt lon="5.924231" lat="51.087293"><ele>30.4</ele><time>2022-05-22T06:51:52.000Z</time></trkpt><trkpt lon="5.92433" lat="51.087266"><ele>30.4</ele><time>2022-05-22T06:51:53.000Z</time></trkpt><trkpt lon="5.92443" lat="51.087239"><ele>30.4</ele><time>2022-05-22T06:51:54.000Z</time></trkpt><trkpt lon="5.924532" lat="51.087209"><ele>30.4</ele><time>2022-05-22T06:51:55.000Z</time></trkpt><trkpt lon="5.924632" lat="51.087182"><ele>30.4</ele><time>2022-05-22T06:51:56.000Z</time></trkpt><trkpt lon="5.924733" lat="51.087151"><ele>30.4</ele><time>2022-05-22T06:51:57.000Z</time></trkpt><trkpt lon="5.924829" lat="51.087121"><ele>30.4</ele><time>2022-05-22T06:51:58.000Z</time></trkpt><trkpt lon="5.924927" lat="51.08709"><ele>30.4</ele><time>2022-05-22T06:51:59.000Z</time></trkpt><trkpt lon="5.925024" lat="51.087056"><ele>30.4</ele><time>2022-05-22T06:52:00.000Z</time></trkpt><trkpt lon="5.925115" lat="51.087026"><ele>30.4</ele><time>2022-05-22T06:52:01.000Z</time></trkpt><trkpt lon="5.925212" lat="51.086991"><ele>30.4</ele><time>2022-05-22T06:52:02.000Z</time></trkpt><trkpt lon="5.925309" lat="51.086957"><ele>30.6</ele><time>2022-05-22T06:52:03.000Z</time></trkpt><trkpt lon="5.925408" lat="51.086922"><ele>30.8</ele><time>2022-05-22T06:52:04.000Z</time></trkpt><trkpt lon="5.925506" lat="51.086888"><ele>30.8</ele><time>2022-05-22T06:52:05.000Z</time></trkpt><trkpt lon="5.925599" lat="51.086855"><ele>30.8</ele><time>2022-05-22T06:52:06.000Z</time></trkpt><trkpt lon="5.925698" lat="51.08682"><ele>30.8</ele><time>2022-05-22T06:52:07.000Z</time></trkpt><trkpt lon="5.925795" lat="51.086789"><ele>30.8</ele><time>2022-05-22T06:52:08.000Z</time></trkpt><trkpt lon="5.925891" lat="51.086755"><ele>30.6</ele><time>2022-05-22T06:52:09.000Z</time></trkpt><trkpt lon="5.925984" lat="51.08672"><ele>30.4</ele><time>2022-05-22T06:52:10.000Z</time></trkpt><trkpt lon="5.926072" lat="51.086683"><ele>30.2</ele><time>2022-05-22T06:52:11.000Z</time></trkpt><trkpt lon="5.92616" lat="51.086645"><ele>30.2</ele><time>2022-05-22T06:52:12.000Z</time></trkpt><trkpt lon="5.926255" lat="51.086602"><ele>30.2</ele><time>2022-05-22T06:52:13.000Z</time></trkpt><trkpt lon="5.926345" lat="51.08656"><ele>30</ele><time>2022-05-22T06:52:14.000Z</time></trkpt><trkpt lon="5.926434" lat="51.086518"><ele>30</ele><time>2022-05-22T06:52:15.000Z</time></trkpt><trkpt lon="5.926525" lat="51.086472"><ele>29.8</ele><time>2022-05-22T06:52:16.000Z</time></trkpt><trkpt lon="5.926613" lat="51.086431"><ele>29.8</ele><time>2022-05-22T06:52:17.000Z</time></trkpt><trkpt lon="5.926697" lat="51.086386"><ele>29.8</ele><time>2022-05-22T06:52:18.000Z</time></trkpt><trkpt lon="5.926786" lat="51.086339"><ele>29.8</ele><time>2022-05-22T06:52:19.000Z</time></trkpt><trkpt lon="5.92687" lat="51.086294"><ele>29.8</ele><time>2022-05-22T06:52:20.000Z</time></trkpt><trkpt lon="5.926957" lat="51.086248"><ele>29.8</ele><time>2022-05-22T06:52:21.000Z</time></trkpt><trkpt lon="5.92704" lat="51.086206"><ele>29.8</ele><time>2022-05-22T06:52:22.000Z</time></trkpt><trkpt lon="5.927125" lat="51.086156"><ele>29.8</ele><time>2022-05-22T06:52:23.000Z</time></trkpt><trkpt lon="5.927204" lat="51.086108"><ele>30</ele><time>2022-05-22T06:52:24.000Z</time></trkpt><trkpt lon="5.927285" lat="51.086057"><ele>30</ele><time>2022-05-22T06:52:25.000Z</time></trkpt><trkpt lon="5.927364" lat="51.086005"><ele>30.2</ele><time>2022-05-22T06:52:26.000Z</time></trkpt><trkpt lon="5.927456" lat="51.085946"><ele>30</ele><time>2022-05-22T06:52:27.000Z</time></trkpt><trkpt lon="5.927544" lat="51.085893"><ele>29.8</ele><time>2022-05-22T06:52:28.000Z</time></trkpt><trkpt lon="5.927627" lat="51.085839"><ele>29.8</ele><time>2022-05-22T06:52:29.000Z</time></trkpt><trkpt lon="5.927707" lat="51.085787"><ele>29.8</ele><time>2022-05-22T06:52:30.000Z</time></trkpt><trkpt lon="5.927785" lat="51.085734"><ele>29.8</ele><time>2022-05-22T06:52:31.000Z</time></trkpt><trkpt lon="5.927858" lat="51.08568"><ele>29.8</ele><time>2022-05-22T06:52:32.000Z</time></trkpt><trkpt lon="5.927919" lat="51.085631"><ele>29.8</ele><time>2022-05-22T06:52:33.000Z</time></trkpt><trkpt lon="5.927987" lat="51.085582"><ele>29.8</ele><time>2022-05-22T06:52:34.000Z</time></trkpt><trkpt lon="5.928063" lat="51.085524"><ele>29.8</ele><time>2022-05-22T06:52:35.000Z</time></trkpt><trkpt lon="5.928129" lat="51.085476"><ele>29.8</ele><time>2022-05-22T06:52:36.000Z</time></trkpt><trkpt lon="5.928198" lat="51.085418"><ele>29.6</ele><time>2022-05-22T06:52:37.000Z</time></trkpt><trkpt lon="5.928267" lat="51.085363"><ele>29.4</ele><time>2022-05-22T06:52:38.000Z</time></trkpt><trkpt lon="5.928334" lat="51.08531"><ele>29.6</ele><time>2022-05-22T06:52:39.000Z</time></trkpt><trkpt lon="5.928403" lat="51.085256"><ele>29.6</ele><time>2022-05-22T06:52:40.000Z</time></trkpt><trkpt lon="5.928472" lat="51.0852"><ele>29.6</ele><time>2022-05-22T06:52:41.000Z</time></trkpt><trkpt lon="5.92854" lat="51.085145"><ele>29.6</ele><time>2022-05-22T06:52:42.000Z</time></trkpt><trkpt lon="5.928605" lat="51.085089"><ele>29.4</ele><time>2022-05-22T06:52:43.000Z</time></trkpt><trkpt lon="5.928671" lat="51.085035"><ele>29.6</ele><time>2022-05-22T06:52:44.000Z</time></trkpt><trkpt lon="5.928732" lat="51.084982"><ele>29.8</ele><time>2022-05-22T06:52:45.000Z</time></trkpt><trkpt lon="5.928793" lat="51.084929"><ele>29.8</ele><time>2022-05-22T06:52:46.000Z</time></trkpt><trkpt lon="5.928846" lat="51.084879"><ele>29.8</ele><time>2022-05-22T06:52:47.000Z</time></trkpt><trkpt lon="5.928898" lat="51.084829"><ele>29.8</ele><time>2022-05-22T06:52:48.000Z</time></trkpt><trkpt lon="5.928953" lat="51.084776"><ele>30.2</ele><time>2022-05-22T06:52:49.000Z</time></trkpt><trkpt lon="5.929008" lat="51.084722"><ele>30.4</ele><time>2022-05-22T06:52:50.000Z</time></trkpt><trkpt lon="5.929062" lat="51.084672"><ele>30.6</ele><time>2022-05-22T06:52:51.000Z</time></trkpt><trkpt lon="5.929116" lat="51.084619"><ele>31</ele><time>2022-05-22T06:52:52.000Z</time></trkpt><trkpt lon="5.929169" lat="51.084566"><ele>31</ele><time>2022-05-22T06:52:53.000Z</time></trkpt><trkpt lon="5.929214" lat="51.084522"><ele>30.8</ele><time>2022-05-22T06:52:54.000Z</time></trkpt><trkpt lon="5.929269" lat="51.084464"><ele>30.8</ele><time>2022-05-22T06:52:55.000Z</time></trkpt><trkpt lon="5.929322" lat="51.084414"><ele>31</ele><time>2022-05-22T06:52:56.000Z</time></trkpt><trkpt lon="5.929377" lat="51.084367"><ele>31</ele><time>2022-05-22T06:52:57.000Z</time></trkpt><trkpt lon="5.929439" lat="51.084325"><ele>31.2</ele><time>2022-05-22T06:52:58.000Z</time></trkpt><trkpt lon="5.929513" lat="51.084294"><ele>31.4</ele><time>2022-05-22T06:52:59.000Z</time></trkpt><trkpt lon="5.929599" lat="51.084271"><ele>31.4</ele><time>2022-05-22T06:53:00.000Z</time></trkpt><trkpt lon="5.929694" lat="51.084267"><ele>31.4</ele><time>2022-05-22T06:53:01.000Z</time></trkpt><trkpt lon="5.929793" lat="51.084281"><ele>31.4</ele><time>2022-05-22T06:53:02.000Z</time></trkpt><trkpt lon="5.929891" lat="51.0843"><ele>31.4</ele><time>2022-05-22T06:53:03.000Z</time></trkpt><trkpt lon="5.929988" lat="51.084324"><ele>31.4</ele><time>2022-05-22T06:53:04.000Z</time></trkpt><trkpt lon="5.930083" lat="51.08435"><ele>31.4</ele><time>2022-05-22T06:53:05.000Z</time></trkpt><trkpt lon="5.930179" lat="51.084373"><ele>31.6</ele><time>2022-05-22T06:53:06.000Z</time></trkpt><trkpt lon="5.930273" lat="51.084396"><ele>31.6</ele><time>2022-05-22T06:53:07.000Z</time></trkpt><trkpt lon="5.930367" lat="51.084422"><ele>31.8</ele><time>2022-05-22T06:53:08.000Z</time></trkpt><trkpt lon="5.930462" lat="51.084445"><ele>32</ele><time>2022-05-22T06:53:09.000Z</time></trkpt><trkpt lon="5.930558" lat="51.084468"><ele>32</ele><time>2022-05-22T06:53:10.000Z</time></trkpt><trkpt lon="5.930656" lat="51.084491"><ele>32.2</ele><time>2022-05-22T06:53:11.000Z</time></trkpt><trkpt lon="5.930756" lat="51.084514"><ele>32.2</ele><time>2022-05-22T06:53:12.000Z</time></trkpt><trkpt lon="5.930855" lat="51.084537"><ele>32.2</ele><time>2022-05-22T06:53:13.000Z</time></trkpt><trkpt lon="5.930948" lat="51.08456"><ele>32</ele><time>2022-05-22T06:53:14.000Z</time></trkpt><trkpt lon="5.931042" lat="51.084583"><ele>32</ele><time>2022-05-22T06:53:15.000Z</time></trkpt><trkpt lon="5.931137" lat="51.084609"><ele>32</ele><time>2022-05-22T06:53:16.000Z</time></trkpt><trkpt lon="5.931235" lat="51.084632"><ele>32.2</ele><time>2022-05-22T06:53:17.000Z</time></trkpt><trkpt lon="5.931334" lat="51.084655"><ele>32.2</ele><time>2022-05-22T06:53:18.000Z</time></trkpt><trkpt lon="5.931431" lat="51.084682"><ele>32.2</ele><time>2022-05-22T06:53:19.000Z</time></trkpt><trkpt lon="5.931526" lat="51.084701"><ele>32.2</ele><time>2022-05-22T06:53:20.000Z</time></trkpt><trkpt lon="5.931632" lat="51.084724"><ele>32.2</ele><time>2022-05-22T06:53:21.000Z</time></trkpt><trkpt lon="5.931731" lat="51.084743"><ele>32.2</ele><time>2022-05-22T06:53:22.000Z</time></trkpt><trkpt lon="5.931826" lat="51.084758"><ele>32.2</ele><time>2022-05-22T06:53:23.000Z</time></trkpt><trkpt lon="5.93192" lat="51.084776"><ele>32.2</ele><time>2022-05-22T06:53:24.000Z</time></trkpt><trkpt lon="5.932021" lat="51.084796"><ele>32.2</ele><time>2022-05-22T06:53:25.000Z</time></trkpt><trkpt lon="5.932119" lat="51.084812"><ele>32.2</ele><time>2022-05-22T06:53:26.000Z</time></trkpt><trkpt lon="5.932218" lat="51.084831"><ele>32.2</ele><time>2022-05-22T06:53:27.000Z</time></trkpt><trkpt lon="5.932316" lat="51.084846"><ele>32.2</ele><time>2022-05-22T06:53:28.000Z</time></trkpt><trkpt lon="5.932412" lat="51.084865"><ele>32.2</ele><time>2022-05-22T06:53:29.000Z</time></trkpt><trkpt lon="5.932516" lat="51.08488"><ele>32.2</ele><time>2022-05-22T06:53:30.000Z</time></trkpt><trkpt lon="5.932622" lat="51.084896"><ele>32.2</ele><time>2022-05-22T06:53:31.000Z</time></trkpt><trkpt lon="5.932728" lat="51.084907"><ele>32.2</ele><time>2022-05-22T06:53:32.000Z</time></trkpt><trkpt lon="5.932828" lat="51.084922"><ele>32.2</ele><time>2022-05-22T06:53:33.000Z</time></trkpt><trkpt lon="5.932934" lat="51.084941"><ele>32.2</ele><time>2022-05-22T06:53:34.000Z</time></trkpt><trkpt lon="5.933031" lat="51.08496"><ele>32.2</ele><time>2022-05-22T06:53:35.000Z</time></trkpt><trkpt lon="5.933137" lat="51.084975"><ele>32.2</ele><time>2022-05-22T06:53:36.000Z</time></trkpt><trkpt lon="5.933242" lat="51.084991"><ele>32.2</ele><time>2022-05-22T06:53:37.000Z</time></trkpt><trkpt lon="5.933337" lat="51.085009"><ele>32.2</ele><time>2022-05-22T06:53:38.000Z</time></trkpt><trkpt lon="5.933441" lat="51.085025"><ele>32.2</ele><time>2022-05-22T06:53:39.000Z</time></trkpt><trkpt lon="5.933541" lat="51.085041"><ele>32.2</ele><time>2022-05-22T06:53:40.000Z</time></trkpt><trkpt lon="5.933643" lat="51.085056"><ele>32.2</ele><time>2022-05-22T06:53:41.000Z</time></trkpt><trkpt lon="5.933742" lat="51.085071"><ele>32.2</ele><time>2022-05-22T06:53:42.000Z</time></trkpt><trkpt lon="5.933843" lat="51.085086"><ele>32.2</ele><time>2022-05-22T06:53:43.000Z</time></trkpt><trkpt lon="5.933948" lat="51.085102"><ele>32.2</ele><time>2022-05-22T06:53:44.000Z</time></trkpt><trkpt lon="5.934051" lat="51.085117"><ele>32.2</ele><time>2022-05-22T06:53:45.000Z</time></trkpt><trkpt lon="5.934153" lat="51.085136"><ele>32.4</ele><time>2022-05-22T06:53:46.000Z</time></trkpt><trkpt lon="5.934251" lat="51.08515"><ele>32.4</ele><time>2022-05-22T06:53:47.000Z</time></trkpt><trkpt lon="5.934359" lat="51.085166"><ele>32.4</ele><time>2022-05-22T06:53:48.000Z</time></trkpt><trkpt lon="5.934463" lat="51.085186"><ele>32.4</ele><time>2022-05-22T06:53:49.000Z</time></trkpt><trkpt lon="5.934565" lat="51.085201"><ele>32.4</ele><time>2022-05-22T06:53:50.000Z</time></trkpt><trkpt lon="5.934647" lat="51.085214"><ele>32.4</ele><time>2022-05-22T06:53:51.000Z</time></trkpt><trkpt lon="5.934764" lat="51.085235"><ele>32.4</ele><time>2022-05-22T06:53:52.000Z</time></trkpt><trkpt lon="5.934867" lat="51.085254"><ele>32.4</ele><time>2022-05-22T06:53:53.000Z</time></trkpt><trkpt lon="5.934967" lat="51.08527"><ele>32.6</ele><time>2022-05-22T06:53:54.000Z</time></trkpt><trkpt lon="5.935068" lat="51.085285"><ele>32.6</ele><time>2022-05-22T06:53:55.000Z</time></trkpt><trkpt lon="5.935166" lat="51.0853"><ele>32.6</ele><time>2022-05-22T06:53:56.000Z</time></trkpt><trkpt lon="5.935266" lat="51.085319"><ele>32.6</ele><time>2022-05-22T06:53:57.000Z</time></trkpt><trkpt lon="5.935366" lat="51.085334"><ele>32.6</ele><time>2022-05-22T06:53:58.000Z</time></trkpt><trkpt lon="5.935466" lat="51.085357"><ele>32.6</ele><time>2022-05-22T06:53:59.000Z</time></trkpt><trkpt lon="5.935557" lat="51.085376"><ele>32.6</ele><time>2022-05-22T06:54:00.000Z</time></trkpt><trkpt lon="5.935645" lat="51.085403"><ele>32.6</ele><time>2022-05-22T06:54:01.000Z</time></trkpt><trkpt lon="5.935731" lat="51.085428"><ele>32.6</ele><time>2022-05-22T06:54:02.000Z</time></trkpt><trkpt lon="5.935832" lat="51.085452"><ele>32.6</ele><time>2022-05-22T06:54:03.000Z</time></trkpt><trkpt lon="5.935926" lat="51.085472"><ele>32.6</ele><time>2022-05-22T06:54:04.000Z</time></trkpt><trkpt lon="5.936009" lat="51.08549"><ele>32.6</ele><time>2022-05-22T06:54:05.000Z</time></trkpt><trkpt lon="5.936096" lat="51.08551"><ele>32.4</ele><time>2022-05-22T06:54:06.000Z</time></trkpt><trkpt lon="5.936176" lat="51.085528"><ele>32.4</ele><time>2022-05-22T06:54:07.000Z</time></trkpt><trkpt lon="5.93627" lat="51.085548"><ele>32.4</ele><time>2022-05-22T06:54:08.000Z</time></trkpt><trkpt lon="5.936363" lat="51.085563"><ele>32.6</ele><time>2022-05-22T06:54:09.000Z</time></trkpt><trkpt lon="5.936458" lat="51.085582"><ele>32.6</ele><time>2022-05-22T06:54:10.000Z</time></trkpt><trkpt lon="5.936542" lat="51.085601"><ele>32.8</ele><time>2022-05-22T06:54:11.000Z</time></trkpt><trkpt lon="5.936621" lat="51.085624"><ele>33</ele><time>2022-05-22T06:54:12.000Z</time></trkpt><trkpt lon="5.936707" lat="51.08564"><ele>33</ele><time>2022-05-22T06:54:13.000Z</time></trkpt><trkpt lon="5.936781" lat="51.085658"><ele>33.2</ele><time>2022-05-22T06:54:14.000Z</time></trkpt><trkpt lon="5.936865" lat="51.085682"><ele>33.2</ele><time>2022-05-22T06:54:15.000Z</time></trkpt><trkpt lon="5.93695" lat="51.0857"><ele>33.4</ele><time>2022-05-22T06:54:16.000Z</time></trkpt><trkpt lon="5.937044" lat="51.085719"><ele>33.4</ele><time>2022-05-22T06:54:17.000Z</time></trkpt><trkpt lon="5.937146" lat="51.085735"><ele>33.6</ele><time>2022-05-22T06:54:18.000Z</time></trkpt><trkpt lon="5.937238" lat="51.085754"><ele>33.6</ele><time>2022-05-22T06:54:19.000Z</time></trkpt><trkpt lon="5.937329" lat="51.085773"><ele>33.6</ele><time>2022-05-22T06:54:20.000Z</time></trkpt><trkpt lon="5.937423" lat="51.085784"><ele>33.6</ele><time>2022-05-22T06:54:21.000Z</time></trkpt><trkpt lon="5.937523" lat="51.0858"><ele>33.8</ele><time>2022-05-22T06:54:22.000Z</time></trkpt><trkpt lon="5.937616" lat="51.085815"><ele>33.8</ele><time>2022-05-22T06:54:23.000Z</time></trkpt><trkpt lon="5.937703" lat="51.085834"><ele>34</ele><time>2022-05-22T06:54:24.000Z</time></trkpt><trkpt lon="5.937797" lat="51.08585"><ele>34</ele><time>2022-05-22T06:54:25.000Z</time></trkpt><trkpt lon="5.937889" lat="51.085865"><ele>34</ele><time>2022-05-22T06:54:26.000Z</time></trkpt><trkpt lon="5.937979" lat="51.08588"><ele>34.2</ele><time>2022-05-22T06:54:27.000Z</time></trkpt><trkpt lon="5.938073" lat="51.085892"><ele>34.4</ele><time>2022-05-22T06:54:28.000Z</time></trkpt><trkpt lon="5.938163" lat="51.085906"><ele>34.4</ele><time>2022-05-22T06:54:29.000Z</time></trkpt><trkpt lon="5.938258" lat="51.085922"><ele>34.6</ele><time>2022-05-22T06:54:30.000Z</time></trkpt><trkpt lon="5.93835" lat="51.085934"><ele>34.6</ele><time>2022-05-22T06:54:31.000Z</time></trkpt><trkpt lon="5.938442" lat="51.085948"><ele>34.8</ele><time>2022-05-22T06:54:32.000Z</time></trkpt><trkpt lon="5.938541" lat="51.085968"><ele>34.8</ele><time>2022-05-22T06:54:33.000Z</time></trkpt><trkpt lon="5.938638" lat="51.085983"><ele>34.8</ele><time>2022-05-22T06:54:34.000Z</time></trkpt><trkpt lon="5.938725" lat="51.085998"><ele>34.8</ele><time>2022-05-22T06:54:35.000Z</time></trkpt><trkpt lon="5.938821" lat="51.086013"><ele>34.8</ele><time>2022-05-22T06:54:36.000Z</time></trkpt><trkpt lon="5.938905" lat="51.086024"><ele>34.8</ele><time>2022-05-22T06:54:37.000Z</time></trkpt><trkpt lon="5.939003" lat="51.086036"><ele>34.8</ele><time>2022-05-22T06:54:38.000Z</time></trkpt><trkpt lon="5.939098" lat="51.086048"><ele>35</ele><time>2022-05-22T06:54:39.000Z</time></trkpt><trkpt lon="5.939186" lat="51.086062"><ele>35</ele><time>2022-05-22T06:54:40.000Z</time></trkpt><trkpt lon="5.939271" lat="51.086089"><ele>35.2</ele><time>2022-05-22T06:54:41.000Z</time></trkpt><trkpt lon="5.939376" lat="51.086109"><ele>35.4</ele><time>2022-05-22T06:54:42.000Z</time></trkpt><trkpt lon="5.939484" lat="51.086124"><ele>35.4</ele><time>2022-05-22T06:54:43.000Z</time></trkpt><trkpt lon="5.939593" lat="51.086143"><ele>35.6</ele><time>2022-05-22T06:54:44.000Z</time></trkpt><trkpt lon="5.939704" lat="51.086155"><ele>35.8</ele><time>2022-05-22T06:54:45.000Z</time></trkpt><trkpt lon="5.939801" lat="51.08617"><ele>35.8</ele><time>2022-05-22T06:54:46.000Z</time></trkpt><trkpt lon="5.939904" lat="51.086185"><ele>35.8</ele><time>2022-05-22T06:54:47.000Z</time></trkpt><trkpt lon="5.940021" lat="51.086197"><ele>36</ele><time>2022-05-22T06:54:48.000Z</time></trkpt><trkpt lon="5.940139" lat="51.086216"><ele>36</ele><time>2022-05-22T06:54:49.000Z</time></trkpt><trkpt lon="5.940259" lat="51.086227"><ele>36.2</ele><time>2022-05-22T06:54:50.000Z</time></trkpt><trkpt lon="5.940363" lat="51.086246"><ele>36.2</ele><time>2022-05-22T06:54:51.000Z</time></trkpt><trkpt lon="5.940468" lat="51.086261"><ele>36.2</ele><time>2022-05-22T06:54:52.000Z</time></trkpt><trkpt lon="5.940563" lat="51.086269"><ele>36.2</ele><time>2022-05-22T06:54:53.000Z</time></trkpt><trkpt lon="5.940654" lat="51.086273"><ele>36.2</ele><time>2022-05-22T06:54:54.000Z</time></trkpt><trkpt lon="5.94075" lat="51.086273"><ele>36</ele><time>2022-05-22T06:54:55.000Z</time></trkpt><trkpt lon="5.940855" lat="51.086269"><ele>36</ele><time>2022-05-22T06:54:56.000Z</time></trkpt><trkpt lon="5.940969" lat="51.086273"><ele>35.8</ele><time>2022-05-22T06:54:57.000Z</time></trkpt><trkpt lon="5.941071" lat="51.086284"><ele>35.6</ele><time>2022-05-22T06:54:58.000Z</time></trkpt><trkpt lon="5.941168" lat="51.0863"><ele>35.4</ele><time>2022-05-22T06:54:59.000Z</time></trkpt><trkpt lon="5.941269" lat="51.086326"><ele>35.4</ele><time>2022-05-22T06:55:00.000Z</time></trkpt><trkpt lon="5.941364" lat="51.086353"><ele>35.2</ele><time>2022-05-22T06:55:01.000Z</time></trkpt><trkpt lon="5.941462" lat="51.086387"><ele>34.8</ele><time>2022-05-22T06:55:02.000Z</time></trkpt><trkpt lon="5.941568" lat="51.086414"><ele>34.6</ele><time>2022-05-22T06:55:03.000Z</time></trkpt><trkpt lon="5.941676" lat="51.086437"><ele>34.4</ele><time>2022-05-22T06:55:04.000Z</time></trkpt><trkpt lon="5.941793" lat="51.086456"><ele>34.2</ele><time>2022-05-22T06:55:05.000Z</time></trkpt><trkpt lon="5.941901" lat="51.086471"><ele>34</ele><time>2022-05-22T06:55:06.000Z</time></trkpt><trkpt lon="5.942004" lat="51.086485"><ele>33.8</ele><time>2022-05-22T06:55:07.000Z</time></trkpt><trkpt lon="5.942115" lat="51.086498"><ele>33.8</ele><time>2022-05-22T06:55:08.000Z</time></trkpt><trkpt lon="5.942224" lat="51.086509"><ele>34</ele><time>2022-05-22T06:55:09.000Z</time></trkpt><trkpt lon="5.942331" lat="51.086521"><ele>34</ele><time>2022-05-22T06:55:10.000Z</time></trkpt><trkpt lon="5.942431" lat="51.086536"><ele>34.2</ele><time>2022-05-22T06:55:11.000Z</time></trkpt><trkpt lon="5.942525" lat="51.086548"><ele>34.4</ele><time>2022-05-22T06:55:12.000Z</time></trkpt><trkpt lon="5.942629" lat="51.086559"><ele>34.4</ele><time>2022-05-22T06:55:13.000Z</time></trkpt><trkpt lon="5.942739" lat="51.08657"><ele>34.6</ele><time>2022-05-22T06:55:14.000Z</time></trkpt><trkpt lon="5.94286" lat="51.086574"><ele>34.4</ele><time>2022-05-22T06:55:15.000Z</time></trkpt><trkpt lon="5.942974" lat="51.086585"><ele>34.4</ele><time>2022-05-22T06:55:16.000Z</time></trkpt><trkpt lon="5.94309" lat="51.086604"><ele>34.2</ele><time>2022-05-22T06:55:17.000Z</time></trkpt><trkpt lon="5.943198" lat="51.08662"><ele>34.2</ele><time>2022-05-22T06:55:18.000Z</time></trkpt><trkpt lon="5.94331" lat="51.086635"><ele>34.2</ele><time>2022-05-22T06:55:19.000Z</time></trkpt><trkpt lon="5.943419" lat="51.08665"><ele>34.2</ele><time>2022-05-22T06:55:20.000Z</time></trkpt><trkpt lon="5.94353" lat="51.086669"><ele>34</ele><time>2022-05-22T06:55:21.000Z</time></trkpt><trkpt lon="5.943636" lat="51.086684"><ele>34</ele><time>2022-05-22T06:55:22.000Z</time></trkpt><trkpt lon="5.94375" lat="51.0867"><ele>33.8</ele><time>2022-05-22T06:55:23.000Z</time></trkpt><trkpt lon="5.943858" lat="51.086715"><ele>33.8</ele><time>2022-05-22T06:55:24.000Z</time></trkpt><trkpt lon="5.943967" lat="51.08673"><ele>33.6</ele><time>2022-05-22T06:55:25.000Z</time></trkpt><trkpt lon="5.94407" lat="51.086749"><ele>33.6</ele><time>2022-05-22T06:55:26.000Z</time></trkpt><trkpt lon="5.944171" lat="51.086769"><ele>33.6</ele><time>2022-05-22T06:55:27.000Z</time></trkpt><trkpt lon="5.944274" lat="51.086784"><ele>33.6</ele><time>2022-05-22T06:55:28.000Z</time></trkpt><trkpt lon="5.944376" lat="51.086799"><ele>33.6</ele><time>2022-05-22T06:55:29.000Z</time></trkpt><trkpt lon="5.944476" lat="51.086815"><ele>33.8</ele><time>2022-05-22T06:55:30.000Z</time></trkpt><trkpt lon="5.944574" lat="51.086822"><ele>33.8</ele><time>2022-05-22T06:55:31.000Z</time></trkpt><trkpt lon="5.944682" lat="51.086826"><ele>33.8</ele><time>2022-05-22T06:55:32.000Z</time></trkpt><trkpt lon="5.944789" lat="51.086838"><ele>34</ele><time>2022-05-22T06:55:33.000Z</time></trkpt><trkpt lon="5.944896" lat="51.086849"><ele>34</ele><time>2022-05-22T06:55:34.000Z</time></trkpt><trkpt lon="5.944999" lat="51.086864"><ele>34.2</ele><time>2022-05-22T06:55:35.000Z</time></trkpt><trkpt lon="5.945108" lat="51.086879"><ele>34.2</ele><time>2022-05-22T06:55:36.000Z</time></trkpt><trkpt lon="5.945205" lat="51.086897"><ele>34.2</ele><time>2022-05-22T06:55:37.000Z</time></trkpt><trkpt lon="5.945316" lat="51.086913"><ele>34.2</ele><time>2022-05-22T06:55:38.000Z</time></trkpt><trkpt lon="5.945423" lat="51.086929"><ele>34.2</ele><time>2022-05-22T06:55:39.000Z</time></trkpt><trkpt lon="5.94553" lat="51.086948"><ele>34</ele><time>2022-05-22T06:55:40.000Z</time></trkpt><trkpt lon="5.945638" lat="51.086963"><ele>34</ele><time>2022-05-22T06:55:41.000Z</time></trkpt><trkpt lon="5.945747" lat="51.086982"><ele>34</ele><time>2022-05-22T06:55:42.000Z</time></trkpt><trkpt lon="5.945856" lat="51.086998"><ele>34</ele><time>2022-05-22T06:55:43.000Z</time></trkpt><trkpt lon="5.945963" lat="51.087013"><ele>34</ele><time>2022-05-22T06:55:44.000Z</time></trkpt><trkpt lon="5.946075" lat="51.087032"><ele>34</ele><time>2022-05-22T06:55:45.000Z</time></trkpt><trkpt lon="5.946179" lat="51.087051"><ele>34</ele><time>2022-05-22T06:55:46.000Z</time></trkpt><trkpt lon="5.946283" lat="51.087066"><ele>34</ele><time>2022-05-22T06:55:47.000Z</time></trkpt><trkpt lon="5.946388" lat="51.087081"><ele>34</ele><time>2022-05-22T06:55:48.000Z</time></trkpt><trkpt lon="5.946496" lat="51.0871"><ele>34</ele><time>2022-05-22T06:55:49.000Z</time></trkpt><trkpt lon="5.9466" lat="51.087116"><ele>34.2</ele><time>2022-05-22T06:55:50.000Z</time></trkpt><trkpt lon="5.946698" lat="51.087135"><ele>34.2</ele><time>2022-05-22T06:55:51.000Z</time></trkpt><trkpt lon="5.946799" lat="51.087154"><ele>34.2</ele><time>2022-05-22T06:55:52.000Z</time></trkpt><trkpt lon="5.946897" lat="51.087169"><ele>34.2</ele><time>2022-05-22T06:55:53.000Z</time></trkpt><trkpt lon="5.946996" lat="51.087185"><ele>34.2</ele><time>2022-05-22T06:55:54.000Z</time></trkpt><trkpt lon="5.947091" lat="51.087203"><ele>34.2</ele><time>2022-05-22T06:55:55.000Z</time></trkpt><trkpt lon="5.947182" lat="51.087217"><ele>34.2</ele><time>2022-05-22T06:55:56.000Z</time></trkpt><trkpt lon="5.947282" lat="51.087233"><ele>34.2</ele><time>2022-05-22T06:55:57.000Z</time></trkpt><trkpt lon="5.947384" lat="51.087253"><ele>34.4</ele><time>2022-05-22T06:55:58.000Z</time></trkpt><trkpt lon="5.947474" lat="51.087275"><ele>34.4</ele><time>2022-05-22T06:55:59.000Z</time></trkpt><trkpt lon="5.947567" lat="51.087295"><ele>34.4</ele><time>2022-05-22T06:56:00.000Z</time></trkpt><trkpt lon="5.947662" lat="51.087314"><ele>34.4</ele><time>2022-05-22T06:56:01.000Z</time></trkpt><trkpt lon="5.947755" lat="51.08733"><ele>34.4</ele><time>2022-05-22T06:56:02.000Z</time></trkpt><trkpt lon="5.947839" lat="51.087345"><ele>34.6</ele><time>2022-05-22T06:56:03.000Z</time></trkpt><trkpt lon="5.947923" lat="51.087364"><ele>34.8</ele><time>2022-05-22T06:56:04.000Z</time></trkpt><trkpt lon="5.948018" lat="51.087379"><ele>35</ele><time>2022-05-22T06:56:05.000Z</time></trkpt><trkpt lon="5.948113" lat="51.087398"><ele>35.2</ele><time>2022-05-22T06:56:06.000Z</time></trkpt><trkpt lon="5.948205" lat="51.087413"><ele>35.2</ele><time>2022-05-22T06:56:07.000Z</time></trkpt><trkpt lon="5.948301" lat="51.087429"><ele>35.4</ele><time>2022-05-22T06:56:08.000Z</time></trkpt><trkpt lon="5.94839" lat="51.087448"><ele>35.4</ele><time>2022-05-22T06:56:09.000Z</time></trkpt><trkpt lon="5.948467" lat="51.087463"><ele>35.4</ele><time>2022-05-22T06:56:10.000Z</time></trkpt><trkpt lon="5.948542" lat="51.087478"><ele>35.6</ele><time>2022-05-22T06:56:11.000Z</time></trkpt><trkpt lon="5.948626" lat="51.087501"><ele>35.6</ele><time>2022-05-22T06:56:12.000Z</time></trkpt><trkpt lon="5.948723" lat="51.08752"><ele>35.8</ele><time>2022-05-22T06:56:13.000Z</time></trkpt><trkpt lon="5.948817" lat="51.087543"><ele>35.8</ele><time>2022-05-22T06:56:14.000Z</time></trkpt><trkpt lon="5.948916" lat="51.087566"><ele>35.8</ele><time>2022-05-22T06:56:15.000Z</time></trkpt><trkpt lon="5.949016" lat="51.087581"><ele>35.8</ele><time>2022-05-22T06:56:16.000Z</time></trkpt><trkpt lon="5.949107" lat="51.087596"><ele>35.6</ele><time>2022-05-22T06:56:17.000Z</time></trkpt><trkpt lon="5.949196" lat="51.087612"><ele>35.6</ele><time>2022-05-22T06:56:18.000Z</time></trkpt><trkpt lon="5.94928" lat="51.087627"><ele>35.6</ele><time>2022-05-22T06:56:19.000Z</time></trkpt><trkpt lon="5.949369" lat="51.087638"><ele>35.6</ele><time>2022-05-22T06:56:20.000Z</time></trkpt><trkpt lon="5.949458" lat="51.087654"><ele>35.6</ele><time>2022-05-22T06:56:21.000Z</time></trkpt><trkpt lon="5.949551" lat="51.087669"><ele>35.6</ele><time>2022-05-22T06:56:22.000Z</time></trkpt><trkpt lon="5.949644" lat="51.08768"><ele>35.6</ele><time>2022-05-22T06:56:23.000Z</time></trkpt><trkpt lon="5.949736" lat="51.087695"><ele>35.6</ele><time>2022-05-22T06:56:24.000Z</time></trkpt><trkpt lon="5.949831" lat="51.087714"><ele>35.6</ele><time>2022-05-22T06:56:25.000Z</time></trkpt><trkpt lon="5.949925" lat="51.08773"><ele>35.6</ele><time>2022-05-22T06:56:26.000Z</time></trkpt><trkpt lon="5.950016" lat="51.087745"><ele>35.6</ele><time>2022-05-22T06:56:27.000Z</time></trkpt><trkpt lon="5.950111" lat="51.087764"><ele>35.6</ele><time>2022-05-22T06:56:28.000Z</time></trkpt><trkpt lon="5.950211" lat="51.087779"><ele>35.6</ele><time>2022-05-22T06:56:29.000Z</time></trkpt><trkpt lon="5.950314" lat="51.087795"><ele>35.6</ele><time>2022-05-22T06:56:30.000Z</time></trkpt><trkpt lon="5.950407" lat="51.087806"><ele>35.6</ele><time>2022-05-22T06:56:31.000Z</time></trkpt><trkpt lon="5.950515" lat="51.087825"><ele>35.6</ele><time>2022-05-22T06:56:32.000Z</time></trkpt><trkpt lon="5.950639" lat="51.087833"><ele>35.6</ele><time>2022-05-22T06:56:33.000Z</time></trkpt><trkpt lon="5.950735" lat="51.087844"><ele>35.6</ele><time>2022-05-22T06:56:34.000Z</time></trkpt><trkpt lon="5.950848" lat="51.087852"><ele>35.6</ele><time>2022-05-22T06:56:35.000Z</time></trkpt><trkpt lon="5.950959" lat="51.087867"><ele>35.6</ele><time>2022-05-22T06:56:36.000Z</time></trkpt><trkpt lon="5.951062" lat="51.087883"><ele>35.8</ele><time>2022-05-22T06:56:37.000Z</time></trkpt><trkpt lon="5.95116" lat="51.087894"><ele>35.8</ele><time>2022-05-22T06:56:38.000Z</time></trkpt><trkpt lon="5.951266" lat="51.087909"><ele>35.8</ele><time>2022-05-22T06:56:39.000Z</time></trkpt><trkpt lon="5.951366" lat="51.087925"><ele>35.8</ele><time>2022-05-22T06:56:40.000Z</time></trkpt><trkpt lon="5.951472" lat="51.08794"><ele>35.6</ele><time>2022-05-22T06:56:41.000Z</time></trkpt><trkpt lon="5.951584" lat="51.087955"><ele>35.6</ele><time>2022-05-22T06:56:42.000Z</time></trkpt><trkpt lon="5.95169" lat="51.08797"><ele>35.6</ele><time>2022-05-22T06:56:43.000Z</time></trkpt><trkpt lon="5.951809" lat="51.087985"><ele>35.6</ele><time>2022-05-22T06:56:44.000Z</time></trkpt><trkpt lon="5.951949" lat="51.08799"><ele>35.6</ele><time>2022-05-22T06:56:45.000Z</time></trkpt><trkpt lon="5.952103" lat="51.088012"><ele>35.4</ele><time>2022-05-22T06:56:46.000Z</time></trkpt><trkpt lon="5.952242" lat="51.088027"><ele>35</ele><time>2022-05-22T06:56:47.000Z</time></trkpt><trkpt lon="5.952355" lat="51.088039"><ele>35</ele><time>2022-05-22T06:56:48.000Z</time></trkpt><trkpt lon="5.952467" lat="51.088058"><ele>35</ele><time>2022-05-22T06:56:49.000Z</time></trkpt><trkpt lon="5.952587" lat="51.08807"><ele>34.8</ele><time>2022-05-22T06:56:50.000Z</time></trkpt><trkpt lon="5.952691" lat="51.088085"><ele>34.8</ele><time>2022-05-22T06:56:51.000Z</time></trkpt><trkpt lon="5.952788" lat="51.0881"><ele>34.6</ele><time>2022-05-22T06:56:52.000Z</time></trkpt><trkpt lon="5.952884" lat="51.088123"><ele>34.6</ele><time>2022-05-22T06:56:53.000Z</time></trkpt><trkpt lon="5.952981" lat="51.088142"><ele>34.6</ele><time>2022-05-22T06:56:54.000Z</time></trkpt><trkpt lon="5.953085" lat="51.088161"><ele>34.6</ele><time>2022-05-22T06:56:55.000Z</time></trkpt><trkpt lon="5.953194" lat="51.088183"><ele>34.6</ele><time>2022-05-22T06:56:56.000Z</time></trkpt><trkpt lon="5.953303" lat="51.08821"><ele>34.6</ele><time>2022-05-22T06:56:57.000Z</time></trkpt><trkpt lon="5.953413" lat="51.088236"><ele>34.6</ele><time>2022-05-22T06:56:58.000Z</time></trkpt><trkpt lon="5.953553" lat="51.08826"><ele>34.4</ele><time>2022-05-22T06:56:59.000Z</time></trkpt><trkpt lon="5.953691" lat="51.088286"><ele>34.4</ele><time>2022-05-22T06:57:00.000Z</time></trkpt><trkpt lon="5.953825" lat="51.088313"><ele>34.4</ele><time>2022-05-22T06:57:01.000Z</time></trkpt><trkpt lon="5.953958" lat="51.088336"><ele>34.4</ele><time>2022-05-22T06:57:02.000Z</time></trkpt><trkpt lon="5.954078" lat="51.088363"><ele>34.2</ele><time>2022-05-22T06:57:03.000Z</time></trkpt><trkpt lon="5.954195" lat="51.088386"><ele>34.2</ele><time>2022-05-22T06:57:04.000Z</time></trkpt><trkpt lon="5.954309" lat="51.088412"><ele>34.2</ele><time>2022-05-22T06:57:05.000Z</time></trkpt><trkpt lon="5.954423" lat="51.088439"><ele>34.2</ele><time>2022-05-22T06:57:06.000Z</time></trkpt><trkpt lon="5.954532" lat="51.088466"><ele>34.4</ele><time>2022-05-22T06:57:07.000Z</time></trkpt><trkpt lon="5.954636" lat="51.088488"><ele>34.4</ele><time>2022-05-22T06:57:08.000Z</time></trkpt><trkpt lon="5.954748" lat="51.088516"><ele>34.2</ele><time>2022-05-22T06:57:09.000Z</time></trkpt><trkpt lon="5.954857" lat="51.088546"><ele>34.2</ele><time>2022-05-22T06:57:10.000Z</time></trkpt><trkpt lon="5.954963" lat="51.088572"><ele>34</ele><time>2022-05-22T06:57:11.000Z</time></trkpt><trkpt lon="5.955072" lat="51.088599"><ele>34</ele><time>2022-05-22T06:57:12.000Z</time></trkpt><trkpt lon="5.955181" lat="51.088626"><ele>34</ele><time>2022-05-22T06:57:13.000Z</time></trkpt><trkpt lon="5.955286" lat="51.088653"><ele>34.2</ele><time>2022-05-22T06:57:14.000Z</time></trkpt><trkpt lon="5.955392" lat="51.088679"><ele>34.2</ele><time>2022-05-22T06:57:15.000Z</time></trkpt><trkpt lon="5.955501" lat="51.088706"><ele>34.2</ele><time>2022-05-22T06:57:16.000Z</time></trkpt><trkpt lon="5.955609" lat="51.088733"><ele>34.2</ele><time>2022-05-22T06:57:17.000Z</time></trkpt><trkpt lon="5.955716" lat="51.088763"><ele>34.2</ele><time>2022-05-22T06:57:18.000Z</time></trkpt><trkpt lon="5.955818" lat="51.08879"><ele>34.4</ele><time>2022-05-22T06:57:19.000Z</time></trkpt><trkpt lon="5.955921" lat="51.088817"><ele>34.4</ele><time>2022-05-22T06:57:20.000Z</time></trkpt><trkpt lon="5.956027" lat="51.088844"><ele>34.6</ele><time>2022-05-22T06:57:21.000Z</time></trkpt><trkpt lon="5.956133" lat="51.08887"><ele>34.6</ele><time>2022-05-22T06:57:22.000Z</time></trkpt><trkpt lon="5.956237" lat="51.088897"><ele>34.6</ele><time>2022-05-22T06:57:23.000Z</time></trkpt><trkpt lon="5.956339" lat="51.088923"><ele>34.6</ele><time>2022-05-22T06:57:24.000Z</time></trkpt><trkpt lon="5.95644" lat="51.088949"><ele>34.6</ele><time>2022-05-22T06:57:25.000Z</time></trkpt><trkpt lon="5.956547" lat="51.088977"><ele>34.6</ele><time>2022-05-22T06:57:26.000Z</time></trkpt><trkpt lon="5.956652" lat="51.089004"><ele>34.4</ele><time>2022-05-22T06:57:27.000Z</time></trkpt><trkpt lon="5.956756" lat="51.089027"><ele>34.4</ele><time>2022-05-22T06:57:28.000Z</time></trkpt><trkpt lon="5.956857" lat="51.089053"><ele>34.4</ele><time>2022-05-22T06:57:29.000Z</time></trkpt><trkpt lon="5.956962" lat="51.089076"><ele>34.6</ele><time>2022-05-22T06:57:30.000Z</time></trkpt><trkpt lon="5.957063" lat="51.089103"><ele>34.6</ele><time>2022-05-22T06:57:31.000Z</time></trkpt><trkpt lon="5.957165" lat="51.08913"><ele>34.6</ele><time>2022-05-22T06:57:32.000Z</time></trkpt><trkpt lon="5.957266" lat="51.089152"><ele>34.4</ele><time>2022-05-22T06:57:33.000Z</time></trkpt><trkpt lon="5.95737" lat="51.089179"><ele>34.4</ele><time>2022-05-22T06:57:34.000Z</time></trkpt><trkpt lon="5.957471" lat="51.089206"><ele>34.4</ele><time>2022-05-22T06:57:35.000Z</time></trkpt><trkpt lon="5.957573" lat="51.089236"><ele>34.6</ele><time>2022-05-22T06:57:36.000Z</time></trkpt><trkpt lon="5.957675" lat="51.089259"><ele>34.6</ele><time>2022-05-22T06:57:37.000Z</time></trkpt><trkpt lon="5.957778" lat="51.089283"><ele>34.6</ele><time>2022-05-22T06:57:38.000Z</time></trkpt><trkpt lon="5.95788" lat="51.089309"><ele>34.4</ele><time>2022-05-22T06:57:39.000Z</time></trkpt><trkpt lon="5.957983" lat="51.089332"><ele>34.4</ele><time>2022-05-22T06:57:40.000Z</time></trkpt><trkpt lon="5.958085" lat="51.089358"><ele>34.4</ele><time>2022-05-22T06:57:41.000Z</time></trkpt><trkpt lon="5.958187" lat="51.089381"><ele>34.4</ele><time>2022-05-22T06:57:42.000Z</time></trkpt><trkpt lon="5.958289" lat="51.089408"><ele>34.2</ele><time>2022-05-22T06:57:43.000Z</time></trkpt><trkpt lon="5.958391" lat="51.089435"><ele>34.2</ele><time>2022-05-22T06:57:44.000Z</time></trkpt><trkpt lon="5.958494" lat="51.089458"><ele>34.2</ele><time>2022-05-22T06:57:45.000Z</time></trkpt><trkpt lon="5.958598" lat="51.089484"><ele>34.4</ele><time>2022-05-22T06:57:46.000Z</time></trkpt><trkpt lon="5.9587" lat="51.089511"><ele>34.4</ele><time>2022-05-22T06:57:47.000Z</time></trkpt><trkpt lon="5.958799" lat="51.089538"><ele>34.4</ele><time>2022-05-22T06:57:48.000Z</time></trkpt><trkpt lon="5.958899" lat="51.089564"><ele>34.4</ele><time>2022-05-22T06:57:49.000Z</time></trkpt><trkpt lon="5.959" lat="51.089587"><ele>34.6</ele><time>2022-05-22T06:57:50.000Z</time></trkpt><trkpt lon="5.959098" lat="51.089614"><ele>34.6</ele><time>2022-05-22T06:57:51.000Z</time></trkpt><trkpt lon="5.959206" lat="51.089637"><ele>34.6</ele><time>2022-05-22T06:57:52.000Z</time></trkpt><trkpt lon="5.959307" lat="51.089663"><ele>34.6</ele><time>2022-05-22T06:57:53.000Z</time></trkpt><trkpt lon="5.959413" lat="51.08969"><ele>34.6</ele><time>2022-05-22T06:57:54.000Z</time></trkpt><trkpt lon="5.959517" lat="51.089717"><ele>34.6</ele><time>2022-05-22T06:57:55.000Z</time></trkpt><trkpt lon="5.959622" lat="51.089744"><ele>34.6</ele><time>2022-05-22T06:57:56.000Z</time></trkpt><trkpt lon="5.959719" lat="51.089766"><ele>34.4</ele><time>2022-05-22T06:57:57.000Z</time></trkpt><trkpt lon="5.959818" lat="51.089793"><ele>34.4</ele><time>2022-05-22T06:57:58.000Z</time></trkpt><trkpt lon="5.959915" lat="51.089816"><ele>34.4</ele><time>2022-05-22T06:57:59.000Z</time></trkpt><trkpt lon="5.960018" lat="51.089839"><ele>34.4</ele><time>2022-05-22T06:58:00.000Z</time></trkpt><trkpt lon="5.96012" lat="51.089866"><ele>34.4</ele><time>2022-05-22T06:58:01.000Z</time></trkpt><trkpt lon="5.960219" lat="51.089889"><ele>34.4</ele><time>2022-05-22T06:58:02.000Z</time></trkpt><trkpt lon="5.960323" lat="51.089919"><ele>34.4</ele><time>2022-05-22T06:58:03.000Z</time></trkpt><trkpt lon="5.960428" lat="51.089946"><ele>34.4</ele><time>2022-05-22T06:58:04.000Z</time></trkpt><trkpt lon="5.960534" lat="51.089973"><ele>34.4</ele><time>2022-05-22T06:58:05.000Z</time></trkpt><trkpt lon="5.960639" lat="51.089996"><ele>34.4</ele><time>2022-05-22T06:58:06.000Z</time></trkpt><trkpt lon="5.960741" lat="51.090022"><ele>34.4</ele><time>2022-05-22T06:58:07.000Z</time></trkpt><trkpt lon="5.960843" lat="51.090045"><ele>34.4</ele><time>2022-05-22T06:58:08.000Z</time></trkpt><trkpt lon="5.960942" lat="51.090072"><ele>34.2</ele><time>2022-05-22T06:58:09.000Z</time></trkpt><trkpt lon="5.961043" lat="51.090095"><ele>34.2</ele><time>2022-05-22T06:58:10.000Z</time></trkpt><trkpt lon="5.961142" lat="51.090121"><ele>34.2</ele><time>2022-05-22T06:58:11.000Z</time></trkpt><trkpt lon="5.961244" lat="51.090144"><ele>34.2</ele><time>2022-05-22T06:58:12.000Z</time></trkpt><trkpt lon="5.961349" lat="51.090171"><ele>34.2</ele><time>2022-05-22T06:58:13.000Z</time></trkpt><trkpt lon="5.961454" lat="51.090198"><ele>34</ele><time>2022-05-22T06:58:14.000Z</time></trkpt><trkpt lon="5.961553" lat="51.090224"><ele>34</ele><time>2022-05-22T06:58:15.000Z</time></trkpt><trkpt lon="5.961654" lat="51.090247"><ele>34</ele><time>2022-05-22T06:58:16.000Z</time></trkpt><trkpt lon="5.961753" lat="51.090274"><ele>34</ele><time>2022-05-22T06:58:17.000Z</time></trkpt><trkpt lon="5.961851" lat="51.0903"><ele>33.8</ele><time>2022-05-22T06:58:18.000Z</time></trkpt><trkpt lon="5.96195" lat="51.090324"><ele>33.8</ele><time>2022-05-22T06:58:19.000Z</time></trkpt><trkpt lon="5.962043" lat="51.090346"><ele>33.8</ele><time>2022-05-22T06:58:20.000Z</time></trkpt><trkpt lon="5.962133" lat="51.090369"><ele>33.8</ele><time>2022-05-22T06:58:21.000Z</time></trkpt><trkpt lon="5.962221" lat="51.090389"><ele>33.8</ele><time>2022-05-22T06:58:22.000Z</time></trkpt><trkpt lon="5.962303" lat="51.090411"><ele>33.8</ele><time>2022-05-22T06:58:23.000Z</time></trkpt><trkpt lon="5.962384" lat="51.090434"><ele>33.6</ele><time>2022-05-22T06:58:24.000Z</time></trkpt><trkpt lon="5.962461" lat="51.09045"><ele>33.6</ele><time>2022-05-22T06:58:25.000Z</time></trkpt><trkpt lon="5.962534" lat="51.090472"><ele>33.6</ele><time>2022-05-22T06:58:26.000Z</time></trkpt><trkpt lon="5.962611" lat="51.090492"><ele>33.6</ele><time>2022-05-22T06:58:27.000Z</time></trkpt><trkpt lon="5.962688" lat="51.090514"><ele>33.6</ele><time>2022-05-22T06:58:28.000Z</time></trkpt><trkpt lon="5.962759" lat="51.090537"><ele>33.4</ele><time>2022-05-22T06:58:29.000Z</time></trkpt><trkpt lon="5.962828" lat="51.090553"><ele>33.4</ele><time>2022-05-22T06:58:30.000Z</time></trkpt><trkpt lon="5.9629" lat="51.090575"><ele>33.4</ele><time>2022-05-22T06:58:31.000Z</time></trkpt><trkpt lon="5.962973" lat="51.090591"><ele>33.4</ele><time>2022-05-22T06:58:32.000Z</time></trkpt><trkpt lon="5.963043" lat="51.090599"><ele>33.4</ele><time>2022-05-22T06:58:33.000Z</time></trkpt><trkpt lon="5.963116" lat="51.090599"><ele>33.4</ele><time>2022-05-22T06:58:34.000Z</time></trkpt><trkpt lon="5.963191" lat="51.090603"><ele>33.2</ele><time>2022-05-22T06:58:35.000Z</time></trkpt><trkpt lon="5.963261" lat="51.090618"><ele>33.2</ele><time>2022-05-22T06:58:36.000Z</time></trkpt><trkpt lon="5.963331" lat="51.090637"><ele>33.2</ele><time>2022-05-22T06:58:37.000Z</time></trkpt><trkpt lon="5.963409" lat="51.090663"><ele>33</ele><time>2022-05-22T06:58:38.000Z</time></trkpt><trkpt lon="5.963493" lat="51.090686"><ele>33</ele><time>2022-05-22T06:58:39.000Z</time></trkpt><trkpt lon="5.963585" lat="51.090698"><ele>33</ele><time>2022-05-22T06:58:40.000Z</time></trkpt><trkpt lon="5.963684" lat="51.090717"><ele>33</ele><time>2022-05-22T06:58:41.000Z</time></trkpt><trkpt lon="5.963789" lat="51.090736"><ele>32.8</ele><time>2022-05-22T06:58:42.000Z</time></trkpt><trkpt lon="5.963904" lat="51.090762"><ele>32.8</ele><time>2022-05-22T06:58:43.000Z</time></trkpt><trkpt lon="5.964029" lat="51.090789"><ele>33</ele><time>2022-05-22T06:58:44.000Z</time></trkpt><trkpt lon="5.964154" lat="51.090816"><ele>33</ele><time>2022-05-22T06:58:45.000Z</time></trkpt><trkpt lon="5.96428" lat="51.090839"><ele>33</ele><time>2022-05-22T06:58:46.000Z</time></trkpt><trkpt lon="5.964401" lat="51.090865"><ele>33</ele><time>2022-05-22T06:58:47.000Z</time></trkpt><trkpt lon="5.964515" lat="51.090892"><ele>33.2</ele><time>2022-05-22T06:58:48.000Z</time></trkpt><trkpt lon="5.964622" lat="51.090919"><ele>33.4</ele><time>2022-05-22T06:58:49.000Z</time></trkpt><trkpt lon="5.964723" lat="51.090945"><ele>33.4</ele><time>2022-05-22T06:58:50.000Z</time></trkpt><trkpt lon="5.964826" lat="51.090968"><ele>33.4</ele><time>2022-05-22T06:58:51.000Z</time></trkpt><trkpt lon="5.964926" lat="51.090995"><ele>33.4</ele><time>2022-05-22T06:58:52.000Z</time></trkpt><trkpt lon="5.96502" lat="51.091021"><ele>33.6</ele><time>2022-05-22T06:58:53.000Z</time></trkpt><trkpt lon="5.965117" lat="51.091048"><ele>33.6</ele><time>2022-05-22T06:58:54.000Z</time></trkpt><trkpt lon="5.965214" lat="51.091071"><ele>33.6</ele><time>2022-05-22T06:58:55.000Z</time></trkpt><trkpt lon="5.965308" lat="51.091094"><ele>33.8</ele><time>2022-05-22T06:58:56.000Z</time></trkpt><trkpt lon="5.965401" lat="51.091121"><ele>33.8</ele><time>2022-05-22T06:58:57.000Z</time></trkpt><trkpt lon="5.965493" lat="51.091147"><ele>34</ele><time>2022-05-22T06:58:58.000Z</time></trkpt><trkpt lon="5.965587" lat="51.091167"><ele>34</ele><time>2022-05-22T06:58:59.000Z</time></trkpt><trkpt lon="5.965683" lat="51.091193"><ele>34</ele><time>2022-05-22T06:59:00.000Z</time></trkpt><trkpt lon="5.965786" lat="51.09122"><ele>34</ele><time>2022-05-22T06:59:01.000Z</time></trkpt><trkpt lon="5.965884" lat="51.091246"><ele>34.2</ele><time>2022-05-22T06:59:02.000Z</time></trkpt><trkpt lon="5.965987" lat="51.091273"><ele>34.2</ele><time>2022-05-22T06:59:03.000Z</time></trkpt><trkpt lon="5.966089" lat="51.0913"><ele>34.2</ele><time>2022-05-22T06:59:04.000Z</time></trkpt><trkpt lon="5.966195" lat="51.091323"><ele>34.4</ele><time>2022-05-22T06:59:05.000Z</time></trkpt><trkpt lon="5.966301" lat="51.091346"><ele>34.4</ele><time>2022-05-22T06:59:06.000Z</time></trkpt><trkpt lon="5.966401" lat="51.091369"><ele>34.6</ele><time>2022-05-22T06:59:07.000Z</time></trkpt><trkpt lon="5.966497" lat="51.091395"><ele>34.6</ele><time>2022-05-22T06:59:08.000Z</time></trkpt><trkpt lon="5.966601" lat="51.091419"><ele>34.8</ele><time>2022-05-22T06:59:09.000Z</time></trkpt><trkpt lon="5.966694" lat="51.091445"><ele>35</ele><time>2022-05-22T06:59:10.000Z</time></trkpt><trkpt lon="5.966784" lat="51.091472"><ele>35.2</ele><time>2022-05-22T06:59:11.000Z</time></trkpt><trkpt lon="5.966876" lat="51.091491"><ele>35.4</ele><time>2022-05-22T06:59:12.000Z</time></trkpt><trkpt lon="5.966966" lat="51.091514"><ele>35.4</ele><time>2022-05-22T06:59:13.000Z</time></trkpt><trkpt lon="5.967052" lat="51.091537"><ele>35.6</ele><time>2022-05-22T06:59:14.000Z</time></trkpt><trkpt lon="5.967141" lat="51.091562"><ele>35.8</ele><time>2022-05-22T06:59:15.000Z</time></trkpt><trkpt lon="5.96724" lat="51.091586"><ele>36</ele><time>2022-05-22T06:59:16.000Z</time></trkpt><trkpt lon="5.967337" lat="51.091612"><ele>36.2</ele><time>2022-05-22T06:59:17.000Z</time></trkpt><trkpt lon="5.967436" lat="51.091636"><ele>36.4</ele><time>2022-05-22T06:59:18.000Z</time></trkpt><trkpt lon="5.967532" lat="51.091659"><ele>36.6</ele><time>2022-05-22T06:59:19.000Z</time></trkpt><trkpt lon="5.967629" lat="51.091682"><ele>36.6</ele><time>2022-05-22T06:59:20.000Z</time></trkpt><trkpt lon="5.967723" lat="51.091704"><ele>36.8</ele><time>2022-05-22T06:59:21.000Z</time></trkpt><trkpt lon="5.967821" lat="51.091728"><ele>37</ele><time>2022-05-22T06:59:22.000Z</time></trkpt><trkpt lon="5.967914" lat="51.09175"><ele>37.2</ele><time>2022-05-22T06:59:23.000Z</time></trkpt><trkpt lon="5.968004" lat="51.091769"><ele>37.2</ele><time>2022-05-22T06:59:24.000Z</time></trkpt><trkpt lon="5.968099" lat="51.091792"><ele>37.4</ele><time>2022-05-22T06:59:25.000Z</time></trkpt><trkpt lon="5.968197" lat="51.091808"><ele>37.4</ele><time>2022-05-22T06:59:26.000Z</time></trkpt><trkpt lon="5.968296" lat="51.091831"><ele>37.6</ele><time>2022-05-22T06:59:27.000Z</time></trkpt><trkpt lon="5.968393" lat="51.091853"><ele>37.6</ele><time>2022-05-22T06:59:28.000Z</time></trkpt><trkpt lon="5.968489" lat="51.091876"><ele>37.8</ele><time>2022-05-22T06:59:29.000Z</time></trkpt><trkpt lon="5.968585" lat="51.091899"><ele>38</ele><time>2022-05-22T06:59:30.000Z</time></trkpt><trkpt lon="5.968684" lat="51.091918"><ele>38</ele><time>2022-05-22T06:59:31.000Z</time></trkpt><trkpt lon="5.968782" lat="51.091941"><ele>38</ele><time>2022-05-22T06:59:32.000Z</time></trkpt><trkpt lon="5.968882" lat="51.091968"><ele>38.2</ele><time>2022-05-22T06:59:33.000Z</time></trkpt><trkpt lon="5.968979" lat="51.091987"><ele>38.2</ele><time>2022-05-22T06:59:34.000Z</time></trkpt><trkpt lon="5.969077" lat="51.09201"><ele>38.2</ele><time>2022-05-22T06:59:35.000Z</time></trkpt><trkpt lon="5.969175" lat="51.092033"><ele>38.4</ele><time>2022-05-22T06:59:36.000Z</time></trkpt><trkpt lon="5.969273" lat="51.092055"><ele>38.6</ele><time>2022-05-22T06:59:37.000Z</time></trkpt><trkpt lon="5.969369" lat="51.092078"><ele>38.6</ele><time>2022-05-22T06:59:38.000Z</time></trkpt><trkpt lon="5.969465" lat="51.092105"><ele>38.8</ele><time>2022-05-22T06:59:39.000Z</time></trkpt><trkpt lon="5.969558" lat="51.092132"><ele>38.8</ele><time>2022-05-22T06:59:40.000Z</time></trkpt><trkpt lon="5.96965" lat="51.092162"><ele>38.8</ele><time>2022-05-22T06:59:41.000Z</time></trkpt><trkpt lon="5.969735" lat="51.092196"><ele>38.8</ele><time>2022-05-22T06:59:42.000Z</time></trkpt><trkpt lon="5.969813" lat="51.092234"><ele>38.8</ele><time>2022-05-22T06:59:43.000Z</time></trkpt><trkpt lon="5.969889" lat="51.092275"><ele>38.8</ele><time>2022-05-22T06:59:44.000Z</time></trkpt><trkpt lon="5.969965" lat="51.092321"><ele>38.8</ele><time>2022-05-22T06:59:45.000Z</time></trkpt><trkpt lon="5.970036" lat="51.092368"><ele>38.8</ele><time>2022-05-22T06:59:46.000Z</time></trkpt><trkpt lon="5.970103" lat="51.092417"><ele>39</ele><time>2022-05-22T06:59:47.000Z</time></trkpt><trkpt lon="5.970164" lat="51.09247"><ele>39</ele><time>2022-05-22T06:59:48.000Z</time></trkpt><trkpt lon="5.970218" lat="51.092527"><ele>39.2</ele><time>2022-05-22T06:59:49.000Z</time></trkpt><trkpt lon="5.970265" lat="51.092585"><ele>39.2</ele><time>2022-05-22T06:59:50.000Z</time></trkpt><trkpt lon="5.970305" lat="51.092645"><ele>39.2</ele><time>2022-05-22T06:59:51.000Z</time></trkpt><trkpt lon="5.970344" lat="51.092703"><ele>39.2</ele><time>2022-05-22T06:59:52.000Z</time></trkpt><trkpt lon="5.970376" lat="51.092757"><ele>39.2</ele><time>2022-05-22T06:59:53.000Z</time></trkpt><trkpt lon="5.970404" lat="51.09281"><ele>39.2</ele><time>2022-05-22T06:59:54.000Z</time></trkpt><trkpt lon="5.970432" lat="51.092871"><ele>39.2</ele><time>2022-05-22T06:59:55.000Z</time></trkpt><trkpt lon="5.970455" lat="51.092932"><ele>39.2</ele><time>2022-05-22T06:59:56.000Z</time></trkpt><trkpt lon="5.970481" lat="51.092997"><ele>39.2</ele><time>2022-05-22T06:59:57.000Z</time></trkpt><trkpt lon="5.970507" lat="51.093058"><ele>39</ele><time>2022-05-22T06:59:58.000Z</time></trkpt><trkpt lon="5.970534" lat="51.093119"><ele>39</ele><time>2022-05-22T06:59:59.000Z</time></trkpt><trkpt lon="5.970562" lat="51.093183"><ele>38.8</ele><time>2022-05-22T07:00:00.000Z</time></trkpt><trkpt lon="5.970596" lat="51.093259"><ele>38.8</ele><time>2022-05-22T07:00:01.000Z</time></trkpt><trkpt lon="5.970631" lat="51.093329"><ele>38.6</ele><time>2022-05-22T07:00:02.000Z</time></trkpt><trkpt lon="5.970671" lat="51.093405"><ele>38.4</ele><time>2022-05-22T07:00:03.000Z</time></trkpt><trkpt lon="5.970715" lat="51.093477"><ele>38.2</ele><time>2022-05-22T07:00:04.000Z</time></trkpt><trkpt lon="5.970765" lat="51.093545"><ele>37.8</ele><time>2022-05-22T07:00:05.000Z</time></trkpt><trkpt lon="5.970822" lat="51.093614"><ele>37.4</ele><time>2022-05-22T07:00:06.000Z</time></trkpt><trkpt lon="5.970885" lat="51.093676"><ele>37</ele><time>2022-05-22T07:00:07.000Z</time></trkpt><trkpt lon="5.970956" lat="51.093733"><ele>36.8</ele><time>2022-05-22T07:00:08.000Z</time></trkpt><trkpt lon="5.971035" lat="51.093787"><ele>36.6</ele><time>2022-05-22T07:00:09.000Z</time></trkpt><trkpt lon="5.97111" lat="51.093836"><ele>36.4</ele><time>2022-05-22T07:00:10.000Z</time></trkpt><trkpt lon="5.971201" lat="51.093884"><ele>36.2</ele><time>2022-05-22T07:00:11.000Z</time></trkpt><trkpt lon="5.9713" lat="51.093932"><ele>36</ele><time>2022-05-22T07:00:12.000Z</time></trkpt><trkpt lon="5.971417" lat="51.093977"><ele>35.8</ele><time>2022-05-22T07:00:13.000Z</time></trkpt><trkpt lon="5.97153" lat="51.09402"><ele>35.8</ele><time>2022-05-22T07:00:14.000Z</time></trkpt><trkpt lon="5.971641" lat="51.094054"><ele>35.6</ele><time>2022-05-22T07:00:15.000Z</time></trkpt><trkpt lon="5.971754" lat="51.094081"><ele>35.6</ele><time>2022-05-22T07:00:16.000Z</time></trkpt><trkpt lon="5.971867" lat="51.094108"><ele>35.2</ele><time>2022-05-22T07:00:17.000Z</time></trkpt><trkpt lon="5.97198" lat="51.094135"><ele>35</ele><time>2022-05-22T07:00:18.000Z</time></trkpt><trkpt lon="5.972092" lat="51.094165"><ele>35</ele><time>2022-05-22T07:00:19.000Z</time></trkpt><trkpt lon="5.972204" lat="51.094188"><ele>35</ele><time>2022-05-22T07:00:20.000Z</time></trkpt><trkpt lon="5.972308" lat="51.094213"><ele>35</ele><time>2022-05-22T07:00:21.000Z</time></trkpt><trkpt lon="5.972419" lat="51.094241"><ele>35</ele><time>2022-05-22T07:00:22.000Z</time></trkpt><trkpt lon="5.972521" lat="51.094264"><ele>35</ele><time>2022-05-22T07:00:23.000Z</time></trkpt><trkpt lon="5.972621" lat="51.094291"><ele>34.8</ele><time>2022-05-22T07:00:24.000Z</time></trkpt><trkpt lon="5.97271" lat="51.09431"><ele>34.8</ele><time>2022-05-22T07:00:25.000Z</time></trkpt><trkpt lon="5.972793" lat="51.094329"><ele>34.6</ele><time>2022-05-22T07:00:26.000Z</time></trkpt><trkpt lon="5.972862" lat="51.094348"><ele>34.6</ele><time>2022-05-22T07:00:27.000Z</time></trkpt><trkpt lon="5.972919" lat="51.094371"><ele>34.8</ele><time>2022-05-22T07:00:28.000Z</time></trkpt><trkpt lon="5.972958" lat="51.094398"><ele>34.8</ele><time>2022-05-22T07:00:29.000Z</time></trkpt><trkpt lon="5.973" lat="51.094424"><ele>34.8</ele><time>2022-05-22T07:00:30.000Z</time></trkpt><trkpt lon="5.973062" lat="51.094451"><ele>34.8</ele><time>2022-05-22T07:00:31.000Z</time></trkpt><trkpt lon="5.973137" lat="51.094473"><ele>34.8</ele><time>2022-05-22T07:00:32.000Z</time></trkpt><trkpt lon="5.97324" lat="51.094501"><ele>34.8</ele><time>2022-05-22T07:00:33.000Z</time></trkpt><trkpt lon="5.973349" lat="51.094528"><ele>34.8</ele><time>2022-05-22T07:00:34.000Z</time></trkpt><trkpt lon="5.973465" lat="51.094554"><ele>34.6</ele><time>2022-05-22T07:00:35.000Z</time></trkpt><trkpt lon="5.973583" lat="51.094581"><ele>34.4</ele><time>2022-05-22T07:00:36.000Z</time></trkpt><trkpt lon="5.973703" lat="51.094611"><ele>34.4</ele><time>2022-05-22T07:00:37.000Z</time></trkpt><trkpt lon="5.973812" lat="51.094633"><ele>34.4</ele><time>2022-05-22T07:00:38.000Z</time></trkpt><trkpt lon="5.973939" lat="51.094654"><ele>34.2</ele><time>2022-05-22T07:00:39.000Z</time></trkpt><trkpt lon="5.974036" lat="51.094669"><ele>34.2</ele><time>2022-05-22T07:00:40.000Z</time></trkpt><trkpt lon="5.974166" lat="51.094692"><ele>34.2</ele><time>2022-05-22T07:00:41.000Z</time></trkpt><trkpt lon="5.974272" lat="51.094707"><ele>34.2</ele><time>2022-05-22T07:00:42.000Z</time></trkpt><trkpt lon="5.974375" lat="51.094723"><ele>34.2</ele><time>2022-05-22T07:00:43.000Z</time></trkpt><trkpt lon="5.974481" lat="51.094734"><ele>34.2</ele><time>2022-05-22T07:00:44.000Z</time></trkpt><trkpt lon="5.974591" lat="51.094745"><ele>34.2</ele><time>2022-05-22T07:00:45.000Z</time></trkpt><trkpt lon="5.974699" lat="51.094757"><ele>34.2</ele><time>2022-05-22T07:00:46.000Z</time></trkpt><trkpt lon="5.974811" lat="51.094768"><ele>34.2</ele><time>2022-05-22T07:00:47.000Z</time></trkpt><trkpt lon="5.974923" lat="51.09478"><ele>34</ele><time>2022-05-22T07:00:48.000Z</time></trkpt><trkpt lon="5.975026" lat="51.094787"><ele>33.8</ele><time>2022-05-22T07:00:49.000Z</time></trkpt><trkpt lon="5.975138" lat="51.094799"><ele>33.8</ele><time>2022-05-22T07:00:50.000Z</time></trkpt><trkpt lon="5.975243" lat="51.09481"><ele>33.8</ele><time>2022-05-22T07:00:51.000Z</time></trkpt><trkpt lon="5.975349" lat="51.094822"><ele>34</ele><time>2022-05-22T07:00:52.000Z</time></trkpt><trkpt lon="5.975452" lat="51.094833"><ele>34</ele><time>2022-05-22T07:00:53.000Z</time></trkpt><trkpt lon="5.975557" lat="51.094848"><ele>34.2</ele><time>2022-05-22T07:00:54.000Z</time></trkpt><trkpt lon="5.975656" lat="51.094863"><ele>34.4</ele><time>2022-05-22T07:00:55.000Z</time></trkpt><trkpt lon="5.975753" lat="51.094875"><ele>34.4</ele><time>2022-05-22T07:00:56.000Z</time></trkpt><trkpt lon="5.975854" lat="51.094886"><ele>34.6</ele><time>2022-05-22T07:00:57.000Z</time></trkpt><trkpt lon="5.975956" lat="51.094898"><ele>34.6</ele><time>2022-05-22T07:00:58.000Z</time></trkpt><trkpt lon="5.976051" lat="51.094906"><ele>34.6</ele><time>2022-05-22T07:00:59.000Z</time></trkpt><trkpt lon="5.97615" lat="51.094917"><ele>34.6</ele><time>2022-05-22T07:01:00.000Z</time></trkpt><trkpt lon="5.976249" lat="51.094928"><ele>34.6</ele><time>2022-05-22T07:01:01.000Z</time></trkpt><trkpt lon="5.976364" lat="51.09494"><ele>34.6</ele><time>2022-05-22T07:01:02.000Z</time></trkpt><trkpt lon="5.976475" lat="51.094951"><ele>34.6</ele><time>2022-05-22T07:01:03.000Z</time></trkpt><trkpt lon="5.97658" lat="51.094962"><ele>34.6</ele><time>2022-05-22T07:01:04.000Z</time></trkpt><trkpt lon="5.9767" lat="51.094974"><ele>34.6</ele><time>2022-05-22T07:01:05.000Z</time></trkpt><trkpt lon="5.976811" lat="51.094985"><ele>34.6</ele><time>2022-05-22T07:01:06.000Z</time></trkpt><trkpt lon="5.976923" lat="51.095001"><ele>34.6</ele><time>2022-05-22T07:01:07.000Z</time></trkpt><trkpt lon="5.977032" lat="51.095012"><ele>34.6</ele><time>2022-05-22T07:01:08.000Z</time></trkpt><trkpt lon="5.977133" lat="51.095024"><ele>34.6</ele><time>2022-05-22T07:01:09.000Z</time></trkpt><trkpt lon="5.977237" lat="51.095039"><ele>34.6</ele><time>2022-05-22T07:01:10.000Z</time></trkpt><trkpt lon="5.977348" lat="51.095054"><ele>34.6</ele><time>2022-05-22T07:01:11.000Z</time></trkpt><trkpt lon="5.97746" lat="51.095069"><ele>34.6</ele><time>2022-05-22T07:01:12.000Z</time></trkpt><trkpt lon="5.977575" lat="51.095085"><ele>34.6</ele><time>2022-05-22T07:01:13.000Z</time></trkpt><trkpt lon="5.977692" lat="51.0951"><ele>34.6</ele><time>2022-05-22T07:01:14.000Z</time></trkpt><trkpt lon="5.977805" lat="51.095115"><ele>34.6</ele><time>2022-05-22T07:01:15.000Z</time></trkpt><trkpt lon="5.977914" lat="51.095126"><ele>34.4</ele><time>2022-05-22T07:01:16.000Z</time></trkpt><trkpt lon="5.978028" lat="51.095138"><ele>34.4</ele><time>2022-05-22T07:01:17.000Z</time></trkpt><trkpt lon="5.978139" lat="51.095149"><ele>34.4</ele><time>2022-05-22T07:01:18.000Z</time></trkpt><trkpt lon="5.978258" lat="51.095161"><ele>34.4</ele><time>2022-05-22T07:01:19.000Z</time></trkpt><trkpt lon="5.978373" lat="51.095176"><ele>34.4</ele><time>2022-05-22T07:01:20.000Z</time></trkpt><trkpt lon="5.978491" lat="51.095188"><ele>34.4</ele><time>2022-05-22T07:01:21.000Z</time></trkpt><trkpt lon="5.978605" lat="51.095199"><ele>34.2</ele><time>2022-05-22T07:01:22.000Z</time></trkpt><trkpt lon="5.978718" lat="51.095211"><ele>34.2</ele><time>2022-05-22T07:01:23.000Z</time></trkpt><trkpt lon="5.978825" lat="51.095218"><ele>34.2</ele><time>2022-05-22T07:01:24.000Z</time></trkpt><trkpt lon="5.978938" lat="51.09523"><ele>34.2</ele><time>2022-05-22T07:01:25.000Z</time></trkpt><trkpt lon="5.979047" lat="51.095241"><ele>34.2</ele><time>2022-05-22T07:01:26.000Z</time></trkpt><trkpt lon="5.979157" lat="51.095249"><ele>34.2</ele><time>2022-05-22T07:01:27.000Z</time></trkpt><trkpt lon="5.979266" lat="51.09526"><ele>34.2</ele><time>2022-05-22T07:01:28.000Z</time></trkpt><trkpt lon="5.979375" lat="51.095268"><ele>34.2</ele><time>2022-05-22T07:01:29.000Z</time></trkpt><trkpt lon="5.979481" lat="51.095279"><ele>34.2</ele><time>2022-05-22T07:01:30.000Z</time></trkpt><trkpt lon="5.979586" lat="51.095291"><ele>34.2</ele><time>2022-05-22T07:01:31.000Z</time></trkpt><trkpt lon="5.979691" lat="51.095302"><ele>34.2</ele><time>2022-05-22T07:01:32.000Z</time></trkpt><trkpt lon="5.9798" lat="51.09531"><ele>34</ele><time>2022-05-22T07:01:33.000Z</time></trkpt><trkpt lon="5.979913" lat="51.09531"><ele>34</ele><time>2022-05-22T07:01:34.000Z</time></trkpt><trkpt lon="5.980029" lat="51.09531"><ele>34</ele><time>2022-05-22T07:01:35.000Z</time></trkpt><trkpt lon="5.980144" lat="51.095321"><ele>34</ele><time>2022-05-22T07:01:36.000Z</time></trkpt><trkpt lon="5.98026" lat="51.095333"><ele>34</ele><time>2022-05-22T07:01:37.000Z</time></trkpt><trkpt lon="5.98037" lat="51.095347"><ele>34</ele><time>2022-05-22T07:01:38.000Z</time></trkpt><trkpt lon="5.980477" lat="51.09537"><ele>34</ele><time>2022-05-22T07:01:39.000Z</time></trkpt><trkpt lon="5.980567" lat="51.095386"><ele>34</ele><time>2022-05-22T07:01:40.000Z</time></trkpt><trkpt lon="5.980665" lat="51.095404"><ele>34</ele><time>2022-05-22T07:01:41.000Z</time></trkpt><trkpt lon="5.980807" lat="51.095424"><ele>34</ele><time>2022-05-22T07:01:42.000Z</time></trkpt><trkpt lon="5.980925" lat="51.095436"><ele>34</ele><time>2022-05-22T07:01:43.000Z</time></trkpt><trkpt lon="5.98104" lat="51.095447"><ele>33.8</ele><time>2022-05-22T07:01:44.000Z</time></trkpt><trkpt lon="5.981158" lat="51.095458"><ele>33.8</ele><time>2022-05-22T07:01:45.000Z</time></trkpt><trkpt lon="5.981271" lat="51.09547"><ele>33.8</ele><time>2022-05-22T07:01:46.000Z</time></trkpt><trkpt lon="5.981381" lat="51.095485"><ele>33.8</ele><time>2022-05-22T07:01:47.000Z</time></trkpt><trkpt lon="5.98149" lat="51.095493"><ele>33.6</ele><time>2022-05-22T07:01:48.000Z</time></trkpt><trkpt lon="5.981597" lat="51.095504"><ele>33.6</ele><time>2022-05-22T07:01:49.000Z</time></trkpt><trkpt lon="5.981704" lat="51.095516"><ele>33.6</ele><time>2022-05-22T07:01:50.000Z</time></trkpt><trkpt lon="5.981807" lat="51.095527"><ele>33.6</ele><time>2022-05-22T07:01:51.000Z</time></trkpt><trkpt lon="5.981918" lat="51.095542"><ele>33.6</ele><time>2022-05-22T07:01:52.000Z</time></trkpt><trkpt lon="5.982028" lat="51.09555"><ele>33.4</ele><time>2022-05-22T07:01:53.000Z</time></trkpt><trkpt lon="5.982136" lat="51.095561"><ele>33.4</ele><time>2022-05-22T07:01:54.000Z</time></trkpt><trkpt lon="5.982242" lat="51.095573"><ele>33.4</ele><time>2022-05-22T07:01:55.000Z</time></trkpt><trkpt lon="5.982353" lat="51.095584"><ele>33.4</ele><time>2022-05-22T07:01:56.000Z</time></trkpt><trkpt lon="5.98246" lat="51.095592"><ele>33.4</ele><time>2022-05-22T07:01:57.000Z</time></trkpt><trkpt lon="5.982568" lat="51.095603"><ele>33.4</ele><time>2022-05-22T07:01:58.000Z</time></trkpt><trkpt lon="5.982676" lat="51.095615"><ele>33.4</ele><time>2022-05-22T07:01:59.000Z</time></trkpt><trkpt lon="5.982782" lat="51.095626"><ele>33.2</ele><time>2022-05-22T07:02:00.000Z</time></trkpt><trkpt lon="5.982887" lat="51.095638"><ele>33.2</ele><time>2022-05-22T07:02:01.000Z</time></trkpt><trkpt lon="5.982992" lat="51.095649"><ele>33.2</ele><time>2022-05-22T07:02:02.000Z</time></trkpt><trkpt lon="5.9831" lat="51.095657"><ele>33.2</ele><time>2022-05-22T07:02:03.000Z</time></trkpt><trkpt lon="5.983207" lat="51.095668"><ele>33.2</ele><time>2022-05-22T07:02:04.000Z</time></trkpt><trkpt lon="5.983315" lat="51.095676"><ele>33.2</ele><time>2022-05-22T07:02:05.000Z</time></trkpt><trkpt lon="5.983421" lat="51.095687"><ele>33.2</ele><time>2022-05-22T07:02:06.000Z</time></trkpt><trkpt lon="5.98352" lat="51.095695"><ele>33.4</ele><time>2022-05-22T07:02:07.000Z</time></trkpt><trkpt lon="5.983613" lat="51.095705"><ele>33.4</ele><time>2022-05-22T07:02:08.000Z</time></trkpt><trkpt lon="5.983739" lat="51.095718"><ele>33.4</ele><time>2022-05-22T07:02:09.000Z</time></trkpt><trkpt lon="5.983841" lat="51.095729"><ele>33.4</ele><time>2022-05-22T07:02:10.000Z</time></trkpt><trkpt lon="5.983951" lat="51.095741"><ele>33.4</ele><time>2022-05-22T07:02:11.000Z</time></trkpt><trkpt lon="5.984055" lat="51.095749"><ele>33.4</ele><time>2022-05-22T07:02:12.000Z</time></trkpt><trkpt lon="5.984163" lat="51.09576"><ele>33.4</ele><time>2022-05-22T07:02:13.000Z</time></trkpt><trkpt lon="5.984273" lat="51.095768"><ele>33.4</ele><time>2022-05-22T07:02:14.000Z</time></trkpt><trkpt lon="5.984381" lat="51.095775"><ele>33.4</ele><time>2022-05-22T07:02:15.000Z</time></trkpt><trkpt lon="5.984486" lat="51.095787"><ele>33.6</ele><time>2022-05-22T07:02:16.000Z</time></trkpt><trkpt lon="5.984588" lat="51.095798"><ele>33.6</ele><time>2022-05-22T07:02:17.000Z</time></trkpt><trkpt lon="5.9847" lat="51.09581"><ele>33.6</ele><time>2022-05-22T07:02:18.000Z</time></trkpt><trkpt lon="5.9848" lat="51.095824"><ele>33.6</ele><time>2022-05-22T07:02:19.000Z</time></trkpt><trkpt lon="5.984908" lat="51.095836"><ele>33.6</ele><time>2022-05-22T07:02:20.000Z</time></trkpt><trkpt lon="5.98501" lat="51.095848"><ele>33.6</ele><time>2022-05-22T07:02:21.000Z</time></trkpt><trkpt lon="5.985114" lat="51.095852"><ele>33.6</ele><time>2022-05-22T07:02:22.000Z</time></trkpt><trkpt lon="5.985218" lat="51.095856"><ele>33.6</ele><time>2022-05-22T07:02:23.000Z</time></trkpt><trkpt lon="5.985328" lat="51.095856"><ele>33.6</ele><time>2022-05-22T07:02:24.000Z</time></trkpt><trkpt lon="5.985437" lat="51.095863"><ele>33.6</ele><time>2022-05-22T07:02:25.000Z</time></trkpt><trkpt lon="5.985553" lat="51.095871"><ele>33.6</ele><time>2022-05-22T07:02:26.000Z</time></trkpt><trkpt lon="5.985665" lat="51.095878"><ele>33.6</ele><time>2022-05-22T07:02:27.000Z</time></trkpt><trkpt lon="5.985777" lat="51.09589"><ele>33.6</ele><time>2022-05-22T07:02:28.000Z</time></trkpt><trkpt lon="5.985891" lat="51.095901"><ele>33.6</ele><time>2022-05-22T07:02:29.000Z</time></trkpt><trkpt lon="5.986" lat="51.095913"><ele>33.8</ele><time>2022-05-22T07:02:30.000Z</time></trkpt><trkpt lon="5.98611" lat="51.095924"><ele>33.8</ele><time>2022-05-22T07:02:31.000Z</time></trkpt><trkpt lon="5.986213" lat="51.095932"><ele>33.8</ele><time>2022-05-22T07:02:32.000Z</time></trkpt><trkpt lon="5.986315" lat="51.095943"><ele>33.8</ele><time>2022-05-22T07:02:33.000Z</time></trkpt><trkpt lon="5.986421" lat="51.095955"><ele>34</ele><time>2022-05-22T07:02:34.000Z</time></trkpt><trkpt lon="5.986525" lat="51.095966"><ele>34</ele><time>2022-05-22T07:02:35.000Z</time></trkpt><trkpt lon="5.986634" lat="51.095978"><ele>34</ele><time>2022-05-22T07:02:36.000Z</time></trkpt><trkpt lon="5.986741" lat="51.095989"><ele>34</ele><time>2022-05-22T07:02:37.000Z</time></trkpt><trkpt lon="5.986843" lat="51.096"><ele>34</ele><time>2022-05-22T07:02:38.000Z</time></trkpt><trkpt lon="5.986944" lat="51.096011"><ele>34</ele><time>2022-05-22T07:02:39.000Z</time></trkpt><trkpt lon="5.987037" lat="51.096025"><ele>34.2</ele><time>2022-05-22T07:02:40.000Z</time></trkpt><trkpt lon="5.987156" lat="51.096046"><ele>34.2</ele><time>2022-05-22T07:02:41.000Z</time></trkpt><trkpt lon="5.987265" lat="51.096061"><ele>34.2</ele><time>2022-05-22T07:02:42.000Z</time></trkpt><trkpt lon="5.98737" lat="51.096073"><ele>34.2</ele><time>2022-05-22T07:02:43.000Z</time></trkpt><trkpt lon="5.987479" lat="51.096088"><ele>34.4</ele><time>2022-05-22T07:02:44.000Z</time></trkpt><trkpt lon="5.987588" lat="51.0961"><ele>34.4</ele><time>2022-05-22T07:02:45.000Z</time></trkpt><trkpt lon="5.987691" lat="51.096111"><ele>34.4</ele><time>2022-05-22T07:02:46.000Z</time></trkpt><trkpt lon="5.987793" lat="51.096122"><ele>34.4</ele><time>2022-05-22T07:02:47.000Z</time></trkpt><trkpt lon="5.987895" lat="51.096134"><ele>34.4</ele><time>2022-05-22T07:02:48.000Z</time></trkpt><trkpt lon="5.988003" lat="51.096142"><ele>34.6</ele><time>2022-05-22T07:02:49.000Z</time></trkpt><trkpt lon="5.988108" lat="51.096153"><ele>34.6</ele><time>2022-05-22T07:02:50.000Z</time></trkpt><trkpt lon="5.988212" lat="51.096164"><ele>34.6</ele><time>2022-05-22T07:02:51.000Z</time></trkpt><trkpt lon="5.988314" lat="51.096176"><ele>34.6</ele><time>2022-05-22T07:02:52.000Z</time></trkpt><trkpt lon="5.988412" lat="51.096187"><ele>34.6</ele><time>2022-05-22T07:02:53.000Z</time></trkpt><trkpt lon="5.988507" lat="51.096195"><ele>34.6</ele><time>2022-05-22T07:02:54.000Z</time></trkpt><trkpt lon="5.988597" lat="51.096206"><ele>34.6</ele><time>2022-05-22T07:02:55.000Z</time></trkpt><trkpt lon="5.988695" lat="51.096214"><ele>34.6</ele><time>2022-05-22T07:02:56.000Z</time></trkpt><trkpt lon="5.988789" lat="51.096221"><ele>34.6</ele><time>2022-05-22T07:02:57.000Z</time></trkpt><trkpt lon="5.98889" lat="51.096229"><ele>34.6</ele><time>2022-05-22T07:02:58.000Z</time></trkpt><trkpt lon="5.988989" lat="51.096241"><ele>34.6</ele><time>2022-05-22T07:02:59.000Z</time></trkpt><trkpt lon="5.989087" lat="51.096252"><ele>34.6</ele><time>2022-05-22T07:03:00.000Z</time></trkpt><trkpt lon="5.989187" lat="51.096264"><ele>34.6</ele><time>2022-05-22T07:03:01.000Z</time></trkpt><trkpt lon="5.98929" lat="51.096275"><ele>34.6</ele><time>2022-05-22T07:03:02.000Z</time></trkpt><trkpt lon="5.989398" lat="51.096286"><ele>34.6</ele><time>2022-05-22T07:03:03.000Z</time></trkpt><trkpt lon="5.989515" lat="51.096302"><ele>34.4</ele><time>2022-05-22T07:03:04.000Z</time></trkpt><trkpt lon="5.989633" lat="51.096313"><ele>34.4</ele><time>2022-05-22T07:03:05.000Z</time></trkpt><trkpt lon="5.989747" lat="51.096324"><ele>34.4</ele><time>2022-05-22T07:03:06.000Z</time></trkpt><trkpt lon="5.989857" lat="51.096339"><ele>34.4</ele><time>2022-05-22T07:03:07.000Z</time></trkpt><trkpt lon="5.989971" lat="51.096351"><ele>34.4</ele><time>2022-05-22T07:03:08.000Z</time></trkpt><trkpt lon="5.990084" lat="51.096362"><ele>34.4</ele><time>2022-05-22T07:03:09.000Z</time></trkpt><trkpt lon="5.990198" lat="51.09637"><ele>34.4</ele><time>2022-05-22T07:03:10.000Z</time></trkpt><trkpt lon="5.990312" lat="51.096381"><ele>34.4</ele><time>2022-05-22T07:03:11.000Z</time></trkpt><trkpt lon="5.990427" lat="51.096393"><ele>34.2</ele><time>2022-05-22T07:03:12.000Z</time></trkpt><trkpt lon="5.990541" lat="51.096404"><ele>34.2</ele><time>2022-05-22T07:03:13.000Z</time></trkpt><trkpt lon="5.990654" lat="51.096416"><ele>34.2</ele><time>2022-05-22T07:03:14.000Z</time></trkpt><trkpt lon="5.990765" lat="51.096431"><ele>34.4</ele><time>2022-05-22T07:03:15.000Z</time></trkpt><trkpt lon="5.990882" lat="51.096443"><ele>34.4</ele><time>2022-05-22T07:03:16.000Z</time></trkpt><trkpt lon="5.990995" lat="51.096454"><ele>34.4</ele><time>2022-05-22T07:03:17.000Z</time></trkpt><trkpt lon="5.991106" lat="51.096469"><ele>34.4</ele><time>2022-05-22T07:03:18.000Z</time></trkpt><trkpt lon="5.991218" lat="51.096481"><ele>34.2</ele><time>2022-05-22T07:03:19.000Z</time></trkpt><trkpt lon="5.991327" lat="51.096492"><ele>34.4</ele><time>2022-05-22T07:03:20.000Z</time></trkpt><trkpt lon="5.991435" lat="51.096507"><ele>34.2</ele><time>2022-05-22T07:03:21.000Z</time></trkpt><trkpt lon="5.991547" lat="51.096519"><ele>34.2</ele><time>2022-05-22T07:03:22.000Z</time></trkpt><trkpt lon="5.991653" lat="51.09653"><ele>34.2</ele><time>2022-05-22T07:03:23.000Z</time></trkpt><trkpt lon="5.991763" lat="51.096538"><ele>34.4</ele><time>2022-05-22T07:03:24.000Z</time></trkpt><trkpt lon="5.991865" lat="51.096553"><ele>34.4</ele><time>2022-05-22T07:03:25.000Z</time></trkpt><trkpt lon="5.991972" lat="51.096565"><ele>34.4</ele><time>2022-05-22T07:03:26.000Z</time></trkpt><trkpt lon="5.992074" lat="51.096576"><ele>34.4</ele><time>2022-05-22T07:03:27.000Z</time></trkpt><trkpt lon="5.992181" lat="51.096588"><ele>34.4</ele><time>2022-05-22T07:03:28.000Z</time></trkpt><trkpt lon="5.99228" lat="51.096603"><ele>34.4</ele><time>2022-05-22T07:03:29.000Z</time></trkpt><trkpt lon="5.992377" lat="51.096614"><ele>34.4</ele><time>2022-05-22T07:03:30.000Z</time></trkpt><trkpt lon="5.992463" lat="51.096622"><ele>34.4</ele><time>2022-05-22T07:03:31.000Z</time></trkpt><trkpt lon="5.99256" lat="51.096637"><ele>34.4</ele><time>2022-05-22T07:03:32.000Z</time></trkpt><trkpt lon="5.99265" lat="51.096648"><ele>34.6</ele><time>2022-05-22T07:03:33.000Z</time></trkpt><trkpt lon="5.992749" lat="51.096664"><ele>34.4</ele><time>2022-05-22T07:03:34.000Z</time></trkpt><trkpt lon="5.992841" lat="51.096681"><ele>34.6</ele><time>2022-05-22T07:03:35.000Z</time></trkpt><trkpt lon="5.992946" lat="51.096701"><ele>34.6</ele><time>2022-05-22T07:03:36.000Z</time></trkpt><trkpt lon="5.993044" lat="51.096717"><ele>34.6</ele><time>2022-05-22T07:03:37.000Z</time></trkpt><trkpt lon="5.993143" lat="51.096736"><ele>34.6</ele><time>2022-05-22T07:03:38.000Z</time></trkpt><trkpt lon="5.993236" lat="51.096754"><ele>34.6</ele><time>2022-05-22T07:03:39.000Z</time></trkpt><trkpt lon="5.993341" lat="51.096774"><ele>34.6</ele><time>2022-05-22T07:03:40.000Z</time></trkpt><trkpt lon="5.993438" lat="51.096793"><ele>34.6</ele><time>2022-05-22T07:03:41.000Z</time></trkpt><trkpt lon="5.993544" lat="51.096816"><ele>34.6</ele><time>2022-05-22T07:03:42.000Z</time></trkpt><trkpt lon="5.993645" lat="51.096838"><ele>34.8</ele><time>2022-05-22T07:03:43.000Z</time></trkpt><trkpt lon="5.993751" lat="51.096862"><ele>34.6</ele><time>2022-05-22T07:03:44.000Z</time></trkpt><trkpt lon="5.993855" lat="51.096885"><ele>34.6</ele><time>2022-05-22T07:03:45.000Z</time></trkpt><trkpt lon="5.99396" lat="51.096907"><ele>34.6</ele><time>2022-05-22T07:03:46.000Z</time></trkpt><trkpt lon="5.994069" lat="51.09693"><ele>34.8</ele><time>2022-05-22T07:03:47.000Z</time></trkpt><trkpt lon="5.994178" lat="51.096957"><ele>34.8</ele><time>2022-05-22T07:03:48.000Z</time></trkpt><trkpt lon="5.994284" lat="51.096987"><ele>34.8</ele><time>2022-05-22T07:03:49.000Z</time></trkpt><trkpt lon="5.994387" lat="51.09701"><ele>34.8</ele><time>2022-05-22T07:03:50.000Z</time></trkpt><trkpt lon="5.99449" lat="51.097033"><ele>34.8</ele><time>2022-05-22T07:03:51.000Z</time></trkpt><trkpt lon="5.994595" lat="51.097058"><ele>34.8</ele><time>2022-05-22T07:03:52.000Z</time></trkpt><trkpt lon="5.9947" lat="51.097084"><ele>34.8</ele><time>2022-05-22T07:03:53.000Z</time></trkpt><trkpt lon="5.994795" lat="51.097105"><ele>34.8</ele><time>2022-05-22T07:03:54.000Z</time></trkpt><trkpt lon="5.994902" lat="51.097132"><ele>34.8</ele><time>2022-05-22T07:03:55.000Z</time></trkpt><trkpt lon="5.99501" lat="51.097157"><ele>34.8</ele><time>2022-05-22T07:03:56.000Z</time></trkpt><trkpt lon="5.995118" lat="51.097183"><ele>34.8</ele><time>2022-05-22T07:03:57.000Z</time></trkpt><trkpt lon="5.995221" lat="51.097208"><ele>35</ele><time>2022-05-22T07:03:58.000Z</time></trkpt><trkpt lon="5.995324" lat="51.097232"><ele>35</ele><time>2022-05-22T07:03:59.000Z</time></trkpt><trkpt lon="5.995426" lat="51.097257"><ele>35</ele><time>2022-05-22T07:04:00.000Z</time></trkpt><trkpt lon="5.995528" lat="51.097282"><ele>35</ele><time>2022-05-22T07:04:01.000Z</time></trkpt><trkpt lon="5.995628" lat="51.097308"><ele>35</ele><time>2022-05-22T07:04:02.000Z</time></trkpt><trkpt lon="5.995731" lat="51.097332"><ele>35</ele><time>2022-05-22T07:04:03.000Z</time></trkpt><trkpt lon="5.995833" lat="51.097354"><ele>35</ele><time>2022-05-22T07:04:04.000Z</time></trkpt><trkpt lon="5.995931" lat="51.097381"><ele>35</ele><time>2022-05-22T07:04:05.000Z</time></trkpt><trkpt lon="5.996033" lat="51.097408"><ele>35</ele><time>2022-05-22T07:04:06.000Z</time></trkpt><trkpt lon="5.996133" lat="51.097434"><ele>35</ele><time>2022-05-22T07:04:07.000Z</time></trkpt><trkpt lon="5.996232" lat="51.097461"><ele>35</ele><time>2022-05-22T07:04:08.000Z</time></trkpt><trkpt lon="5.996327" lat="51.097488"><ele>35.2</ele><time>2022-05-22T07:04:09.000Z</time></trkpt><trkpt lon="5.996431" lat="51.097511"><ele>35.2</ele><time>2022-05-22T07:04:10.000Z</time></trkpt><trkpt lon="5.996533" lat="51.097537"><ele>35.2</ele><time>2022-05-22T07:04:11.000Z</time></trkpt><trkpt lon="5.996635" lat="51.097564"><ele>35.2</ele><time>2022-05-22T07:04:12.000Z</time></trkpt><trkpt lon="5.996734" lat="51.097587"><ele>35.2</ele><time>2022-05-22T07:04:13.000Z</time></trkpt><trkpt lon="5.996837" lat="51.097614"><ele>35.2</ele><time>2022-05-22T07:04:14.000Z</time></trkpt><trkpt lon="5.996936" lat="51.097637"><ele>35.2</ele><time>2022-05-22T07:04:15.000Z</time></trkpt><trkpt lon="5.997033" lat="51.097663"><ele>35.2</ele><time>2022-05-22T07:04:16.000Z</time></trkpt><trkpt lon="5.997129" lat="51.097686"><ele>35.4</ele><time>2022-05-22T07:04:17.000Z</time></trkpt><trkpt lon="5.997225" lat="51.097713"><ele>35.4</ele><time>2022-05-22T07:04:18.000Z</time></trkpt><trkpt lon="5.997321" lat="51.097734"><ele>35.4</ele><time>2022-05-22T07:04:19.000Z</time></trkpt><trkpt lon="5.997418" lat="51.097755"><ele>35.2</ele><time>2022-05-22T07:04:20.000Z</time></trkpt><trkpt lon="5.997506" lat="51.097777"><ele>35.2</ele><time>2022-05-22T07:04:21.000Z</time></trkpt><trkpt lon="5.997603" lat="51.097801"><ele>35.2</ele><time>2022-05-22T07:04:22.000Z</time></trkpt><trkpt lon="5.997693" lat="51.097819"><ele>35.2</ele><time>2022-05-22T07:04:23.000Z</time></trkpt><trkpt lon="5.997785" lat="51.097846"><ele>35.2</ele><time>2022-05-22T07:04:24.000Z</time></trkpt><trkpt lon="5.997878" lat="51.097877"><ele>35.2</ele><time>2022-05-22T07:04:25.000Z</time></trkpt><trkpt lon="5.997963" lat="51.097907"><ele>35.2</ele><time>2022-05-22T07:04:26.000Z</time></trkpt><trkpt lon="5.998044" lat="51.09793"><ele>35.4</ele><time>2022-05-22T07:04:27.000Z</time></trkpt><trkpt lon="5.998129" lat="51.097946"><ele>35.4</ele><time>2022-05-22T07:04:28.000Z</time></trkpt><trkpt lon="5.998217" lat="51.097961"><ele>35.6</ele><time>2022-05-22T07:04:29.000Z</time></trkpt><trkpt lon="5.998309" lat="51.09798"><ele>35.8</ele><time>2022-05-22T07:04:30.000Z</time></trkpt><trkpt lon="5.998402" lat="51.098003"><ele>35.8</ele><time>2022-05-22T07:04:31.000Z</time></trkpt><trkpt lon="5.998495" lat="51.09803"><ele>36</ele><time>2022-05-22T07:04:32.000Z</time></trkpt><trkpt lon="5.998583" lat="51.098052"><ele>36</ele><time>2022-05-22T07:04:33.000Z</time></trkpt><trkpt lon="5.998668" lat="51.098079"><ele>36</ele><time>2022-05-22T07:04:34.000Z</time></trkpt><trkpt lon="5.998752" lat="51.098102"><ele>36</ele><time>2022-05-22T07:04:35.000Z</time></trkpt><trkpt lon="5.998832" lat="51.098121"><ele>36</ele><time>2022-05-22T07:04:36.000Z</time></trkpt><trkpt lon="5.998909" lat="51.098147"><ele>36</ele><time>2022-05-22T07:04:37.000Z</time></trkpt><trkpt lon="5.998985" lat="51.098171"><ele>36.2</ele><time>2022-05-22T07:04:38.000Z</time></trkpt><trkpt lon="5.999055" lat="51.098186"><ele>36.2</ele><time>2022-05-22T07:04:39.000Z</time></trkpt><trkpt lon="5.99913" lat="51.098197"><ele>36.2</ele><time>2022-05-22T07:04:40.000Z</time></trkpt><trkpt lon="5.99922" lat="51.098198"><ele>36.2</ele><time>2022-05-22T07:04:41.000Z</time></trkpt><trkpt lon="5.99931" lat="51.098198"><ele>36.2</ele><time>2022-05-22T07:04:42.000Z</time></trkpt><trkpt lon="5.999395" lat="51.09819"><ele>36.4</ele><time>2022-05-22T07:04:43.000Z</time></trkpt><trkpt lon="5.999472" lat="51.098187"><ele>36.6</ele><time>2022-05-22T07:04:44.000Z</time></trkpt><trkpt lon="5.999534" lat="51.098179"><ele>37</ele><time>2022-05-22T07:04:45.000Z</time></trkpt><trkpt lon="5.999582" lat="51.098171"><ele>37.2</ele><time>2022-05-22T07:04:46.000Z</time></trkpt><trkpt lon="5.999619" lat="51.09816"><ele>37.4</ele><time>2022-05-22T07:04:47.000Z</time></trkpt><trkpt lon="5.999641" lat="51.098145"><ele>37.6</ele><time>2022-05-22T07:04:48.000Z</time></trkpt><trkpt lon="5.999637" lat="51.098119"><ele>37.8</ele><time>2022-05-22T07:04:49.000Z</time></trkpt><trkpt lon="5.999615" lat="51.098093"><ele>38</ele><time>2022-05-22T07:04:50.000Z</time></trkpt><trkpt lon="5.999584" lat="51.098058"><ele>38</ele><time>2022-05-22T07:04:51.000Z</time></trkpt><trkpt lon="5.999551" lat="51.09802"><ele>38.2</ele><time>2022-05-22T07:04:52.000Z</time></trkpt><trkpt lon="5.999511" lat="51.09797"><ele>38.2</ele><time>2022-05-22T07:04:53.000Z</time></trkpt><trkpt lon="5.999467" lat="51.097922"><ele>38.2</ele><time>2022-05-22T07:04:54.000Z</time></trkpt><trkpt lon="5.999416" lat="51.097867"><ele>38.4</ele><time>2022-05-22T07:04:55.000Z</time></trkpt><trkpt lon="5.999365" lat="51.097811"><ele>38.4</ele><time>2022-05-22T07:04:56.000Z</time></trkpt><trkpt lon="5.999312" lat="51.097757"><ele>38.6</ele><time>2022-05-22T07:04:57.000Z</time></trkpt><trkpt lon="5.999263" lat="51.0977"><ele>38.6</ele><time>2022-05-22T07:04:58.000Z</time></trkpt><trkpt lon="5.999216" lat="51.097642"><ele>38.6</ele><time>2022-05-22T07:04:59.000Z</time></trkpt><trkpt lon="5.999172" lat="51.097585"><ele>38.8</ele><time>2022-05-22T07:05:00.000Z</time></trkpt><trkpt lon="5.999129" lat="51.097528"><ele>38.8</ele><time>2022-05-22T07:05:01.000Z</time></trkpt><trkpt lon="5.999091" lat="51.097469"><ele>39</ele><time>2022-05-22T07:05:02.000Z</time></trkpt><trkpt lon="5.999057" lat="51.097415"><ele>39.2</ele><time>2022-05-22T07:05:03.000Z</time></trkpt><trkpt lon="5.99902" lat="51.097354"><ele>39.4</ele><time>2022-05-22T07:05:04.000Z</time></trkpt><trkpt lon="5.998986" lat="51.097291"><ele>39.6</ele><time>2022-05-22T07:05:05.000Z</time></trkpt><trkpt lon="5.998952" lat="51.097234"><ele>39.6</ele><time>2022-05-22T07:05:06.000Z</time></trkpt><trkpt lon="5.99892" lat="51.097173"><ele>39.8</ele><time>2022-05-22T07:05:07.000Z</time></trkpt><trkpt lon="5.998896" lat="51.097131"><ele>40</ele><time>2022-05-22T07:05:08.000Z</time></trkpt><trkpt lon="5.998866" lat="51.097073"><ele>40</ele><time>2022-05-22T07:05:09.000Z</time></trkpt><trkpt lon="5.998832" lat="51.097004"><ele>40.2</ele><time>2022-05-22T07:05:10.000Z</time></trkpt><trkpt lon="5.998802" lat="51.096944"><ele>40.4</ele><time>2022-05-22T07:05:11.000Z</time></trkpt><trkpt lon="5.998774" lat="51.096891"><ele>40.4</ele><time>2022-05-22T07:05:12.000Z</time></trkpt><trkpt lon="5.998747" lat="51.09683"><ele>40.6</ele><time>2022-05-22T07:05:13.000Z</time></trkpt><trkpt lon="5.998719" lat="51.096776"><ele>40.8</ele><time>2022-05-22T07:05:14.000Z</time></trkpt><trkpt lon="5.998689" lat="51.096719"><ele>41</ele><time>2022-05-22T07:05:15.000Z</time></trkpt><trkpt lon="5.998657" lat="51.096658"><ele>41.2</ele><time>2022-05-22T07:05:16.000Z</time></trkpt><trkpt lon="5.998629" lat="51.096606"><ele>41.4</ele><time>2022-05-22T07:05:17.000Z</time></trkpt><trkpt lon="5.998601" lat="51.096544"><ele>41.6</ele><time>2022-05-22T07:05:18.000Z</time></trkpt><trkpt lon="5.998573" lat="51.096483"><ele>41.8</ele><time>2022-05-22T07:05:19.000Z</time></trkpt><trkpt lon="5.998542" lat="51.096422"><ele>42</ele><time>2022-05-22T07:05:20.000Z</time></trkpt><trkpt lon="5.998513" lat="51.096365"><ele>42.2</ele><time>2022-05-22T07:05:21.000Z</time></trkpt><trkpt lon="5.998484" lat="51.096307"><ele>42.4</ele><time>2022-05-22T07:05:22.000Z</time></trkpt><trkpt lon="5.998453" lat="51.09625"><ele>42.6</ele><time>2022-05-22T07:05:23.000Z</time></trkpt><trkpt lon="5.998419" lat="51.096193"><ele>42.8</ele><time>2022-05-22T07:05:24.000Z</time></trkpt><trkpt lon="5.998386" lat="51.096136"><ele>43</ele><time>2022-05-22T07:05:25.000Z</time></trkpt><trkpt lon="5.998354" lat="51.096082"><ele>43.2</ele><time>2022-05-22T07:05:26.000Z</time></trkpt><trkpt lon="5.998324" lat="51.096031"><ele>43.4</ele><time>2022-05-22T07:05:27.000Z</time></trkpt><trkpt lon="5.998288" lat="51.095975"><ele>43.6</ele><time>2022-05-22T07:05:28.000Z</time></trkpt><trkpt lon="5.998256" lat="51.095926"><ele>43.8</ele><time>2022-05-22T07:05:29.000Z</time></trkpt><trkpt lon="5.998224" lat="51.09588"><ele>43.8</ele><time>2022-05-22T07:05:30.000Z</time></trkpt><trkpt lon="5.998193" lat="51.095838"><ele>44</ele><time>2022-05-22T07:05:31.000Z</time></trkpt><trkpt lon="5.998161" lat="51.0958"><ele>44.2</ele><time>2022-05-22T07:05:32.000Z</time></trkpt><trkpt lon="5.998129" lat="51.095765"><ele>44.4</ele><time>2022-05-22T07:05:33.000Z</time></trkpt><trkpt lon="5.998104" lat="51.095734"><ele>44.6</ele><time>2022-05-22T07:05:34.000Z</time></trkpt><trkpt lon="5.998086" lat="51.095711"><ele>44.8</ele><time>2022-05-22T07:05:35.000Z</time></trkpt><trkpt lon="5.998072" lat="51.095692"><ele>45</ele><time>2022-05-22T07:05:36.000Z</time></trkpt><trkpt lon="5.998068" lat="51.095669"><ele>45</ele><time>2022-05-22T07:05:37.000Z</time></trkpt><trkpt lon="5.998086" lat="51.095654"><ele>45.2</ele><time>2022-05-22T07:05:38.000Z</time></trkpt><trkpt lon="5.998121" lat="51.095635"><ele>45.2</ele><time>2022-05-22T07:05:39.000Z</time></trkpt><trkpt lon="5.99816" lat="51.09562"><ele>45.2</ele><time>2022-05-22T07:05:40.000Z</time></trkpt><trkpt lon="5.998208" lat="51.095601"><ele>45.4</ele><time>2022-05-22T07:05:41.000Z</time></trkpt><trkpt lon="5.998246" lat="51.095574"><ele>45.4</ele><time>2022-05-22T07:05:42.000Z</time></trkpt><trkpt lon="5.998271" lat="51.095547"><ele>45.6</ele><time>2022-05-22T07:05:43.000Z</time></trkpt><trkpt lon="5.998271" lat="51.095509"><ele>45.6</ele><time>2022-05-22T07:05:44.000Z</time></trkpt><trkpt lon="5.998251" lat="51.095468"><ele>45.8</ele><time>2022-05-22T07:05:45.000Z</time></trkpt><trkpt lon="5.998211" lat="51.095422"><ele>45.8</ele><time>2022-05-22T07:05:46.000Z</time></trkpt><trkpt lon="5.99817" lat="51.095373"><ele>46</ele><time>2022-05-22T07:05:47.000Z</time></trkpt><trkpt lon="5.998127" lat="51.095323"><ele>46.2</ele><time>2022-05-22T07:05:48.000Z</time></trkpt><trkpt lon="5.998087" lat="51.095277"><ele>46.2</ele><time>2022-05-22T07:05:49.000Z</time></trkpt><trkpt lon="5.998051" lat="51.095235"><ele>46.4</ele><time>2022-05-22T07:05:50.000Z</time></trkpt><trkpt lon="5.998021" lat="51.095193"><ele>46.6</ele><time>2022-05-22T07:05:51.000Z</time></trkpt><trkpt lon="5.998009" lat="51.095151"><ele>46.8</ele><time>2022-05-22T07:05:52.000Z</time></trkpt><trkpt lon="5.998023" lat="51.095106"><ele>46.8</ele><time>2022-05-22T07:05:53.000Z</time></trkpt><trkpt lon="5.998048" lat="51.095058"><ele>47</ele><time>2022-05-22T07:05:54.000Z</time></trkpt><trkpt lon="5.998074" lat="51.09501"><ele>47.2</ele><time>2022-05-22T07:05:55.000Z</time></trkpt><trkpt lon="5.99808" lat="51.09496"><ele>47.2</ele><time>2022-05-22T07:05:56.000Z</time></trkpt><trkpt lon="5.99807" lat="51.094908"><ele>47.4</ele><time>2022-05-22T07:05:57.000Z</time></trkpt><trkpt lon="5.998054" lat="51.09485"><ele>47.6</ele><time>2022-05-22T07:05:58.000Z</time></trkpt><trkpt lon="5.998039" lat="51.094789"><ele>47.6</ele><time>2022-05-22T07:05:59.000Z</time></trkpt><trkpt lon="5.998035" lat="51.094728"><ele>47.8</ele><time>2022-05-22T07:06:00.000Z</time></trkpt><trkpt lon="5.998051" lat="51.094671"><ele>47.8</ele><time>2022-05-22T07:06:01.000Z</time></trkpt><trkpt lon="5.99809" lat="51.094622"><ele>48</ele><time>2022-05-22T07:06:02.000Z</time></trkpt><trkpt lon="5.998143" lat="51.094586"><ele>48</ele><time>2022-05-22T07:06:03.000Z</time></trkpt><trkpt lon="5.998224" lat="51.094555"><ele>48.2</ele><time>2022-05-22T07:06:04.000Z</time></trkpt><trkpt lon="5.99831" lat="51.094536"><ele>48.2</ele><time>2022-05-22T07:06:05.000Z</time></trkpt><trkpt lon="5.998403" lat="51.094528"><ele>48.2</ele><time>2022-05-22T07:06:06.000Z</time></trkpt><trkpt lon="5.998502" lat="51.094532"><ele>48.2</ele><time>2022-05-22T07:06:07.000Z</time></trkpt><trkpt lon="5.998601" lat="51.094539"><ele>48.4</ele><time>2022-05-22T07:06:08.000Z</time></trkpt><trkpt lon="5.9987" lat="51.094551"><ele>48.4</ele><time>2022-05-22T07:06:09.000Z</time></trkpt><trkpt lon="5.998803" lat="51.094562"><ele>48.4</ele><time>2022-05-22T07:06:10.000Z</time></trkpt><trkpt lon="5.998904" lat="51.094573"><ele>48.6</ele><time>2022-05-22T07:06:11.000Z</time></trkpt><trkpt lon="5.999006" lat="51.094585"><ele>48.6</ele><time>2022-05-22T07:06:12.000Z</time></trkpt><trkpt lon="5.999108" lat="51.0946"><ele>48.6</ele><time>2022-05-22T07:06:13.000Z</time></trkpt><trkpt lon="5.999207" lat="51.094612"><ele>48.6</ele><time>2022-05-22T07:06:14.000Z</time></trkpt><trkpt lon="5.999303" lat="51.094627"><ele>48.6</ele><time>2022-05-22T07:06:15.000Z</time></trkpt><trkpt lon="5.999399" lat="51.094642"><ele>48.8</ele><time>2022-05-22T07:06:16.000Z</time></trkpt><trkpt lon="5.999499" lat="51.094654"><ele>48.8</ele><time>2022-05-22T07:06:17.000Z</time></trkpt><trkpt lon="5.999595" lat="51.094669"><ele>48.8</ele><time>2022-05-22T07:06:18.000Z</time></trkpt><trkpt lon="5.999694" lat="51.09468"><ele>48.8</ele><time>2022-05-22T07:06:19.000Z</time></trkpt><trkpt lon="5.999793" lat="51.094696"><ele>48.8</ele><time>2022-05-22T07:06:20.000Z</time></trkpt><trkpt lon="5.999889" lat="51.094707"><ele>48.8</ele><time>2022-05-22T07:06:21.000Z</time></trkpt><trkpt lon="5.999989" lat="51.094722"><ele>48.8</ele><time>2022-05-22T07:06:22.000Z</time></trkpt><trkpt lon="6.000091" lat="51.094738"><ele>48.8</ele><time>2022-05-22T07:06:23.000Z</time></trkpt><trkpt lon="6.000189" lat="51.094749"><ele>48.8</ele><time>2022-05-22T07:06:24.000Z</time></trkpt><trkpt lon="6.000275" lat="51.094759"><ele>49</ele><time>2022-05-22T07:06:25.000Z</time></trkpt><trkpt lon="6.000385" lat="51.094775"><ele>49</ele><time>2022-05-22T07:06:26.000Z</time></trkpt><trkpt lon="6.000487" lat="51.094787"><ele>49</ele><time>2022-05-22T07:06:27.000Z</time></trkpt><trkpt lon="6.000587" lat="51.094799"><ele>49</ele><time>2022-05-22T07:06:28.000Z</time></trkpt><trkpt lon="6.000685" lat="51.094814"><ele>48.8</ele><time>2022-05-22T07:06:29.000Z</time></trkpt><trkpt lon="6.000786" lat="51.094825"><ele>48.8</ele><time>2022-05-22T07:06:30.000Z</time></trkpt><trkpt lon="6.000887" lat="51.094841"><ele>48.8</ele><time>2022-05-22T07:06:31.000Z</time></trkpt><trkpt lon="6.000985" lat="51.094855"><ele>48.8</ele><time>2022-05-22T07:06:32.000Z</time></trkpt><trkpt lon="6.001088" lat="51.094871"><ele>48.8</ele><time>2022-05-22T07:06:33.000Z</time></trkpt><trkpt lon="6.001188" lat="51.094886"><ele>48.8</ele><time>2022-05-22T07:06:34.000Z</time></trkpt><trkpt lon="6.001288" lat="51.094898"><ele>48.8</ele><time>2022-05-22T07:06:35.000Z</time></trkpt><trkpt lon="6.001386" lat="51.094913"><ele>48.8</ele><time>2022-05-22T07:06:36.000Z</time></trkpt><trkpt lon="6.001483" lat="51.094925"><ele>48.8</ele><time>2022-05-22T07:06:37.000Z</time></trkpt><trkpt lon="6.001574" lat="51.094939"><ele>48.6</ele><time>2022-05-22T07:06:38.000Z</time></trkpt><trkpt lon="6.001669" lat="51.094955"><ele>48.6</ele><time>2022-05-22T07:06:39.000Z</time></trkpt><trkpt lon="6.001767" lat="51.094966"><ele>48.6</ele><time>2022-05-22T07:06:40.000Z</time></trkpt><trkpt lon="6.001868" lat="51.094982"><ele>48.6</ele><time>2022-05-22T07:06:41.000Z</time></trkpt><trkpt lon="6.001968" lat="51.094993"><ele>48.6</ele><time>2022-05-22T07:06:42.000Z</time></trkpt><trkpt lon="6.00207" lat="51.095009"><ele>48.6</ele><time>2022-05-22T07:06:43.000Z</time></trkpt><trkpt lon="6.002169" lat="51.09502"><ele>48.8</ele><time>2022-05-22T07:06:44.000Z</time></trkpt><trkpt lon="6.002269" lat="51.095035"><ele>48.8</ele><time>2022-05-22T07:06:45.000Z</time></trkpt><trkpt lon="6.002369" lat="51.09505"><ele>48.8</ele><time>2022-05-22T07:06:46.000Z</time></trkpt><trkpt lon="6.00247" lat="51.095062"><ele>48.8</ele><time>2022-05-22T07:06:47.000Z</time></trkpt><trkpt lon="6.002573" lat="51.095077"><ele>48.8</ele><time>2022-05-22T07:06:48.000Z</time></trkpt><trkpt lon="6.002673" lat="51.095092"><ele>48.8</ele><time>2022-05-22T07:06:49.000Z</time></trkpt><trkpt lon="6.002776" lat="51.095108"><ele>48.8</ele><time>2022-05-22T07:06:50.000Z</time></trkpt><trkpt lon="6.002871" lat="51.095122"><ele>48.8</ele><time>2022-05-22T07:06:51.000Z</time></trkpt><trkpt lon="6.002981" lat="51.095134"><ele>48.6</ele><time>2022-05-22T07:06:52.000Z</time></trkpt><trkpt lon="6.003083" lat="51.095146"><ele>48.6</ele><time>2022-05-22T07:06:53.000Z</time></trkpt><trkpt lon="6.003184" lat="51.095161"><ele>48.6</ele><time>2022-05-22T07:06:54.000Z</time></trkpt><trkpt lon="6.003286" lat="51.095172"><ele>48.6</ele><time>2022-05-22T07:06:55.000Z</time></trkpt><trkpt lon="6.003391" lat="51.095184"><ele>48.6</ele><time>2022-05-22T07:06:56.000Z</time></trkpt><trkpt lon="6.003496" lat="51.095188"><ele>48.8</ele><time>2022-05-22T07:06:57.000Z</time></trkpt><trkpt lon="6.003602" lat="51.095192"><ele>48.8</ele><time>2022-05-22T07:06:58.000Z</time></trkpt><trkpt lon="6.003709" lat="51.095188"><ele>48.8</ele><time>2022-05-22T07:06:59.000Z</time></trkpt><trkpt lon="6.003813" lat="51.095181"><ele>48.8</ele><time>2022-05-22T07:07:00.000Z</time></trkpt><trkpt lon="6.003913" lat="51.095166"><ele>49</ele><time>2022-05-22T07:07:01.000Z</time></trkpt><trkpt lon="6.004013" lat="51.09515"><ele>49</ele><time>2022-05-22T07:07:02.000Z</time></trkpt><trkpt lon="6.004109" lat="51.095124"><ele>49</ele><time>2022-05-22T07:07:03.000Z</time></trkpt><trkpt lon="6.004204" lat="51.095097"><ele>49</ele><time>2022-05-22T07:07:04.000Z</time></trkpt><trkpt lon="6.004291" lat="51.095067"><ele>49.2</ele><time>2022-05-22T07:07:05.000Z</time></trkpt><trkpt lon="6.004376" lat="51.095033"><ele>49.2</ele><time>2022-05-22T07:07:06.000Z</time></trkpt><trkpt lon="6.004457" lat="51.094998"><ele>49.2</ele><time>2022-05-22T07:07:07.000Z</time></trkpt><trkpt lon="6.004534" lat="51.09496"><ele>49.2</ele><time>2022-05-22T07:07:08.000Z</time></trkpt><trkpt lon="6.004606" lat="51.094923"><ele>49.4</ele><time>2022-05-22T07:07:09.000Z</time></trkpt><trkpt lon="6.00467" lat="51.094876"><ele>49.4</ele><time>2022-05-22T07:07:10.000Z</time></trkpt><trkpt lon="6.004729" lat="51.094831"><ele>49.6</ele><time>2022-05-22T07:07:11.000Z</time></trkpt><trkpt lon="6.004782" lat="51.094783"><ele>49.6</ele><time>2022-05-22T07:07:12.000Z</time></trkpt><trkpt lon="6.004837" lat="51.094728"><ele>49.8</ele><time>2022-05-22T07:07:13.000Z</time></trkpt><trkpt lon="6.004892" lat="51.094675"><ele>49.8</ele><time>2022-05-22T07:07:14.000Z</time></trkpt><trkpt lon="6.004945" lat="51.094619"><ele>49.8</ele><time>2022-05-22T07:07:15.000Z</time></trkpt><trkpt lon="6.005001" lat="51.094565"><ele>50</ele><time>2022-05-22T07:07:16.000Z</time></trkpt><trkpt lon="6.00506" lat="51.094507"><ele>50</ele><time>2022-05-22T07:07:17.000Z</time></trkpt><trkpt lon="6.005115" lat="51.094453"><ele>50</ele><time>2022-05-22T07:07:18.000Z</time></trkpt><trkpt lon="6.005169" lat="51.094402"><ele>50</ele><time>2022-05-22T07:07:19.000Z</time></trkpt><trkpt lon="6.005225" lat="51.09435"><ele>50</ele><time>2022-05-22T07:07:20.000Z</time></trkpt><trkpt lon="6.005282" lat="51.094297"><ele>50</ele><time>2022-05-22T07:07:21.000Z</time></trkpt><trkpt lon="6.005337" lat="51.09424"><ele>50</ele><time>2022-05-22T07:07:22.000Z</time></trkpt><trkpt lon="6.005388" lat="51.09419"><ele>50</ele><time>2022-05-22T07:07:23.000Z</time></trkpt><trkpt lon="6.005435" lat="51.094138"><ele>50.2</ele><time>2022-05-22T07:07:24.000Z</time></trkpt><trkpt lon="6.005485" lat="51.094084"><ele>50.2</ele><time>2022-05-22T07:07:25.000Z</time></trkpt><trkpt lon="6.005539" lat="51.09403"><ele>50.4</ele><time>2022-05-22T07:07:26.000Z</time></trkpt><trkpt lon="6.005594" lat="51.093976"><ele>50.4</ele><time>2022-05-22T07:07:27.000Z</time></trkpt><trkpt lon="6.005646" lat="51.093926"><ele>50.4</ele><time>2022-05-22T07:07:28.000Z</time></trkpt><trkpt lon="6.005696" lat="51.093874"><ele>50.4</ele><time>2022-05-22T07:07:29.000Z</time></trkpt><trkpt lon="6.005748" lat="51.093821"><ele>50.6</ele><time>2022-05-22T07:07:30.000Z</time></trkpt><trkpt lon="6.005802" lat="51.093763"><ele>50.6</ele><time>2022-05-22T07:07:31.000Z</time></trkpt><trkpt lon="6.005854" lat="51.093705"><ele>50.6</ele><time>2022-05-22T07:07:32.000Z</time></trkpt><trkpt lon="6.005904" lat="51.093656"><ele>50.6</ele><time>2022-05-22T07:07:33.000Z</time></trkpt><trkpt lon="6.005957" lat="51.093602"><ele>50.8</ele><time>2022-05-22T07:07:34.000Z</time></trkpt><trkpt lon="6.006007" lat="51.093549"><ele>50.8</ele><time>2022-05-22T07:07:35.000Z</time></trkpt><trkpt lon="6.00606" lat="51.0935"><ele>50.8</ele><time>2022-05-22T07:07:36.000Z</time></trkpt><trkpt lon="6.006116" lat="51.093449"><ele>50.8</ele><time>2022-05-22T07:07:37.000Z</time></trkpt><trkpt lon="6.006174" lat="51.093393"><ele>50.8</ele><time>2022-05-22T07:07:38.000Z</time></trkpt><trkpt lon="6.006223" lat="51.093347"><ele>50.8</ele><time>2022-05-22T07:07:39.000Z</time></trkpt><trkpt lon="6.006285" lat="51.09329"><ele>50.8</ele><time>2022-05-22T07:07:40.000Z</time></trkpt><trkpt lon="6.00634" lat="51.09324"><ele>50.8</ele><time>2022-05-22T07:07:41.000Z</time></trkpt><trkpt lon="6.006404" lat="51.093183"><ele>50.8</ele><time>2022-05-22T07:07:42.000Z</time></trkpt><trkpt lon="6.006459" lat="51.093129"><ele>51</ele><time>2022-05-22T07:07:43.000Z</time></trkpt><trkpt lon="6.006514" lat="51.093076"><ele>51</ele><time>2022-05-22T07:07:44.000Z</time></trkpt><trkpt lon="6.00657" lat="51.093026"><ele>51</ele><time>2022-05-22T07:07:45.000Z</time></trkpt><trkpt lon="6.006624" lat="51.092973"><ele>51</ele><time>2022-05-22T07:07:46.000Z</time></trkpt><trkpt lon="6.006676" lat="51.09292"><ele>51</ele><time>2022-05-22T07:07:47.000Z</time></trkpt><trkpt lon="6.00673" lat="51.092866"><ele>51</ele><time>2022-05-22T07:07:48.000Z</time></trkpt><trkpt lon="6.006785" lat="51.092821"><ele>51</ele><time>2022-05-22T07:07:49.000Z</time></trkpt><trkpt lon="6.006839" lat="51.092774"><ele>51</ele><time>2022-05-22T07:07:50.000Z</time></trkpt><trkpt lon="6.006889" lat="51.092725"><ele>51</ele><time>2022-05-22T07:07:51.000Z</time></trkpt><trkpt lon="6.006937" lat="51.092683"><ele>51</ele><time>2022-05-22T07:07:52.000Z</time></trkpt><trkpt lon="6.006991" lat="51.092633"><ele>51.2</ele><time>2022-05-22T07:07:53.000Z</time></trkpt><trkpt lon="6.007047" lat="51.092588"><ele>51.2</ele><time>2022-05-22T07:07:54.000Z</time></trkpt><trkpt lon="6.007096" lat="51.092543"><ele>51.2</ele><time>2022-05-22T07:07:55.000Z</time></trkpt><trkpt lon="6.00715" lat="51.092496"><ele>51.2</ele><time>2022-05-22T07:07:56.000Z</time></trkpt><trkpt lon="6.007202" lat="51.092448"><ele>51.4</ele><time>2022-05-22T07:07:57.000Z</time></trkpt><trkpt lon="6.007261" lat="51.0924"><ele>51.4</ele><time>2022-05-22T07:07:58.000Z</time></trkpt><trkpt lon="6.007314" lat="51.092351"><ele>51.4</ele><time>2022-05-22T07:07:59.000Z</time></trkpt><trkpt lon="6.007362" lat="51.092309"><ele>51.4</ele><time>2022-05-22T07:08:00.000Z</time></trkpt><trkpt lon="6.007409" lat="51.092267"><ele>51.4</ele><time>2022-05-22T07:08:01.000Z</time></trkpt><trkpt lon="6.007455" lat="51.092226"><ele>51.4</ele><time>2022-05-22T07:08:02.000Z</time></trkpt><trkpt lon="6.007503" lat="51.09218"><ele>51.4</ele><time>2022-05-22T07:08:03.000Z</time></trkpt><trkpt lon="6.007554" lat="51.092129"><ele>51.4</ele><time>2022-05-22T07:08:04.000Z</time></trkpt><trkpt lon="6.007604" lat="51.092088"><ele>51.4</ele><time>2022-05-22T07:08:05.000Z</time></trkpt><trkpt lon="6.007657" lat="51.092046"><ele>51.4</ele><time>2022-05-22T07:08:06.000Z</time></trkpt><trkpt lon="6.007712" lat="51.092"><ele>51.4</ele><time>2022-05-22T07:08:07.000Z</time></trkpt><trkpt lon="6.007785" lat="51.091947"><ele>51.4</ele><time>2022-05-22T07:08:08.000Z</time></trkpt><trkpt lon="6.007856" lat="51.091894"><ele>51.4</ele><time>2022-05-22T07:08:09.000Z</time></trkpt><trkpt lon="6.007914" lat="51.091847"><ele>51.2</ele><time>2022-05-22T07:08:10.000Z</time></trkpt><trkpt lon="6.007984" lat="51.091798"><ele>51.2</ele><time>2022-05-22T07:08:11.000Z</time></trkpt><trkpt lon="6.00805" lat="51.091745"><ele>51.2</ele><time>2022-05-22T07:08:12.000Z</time></trkpt><trkpt lon="6.008104" lat="51.091691"><ele>51.2</ele><time>2022-05-22T07:08:13.000Z</time></trkpt><trkpt lon="6.00816" lat="51.091645"><ele>51</ele><time>2022-05-22T07:08:14.000Z</time></trkpt><trkpt lon="6.008219" lat="51.091596"><ele>51</ele><time>2022-05-22T07:08:15.000Z</time></trkpt><trkpt lon="6.008274" lat="51.091547"><ele>51</ele><time>2022-05-22T07:08:16.000Z</time></trkpt><trkpt lon="6.00833" lat="51.091501"><ele>51</ele><time>2022-05-22T07:08:17.000Z</time></trkpt><trkpt lon="6.008392" lat="51.091451"><ele>51</ele><time>2022-05-22T07:08:18.000Z</time></trkpt><trkpt lon="6.008453" lat="51.091401"><ele>50.8</ele><time>2022-05-22T07:08:19.000Z</time></trkpt><trkpt lon="6.008513" lat="51.091353"><ele>50.8</ele><time>2022-05-22T07:08:20.000Z</time></trkpt><trkpt lon="6.008579" lat="51.091294"><ele>50.8</ele><time>2022-05-22T07:08:21.000Z</time></trkpt><trkpt lon="6.008639" lat="51.091237"><ele>50.6</ele><time>2022-05-22T07:08:22.000Z</time></trkpt><trkpt lon="6.008707" lat="51.091184"><ele>50.6</ele><time>2022-05-22T07:08:23.000Z</time></trkpt><trkpt lon="6.008775" lat="51.091134"><ele>50.4</ele><time>2022-05-22T07:08:24.000Z</time></trkpt><trkpt lon="6.008852" lat="51.091096"><ele>50.4</ele><time>2022-05-22T07:08:25.000Z</time></trkpt><trkpt lon="6.008941" lat="51.091069"><ele>50.2</ele><time>2022-05-22T07:08:26.000Z</time></trkpt><trkpt lon="6.009047" lat="51.091054"><ele>50.2</ele><time>2022-05-22T07:08:27.000Z</time></trkpt><trkpt lon="6.009156" lat="51.091049"><ele>50.4</ele><time>2022-05-22T07:08:28.000Z</time></trkpt><trkpt lon="6.009285" lat="51.091053"><ele>50.4</ele><time>2022-05-22T07:08:29.000Z</time></trkpt><trkpt lon="6.009411" lat="51.091068"><ele>50.4</ele><time>2022-05-22T07:08:30.000Z</time></trkpt><trkpt lon="6.009542" lat="51.091075"><ele>50.4</ele><time>2022-05-22T07:08:31.000Z</time></trkpt><trkpt lon="6.009671" lat="51.091095"><ele>50.4</ele><time>2022-05-22T07:08:32.000Z</time></trkpt><trkpt lon="6.009773" lat="51.091125"><ele>50.4</ele><time>2022-05-22T07:08:33.000Z</time></trkpt><trkpt lon="6.009881" lat="51.091159"><ele>50.4</ele><time>2022-05-22T07:08:34.000Z</time></trkpt><trkpt lon="6.009974" lat="51.0912"><ele>50.4</ele><time>2022-05-22T07:08:35.000Z</time></trkpt><trkpt lon="6.010065" lat="51.091239"><ele>50.4</ele><time>2022-05-22T07:08:36.000Z</time></trkpt><trkpt lon="6.010156" lat="51.091285"><ele>50.4</ele><time>2022-05-22T07:08:37.000Z</time></trkpt><trkpt lon="6.010238" lat="51.09133"><ele>50.4</ele><time>2022-05-22T07:08:38.000Z</time></trkpt><trkpt lon="6.010316" lat="51.091379"><ele>50.6</ele><time>2022-05-22T07:08:39.000Z</time></trkpt><trkpt lon="6.010392" lat="51.09143"><ele>50.4</ele><time>2022-05-22T07:08:40.000Z</time></trkpt><trkpt lon="6.010459" lat="51.091483"><ele>50.4</ele><time>2022-05-22T07:08:41.000Z</time></trkpt><trkpt lon="6.010524" lat="51.091536"><ele>50.4</ele><time>2022-05-22T07:08:42.000Z</time></trkpt><trkpt lon="6.010588" lat="51.091593"><ele>50.4</ele><time>2022-05-22T07:08:43.000Z</time></trkpt><trkpt lon="6.010652" lat="51.091647"><ele>50.4</ele><time>2022-05-22T07:08:44.000Z</time></trkpt><trkpt lon="6.010715" lat="51.091704"><ele>50.6</ele><time>2022-05-22T07:08:45.000Z</time></trkpt><trkpt lon="6.010777" lat="51.091761"><ele>50.6</ele><time>2022-05-22T07:08:46.000Z</time></trkpt><trkpt lon="6.01084" lat="51.091818"><ele>50.6</ele><time>2022-05-22T07:08:47.000Z</time></trkpt><trkpt lon="6.0109" lat="51.09187"><ele>50.6</ele><time>2022-05-22T07:08:48.000Z</time></trkpt><trkpt lon="6.010967" lat="51.091929"><ele>50.6</ele><time>2022-05-22T07:08:49.000Z</time></trkpt><trkpt lon="6.011031" lat="51.091986"><ele>50.6</ele><time>2022-05-22T07:08:50.000Z</time></trkpt><trkpt lon="6.011098" lat="51.092043"><ele>50.6</ele><time>2022-05-22T07:08:51.000Z</time></trkpt><trkpt lon="6.011163" lat="51.092096"><ele>50.8</ele><time>2022-05-22T07:08:52.000Z</time></trkpt><trkpt lon="6.011234" lat="51.09215"><ele>50.6</ele><time>2022-05-22T07:08:53.000Z</time></trkpt><trkpt lon="6.011303" lat="51.092203"><ele>50.6</ele><time>2022-05-22T07:08:54.000Z</time></trkpt><trkpt lon="6.011373" lat="51.092257"><ele>50.6</ele><time>2022-05-22T07:08:55.000Z</time></trkpt><trkpt lon="6.011444" lat="51.09231"><ele>50.6</ele><time>2022-05-22T07:08:56.000Z</time></trkpt><trkpt lon="6.011514" lat="51.092363"><ele>50.6</ele><time>2022-05-22T07:08:57.000Z</time></trkpt><trkpt lon="6.011581" lat="51.092414"><ele>50.6</ele><time>2022-05-22T07:08:58.000Z</time></trkpt><trkpt lon="6.011652" lat="51.092467"><ele>50.6</ele><time>2022-05-22T07:08:59.000Z</time></trkpt><trkpt lon="6.01172" lat="51.092513"><ele>50.6</ele><time>2022-05-22T07:09:00.000Z</time></trkpt><trkpt lon="6.01179" lat="51.092559"><ele>50.6</ele><time>2022-05-22T07:09:01.000Z</time></trkpt><trkpt lon="6.01186" lat="51.092608"><ele>50.6</ele><time>2022-05-22T07:09:02.000Z</time></trkpt><trkpt lon="6.011929" lat="51.092653"><ele>50.6</ele><time>2022-05-22T07:09:03.000Z</time></trkpt><trkpt lon="6.012005" lat="51.092703"><ele>50.4</ele><time>2022-05-22T07:09:04.000Z</time></trkpt><trkpt lon="6.012077" lat="51.092757"><ele>50.4</ele><time>2022-05-22T07:09:05.000Z</time></trkpt><trkpt lon="6.012148" lat="51.092807"><ele>50.4</ele><time>2022-05-22T07:09:06.000Z</time></trkpt><trkpt lon="6.012218" lat="51.092859"><ele>50.4</ele><time>2022-05-22T07:09:07.000Z</time></trkpt><trkpt lon="6.012293" lat="51.09291"><ele>50.4</ele><time>2022-05-22T07:09:08.000Z</time></trkpt><trkpt lon="6.012365" lat="51.092958"><ele>50.4</ele><time>2022-05-22T07:09:09.000Z</time></trkpt><trkpt lon="6.012439" lat="51.09301"><ele>50.4</ele><time>2022-05-22T07:09:10.000Z</time></trkpt><trkpt lon="6.012516" lat="51.093061"><ele>50.2</ele><time>2022-05-22T07:09:11.000Z</time></trkpt><trkpt lon="6.012595" lat="51.093112"><ele>50.2</ele><time>2022-05-22T07:09:12.000Z</time></trkpt><trkpt lon="6.012671" lat="51.093164"><ele>50.2</ele><time>2022-05-22T07:09:13.000Z</time></trkpt><trkpt lon="6.012749" lat="51.093214"><ele>50.2</ele><time>2022-05-22T07:09:14.000Z</time></trkpt><trkpt lon="6.012826" lat="51.093268"><ele>50.2</ele><time>2022-05-22T07:09:15.000Z</time></trkpt><trkpt lon="6.012904" lat="51.093318"><ele>50.2</ele><time>2022-05-22T07:09:16.000Z</time></trkpt><trkpt lon="6.012976" lat="51.093367"><ele>50.2</ele><time>2022-05-22T07:09:17.000Z</time></trkpt><trkpt lon="6.013051" lat="51.093416"><ele>50</ele><time>2022-05-22T07:09:18.000Z</time></trkpt><trkpt lon="6.013122" lat="51.093463"><ele>50</ele><time>2022-05-22T07:09:19.000Z</time></trkpt><trkpt lon="6.013205" lat="51.093513"><ele>50</ele><time>2022-05-22T07:09:20.000Z</time></trkpt><trkpt lon="6.013293" lat="51.093562"><ele>50</ele><time>2022-05-22T07:09:21.000Z</time></trkpt><trkpt lon="6.013375" lat="51.093608"><ele>50</ele><time>2022-05-22T07:09:22.000Z</time></trkpt><trkpt lon="6.013458" lat="51.093657"><ele>50</ele><time>2022-05-22T07:09:23.000Z</time></trkpt><trkpt lon="6.01354" lat="51.093699"><ele>49.8</ele><time>2022-05-22T07:09:24.000Z</time></trkpt><trkpt lon="6.013627" lat="51.093745"><ele>49.8</ele><time>2022-05-22T07:09:25.000Z</time></trkpt><trkpt lon="6.013711" lat="51.093787"><ele>49.8</ele><time>2022-05-22T07:09:26.000Z</time></trkpt><trkpt lon="6.013799" lat="51.093829"><ele>49.8</ele><time>2022-05-22T07:09:27.000Z</time></trkpt><trkpt lon="6.013883" lat="51.093878"><ele>49.8</ele><time>2022-05-22T07:09:28.000Z</time></trkpt><trkpt lon="6.013969" lat="51.093924"><ele>49.8</ele><time>2022-05-22T07:09:29.000Z</time></trkpt><trkpt lon="6.014055" lat="51.093969"><ele>49.8</ele><time>2022-05-22T07:09:30.000Z</time></trkpt><trkpt lon="6.014141" lat="51.094016"><ele>49.8</ele><time>2022-05-22T07:09:31.000Z</time></trkpt><trkpt lon="6.014226" lat="51.094062"><ele>49.8</ele><time>2022-05-22T07:09:32.000Z</time></trkpt><trkpt lon="6.01431" lat="51.094107"><ele>49.8</ele><time>2022-05-22T07:09:33.000Z</time></trkpt><trkpt lon="6.014394" lat="51.094154"><ele>49.8</ele><time>2022-05-22T07:09:34.000Z</time></trkpt><trkpt lon="6.014478" lat="51.094199"><ele>49.8</ele><time>2022-05-22T07:09:35.000Z</time></trkpt><trkpt lon="6.01456" lat="51.094244"><ele>49.8</ele><time>2022-05-22T07:09:36.000Z</time></trkpt><trkpt lon="6.01464" lat="51.09429"><ele>49.8</ele><time>2022-05-22T07:09:37.000Z</time></trkpt><trkpt lon="6.014722" lat="51.094332"><ele>49.8</ele><time>2022-05-22T07:09:38.000Z</time></trkpt><trkpt lon="6.014802" lat="51.094377"><ele>49.6</ele><time>2022-05-22T07:09:39.000Z</time></trkpt><trkpt lon="6.014889" lat="51.094424"><ele>49.6</ele><time>2022-05-22T07:09:40.000Z</time></trkpt><trkpt lon="6.014973" lat="51.094466"><ele>49.6</ele><time>2022-05-22T07:09:41.000Z</time></trkpt><trkpt lon="6.015056" lat="51.094515"><ele>49.6</ele><time>2022-05-22T07:09:42.000Z</time></trkpt><trkpt lon="6.015139" lat="51.094557"><ele>49.6</ele><time>2022-05-22T07:09:43.000Z</time></trkpt><trkpt lon="6.015222" lat="51.094604"><ele>49.6</ele><time>2022-05-22T07:09:44.000Z</time></trkpt><trkpt lon="6.015303" lat="51.094645"><ele>49.4</ele><time>2022-05-22T07:09:45.000Z</time></trkpt><trkpt lon="6.015382" lat="51.094687"><ele>49.4</ele><time>2022-05-22T07:09:46.000Z</time></trkpt><trkpt lon="6.015462" lat="51.094731"><ele>49.4</ele><time>2022-05-22T07:09:47.000Z</time></trkpt><trkpt lon="6.015546" lat="51.094779"><ele>49.4</ele><time>2022-05-22T07:09:48.000Z</time></trkpt><trkpt lon="6.015628" lat="51.094825"><ele>49.4</ele><time>2022-05-22T07:09:49.000Z</time></trkpt><trkpt lon="6.015711" lat="51.094867"><ele>49.4</ele><time>2022-05-22T07:09:50.000Z</time></trkpt><trkpt lon="6.015793" lat="51.094912"><ele>49.2</ele><time>2022-05-22T07:09:51.000Z</time></trkpt><trkpt lon="6.015874" lat="51.094954"><ele>49.2</ele><time>2022-05-22T07:09:52.000Z</time></trkpt><trkpt lon="6.015955" lat="51.095"><ele>49.2</ele><time>2022-05-22T07:09:53.000Z</time></trkpt><trkpt lon="6.016027" lat="51.095039"><ele>49</ele><time>2022-05-22T07:09:54.000Z</time></trkpt><trkpt lon="6.01611" lat="51.095084"><ele>49</ele><time>2022-05-22T07:09:55.000Z</time></trkpt><trkpt lon="6.01619" lat="51.095123"><ele>49</ele><time>2022-05-22T07:09:56.000Z</time></trkpt><trkpt lon="6.016275" lat="51.095157"><ele>48.8</ele><time>2022-05-22T07:09:57.000Z</time></trkpt><trkpt lon="6.016365" lat="51.095183"><ele>48.6</ele><time>2022-05-22T07:09:58.000Z</time></trkpt><trkpt lon="6.016468" lat="51.095203"><ele>48.6</ele><time>2022-05-22T07:09:59.000Z</time></trkpt><trkpt lon="6.016581" lat="51.095207"><ele>48.4</ele><time>2022-05-22T07:10:00.000Z</time></trkpt><trkpt lon="6.016694" lat="51.095196"><ele>48.2</ele><time>2022-05-22T07:10:01.000Z</time></trkpt><trkpt lon="6.016815" lat="51.09517"><ele>48</ele><time>2022-05-22T07:10:02.000Z</time></trkpt><trkpt lon="6.01692" lat="51.095128"><ele>47.8</ele><time>2022-05-22T07:10:03.000Z</time></trkpt><trkpt lon="6.017019" lat="51.095075"><ele>47.8</ele><time>2022-05-22T07:10:04.000Z</time></trkpt><trkpt lon="6.017108" lat="51.095019"><ele>47.6</ele><time>2022-05-22T07:10:05.000Z</time></trkpt><trkpt lon="6.017203" lat="51.094957"><ele>47.4</ele><time>2022-05-22T07:10:06.000Z</time></trkpt><trkpt lon="6.017291" lat="51.0949"><ele>47.4</ele><time>2022-05-22T07:10:07.000Z</time></trkpt><trkpt lon="6.017384" lat="51.094835"><ele>47.2</ele><time>2022-05-22T07:10:08.000Z</time></trkpt><trkpt lon="6.017476" lat="51.094777"><ele>46.8</ele><time>2022-05-22T07:10:09.000Z</time></trkpt><trkpt lon="6.01757" lat="51.094716"><ele>46.6</ele><time>2022-05-22T07:10:10.000Z</time></trkpt><trkpt lon="6.01766" lat="51.094655"><ele>46.4</ele><time>2022-05-22T07:10:11.000Z</time></trkpt><trkpt lon="6.017746" lat="51.094596"><ele>46.2</ele><time>2022-05-22T07:10:12.000Z</time></trkpt><trkpt lon="6.017835" lat="51.094538"><ele>46</ele><time>2022-05-22T07:10:13.000Z</time></trkpt><trkpt lon="6.017925" lat="51.094476"><ele>45.8</ele><time>2022-05-22T07:10:14.000Z</time></trkpt><trkpt lon="6.018015" lat="51.094423"><ele>45.6</ele><time>2022-05-22T07:10:15.000Z</time></trkpt><trkpt lon="6.018105" lat="51.094365"><ele>45.4</ele><time>2022-05-22T07:10:16.000Z</time></trkpt><trkpt lon="6.018193" lat="51.094309"><ele>45.2</ele><time>2022-05-22T07:10:17.000Z</time></trkpt><trkpt lon="6.018281" lat="51.094252"><ele>45</ele><time>2022-05-22T07:10:18.000Z</time></trkpt><trkpt lon="6.01837" lat="51.094195"><ele>44.8</ele><time>2022-05-22T07:10:19.000Z</time></trkpt><trkpt lon="6.01846" lat="51.094137"><ele>44.4</ele><time>2022-05-22T07:10:20.000Z</time></trkpt><trkpt lon="6.018554" lat="51.094079"><ele>44.2</ele><time>2022-05-22T07:10:21.000Z</time></trkpt><trkpt lon="6.018646" lat="51.09402"><ele>43.8</ele><time>2022-05-22T07:10:22.000Z</time></trkpt><trkpt lon="6.018741" lat="51.093961"><ele>43.6</ele><time>2022-05-22T07:10:23.000Z</time></trkpt><trkpt lon="6.01883" lat="51.093902"><ele>43.4</ele><time>2022-05-22T07:10:24.000Z</time></trkpt><trkpt lon="6.018925" lat="51.093844"><ele>43.2</ele><time>2022-05-22T07:10:25.000Z</time></trkpt><trkpt lon="6.019026" lat="51.093786"><ele>43</ele><time>2022-05-22T07:10:26.000Z</time></trkpt><trkpt lon="6.019125" lat="51.093733"><ele>42.6</ele><time>2022-05-22T07:10:27.000Z</time></trkpt><trkpt lon="6.019227" lat="51.093679"><ele>42</ele><time>2022-05-22T07:10:28.000Z</time></trkpt><trkpt lon="6.019329" lat="51.093629"><ele>42</ele><time>2022-05-22T07:10:29.000Z</time></trkpt><trkpt lon="6.019432" lat="51.093575"><ele>41.8</ele><time>2022-05-22T07:10:30.000Z</time></trkpt><trkpt lon="6.019526" lat="51.093525"><ele>41.4</ele><time>2022-05-22T07:10:31.000Z</time></trkpt><trkpt lon="6.01963" lat="51.093473"><ele>41.2</ele><time>2022-05-22T07:10:32.000Z</time></trkpt><trkpt lon="6.01973" lat="51.093419"><ele>41</ele><time>2022-05-22T07:10:33.000Z</time></trkpt><trkpt lon="6.019829" lat="51.09337"><ele>40.8</ele><time>2022-05-22T07:10:34.000Z</time></trkpt><trkpt lon="6.019921" lat="51.093319"><ele>40.6</ele><time>2022-05-22T07:10:35.000Z</time></trkpt><trkpt lon="6.020022" lat="51.093267"><ele>40.2</ele><time>2022-05-22T07:10:36.000Z</time></trkpt><trkpt lon="6.02011" lat="51.093219"><ele>40</ele><time>2022-05-22T07:10:37.000Z</time></trkpt><trkpt lon="6.020202" lat="51.093165"><ele>39.8</ele><time>2022-05-22T07:10:38.000Z</time></trkpt><trkpt lon="6.020288" lat="51.093117"><ele>39.6</ele><time>2022-05-22T07:10:39.000Z</time></trkpt><trkpt lon="6.020382" lat="51.093064"><ele>39.4</ele><time>2022-05-22T07:10:40.000Z</time></trkpt><trkpt lon="6.020468" lat="51.093015"><ele>39.4</ele><time>2022-05-22T07:10:41.000Z</time></trkpt><trkpt lon="6.020553" lat="51.092969"><ele>39.2</ele><time>2022-05-22T07:10:42.000Z</time></trkpt><trkpt lon="6.020636" lat="51.092924"><ele>39.2</ele><time>2022-05-22T07:10:43.000Z</time></trkpt><trkpt lon="6.020725" lat="51.092877"><ele>39.2</ele><time>2022-05-22T07:10:44.000Z</time></trkpt><trkpt lon="6.020805" lat="51.092832"><ele>39</ele><time>2022-05-22T07:10:45.000Z</time></trkpt><trkpt lon="6.020876" lat="51.092774"><ele>39</ele><time>2022-05-22T07:10:46.000Z</time></trkpt><trkpt lon="6.020935" lat="51.09271"><ele>39</ele><time>2022-05-22T07:10:47.000Z</time></trkpt><trkpt lon="6.020992" lat="51.092642"><ele>39</ele><time>2022-05-22T07:10:48.000Z</time></trkpt><trkpt lon="6.021047" lat="51.092577"><ele>39</ele><time>2022-05-22T07:10:49.000Z</time></trkpt><trkpt lon="6.021105" lat="51.092509"><ele>39</ele><time>2022-05-22T07:10:50.000Z</time></trkpt><trkpt lon="6.02116" lat="51.092439"><ele>38.8</ele><time>2022-05-22T07:10:51.000Z</time></trkpt><trkpt lon="6.021216" lat="51.09237"><ele>38.8</ele><time>2022-05-22T07:10:52.000Z</time></trkpt><trkpt lon="6.02127" lat="51.092306"><ele>38.6</ele><time>2022-05-22T07:10:53.000Z</time></trkpt><trkpt lon="6.021329" lat="51.092237"><ele>38.6</ele><time>2022-05-22T07:10:54.000Z</time></trkpt><trkpt lon="6.021382" lat="51.09217"><ele>38.4</ele><time>2022-05-22T07:10:55.000Z</time></trkpt><trkpt lon="6.021439" lat="51.092103"><ele>38.4</ele><time>2022-05-22T07:10:56.000Z</time></trkpt><trkpt lon="6.021489" lat="51.092044"><ele>38.2</ele><time>2022-05-22T07:10:57.000Z</time></trkpt><trkpt lon="6.021537" lat="51.091981"><ele>38.2</ele><time>2022-05-22T07:10:58.000Z</time></trkpt><trkpt lon="6.021582" lat="51.091928"><ele>38.2</ele><time>2022-05-22T07:10:59.000Z</time></trkpt><trkpt lon="6.021624" lat="51.091875"><ele>38.2</ele><time>2022-05-22T07:11:00.000Z</time></trkpt><trkpt lon="6.021664" lat="51.091823"><ele>38.2</ele><time>2022-05-22T07:11:01.000Z</time></trkpt><trkpt lon="6.021708" lat="51.091768"><ele>38.2</ele><time>2022-05-22T07:11:02.000Z</time></trkpt><trkpt lon="6.021752" lat="51.091719"><ele>38.2</ele><time>2022-05-22T07:11:03.000Z</time></trkpt><trkpt lon="6.021794" lat="51.091665"><ele>38.2</ele><time>2022-05-22T07:11:04.000Z</time></trkpt><trkpt lon="6.021837" lat="51.091611"><ele>38</ele><time>2022-05-22T07:11:05.000Z</time></trkpt><trkpt lon="6.021884" lat="51.091558"><ele>38</ele><time>2022-05-22T07:11:06.000Z</time></trkpt><trkpt lon="6.021937" lat="51.091501"><ele>38</ele><time>2022-05-22T07:11:07.000Z</time></trkpt><trkpt lon="6.021993" lat="51.091444"><ele>37.8</ele><time>2022-05-22T07:11:08.000Z</time></trkpt><trkpt lon="6.022049" lat="51.091384"><ele>37.6</ele><time>2022-05-22T07:11:09.000Z</time></trkpt><trkpt lon="6.022102" lat="51.091321"><ele>37.6</ele><time>2022-05-22T07:11:10.000Z</time></trkpt><trkpt lon="6.022146" lat="51.091257"><ele>37.6</ele><time>2022-05-22T07:11:11.000Z</time></trkpt><trkpt lon="6.022197" lat="51.091185"><ele>37.4</ele><time>2022-05-22T07:11:12.000Z</time></trkpt><trkpt lon="6.02225" lat="51.091119"><ele>37.4</ele><time>2022-05-22T07:11:13.000Z</time></trkpt><trkpt lon="6.022303" lat="51.091059"><ele>37.2</ele><time>2022-05-22T07:11:14.000Z</time></trkpt><trkpt lon="6.022354" lat="51.090997"><ele>37.2</ele><time>2022-05-22T07:11:15.000Z</time></trkpt><trkpt lon="6.022401" lat="51.09094"><ele>37</ele><time>2022-05-22T07:11:16.000Z</time></trkpt><trkpt lon="6.022442" lat="51.090889"><ele>37</ele><time>2022-05-22T07:11:17.000Z</time></trkpt><trkpt lon="6.022484" lat="51.090841"><ele>37</ele><time>2022-05-22T07:11:18.000Z</time></trkpt><trkpt lon="6.022522" lat="51.090799"><ele>37</ele><time>2022-05-22T07:11:19.000Z</time></trkpt><trkpt lon="6.022554" lat="51.090768"><ele>37</ele><time>2022-05-22T07:11:20.000Z</time></trkpt><trkpt lon="6.022584" lat="51.090741"><ele>37</ele><time>2022-05-22T07:11:21.000Z</time></trkpt><trkpt lon="6.022618" lat="51.090731"><ele>37</ele><time>2022-05-22T07:11:22.000Z</time></trkpt><trkpt lon="6.022677" lat="51.090729"><ele>37</ele><time>2022-05-22T07:11:23.000Z</time></trkpt><trkpt lon="6.022734" lat="51.090747"><ele>36.8</ele><time>2022-05-22T07:11:24.000Z</time></trkpt><trkpt lon="6.022797" lat="51.09077"><ele>36.8</ele><time>2022-05-22T07:11:25.000Z</time></trkpt><trkpt lon="6.022861" lat="51.090804"><ele>36.8</ele><time>2022-05-22T07:11:26.000Z</time></trkpt><trkpt lon="6.022927" lat="51.090841"><ele>36.8</ele><time>2022-05-22T07:11:27.000Z</time></trkpt><trkpt lon="6.022991" lat="51.090878"><ele>36.8</ele><time>2022-05-22T07:11:28.000Z</time></trkpt><trkpt lon="6.023054" lat="51.090917"><ele>36.8</ele><time>2022-05-22T07:11:29.000Z</time></trkpt><trkpt lon="6.023127" lat="51.090965"><ele>36.8</ele><time>2022-05-22T07:11:30.000Z</time></trkpt><trkpt lon="6.023204" lat="51.091013"><ele>36.8</ele><time>2022-05-22T07:11:31.000Z</time></trkpt><trkpt lon="6.023282" lat="51.091054"><ele>36.8</ele><time>2022-05-22T07:11:32.000Z</time></trkpt><trkpt lon="6.023365" lat="51.091102"><ele>36.8</ele><time>2022-05-22T07:11:33.000Z</time></trkpt><trkpt lon="6.023447" lat="51.091148"><ele>36.8</ele><time>2022-05-22T07:11:34.000Z</time></trkpt><trkpt lon="6.023528" lat="51.091193"><ele>36.6</ele><time>2022-05-22T07:11:35.000Z</time></trkpt><trkpt lon="6.023611" lat="51.091238"><ele>36.6</ele><time>2022-05-22T07:11:36.000Z</time></trkpt><trkpt lon="6.023696" lat="51.091288"><ele>36.6</ele><time>2022-05-22T07:11:37.000Z</time></trkpt><trkpt lon="6.023783" lat="51.091334"><ele>36.6</ele><time>2022-05-22T07:11:38.000Z</time></trkpt><trkpt lon="6.02387" lat="51.091384"><ele>36.6</ele><time>2022-05-22T07:11:39.000Z</time></trkpt><trkpt lon="6.023955" lat="51.091434"><ele>36.6</ele><time>2022-05-22T07:11:40.000Z</time></trkpt><trkpt lon="6.024038" lat="51.091487"><ele>36.4</ele><time>2022-05-22T07:11:41.000Z</time></trkpt><trkpt lon="6.024113" lat="51.091535"><ele>36.2</ele><time>2022-05-22T07:11:42.000Z</time></trkpt><trkpt lon="6.024198" lat="51.091592"><ele>36</ele><time>2022-05-22T07:11:43.000Z</time></trkpt><trkpt lon="6.024276" lat="51.091645"><ele>36</ele><time>2022-05-22T07:11:44.000Z</time></trkpt><trkpt lon="6.024358" lat="51.0917"><ele>35.8</ele><time>2022-05-22T07:11:45.000Z</time></trkpt><trkpt lon="6.02444" lat="51.091754"><ele>35.8</ele><time>2022-05-22T07:11:46.000Z</time></trkpt><trkpt lon="6.02452" lat="51.091806"><ele>35.8</ele><time>2022-05-22T07:11:47.000Z</time></trkpt><trkpt lon="6.024603" lat="51.091861"><ele>35.8</ele><time>2022-05-22T07:11:48.000Z</time></trkpt><trkpt lon="6.024684" lat="51.09191"><ele>35.8</ele><time>2022-05-22T07:11:49.000Z</time></trkpt><trkpt lon="6.024768" lat="51.091956"><ele>35.8</ele><time>2022-05-22T07:11:50.000Z</time></trkpt><trkpt lon="6.024855" lat="51.092005"><ele>35.8</ele><time>2022-05-22T07:11:51.000Z</time></trkpt><trkpt lon="6.024941" lat="51.092054"><ele>36</ele><time>2022-05-22T07:11:52.000Z</time></trkpt><trkpt lon="6.025027" lat="51.092096"><ele>36</ele><time>2022-05-22T07:11:53.000Z</time></trkpt><trkpt lon="6.025109" lat="51.092135"><ele>36</ele><time>2022-05-22T07:11:54.000Z</time></trkpt><trkpt lon="6.025214" lat="51.092177"><ele>36</ele><time>2022-05-22T07:11:55.000Z</time></trkpt><trkpt lon="6.025313" lat="51.092216"><ele>36.2</ele><time>2022-05-22T07:11:56.000Z</time></trkpt><trkpt lon="6.025407" lat="51.092248"><ele>36.4</ele><time>2022-05-22T07:11:57.000Z</time></trkpt><trkpt lon="6.025514" lat="51.092284"><ele>36.6</ele><time>2022-05-22T07:11:58.000Z</time></trkpt><trkpt lon="6.025611" lat="51.092315"><ele>36.8</ele><time>2022-05-22T07:11:59.000Z</time></trkpt><trkpt lon="6.025703" lat="51.092349"><ele>37</ele><time>2022-05-22T07:12:00.000Z</time></trkpt><trkpt lon="6.0258" lat="51.092379"><ele>37</ele><time>2022-05-22T07:12:01.000Z</time></trkpt><trkpt lon="6.025896" lat="51.09241"><ele>37</ele><time>2022-05-22T07:12:02.000Z</time></trkpt><trkpt lon="6.02599" lat="51.09244"><ele>37</ele><time>2022-05-22T07:12:03.000Z</time></trkpt><trkpt lon="6.026088" lat="51.092478"><ele>37.2</ele><time>2022-05-22T07:12:04.000Z</time></trkpt><trkpt lon="6.026186" lat="51.092509"><ele>37.2</ele><time>2022-05-22T07:12:05.000Z</time></trkpt><trkpt lon="6.026283" lat="51.092544"><ele>37.2</ele><time>2022-05-22T07:12:06.000Z</time></trkpt><trkpt lon="6.02638" lat="51.092574"><ele>37.2</ele><time>2022-05-22T07:12:07.000Z</time></trkpt><trkpt lon="6.026478" lat="51.092608"><ele>37.2</ele><time>2022-05-22T07:12:08.000Z</time></trkpt><trkpt lon="6.026573" lat="51.092639"><ele>37.2</ele><time>2022-05-22T07:12:09.000Z</time></trkpt><trkpt lon="6.026668" lat="51.092674"><ele>37.2</ele><time>2022-05-22T07:12:10.000Z</time></trkpt><trkpt lon="6.02676" lat="51.092707"><ele>37.4</ele><time>2022-05-22T07:12:11.000Z</time></trkpt><trkpt lon="6.026855" lat="51.092738"><ele>37.4</ele><time>2022-05-22T07:12:12.000Z</time></trkpt><trkpt lon="6.026944" lat="51.092771"><ele>37.6</ele><time>2022-05-22T07:12:13.000Z</time></trkpt><trkpt lon="6.027044" lat="51.092799"><ele>37.6</ele><time>2022-05-22T07:12:14.000Z</time></trkpt><trkpt lon="6.027126" lat="51.092829"><ele>37.8</ele><time>2022-05-22T07:12:15.000Z</time></trkpt><trkpt lon="6.027233" lat="51.092868"><ele>37.8</ele><time>2022-05-22T07:12:16.000Z</time></trkpt><trkpt lon="6.027324" lat="51.092902"><ele>37.8</ele><time>2022-05-22T07:12:17.000Z</time></trkpt><trkpt lon="6.027415" lat="51.092932"><ele>37.8</ele><time>2022-05-22T07:12:18.000Z</time></trkpt><trkpt lon="6.027512" lat="51.092967"><ele>38</ele><time>2022-05-22T07:12:19.000Z</time></trkpt><trkpt lon="6.027605" lat="51.092997"><ele>38</ele><time>2022-05-22T07:12:20.000Z</time></trkpt><trkpt lon="6.027695" lat="51.093023"><ele>38</ele><time>2022-05-22T07:12:21.000Z</time></trkpt><trkpt lon="6.027783" lat="51.093052"><ele>38</ele><time>2022-05-22T07:12:22.000Z</time></trkpt><trkpt lon="6.027884" lat="51.093089"><ele>38</ele><time>2022-05-22T07:12:23.000Z</time></trkpt><trkpt lon="6.027979" lat="51.09312"><ele>38</ele><time>2022-05-22T07:12:24.000Z</time></trkpt><trkpt lon="6.028071" lat="51.093154"><ele>38</ele><time>2022-05-22T07:12:25.000Z</time></trkpt><trkpt lon="6.028166" lat="51.093185"><ele>38</ele><time>2022-05-22T07:12:26.000Z</time></trkpt><trkpt lon="6.028254" lat="51.093216"><ele>38.2</ele><time>2022-05-22T07:12:27.000Z</time></trkpt><trkpt lon="6.028357" lat="51.09325"><ele>38.2</ele><time>2022-05-22T07:12:28.000Z</time></trkpt><trkpt lon="6.028451" lat="51.093284"><ele>38.2</ele><time>2022-05-22T07:12:29.000Z</time></trkpt><trkpt lon="6.028544" lat="51.093314"><ele>38.2</ele><time>2022-05-22T07:12:30.000Z</time></trkpt><trkpt lon="6.028636" lat="51.093348"><ele>38.2</ele><time>2022-05-22T07:12:31.000Z</time></trkpt><trkpt lon="6.028735" lat="51.093379"><ele>38.2</ele><time>2022-05-22T07:12:32.000Z</time></trkpt><trkpt lon="6.028828" lat="51.093413"><ele>38.2</ele><time>2022-05-22T07:12:33.000Z</time></trkpt><trkpt lon="6.028926" lat="51.093444"><ele>38.2</ele><time>2022-05-22T07:12:34.000Z</time></trkpt><trkpt lon="6.029021" lat="51.093478"><ele>38.2</ele><time>2022-05-22T07:12:35.000Z</time></trkpt><trkpt lon="6.029117" lat="51.093508"><ele>38</ele><time>2022-05-22T07:12:36.000Z</time></trkpt><trkpt lon="6.029217" lat="51.093539"><ele>37.8</ele><time>2022-05-22T07:12:37.000Z</time></trkpt><trkpt lon="6.029315" lat="51.093573"><ele>37.8</ele><time>2022-05-22T07:12:38.000Z</time></trkpt><trkpt lon="6.029408" lat="51.093603"><ele>37.8</ele><time>2022-05-22T07:12:39.000Z</time></trkpt><trkpt lon="6.029509" lat="51.093637"><ele>37.8</ele><time>2022-05-22T07:12:40.000Z</time></trkpt><trkpt lon="6.029604" lat="51.093668"><ele>37.8</ele><time>2022-05-22T07:12:41.000Z</time></trkpt><trkpt lon="6.029697" lat="51.093701"><ele>38</ele><time>2022-05-22T07:12:42.000Z</time></trkpt><trkpt lon="6.0298" lat="51.093738"><ele>38</ele><time>2022-05-22T07:12:43.000Z</time></trkpt><trkpt lon="6.029892" lat="51.093768"><ele>38</ele><time>2022-05-22T07:12:44.000Z</time></trkpt><trkpt lon="6.029987" lat="51.093798"><ele>38.2</ele><time>2022-05-22T07:12:45.000Z</time></trkpt><trkpt lon="6.030077" lat="51.093828"><ele>38.2</ele><time>2022-05-22T07:12:46.000Z</time></trkpt><trkpt lon="6.030173" lat="51.09386"><ele>38.2</ele><time>2022-05-22T07:12:47.000Z</time></trkpt><trkpt lon="6.030263" lat="51.093894"><ele>38.2</ele><time>2022-05-22T07:12:48.000Z</time></trkpt><trkpt lon="6.030355" lat="51.093925"><ele>38.2</ele><time>2022-05-22T07:12:49.000Z</time></trkpt><trkpt lon="6.03045" lat="51.093955"><ele>38</ele><time>2022-05-22T07:12:50.000Z</time></trkpt><trkpt lon="6.030542" lat="51.093985"><ele>38</ele><time>2022-05-22T07:12:51.000Z</time></trkpt><trkpt lon="6.030637" lat="51.09402"><ele>38</ele><time>2022-05-22T07:12:52.000Z</time></trkpt><trkpt lon="6.030731" lat="51.094051"><ele>38</ele><time>2022-05-22T07:12:53.000Z</time></trkpt><trkpt lon="6.030823" lat="51.094081"><ele>38</ele><time>2022-05-22T07:12:54.000Z</time></trkpt><trkpt lon="6.03092" lat="51.094112"><ele>38</ele><time>2022-05-22T07:12:55.000Z</time></trkpt><trkpt lon="6.031009" lat="51.094141"><ele>38.2</ele><time>2022-05-22T07:12:56.000Z</time></trkpt><trkpt lon="6.031099" lat="51.094171"><ele>38.4</ele><time>2022-05-22T07:12:57.000Z</time></trkpt><trkpt lon="6.031194" lat="51.094207"><ele>38.4</ele><time>2022-05-22T07:12:58.000Z</time></trkpt><trkpt lon="6.031284" lat="51.094237"><ele>38.6</ele><time>2022-05-22T07:12:59.000Z</time></trkpt><trkpt lon="6.031374" lat="51.094268"><ele>38.6</ele><time>2022-05-22T07:13:00.000Z</time></trkpt><trkpt lon="6.031463" lat="51.094299"><ele>38.8</ele><time>2022-05-22T07:13:01.000Z</time></trkpt><trkpt lon="6.031548" lat="51.094325"><ele>38.8</ele><time>2022-05-22T07:13:02.000Z</time></trkpt><trkpt lon="6.031631" lat="51.094356"><ele>38.8</ele><time>2022-05-22T07:13:03.000Z</time></trkpt><trkpt lon="6.03171" lat="51.094383"><ele>38.8</ele><time>2022-05-22T07:13:04.000Z</time></trkpt><trkpt lon="6.031786" lat="51.094409"><ele>39</ele><time>2022-05-22T07:13:05.000Z</time></trkpt><trkpt lon="6.031857" lat="51.094435"><ele>39</ele><time>2022-05-22T07:13:06.000Z</time></trkpt><trkpt lon="6.031931" lat="51.094459"><ele>39.2</ele><time>2022-05-22T07:13:07.000Z</time></trkpt><trkpt lon="6.032" lat="51.094481"><ele>39.2</ele><time>2022-05-22T07:13:08.000Z</time></trkpt><trkpt lon="6.032065" lat="51.094504"><ele>39.2</ele><time>2022-05-22T07:13:09.000Z</time></trkpt><trkpt lon="6.03213" lat="51.094527"><ele>39.2</ele><time>2022-05-22T07:13:10.000Z</time></trkpt><trkpt lon="6.032195" lat="51.094551"><ele>39.2</ele><time>2022-05-22T07:13:11.000Z</time></trkpt><trkpt lon="6.032255" lat="51.094573"><ele>39.2</ele><time>2022-05-22T07:13:12.000Z</time></trkpt><trkpt lon="6.032319" lat="51.094589"><ele>39.2</ele><time>2022-05-22T07:13:13.000Z</time></trkpt><trkpt lon="6.03238" lat="51.094586"><ele>39.2</ele><time>2022-05-22T07:13:14.000Z</time></trkpt><trkpt lon="6.032436" lat="51.09456"><ele>39</ele><time>2022-05-22T07:13:15.000Z</time></trkpt><trkpt lon="6.032492" lat="51.094514"><ele>38.8</ele><time>2022-05-22T07:13:16.000Z</time></trkpt><trkpt lon="6.032545" lat="51.094459"><ele>38.6</ele><time>2022-05-22T07:13:17.000Z</time></trkpt><trkpt lon="6.032605" lat="51.094396"><ele>38.4</ele><time>2022-05-22T07:13:18.000Z</time></trkpt><trkpt lon="6.032665" lat="51.094332"><ele>38.2</ele><time>2022-05-22T07:13:19.000Z</time></trkpt><trkpt lon="6.032729" lat="51.09426"><ele>37.8</ele><time>2022-05-22T07:13:20.000Z</time></trkpt><trkpt lon="6.0328" lat="51.094187"><ele>37.4</ele><time>2022-05-22T07:13:21.000Z</time></trkpt><trkpt lon="6.03287" lat="51.09411"><ele>37</ele><time>2022-05-22T07:13:22.000Z</time></trkpt><trkpt lon="6.032938" lat="51.094034"><ele>36.6</ele><time>2022-05-22T07:13:23.000Z</time></trkpt><trkpt lon="6.033006" lat="51.093954"><ele>36.4</ele><time>2022-05-22T07:13:24.000Z</time></trkpt><trkpt lon="6.033075" lat="51.093878"><ele>36</ele><time>2022-05-22T07:13:25.000Z</time></trkpt><trkpt lon="6.033147" lat="51.093799"><ele>35.8</ele><time>2022-05-22T07:13:26.000Z</time></trkpt><trkpt lon="6.033224" lat="51.093703"><ele>35.6</ele><time>2022-05-22T07:13:27.000Z</time></trkpt><trkpt lon="6.033305" lat="51.09361"><ele>35.2</ele><time>2022-05-22T07:13:28.000Z</time></trkpt><trkpt lon="6.033376" lat="51.093535"><ele>35</ele><time>2022-05-22T07:13:29.000Z</time></trkpt><trkpt lon="6.03344" lat="51.093466"><ele>34.8</ele><time>2022-05-22T07:13:30.000Z</time></trkpt><trkpt lon="6.033502" lat="51.093401"><ele>34.4</ele><time>2022-05-22T07:13:31.000Z</time></trkpt><trkpt lon="6.033558" lat="51.093344"><ele>34.4</ele><time>2022-05-22T07:13:32.000Z</time></trkpt><trkpt lon="6.033615" lat="51.093294"><ele>34.2</ele><time>2022-05-22T07:13:33.000Z</time></trkpt><trkpt lon="6.033685" lat="51.093259"><ele>34</ele><time>2022-05-22T07:13:34.000Z</time></trkpt><trkpt lon="6.033762" lat="51.093262"><ele>33.8</ele><time>2022-05-22T07:13:35.000Z</time></trkpt><trkpt lon="6.033843" lat="51.093287"><ele>33.6</ele><time>2022-05-22T07:13:36.000Z</time></trkpt><trkpt lon="6.033927" lat="51.093328"><ele>33.6</ele><time>2022-05-22T07:13:37.000Z</time></trkpt><trkpt lon="6.03402" lat="51.093375"><ele>33.4</ele><time>2022-05-22T07:13:38.000Z</time></trkpt><trkpt lon="6.034102" lat="51.09342"><ele>33.4</ele><time>2022-05-22T07:13:39.000Z</time></trkpt><trkpt lon="6.0342" lat="51.093469"><ele>33.4</ele><time>2022-05-22T07:13:40.000Z</time></trkpt><trkpt lon="6.03429" lat="51.093518"><ele>33.4</ele><time>2022-05-22T07:13:41.000Z</time></trkpt><trkpt lon="6.034381" lat="51.093566"><ele>33.4</ele><time>2022-05-22T07:13:42.000Z</time></trkpt><trkpt lon="6.034467" lat="51.093615"><ele>33.4</ele><time>2022-05-22T07:13:43.000Z</time></trkpt><trkpt lon="6.034552" lat="51.093661"><ele>33.6</ele><time>2022-05-22T07:13:44.000Z</time></trkpt><trkpt lon="6.034633" lat="51.093707"><ele>33.6</ele><time>2022-05-22T07:13:45.000Z</time></trkpt><trkpt lon="6.034714" lat="51.093749"><ele>33.8</ele><time>2022-05-22T07:13:46.000Z</time></trkpt><trkpt lon="6.034792" lat="51.093786"><ele>33.8</ele><time>2022-05-22T07:13:47.000Z</time></trkpt><trkpt lon="6.034875" lat="51.093829"><ele>34</ele><time>2022-05-22T07:13:48.000Z</time></trkpt><trkpt lon="6.034959" lat="51.093874"><ele>34</ele><time>2022-05-22T07:13:49.000Z</time></trkpt><trkpt lon="6.035041" lat="51.09392"><ele>34.2</ele><time>2022-05-22T07:13:50.000Z</time></trkpt><trkpt lon="6.035123" lat="51.093963"><ele>34.2</ele><time>2022-05-22T07:13:51.000Z</time></trkpt><trkpt lon="6.035206" lat="51.094008"><ele>34.2</ele><time>2022-05-22T07:13:52.000Z</time></trkpt><trkpt lon="6.035289" lat="51.094049"><ele>34.2</ele><time>2022-05-22T07:13:53.000Z</time></trkpt><trkpt lon="6.035357" lat="51.094084"><ele>34.2</ele><time>2022-05-22T07:13:54.000Z</time></trkpt><trkpt lon="6.035452" lat="51.09413"><ele>34.2</ele><time>2022-05-22T07:13:55.000Z</time></trkpt><trkpt lon="6.035535" lat="51.094169"><ele>34.2</ele><time>2022-05-22T07:13:56.000Z</time></trkpt><trkpt lon="6.035619" lat="51.094206"><ele>34</ele><time>2022-05-22T07:13:57.000Z</time></trkpt><trkpt lon="6.035714" lat="51.094238"><ele>34</ele><time>2022-05-22T07:13:58.000Z</time></trkpt><trkpt lon="6.035807" lat="51.094268"><ele>34</ele><time>2022-05-22T07:13:59.000Z</time></trkpt><trkpt lon="6.035892" lat="51.094294"><ele>34</ele><time>2022-05-22T07:14:00.000Z</time></trkpt><trkpt lon="6.035975" lat="51.094317"><ele>34</ele><time>2022-05-22T07:14:01.000Z</time></trkpt><trkpt lon="6.036043" lat="51.094337"><ele>34</ele><time>2022-05-22T07:14:02.000Z</time></trkpt><trkpt lon="6.036093" lat="51.094352"><ele>34</ele><time>2022-05-22T07:14:03.000Z</time></trkpt><trkpt lon="6.036137" lat="51.094364"><ele>34</ele><time>2022-05-22T07:14:04.000Z</time></trkpt><trkpt lon="6.036177" lat="51.094375"><ele>34</ele><time>2022-05-22T07:14:05.000Z</time></trkpt><trkpt lon="6.036216" lat="51.09439"><ele>34</ele><time>2022-05-22T07:14:06.000Z</time></trkpt><trkpt lon="6.03625" lat="51.094413"><ele>34</ele><time>2022-05-22T07:14:07.000Z</time></trkpt><trkpt lon="6.036289" lat="51.094443"><ele>34</ele><time>2022-05-22T07:14:08.000Z</time></trkpt><trkpt lon="6.036323" lat="51.094477"><ele>34</ele><time>2022-05-22T07:14:09.000Z</time></trkpt><trkpt lon="6.036374" lat="51.094519"><ele>34</ele><time>2022-05-22T07:14:10.000Z</time></trkpt><trkpt lon="6.036442" lat="51.094553"><ele>34</ele><time>2022-05-22T07:14:11.000Z</time></trkpt><trkpt lon="6.036537" lat="51.094588"><ele>34</ele><time>2022-05-22T07:14:12.000Z</time></trkpt><trkpt lon="6.036638" lat="51.094615"><ele>34</ele><time>2022-05-22T07:14:13.000Z</time></trkpt><trkpt lon="6.036744" lat="51.094638"><ele>34</ele><time>2022-05-22T07:14:14.000Z</time></trkpt><trkpt lon="6.03685" lat="51.094668"><ele>34</ele><time>2022-05-22T07:14:15.000Z</time></trkpt><trkpt lon="6.036956" lat="51.094695"><ele>34</ele><time>2022-05-22T07:14:16.000Z</time></trkpt><trkpt lon="6.037057" lat="51.094726"><ele>34</ele><time>2022-05-22T07:14:17.000Z</time></trkpt><trkpt lon="6.037158" lat="51.094752"><ele>34.2</ele><time>2022-05-22T07:14:18.000Z</time></trkpt><trkpt lon="6.037258" lat="51.094783"><ele>34.2</ele><time>2022-05-22T07:14:19.000Z</time></trkpt><trkpt lon="6.037346" lat="51.094817"><ele>34.2</ele><time>2022-05-22T07:14:20.000Z</time></trkpt><trkpt lon="6.037433" lat="51.094862"><ele>34.2</ele><time>2022-05-22T07:14:21.000Z</time></trkpt><trkpt lon="6.037514" lat="51.094907"><ele>34.2</ele><time>2022-05-22T07:14:22.000Z</time></trkpt><trkpt lon="6.037599" lat="51.094958"><ele>34.2</ele><time>2022-05-22T07:14:23.000Z</time></trkpt><trkpt lon="6.037679" lat="51.095004"><ele>34.2</ele><time>2022-05-22T07:14:24.000Z</time></trkpt><trkpt lon="6.037758" lat="51.095053"><ele>34.2</ele><time>2022-05-22T07:14:25.000Z</time></trkpt><trkpt lon="6.037839" lat="51.095099"><ele>34.2</ele><time>2022-05-22T07:14:26.000Z</time></trkpt><trkpt lon="6.037913" lat="51.095146"><ele>34.2</ele><time>2022-05-22T07:14:27.000Z</time></trkpt><trkpt lon="6.037994" lat="51.095198"><ele>34</ele><time>2022-05-22T07:14:28.000Z</time></trkpt><trkpt lon="6.038063" lat="51.095247"><ele>34</ele><time>2022-05-22T07:14:29.000Z</time></trkpt><trkpt lon="6.038136" lat="51.095297"><ele>34</ele><time>2022-05-22T07:14:30.000Z</time></trkpt><trkpt lon="6.038207" lat="51.095347"><ele>34.2</ele><time>2022-05-22T07:14:31.000Z</time></trkpt><trkpt lon="6.038275" lat="51.0954"><ele>34.2</ele><time>2022-05-22T07:14:32.000Z</time></trkpt><trkpt lon="6.038337" lat="51.095454"><ele>34.2</ele><time>2022-05-22T07:14:33.000Z</time></trkpt><trkpt lon="6.038395" lat="51.09551"><ele>34.2</ele><time>2022-05-22T07:14:34.000Z</time></trkpt><trkpt lon="6.038452" lat="51.095568"><ele>34.2</ele><time>2022-05-22T07:14:35.000Z</time></trkpt><trkpt lon="6.038506" lat="51.095624"><ele>34.2</ele><time>2022-05-22T07:14:36.000Z</time></trkpt><trkpt lon="6.038559" lat="51.095679"><ele>34.2</ele><time>2022-05-22T07:14:37.000Z</time></trkpt><trkpt lon="6.038612" lat="51.09574"><ele>34.2</ele><time>2022-05-22T07:14:38.000Z</time></trkpt><trkpt lon="6.038666" lat="51.095797"><ele>34.2</ele><time>2022-05-22T07:14:39.000Z</time></trkpt><trkpt lon="6.03872" lat="51.095851"><ele>34.4</ele><time>2022-05-22T07:14:40.000Z</time></trkpt><trkpt lon="6.038773" lat="51.095907"><ele>34.4</ele><time>2022-05-22T07:14:41.000Z</time></trkpt><trkpt lon="6.03883" lat="51.095969"><ele>34.4</ele><time>2022-05-22T07:14:42.000Z</time></trkpt><trkpt lon="6.038887" lat="51.096029"><ele>34.4</ele><time>2022-05-22T07:14:43.000Z</time></trkpt><trkpt lon="6.038942" lat="51.096087"><ele>34.4</ele><time>2022-05-22T07:14:44.000Z</time></trkpt><trkpt lon="6.038999" lat="51.096148"><ele>34.4</ele><time>2022-05-22T07:14:45.000Z</time></trkpt><trkpt lon="6.039051" lat="51.096204"><ele>34.2</ele><time>2022-05-22T07:14:46.000Z</time></trkpt><trkpt lon="6.039109" lat="51.096266"><ele>34.2</ele><time>2022-05-22T07:14:47.000Z</time></trkpt><trkpt lon="6.039166" lat="51.09633"><ele>34.2</ele><time>2022-05-22T07:14:48.000Z</time></trkpt><trkpt lon="6.039224" lat="51.096389"><ele>34.2</ele><time>2022-05-22T07:14:49.000Z</time></trkpt><trkpt lon="6.039271" lat="51.096442"><ele>34.2</ele><time>2022-05-22T07:14:50.000Z</time></trkpt><trkpt lon="6.039334" lat="51.096509"><ele>34.2</ele><time>2022-05-22T07:14:51.000Z</time></trkpt><trkpt lon="6.03939" lat="51.096572"><ele>34</ele><time>2022-05-22T07:14:52.000Z</time></trkpt><trkpt lon="6.039441" lat="51.096629"><ele>34</ele><time>2022-05-22T07:14:53.000Z</time></trkpt><trkpt lon="6.039499" lat="51.096694"><ele>34</ele><time>2022-05-22T07:14:54.000Z</time></trkpt><trkpt lon="6.039552" lat="51.096754"><ele>34</ele><time>2022-05-22T07:14:55.000Z</time></trkpt><trkpt lon="6.039607" lat="51.096812"><ele>34</ele><time>2022-05-22T07:14:56.000Z</time></trkpt><trkpt lon="6.039658" lat="51.096866"><ele>34</ele><time>2022-05-22T07:14:57.000Z</time></trkpt><trkpt lon="6.039711" lat="51.096929"><ele>34</ele><time>2022-05-22T07:14:58.000Z</time></trkpt><trkpt lon="6.039765" lat="51.096986"><ele>33.8</ele><time>2022-05-22T07:14:59.000Z</time></trkpt><trkpt lon="6.039817" lat="51.097044"><ele>33.8</ele><time>2022-05-22T07:15:00.000Z</time></trkpt><trkpt lon="6.039865" lat="51.097101"><ele>33.8</ele><time>2022-05-22T07:15:01.000Z</time></trkpt><trkpt lon="6.039911" lat="51.097155"><ele>33.8</ele><time>2022-05-22T07:15:02.000Z</time></trkpt><trkpt lon="6.039956" lat="51.097213"><ele>33.8</ele><time>2022-05-22T07:15:03.000Z</time></trkpt><trkpt lon="6.040001" lat="51.097266"><ele>33.8</ele><time>2022-05-22T07:15:04.000Z</time></trkpt><trkpt lon="6.040047" lat="51.097315"><ele>33.8</ele><time>2022-05-22T07:15:05.000Z</time></trkpt><trkpt lon="6.040099" lat="51.097365"><ele>33.8</ele><time>2022-05-22T07:15:06.000Z</time></trkpt><trkpt lon="6.040156" lat="51.097409"><ele>33.8</ele><time>2022-05-22T07:15:07.000Z</time></trkpt><trkpt lon="6.040227" lat="51.097453"><ele>33.6</ele><time>2022-05-22T07:15:08.000Z</time></trkpt><trkpt lon="6.0403" lat="51.097495"><ele>33.6</ele><time>2022-05-22T07:15:09.000Z</time></trkpt><trkpt lon="6.040369" lat="51.097535"><ele>33.4</ele><time>2022-05-22T07:15:10.000Z</time></trkpt><trkpt lon="6.040439" lat="51.097582"><ele>33.4</ele><time>2022-05-22T07:15:11.000Z</time></trkpt><trkpt lon="6.040496" lat="51.097635"><ele>33.2</ele><time>2022-05-22T07:15:12.000Z</time></trkpt><trkpt lon="6.040544" lat="51.097687"><ele>33.2</ele><time>2022-05-22T07:15:13.000Z</time></trkpt><trkpt lon="6.040584" lat="51.097738"><ele>33.2</ele><time>2022-05-22T07:15:14.000Z</time></trkpt><trkpt lon="6.040618" lat="51.097787"><ele>33.2</ele><time>2022-05-22T07:15:15.000Z</time></trkpt><trkpt lon="6.040651" lat="51.097831"><ele>33.2</ele><time>2022-05-22T07:15:16.000Z</time></trkpt><trkpt lon="6.040692" lat="51.097857"><ele>33</ele><time>2022-05-22T07:15:17.000Z</time></trkpt><trkpt lon="6.040757" lat="51.097866"><ele>33</ele><time>2022-05-22T07:15:18.000Z</time></trkpt><trkpt lon="6.04083" lat="51.097844"><ele>33</ele><time>2022-05-22T07:15:19.000Z</time></trkpt><trkpt lon="6.040915" lat="51.097817"><ele>33</ele><time>2022-05-22T07:15:20.000Z</time></trkpt><trkpt lon="6.041008" lat="51.097787"><ele>32.8</ele><time>2022-05-22T07:15:21.000Z</time></trkpt><trkpt lon="6.041106" lat="51.097756"><ele>32.8</ele><time>2022-05-22T07:15:22.000Z</time></trkpt><trkpt lon="6.041205" lat="51.097727"><ele>32.6</ele><time>2022-05-22T07:15:23.000Z</time></trkpt><trkpt lon="6.041307" lat="51.097695"><ele>32.4</ele><time>2022-05-22T07:15:24.000Z</time></trkpt><trkpt lon="6.041407" lat="51.097665"><ele>32.4</ele><time>2022-05-22T07:15:25.000Z</time></trkpt><trkpt lon="6.041511" lat="51.097634"><ele>32.2</ele><time>2022-05-22T07:15:26.000Z</time></trkpt><trkpt lon="6.041616" lat="51.0976"><ele>32.2</ele><time>2022-05-22T07:15:27.000Z</time></trkpt><trkpt lon="6.041724" lat="51.097569"><ele>32.2</ele><time>2022-05-22T07:15:28.000Z</time></trkpt><trkpt lon="6.041831" lat="51.097535"><ele>32.2</ele><time>2022-05-22T07:15:29.000Z</time></trkpt><trkpt lon="6.041935" lat="51.097504"><ele>32.2</ele><time>2022-05-22T07:15:30.000Z</time></trkpt><trkpt lon="6.042039" lat="51.097474"><ele>32</ele><time>2022-05-22T07:15:31.000Z</time></trkpt><trkpt lon="6.04214" lat="51.09744"><ele>32</ele><time>2022-05-22T07:15:32.000Z</time></trkpt><trkpt lon="6.042242" lat="51.097409"><ele>31.8</ele><time>2022-05-22T07:15:33.000Z</time></trkpt><trkpt lon="6.042346" lat="51.097379"><ele>31.8</ele><time>2022-05-22T07:15:34.000Z</time></trkpt><trkpt lon="6.042448" lat="51.097348"><ele>31.8</ele><time>2022-05-22T07:15:35.000Z</time></trkpt><trkpt lon="6.042547" lat="51.097318"><ele>31.8</ele><time>2022-05-22T07:15:36.000Z</time></trkpt><trkpt lon="6.042649" lat="51.097288"><ele>31.6</ele><time>2022-05-22T07:15:37.000Z</time></trkpt><trkpt lon="6.042751" lat="51.097253"><ele>31.8</ele><time>2022-05-22T07:15:38.000Z</time></trkpt><trkpt lon="6.042844" lat="51.097219"><ele>31.8</ele><time>2022-05-22T07:15:39.000Z</time></trkpt><trkpt lon="6.042934" lat="51.097173"><ele>31.6</ele><time>2022-05-22T07:15:40.000Z</time></trkpt><trkpt lon="6.043014" lat="51.097124"><ele>31.4</ele><time>2022-05-22T07:15:41.000Z</time></trkpt><trkpt lon="6.043083" lat="51.097076"><ele>31.2</ele><time>2022-05-22T07:15:42.000Z</time></trkpt><trkpt lon="6.043167" lat="51.097017"><ele>31</ele><time>2022-05-22T07:15:43.000Z</time></trkpt><trkpt lon="6.043239" lat="51.09696"><ele>31</ele><time>2022-05-22T07:15:44.000Z</time></trkpt><trkpt lon="6.04331" lat="51.09691"><ele>31</ele><time>2022-05-22T07:15:45.000Z</time></trkpt><trkpt lon="6.043378" lat="51.096856"><ele>31.2</ele><time>2022-05-22T07:15:46.000Z</time></trkpt><trkpt lon="6.043444" lat="51.096807"><ele>31.4</ele><time>2022-05-22T07:15:47.000Z</time></trkpt><trkpt lon="6.043511" lat="51.09676"><ele>31.6</ele><time>2022-05-22T07:15:48.000Z</time></trkpt><trkpt lon="6.043588" lat="51.096704"><ele>31.6</ele><time>2022-05-22T07:15:49.000Z</time></trkpt><trkpt lon="6.043657" lat="51.096654"><ele>31.4</ele><time>2022-05-22T07:15:50.000Z</time></trkpt><trkpt lon="6.043724" lat="51.096605"><ele>31.4</ele><time>2022-05-22T07:15:51.000Z</time></trkpt><trkpt lon="6.043789" lat="51.096558"><ele>31.2</ele><time>2022-05-22T07:15:52.000Z</time></trkpt><trkpt lon="6.043847" lat="51.096513"><ele>31.2</ele><time>2022-05-22T07:15:53.000Z</time></trkpt><trkpt lon="6.043893" lat="51.096476"><ele>31.2</ele><time>2022-05-22T07:15:54.000Z</time></trkpt><trkpt lon="6.043961" lat="51.096423"><ele>31.2</ele><time>2022-05-22T07:15:55.000Z</time></trkpt><trkpt lon="6.044019" lat="51.096383"><ele>31.4</ele><time>2022-05-22T07:15:56.000Z</time></trkpt><trkpt lon="6.044069" lat="51.096342"><ele>31.6</ele><time>2022-05-22T07:15:57.000Z</time></trkpt><trkpt lon="6.044115" lat="51.096308"><ele>31.8</ele><time>2022-05-22T07:15:58.000Z</time></trkpt><trkpt lon="6.044156" lat="51.096281"><ele>32.2</ele><time>2022-05-22T07:15:59.000Z</time></trkpt><trkpt lon="6.044202" lat="51.096264"><ele>32.4</ele><time>2022-05-22T07:16:00.000Z</time></trkpt><trkpt lon="6.044256" lat="51.096257"><ele>32.4</ele><time>2022-05-22T07:16:01.000Z</time></trkpt><trkpt lon="6.044316" lat="51.096267"><ele>32.4</ele><time>2022-05-22T07:16:02.000Z</time></trkpt><trkpt lon="6.044381" lat="51.09629"><ele>32.4</ele><time>2022-05-22T07:16:03.000Z</time></trkpt><trkpt lon="6.044451" lat="51.096324"><ele>32.4</ele><time>2022-05-22T07:16:04.000Z</time></trkpt><trkpt lon="6.044522" lat="51.096356"><ele>32.4</ele><time>2022-05-22T07:16:05.000Z</time></trkpt><trkpt lon="6.044606" lat="51.096397"><ele>32.4</ele><time>2022-05-22T07:16:06.000Z</time></trkpt><trkpt lon="6.044683" lat="51.096433"><ele>32.4</ele><time>2022-05-22T07:16:07.000Z</time></trkpt><trkpt lon="6.044767" lat="51.096476"><ele>32.2</ele><time>2022-05-22T07:16:08.000Z</time></trkpt><trkpt lon="6.044847" lat="51.096518"><ele>32.2</ele><time>2022-05-22T07:16:09.000Z</time></trkpt><trkpt lon="6.04493" lat="51.096561"><ele>32</ele><time>2022-05-22T07:16:10.000Z</time></trkpt><trkpt lon="6.045009" lat="51.096601"><ele>32</ele><time>2022-05-22T07:16:11.000Z</time></trkpt><trkpt lon="6.045093" lat="51.09664"><ele>32</ele><time>2022-05-22T07:16:12.000Z</time></trkpt><trkpt lon="6.045175" lat="51.096683"><ele>32</ele><time>2022-05-22T07:16:13.000Z</time></trkpt><trkpt lon="6.045257" lat="51.096725"><ele>32.2</ele><time>2022-05-22T07:16:14.000Z</time></trkpt><trkpt lon="6.045336" lat="51.096762"><ele>32.2</ele><time>2022-05-22T07:16:15.000Z</time></trkpt><trkpt lon="6.045416" lat="51.096804"><ele>32.2</ele><time>2022-05-22T07:16:16.000Z</time></trkpt><trkpt lon="6.045494" lat="51.096845"><ele>32.4</ele><time>2022-05-22T07:16:17.000Z</time></trkpt><trkpt lon="6.04558" lat="51.096892"><ele>32.4</ele><time>2022-05-22T07:16:18.000Z</time></trkpt><trkpt lon="6.045663" lat="51.096934"><ele>32.4</ele><time>2022-05-22T07:16:19.000Z</time></trkpt><trkpt lon="6.045746" lat="51.096976"><ele>32.4</ele><time>2022-05-22T07:16:20.000Z</time></trkpt><trkpt lon="6.045829" lat="51.097018"><ele>32.2</ele><time>2022-05-22T07:16:21.000Z</time></trkpt><trkpt lon="6.045908" lat="51.097058"><ele>32.2</ele><time>2022-05-22T07:16:22.000Z</time></trkpt><trkpt lon="6.045998" lat="51.097098"><ele>32.2</ele><time>2022-05-22T07:16:23.000Z</time></trkpt><trkpt lon="6.046081" lat="51.097144"><ele>32.4</ele><time>2022-05-22T07:16:24.000Z</time></trkpt><trkpt lon="6.046165" lat="51.097183"><ele>32.4</ele><time>2022-05-22T07:16:25.000Z</time></trkpt><trkpt lon="6.046248" lat="51.097224"><ele>32.4</ele><time>2022-05-22T07:16:26.000Z</time></trkpt><trkpt lon="6.046332" lat="51.097269"><ele>32.4</ele><time>2022-05-22T07:16:27.000Z</time></trkpt><trkpt lon="6.046417" lat="51.097312"><ele>32.4</ele><time>2022-05-22T07:16:28.000Z</time></trkpt><trkpt lon="6.0465" lat="51.097354"><ele>32.4</ele><time>2022-05-22T07:16:29.000Z</time></trkpt><trkpt lon="6.046585" lat="51.097396"><ele>32.4</ele><time>2022-05-22T07:16:30.000Z</time></trkpt><trkpt lon="6.046669" lat="51.097441"><ele>32.4</ele><time>2022-05-22T07:16:31.000Z</time></trkpt><trkpt lon="6.046747" lat="51.09748"><ele>32.4</ele><time>2022-05-22T07:16:32.000Z</time></trkpt><trkpt lon="6.046838" lat="51.097528"><ele>32.4</ele><time>2022-05-22T07:16:33.000Z</time></trkpt><trkpt lon="6.046919" lat="51.097571"><ele>32.4</ele><time>2022-05-22T07:16:34.000Z</time></trkpt><trkpt lon="6.047009" lat="51.097616"><ele>32.2</ele><time>2022-05-22T07:16:35.000Z</time></trkpt><trkpt lon="6.047098" lat="51.097663"><ele>32.2</ele><time>2022-05-22T07:16:36.000Z</time></trkpt><trkpt lon="6.047183" lat="51.097711"><ele>32.2</ele><time>2022-05-22T07:16:37.000Z</time></trkpt><trkpt lon="6.047273" lat="51.097755"><ele>32.2</ele><time>2022-05-22T07:16:38.000Z</time></trkpt><trkpt lon="6.04736" lat="51.0978"><ele>32</ele><time>2022-05-22T07:16:39.000Z</time></trkpt><trkpt lon="6.047446" lat="51.097842"><ele>32</ele><time>2022-05-22T07:16:40.000Z</time></trkpt><trkpt lon="6.047532" lat="51.097888"><ele>32</ele><time>2022-05-22T07:16:41.000Z</time></trkpt><trkpt lon="6.047619" lat="51.097933"><ele>32</ele><time>2022-05-22T07:16:42.000Z</time></trkpt><trkpt lon="6.047707" lat="51.097975"><ele>32</ele><time>2022-05-22T07:16:43.000Z</time></trkpt><trkpt lon="6.047793" lat="51.09802"><ele>31.8</ele><time>2022-05-22T07:16:44.000Z</time></trkpt><trkpt lon="6.047883" lat="51.098067"><ele>31.8</ele><time>2022-05-22T07:16:45.000Z</time></trkpt><trkpt lon="6.047969" lat="51.098112"><ele>31.8</ele><time>2022-05-22T07:16:46.000Z</time></trkpt><trkpt lon="6.048056" lat="51.098157"><ele>31.8</ele><time>2022-05-22T07:16:47.000Z</time></trkpt><trkpt lon="6.048145" lat="51.098199"><ele>31.8</ele><time>2022-05-22T07:16:48.000Z</time></trkpt><trkpt lon="6.048236" lat="51.09825"><ele>32</ele><time>2022-05-22T07:16:49.000Z</time></trkpt><trkpt lon="6.048319" lat="51.098294"><ele>32.4</ele><time>2022-05-22T07:16:50.000Z</time></trkpt><trkpt lon="6.048411" lat="51.098345"><ele>32.6</ele><time>2022-05-22T07:16:51.000Z</time></trkpt><trkpt lon="6.048503" lat="51.098395"><ele>33</ele><time>2022-05-22T07:16:52.000Z</time></trkpt><trkpt lon="6.048591" lat="51.098441"><ele>33</ele><time>2022-05-22T07:16:53.000Z</time></trkpt><trkpt lon="6.04868" lat="51.098487"><ele>33</ele><time>2022-05-22T07:16:54.000Z</time></trkpt><trkpt lon="6.048767" lat="51.098533"><ele>32.6</ele><time>2022-05-22T07:16:55.000Z</time></trkpt><trkpt lon="6.048849" lat="51.098582"><ele>32.4</ele><time>2022-05-22T07:16:56.000Z</time></trkpt><trkpt lon="6.048928" lat="51.098634"><ele>32.2</ele><time>2022-05-22T07:16:57.000Z</time></trkpt><trkpt lon="6.049007" lat="51.098687"><ele>32</ele><time>2022-05-22T07:16:58.000Z</time></trkpt><trkpt lon="6.049091" lat="51.098742"><ele>31.8</ele><time>2022-05-22T07:16:59.000Z</time></trkpt><trkpt lon="6.049172" lat="51.098792"><ele>31.8</ele><time>2022-05-22T07:17:00.000Z</time></trkpt><trkpt lon="6.049255" lat="51.098845"><ele>31.6</ele><time>2022-05-22T07:17:01.000Z</time></trkpt><trkpt lon="6.049335" lat="51.098899"><ele>31.4</ele><time>2022-05-22T07:17:02.000Z</time></trkpt><trkpt lon="6.049416" lat="51.098952"><ele>31.4</ele><time>2022-05-22T07:17:03.000Z</time></trkpt><trkpt lon="6.049499" lat="51.099006"><ele>31.2</ele><time>2022-05-22T07:17:04.000Z</time></trkpt><trkpt lon="6.049578" lat="51.099059"><ele>31.2</ele><time>2022-05-22T07:17:05.000Z</time></trkpt><trkpt lon="6.049658" lat="51.099108"><ele>31.2</ele><time>2022-05-22T07:17:06.000Z</time></trkpt><trkpt lon="6.049736" lat="51.099161"><ele>31</ele><time>2022-05-22T07:17:07.000Z</time></trkpt><trkpt lon="6.049815" lat="51.099214"><ele>31</ele><time>2022-05-22T07:17:08.000Z</time></trkpt><trkpt lon="6.049897" lat="51.099269"><ele>31</ele><time>2022-05-22T07:17:09.000Z</time></trkpt><trkpt lon="6.049978" lat="51.099322"><ele>31</ele><time>2022-05-22T07:17:10.000Z</time></trkpt><trkpt lon="6.050051" lat="51.099368"><ele>31</ele><time>2022-05-22T07:17:11.000Z</time></trkpt><trkpt lon="6.050127" lat="51.099418"><ele>31</ele><time>2022-05-22T07:17:12.000Z</time></trkpt><trkpt lon="6.050209" lat="51.099475"><ele>31</ele><time>2022-05-22T07:17:13.000Z</time></trkpt><trkpt lon="6.050293" lat="51.099532"><ele>30.8</ele><time>2022-05-22T07:17:14.000Z</time></trkpt><trkpt lon="6.050375" lat="51.099585"><ele>30.8</ele><time>2022-05-22T07:17:15.000Z</time></trkpt><trkpt lon="6.050457" lat="51.099635"><ele>30.8</ele><time>2022-05-22T07:17:16.000Z</time></trkpt><trkpt lon="6.050539" lat="51.099688"><ele>30.8</ele><time>2022-05-22T07:17:17.000Z</time></trkpt><trkpt lon="6.050625" lat="51.099742"><ele>30.6</ele><time>2022-05-22T07:17:18.000Z</time></trkpt><trkpt lon="6.050708" lat="51.099795"><ele>30.4</ele><time>2022-05-22T07:17:19.000Z</time></trkpt><trkpt lon="6.050789" lat="51.099848"><ele>30.2</ele><time>2022-05-22T07:17:20.000Z</time></trkpt><trkpt lon="6.050873" lat="51.099902"><ele>30.2</ele><time>2022-05-22T07:17:21.000Z</time></trkpt><trkpt lon="6.05095" lat="51.099952"><ele>30</ele><time>2022-05-22T07:17:22.000Z</time></trkpt><trkpt lon="6.051038" lat="51.100009"><ele>30</ele><time>2022-05-22T07:17:23.000Z</time></trkpt><trkpt lon="6.05112" lat="51.100062"><ele>30</ele><time>2022-05-22T07:17:24.000Z</time></trkpt><trkpt lon="6.051201" lat="51.100116"><ele>30</ele><time>2022-05-22T07:17:25.000Z</time></trkpt><trkpt lon="6.051283" lat="51.100169"><ele>30</ele><time>2022-05-22T07:17:26.000Z</time></trkpt><trkpt lon="6.051363" lat="51.100222"><ele>30</ele><time>2022-05-22T07:17:27.000Z</time></trkpt><trkpt lon="6.05144" lat="51.100272"><ele>30</ele><time>2022-05-22T07:17:28.000Z</time></trkpt><trkpt lon="6.051522" lat="51.100325"><ele>30</ele><time>2022-05-22T07:17:29.000Z</time></trkpt><trkpt lon="6.051602" lat="51.100378"><ele>30</ele><time>2022-05-22T07:17:30.000Z</time></trkpt><trkpt lon="6.051681" lat="51.100432"><ele>30</ele><time>2022-05-22T07:17:31.000Z</time></trkpt><trkpt lon="6.05176" lat="51.100482"><ele>30</ele><time>2022-05-22T07:17:32.000Z</time></trkpt><trkpt lon="6.051835" lat="51.100534"><ele>30</ele><time>2022-05-22T07:17:33.000Z</time></trkpt><trkpt lon="6.051913" lat="51.100585"><ele>30</ele><time>2022-05-22T07:17:34.000Z</time></trkpt><trkpt lon="6.051992" lat="51.100634"><ele>30</ele><time>2022-05-22T07:17:35.000Z</time></trkpt><trkpt lon="6.052071" lat="51.100683"><ele>30</ele><time>2022-05-22T07:17:36.000Z</time></trkpt><trkpt lon="6.052153" lat="51.100737"><ele>30.2</ele><time>2022-05-22T07:17:37.000Z</time></trkpt><trkpt lon="6.05223" lat="51.100786"><ele>30.2</ele><time>2022-05-22T07:17:38.000Z</time></trkpt><trkpt lon="6.052308" lat="51.10084"><ele>30.2</ele><time>2022-05-22T07:17:39.000Z</time></trkpt><trkpt lon="6.052385" lat="51.100897"><ele>30.4</ele><time>2022-05-22T07:17:40.000Z</time></trkpt><trkpt lon="6.052458" lat="51.10095"><ele>30.4</ele><time>2022-05-22T07:17:41.000Z</time></trkpt><trkpt lon="6.052531" lat="51.101004"><ele>30.4</ele><time>2022-05-22T07:17:42.000Z</time></trkpt><trkpt lon="6.052593" lat="51.101051"><ele>30.4</ele><time>2022-05-22T07:17:43.000Z</time></trkpt><trkpt lon="6.052667" lat="51.101104"><ele>30.2</ele><time>2022-05-22T07:17:44.000Z</time></trkpt><trkpt lon="6.052737" lat="51.101152"><ele>30.4</ele><time>2022-05-22T07:17:45.000Z</time></trkpt><trkpt lon="6.052809" lat="51.101203"><ele>30.2</ele><time>2022-05-22T07:17:46.000Z</time></trkpt><trkpt lon="6.052867" lat="51.101248"><ele>30.2</ele><time>2022-05-22T07:17:47.000Z</time></trkpt><trkpt lon="6.052933" lat="51.10129"><ele>30.2</ele><time>2022-05-22T07:17:48.000Z</time></trkpt><trkpt lon="6.052997" lat="51.101329"><ele>30.2</ele><time>2022-05-22T07:17:49.000Z</time></trkpt><trkpt lon="6.053072" lat="51.101371"><ele>30.2</ele><time>2022-05-22T07:17:50.000Z</time></trkpt><trkpt lon="6.053145" lat="51.101417"><ele>30.2</ele><time>2022-05-22T07:17:51.000Z</time></trkpt><trkpt lon="6.053213" lat="51.101466"><ele>30.2</ele><time>2022-05-22T07:17:52.000Z</time></trkpt><trkpt lon="6.053284" lat="51.101516"><ele>30.2</ele><time>2022-05-22T07:17:53.000Z</time></trkpt><trkpt lon="6.053347" lat="51.101557"><ele>30</ele><time>2022-05-22T07:17:54.000Z</time></trkpt><trkpt lon="6.053423" lat="51.101607"><ele>30</ele><time>2022-05-22T07:17:55.000Z</time></trkpt><trkpt lon="6.053495" lat="51.101657"><ele>30</ele><time>2022-05-22T07:17:56.000Z</time></trkpt><trkpt lon="6.053562" lat="51.101703"><ele>30</ele><time>2022-05-22T07:17:57.000Z</time></trkpt><trkpt lon="6.053629" lat="51.101752"><ele>30</ele><time>2022-05-22T07:17:58.000Z</time></trkpt><trkpt lon="6.053703" lat="51.101802"><ele>30</ele><time>2022-05-22T07:17:59.000Z</time></trkpt><trkpt lon="6.053781" lat="51.101854"><ele>30</ele><time>2022-05-22T07:18:00.000Z</time></trkpt><trkpt lon="6.053861" lat="51.101908"><ele>30</ele><time>2022-05-22T07:18:01.000Z</time></trkpt><trkpt lon="6.053939" lat="51.101957"><ele>30</ele><time>2022-05-22T07:18:02.000Z</time></trkpt><trkpt lon="6.054026" lat="51.102011"><ele>30</ele><time>2022-05-22T07:18:03.000Z</time></trkpt><trkpt lon="6.05411" lat="51.102065"><ele>30.2</ele><time>2022-05-22T07:18:04.000Z</time></trkpt><trkpt lon="6.05419" lat="51.102111"><ele>30.2</ele><time>2022-05-22T07:18:05.000Z</time></trkpt><trkpt lon="6.054283" lat="51.102164"><ele>30.2</ele><time>2022-05-22T07:18:06.000Z</time></trkpt><trkpt lon="6.054376" lat="51.102213"><ele>30.2</ele><time>2022-05-22T07:18:07.000Z</time></trkpt><trkpt lon="6.054465" lat="51.102266"><ele>30.2</ele><time>2022-05-22T07:18:08.000Z</time></trkpt><trkpt lon="6.054555" lat="51.102319"><ele>30.2</ele><time>2022-05-22T07:18:09.000Z</time></trkpt><trkpt lon="6.05464" lat="51.10237"><ele>30.2</ele><time>2022-05-22T07:18:10.000Z</time></trkpt><trkpt lon="6.054723" lat="51.10242"><ele>30.2</ele><time>2022-05-22T07:18:11.000Z</time></trkpt><trkpt lon="6.054799" lat="51.102469"><ele>30.2</ele><time>2022-05-22T07:18:12.000Z</time></trkpt><trkpt lon="6.054878" lat="51.102523"><ele>30</ele><time>2022-05-22T07:18:13.000Z</time></trkpt><trkpt lon="6.054963" lat="51.102576"><ele>30</ele><time>2022-05-22T07:18:14.000Z</time></trkpt><trkpt lon="6.055044" lat="51.102627"><ele>30</ele><time>2022-05-22T07:18:15.000Z</time></trkpt><trkpt lon="6.055133" lat="51.102678"><ele>30</ele><time>2022-05-22T07:18:16.000Z</time></trkpt><trkpt lon="6.055227" lat="51.102725"><ele>30</ele><time>2022-05-22T07:18:17.000Z</time></trkpt><trkpt lon="6.055326" lat="51.102771"><ele>30</ele><time>2022-05-22T07:18:18.000Z</time></trkpt><trkpt lon="6.055421" lat="51.102808"><ele>29.8</ele><time>2022-05-22T07:18:19.000Z</time></trkpt><trkpt lon="6.055524" lat="51.102851"><ele>29.8</ele><time>2022-05-22T07:18:20.000Z</time></trkpt><trkpt lon="6.055626" lat="51.102892"><ele>29.6</ele><time>2022-05-22T07:18:21.000Z</time></trkpt><trkpt lon="6.05573" lat="51.102935"><ele>29.6</ele><time>2022-05-22T07:18:22.000Z</time></trkpt><trkpt lon="6.055829" lat="51.102976"><ele>29.6</ele><time>2022-05-22T07:18:23.000Z</time></trkpt><trkpt lon="6.055933" lat="51.103019"><ele>29.8</ele><time>2022-05-22T07:18:24.000Z</time></trkpt><trkpt lon="6.056028" lat="51.10306"><ele>29.8</ele><time>2022-05-22T07:18:25.000Z</time></trkpt><trkpt lon="6.05613" lat="51.103099"><ele>29.8</ele><time>2022-05-22T07:18:26.000Z</time></trkpt><trkpt lon="6.056232" lat="51.103141"><ele>29.8</ele><time>2022-05-22T07:18:27.000Z</time></trkpt><trkpt lon="6.056334" lat="51.103179"><ele>29.8</ele><time>2022-05-22T07:18:28.000Z</time></trkpt><trkpt lon="6.05644" lat="51.103217"><ele>29.8</ele><time>2022-05-22T07:18:29.000Z</time></trkpt><trkpt lon="6.056542" lat="51.103251"><ele>29.8</ele><time>2022-05-22T07:18:30.000Z</time></trkpt><trkpt lon="6.056645" lat="51.103289"><ele>29.8</ele><time>2022-05-22T07:18:31.000Z</time></trkpt><trkpt lon="6.056744" lat="51.103327"><ele>29.8</ele><time>2022-05-22T07:18:32.000Z</time></trkpt><trkpt lon="6.056849" lat="51.103366"><ele>29.8</ele><time>2022-05-22T07:18:33.000Z</time></trkpt><trkpt lon="6.056952" lat="51.103404"><ele>29.8</ele><time>2022-05-22T07:18:34.000Z</time></trkpt><trkpt lon="6.057051" lat="51.103438"><ele>29.8</ele><time>2022-05-22T07:18:35.000Z</time></trkpt><trkpt lon="6.057144" lat="51.103471"><ele>29.8</ele><time>2022-05-22T07:18:36.000Z</time></trkpt><trkpt lon="6.057246" lat="51.103511"><ele>29.8</ele><time>2022-05-22T07:18:37.000Z</time></trkpt><trkpt lon="6.057344" lat="51.103549"><ele>29.8</ele><time>2022-05-22T07:18:38.000Z</time></trkpt><trkpt lon="6.057442" lat="51.103587"><ele>29.8</ele><time>2022-05-22T07:18:39.000Z</time></trkpt><trkpt lon="6.057538" lat="51.103621"><ele>29.6</ele><time>2022-05-22T07:18:40.000Z</time></trkpt><trkpt lon="6.05764" lat="51.103655"><ele>29.6</ele><time>2022-05-22T07:18:41.000Z</time></trkpt><trkpt lon="6.05775" lat="51.103683"><ele>29.6</ele><time>2022-05-22T07:18:42.000Z</time></trkpt><trkpt lon="6.057859" lat="51.103702"><ele>29.6</ele><time>2022-05-22T07:18:43.000Z</time></trkpt><trkpt lon="6.057972" lat="51.103721"><ele>29.6</ele><time>2022-05-22T07:18:44.000Z</time></trkpt><trkpt lon="6.058082" lat="51.103737"><ele>29.6</ele><time>2022-05-22T07:18:45.000Z</time></trkpt><trkpt lon="6.058192" lat="51.103748"><ele>29.6</ele><time>2022-05-22T07:18:46.000Z</time></trkpt><trkpt lon="6.058297" lat="51.103763"><ele>29.6</ele><time>2022-05-22T07:18:47.000Z</time></trkpt><trkpt lon="6.05841" lat="51.103778"><ele>29.6</ele><time>2022-05-22T07:18:48.000Z</time></trkpt><trkpt lon="6.058519" lat="51.10379"><ele>29.8</ele><time>2022-05-22T07:18:49.000Z</time></trkpt><trkpt lon="6.058626" lat="51.103801"><ele>29.8</ele><time>2022-05-22T07:18:50.000Z</time></trkpt><trkpt lon="6.058734" lat="51.103805"><ele>29.8</ele><time>2022-05-22T07:18:51.000Z</time></trkpt><trkpt lon="6.05884" lat="51.10382"><ele>29.8</ele><time>2022-05-22T07:18:52.000Z</time></trkpt><trkpt lon="6.058951" lat="51.103839"><ele>29.6</ele><time>2022-05-22T07:18:53.000Z</time></trkpt><trkpt lon="6.059062" lat="51.103862"><ele>29.6</ele><time>2022-05-22T07:18:54.000Z</time></trkpt><trkpt lon="6.05917" lat="51.103881"><ele>29.6</ele><time>2022-05-22T07:18:55.000Z</time></trkpt><trkpt lon="6.059286" lat="51.103896"><ele>29.6</ele><time>2022-05-22T07:18:56.000Z</time></trkpt><trkpt lon="6.059403" lat="51.103912"><ele>29.8</ele><time>2022-05-22T07:18:57.000Z</time></trkpt><trkpt lon="6.059513" lat="51.103927"><ele>30</ele><time>2022-05-22T07:18:58.000Z</time></trkpt><trkpt lon="6.059628" lat="51.103943"><ele>30</ele><time>2022-05-22T07:18:59.000Z</time></trkpt><trkpt lon="6.059739" lat="51.103958"><ele>30</ele><time>2022-05-22T07:19:00.000Z</time></trkpt><trkpt lon="6.059851" lat="51.103973"><ele>30</ele><time>2022-05-22T07:19:01.000Z</time></trkpt><trkpt lon="6.05996" lat="51.103988"><ele>30</ele><time>2022-05-22T07:19:02.000Z</time></trkpt><trkpt lon="6.060069" lat="51.104004"><ele>30</ele><time>2022-05-22T07:19:03.000Z</time></trkpt><trkpt lon="6.060174" lat="51.104018"><ele>30.2</ele><time>2022-05-22T07:19:04.000Z</time></trkpt><trkpt lon="6.06029" lat="51.104034"><ele>30.2</ele><time>2022-05-22T07:19:05.000Z</time></trkpt><trkpt lon="6.060397" lat="51.104049"><ele>30.2</ele><time>2022-05-22T07:19:06.000Z</time></trkpt><trkpt lon="6.060511" lat="51.104061"><ele>30.2</ele><time>2022-05-22T07:19:07.000Z</time></trkpt><trkpt lon="6.060622" lat="51.104076"><ele>30.4</ele><time>2022-05-22T07:19:08.000Z</time></trkpt><trkpt lon="6.060735" lat="51.104091"><ele>30.4</ele><time>2022-05-22T07:19:09.000Z</time></trkpt><trkpt lon="6.060845" lat="51.104103"><ele>30.4</ele><time>2022-05-22T07:19:10.000Z</time></trkpt><trkpt lon="6.06095" lat="51.104117"><ele>30.4</ele><time>2022-05-22T07:19:11.000Z</time></trkpt><trkpt lon="6.061066" lat="51.104129"><ele>30.4</ele><time>2022-05-22T07:19:12.000Z</time></trkpt><trkpt lon="6.061178" lat="51.104145"><ele>30.4</ele><time>2022-05-22T07:19:13.000Z</time></trkpt><trkpt lon="6.061289" lat="51.104156"><ele>30.6</ele><time>2022-05-22T07:19:14.000Z</time></trkpt><trkpt lon="6.061403" lat="51.104171"><ele>30.6</ele><time>2022-05-22T07:19:15.000Z</time></trkpt><trkpt lon="6.061518" lat="51.104187"><ele>30.6</ele><time>2022-05-22T07:19:16.000Z</time></trkpt><trkpt lon="6.061631" lat="51.104198"><ele>30.6</ele><time>2022-05-22T07:19:17.000Z</time></trkpt><trkpt lon="6.061746" lat="51.10421"><ele>30.8</ele><time>2022-05-22T07:19:18.000Z</time></trkpt><trkpt lon="6.06186" lat="51.104225"><ele>30.6</ele><time>2022-05-22T07:19:19.000Z</time></trkpt><trkpt lon="6.061973" lat="51.104233"><ele>30.4</ele><time>2022-05-22T07:19:20.000Z</time></trkpt><trkpt lon="6.062084" lat="51.10424"><ele>30.6</ele><time>2022-05-22T07:19:21.000Z</time></trkpt><trkpt lon="6.062194" lat="51.104252"><ele>30.4</ele><time>2022-05-22T07:19:22.000Z</time></trkpt><trkpt lon="6.062303" lat="51.104263"><ele>30.4</ele><time>2022-05-22T07:19:23.000Z</time></trkpt><trkpt lon="6.062412" lat="51.104274"><ele>30.6</ele><time>2022-05-22T07:19:24.000Z</time></trkpt><trkpt lon="6.062522" lat="51.104282"><ele>30.8</ele><time>2022-05-22T07:19:25.000Z</time></trkpt><trkpt lon="6.062629" lat="51.10429"><ele>30.8</ele><time>2022-05-22T07:19:26.000Z</time></trkpt><trkpt lon="6.062737" lat="51.104301"><ele>30.8</ele><time>2022-05-22T07:19:27.000Z</time></trkpt><trkpt lon="6.062839" lat="51.104309"><ele>30.8</ele><time>2022-05-22T07:19:28.000Z</time></trkpt><trkpt lon="6.062954" lat="51.104316"><ele>30.8</ele><time>2022-05-22T07:19:29.000Z</time></trkpt><trkpt lon="6.063069" lat="51.10432"><ele>30.8</ele><time>2022-05-22T07:19:30.000Z</time></trkpt><trkpt lon="6.063181" lat="51.104324"><ele>30.6</ele><time>2022-05-22T07:19:31.000Z</time></trkpt><trkpt lon="6.063291" lat="51.104328"><ele>30.4</ele><time>2022-05-22T07:19:32.000Z</time></trkpt><trkpt lon="6.063402" lat="51.104332"><ele>30.6</ele><time>2022-05-22T07:19:33.000Z</time></trkpt><trkpt lon="6.063513" lat="51.104336"><ele>30.6</ele><time>2022-05-22T07:19:34.000Z</time></trkpt><trkpt lon="6.063625" lat="51.104336"><ele>30.6</ele><time>2022-05-22T07:19:35.000Z</time></trkpt><trkpt lon="6.063739" lat="51.10434"><ele>30.6</ele><time>2022-05-22T07:19:36.000Z</time></trkpt><trkpt lon="6.063851" lat="51.104343"><ele>30.6</ele><time>2022-05-22T07:19:37.000Z</time></trkpt><trkpt lon="6.063958" lat="51.104347"><ele>30.6</ele><time>2022-05-22T07:19:38.000Z</time></trkpt><trkpt lon="6.064073" lat="51.104351"><ele>30.6</ele><time>2022-05-22T07:19:39.000Z</time></trkpt><trkpt lon="6.064181" lat="51.104351"><ele>30.4</ele><time>2022-05-22T07:19:40.000Z</time></trkpt><trkpt lon="6.064291" lat="51.104355"><ele>30.6</ele><time>2022-05-22T07:19:41.000Z</time></trkpt><trkpt lon="6.064403" lat="51.104355"><ele>30.6</ele><time>2022-05-22T07:19:42.000Z</time></trkpt><trkpt lon="6.064514" lat="51.104355"><ele>30.6</ele><time>2022-05-22T07:19:43.000Z</time></trkpt><trkpt lon="6.064625" lat="51.104359"><ele>30.6</ele><time>2022-05-22T07:19:44.000Z</time></trkpt><trkpt lon="6.064735" lat="51.104359"><ele>30.4</ele><time>2022-05-22T07:19:45.000Z</time></trkpt><trkpt lon="6.064849" lat="51.104359"><ele>30.4</ele><time>2022-05-22T07:19:46.000Z</time></trkpt><trkpt lon="6.064961" lat="51.104359"><ele>30.4</ele><time>2022-05-22T07:19:47.000Z</time></trkpt><trkpt lon="6.065069" lat="51.104359"><ele>30.4</ele><time>2022-05-22T07:19:48.000Z</time></trkpt><trkpt lon="6.065184" lat="51.104362"><ele>30.4</ele><time>2022-05-22T07:19:49.000Z</time></trkpt><trkpt lon="6.065294" lat="51.104362"><ele>30.6</ele><time>2022-05-22T07:19:50.000Z</time></trkpt><trkpt lon="6.065404" lat="51.104362"><ele>30.8</ele><time>2022-05-22T07:19:51.000Z</time></trkpt><trkpt lon="6.065515" lat="51.104362"><ele>31</ele><time>2022-05-22T07:19:52.000Z</time></trkpt><trkpt lon="6.065624" lat="51.104366"><ele>31</ele><time>2022-05-22T07:19:53.000Z</time></trkpt><trkpt lon="6.065732" lat="51.104366"><ele>31</ele><time>2022-05-22T07:19:54.000Z</time></trkpt><trkpt lon="6.065841" lat="51.104366"><ele>30.8</ele><time>2022-05-22T07:19:55.000Z</time></trkpt><trkpt lon="6.065951" lat="51.10437"><ele>30.8</ele><time>2022-05-22T07:19:56.000Z</time></trkpt><trkpt lon="6.066061" lat="51.10437"><ele>30.8</ele><time>2022-05-22T07:19:57.000Z</time></trkpt><trkpt lon="6.066169" lat="51.104374"><ele>30.8</ele><time>2022-05-22T07:19:58.000Z</time></trkpt><trkpt lon="6.066277" lat="51.104374"><ele>31</ele><time>2022-05-22T07:19:59.000Z</time></trkpt><trkpt lon="6.066387" lat="51.104378"><ele>30.8</ele><time>2022-05-22T07:20:00.000Z</time></trkpt><trkpt lon="6.066499" lat="51.104378"><ele>30.8</ele><time>2022-05-22T07:20:01.000Z</time></trkpt><trkpt lon="6.066606" lat="51.104381"><ele>30.8</ele><time>2022-05-22T07:20:02.000Z</time></trkpt><trkpt lon="6.066718" lat="51.104385"><ele>30.8</ele><time>2022-05-22T07:20:03.000Z</time></trkpt><trkpt lon="6.066829" lat="51.104397"><ele>30.8</ele><time>2022-05-22T07:20:04.000Z</time></trkpt><trkpt lon="6.066937" lat="51.104419"><ele>30.8</ele><time>2022-05-22T07:20:05.000Z</time></trkpt><trkpt lon="6.067043" lat="51.104449"><ele>30.8</ele><time>2022-05-22T07:20:06.000Z</time></trkpt><trkpt lon="6.067143" lat="51.10448"><ele>30.8</ele><time>2022-05-22T07:20:07.000Z</time></trkpt><trkpt lon="6.067235" lat="51.104512"><ele>30.8</ele><time>2022-05-22T07:20:08.000Z</time></trkpt><trkpt lon="6.06734" lat="51.104549"><ele>30.8</ele><time>2022-05-22T07:20:09.000Z</time></trkpt><trkpt lon="6.067436" lat="51.104579"><ele>31</ele><time>2022-05-22T07:20:10.000Z</time></trkpt><trkpt lon="6.067534" lat="51.104613"><ele>31</ele><time>2022-05-22T07:20:11.000Z</time></trkpt><trkpt lon="6.067634" lat="51.104644"><ele>31</ele><time>2022-05-22T07:20:12.000Z</time></trkpt><trkpt lon="6.067733" lat="51.104678"><ele>31.2</ele><time>2022-05-22T07:20:13.000Z</time></trkpt><trkpt lon="6.06783" lat="51.104713"><ele>31.2</ele><time>2022-05-22T07:20:14.000Z</time></trkpt><trkpt lon="6.067924" lat="51.104743"><ele>31.2</ele><time>2022-05-22T07:20:15.000Z</time></trkpt><trkpt lon="6.068016" lat="51.104777"><ele>31</ele><time>2022-05-22T07:20:16.000Z</time></trkpt><trkpt lon="6.068107" lat="51.104804"><ele>31</ele><time>2022-05-22T07:20:17.000Z</time></trkpt><trkpt lon="6.068188" lat="51.104835"><ele>31</ele><time>2022-05-22T07:20:18.000Z</time></trkpt><trkpt lon="6.068258" lat="51.104857"><ele>31.2</ele><time>2022-05-22T07:20:19.000Z</time></trkpt><trkpt lon="6.068319" lat="51.104877"><ele>31.4</ele><time>2022-05-22T07:20:20.000Z</time></trkpt><trkpt lon="6.068366" lat="51.104896"><ele>31.4</ele><time>2022-05-22T07:20:21.000Z</time></trkpt><trkpt lon="6.068396" lat="51.104904"><ele>31.4</ele><time>2022-05-22T07:20:22.000Z</time></trkpt><trkpt lon="6.068417" lat="51.104912"><ele>31.8</ele><time>2022-05-22T07:20:50.000Z</time></trkpt><trkpt lon="6.068436" lat="51.104923"><ele>31.8</ele><time>2022-05-22T07:20:51.000Z</time></trkpt><trkpt lon="6.068469" lat="51.104938"><ele>31.8</ele><time>2022-05-22T07:20:52.000Z</time></trkpt><trkpt lon="6.068513" lat="51.104953"><ele>31.8</ele><time>2022-05-22T07:20:53.000Z</time></trkpt><trkpt lon="6.068562" lat="51.104976"><ele>31.8</ele><time>2022-05-22T07:20:54.000Z</time></trkpt><trkpt lon="6.068612" lat="51.104999"><ele>31.8</ele><time>2022-05-22T07:20:55.000Z</time></trkpt><trkpt lon="6.068672" lat="51.105029"><ele>31.6</ele><time>2022-05-22T07:20:56.000Z</time></trkpt><trkpt lon="6.06874" lat="51.10506"><ele>31.4</ele><time>2022-05-22T07:20:57.000Z</time></trkpt><trkpt lon="6.068807" lat="51.10509"><ele>31.4</ele><time>2022-05-22T07:20:58.000Z</time></trkpt><trkpt lon="6.06888" lat="51.105121"><ele>31.4</ele><time>2022-05-22T07:20:59.000Z</time></trkpt><trkpt lon="6.068956" lat="51.105152"><ele>31.4</ele><time>2022-05-22T07:21:00.000Z</time></trkpt><trkpt lon="6.069034" lat="51.105182"><ele>31.4</ele><time>2022-05-22T07:21:01.000Z</time></trkpt><trkpt lon="6.069112" lat="51.105213"><ele>31.4</ele><time>2022-05-22T07:21:02.000Z</time></trkpt><trkpt lon="6.06919" lat="51.105243"><ele>31.4</ele><time>2022-05-22T07:21:03.000Z</time></trkpt><trkpt lon="6.069268" lat="51.105277"><ele>31.4</ele><time>2022-05-22T07:21:04.000Z</time></trkpt><trkpt lon="6.069348" lat="51.105311"><ele>31.4</ele><time>2022-05-22T07:21:05.000Z</time></trkpt><trkpt lon="6.069434" lat="51.105345"><ele>31.4</ele><time>2022-05-22T07:21:06.000Z</time></trkpt><trkpt lon="6.06952" lat="51.10538"><ele>31.2</ele><time>2022-05-22T07:21:07.000Z</time></trkpt><trkpt lon="6.069604" lat="51.10541"><ele>31.2</ele><time>2022-05-22T07:21:08.000Z</time></trkpt><trkpt lon="6.069682" lat="51.105438"><ele>31.2</ele><time>2022-05-22T07:21:09.000Z</time></trkpt><trkpt lon="6.069775" lat="51.105474"><ele>31.2</ele><time>2022-05-22T07:21:10.000Z</time></trkpt><trkpt lon="6.069862" lat="51.105509"><ele>31.2</ele><time>2022-05-22T07:21:11.000Z</time></trkpt><trkpt lon="6.06995" lat="51.105544"><ele>31.2</ele><time>2022-05-22T07:21:12.000Z</time></trkpt><trkpt lon="6.07003" lat="51.105577"><ele>31.4</ele><time>2022-05-22T07:21:13.000Z</time></trkpt><trkpt lon="6.070114" lat="51.105612"><ele>31.4</ele><time>2022-05-22T07:21:14.000Z</time></trkpt><trkpt lon="6.070203" lat="51.105647"><ele>31.2</ele><time>2022-05-22T07:21:15.000Z</time></trkpt><trkpt lon="6.070292" lat="51.105682"><ele>31</ele><time>2022-05-22T07:21:16.000Z</time></trkpt><trkpt lon="6.070381" lat="51.105716"><ele>31</ele><time>2022-05-22T07:21:17.000Z</time></trkpt><trkpt lon="6.070453" lat="51.105747"><ele>31</ele><time>2022-05-22T07:21:18.000Z</time></trkpt><trkpt lon="6.070534" lat="51.105783"><ele>31</ele><time>2022-05-22T07:21:19.000Z</time></trkpt><trkpt lon="6.070641" lat="51.10583"><ele>31</ele><time>2022-05-22T07:21:20.000Z</time></trkpt><trkpt lon="6.070728" lat="51.105864"><ele>31</ele><time>2022-05-22T07:21:21.000Z</time></trkpt><trkpt lon="6.070817" lat="51.105903"><ele>31</ele><time>2022-05-22T07:21:22.000Z</time></trkpt><trkpt lon="6.070904" lat="51.105941"><ele>31.2</ele><time>2022-05-22T07:21:23.000Z</time></trkpt><trkpt lon="6.070991" lat="51.105978"><ele>31.2</ele><time>2022-05-22T07:21:24.000Z</time></trkpt><trkpt lon="6.071082" lat="51.106017"><ele>31</ele><time>2022-05-22T07:21:25.000Z</time></trkpt><trkpt lon="6.071169" lat="51.106055"><ele>31</ele><time>2022-05-22T07:21:26.000Z</time></trkpt><trkpt lon="6.071255" lat="51.106093"><ele>31</ele><time>2022-05-22T07:21:27.000Z</time></trkpt><trkpt lon="6.071342" lat="51.106128"><ele>31</ele><time>2022-05-22T07:21:28.000Z</time></trkpt><trkpt lon="6.071435" lat="51.106166"><ele>31</ele><time>2022-05-22T07:21:29.000Z</time></trkpt><trkpt lon="6.071523" lat="51.106204"><ele>31</ele><time>2022-05-22T07:21:30.000Z</time></trkpt><trkpt lon="6.07161" lat="51.106242"><ele>31</ele><time>2022-05-22T07:21:31.000Z</time></trkpt><trkpt lon="6.071693" lat="51.106279"><ele>31</ele><time>2022-05-22T07:21:32.000Z</time></trkpt><trkpt lon="6.071776" lat="51.106316"><ele>31.2</ele><time>2022-05-22T07:21:33.000Z</time></trkpt><trkpt lon="6.071864" lat="51.106355"><ele>31.4</ele><time>2022-05-22T07:21:34.000Z</time></trkpt><trkpt lon="6.071948" lat="51.106394"><ele>31.4</ele><time>2022-05-22T07:21:35.000Z</time></trkpt><trkpt lon="6.072032" lat="51.106433"><ele>31.4</ele><time>2022-05-22T07:21:36.000Z</time></trkpt><trkpt lon="6.072115" lat="51.106471"><ele>31.6</ele><time>2022-05-22T07:21:37.000Z</time></trkpt><trkpt lon="6.072198" lat="51.106506"><ele>31.8</ele><time>2022-05-22T07:21:38.000Z</time></trkpt><trkpt lon="6.072276" lat="51.106539"><ele>32</ele><time>2022-05-22T07:21:39.000Z</time></trkpt><trkpt lon="6.072358" lat="51.106573"><ele>32</ele><time>2022-05-22T07:21:40.000Z</time></trkpt><trkpt lon="6.072435" lat="51.106612"><ele>32</ele><time>2022-05-22T07:21:41.000Z</time></trkpt><trkpt lon="6.072512" lat="51.106654"><ele>32</ele><time>2022-05-22T07:21:42.000Z</time></trkpt><trkpt lon="6.072578" lat="51.106703"><ele>32.2</ele><time>2022-05-22T07:21:43.000Z</time></trkpt><trkpt lon="6.072632" lat="51.106757"><ele>32.2</ele><time>2022-05-22T07:21:44.000Z</time></trkpt><trkpt lon="6.072673" lat="51.106813"><ele>32.4</ele><time>2022-05-22T07:21:45.000Z</time></trkpt><trkpt lon="6.072706" lat="51.106879"><ele>32.6</ele><time>2022-05-22T07:21:46.000Z</time></trkpt><trkpt lon="6.072734" lat="51.10694"><ele>32.6</ele><time>2022-05-22T07:21:47.000Z</time></trkpt><trkpt lon="6.072761" lat="51.107"><ele>32.6</ele><time>2022-05-22T07:21:48.000Z</time></trkpt><trkpt lon="6.072786" lat="51.107066"><ele>32.6</ele><time>2022-05-22T07:21:49.000Z</time></trkpt><trkpt lon="6.072811" lat="51.10713"><ele>32.6</ele><time>2022-05-22T07:21:50.000Z</time></trkpt><trkpt lon="6.072836" lat="51.107195"><ele>32.6</ele><time>2022-05-22T07:21:51.000Z</time></trkpt><trkpt lon="6.072861" lat="51.107264"><ele>32.8</ele><time>2022-05-22T07:21:52.000Z</time></trkpt><trkpt lon="6.072886" lat="51.107329"><ele>32.8</ele><time>2022-05-22T07:21:53.000Z</time></trkpt><trkpt lon="6.072914" lat="51.107393"><ele>33</ele><time>2022-05-22T07:21:54.000Z</time></trkpt><trkpt lon="6.072944" lat="51.107454"><ele>33</ele><time>2022-05-22T07:21:55.000Z</time></trkpt><trkpt lon="6.072984" lat="51.107516"><ele>33.2</ele><time>2022-05-22T07:21:56.000Z</time></trkpt><trkpt lon="6.073031" lat="51.107577"><ele>33.2</ele><time>2022-05-22T07:21:57.000Z</time></trkpt><trkpt lon="6.073082" lat="51.10763"><ele>33</ele><time>2022-05-22T07:21:58.000Z</time></trkpt><trkpt lon="6.073145" lat="51.107683"><ele>33</ele><time>2022-05-22T07:21:59.000Z</time></trkpt><trkpt lon="6.073218" lat="51.10773"><ele>33</ele><time>2022-05-22T07:22:00.000Z</time></trkpt><trkpt lon="6.073298" lat="51.107772"><ele>33</ele><time>2022-05-22T07:22:01.000Z</time></trkpt><trkpt lon="6.073382" lat="51.107814"><ele>33</ele><time>2022-05-22T07:22:02.000Z</time></trkpt><trkpt lon="6.07347" lat="51.107848"><ele>33</ele><time>2022-05-22T07:22:03.000Z</time></trkpt><trkpt lon="6.073558" lat="51.107881"><ele>33</ele><time>2022-05-22T07:22:04.000Z</time></trkpt><trkpt lon="6.073655" lat="51.107916"><ele>33</ele><time>2022-05-22T07:22:05.000Z</time></trkpt><trkpt lon="6.073752" lat="51.107948"><ele>33.2</ele><time>2022-05-22T07:22:06.000Z</time></trkpt><trkpt lon="6.073844" lat="51.107982"><ele>33.2</ele><time>2022-05-22T07:22:07.000Z</time></trkpt><trkpt lon="6.073937" lat="51.108012"><ele>33</ele><time>2022-05-22T07:22:08.000Z</time></trkpt><trkpt lon="6.07403" lat="51.108047"><ele>33.2</ele><time>2022-05-22T07:22:09.000Z</time></trkpt><trkpt lon="6.074123" lat="51.10808"><ele>33.2</ele><time>2022-05-22T07:22:10.000Z</time></trkpt><trkpt lon="6.07422" lat="51.108111"><ele>33.4</ele><time>2022-05-22T07:22:11.000Z</time></trkpt><trkpt lon="6.074313" lat="51.108141"><ele>33.4</ele><time>2022-05-22T07:22:12.000Z</time></trkpt><trkpt lon="6.074411" lat="51.108172"><ele>33.4</ele><time>2022-05-22T07:22:13.000Z</time></trkpt><trkpt lon="6.074508" lat="51.108207"><ele>33.4</ele><time>2022-05-22T07:22:14.000Z</time></trkpt><trkpt lon="6.074606" lat="51.108237"><ele>33.2</ele><time>2022-05-22T07:22:15.000Z</time></trkpt><trkpt lon="6.074703" lat="51.108264"><ele>33.2</ele><time>2022-05-22T07:22:16.000Z</time></trkpt><trkpt lon="6.074798" lat="51.108294"><ele>33</ele><time>2022-05-22T07:22:17.000Z</time></trkpt><trkpt lon="6.07489" lat="51.108324"><ele>33</ele><time>2022-05-22T07:22:18.000Z</time></trkpt><trkpt lon="6.07499" lat="51.108355"><ele>33</ele><time>2022-05-22T07:22:19.000Z</time></trkpt><trkpt lon="6.075086" lat="51.108389"><ele>33</ele><time>2022-05-22T07:22:20.000Z</time></trkpt><trkpt lon="6.07517" lat="51.108417"><ele>33</ele><time>2022-05-22T07:22:21.000Z</time></trkpt><trkpt lon="6.075276" lat="51.10845"><ele>33</ele><time>2022-05-22T07:22:22.000Z</time></trkpt><trkpt lon="6.075365" lat="51.108483"><ele>33</ele><time>2022-05-22T07:22:23.000Z</time></trkpt><trkpt lon="6.075465" lat="51.108516"><ele>33</ele><time>2022-05-22T07:22:24.000Z</time></trkpt><trkpt lon="6.075559" lat="51.10855"><ele>33</ele><time>2022-05-22T07:22:25.000Z</time></trkpt><trkpt lon="6.075655" lat="51.108581"><ele>33</ele><time>2022-05-22T07:22:26.000Z</time></trkpt><trkpt lon="6.075748" lat="51.108615"><ele>33.2</ele><time>2022-05-22T07:22:27.000Z</time></trkpt><trkpt lon="6.075845" lat="51.108649"><ele>33.4</ele><time>2022-05-22T07:22:28.000Z</time></trkpt><trkpt lon="6.075938" lat="51.10868"><ele>33.4</ele><time>2022-05-22T07:22:29.000Z</time></trkpt><trkpt lon="6.07603" lat="51.108713"><ele>33.4</ele><time>2022-05-22T07:22:30.000Z</time></trkpt><trkpt lon="6.076128" lat="51.108745"><ele>33.4</ele><time>2022-05-22T07:22:31.000Z</time></trkpt><trkpt lon="6.076217" lat="51.108774"><ele>33.4</ele><time>2022-05-22T07:22:32.000Z</time></trkpt><trkpt lon="6.076315" lat="51.108805"><ele>33.6</ele><time>2022-05-22T07:22:33.000Z</time></trkpt><trkpt lon="6.076412" lat="51.108839"><ele>33.6</ele><time>2022-05-22T07:22:34.000Z</time></trkpt><trkpt lon="6.076511" lat="51.108871"><ele>33.6</ele><time>2022-05-22T07:22:35.000Z</time></trkpt><trkpt lon="6.076605" lat="51.108905"><ele>33.6</ele><time>2022-05-22T07:22:36.000Z</time></trkpt><trkpt lon="6.076695" lat="51.108938"><ele>33.6</ele><time>2022-05-22T07:22:37.000Z</time></trkpt><trkpt lon="6.07679" lat="51.108969"><ele>33.6</ele><time>2022-05-22T07:22:38.000Z</time></trkpt><trkpt lon="6.076887" lat="51.109"><ele>33.4</ele><time>2022-05-22T07:22:39.000Z</time></trkpt><trkpt lon="6.07698" lat="51.109029"><ele>33.4</ele><time>2022-05-22T07:22:40.000Z</time></trkpt><trkpt lon="6.07708" lat="51.109061"><ele>33.6</ele><time>2022-05-22T07:22:41.000Z</time></trkpt><trkpt lon="6.077176" lat="51.109092"><ele>33.6</ele><time>2022-05-22T07:22:42.000Z</time></trkpt><trkpt lon="6.07727" lat="51.109123"><ele>33.8</ele><time>2022-05-22T07:22:43.000Z</time></trkpt><trkpt lon="6.077356" lat="51.109152"><ele>33.6</ele><time>2022-05-22T07:22:44.000Z</time></trkpt><trkpt lon="6.077449" lat="51.109183"><ele>33.6</ele><time>2022-05-22T07:22:45.000Z</time></trkpt><trkpt lon="6.077537" lat="51.109214"><ele>33.6</ele><time>2022-05-22T07:22:46.000Z</time></trkpt><trkpt lon="6.077622" lat="51.109248"><ele>33.4</ele><time>2022-05-22T07:22:47.000Z</time></trkpt><trkpt lon="6.0777" lat="51.109276"><ele>33.2</ele><time>2022-05-22T07:22:48.000Z</time></trkpt><trkpt lon="6.07779" lat="51.109304"><ele>33.2</ele><time>2022-05-22T07:22:49.000Z</time></trkpt><trkpt lon="6.077881" lat="51.109332"><ele>33</ele><time>2022-05-22T07:22:50.000Z</time></trkpt><trkpt lon="6.077962" lat="51.109359"><ele>33</ele><time>2022-05-22T07:22:51.000Z</time></trkpt><trkpt lon="6.078039" lat="51.109381"><ele>33</ele><time>2022-05-22T07:22:52.000Z</time></trkpt><trkpt lon="6.078122" lat="51.109394"><ele>33.2</ele><time>2022-05-22T07:22:53.000Z</time></trkpt><trkpt lon="6.078197" lat="51.109387"><ele>33.2</ele><time>2022-05-22T07:22:54.000Z</time></trkpt><trkpt lon="6.078262" lat="51.109353"><ele>33.2</ele><time>2022-05-22T07:22:55.000Z</time></trkpt><trkpt lon="6.07832" lat="51.109307"><ele>33.2</ele><time>2022-05-22T07:22:56.000Z</time></trkpt><trkpt lon="6.078379" lat="51.109258"><ele>33</ele><time>2022-05-22T07:22:57.000Z</time></trkpt><trkpt lon="6.078435" lat="51.109205"><ele>33</ele><time>2022-05-22T07:22:58.000Z</time></trkpt><trkpt lon="6.078486" lat="51.109157"><ele>33</ele><time>2022-05-22T07:22:59.000Z</time></trkpt><trkpt lon="6.078534" lat="51.109109"><ele>32.8</ele><time>2022-05-22T07:23:00.000Z</time></trkpt><trkpt lon="6.078573" lat="51.109061"><ele>33</ele><time>2022-05-22T07:23:01.000Z</time></trkpt><trkpt lon="6.078608" lat="51.109018"><ele>33</ele><time>2022-05-22T07:23:02.000Z</time></trkpt><trkpt lon="6.078657" lat="51.108983"><ele>33</ele><time>2022-05-22T07:23:03.000Z</time></trkpt><trkpt lon="6.078732" lat="51.108971"><ele>33</ele><time>2022-05-22T07:23:04.000Z</time></trkpt><trkpt lon="6.078821" lat="51.108974"><ele>33</ele><time>2022-05-22T07:23:05.000Z</time></trkpt><trkpt lon="6.07892" lat="51.108989"><ele>32.8</ele><time>2022-05-22T07:23:06.000Z</time></trkpt><trkpt lon="6.079025" lat="51.109005"><ele>32.6</ele><time>2022-05-22T07:23:07.000Z</time></trkpt><trkpt lon="6.07913" lat="51.109016"><ele>32.8</ele><time>2022-05-22T07:23:08.000Z</time></trkpt><trkpt lon="6.07924" lat="51.109031"><ele>32.6</ele><time>2022-05-22T07:23:09.000Z</time></trkpt><trkpt lon="6.079349" lat="51.109043"><ele>32.6</ele><time>2022-05-22T07:23:10.000Z</time></trkpt><trkpt lon="6.079451" lat="51.109053"><ele>32.6</ele><time>2022-05-22T07:23:11.000Z</time></trkpt><trkpt lon="6.079563" lat="51.109062"><ele>32.4</ele><time>2022-05-22T07:23:12.000Z</time></trkpt><trkpt lon="6.079674" lat="51.109066"><ele>32.2</ele><time>2022-05-22T07:23:13.000Z</time></trkpt><trkpt lon="6.079784" lat="51.109066"><ele>32</ele><time>2022-05-22T07:23:14.000Z</time></trkpt><trkpt lon="6.079892" lat="51.109062"><ele>31.8</ele><time>2022-05-22T07:23:15.000Z</time></trkpt><trkpt lon="6.079998" lat="51.109055"><ele>31.6</ele><time>2022-05-22T07:23:16.000Z</time></trkpt><trkpt lon="6.080109" lat="51.109051"><ele>31.6</ele><time>2022-05-22T07:23:17.000Z</time></trkpt><trkpt lon="6.080219" lat="51.109047"><ele>31.4</ele><time>2022-05-22T07:23:18.000Z</time></trkpt><trkpt lon="6.080334" lat="51.109051"><ele>31.4</ele><time>2022-05-22T07:23:19.000Z</time></trkpt><trkpt lon="6.080449" lat="51.109058"><ele>31.2</ele><time>2022-05-22T07:23:20.000Z</time></trkpt><trkpt lon="6.080561" lat="51.109066"><ele>31.2</ele><time>2022-05-22T07:23:21.000Z</time></trkpt><trkpt lon="6.080673" lat="51.109073"><ele>31</ele><time>2022-05-22T07:23:22.000Z</time></trkpt><trkpt lon="6.080776" lat="51.109084"><ele>30.8</ele><time>2022-05-22T07:23:23.000Z</time></trkpt><trkpt lon="6.080889" lat="51.109096"><ele>30.6</ele><time>2022-05-22T07:23:24.000Z</time></trkpt><trkpt lon="6.081001" lat="51.109108"><ele>30.6</ele><time>2022-05-22T07:23:25.000Z</time></trkpt><trkpt lon="6.081109" lat="51.109119"><ele>30.4</ele><time>2022-05-22T07:23:26.000Z</time></trkpt><trkpt lon="6.081221" lat="51.10913"><ele>30.4</ele><time>2022-05-22T07:23:27.000Z</time></trkpt><trkpt lon="6.081328" lat="51.109145"><ele>30.4</ele><time>2022-05-22T07:23:28.000Z</time></trkpt><trkpt lon="6.081434" lat="51.109161"><ele>30.4</ele><time>2022-05-22T07:23:29.000Z</time></trkpt><trkpt lon="6.081544" lat="51.109176"><ele>30.2</ele><time>2022-05-22T07:23:30.000Z</time></trkpt><trkpt lon="6.081652" lat="51.109188"><ele>30.2</ele><time>2022-05-22T07:23:31.000Z</time></trkpt><trkpt lon="6.081764" lat="51.109203"><ele>30.2</ele><time>2022-05-22T07:23:32.000Z</time></trkpt><trkpt lon="6.081872" lat="51.109214"><ele>30.2</ele><time>2022-05-22T07:23:33.000Z</time></trkpt><trkpt lon="6.081979" lat="51.109233"><ele>30.2</ele><time>2022-05-22T07:23:34.000Z</time></trkpt><trkpt lon="6.082085" lat="51.109249"><ele>30.2</ele><time>2022-05-22T07:23:35.000Z</time></trkpt><trkpt lon="6.082192" lat="51.109271"><ele>30.2</ele><time>2022-05-22T07:23:36.000Z</time></trkpt><trkpt lon="6.082298" lat="51.109294"><ele>30</ele><time>2022-05-22T07:23:37.000Z</time></trkpt><trkpt lon="6.082392" lat="51.109315"><ele>30</ele><time>2022-05-22T07:23:38.000Z</time></trkpt><trkpt lon="6.082506" lat="51.109344"><ele>30</ele><time>2022-05-22T07:23:39.000Z</time></trkpt><trkpt lon="6.082588" lat="51.109365"><ele>30</ele><time>2022-05-22T07:23:40.000Z</time></trkpt><trkpt lon="6.082709" lat="51.109401"><ele>29.8</ele><time>2022-05-22T07:23:41.000Z</time></trkpt><trkpt lon="6.0828" lat="51.109427"><ele>29.8</ele><time>2022-05-22T07:23:42.000Z</time></trkpt><trkpt lon="6.082914" lat="51.10946"><ele>29.6</ele><time>2022-05-22T07:23:43.000Z</time></trkpt><trkpt lon="6.083022" lat="51.109493"><ele>29.6</ele><time>2022-05-22T07:23:44.000Z</time></trkpt><trkpt lon="6.08312" lat="51.109523"><ele>29.4</ele><time>2022-05-22T07:23:45.000Z</time></trkpt><trkpt lon="6.083221" lat="51.109554"><ele>29.4</ele><time>2022-05-22T07:23:46.000Z</time></trkpt><trkpt lon="6.083318" lat="51.109584"><ele>29.6</ele><time>2022-05-22T07:23:47.000Z</time></trkpt><trkpt lon="6.083416" lat="51.109611"><ele>29.6</ele><time>2022-05-22T07:23:48.000Z</time></trkpt><trkpt lon="6.083508" lat="51.109636"><ele>29.8</ele><time>2022-05-22T07:23:49.000Z</time></trkpt><trkpt lon="6.083608" lat="51.109668"><ele>29.8</ele><time>2022-05-22T07:23:50.000Z</time></trkpt><trkpt lon="6.083708" lat="51.109691"><ele>29.8</ele><time>2022-05-22T07:23:51.000Z</time></trkpt><trkpt lon="6.083805" lat="51.109717"><ele>29.8</ele><time>2022-05-22T07:23:52.000Z</time></trkpt><trkpt lon="6.083907" lat="51.109733"><ele>30</ele><time>2022-05-22T07:23:53.000Z</time></trkpt><trkpt lon="6.08401" lat="51.109748"><ele>30</ele><time>2022-05-22T07:23:54.000Z</time></trkpt><trkpt lon="6.084119" lat="51.10976"><ele>30.2</ele><time>2022-05-22T07:23:55.000Z</time></trkpt><trkpt lon="6.084226" lat="51.109775"><ele>30.2</ele><time>2022-05-22T07:23:56.000Z</time></trkpt><trkpt lon="6.084332" lat="51.109787"><ele>30.2</ele><time>2022-05-22T07:23:57.000Z</time></trkpt><trkpt lon="6.084434" lat="51.109798"><ele>30.2</ele><time>2022-05-22T07:23:58.000Z</time></trkpt><trkpt lon="6.084544" lat="51.10981"><ele>30.4</ele><time>2022-05-22T07:23:59.000Z</time></trkpt><trkpt lon="6.084648" lat="51.109825"><ele>30.2</ele><time>2022-05-22T07:24:00.000Z</time></trkpt><trkpt lon="6.084746" lat="51.109836"><ele>30.2</ele><time>2022-05-22T07:24:01.000Z</time></trkpt><trkpt lon="6.084848" lat="51.109851"><ele>30</ele><time>2022-05-22T07:24:02.000Z</time></trkpt><trkpt lon="6.084956" lat="51.109863"><ele>29.8</ele><time>2022-05-22T07:24:03.000Z</time></trkpt><trkpt lon="6.085053" lat="51.109874"><ele>29.8</ele><time>2022-05-22T07:24:04.000Z</time></trkpt><trkpt lon="6.085159" lat="51.10989"><ele>30</ele><time>2022-05-22T07:24:05.000Z</time></trkpt><trkpt lon="6.085252" lat="51.1099"><ele>30</ele><time>2022-05-22T07:24:06.000Z</time></trkpt><trkpt lon="6.085361" lat="51.109912"><ele>30</ele><time>2022-05-22T07:24:07.000Z</time></trkpt><trkpt lon="6.085469" lat="51.109928"><ele>30.2</ele><time>2022-05-22T07:24:08.000Z</time></trkpt><trkpt lon="6.085579" lat="51.109939"><ele>30.2</ele><time>2022-05-22T07:24:09.000Z</time></trkpt><trkpt lon="6.08568" lat="51.109953"><ele>30.2</ele><time>2022-05-22T07:24:10.000Z</time></trkpt><trkpt lon="6.085789" lat="51.109965"><ele>30.2</ele><time>2022-05-22T07:24:11.000Z</time></trkpt><trkpt lon="6.085908" lat="51.109977"><ele>30.2</ele><time>2022-05-22T07:24:12.000Z</time></trkpt><trkpt lon="6.08601" lat="51.109992"><ele>30.2</ele><time>2022-05-22T07:24:13.000Z</time></trkpt><trkpt lon="6.086122" lat="51.110008"><ele>30.2</ele><time>2022-05-22T07:24:14.000Z</time></trkpt><trkpt lon="6.086226" lat="51.110023"><ele>30.2</ele><time>2022-05-22T07:24:15.000Z</time></trkpt><trkpt lon="6.08634" lat="51.110035"><ele>30.2</ele><time>2022-05-22T07:24:16.000Z</time></trkpt><trkpt lon="6.086451" lat="51.11005"><ele>30.4</ele><time>2022-05-22T07:24:17.000Z</time></trkpt><trkpt lon="6.086556" lat="51.110061"><ele>30.4</ele><time>2022-05-22T07:24:18.000Z</time></trkpt><trkpt lon="6.086664" lat="51.110077"><ele>30.4</ele><time>2022-05-22T07:24:19.000Z</time></trkpt><trkpt lon="6.086771" lat="51.110088"><ele>30.6</ele><time>2022-05-22T07:24:20.000Z</time></trkpt><trkpt lon="6.086879" lat="51.110099"><ele>30.6</ele><time>2022-05-22T07:24:21.000Z</time></trkpt><trkpt lon="6.086985" lat="51.110115"><ele>30.6</ele><time>2022-05-22T07:24:22.000Z</time></trkpt><trkpt lon="6.087091" lat="51.110126"><ele>30.6</ele><time>2022-05-22T07:24:23.000Z</time></trkpt><trkpt lon="6.087198" lat="51.110141"><ele>30.6</ele><time>2022-05-22T07:24:24.000Z</time></trkpt><trkpt lon="6.087305" lat="51.110153"><ele>30.8</ele><time>2022-05-22T07:24:25.000Z</time></trkpt><trkpt lon="6.087403" lat="51.110167"><ele>30.8</ele><time>2022-05-22T07:24:26.000Z</time></trkpt><trkpt lon="6.087514" lat="51.11018"><ele>30.8</ele><time>2022-05-22T07:24:27.000Z</time></trkpt><trkpt lon="6.087605" lat="51.110193"><ele>30.8</ele><time>2022-05-22T07:24:28.000Z</time></trkpt><trkpt lon="6.087721" lat="51.110206"><ele>31</ele><time>2022-05-22T07:24:29.000Z</time></trkpt><trkpt lon="6.087827" lat="51.110218"><ele>31</ele><time>2022-05-22T07:24:30.000Z</time></trkpt><trkpt lon="6.087931" lat="51.110229"><ele>31</ele><time>2022-05-22T07:24:31.000Z</time></trkpt><trkpt lon="6.088037" lat="51.110241"><ele>31</ele><time>2022-05-22T07:24:32.000Z</time></trkpt><trkpt lon="6.088142" lat="51.110256"><ele>31</ele><time>2022-05-22T07:24:33.000Z</time></trkpt><trkpt lon="6.088247" lat="51.110267"><ele>31</ele><time>2022-05-22T07:24:34.000Z</time></trkpt><trkpt lon="6.088358" lat="51.110282"><ele>31</ele><time>2022-05-22T07:24:35.000Z</time></trkpt><trkpt lon="6.088466" lat="51.110294"><ele>31</ele><time>2022-05-22T07:24:36.000Z</time></trkpt><trkpt lon="6.088573" lat="51.110305"><ele>31</ele><time>2022-05-22T07:24:37.000Z</time></trkpt><trkpt lon="6.088681" lat="51.11032"><ele>31</ele><time>2022-05-22T07:24:38.000Z</time></trkpt><trkpt lon="6.088787" lat="51.110332"><ele>31</ele><time>2022-05-22T07:24:39.000Z</time></trkpt><trkpt lon="6.088886" lat="51.110343"><ele>31</ele><time>2022-05-22T07:24:40.000Z</time></trkpt><trkpt lon="6.088996" lat="51.110358"><ele>31.2</ele><time>2022-05-22T07:24:41.000Z</time></trkpt><trkpt lon="6.089107" lat="51.110378"><ele>31.2</ele><time>2022-05-22T07:24:42.000Z</time></trkpt><trkpt lon="6.089207" lat="51.110399"><ele>31.2</ele><time>2022-05-22T07:24:43.000Z</time></trkpt><trkpt lon="6.089318" lat="51.110431"><ele>31.2</ele><time>2022-05-22T07:24:44.000Z</time></trkpt><trkpt lon="6.089421" lat="51.110461"><ele>31.2</ele><time>2022-05-22T07:24:45.000Z</time></trkpt><trkpt lon="6.089518" lat="51.110498"><ele>31</ele><time>2022-05-22T07:24:46.000Z</time></trkpt><trkpt lon="6.089615" lat="51.11054"><ele>30.8</ele><time>2022-05-22T07:24:47.000Z</time></trkpt><trkpt lon="6.089709" lat="51.11059"><ele>30.6</ele><time>2022-05-22T07:24:48.000Z</time></trkpt><trkpt lon="6.089791" lat="51.110634"><ele>30.4</ele><time>2022-05-22T07:24:49.000Z</time></trkpt><trkpt lon="6.089881" lat="51.110682"><ele>30.4</ele><time>2022-05-22T07:24:50.000Z</time></trkpt><trkpt lon="6.089956" lat="51.110728"><ele>30.2</ele><time>2022-05-22T07:24:51.000Z</time></trkpt><trkpt lon="6.090039" lat="51.110785"><ele>30.2</ele><time>2022-05-22T07:24:52.000Z</time></trkpt><trkpt lon="6.090112" lat="51.110833"><ele>30.2</ele><time>2022-05-22T07:24:53.000Z</time></trkpt><trkpt lon="6.090193" lat="51.110888"><ele>30.2</ele><time>2022-05-22T07:24:54.000Z</time></trkpt><trkpt lon="6.090268" lat="51.110942"><ele>30</ele><time>2022-05-22T07:24:55.000Z</time></trkpt><trkpt lon="6.090338" lat="51.11099"><ele>30.2</ele><time>2022-05-22T07:24:56.000Z</time></trkpt><trkpt lon="6.090411" lat="51.111044"><ele>30.2</ele><time>2022-05-22T07:24:57.000Z</time></trkpt><trkpt lon="6.090485" lat="51.111093"><ele>30.2</ele><time>2022-05-22T07:24:58.000Z</time></trkpt><trkpt lon="6.090565" lat="51.111143"><ele>30.2</ele><time>2022-05-22T07:24:59.000Z</time></trkpt><trkpt lon="6.09065" lat="51.111185"><ele>30.4</ele><time>2022-05-22T07:25:00.000Z</time></trkpt><trkpt lon="6.090743" lat="51.111224"><ele>30.4</ele><time>2022-05-22T07:25:01.000Z</time></trkpt><trkpt lon="6.090839" lat="51.111259"><ele>30.4</ele><time>2022-05-22T07:25:02.000Z</time></trkpt><trkpt lon="6.090932" lat="51.111285"><ele>30.4</ele><time>2022-05-22T07:25:03.000Z</time></trkpt><trkpt lon="6.091029" lat="51.111312"><ele>30.4</ele><time>2022-05-22T07:25:04.000Z</time></trkpt><trkpt lon="6.091123" lat="51.111339"><ele>30.6</ele><time>2022-05-22T07:25:05.000Z</time></trkpt><trkpt lon="6.091221" lat="51.111366"><ele>30.6</ele><time>2022-05-22T07:25:06.000Z</time></trkpt><trkpt lon="6.091314" lat="51.111392"><ele>30.8</ele><time>2022-05-22T07:25:07.000Z</time></trkpt><trkpt lon="6.091408" lat="51.111418"><ele>30.8</ele><time>2022-05-22T07:25:08.000Z</time></trkpt><trkpt lon="6.091505" lat="51.111442"><ele>30.8</ele><time>2022-05-22T07:25:09.000Z</time></trkpt><trkpt lon="6.0916" lat="51.111464"><ele>30.8</ele><time>2022-05-22T07:25:10.000Z</time></trkpt><trkpt lon="6.091699" lat="51.111495"><ele>30.8</ele><time>2022-05-22T07:25:11.000Z</time></trkpt><trkpt lon="6.091791" lat="51.111533"><ele>30.6</ele><time>2022-05-22T07:25:12.000Z</time></trkpt><trkpt lon="6.091878" lat="51.111579"><ele>30.6</ele><time>2022-05-22T07:25:13.000Z</time></trkpt><trkpt lon="6.091955" lat="51.111629"><ele>30.6</ele><time>2022-05-22T07:25:14.000Z</time></trkpt><trkpt lon="6.092035" lat="51.111685"><ele>30.6</ele><time>2022-05-22T07:25:15.000Z</time></trkpt><trkpt lon="6.0921" lat="51.111734"><ele>30.4</ele><time>2022-05-22T07:25:16.000Z</time></trkpt><trkpt lon="6.09217" lat="51.111791"><ele>30.4</ele><time>2022-05-22T07:25:17.000Z</time></trkpt><trkpt lon="6.092243" lat="51.11185"><ele>30.4</ele><time>2022-05-22T07:25:18.000Z</time></trkpt><trkpt lon="6.092317" lat="51.111907"><ele>30.6</ele><time>2022-05-22T07:25:19.000Z</time></trkpt><trkpt lon="6.092386" lat="51.11196"><ele>30.6</ele><time>2022-05-22T07:25:20.000Z</time></trkpt><trkpt lon="6.092457" lat="51.112002"><ele>30.8</ele><time>2022-05-22T07:25:21.000Z</time></trkpt><trkpt lon="6.09253" lat="51.112048"><ele>30.8</ele><time>2022-05-22T07:25:22.000Z</time></trkpt><trkpt lon="6.092605" lat="51.11209"><ele>30.8</ele><time>2022-05-22T07:25:23.000Z</time></trkpt><trkpt lon="6.092685" lat="51.112132"><ele>31</ele><time>2022-05-22T07:25:24.000Z</time></trkpt><trkpt lon="6.092769" lat="51.112174"><ele>31</ele><time>2022-05-22T07:25:25.000Z</time></trkpt><trkpt lon="6.092853" lat="51.112212"><ele>31</ele><time>2022-05-22T07:25:26.000Z</time></trkpt><trkpt lon="6.092936" lat="51.112254"><ele>31.2</ele><time>2022-05-22T07:25:27.000Z</time></trkpt><trkpt lon="6.093012" lat="51.112292"><ele>31.2</ele><time>2022-05-22T07:25:28.000Z</time></trkpt><trkpt lon="6.093102" lat="51.112338"><ele>31.2</ele><time>2022-05-22T07:25:29.000Z</time></trkpt><trkpt lon="6.093187" lat="51.112376"><ele>31.2</ele><time>2022-05-22T07:25:30.000Z</time></trkpt><trkpt lon="6.09327" lat="51.112418"><ele>31.2</ele><time>2022-05-22T07:25:31.000Z</time></trkpt><trkpt lon="6.093357" lat="51.11246"><ele>31.2</ele><time>2022-05-22T07:25:32.000Z</time></trkpt><trkpt lon="6.093437" lat="51.112501"><ele>31</ele><time>2022-05-22T07:25:33.000Z</time></trkpt><trkpt lon="6.093523" lat="51.112544"><ele>31</ele><time>2022-05-22T07:25:34.000Z</time></trkpt><trkpt lon="6.093608" lat="51.112582"><ele>30.8</ele><time>2022-05-22T07:25:35.000Z</time></trkpt><trkpt lon="6.093691" lat="51.112624"><ele>30.8</ele><time>2022-05-22T07:25:36.000Z</time></trkpt><trkpt lon="6.093774" lat="51.112662"><ele>30.8</ele><time>2022-05-22T07:25:37.000Z</time></trkpt><trkpt lon="6.093857" lat="51.112704"><ele>30.8</ele><time>2022-05-22T07:25:38.000Z</time></trkpt><trkpt lon="6.09394" lat="51.112742"><ele>30.6</ele><time>2022-05-22T07:25:39.000Z</time></trkpt><trkpt lon="6.094017" lat="51.112778"><ele>30.6</ele><time>2022-05-22T07:25:40.000Z</time></trkpt><trkpt lon="6.094099" lat="51.112818"><ele>30.4</ele><time>2022-05-22T07:25:41.000Z</time></trkpt><trkpt lon="6.094181" lat="51.11286"><ele>30.4</ele><time>2022-05-22T07:25:42.000Z</time></trkpt><trkpt lon="6.09426" lat="51.112897"><ele>30.4</ele><time>2022-05-22T07:25:43.000Z</time></trkpt><trkpt lon="6.094335" lat="51.112936"><ele>30.6</ele><time>2022-05-22T07:25:44.000Z</time></trkpt><trkpt lon="6.094423" lat="51.112982"><ele>30.6</ele><time>2022-05-22T07:25:45.000Z</time></trkpt><trkpt lon="6.094506" lat="51.113025"><ele>30.6</ele><time>2022-05-22T07:25:46.000Z</time></trkpt><trkpt lon="6.094585" lat="51.113063"><ele>30.6</ele><time>2022-05-22T07:25:47.000Z</time></trkpt><trkpt lon="6.094659" lat="51.113101"><ele>30.6</ele><time>2022-05-22T07:25:48.000Z</time></trkpt><trkpt lon="6.09473" lat="51.113139"><ele>30.6</ele><time>2022-05-22T07:25:49.000Z</time></trkpt><trkpt lon="6.094795" lat="51.113174"><ele>30.8</ele><time>2022-05-22T07:25:50.000Z</time></trkpt><trkpt lon="6.09486" lat="51.113201"><ele>30.8</ele><time>2022-05-22T07:25:51.000Z</time></trkpt><trkpt lon="6.094925" lat="51.113212"><ele>30.8</ele><time>2022-05-22T07:25:52.000Z</time></trkpt><trkpt lon="6.094984" lat="51.113205"><ele>30.8</ele><time>2022-05-22T07:25:53.000Z</time></trkpt><trkpt lon="6.095016" lat="51.11318"><ele>30.8</ele><time>2022-05-22T07:25:54.000Z</time></trkpt><trkpt lon="6.09505" lat="51.113124"><ele>30.8</ele><time>2022-05-22T07:25:55.000Z</time></trkpt><trkpt lon="6.095068" lat="51.11307"><ele>30.6</ele><time>2022-05-22T07:25:56.000Z</time></trkpt><trkpt lon="6.095076" lat="51.113008"><ele>30.4</ele><time>2022-05-22T07:25:57.000Z</time></trkpt><trkpt lon="6.095088" lat="51.112943"><ele>30.4</ele><time>2022-05-22T07:25:58.000Z</time></trkpt><trkpt lon="6.095105" lat="51.112871"><ele>30.2</ele><time>2022-05-22T07:25:59.000Z</time></trkpt><trkpt lon="6.095121" lat="51.1128"><ele>30.2</ele><time>2022-05-22T07:26:00.000Z</time></trkpt><trkpt lon="6.095138" lat="51.112725"><ele>30.2</ele><time>2022-05-22T07:26:01.000Z</time></trkpt><trkpt lon="6.095154" lat="51.112654"><ele>30.4</ele><time>2022-05-22T07:26:02.000Z</time></trkpt><trkpt lon="6.095171" lat="51.112585"><ele>30.4</ele><time>2022-05-22T07:26:03.000Z</time></trkpt><trkpt lon="6.09519" lat="51.112516"><ele>30.4</ele><time>2022-05-22T07:26:04.000Z</time></trkpt><trkpt lon="6.095209" lat="51.112451"><ele>30.6</ele><time>2022-05-22T07:26:05.000Z</time></trkpt><trkpt lon="6.09524" lat="51.11238"><ele>30.6</ele><time>2022-05-22T07:26:06.000Z</time></trkpt><trkpt lon="6.095274" lat="51.112317"><ele>30.6</ele><time>2022-05-22T07:26:07.000Z</time></trkpt><trkpt lon="6.095311" lat="51.112259"><ele>30.6</ele><time>2022-05-22T07:26:08.000Z</time></trkpt><trkpt lon="6.095356" lat="51.112191"><ele>30.6</ele><time>2022-05-22T07:26:09.000Z</time></trkpt><trkpt lon="6.095401" lat="51.112121"><ele>30.8</ele><time>2022-05-22T07:26:10.000Z</time></trkpt><trkpt lon="6.095444" lat="51.112058"><ele>30.8</ele><time>2022-05-22T07:26:11.000Z</time></trkpt><trkpt lon="6.095484" lat="51.112003"><ele>30.8</ele><time>2022-05-22T07:26:12.000Z</time></trkpt><trkpt lon="6.095524" lat="51.111943"><ele>30.8</ele><time>2022-05-22T07:26:13.000Z</time></trkpt><trkpt lon="6.095563" lat="51.111884"><ele>31</ele><time>2022-05-22T07:26:14.000Z</time></trkpt><trkpt lon="6.095604" lat="51.111829"><ele>31</ele><time>2022-05-22T07:26:15.000Z</time></trkpt><trkpt lon="6.095642" lat="51.111773"><ele>31</ele><time>2022-05-22T07:26:16.000Z</time></trkpt><trkpt lon="6.095677" lat="51.111719"><ele>31</ele><time>2022-05-22T07:26:17.000Z</time></trkpt><trkpt lon="6.095713" lat="51.111667"><ele>31</ele><time>2022-05-22T07:26:18.000Z</time></trkpt><trkpt lon="6.095759" lat="51.111621"><ele>31</ele><time>2022-05-22T07:26:19.000Z</time></trkpt><trkpt lon="6.095837" lat="51.111596"><ele>31</ele><time>2022-05-22T07:26:20.000Z</time></trkpt><trkpt lon="6.095926" lat="51.111603"><ele>31</ele><time>2022-05-22T07:26:21.000Z</time></trkpt><trkpt lon="6.096016" lat="51.111628"><ele>31</ele><time>2022-05-22T07:26:22.000Z</time></trkpt><trkpt lon="6.096111" lat="51.111659"><ele>31</ele><time>2022-05-22T07:26:23.000Z</time></trkpt><trkpt lon="6.096206" lat="51.11169"><ele>31</ele><time>2022-05-22T07:26:24.000Z</time></trkpt><trkpt lon="6.096298" lat="51.111723"><ele>31</ele><time>2022-05-22T07:26:25.000Z</time></trkpt><trkpt lon="6.096392" lat="51.111762"><ele>31</ele><time>2022-05-22T07:26:26.000Z</time></trkpt><trkpt lon="6.096483" lat="51.1118"><ele>31</ele><time>2022-05-22T07:26:27.000Z</time></trkpt><trkpt lon="6.096573" lat="51.111834"><ele>30.8</ele><time>2022-05-22T07:26:28.000Z</time></trkpt><trkpt lon="6.096666" lat="51.111873"><ele>31</ele><time>2022-05-22T07:26:29.000Z</time></trkpt><trkpt lon="6.096751" lat="51.111913"><ele>31</ele><time>2022-05-22T07:26:30.000Z</time></trkpt><trkpt lon="6.09684" lat="51.111953"><ele>31</ele><time>2022-05-22T07:26:31.000Z</time></trkpt><trkpt lon="6.096921" lat="51.111998"><ele>31</ele><time>2022-05-22T07:26:32.000Z</time></trkpt><trkpt lon="6.096997" lat="51.112039"><ele>31</ele><time>2022-05-22T07:26:33.000Z</time></trkpt><trkpt lon="6.09707" lat="51.11208"><ele>31</ele><time>2022-05-22T07:26:34.000Z</time></trkpt><trkpt lon="6.097142" lat="51.112127"><ele>31</ele><time>2022-05-22T07:26:35.000Z</time></trkpt><trkpt lon="6.097208" lat="51.112168"><ele>31.2</ele><time>2022-05-22T07:26:36.000Z</time></trkpt><trkpt lon="6.097278" lat="51.112212"><ele>31.4</ele><time>2022-05-22T07:26:37.000Z</time></trkpt><trkpt lon="6.097342" lat="51.112253"><ele>31.4</ele><time>2022-05-22T07:26:38.000Z</time></trkpt><trkpt lon="6.09741" lat="51.112296"><ele>31.6</ele><time>2022-05-22T07:26:39.000Z</time></trkpt><trkpt lon="6.097476" lat="51.112338"><ele>31.8</ele><time>2022-05-22T07:26:40.000Z</time></trkpt><trkpt lon="6.097544" lat="51.112376"><ele>31.8</ele><time>2022-05-22T07:26:41.000Z</time></trkpt><trkpt lon="6.097605" lat="51.112413"><ele>32</ele><time>2022-05-22T07:26:42.000Z</time></trkpt><trkpt lon="6.097667" lat="51.112452"><ele>32</ele><time>2022-05-22T07:26:43.000Z</time></trkpt><trkpt lon="6.097723" lat="51.112485"><ele>32.2</ele><time>2022-05-22T07:26:44.000Z</time></trkpt><trkpt lon="6.097784" lat="51.112521"><ele>32.2</ele><time>2022-05-22T07:26:45.000Z</time></trkpt><trkpt lon="6.097835" lat="51.112552"><ele>32.2</ele><time>2022-05-22T07:26:46.000Z</time></trkpt><trkpt lon="6.097884" lat="51.112579"><ele>32.4</ele><time>2022-05-22T07:26:47.000Z</time></trkpt><trkpt lon="6.097928" lat="51.112601"><ele>32.4</ele><time>2022-05-22T07:26:48.000Z</time></trkpt><trkpt lon="6.097973" lat="51.112612"><ele>32.2</ele><time>2022-05-22T07:26:49.000Z</time></trkpt><trkpt lon="6.098029" lat="51.112617"><ele>32.4</ele><time>2022-05-22T07:26:50.000Z</time></trkpt><trkpt lon="6.098082" lat="51.112603"><ele>32.4</ele><time>2022-05-22T07:26:51.000Z</time></trkpt><trkpt lon="6.098142" lat="51.11258"><ele>32.4</ele><time>2022-05-22T07:26:52.000Z</time></trkpt><trkpt lon="6.098205" lat="51.112547"><ele>32.4</ele><time>2022-05-22T07:26:53.000Z</time></trkpt><trkpt lon="6.098279" lat="51.112512"><ele>32.4</ele><time>2022-05-22T07:26:54.000Z</time></trkpt><trkpt lon="6.098354" lat="51.112477"><ele>32.4</ele><time>2022-05-22T07:26:55.000Z</time></trkpt><trkpt lon="6.098448" lat="51.112436"><ele>32.4</ele><time>2022-05-22T07:26:56.000Z</time></trkpt><trkpt lon="6.09853" lat="51.112403"><ele>32.6</ele><time>2022-05-22T07:26:57.000Z</time></trkpt><trkpt lon="6.098623" lat="51.112363"><ele>32.8</ele><time>2022-05-22T07:26:58.000Z</time></trkpt><trkpt lon="6.098712" lat="51.112329"><ele>33</ele><time>2022-05-22T07:26:59.000Z</time></trkpt><trkpt lon="6.098803" lat="51.112294"><ele>33.2</ele><time>2022-05-22T07:27:00.000Z</time></trkpt><trkpt lon="6.09889" lat="51.112256"><ele>33.2</ele><time>2022-05-22T07:27:01.000Z</time></trkpt><trkpt lon="6.098971" lat="51.112214"><ele>33.2</ele><time>2022-05-22T07:27:02.000Z</time></trkpt><trkpt lon="6.099053" lat="51.112172"><ele>33.2</ele><time>2022-05-22T07:27:03.000Z</time></trkpt><trkpt lon="6.099133" lat="51.11213"><ele>33</ele><time>2022-05-22T07:27:04.000Z</time></trkpt><trkpt lon="6.099215" lat="51.112092"><ele>32.8</ele><time>2022-05-22T07:27:05.000Z</time></trkpt><trkpt lon="6.099298" lat="51.11205"><ele>32.8</ele><time>2022-05-22T07:27:06.000Z</time></trkpt><trkpt lon="6.09938" lat="51.112012"><ele>32.8</ele><time>2022-05-22T07:27:07.000Z</time></trkpt><trkpt lon="6.099454" lat="51.111976"><ele>32.8</ele><time>2022-05-22T07:27:08.000Z</time></trkpt><trkpt lon="6.099538" lat="51.111936"><ele>32.6</ele><time>2022-05-22T07:27:09.000Z</time></trkpt><trkpt lon="6.099617" lat="51.111894"><ele>32.8</ele><time>2022-05-22T07:27:10.000Z</time></trkpt><trkpt lon="6.099695" lat="51.111848"><ele>32.8</ele><time>2022-05-22T07:27:11.000Z</time></trkpt><trkpt lon="6.099775" lat="51.111806"><ele>33</ele><time>2022-05-22T07:27:12.000Z</time></trkpt><trkpt lon="6.099852" lat="51.111765"><ele>33.2</ele><time>2022-05-22T07:27:13.000Z</time></trkpt><trkpt lon="6.099933" lat="51.111722"><ele>33.2</ele><time>2022-05-22T07:27:14.000Z</time></trkpt><trkpt lon="6.100013" lat="51.111676"><ele>33.2</ele><time>2022-05-22T07:27:15.000Z</time></trkpt><trkpt lon="6.100089" lat="51.111636"><ele>33.4</ele><time>2022-05-22T07:27:16.000Z</time></trkpt><trkpt lon="6.100171" lat="51.111589"><ele>33.2</ele><time>2022-05-22T07:27:17.000Z</time></trkpt><trkpt lon="6.100252" lat="51.111546"><ele>33.2</ele><time>2022-05-22T07:27:18.000Z</time></trkpt><trkpt lon="6.100332" lat="51.111505"><ele>33.4</ele><time>2022-05-22T07:27:19.000Z</time></trkpt><trkpt lon="6.100416" lat="51.111463"><ele>33.4</ele><time>2022-05-22T07:27:20.000Z</time></trkpt><trkpt lon="6.100499" lat="51.111421"><ele>33.4</ele><time>2022-05-22T07:27:21.000Z</time></trkpt><trkpt lon="6.100587" lat="51.111375"><ele>33.4</ele><time>2022-05-22T07:27:22.000Z</time></trkpt><trkpt lon="6.100673" lat="51.111333"><ele>33.2</ele><time>2022-05-22T07:27:23.000Z</time></trkpt><trkpt lon="6.100754" lat="51.111292"><ele>33.2</ele><time>2022-05-22T07:27:24.000Z</time></trkpt><trkpt lon="6.100838" lat="51.111246"><ele>33</ele><time>2022-05-22T07:27:25.000Z</time></trkpt><trkpt lon="6.100921" lat="51.1112"><ele>33</ele><time>2022-05-22T07:27:26.000Z</time></trkpt><trkpt lon="6.100995" lat="51.111155"><ele>32.8</ele><time>2022-05-22T07:27:27.000Z</time></trkpt><trkpt lon="6.101069" lat="51.1111"><ele>32.8</ele><time>2022-05-22T07:27:28.000Z</time></trkpt><trkpt lon="6.101135" lat="51.111044"><ele>32.8</ele><time>2022-05-22T07:27:29.000Z</time></trkpt><trkpt lon="6.101195" lat="51.110986"><ele>32.8</ele><time>2022-05-22T07:27:30.000Z</time></trkpt><trkpt lon="6.101247" lat="51.110925"><ele>32.6</ele><time>2022-05-22T07:27:31.000Z</time></trkpt><trkpt lon="6.10129" lat="51.110865"><ele>32.4</ele><time>2022-05-22T07:27:32.000Z</time></trkpt><trkpt lon="6.101327" lat="51.110801"><ele>32.2</ele><time>2022-05-22T07:27:33.000Z</time></trkpt><trkpt lon="6.101361" lat="51.110732"><ele>32.2</ele><time>2022-05-22T07:27:34.000Z</time></trkpt><trkpt lon="6.101397" lat="51.110669"><ele>32.2</ele><time>2022-05-22T07:27:35.000Z</time></trkpt><trkpt lon="6.101444" lat="51.110601"><ele>32.2</ele><time>2022-05-22T07:27:36.000Z</time></trkpt><trkpt lon="6.101486" lat="51.110536"><ele>32.2</ele><time>2022-05-22T07:27:37.000Z</time></trkpt><trkpt lon="6.101516" lat="51.110471"><ele>32.2</ele><time>2022-05-22T07:27:38.000Z</time></trkpt><trkpt lon="6.101549" lat="51.110407"><ele>32.2</ele><time>2022-05-22T07:27:39.000Z</time></trkpt><trkpt lon="6.101582" lat="51.110346"><ele>32</ele><time>2022-05-22T07:27:40.000Z</time></trkpt><trkpt lon="6.101617" lat="51.110285"><ele>32.2</ele><time>2022-05-22T07:27:41.000Z</time></trkpt><trkpt lon="6.101654" lat="51.110223"><ele>32.2</ele><time>2022-05-22T07:27:42.000Z</time></trkpt><trkpt lon="6.101697" lat="51.110162"><ele>32.2</ele><time>2022-05-22T07:27:43.000Z</time></trkpt><trkpt lon="6.101742" lat="51.110101"><ele>32.2</ele><time>2022-05-22T07:27:44.000Z</time></trkpt><trkpt lon="6.101787" lat="51.110044"><ele>32.2</ele><time>2022-05-22T07:27:45.000Z</time></trkpt><trkpt lon="6.101833" lat="51.109988"><ele>32.2</ele><time>2022-05-22T07:27:46.000Z</time></trkpt><trkpt lon="6.101883" lat="51.10993"><ele>32.2</ele><time>2022-05-22T07:27:47.000Z</time></trkpt><trkpt lon="6.101937" lat="51.109876"><ele>32.2</ele><time>2022-05-22T07:27:48.000Z</time></trkpt><trkpt lon="6.101992" lat="51.109819"><ele>32.2</ele><time>2022-05-22T07:27:49.000Z</time></trkpt><trkpt lon="6.102043" lat="51.109767"><ele>32.2</ele><time>2022-05-22T07:27:50.000Z</time></trkpt><trkpt lon="6.102101" lat="51.109709"><ele>32.4</ele><time>2022-05-22T07:27:51.000Z</time></trkpt><trkpt lon="6.102155" lat="51.109652"><ele>32.4</ele><time>2022-05-22T07:27:52.000Z</time></trkpt><trkpt lon="6.10221" lat="51.109598"><ele>32.4</ele><time>2022-05-22T07:27:53.000Z</time></trkpt><trkpt lon="6.102263" lat="51.109544"><ele>32.4</ele><time>2022-05-22T07:27:54.000Z</time></trkpt><trkpt lon="6.10231" lat="51.109495"><ele>32.4</ele><time>2022-05-22T07:27:55.000Z</time></trkpt><trkpt lon="6.102354" lat="51.10945"><ele>32.4</ele><time>2022-05-22T07:27:56.000Z</time></trkpt><trkpt lon="6.102396" lat="51.109404"><ele>32.4</ele><time>2022-05-22T07:27:57.000Z</time></trkpt><trkpt lon="6.102438" lat="51.109361"><ele>32.4</ele><time>2022-05-22T07:27:58.000Z</time></trkpt><trkpt lon="6.102474" lat="51.109319"><ele>32.4</ele><time>2022-05-22T07:27:59.000Z</time></trkpt><trkpt lon="6.102506" lat="51.109281"><ele>32.4</ele><time>2022-05-22T07:28:00.000Z</time></trkpt><trkpt lon="6.102544" lat="51.10925"><ele>32.6</ele><time>2022-05-22T07:28:01.000Z</time></trkpt><trkpt lon="6.102596" lat="51.109224"><ele>32.6</ele><time>2022-05-22T07:28:02.000Z</time></trkpt><trkpt lon="6.10266" lat="51.109207"><ele>32.6</ele><time>2022-05-22T07:28:03.000Z</time></trkpt><trkpt lon="6.102727" lat="51.109187"><ele>32.4</ele><time>2022-05-22T07:28:04.000Z</time></trkpt><trkpt lon="6.102811" lat="51.109171"><ele>32.4</ele><time>2022-05-22T07:28:05.000Z</time></trkpt><trkpt lon="6.102904" lat="51.109158"><ele>32.6</ele><time>2022-05-22T07:28:06.000Z</time></trkpt><trkpt lon="6.102987" lat="51.109135"><ele>32.6</ele><time>2022-05-22T07:28:07.000Z</time></trkpt><trkpt lon="6.103065" lat="51.109113"><ele>32.6</ele><time>2022-05-22T07:28:08.000Z</time></trkpt><trkpt lon="6.103142" lat="51.109082"><ele>32.6</ele><time>2022-05-22T07:28:09.000Z</time></trkpt><trkpt lon="6.103216" lat="51.109045"><ele>32.6</ele><time>2022-05-22T07:28:10.000Z</time></trkpt><trkpt lon="6.10329" lat="51.109003"><ele>32.6</ele><time>2022-05-22T07:28:11.000Z</time></trkpt><trkpt lon="6.103366" lat="51.108957"><ele>32.6</ele><time>2022-05-22T07:28:12.000Z</time></trkpt><trkpt lon="6.103436" lat="51.108913"><ele>32.6</ele><time>2022-05-22T07:28:13.000Z</time></trkpt><trkpt lon="6.103502" lat="51.108867"><ele>32.6</ele><time>2022-05-22T07:28:14.000Z</time></trkpt><trkpt lon="6.103583" lat="51.108808"><ele>32.8</ele><time>2022-05-22T07:28:15.000Z</time></trkpt><trkpt lon="6.103656" lat="51.108759"><ele>32.8</ele><time>2022-05-22T07:28:16.000Z</time></trkpt><trkpt lon="6.103733" lat="51.108705"><ele>32.8</ele><time>2022-05-22T07:28:17.000Z</time></trkpt><trkpt lon="6.103809" lat="51.108656"><ele>32.6</ele><time>2022-05-22T07:28:18.000Z</time></trkpt><trkpt lon="6.103883" lat="51.108608"><ele>32.6</ele><time>2022-05-22T07:28:19.000Z</time></trkpt><trkpt lon="6.103965" lat="51.108556"><ele>32.6</ele><time>2022-05-22T07:28:20.000Z</time></trkpt><trkpt lon="6.104046" lat="51.108515"><ele>32.6</ele><time>2022-05-22T07:28:21.000Z</time></trkpt><trkpt lon="6.104134" lat="51.108465"><ele>32.6</ele><time>2022-05-22T07:28:22.000Z</time></trkpt><trkpt lon="6.104219" lat="51.108419"><ele>32.6</ele><time>2022-05-22T07:28:23.000Z</time></trkpt><trkpt lon="6.104305" lat="51.108373"><ele>32.6</ele><time>2022-05-22T07:28:24.000Z</time></trkpt><trkpt lon="6.104392" lat="51.108328"><ele>32.8</ele><time>2022-05-22T07:28:25.000Z</time></trkpt><trkpt lon="6.104477" lat="51.108281"><ele>32.8</ele><time>2022-05-22T07:28:26.000Z</time></trkpt><trkpt lon="6.104559" lat="51.10824"><ele>32.8</ele><time>2022-05-22T07:28:27.000Z</time></trkpt><trkpt lon="6.104641" lat="51.108197"><ele>32.8</ele><time>2022-05-22T07:28:28.000Z</time></trkpt><trkpt lon="6.104718" lat="51.10815"><ele>32.8</ele><time>2022-05-22T07:28:29.000Z</time></trkpt><trkpt lon="6.104796" lat="51.108103"><ele>32.8</ele><time>2022-05-22T07:28:30.000Z</time></trkpt><trkpt lon="6.104867" lat="51.108056"><ele>32.8</ele><time>2022-05-22T07:28:31.000Z</time></trkpt><trkpt lon="6.104934" lat="51.10801"><ele>33</ele><time>2022-05-22T07:28:32.000Z</time></trkpt><trkpt lon="6.104997" lat="51.107965"><ele>33</ele><time>2022-05-22T07:28:33.000Z</time></trkpt><trkpt lon="6.105067" lat="51.107915"><ele>33</ele><time>2022-05-22T07:28:34.000Z</time></trkpt><trkpt lon="6.105137" lat="51.107858"><ele>33</ele><time>2022-05-22T07:28:35.000Z</time></trkpt><trkpt lon="6.105205" lat="51.107804"><ele>32.8</ele><time>2022-05-22T07:28:36.000Z</time></trkpt><trkpt lon="6.105275" lat="51.107747"><ele>32.8</ele><time>2022-05-22T07:28:37.000Z</time></trkpt><trkpt lon="6.105345" lat="51.107691"><ele>32.8</ele><time>2022-05-22T07:28:38.000Z</time></trkpt><trkpt lon="6.105419" lat="51.107641"><ele>32.8</ele><time>2022-05-22T07:28:39.000Z</time></trkpt><trkpt lon="6.105497" lat="51.107592"><ele>32.6</ele><time>2022-05-22T07:28:40.000Z</time></trkpt><trkpt lon="6.105581" lat="51.10755"><ele>32.6</ele><time>2022-05-22T07:28:41.000Z</time></trkpt><trkpt lon="6.10567" lat="51.107512"><ele>32.4</ele><time>2022-05-22T07:28:42.000Z</time></trkpt><trkpt lon="6.105771" lat="51.10748"><ele>32.4</ele><time>2022-05-22T07:28:43.000Z</time></trkpt><trkpt lon="6.105878" lat="51.107457"><ele>32.2</ele><time>2022-05-22T07:28:44.000Z</time></trkpt><trkpt lon="6.105984" lat="51.107434"><ele>32.2</ele><time>2022-05-22T07:28:45.000Z</time></trkpt><trkpt lon="6.106092" lat="51.107411"><ele>32.2</ele><time>2022-05-22T07:28:46.000Z</time></trkpt><trkpt lon="6.1062" lat="51.107388"><ele>32.2</ele><time>2022-05-22T07:28:47.000Z</time></trkpt><trkpt lon="6.106306" lat="51.107366"><ele>32.2</ele><time>2022-05-22T07:28:48.000Z</time></trkpt><trkpt lon="6.106416" lat="51.107346"><ele>32</ele><time>2022-05-22T07:28:49.000Z</time></trkpt><trkpt lon="6.106525" lat="51.107324"><ele>32.2</ele><time>2022-05-22T07:28:50.000Z</time></trkpt><trkpt lon="6.106633" lat="51.107301"><ele>32.2</ele><time>2022-05-22T07:28:51.000Z</time></trkpt><trkpt lon="6.106742" lat="51.107274"><ele>32.2</ele><time>2022-05-22T07:28:52.000Z</time></trkpt><trkpt lon="6.10685" lat="51.107247"><ele>32.4</ele><time>2022-05-22T07:28:53.000Z</time></trkpt><trkpt lon="6.106953" lat="51.107216"><ele>32.4</ele><time>2022-05-22T07:28:54.000Z</time></trkpt><trkpt lon="6.107056" lat="51.107186"><ele>32.4</ele><time>2022-05-22T07:28:55.000Z</time></trkpt><trkpt lon="6.107162" lat="51.107156"><ele>32.4</ele><time>2022-05-22T07:28:56.000Z</time></trkpt><trkpt lon="6.107267" lat="51.107122"><ele>32.4</ele><time>2022-05-22T07:28:57.000Z</time></trkpt><trkpt lon="6.107364" lat="51.10709"><ele>32.4</ele><time>2022-05-22T07:28:58.000Z</time></trkpt><trkpt lon="6.107474" lat="51.107058"><ele>32.4</ele><time>2022-05-22T07:28:59.000Z</time></trkpt><trkpt lon="6.107587" lat="51.107026"><ele>32.4</ele><time>2022-05-22T07:29:00.000Z</time></trkpt><trkpt lon="6.107691" lat="51.106992"><ele>32.4</ele><time>2022-05-22T07:29:01.000Z</time></trkpt><trkpt lon="6.107797" lat="51.106958"><ele>32.4</ele><time>2022-05-22T07:29:02.000Z</time></trkpt><trkpt lon="6.107904" lat="51.106931"><ele>32.6</ele><time>2022-05-22T07:29:03.000Z</time></trkpt><trkpt lon="6.108007" lat="51.1069"><ele>32.4</ele><time>2022-05-22T07:29:04.000Z</time></trkpt><trkpt lon="6.108111" lat="51.106869"><ele>32.6</ele><time>2022-05-22T07:29:05.000Z</time></trkpt><trkpt lon="6.108213" lat="51.106839"><ele>32.6</ele><time>2022-05-22T07:29:06.000Z</time></trkpt><trkpt lon="6.108314" lat="51.106813"><ele>32.6</ele><time>2022-05-22T07:29:07.000Z</time></trkpt><trkpt lon="6.108416" lat="51.106789"><ele>32.8</ele><time>2022-05-22T07:29:08.000Z</time></trkpt><trkpt lon="6.108519" lat="51.106763"><ele>32.8</ele><time>2022-05-22T07:29:09.000Z</time></trkpt><trkpt lon="6.108625" lat="51.106739"><ele>32.8</ele><time>2022-05-22T07:29:10.000Z</time></trkpt><trkpt lon="6.108729" lat="51.106721"><ele>32.8</ele><time>2022-05-22T07:29:11.000Z</time></trkpt><trkpt lon="6.10884" lat="51.106698"><ele>32.8</ele><time>2022-05-22T07:29:12.000Z</time></trkpt><trkpt lon="6.10895" lat="51.106679"><ele>32.8</ele><time>2022-05-22T07:29:13.000Z</time></trkpt><trkpt lon="6.109058" lat="51.106656"><ele>32.6</ele><time>2022-05-22T07:29:14.000Z</time></trkpt><trkpt lon="6.109164" lat="51.106636"><ele>32.6</ele><time>2022-05-22T07:29:15.000Z</time></trkpt><trkpt lon="6.109275" lat="51.106614"><ele>32.6</ele><time>2022-05-22T07:29:16.000Z</time></trkpt><trkpt lon="6.109382" lat="51.106591"><ele>32.6</ele><time>2022-05-22T07:29:17.000Z</time></trkpt><trkpt lon="6.109493" lat="51.106572"><ele>32.6</ele><time>2022-05-22T07:29:18.000Z</time></trkpt><trkpt lon="6.109601" lat="51.106549"><ele>32.6</ele><time>2022-05-22T07:29:19.000Z</time></trkpt><trkpt lon="6.109709" lat="51.106526"><ele>32.6</ele><time>2022-05-22T07:29:20.000Z</time></trkpt><trkpt lon="6.109817" lat="51.106507"><ele>32.6</ele><time>2022-05-22T07:29:21.000Z</time></trkpt><trkpt lon="6.109924" lat="51.106484"><ele>32.6</ele><time>2022-05-22T07:29:22.000Z</time></trkpt><trkpt lon="6.11003" lat="51.106465"><ele>32.6</ele><time>2022-05-22T07:29:23.000Z</time></trkpt><trkpt lon="6.110137" lat="51.106446"><ele>32.6</ele><time>2022-05-22T07:29:24.000Z</time></trkpt><trkpt lon="6.110244" lat="51.106427"><ele>32.6</ele><time>2022-05-22T07:29:25.000Z</time></trkpt><trkpt lon="6.110349" lat="51.106408"><ele>32.4</ele><time>2022-05-22T07:29:26.000Z</time></trkpt><trkpt lon="6.110458" lat="51.106392"><ele>32.6</ele><time>2022-05-22T07:29:27.000Z</time></trkpt><trkpt lon="6.110571" lat="51.106381"><ele>32.6</ele><time>2022-05-22T07:29:28.000Z</time></trkpt><trkpt lon="6.110686" lat="51.106377"><ele>32.6</ele><time>2022-05-22T07:29:29.000Z</time></trkpt><trkpt lon="6.110798" lat="51.106369"><ele>32.6</ele><time>2022-05-22T07:29:30.000Z</time></trkpt><trkpt lon="6.110906" lat="51.106365"><ele>32.6</ele><time>2022-05-22T07:29:31.000Z</time></trkpt><trkpt lon="6.111019" lat="51.106358"><ele>32.6</ele><time>2022-05-22T07:29:32.000Z</time></trkpt><trkpt lon="6.111128" lat="51.10635"><ele>32.6</ele><time>2022-05-22T07:29:33.000Z</time></trkpt><trkpt lon="6.111234" lat="51.106343"><ele>32.6</ele><time>2022-05-22T07:29:34.000Z</time></trkpt><trkpt lon="6.111344" lat="51.106339"><ele>32.6</ele><time>2022-05-22T07:29:35.000Z</time></trkpt><trkpt lon="6.111451" lat="51.106335"><ele>32.6</ele><time>2022-05-22T07:29:36.000Z</time></trkpt><trkpt lon="6.111558" lat="51.106331"><ele>32.8</ele><time>2022-05-22T07:29:37.000Z</time></trkpt><trkpt lon="6.111662" lat="51.106331"><ele>32.6</ele><time>2022-05-22T07:29:38.000Z</time></trkpt><trkpt lon="6.111776" lat="51.106323"><ele>32.8</ele><time>2022-05-22T07:29:39.000Z</time></trkpt><trkpt lon="6.111884" lat="51.106319"><ele>32.8</ele><time>2022-05-22T07:29:40.000Z</time></trkpt><trkpt lon="6.111989" lat="51.106316"><ele>32.8</ele><time>2022-05-22T07:29:41.000Z</time></trkpt><trkpt lon="6.11209" lat="51.106316"><ele>32.8</ele><time>2022-05-22T07:29:42.000Z</time></trkpt><trkpt lon="6.112192" lat="51.106316"><ele>32.8</ele><time>2022-05-22T07:29:43.000Z</time></trkpt><trkpt lon="6.112293" lat="51.106312"><ele>32.8</ele><time>2022-05-22T07:29:44.000Z</time></trkpt><trkpt lon="6.112394" lat="51.106308"><ele>32.8</ele><time>2022-05-22T07:29:45.000Z</time></trkpt><trkpt lon="6.112504" lat="51.106301"><ele>32.8</ele><time>2022-05-22T07:29:46.000Z</time></trkpt><trkpt lon="6.11262" lat="51.106297"><ele>32.8</ele><time>2022-05-22T07:29:47.000Z</time></trkpt><trkpt lon="6.112729" lat="51.106293"><ele>32.8</ele><time>2022-05-22T07:29:48.000Z</time></trkpt><trkpt lon="6.112845" lat="51.106293"><ele>33</ele><time>2022-05-22T07:29:49.000Z</time></trkpt><trkpt lon="6.112956" lat="51.106289"><ele>33</ele><time>2022-05-22T07:29:50.000Z</time></trkpt><trkpt lon="6.113071" lat="51.106285"><ele>33</ele><time>2022-05-22T07:29:51.000Z</time></trkpt><trkpt lon="6.113184" lat="51.106281"><ele>33</ele><time>2022-05-22T07:29:52.000Z</time></trkpt><trkpt lon="6.113297" lat="51.106278"><ele>33</ele><time>2022-05-22T07:29:53.000Z</time></trkpt><trkpt lon="6.11341" lat="51.106274"><ele>33</ele><time>2022-05-22T07:29:54.000Z</time></trkpt><trkpt lon="6.113521" lat="51.10627"><ele>33</ele><time>2022-05-22T07:29:55.000Z</time></trkpt><trkpt lon="6.113624" lat="51.10627"><ele>33</ele><time>2022-05-22T07:29:56.000Z</time></trkpt><trkpt lon="6.113734" lat="51.106266"><ele>33</ele><time>2022-05-22T07:29:57.000Z</time></trkpt><trkpt lon="6.113839" lat="51.106266"><ele>33</ele><time>2022-05-22T07:29:58.000Z</time></trkpt><trkpt lon="6.113939" lat="51.106262"><ele>33.2</ele><time>2022-05-22T07:29:59.000Z</time></trkpt><trkpt lon="6.114044" lat="51.106258"><ele>33.2</ele><time>2022-05-22T07:30:00.000Z</time></trkpt><trkpt lon="6.114145" lat="51.106255"><ele>33.2</ele><time>2022-05-22T07:30:01.000Z</time></trkpt><trkpt lon="6.114257" lat="51.106247"><ele>33.2</ele><time>2022-05-22T07:30:02.000Z</time></trkpt><trkpt lon="6.114369" lat="51.10624"><ele>33.2</ele><time>2022-05-22T07:30:03.000Z</time></trkpt><trkpt lon="6.114478" lat="51.106236"><ele>33.2</ele><time>2022-05-22T07:30:04.000Z</time></trkpt><trkpt lon="6.114586" lat="51.106235"><ele>33.2</ele><time>2022-05-22T07:30:05.000Z</time></trkpt><trkpt lon="6.114694" lat="51.106243"><ele>33.2</ele><time>2022-05-22T07:30:06.000Z</time></trkpt><trkpt lon="6.114799" lat="51.106261"><ele>33</ele><time>2022-05-22T07:30:07.000Z</time></trkpt><trkpt lon="6.1149" lat="51.106292"><ele>33</ele><time>2022-05-22T07:30:08.000Z</time></trkpt><trkpt lon="6.114987" lat="51.106331"><ele>33</ele><time>2022-05-22T07:30:09.000Z</time></trkpt><trkpt lon="6.115084" lat="51.106376"><ele>33</ele><time>2022-05-22T07:30:10.000Z</time></trkpt><trkpt lon="6.115173" lat="51.106422"><ele>33.2</ele><time>2022-05-22T07:30:11.000Z</time></trkpt><trkpt lon="6.115256" lat="51.106467"><ele>33.2</ele><time>2022-05-22T07:30:12.000Z</time></trkpt><trkpt lon="6.115337" lat="51.106516"><ele>33.2</ele><time>2022-05-22T07:30:13.000Z</time></trkpt><trkpt lon="6.11542" lat="51.106562"><ele>33.2</ele><time>2022-05-22T07:30:14.000Z</time></trkpt><trkpt lon="6.115497" lat="51.106612"><ele>33.2</ele><time>2022-05-22T07:30:15.000Z</time></trkpt><trkpt lon="6.115577" lat="51.106658"><ele>33</ele><time>2022-05-22T07:30:16.000Z</time></trkpt><trkpt lon="6.115663" lat="51.106704"><ele>33.2</ele><time>2022-05-22T07:30:17.000Z</time></trkpt><trkpt lon="6.11574" lat="51.106741"><ele>33.2</ele><time>2022-05-22T07:30:18.000Z</time></trkpt><trkpt lon="6.115818" lat="51.106772"><ele>33</ele><time>2022-05-22T07:30:19.000Z</time></trkpt><trkpt lon="6.1159" lat="51.106809"><ele>33</ele><time>2022-05-22T07:30:20.000Z</time></trkpt><trkpt lon="6.115987" lat="51.106841"><ele>33</ele><time>2022-05-22T07:30:21.000Z</time></trkpt><trkpt lon="6.116072" lat="51.106876"><ele>33</ele><time>2022-05-22T07:30:22.000Z</time></trkpt><trkpt lon="6.116151" lat="51.106906"><ele>33</ele><time>2022-05-22T07:30:23.000Z</time></trkpt><trkpt lon="6.116236" lat="51.106947"><ele>33</ele><time>2022-05-22T07:30:24.000Z</time></trkpt><trkpt lon="6.116334" lat="51.106993"><ele>33</ele><time>2022-05-22T07:30:25.000Z</time></trkpt><trkpt lon="6.116431" lat="51.107047"><ele>33</ele><time>2022-05-22T07:30:26.000Z</time></trkpt><trkpt lon="6.116518" lat="51.107096"><ele>33</ele><time>2022-05-22T07:30:27.000Z</time></trkpt><trkpt lon="6.116593" lat="51.107152"><ele>33</ele><time>2022-05-22T07:30:28.000Z</time></trkpt><trkpt lon="6.116667" lat="51.107215"><ele>33</ele><time>2022-05-22T07:30:29.000Z</time></trkpt><trkpt lon="6.11673" lat="51.107279"><ele>33</ele><time>2022-05-22T07:30:30.000Z</time></trkpt><trkpt lon="6.11679" lat="51.10734"><ele>33</ele><time>2022-05-22T07:30:31.000Z</time></trkpt><trkpt lon="6.116853" lat="51.1074"><ele>33</ele><time>2022-05-22T07:30:32.000Z</time></trkpt><trkpt lon="6.116918" lat="51.107466"><ele>33</ele><time>2022-05-22T07:30:33.000Z</time></trkpt><trkpt lon="6.116982" lat="51.107531"><ele>32.8</ele><time>2022-05-22T07:30:34.000Z</time></trkpt><trkpt lon="6.117045" lat="51.107592"><ele>32.8</ele><time>2022-05-22T07:30:35.000Z</time></trkpt><trkpt lon="6.117105" lat="51.107657"><ele>32.8</ele><time>2022-05-22T07:30:36.000Z</time></trkpt><trkpt lon="6.117165" lat="51.107722"><ele>32.8</ele><time>2022-05-22T07:30:37.000Z</time></trkpt><trkpt lon="6.117227" lat="51.107787"><ele>32.8</ele><time>2022-05-22T07:30:38.000Z</time></trkpt><trkpt lon="6.11729" lat="51.107851"><ele>32.8</ele><time>2022-05-22T07:30:39.000Z</time></trkpt><trkpt lon="6.117354" lat="51.107917"><ele>32.8</ele><time>2022-05-22T07:30:40.000Z</time></trkpt><trkpt lon="6.117411" lat="51.107977"><ele>32.8</ele><time>2022-05-22T07:30:41.000Z</time></trkpt><trkpt lon="6.117467" lat="51.108038"><ele>32.8</ele><time>2022-05-22T07:30:42.000Z</time></trkpt><trkpt lon="6.117523" lat="51.108099"><ele>32.8</ele><time>2022-05-22T07:30:43.000Z</time></trkpt><trkpt lon="6.11758" lat="51.10816"><ele>33</ele><time>2022-05-22T07:30:44.000Z</time></trkpt><trkpt lon="6.11764" lat="51.108225"><ele>33</ele><time>2022-05-22T07:30:45.000Z</time></trkpt><trkpt lon="6.117698" lat="51.108286"><ele>33</ele><time>2022-05-22T07:30:46.000Z</time></trkpt><trkpt lon="6.117757" lat="51.108351"><ele>33</ele><time>2022-05-22T07:30:47.000Z</time></trkpt><trkpt lon="6.117815" lat="51.108415"><ele>33</ele><time>2022-05-22T07:30:48.000Z</time></trkpt><trkpt lon="6.117872" lat="51.108477"><ele>33.2</ele><time>2022-05-22T07:30:49.000Z</time></trkpt><trkpt lon="6.117929" lat="51.108542"><ele>33.2</ele><time>2022-05-22T07:30:50.000Z</time></trkpt><trkpt lon="6.117993" lat="51.108596"><ele>33.2</ele><time>2022-05-22T07:30:51.000Z</time></trkpt><trkpt lon="6.118062" lat="51.108642"><ele>33.2</ele><time>2022-05-22T07:30:52.000Z</time></trkpt><trkpt lon="6.118165" lat="51.108691"><ele>33.4</ele><time>2022-05-22T07:30:53.000Z</time></trkpt><trkpt lon="6.118256" lat="51.108725"><ele>33.4</ele><time>2022-05-22T07:30:54.000Z</time></trkpt><trkpt lon="6.118351" lat="51.108755"><ele>33.4</ele><time>2022-05-22T07:30:55.000Z</time></trkpt><trkpt lon="6.11846" lat="51.108786"><ele>33.4</ele><time>2022-05-22T07:30:56.000Z</time></trkpt><trkpt lon="6.118568" lat="51.108813"><ele>33.6</ele><time>2022-05-22T07:30:57.000Z</time></trkpt><trkpt lon="6.118679" lat="51.10884"><ele>33.6</ele><time>2022-05-22T07:30:58.000Z</time></trkpt><trkpt lon="6.118787" lat="51.10887"><ele>33.6</ele><time>2022-05-22T07:30:59.000Z</time></trkpt><trkpt lon="6.118893" lat="51.108897"><ele>33.6</ele><time>2022-05-22T07:31:00.000Z</time></trkpt><trkpt lon="6.118997" lat="51.108924"><ele>33.6</ele><time>2022-05-22T07:31:01.000Z</time></trkpt><trkpt lon="6.119104" lat="51.108951"><ele>33.6</ele><time>2022-05-22T07:31:02.000Z</time></trkpt><trkpt lon="6.119213" lat="51.108977"><ele>33.6</ele><time>2022-05-22T07:31:03.000Z</time></trkpt><trkpt lon="6.119313" lat="51.109"><ele>33.8</ele><time>2022-05-22T07:31:04.000Z</time></trkpt><trkpt lon="6.119421" lat="51.109023"><ele>34</ele><time>2022-05-22T07:31:05.000Z</time></trkpt><trkpt lon="6.119524" lat="51.10905"><ele>34</ele><time>2022-05-22T07:31:06.000Z</time></trkpt><trkpt lon="6.119628" lat="51.109081"><ele>34</ele><time>2022-05-22T07:31:07.000Z</time></trkpt><trkpt lon="6.119734" lat="51.109107"><ele>34</ele><time>2022-05-22T07:31:08.000Z</time></trkpt><trkpt lon="6.119839" lat="51.109134"><ele>34</ele><time>2022-05-22T07:31:09.000Z</time></trkpt><trkpt lon="6.119948" lat="51.109161"><ele>34</ele><time>2022-05-22T07:31:10.000Z</time></trkpt><trkpt lon="6.12005" lat="51.109187"><ele>34</ele><time>2022-05-22T07:31:11.000Z</time></trkpt><trkpt lon="6.12016" lat="51.109211"><ele>34</ele><time>2022-05-22T07:31:12.000Z</time></trkpt><trkpt lon="6.120266" lat="51.109237"><ele>34</ele><time>2022-05-22T07:31:13.000Z</time></trkpt><trkpt lon="6.120376" lat="51.109264"><ele>34</ele><time>2022-05-22T07:31:14.000Z</time></trkpt><trkpt lon="6.120482" lat="51.109294"><ele>34</ele><time>2022-05-22T07:31:15.000Z</time></trkpt><trkpt lon="6.120584" lat="51.10932"><ele>34</ele><time>2022-05-22T07:31:16.000Z</time></trkpt><trkpt lon="6.120692" lat="51.109347"><ele>34</ele><time>2022-05-22T07:31:17.000Z</time></trkpt><trkpt lon="6.1208" lat="51.109374"><ele>34</ele><time>2022-05-22T07:31:18.000Z</time></trkpt><trkpt lon="6.120907" lat="51.109401"><ele>34</ele><time>2022-05-22T07:31:19.000Z</time></trkpt><trkpt lon="6.121014" lat="51.109424"><ele>34</ele><time>2022-05-22T07:31:20.000Z</time></trkpt><trkpt lon="6.12112" lat="51.10945"><ele>34.2</ele><time>2022-05-22T07:31:21.000Z</time></trkpt><trkpt lon="6.12123" lat="51.109474"><ele>34.2</ele><time>2022-05-22T07:31:22.000Z</time></trkpt><trkpt lon="6.121337" lat="51.1095"><ele>34.2</ele><time>2022-05-22T07:31:23.000Z</time></trkpt><trkpt lon="6.121445" lat="51.109531"><ele>34</ele><time>2022-05-22T07:31:24.000Z</time></trkpt><trkpt lon="6.12155" lat="51.109557"><ele>34</ele><time>2022-05-22T07:31:25.000Z</time></trkpt><trkpt lon="6.121661" lat="51.109584"><ele>34</ele><time>2022-05-22T07:31:26.000Z</time></trkpt><trkpt lon="6.121767" lat="51.109611"><ele>34</ele><time>2022-05-22T07:31:27.000Z</time></trkpt><trkpt lon="6.121876" lat="51.109638"><ele>34.2</ele><time>2022-05-22T07:31:28.000Z</time></trkpt><trkpt lon="6.121981" lat="51.109664"><ele>34</ele><time>2022-05-22T07:31:29.000Z</time></trkpt><trkpt lon="6.122084" lat="51.109691"><ele>34</ele><time>2022-05-22T07:31:30.000Z</time></trkpt><trkpt lon="6.122192" lat="51.109714"><ele>34</ele><time>2022-05-22T07:31:31.000Z</time></trkpt><trkpt lon="6.122298" lat="51.109744"><ele>34</ele><time>2022-05-22T07:31:32.000Z</time></trkpt><trkpt lon="6.122404" lat="51.109771"><ele>34</ele><time>2022-05-22T07:31:33.000Z</time></trkpt><trkpt lon="6.12251" lat="51.109794"><ele>34</ele><time>2022-05-22T07:31:34.000Z</time></trkpt><trkpt lon="6.122615" lat="51.109821"><ele>34</ele><time>2022-05-22T07:31:35.000Z</time></trkpt><trkpt lon="6.122723" lat="51.109847"><ele>34</ele><time>2022-05-22T07:31:36.000Z</time></trkpt><trkpt lon="6.122833" lat="51.109874"><ele>34</ele><time>2022-05-22T07:31:37.000Z</time></trkpt><trkpt lon="6.12294" lat="51.109901"><ele>34</ele><time>2022-05-22T07:31:38.000Z</time></trkpt><trkpt lon="6.123047" lat="51.109927"><ele>34</ele><time>2022-05-22T07:31:39.000Z</time></trkpt><trkpt lon="6.123156" lat="51.109954"><ele>34</ele><time>2022-05-22T07:31:40.000Z</time></trkpt><trkpt lon="6.123261" lat="51.10998"><ele>34</ele><time>2022-05-22T07:31:41.000Z</time></trkpt><trkpt lon="6.123367" lat="51.110011"><ele>33.8</ele><time>2022-05-22T07:31:42.000Z</time></trkpt><trkpt lon="6.123469" lat="51.110037"><ele>33.8</ele><time>2022-05-22T07:31:43.000Z</time></trkpt><trkpt lon="6.123579" lat="51.110065"><ele>33.6</ele><time>2022-05-22T07:31:44.000Z</time></trkpt><trkpt lon="6.123685" lat="51.110092"><ele>33.6</ele><time>2022-05-22T07:31:45.000Z</time></trkpt><trkpt lon="6.123791" lat="51.110118"><ele>33.8</ele><time>2022-05-22T07:31:46.000Z</time></trkpt><trkpt lon="6.123897" lat="51.110145"><ele>33.8</ele><time>2022-05-22T07:31:47.000Z</time></trkpt><trkpt lon="6.124005" lat="51.110172"><ele>33.8</ele><time>2022-05-22T07:31:48.000Z</time></trkpt><trkpt lon="6.124111" lat="51.110198"><ele>33.8</ele><time>2022-05-22T07:31:49.000Z</time></trkpt><trkpt lon="6.124216" lat="51.110225"><ele>33.8</ele><time>2022-05-22T07:31:50.000Z</time></trkpt><trkpt lon="6.124321" lat="51.110252"><ele>34</ele><time>2022-05-22T07:31:51.000Z</time></trkpt><trkpt lon="6.124427" lat="51.110278"><ele>34</ele><time>2022-05-22T07:31:52.000Z</time></trkpt><trkpt lon="6.124528" lat="51.110304"><ele>34.2</ele><time>2022-05-22T07:31:53.000Z</time></trkpt><trkpt lon="6.124636" lat="51.110328"><ele>34.2</ele><time>2022-05-22T07:31:54.000Z</time></trkpt><trkpt lon="6.124739" lat="51.110355"><ele>34.2</ele><time>2022-05-22T07:31:55.000Z</time></trkpt><trkpt lon="6.124843" lat="51.110382"><ele>34.4</ele><time>2022-05-22T07:31:56.000Z</time></trkpt><trkpt lon="6.124946" lat="51.110408"><ele>34.4</ele><time>2022-05-22T07:31:57.000Z</time></trkpt><trkpt lon="6.125048" lat="51.110434"><ele>34.4</ele><time>2022-05-22T07:31:58.000Z</time></trkpt><trkpt lon="6.125152" lat="51.110461"><ele>34.6</ele><time>2022-05-22T07:31:59.000Z</time></trkpt><trkpt lon="6.125256" lat="51.110488"><ele>34.6</ele><time>2022-05-22T07:32:00.000Z</time></trkpt><trkpt lon="6.125362" lat="51.110511"><ele>34.6</ele><time>2022-05-22T07:32:01.000Z</time></trkpt><trkpt lon="6.125471" lat="51.110523"><ele>34.6</ele><time>2022-05-22T07:32:02.000Z</time></trkpt><trkpt lon="6.125587" lat="51.110523"><ele>34.4</ele><time>2022-05-22T07:32:03.000Z</time></trkpt><trkpt lon="6.1257" lat="51.110512"><ele>34.4</ele><time>2022-05-22T07:32:04.000Z</time></trkpt><trkpt lon="6.125796" lat="51.110487"><ele>34.4</ele><time>2022-05-22T07:32:05.000Z</time></trkpt><trkpt lon="6.125899" lat="51.110448"><ele>34.6</ele><time>2022-05-22T07:32:06.000Z</time></trkpt><trkpt lon="6.12599" lat="51.110399"><ele>34.6</ele><time>2022-05-22T07:32:07.000Z</time></trkpt><trkpt lon="6.126076" lat="51.11035"><ele>34.6</ele><time>2022-05-22T07:32:08.000Z</time></trkpt><trkpt lon="6.126162" lat="51.110299"><ele>34.6</ele><time>2022-05-22T07:32:09.000Z</time></trkpt><trkpt lon="6.126244" lat="51.110249"><ele>34.8</ele><time>2022-05-22T07:32:10.000Z</time></trkpt><trkpt lon="6.126325" lat="51.1102"><ele>34.8</ele><time>2022-05-22T07:32:11.000Z</time></trkpt><trkpt lon="6.126409" lat="51.110151"><ele>34.8</ele><time>2022-05-22T07:32:12.000Z</time></trkpt><trkpt lon="6.126492" lat="51.110101"><ele>34.8</ele><time>2022-05-22T07:32:13.000Z</time></trkpt><trkpt lon="6.126573" lat="51.110051"><ele>34.8</ele><time>2022-05-22T07:32:14.000Z</time></trkpt><trkpt lon="6.12665" lat="51.110005"><ele>34.8</ele><time>2022-05-22T07:32:15.000Z</time></trkpt><trkpt lon="6.126723" lat="51.109956"><ele>34.6</ele><time>2022-05-22T07:32:16.000Z</time></trkpt><trkpt lon="6.126795" lat="51.109915"><ele>34.6</ele><time>2022-05-22T07:32:17.000Z</time></trkpt><trkpt lon="6.126871" lat="51.109868"><ele>34.6</ele><time>2022-05-22T07:32:18.000Z</time></trkpt><trkpt lon="6.126951" lat="51.109834"><ele>34.8</ele><time>2022-05-22T07:32:19.000Z</time></trkpt><trkpt lon="6.127038" lat="51.109799"><ele>34.8</ele><time>2022-05-22T07:32:20.000Z</time></trkpt><trkpt lon="6.127135" lat="51.109784"><ele>34.8</ele><time>2022-05-22T07:32:21.000Z</time></trkpt><trkpt lon="6.127236" lat="51.109779"><ele>34.8</ele><time>2022-05-22T07:32:22.000Z</time></trkpt><trkpt lon="6.127336" lat="51.109798"><ele>34.8</ele><time>2022-05-22T07:32:23.000Z</time></trkpt><trkpt lon="6.12743" lat="51.109836"><ele>34.8</ele><time>2022-05-22T07:32:24.000Z</time></trkpt><trkpt lon="6.127514" lat="51.109881"><ele>34.8</ele><time>2022-05-22T07:32:25.000Z</time></trkpt><trkpt lon="6.127598" lat="51.109931"><ele>35</ele><time>2022-05-22T07:32:26.000Z</time></trkpt><trkpt lon="6.12768" lat="51.109981"><ele>34.8</ele><time>2022-05-22T07:32:27.000Z</time></trkpt><trkpt lon="6.127759" lat="51.11003"><ele>34.8</ele><time>2022-05-22T07:32:28.000Z</time></trkpt><trkpt lon="6.12784" lat="51.110083"><ele>34.8</ele><time>2022-05-22T07:32:29.000Z</time></trkpt><trkpt lon="6.127919" lat="51.110137"><ele>34.8</ele><time>2022-05-22T07:32:30.000Z</time></trkpt><trkpt lon="6.128" lat="51.110189"><ele>34.8</ele><time>2022-05-22T07:32:31.000Z</time></trkpt><trkpt lon="6.128084" lat="51.110247"><ele>34.8</ele><time>2022-05-22T07:32:32.000Z</time></trkpt><trkpt lon="6.128166" lat="51.110297"><ele>34.8</ele><time>2022-05-22T07:32:33.000Z</time></trkpt><trkpt lon="6.128248" lat="51.11035"><ele>34.8</ele><time>2022-05-22T07:32:34.000Z</time></trkpt><trkpt lon="6.128329" lat="51.110403"><ele>34.8</ele><time>2022-05-22T07:32:35.000Z</time></trkpt><trkpt lon="6.12841" lat="51.110457"><ele>35</ele><time>2022-05-22T07:32:36.000Z</time></trkpt><trkpt lon="6.128491" lat="51.110506"><ele>34.8</ele><time>2022-05-22T07:32:37.000Z</time></trkpt><trkpt lon="6.128569" lat="51.110556"><ele>34.8</ele><time>2022-05-22T07:32:38.000Z</time></trkpt><trkpt lon="6.128646" lat="51.110613"><ele>34.8</ele><time>2022-05-22T07:32:39.000Z</time></trkpt><trkpt lon="6.128716" lat="51.11067"><ele>34.8</ele><time>2022-05-22T07:32:40.000Z</time></trkpt><trkpt lon="6.128775" lat="51.110739"><ele>34.8</ele><time>2022-05-22T07:32:41.000Z</time></trkpt><trkpt lon="6.128817" lat="51.110811"><ele>34.8</ele><time>2022-05-22T07:32:42.000Z</time></trkpt><trkpt lon="6.128844" lat="51.110883"><ele>34.8</ele><time>2022-05-22T07:32:43.000Z</time></trkpt><trkpt lon="6.128856" lat="51.110957"><ele>34.6</ele><time>2022-05-22T07:32:44.000Z</time></trkpt><trkpt lon="6.128863" lat="51.111029"><ele>34.8</ele><time>2022-05-22T07:32:45.000Z</time></trkpt><trkpt lon="6.128863" lat="51.111105"><ele>34.8</ele><time>2022-05-22T07:32:46.000Z</time></trkpt><trkpt lon="6.128867" lat="51.111178"><ele>34.8</ele><time>2022-05-22T07:32:47.000Z</time></trkpt><trkpt lon="6.128878" lat="51.111249"><ele>34.8</ele><time>2022-05-22T07:32:48.000Z</time></trkpt><trkpt lon="6.128901" lat="51.111322"><ele>34.6</ele><time>2022-05-22T07:32:49.000Z</time></trkpt><trkpt lon="6.128937" lat="51.111395"><ele>34.6</ele><time>2022-05-22T07:32:50.000Z</time></trkpt><trkpt lon="6.128987" lat="51.11146"><ele>34.6</ele><time>2022-05-22T07:32:51.000Z</time></trkpt><trkpt lon="6.129041" lat="51.111525"><ele>34.6</ele><time>2022-05-22T07:32:52.000Z</time></trkpt><trkpt lon="6.129102" lat="51.111592"><ele>34.6</ele><time>2022-05-22T07:32:53.000Z</time></trkpt><trkpt lon="6.129161" lat="51.111649"><ele>34.8</ele><time>2022-05-22T07:32:54.000Z</time></trkpt><trkpt lon="6.129233" lat="51.111719"><ele>34.8</ele><time>2022-05-22T07:32:55.000Z</time></trkpt><trkpt lon="6.129301" lat="51.111784"><ele>35</ele><time>2022-05-22T07:32:56.000Z</time></trkpt><trkpt lon="6.12937" lat="51.111845"><ele>35</ele><time>2022-05-22T07:32:57.000Z</time></trkpt><trkpt lon="6.129436" lat="51.111909"><ele>35</ele><time>2022-05-22T07:32:58.000Z</time></trkpt><trkpt lon="6.129501" lat="51.111971"><ele>35</ele><time>2022-05-22T07:32:59.000Z</time></trkpt><trkpt lon="6.129565" lat="51.112032"><ele>35</ele><time>2022-05-22T07:33:00.000Z</time></trkpt><trkpt lon="6.129627" lat="51.112092"><ele>35.2</ele><time>2022-05-22T07:33:01.000Z</time></trkpt><trkpt lon="6.12969" lat="51.112154"><ele>35.2</ele><time>2022-05-22T07:33:02.000Z</time></trkpt><trkpt lon="6.129751" lat="51.112211"><ele>35.2</ele><time>2022-05-22T07:33:03.000Z</time></trkpt><trkpt lon="6.129814" lat="51.112273"><ele>35.2</ele><time>2022-05-22T07:33:04.000Z</time></trkpt><trkpt lon="6.129874" lat="51.112334"><ele>35.2</ele><time>2022-05-22T07:33:05.000Z</time></trkpt><trkpt lon="6.129936" lat="51.11239"><ele>35.2</ele><time>2022-05-22T07:33:06.000Z</time></trkpt><trkpt lon="6.129997" lat="51.112452"><ele>35.2</ele><time>2022-05-22T07:33:07.000Z</time></trkpt><trkpt lon="6.130058" lat="51.112509"><ele>35.2</ele><time>2022-05-22T07:33:08.000Z</time></trkpt><trkpt lon="6.130122" lat="51.11257"><ele>35.2</ele><time>2022-05-22T07:33:09.000Z</time></trkpt><trkpt lon="6.130187" lat="51.112631"><ele>35.2</ele><time>2022-05-22T07:33:10.000Z</time></trkpt><trkpt lon="6.13025" lat="51.11269"><ele>35.2</ele><time>2022-05-22T07:33:11.000Z</time></trkpt><trkpt lon="6.130314" lat="51.112753"><ele>35.2</ele><time>2022-05-22T07:33:12.000Z</time></trkpt><trkpt lon="6.130379" lat="51.112815"><ele>35.2</ele><time>2022-05-22T07:33:13.000Z</time></trkpt><trkpt lon="6.130441" lat="51.112875"><ele>35.2</ele><time>2022-05-22T07:33:14.000Z</time></trkpt><trkpt lon="6.130502" lat="51.112932"><ele>35.2</ele><time>2022-05-22T07:33:15.000Z</time></trkpt><trkpt lon="6.130563" lat="51.112993"><ele>35.2</ele><time>2022-05-22T07:33:16.000Z</time></trkpt><trkpt lon="6.130623" lat="51.11305"><ele>35.2</ele><time>2022-05-22T07:33:17.000Z</time></trkpt><trkpt lon="6.130686" lat="51.113111"><ele>35.4</ele><time>2022-05-22T07:33:18.000Z</time></trkpt><trkpt lon="6.13075" lat="51.113173"><ele>35.4</ele><time>2022-05-22T07:33:19.000Z</time></trkpt><trkpt lon="6.130811" lat="51.113234"><ele>35.4</ele><time>2022-05-22T07:33:20.000Z</time></trkpt><trkpt lon="6.130875" lat="51.113295"><ele>35.4</ele><time>2022-05-22T07:33:21.000Z</time></trkpt><trkpt lon="6.130939" lat="51.113356"><ele>35.4</ele><time>2022-05-22T07:33:22.000Z</time></trkpt><trkpt lon="6.131002" lat="51.113412"><ele>35.4</ele><time>2022-05-22T07:33:23.000Z</time></trkpt><trkpt lon="6.131065" lat="51.113474"><ele>35.4</ele><time>2022-05-22T07:33:24.000Z</time></trkpt><trkpt lon="6.131125" lat="51.113535"><ele>35.4</ele><time>2022-05-22T07:33:25.000Z</time></trkpt><trkpt lon="6.131187" lat="51.113593"><ele>35.4</ele><time>2022-05-22T07:33:26.000Z</time></trkpt><trkpt lon="6.131245" lat="51.11365"><ele>35.4</ele><time>2022-05-22T07:33:27.000Z</time></trkpt><trkpt lon="6.131302" lat="51.113707"><ele>35.4</ele><time>2022-05-22T07:33:28.000Z</time></trkpt><trkpt lon="6.131357" lat="51.113759"><ele>35.4</ele><time>2022-05-22T07:33:29.000Z</time></trkpt><trkpt lon="6.131416" lat="51.113814"><ele>35.4</ele><time>2022-05-22T07:33:30.000Z</time></trkpt><trkpt lon="6.131469" lat="51.113868"><ele>35.4</ele><time>2022-05-22T07:33:31.000Z</time></trkpt><trkpt lon="6.131521" lat="51.113917"><ele>35.6</ele><time>2022-05-22T07:33:32.000Z</time></trkpt><trkpt lon="6.131567" lat="51.113959"><ele>35.6</ele><time>2022-05-22T07:33:33.000Z</time></trkpt><trkpt lon="6.131612" lat="51.114005"><ele>35.6</ele><time>2022-05-22T07:33:34.000Z</time></trkpt><trkpt lon="6.131652" lat="51.114047"><ele>35.6</ele><time>2022-05-22T07:33:35.000Z</time></trkpt><trkpt lon="6.131687" lat="51.114085"><ele>35.8</ele><time>2022-05-22T07:33:36.000Z</time></trkpt><trkpt lon="6.131721" lat="51.114116"><ele>35.8</ele><time>2022-05-22T07:33:37.000Z</time></trkpt><trkpt lon="6.131752" lat="51.114139"><ele>36</ele><time>2022-05-22T07:33:38.000Z</time></trkpt><trkpt lon="6.131785" lat="51.114161"><ele>36</ele><time>2022-05-22T07:33:39.000Z</time></trkpt><trkpt lon="6.131819" lat="51.114188"><ele>36</ele><time>2022-05-22T07:33:40.000Z</time></trkpt><trkpt lon="6.131846" lat="51.114219"><ele>36</ele><time>2022-05-22T07:33:41.000Z</time></trkpt><trkpt lon="6.131868" lat="51.11425"><ele>36</ele><time>2022-05-22T07:33:42.000Z</time></trkpt><trkpt lon="6.131896" lat="51.114272"><ele>35.8</ele><time>2022-05-22T07:33:43.000Z</time></trkpt><trkpt lon="6.13194" lat="51.114273"><ele>35.8</ele><time>2022-05-22T07:33:44.000Z</time></trkpt><trkpt lon="6.131995" lat="51.114262"><ele>35.8</ele><time>2022-05-22T07:33:45.000Z</time></trkpt><trkpt lon="6.132055" lat="51.114247"><ele>35.8</ele><time>2022-05-22T07:33:46.000Z</time></trkpt><trkpt lon="6.132117" lat="51.114228"><ele>35.8</ele><time>2022-05-22T07:33:47.000Z</time></trkpt><trkpt lon="6.132187" lat="51.114205"><ele>35.8</ele><time>2022-05-22T07:33:48.000Z</time></trkpt><trkpt lon="6.132263" lat="51.114178"><ele>36</ele><time>2022-05-22T07:33:49.000Z</time></trkpt><trkpt lon="6.132347" lat="51.114144"><ele>36</ele><time>2022-05-22T07:33:50.000Z</time></trkpt><trkpt lon="6.132423" lat="51.11411"><ele>36</ele><time>2022-05-22T07:33:51.000Z</time></trkpt><trkpt lon="6.132523" lat="51.114064"><ele>36</ele><time>2022-05-22T07:33:52.000Z</time></trkpt><trkpt lon="6.132607" lat="51.114028"><ele>36</ele><time>2022-05-22T07:33:53.000Z</time></trkpt><trkpt lon="6.132701" lat="51.113985"><ele>36</ele><time>2022-05-22T07:33:54.000Z</time></trkpt><trkpt lon="6.132794" lat="51.113946"><ele>36</ele><time>2022-05-22T07:33:55.000Z</time></trkpt><trkpt lon="6.132881" lat="51.113909"><ele>36.2</ele><time>2022-05-22T07:33:56.000Z</time></trkpt><trkpt lon="6.132969" lat="51.11387"><ele>36.2</ele><time>2022-05-22T07:33:57.000Z</time></trkpt><trkpt lon="6.133054" lat="51.113831"><ele>36.2</ele><time>2022-05-22T07:33:58.000Z</time></trkpt><trkpt lon="6.133137" lat="51.113794"><ele>36.4</ele><time>2022-05-22T07:33:59.000Z</time></trkpt><trkpt lon="6.133223" lat="51.113759"><ele>36.4</ele><time>2022-05-22T07:34:00.000Z</time></trkpt><trkpt lon="6.133307" lat="51.113725"><ele>36.4</ele><time>2022-05-22T07:34:01.000Z</time></trkpt><trkpt lon="6.133391" lat="51.113698"><ele>36.6</ele><time>2022-05-22T07:34:02.000Z</time></trkpt><trkpt lon="6.133481" lat="51.113679"><ele>36.6</ele><time>2022-05-22T07:34:03.000Z</time></trkpt><trkpt lon="6.133582" lat="51.113667"><ele>36.6</ele><time>2022-05-22T07:34:04.000Z</time></trkpt><trkpt lon="6.133683" lat="51.113659"><ele>36.6</ele><time>2022-05-22T07:34:05.000Z</time></trkpt><trkpt lon="6.133787" lat="51.113648"><ele>36.6</ele><time>2022-05-22T07:34:06.000Z</time></trkpt><trkpt lon="6.133892" lat="51.11364"><ele>36.8</ele><time>2022-05-22T07:34:07.000Z</time></trkpt><trkpt lon="6.134001" lat="51.113632"><ele>36.8</ele><time>2022-05-22T07:34:08.000Z</time></trkpt><trkpt lon="6.134107" lat="51.113621"><ele>36.8</ele><time>2022-05-22T07:34:09.000Z</time></trkpt><trkpt lon="6.134214" lat="51.113613"><ele>36.8</ele><time>2022-05-22T07:34:10.000Z</time></trkpt><trkpt lon="6.134324" lat="51.113602"><ele>36.8</ele><time>2022-05-22T07:34:11.000Z</time></trkpt><trkpt lon="6.134437" lat="51.113591"><ele>37</ele><time>2022-05-22T07:34:12.000Z</time></trkpt><trkpt lon="6.134547" lat="51.113583"><ele>37</ele><time>2022-05-22T07:34:13.000Z</time></trkpt><trkpt lon="6.134658" lat="51.113575"><ele>37</ele><time>2022-05-22T07:34:14.000Z</time></trkpt><trkpt lon="6.134769" lat="51.113564"><ele>37</ele><time>2022-05-22T07:34:15.000Z</time></trkpt><trkpt lon="6.134882" lat="51.113552"><ele>37</ele><time>2022-05-22T07:34:16.000Z</time></trkpt><trkpt lon="6.134992" lat="51.113545"><ele>37</ele><time>2022-05-22T07:34:17.000Z</time></trkpt><trkpt lon="6.135103" lat="51.113533"><ele>37</ele><time>2022-05-22T07:34:18.000Z</time></trkpt><trkpt lon="6.135211" lat="51.113522"><ele>37</ele><time>2022-05-22T07:34:19.000Z</time></trkpt><trkpt lon="6.13532" lat="51.113511"><ele>37.2</ele><time>2022-05-22T07:34:20.000Z</time></trkpt><trkpt lon="6.135424" lat="51.113503"><ele>37</ele><time>2022-05-22T07:34:21.000Z</time></trkpt><trkpt lon="6.135536" lat="51.113491"><ele>37.2</ele><time>2022-05-22T07:34:22.000Z</time></trkpt><trkpt lon="6.135641" lat="51.113484"><ele>37.2</ele><time>2022-05-22T07:34:23.000Z</time></trkpt><trkpt lon="6.135749" lat="51.113472"><ele>37.2</ele><time>2022-05-22T07:34:24.000Z</time></trkpt><trkpt lon="6.135856" lat="51.113465"><ele>37.2</ele><time>2022-05-22T07:34:25.000Z</time></trkpt><trkpt lon="6.135964" lat="51.113453"><ele>37.4</ele><time>2022-05-22T07:34:26.000Z</time></trkpt><trkpt lon="6.136069" lat="51.113442"><ele>37.4</ele><time>2022-05-22T07:34:27.000Z</time></trkpt><trkpt lon="6.136182" lat="51.113434"><ele>37.4</ele><time>2022-05-22T07:34:28.000Z</time></trkpt><trkpt lon="6.136289" lat="51.113423"><ele>37.6</ele><time>2022-05-22T07:34:29.000Z</time></trkpt><trkpt lon="6.1364" lat="51.113411"><ele>37.6</ele><time>2022-05-22T07:34:30.000Z</time></trkpt><trkpt lon="6.136507" lat="51.113404"><ele>37.6</ele><time>2022-05-22T07:34:31.000Z</time></trkpt><trkpt lon="6.136616" lat="51.113392"><ele>37.8</ele><time>2022-05-22T07:34:32.000Z</time></trkpt><trkpt lon="6.136721" lat="51.113381"><ele>37.8</ele><time>2022-05-22T07:34:33.000Z</time></trkpt><trkpt lon="6.136827" lat="51.113373"><ele>37.8</ele><time>2022-05-22T07:34:34.000Z</time></trkpt><trkpt lon="6.136934" lat="51.113366"><ele>37.8</ele><time>2022-05-22T07:34:35.000Z</time></trkpt><trkpt lon="6.137043" lat="51.113354"><ele>38</ele><time>2022-05-22T07:34:36.000Z</time></trkpt><trkpt lon="6.137147" lat="51.113343"><ele>38</ele><time>2022-05-22T07:34:37.000Z</time></trkpt><trkpt lon="6.137253" lat="51.113335"><ele>38</ele><time>2022-05-22T07:34:38.000Z</time></trkpt><trkpt lon="6.137357" lat="51.113324"><ele>38</ele><time>2022-05-22T07:34:39.000Z</time></trkpt><trkpt lon="6.137464" lat="51.113316"><ele>38.2</ele><time>2022-05-22T07:34:40.000Z</time></trkpt><trkpt lon="6.137565" lat="51.113305"><ele>38.2</ele><time>2022-05-22T07:34:41.000Z</time></trkpt><trkpt lon="6.137673" lat="51.113293"><ele>38.2</ele><time>2022-05-22T07:34:42.000Z</time></trkpt><trkpt lon="6.137777" lat="51.113286"><ele>38.2</ele><time>2022-05-22T07:34:43.000Z</time></trkpt><trkpt lon="6.137885" lat="51.113274"><ele>38.2</ele><time>2022-05-22T07:34:44.000Z</time></trkpt><trkpt lon="6.137985" lat="51.113263"><ele>38.4</ele><time>2022-05-22T07:34:45.000Z</time></trkpt><trkpt lon="6.138092" lat="51.113255"><ele>38.4</ele><time>2022-05-22T07:34:46.000Z</time></trkpt><trkpt lon="6.138194" lat="51.113244"><ele>38.6</ele><time>2022-05-22T07:34:47.000Z</time></trkpt><trkpt lon="6.1383" lat="51.113232"><ele>38.8</ele><time>2022-05-22T07:34:48.000Z</time></trkpt><trkpt lon="6.138402" lat="51.113221"><ele>38.8</ele><time>2022-05-22T07:34:49.000Z</time></trkpt><trkpt lon="6.138509" lat="51.113209"><ele>38.8</ele><time>2022-05-22T07:34:50.000Z</time></trkpt><trkpt lon="6.138608" lat="51.113198"><ele>38.8</ele><time>2022-05-22T07:34:51.000Z</time></trkpt><trkpt lon="6.138717" lat="51.113186"><ele>38.8</ele><time>2022-05-22T07:34:52.000Z</time></trkpt><trkpt lon="6.138816" lat="51.113175"><ele>38.8</ele><time>2022-05-22T07:34:53.000Z</time></trkpt><trkpt lon="6.138911" lat="51.113164"><ele>38.8</ele><time>2022-05-22T07:34:54.000Z</time></trkpt><trkpt lon="6.139015" lat="51.113152"><ele>39</ele><time>2022-05-22T07:34:55.000Z</time></trkpt><trkpt lon="6.139114" lat="51.113141"><ele>39</ele><time>2022-05-22T07:34:56.000Z</time></trkpt><trkpt lon="6.139211" lat="51.113126"><ele>39</ele><time>2022-05-22T07:34:57.000Z</time></trkpt><trkpt lon="6.139308" lat="51.11311"><ele>39</ele><time>2022-05-22T07:34:58.000Z</time></trkpt><trkpt lon="6.1394" lat="51.113099"><ele>39</ele><time>2022-05-22T07:34:59.000Z</time></trkpt><trkpt lon="6.139494" lat="51.113083"><ele>39.2</ele><time>2022-05-22T07:35:00.000Z</time></trkpt><trkpt lon="6.139582" lat="51.113072"><ele>39.2</ele><time>2022-05-22T07:35:01.000Z</time></trkpt><trkpt lon="6.13967" lat="51.11306"><ele>39.2</ele><time>2022-05-22T07:35:02.000Z</time></trkpt><trkpt lon="6.139752" lat="51.113049"><ele>39.4</ele><time>2022-05-22T07:35:03.000Z</time></trkpt><trkpt lon="6.139833" lat="51.113041"><ele>39.4</ele><time>2022-05-22T07:35:04.000Z</time></trkpt><trkpt lon="6.139908" lat="51.113034"><ele>39.4</ele><time>2022-05-22T07:35:05.000Z</time></trkpt><trkpt lon="6.139983" lat="51.113026"><ele>39.6</ele><time>2022-05-22T07:35:06.000Z</time></trkpt><trkpt lon="6.140053" lat="51.113022"><ele>39.6</ele><time>2022-05-22T07:35:07.000Z</time></trkpt><trkpt lon="6.140122" lat="51.113018"><ele>39.6</ele><time>2022-05-22T07:35:08.000Z</time></trkpt><trkpt lon="6.140185" lat="51.113022"><ele>39.8</ele><time>2022-05-22T07:35:09.000Z</time></trkpt><trkpt lon="6.140237" lat="51.113044"><ele>39.8</ele><time>2022-05-22T07:35:10.000Z</time></trkpt><trkpt lon="6.140275" lat="51.113069"><ele>39.8</ele><time>2022-05-22T07:35:11.000Z</time></trkpt><trkpt lon="6.140312" lat="51.113094"><ele>39.8</ele><time>2022-05-22T07:35:12.000Z</time></trkpt><trkpt lon="6.140344" lat="51.113113"><ele>39.8</ele><time>2022-05-22T07:35:13.000Z</time></trkpt><trkpt lon="6.140376" lat="51.113132"><ele>39.8</ele><time>2022-05-22T07:35:14.000Z</time></trkpt><trkpt lon="6.140418" lat="51.113136"><ele>40</ele><time>2022-05-22T07:35:15.000Z</time></trkpt><trkpt lon="6.140467" lat="51.113129"><ele>40</ele><time>2022-05-22T07:35:16.000Z</time></trkpt><trkpt lon="6.140522" lat="51.113121"><ele>40</ele><time>2022-05-22T07:35:17.000Z</time></trkpt><trkpt lon="6.140589" lat="51.11311"><ele>40</ele><time>2022-05-22T07:35:18.000Z</time></trkpt><trkpt lon="6.140656" lat="51.113099"><ele>40</ele><time>2022-05-22T07:35:19.000Z</time></trkpt><trkpt lon="6.140717" lat="51.113076"><ele>39.8</ele><time>2022-05-22T07:35:20.000Z</time></trkpt><trkpt lon="6.140762" lat="51.113035"><ele>39.8</ele><time>2022-05-22T07:35:21.000Z</time></trkpt><trkpt lon="6.140802" lat="51.112986"><ele>39.8</ele><time>2022-05-22T07:35:22.000Z</time></trkpt><trkpt lon="6.140859" lat="51.112935"><ele>39.8</ele><time>2022-05-22T07:35:23.000Z</time></trkpt><trkpt lon="6.140932" lat="51.112898"><ele>39.8</ele><time>2022-05-22T07:35:24.000Z</time></trkpt><trkpt lon="6.141023" lat="51.11287"><ele>39.8</ele><time>2022-05-22T07:35:25.000Z</time></trkpt><trkpt lon="6.141122" lat="51.112851"><ele>39.8</ele><time>2022-05-22T07:35:26.000Z</time></trkpt><trkpt lon="6.141226" lat="51.112832"><ele>39.8</ele><time>2022-05-22T07:35:27.000Z</time></trkpt><trkpt lon="6.141325" lat="51.112816"><ele>39.8</ele><time>2022-05-22T07:35:28.000Z</time></trkpt><trkpt lon="6.141427" lat="51.112797"><ele>40</ele><time>2022-05-22T07:35:29.000Z</time></trkpt><trkpt lon="6.141531" lat="51.112782"><ele>40</ele><time>2022-05-22T07:35:30.000Z</time></trkpt><trkpt lon="6.141633" lat="51.11277"><ele>40</ele><time>2022-05-22T07:35:31.000Z</time></trkpt><trkpt lon="6.141738" lat="51.112751"><ele>40.2</ele><time>2022-05-22T07:35:32.000Z</time></trkpt><trkpt lon="6.141841" lat="51.112736"><ele>40.2</ele><time>2022-05-22T07:35:33.000Z</time></trkpt><trkpt lon="6.141945" lat="51.112721"><ele>40.4</ele><time>2022-05-22T07:35:34.000Z</time></trkpt><trkpt lon="6.142053" lat="51.112706"><ele>40.4</ele><time>2022-05-22T07:35:35.000Z</time></trkpt><trkpt lon="6.142157" lat="51.112691"><ele>40.4</ele><time>2022-05-22T07:35:36.000Z</time></trkpt><trkpt lon="6.142266" lat="51.112675"><ele>40.4</ele><time>2022-05-22T07:35:37.000Z</time></trkpt><trkpt lon="6.142371" lat="51.112663"><ele>40.4</ele><time>2022-05-22T07:35:38.000Z</time></trkpt><trkpt lon="6.142472" lat="51.112648"><ele>40.4</ele><time>2022-05-22T07:35:39.000Z</time></trkpt><trkpt lon="6.142574" lat="51.112633"><ele>40.6</ele><time>2022-05-22T07:35:40.000Z</time></trkpt><trkpt lon="6.142676" lat="51.112618"><ele>40.6</ele><time>2022-05-22T07:35:41.000Z</time></trkpt><trkpt lon="6.142774" lat="51.112603"><ele>40.8</ele><time>2022-05-22T07:35:42.000Z</time></trkpt><trkpt lon="6.142873" lat="51.112591"><ele>41</ele><time>2022-05-22T07:35:43.000Z</time></trkpt><trkpt lon="6.142971" lat="51.11258"><ele>41</ele><time>2022-05-22T07:35:44.000Z</time></trkpt><trkpt lon="6.143071" lat="51.112568"><ele>41</ele><time>2022-05-22T07:35:45.000Z</time></trkpt><trkpt lon="6.143167" lat="51.112557"><ele>41.2</ele><time>2022-05-22T07:35:46.000Z</time></trkpt><trkpt lon="6.143259" lat="51.112549"><ele>41.4</ele><time>2022-05-22T07:35:47.000Z</time></trkpt><trkpt lon="6.143352" lat="51.112538"><ele>41.4</ele><time>2022-05-22T07:35:48.000Z</time></trkpt><trkpt lon="6.143446" lat="51.11253"><ele>41.6</ele><time>2022-05-22T07:35:49.000Z</time></trkpt><trkpt lon="6.143533" lat="51.112515"><ele>41.6</ele><time>2022-05-22T07:35:50.000Z</time></trkpt><trkpt lon="6.143621" lat="51.112503"><ele>41.6</ele><time>2022-05-22T07:35:51.000Z</time></trkpt><trkpt lon="6.143709" lat="51.112492"><ele>41.6</ele><time>2022-05-22T07:35:52.000Z</time></trkpt><trkpt lon="6.143796" lat="51.112481"><ele>41.6</ele><time>2022-05-22T07:35:53.000Z</time></trkpt><trkpt lon="6.143887" lat="51.112473"><ele>41.6</ele><time>2022-05-22T07:35:54.000Z</time></trkpt><trkpt lon="6.143982" lat="51.112461"><ele>41.6</ele><time>2022-05-22T07:35:55.000Z</time></trkpt><trkpt lon="6.144081" lat="51.112454"><ele>41.6</ele><time>2022-05-22T07:35:56.000Z</time></trkpt><trkpt lon="6.144185" lat="51.112446"><ele>41.6</ele><time>2022-05-22T07:35:57.000Z</time></trkpt><trkpt lon="6.144292" lat="51.112442"><ele>41.6</ele><time>2022-05-22T07:35:58.000Z</time></trkpt><trkpt lon="6.1444" lat="51.112442"><ele>41.6</ele><time>2022-05-22T07:35:59.000Z</time></trkpt><trkpt lon="6.14451" lat="51.112442"><ele>41.6</ele><time>2022-05-22T07:36:00.000Z</time></trkpt><trkpt lon="6.144616" lat="51.112446"><ele>41.6</ele><time>2022-05-22T07:36:01.000Z</time></trkpt><trkpt lon="6.144725" lat="51.112449"><ele>41.6</ele><time>2022-05-22T07:36:02.000Z</time></trkpt><trkpt lon="6.144835" lat="51.112453"><ele>41.6</ele><time>2022-05-22T07:36:03.000Z</time></trkpt><trkpt lon="6.144943" lat="51.112461"><ele>41.6</ele><time>2022-05-22T07:36:04.000Z</time></trkpt><trkpt lon="6.145045" lat="51.112465"><ele>41.8</ele><time>2022-05-22T07:36:05.000Z</time></trkpt><trkpt lon="6.145145" lat="51.112472"><ele>41.8</ele><time>2022-05-22T07:36:06.000Z</time></trkpt><trkpt lon="6.145247" lat="51.112476"><ele>41.8</ele><time>2022-05-22T07:36:07.000Z</time></trkpt><trkpt lon="6.145347" lat="51.11248"><ele>42</ele><time>2022-05-22T07:36:08.000Z</time></trkpt><trkpt lon="6.145447" lat="51.112488"><ele>42</ele><time>2022-05-22T07:36:09.000Z</time></trkpt><trkpt lon="6.145552" lat="51.112484"><ele>42.2</ele><time>2022-05-22T07:36:10.000Z</time></trkpt><trkpt lon="6.145654" lat="51.11248"><ele>42.2</ele><time>2022-05-22T07:36:11.000Z</time></trkpt><trkpt lon="6.145755" lat="51.11248"><ele>42.4</ele><time>2022-05-22T07:36:12.000Z</time></trkpt><trkpt lon="6.145857" lat="51.112484"><ele>42.4</ele><time>2022-05-22T07:36:13.000Z</time></trkpt><trkpt lon="6.14596" lat="51.112484"><ele>42.4</ele><time>2022-05-22T07:36:14.000Z</time></trkpt><trkpt lon="6.146061" lat="51.112491"><ele>42.6</ele><time>2022-05-22T07:36:15.000Z</time></trkpt><trkpt lon="6.146162" lat="51.112495"><ele>42.6</ele><time>2022-05-22T07:36:16.000Z</time></trkpt><trkpt lon="6.146262" lat="51.112507"><ele>42.6</ele><time>2022-05-22T07:36:17.000Z</time></trkpt><trkpt lon="6.146361" lat="51.112514"><ele>42.8</ele><time>2022-05-22T07:36:18.000Z</time></trkpt><trkpt lon="6.146462" lat="51.112526"><ele>42.8</ele><time>2022-05-22T07:36:19.000Z</time></trkpt><trkpt lon="6.146562" lat="51.112541"><ele>42.8</ele><time>2022-05-22T07:36:20.000Z</time></trkpt><trkpt lon="6.146662" lat="51.112556"><ele>42.8</ele><time>2022-05-22T07:36:21.000Z</time></trkpt><trkpt lon="6.146766" lat="51.112568"><ele>43</ele><time>2022-05-22T07:36:22.000Z</time></trkpt><trkpt lon="6.146869" lat="51.112583"><ele>43</ele><time>2022-05-22T07:36:23.000Z</time></trkpt><trkpt lon="6.146972" lat="51.112594"><ele>43.2</ele><time>2022-05-22T07:36:24.000Z</time></trkpt><trkpt lon="6.147071" lat="51.112606"><ele>43.4</ele><time>2022-05-22T07:36:25.000Z</time></trkpt><trkpt lon="6.147165" lat="51.112621"><ele>43.4</ele><time>2022-05-22T07:36:26.000Z</time></trkpt><trkpt lon="6.147259" lat="51.112632"><ele>43.4</ele><time>2022-05-22T07:36:27.000Z</time></trkpt><trkpt lon="6.147352" lat="51.112651"><ele>43.4</ele><time>2022-05-22T07:36:28.000Z</time></trkpt><trkpt lon="6.147448" lat="51.112663"><ele>43.4</ele><time>2022-05-22T07:36:29.000Z</time></trkpt><trkpt lon="6.147552" lat="51.112678"><ele>43.6</ele><time>2022-05-22T07:36:30.000Z</time></trkpt><trkpt lon="6.147655" lat="51.11269"><ele>43.6</ele><time>2022-05-22T07:36:31.000Z</time></trkpt><trkpt lon="6.147757" lat="51.112705"><ele>43.6</ele><time>2022-05-22T07:36:32.000Z</time></trkpt><trkpt lon="6.147855" lat="51.11272"><ele>43.8</ele><time>2022-05-22T07:36:33.000Z</time></trkpt><trkpt lon="6.147951" lat="51.112746"><ele>43.8</ele><time>2022-05-22T07:36:34.000Z</time></trkpt><trkpt lon="6.148046" lat="51.112773"><ele>44</ele><time>2022-05-22T07:36:35.000Z</time></trkpt><trkpt lon="6.14814" lat="51.112796"><ele>44</ele><time>2022-05-22T07:36:36.000Z</time></trkpt><trkpt lon="6.148236" lat="51.112822"><ele>44.2</ele><time>2022-05-22T07:36:37.000Z</time></trkpt><trkpt lon="6.148332" lat="51.112846"><ele>44.2</ele><time>2022-05-22T07:36:38.000Z</time></trkpt><trkpt lon="6.14843" lat="51.112865"><ele>44.2</ele><time>2022-05-22T07:36:39.000Z</time></trkpt><trkpt lon="6.148524" lat="51.112883"><ele>44.4</ele><time>2022-05-22T07:36:40.000Z</time></trkpt><trkpt lon="6.14862" lat="51.112899"><ele>44.4</ele><time>2022-05-22T07:36:41.000Z</time></trkpt><trkpt lon="6.148712" lat="51.112918"><ele>44.6</ele><time>2022-05-22T07:36:42.000Z</time></trkpt><trkpt lon="6.148807" lat="51.112937"><ele>44.6</ele><time>2022-05-22T07:36:43.000Z</time></trkpt><trkpt lon="6.148902" lat="51.112956"><ele>44.6</ele><time>2022-05-22T07:36:44.000Z</time></trkpt><trkpt lon="6.148997" lat="51.112983"><ele>44.8</ele><time>2022-05-22T07:36:45.000Z</time></trkpt><trkpt lon="6.149089" lat="51.11301"><ele>44.8</ele><time>2022-05-22T07:36:46.000Z</time></trkpt><trkpt lon="6.149177" lat="51.11304"><ele>44.6</ele><time>2022-05-22T07:36:47.000Z</time></trkpt><trkpt lon="6.149262" lat="51.113071"><ele>44.8</ele><time>2022-05-22T07:36:48.000Z</time></trkpt><trkpt lon="6.149345" lat="51.113101"><ele>44.8</ele><time>2022-05-22T07:36:49.000Z</time></trkpt><trkpt lon="6.149424" lat="51.113128"><ele>44.8</ele><time>2022-05-22T07:36:50.000Z</time></trkpt><trkpt lon="6.149499" lat="51.113161"><ele>44.8</ele><time>2022-05-22T07:36:51.000Z</time></trkpt><trkpt lon="6.149577" lat="51.113192"><ele>45</ele><time>2022-05-22T07:36:52.000Z</time></trkpt><trkpt lon="6.149653" lat="51.113219"><ele>45</ele><time>2022-05-22T07:36:53.000Z</time></trkpt><trkpt lon="6.149733" lat="51.113246"><ele>45.2</ele><time>2022-05-22T07:36:54.000Z</time></trkpt><trkpt lon="6.149819" lat="51.113265"><ele>45.2</ele><time>2022-05-22T07:36:55.000Z</time></trkpt><trkpt lon="6.149909" lat="51.11327"><ele>45.2</ele><time>2022-05-22T07:36:56.000Z</time></trkpt><trkpt lon="6.149999" lat="51.113263"><ele>45.2</ele><time>2022-05-22T07:36:57.000Z</time></trkpt><trkpt lon="6.150094" lat="51.113251"><ele>45.2</ele><time>2022-05-22T07:36:58.000Z</time></trkpt><trkpt lon="6.150181" lat="51.113236"><ele>45.2</ele><time>2022-05-22T07:36:59.000Z</time></trkpt><trkpt lon="6.150268" lat="51.113221"><ele>45.2</ele><time>2022-05-22T07:37:00.000Z</time></trkpt><trkpt lon="6.150347" lat="51.113206"><ele>45.4</ele><time>2022-05-22T07:37:01.000Z</time></trkpt><trkpt lon="6.150424" lat="51.113194"><ele>45.4</ele><time>2022-05-22T07:37:02.000Z</time></trkpt><trkpt lon="6.150491" lat="51.113197"><ele>45.4</ele><time>2022-05-22T07:37:03.000Z</time></trkpt><trkpt lon="6.150545" lat="51.113223"><ele>45.4</ele><time>2022-05-22T07:37:04.000Z</time></trkpt><trkpt lon="6.150574" lat="51.113261"><ele>45.4</ele><time>2022-05-22T07:37:05.000Z</time></trkpt><trkpt lon="6.15058" lat="51.113306"><ele>45.4</ele><time>2022-05-22T07:37:06.000Z</time></trkpt><trkpt lon="6.150567" lat="51.113357"><ele>45.6</ele><time>2022-05-22T07:37:07.000Z</time></trkpt><trkpt lon="6.150541" lat="51.11341"><ele>45.6</ele><time>2022-05-22T07:37:08.000Z</time></trkpt><trkpt lon="6.150509" lat="51.113467"><ele>45.6</ele><time>2022-05-22T07:37:09.000Z</time></trkpt><trkpt lon="6.150476" lat="51.113523"><ele>45.6</ele><time>2022-05-22T07:37:10.000Z</time></trkpt><trkpt lon="6.150448" lat="51.113583"><ele>45.6</ele><time>2022-05-22T07:37:11.000Z</time></trkpt><trkpt lon="6.150424" lat="51.113646"><ele>45.8</ele><time>2022-05-22T07:37:12.000Z</time></trkpt><trkpt lon="6.150405" lat="51.113711"><ele>45.8</ele><time>2022-05-22T07:37:13.000Z</time></trkpt><trkpt lon="6.150396" lat="51.113767"><ele>46</ele><time>2022-05-22T07:37:14.000Z</time></trkpt><trkpt lon="6.150388" lat="51.113833"><ele>46.2</ele><time>2022-05-22T07:37:15.000Z</time></trkpt><trkpt lon="6.15038" lat="51.11389"><ele>46.4</ele><time>2022-05-22T07:37:16.000Z</time></trkpt><trkpt lon="6.150368" lat="51.113951"><ele>46.4</ele><time>2022-05-22T07:37:17.000Z</time></trkpt><trkpt lon="6.150358" lat="51.114012"><ele>46.4</ele><time>2022-05-22T07:37:18.000Z</time></trkpt><trkpt lon="6.150354" lat="51.114073"><ele>46.6</ele><time>2022-05-22T07:37:19.000Z</time></trkpt><trkpt lon="6.150344" lat="51.114124"><ele>46.6</ele><time>2022-05-22T07:37:20.000Z</time></trkpt><trkpt lon="6.150337" lat="51.114177"><ele>46.8</ele><time>2022-05-22T07:37:21.000Z</time></trkpt><trkpt lon="6.150331" lat="51.11423"><ele>47</ele><time>2022-05-22T07:37:22.000Z</time></trkpt><trkpt lon="6.150325" lat="51.114283"><ele>47</ele><time>2022-05-22T07:37:23.000Z</time></trkpt><trkpt lon="6.15032" lat="51.114329"><ele>47.2</ele><time>2022-05-22T07:37:24.000Z</time></trkpt><trkpt lon="6.150333" lat="51.114371"><ele>47.4</ele><time>2022-05-22T07:37:25.000Z</time></trkpt><trkpt lon="6.150367" lat="51.114406"><ele>47.4</ele><time>2022-05-22T07:37:26.000Z</time></trkpt><trkpt lon="6.15042" lat="51.114429"><ele>47.6</ele><time>2022-05-22T07:37:27.000Z</time></trkpt><trkpt lon="6.150481" lat="51.114441"><ele>47.6</ele><time>2022-05-22T07:37:28.000Z</time></trkpt><trkpt lon="6.150542" lat="51.114456"><ele>47.8</ele><time>2022-05-22T07:37:29.000Z</time></trkpt><trkpt lon="6.150604" lat="51.114475"><ele>48</ele><time>2022-05-22T07:37:30.000Z</time></trkpt><trkpt lon="6.150672" lat="51.114501"><ele>48.2</ele><time>2022-05-22T07:37:31.000Z</time></trkpt><trkpt lon="6.150734" lat="51.114536"><ele>48.2</ele><time>2022-05-22T07:37:32.000Z</time></trkpt><trkpt lon="6.150796" lat="51.114574"><ele>48.4</ele><time>2022-05-22T07:37:33.000Z</time></trkpt><trkpt lon="6.150859" lat="51.114612"><ele>48.6</ele><time>2022-05-22T07:37:34.000Z</time></trkpt><trkpt lon="6.150926" lat="51.114643"><ele>48.8</ele><time>2022-05-22T07:37:35.000Z</time></trkpt><trkpt lon="6.150995" lat="51.11468"><ele>49.2</ele><time>2022-05-22T07:37:36.000Z</time></trkpt><trkpt lon="6.151067" lat="51.114711"><ele>49.4</ele><time>2022-05-22T07:37:37.000Z</time></trkpt><trkpt lon="6.151134" lat="51.114748"><ele>49.6</ele><time>2022-05-22T07:37:38.000Z</time></trkpt><trkpt lon="6.151202" lat="51.114787"><ele>49.8</ele><time>2022-05-22T07:37:39.000Z</time></trkpt><trkpt lon="6.151269" lat="51.114826"><ele>49.8</ele><time>2022-05-22T07:37:40.000Z</time></trkpt><trkpt lon="6.151331" lat="51.114861"><ele>50.2</ele><time>2022-05-22T07:37:41.000Z</time></trkpt><trkpt lon="6.151396" lat="51.114897"><ele>50.4</ele><time>2022-05-22T07:37:42.000Z</time></trkpt><trkpt lon="6.151463" lat="51.114936"><ele>50.6</ele><time>2022-05-22T07:37:43.000Z</time></trkpt><trkpt lon="6.151526" lat="51.114973"><ele>50.6</ele><time>2022-05-22T07:37:44.000Z</time></trkpt><trkpt lon="6.151585" lat="51.115006"><ele>50.6</ele><time>2022-05-22T07:37:45.000Z</time></trkpt><trkpt lon="6.151653" lat="51.115042"><ele>51</ele><time>2022-05-22T07:37:46.000Z</time></trkpt><trkpt lon="6.151717" lat="51.115078"><ele>51.2</ele><time>2022-05-22T07:37:47.000Z</time></trkpt><trkpt lon="6.151778" lat="51.115111"><ele>51.4</ele><time>2022-05-22T07:37:48.000Z</time></trkpt><trkpt lon="6.151844" lat="51.11515"><ele>51.6</ele><time>2022-05-22T07:37:49.000Z</time></trkpt><trkpt lon="6.151912" lat="51.115191"><ele>51.6</ele><time>2022-05-22T07:37:50.000Z</time></trkpt><trkpt lon="6.151979" lat="51.115225"><ele>51.8</ele><time>2022-05-22T07:37:51.000Z</time></trkpt><trkpt lon="6.152044" lat="51.115264"><ele>52</ele><time>2022-05-22T07:37:52.000Z</time></trkpt><trkpt lon="6.152109" lat="51.115306"><ele>52.2</ele><time>2022-05-22T07:37:53.000Z</time></trkpt><trkpt lon="6.152172" lat="51.115344"><ele>52.4</ele><time>2022-05-22T07:37:54.000Z</time></trkpt><trkpt lon="6.152235" lat="51.115386"><ele>52.6</ele><time>2022-05-22T07:37:55.000Z</time></trkpt><trkpt lon="6.152297" lat="51.115424"><ele>52.8</ele><time>2022-05-22T07:37:56.000Z</time></trkpt><trkpt lon="6.152357" lat="51.115466"><ele>53</ele><time>2022-05-22T07:37:57.000Z</time></trkpt><trkpt lon="6.152419" lat="51.115505"><ele>53.4</ele><time>2022-05-22T07:37:58.000Z</time></trkpt><trkpt lon="6.152477" lat="51.115542"><ele>53.6</ele><time>2022-05-22T07:37:59.000Z</time></trkpt><trkpt lon="6.152537" lat="51.115581"><ele>53.8</ele><time>2022-05-22T07:38:00.000Z</time></trkpt><trkpt lon="6.152598" lat="51.115619"><ele>54</ele><time>2022-05-22T07:38:01.000Z</time></trkpt><trkpt lon="6.152657" lat="51.115657"><ele>54.2</ele><time>2022-05-22T07:38:02.000Z</time></trkpt><trkpt lon="6.152714" lat="51.115695"><ele>54.4</ele><time>2022-05-22T07:38:03.000Z</time></trkpt><trkpt lon="6.152771" lat="51.115734"><ele>54.6</ele><time>2022-05-22T07:38:04.000Z</time></trkpt><trkpt lon="6.152826" lat="51.115767"><ele>54.8</ele><time>2022-05-22T07:38:05.000Z</time></trkpt><trkpt lon="6.15288" lat="51.115806"><ele>55</ele><time>2022-05-22T07:38:06.000Z</time></trkpt><trkpt lon="6.152932" lat="51.11584"><ele>55.2</ele><time>2022-05-22T07:38:07.000Z</time></trkpt><trkpt lon="6.152983" lat="51.115874"><ele>55.4</ele><time>2022-05-22T07:38:08.000Z</time></trkpt><trkpt lon="6.153032" lat="51.115908"><ele>55.6</ele><time>2022-05-22T07:38:09.000Z</time></trkpt><trkpt lon="6.153077" lat="51.115938"><ele>55.8</ele><time>2022-05-22T07:38:10.000Z</time></trkpt><trkpt lon="6.153121" lat="51.11597"><ele>55.8</ele><time>2022-05-22T07:38:11.000Z</time></trkpt><trkpt lon="6.153156" lat="51.115989"><ele>56</ele><time>2022-05-22T07:38:12.000Z</time></trkpt><trkpt lon="6.153187" lat="51.116005"><ele>56</ele><time>2022-05-22T07:38:13.000Z</time></trkpt><trkpt lon="6.153219" lat="51.116009"><ele>56.2</ele><time>2022-05-22T07:38:14.000Z</time></trkpt><trkpt lon="6.153244" lat="51.116001"><ele>56.2</ele><time>2022-05-22T07:38:15.000Z</time></trkpt><trkpt lon="6.153258" lat="51.115983"><ele>56</ele><time>2022-05-22T07:38:16.000Z</time></trkpt><trkpt lon="6.15326" lat="51.115952"><ele>56</ele><time>2022-05-22T07:38:17.000Z</time></trkpt><trkpt lon="6.15326" lat="51.115922"><ele>55.8</ele><time>2022-05-22T07:38:18.000Z</time></trkpt><trkpt lon="6.153263" lat="51.115888"><ele>55.8</ele><time>2022-05-22T07:38:19.000Z</time></trkpt><trkpt lon="6.153276" lat="51.115853"><ele>55.6</ele><time>2022-05-22T07:38:20.000Z</time></trkpt><trkpt lon="6.153316" lat="51.115819"><ele>55.4</ele><time>2022-05-22T07:38:21.000Z</time></trkpt><trkpt lon="6.15338" lat="51.115803"><ele>55.4</ele><time>2022-05-22T07:38:22.000Z</time></trkpt><trkpt lon="6.153456" lat="51.115806"><ele>55</ele><time>2022-05-22T07:38:23.000Z</time></trkpt><trkpt lon="6.153533" lat="51.115818"><ele>55</ele><time>2022-05-22T07:38:24.000Z</time></trkpt><trkpt lon="6.153613" lat="51.115825"><ele>55</ele><time>2022-05-22T07:38:25.000Z</time></trkpt><trkpt lon="6.153697" lat="51.115829"><ele>55</ele><time>2022-05-22T07:38:26.000Z</time></trkpt><trkpt lon="6.153782" lat="51.115822"><ele>55</ele><time>2022-05-22T07:38:27.000Z</time></trkpt><trkpt lon="6.153865" lat="51.115811"><ele>55</ele><time>2022-05-22T07:38:28.000Z</time></trkpt><trkpt lon="6.153947" lat="51.115792"><ele>55.2</ele><time>2022-05-22T07:38:29.000Z</time></trkpt><trkpt lon="6.154026" lat="51.115773"><ele>55.2</ele><time>2022-05-22T07:38:30.000Z</time></trkpt><trkpt lon="6.154107" lat="51.11575"><ele>55.4</ele><time>2022-05-22T07:38:31.000Z</time></trkpt><trkpt lon="6.154183" lat="51.115727"><ele>55.4</ele><time>2022-05-22T07:38:32.000Z</time></trkpt><trkpt lon="6.154258" lat="51.115704"><ele>55.6</ele><time>2022-05-22T07:38:33.000Z</time></trkpt><trkpt lon="6.154331" lat="51.115685"><ele>56</ele><time>2022-05-22T07:38:34.000Z</time></trkpt><trkpt lon="6.154405" lat="51.11567"><ele>56.2</ele><time>2022-05-22T07:38:35.000Z</time></trkpt><trkpt lon="6.15448" lat="51.115654"><ele>56.4</ele><time>2022-05-22T07:38:36.000Z</time></trkpt><trkpt lon="6.154546" lat="51.115639"><ele>56.8</ele><time>2022-05-22T07:38:37.000Z</time></trkpt><trkpt lon="6.15461" lat="51.115624"><ele>57</ele><time>2022-05-22T07:38:38.000Z</time></trkpt><trkpt lon="6.154666" lat="51.115606"><ele>57.2</ele><time>2022-05-22T07:38:39.000Z</time></trkpt><trkpt lon="6.154728" lat="51.115586"><ele>57.2</ele><time>2022-05-22T07:38:40.000Z</time></trkpt><trkpt lon="6.154789" lat="51.115572"><ele>57.4</ele><time>2022-05-22T07:38:41.000Z</time></trkpt><trkpt lon="6.154859" lat="51.115563"><ele>57.6</ele><time>2022-05-22T07:38:42.000Z</time></trkpt><trkpt lon="6.154932" lat="51.11557"><ele>57.8</ele><time>2022-05-22T07:38:43.000Z</time></trkpt><trkpt lon="6.155005" lat="51.115585"><ele>57.8</ele><time>2022-05-22T07:38:44.000Z</time></trkpt><trkpt lon="6.155079" lat="51.115607"><ele>58</ele><time>2022-05-22T07:38:45.000Z</time></trkpt><trkpt lon="6.155157" lat="51.115627"><ele>58</ele><time>2022-05-22T07:38:46.000Z</time></trkpt><trkpt lon="6.155233" lat="51.115653"><ele>58.2</ele><time>2022-05-22T07:38:47.000Z</time></trkpt><trkpt lon="6.15531" lat="51.11568"><ele>58.4</ele><time>2022-05-22T07:38:48.000Z</time></trkpt><trkpt lon="6.155388" lat="51.115703"><ele>58.4</ele><time>2022-05-22T07:38:49.000Z</time></trkpt><trkpt lon="6.15547" lat="51.115726"><ele>58.6</ele><time>2022-05-22T07:38:50.000Z</time></trkpt><trkpt lon="6.155555" lat="51.115745"><ele>58.6</ele><time>2022-05-22T07:38:51.000Z</time></trkpt><trkpt lon="6.155635" lat="51.115772"><ele>58.8</ele><time>2022-05-22T07:38:52.000Z</time></trkpt><trkpt lon="6.155713" lat="51.115798"><ele>59</ele><time>2022-05-22T07:38:53.000Z</time></trkpt><trkpt lon="6.155792" lat="51.115824"><ele>59</ele><time>2022-05-22T07:38:54.000Z</time></trkpt><trkpt lon="6.155874" lat="51.115848"><ele>59.2</ele><time>2022-05-22T07:38:55.000Z</time></trkpt><trkpt lon="6.155951" lat="51.115878"><ele>59.2</ele><time>2022-05-22T07:38:56.000Z</time></trkpt><trkpt lon="6.156028" lat="51.115905"><ele>59.2</ele><time>2022-05-22T07:38:57.000Z</time></trkpt><trkpt lon="6.156108" lat="51.115932"><ele>59.4</ele><time>2022-05-22T07:38:58.000Z</time></trkpt><trkpt lon="6.156186" lat="51.115966"><ele>59.4</ele><time>2022-05-22T07:38:59.000Z</time></trkpt><trkpt lon="6.156257" lat="51.116004"><ele>59.6</ele><time>2022-05-22T07:39:00.000Z</time></trkpt><trkpt lon="6.156323" lat="51.116042"><ele>59.8</ele><time>2022-05-22T07:39:01.000Z</time></trkpt><trkpt lon="6.156389" lat="51.11608"><ele>60</ele><time>2022-05-22T07:39:02.000Z</time></trkpt><trkpt lon="6.156442" lat="51.116122"><ele>60.2</ele><time>2022-05-22T07:39:03.000Z</time></trkpt><trkpt lon="6.156491" lat="51.116164"><ele>60</ele><time>2022-05-22T07:39:04.000Z</time></trkpt><trkpt lon="6.156541" lat="51.11621"><ele>60</ele><time>2022-05-22T07:39:05.000Z</time></trkpt><trkpt lon="6.156587" lat="51.116255"><ele>60.2</ele><time>2022-05-22T07:39:06.000Z</time></trkpt><trkpt lon="6.156639" lat="51.116305"><ele>60.2</ele><time>2022-05-22T07:39:07.000Z</time></trkpt><trkpt lon="6.156692" lat="51.116351"><ele>60.4</ele><time>2022-05-22T07:39:08.000Z</time></trkpt><trkpt lon="6.156742" lat="51.116397"><ele>60.4</ele><time>2022-05-22T07:39:09.000Z</time></trkpt><trkpt lon="6.156793" lat="51.116443"><ele>60.6</ele><time>2022-05-22T07:39:10.000Z</time></trkpt><trkpt lon="6.156841" lat="51.116491"><ele>60.8</ele><time>2022-05-22T07:39:11.000Z</time></trkpt><trkpt lon="6.156893" lat="51.116533"><ele>61.2</ele><time>2022-05-22T07:39:12.000Z</time></trkpt><trkpt lon="6.156939" lat="51.116577"><ele>61.4</ele><time>2022-05-22T07:39:13.000Z</time></trkpt><trkpt lon="6.156992" lat="51.116626"><ele>61.8</ele><time>2022-05-22T07:39:14.000Z</time></trkpt><trkpt lon="6.157043" lat="51.116671"><ele>62</ele><time>2022-05-22T07:39:15.000Z</time></trkpt><trkpt lon="6.157097" lat="51.116714"><ele>62.4</ele><time>2022-05-22T07:39:16.000Z</time></trkpt><trkpt lon="6.157152" lat="51.116763"><ele>62.6</ele><time>2022-05-22T07:39:17.000Z</time></trkpt><trkpt lon="6.157211" lat="51.116809"><ele>63.2</ele><time>2022-05-22T07:39:18.000Z</time></trkpt><trkpt lon="6.157269" lat="51.116855"><ele>63.4</ele><time>2022-05-22T07:39:19.000Z</time></trkpt><trkpt lon="6.157322" lat="51.1169"><ele>63.6</ele><time>2022-05-22T07:39:20.000Z</time></trkpt><trkpt lon="6.15738" lat="51.116946"><ele>63.8</ele><time>2022-05-22T07:39:21.000Z</time></trkpt><trkpt lon="6.157438" lat="51.116991"><ele>64.2</ele><time>2022-05-22T07:39:22.000Z</time></trkpt><trkpt lon="6.157505" lat="51.117038"><ele>64.4</ele><time>2022-05-22T07:39:23.000Z</time></trkpt><trkpt lon="6.157573" lat="51.117083"><ele>64.6</ele><time>2022-05-22T07:39:24.000Z</time></trkpt><trkpt lon="6.157638" lat="51.117129"><ele>65</ele><time>2022-05-22T07:39:25.000Z</time></trkpt><trkpt lon="6.157698" lat="51.117177"><ele>65.2</ele><time>2022-05-22T07:39:26.000Z</time></trkpt><trkpt lon="6.157758" lat="51.117224"><ele>65.4</ele><time>2022-05-22T07:39:27.000Z</time></trkpt><trkpt lon="6.157806" lat="51.117273"><ele>65.4</ele><time>2022-05-22T07:39:28.000Z</time></trkpt><trkpt lon="6.157857" lat="51.117323"><ele>65.6</ele><time>2022-05-22T07:39:29.000Z</time></trkpt><trkpt lon="6.1579" lat="51.117373"><ele>65.6</ele><time>2022-05-22T07:39:30.000Z</time></trkpt><trkpt lon="6.157944" lat="51.117422"><ele>65.8</ele><time>2022-05-22T07:39:31.000Z</time></trkpt><trkpt lon="6.157985" lat="51.117472"><ele>66</ele><time>2022-05-22T07:39:32.000Z</time></trkpt><trkpt lon="6.158026" lat="51.11753"><ele>66.2</ele><time>2022-05-22T07:39:33.000Z</time></trkpt><trkpt lon="6.158068" lat="51.117582"><ele>66.4</ele><time>2022-05-22T07:39:34.000Z</time></trkpt><trkpt lon="6.158119" lat="51.117633"><ele>66.6</ele><time>2022-05-22T07:39:35.000Z</time></trkpt><trkpt lon="6.158168" lat="51.11768"><ele>66.8</ele><time>2022-05-22T07:39:36.000Z</time></trkpt><trkpt lon="6.158227" lat="51.117728"><ele>67</ele><time>2022-05-22T07:39:37.000Z</time></trkpt><trkpt lon="6.15829" lat="51.117774"><ele>67.4</ele><time>2022-05-22T07:39:38.000Z</time></trkpt><trkpt lon="6.158358" lat="51.11782"><ele>67.6</ele><time>2022-05-22T07:39:39.000Z</time></trkpt><trkpt lon="6.158427" lat="51.117862"><ele>67.8</ele><time>2022-05-22T07:39:40.000Z</time></trkpt><trkpt lon="6.158499" lat="51.117904"><ele>68</ele><time>2022-05-22T07:39:41.000Z</time></trkpt><trkpt lon="6.158567" lat="51.117941"><ele>68</ele><time>2022-05-22T07:39:42.000Z</time></trkpt><trkpt lon="6.158636" lat="51.117972"><ele>68.2</ele><time>2022-05-22T07:39:43.000Z</time></trkpt><trkpt lon="6.158722" lat="51.11801"><ele>68.4</ele><time>2022-05-22T07:39:44.000Z</time></trkpt><trkpt lon="6.158798" lat="51.118053"><ele>68.6</ele><time>2022-05-22T07:39:45.000Z</time></trkpt><trkpt lon="6.158875" lat="51.118087"><ele>69</ele><time>2022-05-22T07:39:46.000Z</time></trkpt><trkpt lon="6.158951" lat="51.118125"><ele>69.2</ele><time>2022-05-22T07:39:47.000Z</time></trkpt><trkpt lon="6.159035" lat="51.118156"><ele>69.4</ele><time>2022-05-22T07:39:48.000Z</time></trkpt><trkpt lon="6.159122" lat="51.118183"><ele>69.8</ele><time>2022-05-22T07:39:49.000Z</time></trkpt><trkpt lon="6.159209" lat="51.118205"><ele>70.2</ele><time>2022-05-22T07:39:50.000Z</time></trkpt><trkpt lon="6.159296" lat="51.118225"><ele>70.6</ele><time>2022-05-22T07:39:51.000Z</time></trkpt><trkpt lon="6.159371" lat="51.118236"><ele>71</ele><time>2022-05-22T07:39:52.000Z</time></trkpt><trkpt lon="6.159445" lat="51.118244"><ele>71.2</ele><time>2022-05-22T07:39:53.000Z</time></trkpt><trkpt lon="6.159514" lat="51.118251"><ele>71.6</ele><time>2022-05-22T07:39:54.000Z</time></trkpt><trkpt lon="6.159585" lat="51.118256"><ele>71.8</ele><time>2022-05-22T07:39:55.000Z</time></trkpt><trkpt lon="6.159657" lat="51.118263"><ele>72</ele><time>2022-05-22T07:39:56.000Z</time></trkpt><trkpt lon="6.159727" lat="51.118267"><ele>72</ele><time>2022-05-22T07:39:57.000Z</time></trkpt><trkpt lon="6.159811" lat="51.118267"><ele>72</ele><time>2022-05-22T07:39:58.000Z</time></trkpt><trkpt lon="6.159893" lat="51.118263"><ele>72.2</ele><time>2022-05-22T07:39:59.000Z</time></trkpt><trkpt lon="6.159975" lat="51.118267"><ele>72.2</ele><time>2022-05-22T07:40:00.000Z</time></trkpt><trkpt lon="6.160054" lat="51.118263"><ele>72.2</ele><time>2022-05-22T07:40:01.000Z</time></trkpt><trkpt lon="6.16014" lat="51.118263"><ele>72.2</ele><time>2022-05-22T07:40:02.000Z</time></trkpt><trkpt lon="6.160218" lat="51.118263"><ele>72.2</ele><time>2022-05-22T07:40:03.000Z</time></trkpt><trkpt lon="6.160293" lat="51.118267"><ele>72.2</ele><time>2022-05-22T07:40:04.000Z</time></trkpt><trkpt lon="6.160377" lat="51.118271"><ele>72.2</ele><time>2022-05-22T07:40:05.000Z</time></trkpt><trkpt lon="6.160452" lat="51.118281"><ele>72.4</ele><time>2022-05-22T07:40:06.000Z</time></trkpt><trkpt lon="6.160541" lat="51.118293"><ele>72.4</ele><time>2022-05-22T07:40:07.000Z</time></trkpt><trkpt lon="6.160626" lat="51.118309"><ele>72.4</ele><time>2022-05-22T07:40:08.000Z</time></trkpt><trkpt lon="6.160707" lat="51.11832"><ele>72.6</ele><time>2022-05-22T07:40:09.000Z</time></trkpt><trkpt lon="6.16078" lat="51.118343"><ele>72.8</ele><time>2022-05-22T07:40:10.000Z</time></trkpt><trkpt lon="6.160871" lat="51.118366"><ele>73</ele><time>2022-05-22T07:40:11.000Z</time></trkpt><trkpt lon="6.16096" lat="51.118388"><ele>73</ele><time>2022-05-22T07:40:12.000Z</time></trkpt><trkpt lon="6.16105" lat="51.118411"><ele>73.2</ele><time>2022-05-22T07:40:13.000Z</time></trkpt><trkpt lon="6.161139" lat="51.118441"><ele>73.2</ele><time>2022-05-22T07:40:14.000Z</time></trkpt><trkpt lon="6.161228" lat="51.11848"><ele>73.4</ele><time>2022-05-22T07:40:15.000Z</time></trkpt><trkpt lon="6.161305" lat="51.118514"><ele>73.6</ele><time>2022-05-22T07:40:16.000Z</time></trkpt><trkpt lon="6.161375" lat="51.118553"><ele>73.8</ele><time>2022-05-22T07:40:17.000Z</time></trkpt><trkpt lon="6.16145" lat="51.11859"><ele>74</ele><time>2022-05-22T07:40:18.000Z</time></trkpt><trkpt lon="6.161511" lat="51.118623"><ele>74.2</ele><time>2022-05-22T07:40:19.000Z</time></trkpt><trkpt lon="6.161567" lat="51.118655"><ele>74.4</ele><time>2022-05-22T07:40:20.000Z</time></trkpt><trkpt lon="6.161627" lat="51.118693"><ele>74.6</ele><time>2022-05-22T07:40:21.000Z</time></trkpt><trkpt lon="6.161691" lat="51.118735"><ele>74.8</ele><time>2022-05-22T07:40:22.000Z</time></trkpt><trkpt lon="6.161755" lat="51.118781"><ele>75</ele><time>2022-05-22T07:40:23.000Z</time></trkpt><trkpt lon="6.161809" lat="51.118819"><ele>75.4</ele><time>2022-05-22T07:40:24.000Z</time></trkpt><trkpt lon="6.161856" lat="51.118858"><ele>75.6</ele><time>2022-05-22T07:40:25.000Z</time></trkpt><trkpt lon="6.161902" lat="51.118888"><ele>76</ele><time>2022-05-22T07:40:26.000Z</time></trkpt><trkpt lon="6.161952" lat="51.118919"><ele>76.4</ele><time>2022-05-22T07:40:27.000Z</time></trkpt><trkpt lon="6.162006" lat="51.118964"><ele>76.8</ele><time>2022-05-22T07:40:28.000Z</time></trkpt><trkpt lon="6.162052" lat="51.118998"><ele>77</ele><time>2022-05-22T07:40:29.000Z</time></trkpt><trkpt lon="6.162099" lat="51.119033"><ele>77.4</ele><time>2022-05-22T07:40:30.000Z</time></trkpt><trkpt lon="6.162152" lat="51.119064"><ele>77.8</ele><time>2022-05-22T07:40:31.000Z</time></trkpt><trkpt lon="6.162211" lat="51.11909"><ele>78</ele><time>2022-05-22T07:40:32.000Z</time></trkpt><trkpt lon="6.162267" lat="51.119125"><ele>78.4</ele><time>2022-05-22T07:40:33.000Z</time></trkpt><trkpt lon="6.162332" lat="51.119155"><ele>78.8</ele><time>2022-05-22T07:40:34.000Z</time></trkpt><trkpt lon="6.162394" lat="51.119189"><ele>79.2</ele><time>2022-05-22T07:40:35.000Z</time></trkpt><trkpt lon="6.162455" lat="51.119224"><ele>79.6</ele><time>2022-05-22T07:40:36.000Z</time></trkpt><trkpt lon="6.162514" lat="51.119258"><ele>80.2</ele><time>2022-05-22T07:40:37.000Z</time></trkpt><trkpt lon="6.162573" lat="51.119292"><ele>80.6</ele><time>2022-05-22T07:40:38.000Z</time></trkpt><trkpt lon="6.162635" lat="51.119355"><ele>81</ele><time>2022-05-22T07:40:39.000Z</time></trkpt><trkpt lon="6.162695" lat="51.119406"><ele>81.4</ele><time>2022-05-22T07:40:40.000Z</time></trkpt><trkpt lon="6.162747" lat="51.119444"><ele>82</ele><time>2022-05-22T07:40:41.000Z</time></trkpt><trkpt lon="6.162804" lat="51.119482"><ele>82.4</ele><time>2022-05-22T07:40:42.000Z</time></trkpt><trkpt lon="6.162858" lat="51.119517"><ele>82.8</ele><time>2022-05-22T07:40:43.000Z</time></trkpt><trkpt lon="6.162924" lat="51.119558"><ele>83</ele><time>2022-05-22T07:40:44.000Z</time></trkpt><trkpt lon="6.162978" lat="51.119597"><ele>83.4</ele><time>2022-05-22T07:40:45.000Z</time></trkpt><trkpt lon="6.163037" lat="51.119635"><ele>84</ele><time>2022-05-22T07:40:46.000Z</time></trkpt><trkpt lon="6.163081" lat="51.119661"><ele>84.4</ele><time>2022-05-22T07:40:47.000Z</time></trkpt><trkpt lon="6.163138" lat="51.1197"><ele>84.8</ele><time>2022-05-22T07:40:48.000Z</time></trkpt><trkpt lon="6.163185" lat="51.119735"><ele>85.2</ele><time>2022-05-22T07:40:49.000Z</time></trkpt><trkpt lon="6.163234" lat="51.11978"><ele>85.6</ele><time>2022-05-22T07:40:50.000Z</time></trkpt><trkpt lon="6.163284" lat="51.119822"><ele>86</ele><time>2022-05-22T07:40:51.000Z</time></trkpt><trkpt lon="6.163333" lat="51.11985"><ele>86.2</ele><time>2022-05-22T07:40:52.000Z</time></trkpt><trkpt lon="6.163412" lat="51.119894"><ele>86.6</ele><time>2022-05-22T07:40:53.000Z</time></trkpt><trkpt lon="6.163476" lat="51.11994"><ele>86.6</ele><time>2022-05-22T07:40:54.000Z</time></trkpt><trkpt lon="6.163537" lat="51.119989"><ele>86.8</ele><time>2022-05-22T07:40:55.000Z</time></trkpt><trkpt lon="6.163601" lat="51.120036"><ele>87</ele><time>2022-05-22T07:40:56.000Z</time></trkpt><trkpt lon="6.163665" lat="51.120082"><ele>87</ele><time>2022-05-22T07:40:57.000Z</time></trkpt><trkpt lon="6.163725" lat="51.12012"><ele>87</ele><time>2022-05-22T07:40:58.000Z</time></trkpt><trkpt lon="6.163783" lat="51.120162"><ele>87</ele><time>2022-05-22T07:40:59.000Z</time></trkpt><trkpt lon="6.16384" lat="51.120204"><ele>87</ele><time>2022-05-22T07:41:00.000Z</time></trkpt><trkpt lon="6.163888" lat="51.120249"><ele>86.8</ele><time>2022-05-22T07:41:01.000Z</time></trkpt><trkpt lon="6.163947" lat="51.120299"><ele>86.8</ele><time>2022-05-22T07:41:02.000Z</time></trkpt><trkpt lon="6.164005" lat="51.120345"><ele>86.6</ele><time>2022-05-22T07:41:03.000Z</time></trkpt><trkpt lon="6.164057" lat="51.120386"><ele>86.6</ele><time>2022-05-22T07:41:04.000Z</time></trkpt><trkpt lon="6.164112" lat="51.120435"><ele>86.6</ele><time>2022-05-22T07:41:05.000Z</time></trkpt><trkpt lon="6.164177" lat="51.120485"><ele>86.4</ele><time>2022-05-22T07:41:06.000Z</time></trkpt><trkpt lon="6.164241" lat="51.120534"><ele>86.4</ele><time>2022-05-22T07:41:07.000Z</time></trkpt><trkpt lon="6.164311" lat="51.120581"><ele>86.2</ele><time>2022-05-22T07:41:08.000Z</time></trkpt><trkpt lon="6.164372" lat="51.120627"><ele>86.2</ele><time>2022-05-22T07:41:09.000Z</time></trkpt><trkpt lon="6.164433" lat="51.120672"><ele>86.2</ele><time>2022-05-22T07:41:10.000Z</time></trkpt><trkpt lon="6.164493" lat="51.120722"><ele>86.2</ele><time>2022-05-22T07:41:11.000Z</time></trkpt><trkpt lon="6.164546" lat="51.120771"><ele>86.2</ele><time>2022-05-22T07:41:12.000Z</time></trkpt><trkpt lon="6.164595" lat="51.120818"><ele>86.2</ele><time>2022-05-22T07:41:13.000Z</time></trkpt><trkpt lon="6.164643" lat="51.120859"><ele>86.2</ele><time>2022-05-22T07:41:14.000Z</time></trkpt><trkpt lon="6.164692" lat="51.120897"><ele>86.2</ele><time>2022-05-22T07:41:15.000Z</time></trkpt><trkpt lon="6.164739" lat="51.12094"><ele>86.2</ele><time>2022-05-22T07:41:16.000Z</time></trkpt><trkpt lon="6.164778" lat="51.120977"><ele>86.2</ele><time>2022-05-22T07:41:17.000Z</time></trkpt><trkpt lon="6.164823" lat="51.121012"><ele>86.2</ele><time>2022-05-22T07:41:18.000Z</time></trkpt><trkpt lon="6.164865" lat="51.121051"><ele>86.2</ele><time>2022-05-22T07:41:19.000Z</time></trkpt><trkpt lon="6.164908" lat="51.121089"><ele>86.2</ele><time>2022-05-22T07:41:20.000Z</time></trkpt><trkpt lon="6.164952" lat="51.121124"><ele>86.4</ele><time>2022-05-22T07:41:21.000Z</time></trkpt><trkpt lon="6.164994" lat="51.121158"><ele>86.4</ele><time>2022-05-22T07:41:22.000Z</time></trkpt><trkpt lon="6.165039" lat="51.121196"><ele>86.4</ele><time>2022-05-22T07:41:23.000Z</time></trkpt><trkpt lon="6.165082" lat="51.121226"><ele>86.6</ele><time>2022-05-22T07:41:24.000Z</time></trkpt><trkpt lon="6.165127" lat="51.121261"><ele>86.6</ele><time>2022-05-22T07:41:25.000Z</time></trkpt><trkpt lon="6.165171" lat="51.121288"><ele>86.6</ele><time>2022-05-22T07:41:26.000Z</time></trkpt><trkpt lon="6.165211" lat="51.121313"><ele>86.6</ele><time>2022-05-22T07:41:27.000Z</time></trkpt><trkpt lon="6.165264" lat="51.121345"><ele>86.6</ele><time>2022-05-22T07:41:28.000Z</time></trkpt><trkpt lon="6.165314" lat="51.121379"><ele>86.6</ele><time>2022-05-22T07:41:29.000Z</time></trkpt><trkpt lon="6.165367" lat="51.121406"><ele>86.6</ele><time>2022-05-22T07:41:30.000Z</time></trkpt><trkpt lon="6.16542" lat="51.121447"><ele>86.4</ele><time>2022-05-22T07:41:31.000Z</time></trkpt><trkpt lon="6.165466" lat="51.121478"><ele>86.6</ele><time>2022-05-22T07:41:32.000Z</time></trkpt><trkpt lon="6.165514" lat="51.121505"><ele>86.6</ele><time>2022-05-22T07:41:33.000Z</time></trkpt><trkpt lon="6.165565" lat="51.121536"><ele>86.6</ele><time>2022-05-22T07:41:34.000Z</time></trkpt><trkpt lon="6.165614" lat="51.121569"><ele>86.6</ele><time>2022-05-22T07:41:35.000Z</time></trkpt><trkpt lon="6.165666" lat="51.121593"><ele>86.6</ele><time>2022-05-22T07:41:36.000Z</time></trkpt><trkpt lon="6.165724" lat="51.12162"><ele>86.6</ele><time>2022-05-22T07:41:37.000Z</time></trkpt><trkpt lon="6.165779" lat="51.121643"><ele>86.4</ele><time>2022-05-22T07:41:38.000Z</time></trkpt><trkpt lon="6.165831" lat="51.121665"><ele>86.4</ele><time>2022-05-22T07:41:39.000Z</time></trkpt><trkpt lon="6.165879" lat="51.121691"><ele>86.4</ele><time>2022-05-22T07:41:40.000Z</time></trkpt><trkpt lon="6.165934" lat="51.121715"><ele>86.6</ele><time>2022-05-22T07:41:41.000Z</time></trkpt><trkpt lon="6.165978" lat="51.121738"><ele>86.6</ele><time>2022-05-22T07:41:42.000Z</time></trkpt><trkpt lon="6.166047" lat="51.121772"><ele>86.6</ele><time>2022-05-22T07:41:43.000Z</time></trkpt><trkpt lon="6.166103" lat="51.121795"><ele>86.6</ele><time>2022-05-22T07:41:44.000Z</time></trkpt><trkpt lon="6.166168" lat="51.121818"><ele>86.4</ele><time>2022-05-22T07:41:45.000Z</time></trkpt><trkpt lon="6.166243" lat="51.121845"><ele>86.6</ele><time>2022-05-22T07:41:46.000Z</time></trkpt><trkpt lon="6.166321" lat="51.121871"><ele>86.6</ele><time>2022-05-22T07:41:47.000Z</time></trkpt><trkpt lon="6.166392" lat="51.121909"><ele>86.6</ele><time>2022-05-22T07:41:48.000Z</time></trkpt><trkpt lon="6.166462" lat="51.121939"><ele>86.6</ele><time>2022-05-22T07:41:49.000Z</time></trkpt><trkpt lon="6.166546" lat="51.121974"><ele>86.6</ele><time>2022-05-22T07:41:50.000Z</time></trkpt><trkpt lon="6.166616" lat="51.122004"><ele>86.6</ele><time>2022-05-22T07:41:51.000Z</time></trkpt><trkpt lon="6.16669" lat="51.122035"><ele>86.8</ele><time>2022-05-22T07:41:52.000Z</time></trkpt><trkpt lon="6.166772" lat="51.122073"><ele>86.8</ele><time>2022-05-22T07:41:53.000Z</time></trkpt><trkpt lon="6.166847" lat="51.122115"><ele>86.8</ele><time>2022-05-22T07:41:54.000Z</time></trkpt><trkpt lon="6.166923" lat="51.122161"><ele>86.8</ele><time>2022-05-22T07:41:55.000Z</time></trkpt><trkpt lon="6.167" lat="51.122199"><ele>86.8</ele><time>2022-05-22T07:41:56.000Z</time></trkpt><trkpt lon="6.167083" lat="51.122241"><ele>86.8</ele><time>2022-05-22T07:41:57.000Z</time></trkpt><trkpt lon="6.167161" lat="51.122279"><ele>86.8</ele><time>2022-05-22T07:41:58.000Z</time></trkpt><trkpt lon="6.167233" lat="51.122313"><ele>87</ele><time>2022-05-22T07:41:59.000Z</time></trkpt><trkpt lon="6.167311" lat="51.122355"><ele>87</ele><time>2022-05-22T07:42:00.000Z</time></trkpt><trkpt lon="6.167391" lat="51.122386"><ele>87</ele><time>2022-05-22T07:42:01.000Z</time></trkpt><trkpt lon="6.167478" lat="51.122413"><ele>87</ele><time>2022-05-22T07:42:02.000Z</time></trkpt><trkpt lon="6.167557" lat="51.122443"><ele>87</ele><time>2022-05-22T07:42:03.000Z</time></trkpt><trkpt lon="6.167638" lat="51.12247"><ele>87</ele><time>2022-05-22T07:42:04.000Z</time></trkpt><trkpt lon="6.167712" lat="51.122511"><ele>87</ele><time>2022-05-22T07:42:05.000Z</time></trkpt><trkpt lon="6.167793" lat="51.122554"><ele>87</ele><time>2022-05-22T07:42:06.000Z</time></trkpt><trkpt lon="6.167873" lat="51.122596"><ele>86.8</ele><time>2022-05-22T07:42:07.000Z</time></trkpt><trkpt lon="6.167947" lat="51.122634"><ele>86.8</ele><time>2022-05-22T07:42:08.000Z</time></trkpt><trkpt lon="6.168027" lat="51.122672"><ele>86.8</ele><time>2022-05-22T07:42:09.000Z</time></trkpt><trkpt lon="6.168112" lat="51.122722"><ele>86.6</ele><time>2022-05-22T07:42:10.000Z</time></trkpt><trkpt lon="6.168195" lat="51.122775"><ele>86.4</ele><time>2022-05-22T07:42:11.000Z</time></trkpt><trkpt lon="6.168279" lat="51.122817"><ele>86.4</ele><time>2022-05-22T07:42:12.000Z</time></trkpt><trkpt lon="6.168365" lat="51.122862"><ele>86.2</ele><time>2022-05-22T07:42:13.000Z</time></trkpt><trkpt lon="6.168446" lat="51.122918"><ele>86.2</ele><time>2022-05-22T07:42:14.000Z</time></trkpt><trkpt lon="6.168525" lat="51.122966"><ele>86</ele><time>2022-05-22T07:42:15.000Z</time></trkpt><trkpt lon="6.168599" lat="51.123012"><ele>86</ele><time>2022-05-22T07:42:16.000Z</time></trkpt><trkpt lon="6.16867" lat="51.123054"><ele>86</ele><time>2022-05-22T07:42:17.000Z</time></trkpt><trkpt lon="6.168754" lat="51.123095"><ele>86</ele><time>2022-05-22T07:42:18.000Z</time></trkpt><trkpt lon="6.168833" lat="51.123141"><ele>85.8</ele><time>2022-05-22T07:42:19.000Z</time></trkpt><trkpt lon="6.16893" lat="51.123201"><ele>85.8</ele><time>2022-05-22T07:42:20.000Z</time></trkpt><trkpt lon="6.169023" lat="51.123259"><ele>85.6</ele><time>2022-05-22T07:42:21.000Z</time></trkpt><trkpt lon="6.169104" lat="51.123313"><ele>85.4</ele><time>2022-05-22T07:42:22.000Z</time></trkpt><trkpt lon="6.169185" lat="51.123359"><ele>85.2</ele><time>2022-05-22T07:42:23.000Z</time></trkpt><trkpt lon="6.169276" lat="51.123396"><ele>85.2</ele><time>2022-05-22T07:42:24.000Z</time></trkpt><trkpt lon="6.169369" lat="51.123439"><ele>85.2</ele><time>2022-05-22T07:42:25.000Z</time></trkpt><trkpt lon="6.16946" lat="51.123484"><ele>85</ele><time>2022-05-22T07:42:26.000Z</time></trkpt><trkpt lon="6.169553" lat="51.123534"><ele>84.8</ele><time>2022-05-22T07:42:27.000Z</time></trkpt><trkpt lon="6.169651" lat="51.123576"><ele>84.8</ele><time>2022-05-22T07:42:28.000Z</time></trkpt><trkpt lon="6.169737" lat="51.123616"><ele>84.8</ele><time>2022-05-22T07:42:29.000Z</time></trkpt><trkpt lon="6.169821" lat="51.123663"><ele>84.8</ele><time>2022-05-22T07:42:30.000Z</time></trkpt><trkpt lon="6.169908" lat="51.123706"><ele>84.8</ele><time>2022-05-22T07:42:31.000Z</time></trkpt><trkpt lon="6.169998" lat="51.123744"><ele>84.8</ele><time>2022-05-22T07:42:32.000Z</time></trkpt><trkpt lon="6.170098" lat="51.123791"><ele>84.6</ele><time>2022-05-22T07:42:33.000Z</time></trkpt><trkpt lon="6.170179" lat="51.123831"><ele>84.6</ele><time>2022-05-22T07:42:34.000Z</time></trkpt><trkpt lon="6.170292" lat="51.123896"><ele>84.6</ele><time>2022-05-22T07:42:35.000Z</time></trkpt><trkpt lon="6.17037" lat="51.123938"><ele>84.6</ele><time>2022-05-22T07:42:36.000Z</time></trkpt><trkpt lon="6.170449" lat="51.123981"><ele>84.4</ele><time>2022-05-22T07:42:37.000Z</time></trkpt><trkpt lon="6.170531" lat="51.124019"><ele>84.4</ele><time>2022-05-22T07:42:38.000Z</time></trkpt><trkpt lon="6.170618" lat="51.12406"><ele>84.4</ele><time>2022-05-22T07:42:39.000Z</time></trkpt><trkpt lon="6.170712" lat="51.124099"><ele>84.2</ele><time>2022-05-22T07:42:40.000Z</time></trkpt><trkpt lon="6.170809" lat="51.124148"><ele>84</ele><time>2022-05-22T07:42:41.000Z</time></trkpt><trkpt lon="6.170902" lat="51.124193"><ele>84</ele><time>2022-05-22T07:42:42.000Z</time></trkpt><trkpt lon="6.170994" lat="51.124243"><ele>84</ele><time>2022-05-22T07:42:43.000Z</time></trkpt><trkpt lon="6.171075" lat="51.124285"><ele>84.2</ele><time>2022-05-22T07:42:44.000Z</time></trkpt><trkpt lon="6.17115" lat="51.124324"><ele>84.2</ele><time>2022-05-22T07:42:45.000Z</time></trkpt><trkpt lon="6.171228" lat="51.124365"><ele>84</ele><time>2022-05-22T07:42:46.000Z</time></trkpt><trkpt lon="6.171304" lat="51.124408"><ele>84</ele><time>2022-05-22T07:42:47.000Z</time></trkpt><trkpt lon="6.171385" lat="51.124457"><ele>84</ele><time>2022-05-22T07:42:48.000Z</time></trkpt><trkpt lon="6.171464" lat="51.124498"><ele>83.6</ele><time>2022-05-22T07:42:49.000Z</time></trkpt><trkpt lon="6.171556" lat="51.124541"><ele>83.4</ele><time>2022-05-22T07:42:50.000Z</time></trkpt><trkpt lon="6.171661" lat="51.124587"><ele>82.8</ele><time>2022-05-22T07:42:51.000Z</time></trkpt><trkpt lon="6.171753" lat="51.124637"><ele>82.2</ele><time>2022-05-22T07:42:52.000Z</time></trkpt><trkpt lon="6.171858" lat="51.124701"><ele>81.4</ele><time>2022-05-22T07:42:53.000Z</time></trkpt><trkpt lon="6.171975" lat="51.124773"><ele>80.8</ele><time>2022-05-22T07:42:54.000Z</time></trkpt><trkpt lon="6.172086" lat="51.124838"><ele>80</ele><time>2022-05-22T07:42:55.000Z</time></trkpt><trkpt lon="6.172203" lat="51.124922"><ele>79.2</ele><time>2022-05-22T07:42:56.000Z</time></trkpt><trkpt lon="6.172325" lat="51.124998"><ele>78.4</ele><time>2022-05-22T07:42:57.000Z</time></trkpt><trkpt lon="6.172444" lat="51.125074"><ele>77.6</ele><time>2022-05-22T07:42:58.000Z</time></trkpt><trkpt lon="6.17257" lat="51.125154"><ele>76.6</ele><time>2022-05-22T07:42:59.000Z</time></trkpt><trkpt lon="6.172687" lat="51.125233"><ele>75.6</ele><time>2022-05-22T07:43:00.000Z</time></trkpt><trkpt lon="6.172811" lat="51.125311"><ele>74.8</ele><time>2022-05-22T07:43:01.000Z</time></trkpt><trkpt lon="6.172942" lat="51.125387"><ele>74</ele><time>2022-05-22T07:43:02.000Z</time></trkpt><trkpt lon="6.17307" lat="51.125475"><ele>73.2</ele><time>2022-05-22T07:43:03.000Z</time></trkpt><trkpt lon="6.173208" lat="51.125566"><ele>72.4</ele><time>2022-05-22T07:43:04.000Z</time></trkpt><trkpt lon="6.173332" lat="51.125658"><ele>71.6</ele><time>2022-05-22T07:43:05.000Z</time></trkpt><trkpt lon="6.17346" lat="51.125749"><ele>70.6</ele><time>2022-05-22T07:43:06.000Z</time></trkpt><trkpt lon="6.173596" lat="51.125849"><ele>69.8</ele><time>2022-05-22T07:43:07.000Z</time></trkpt><trkpt lon="6.173722" lat="51.125947"><ele>69</ele><time>2022-05-22T07:43:08.000Z</time></trkpt><trkpt lon="6.173849" lat="51.126043"><ele>68.2</ele><time>2022-05-22T07:43:09.000Z</time></trkpt><trkpt lon="6.173984" lat="51.126152"><ele>67.6</ele><time>2022-05-22T07:43:10.000Z</time></trkpt><trkpt lon="6.174109" lat="51.126242"><ele>66.8</ele><time>2022-05-22T07:43:11.000Z</time></trkpt><trkpt lon="6.174223" lat="51.126325"><ele>66.2</ele><time>2022-05-22T07:43:12.000Z</time></trkpt><trkpt lon="6.174369" lat="51.126421"><ele>65.8</ele><time>2022-05-22T07:43:13.000Z</time></trkpt><trkpt lon="6.174504" lat="51.126509"><ele>65.2</ele><time>2022-05-22T07:43:14.000Z</time></trkpt><trkpt lon="6.174638" lat="51.126603"><ele>64.8</ele><time>2022-05-22T07:43:15.000Z</time></trkpt><trkpt lon="6.174757" lat="51.126688"><ele>64.6</ele><time>2022-05-22T07:43:16.000Z</time></trkpt><trkpt lon="6.174882" lat="51.126776"><ele>64.2</ele><time>2022-05-22T07:43:17.000Z</time></trkpt><trkpt lon="6.175004" lat="51.126859"><ele>64.2</ele><time>2022-05-22T07:43:18.000Z</time></trkpt><trkpt lon="6.175117" lat="51.126942"><ele>64</ele><time>2022-05-22T07:43:19.000Z</time></trkpt><trkpt lon="6.17522" lat="51.127022"><ele>64.2</ele><time>2022-05-22T07:43:20.000Z</time></trkpt><trkpt lon="6.175319" lat="51.1271"><ele>64.2</ele><time>2022-05-22T07:43:21.000Z</time></trkpt><trkpt lon="6.175406" lat="51.127172"><ele>64.4</ele><time>2022-05-22T07:43:22.000Z</time></trkpt><trkpt lon="6.175491" lat="51.127242"><ele>64.4</ele><time>2022-05-22T07:43:23.000Z</time></trkpt><trkpt lon="6.175593" lat="51.127318"><ele>64.6</ele><time>2022-05-22T07:43:24.000Z</time></trkpt><trkpt lon="6.175682" lat="51.127383"><ele>65</ele><time>2022-05-22T07:43:25.000Z</time></trkpt><trkpt lon="6.175771" lat="51.127444"><ele>65.2</ele><time>2022-05-22T07:43:26.000Z</time></trkpt><trkpt lon="6.175865" lat="51.127509"><ele>65.4</ele><time>2022-05-22T07:43:27.000Z</time></trkpt><trkpt lon="6.175966" lat="51.127583"><ele>65.6</ele><time>2022-05-22T07:43:28.000Z</time></trkpt><trkpt lon="6.176049" lat="51.127642"><ele>65.8</ele><time>2022-05-22T07:43:29.000Z</time></trkpt><trkpt lon="6.176132" lat="51.127707"><ele>66</ele><time>2022-05-22T07:43:30.000Z</time></trkpt><trkpt lon="6.176212" lat="51.127776"><ele>66.2</ele><time>2022-05-22T07:43:31.000Z</time></trkpt><trkpt lon="6.176293" lat="51.127841"><ele>66.4</ele><time>2022-05-22T07:43:32.000Z</time></trkpt><trkpt lon="6.176366" lat="51.127894"><ele>66.4</ele><time>2022-05-22T07:43:33.000Z</time></trkpt><trkpt lon="6.176438" lat="51.127944"><ele>66.4</ele><time>2022-05-22T07:43:34.000Z</time></trkpt><trkpt lon="6.176512" lat="51.127997"><ele>66.2</ele><time>2022-05-22T07:43:35.000Z</time></trkpt><trkpt lon="6.176591" lat="51.128051"><ele>66</ele><time>2022-05-22T07:43:36.000Z</time></trkpt><trkpt lon="6.176668" lat="51.128115"><ele>65.8</ele><time>2022-05-22T07:43:37.000Z</time></trkpt><trkpt lon="6.176747" lat="51.128169"><ele>65.4</ele><time>2022-05-22T07:43:38.000Z</time></trkpt><trkpt lon="6.17681" lat="51.128216"><ele>65.2</ele><time>2022-05-22T07:43:39.000Z</time></trkpt><trkpt lon="6.1769" lat="51.128275"><ele>64.6</ele><time>2022-05-22T07:43:40.000Z</time></trkpt><trkpt lon="6.176993" lat="51.12834"><ele>64.2</ele><time>2022-05-22T07:43:41.000Z</time></trkpt><trkpt lon="6.17709" lat="51.128414"><ele>63.8</ele><time>2022-05-22T07:43:42.000Z</time></trkpt><trkpt lon="6.177193" lat="51.128495"><ele>63.4</ele><time>2022-05-22T07:43:43.000Z</time></trkpt><trkpt lon="6.17729" lat="51.128575"><ele>62.8</ele><time>2022-05-22T07:43:44.000Z</time></trkpt><trkpt lon="6.177391" lat="51.128649"><ele>62.6</ele><time>2022-05-22T07:43:45.000Z</time></trkpt><trkpt lon="6.177493" lat="51.128725"><ele>62.2</ele><time>2022-05-22T07:43:46.000Z</time></trkpt><trkpt lon="6.177587" lat="51.128798"><ele>61.8</ele><time>2022-05-22T07:43:47.000Z</time></trkpt><trkpt lon="6.177684" lat="51.128877"><ele>61.4</ele><time>2022-05-22T07:43:48.000Z</time></trkpt><trkpt lon="6.177782" lat="51.128954"><ele>61</ele><time>2022-05-22T07:43:49.000Z</time></trkpt><trkpt lon="6.177881" lat="51.129034"><ele>60.4</ele><time>2022-05-22T07:43:50.000Z</time></trkpt><trkpt lon="6.177981" lat="51.129109"><ele>60</ele><time>2022-05-22T07:43:51.000Z</time></trkpt><trkpt lon="6.178084" lat="51.129183"><ele>59.8</ele><time>2022-05-22T07:43:52.000Z</time></trkpt><trkpt lon="6.178187" lat="51.129247"><ele>59.4</ele><time>2022-05-22T07:43:53.000Z</time></trkpt><trkpt lon="6.178282" lat="51.129299"><ele>59.4</ele><time>2022-05-22T07:43:54.000Z</time></trkpt><trkpt lon="6.178394" lat="51.129359"><ele>59.4</ele><time>2022-05-22T07:43:55.000Z</time></trkpt><trkpt lon="6.17849" lat="51.129408"><ele>59.6</ele><time>2022-05-22T07:43:56.000Z</time></trkpt><trkpt lon="6.178593" lat="51.129451"><ele>59.6</ele><time>2022-05-22T07:43:57.000Z</time></trkpt><trkpt lon="6.178693" lat="51.129492"><ele>59.6</ele><time>2022-05-22T07:43:58.000Z</time></trkpt><trkpt lon="6.178787" lat="51.129534"><ele>59.6</ele><time>2022-05-22T07:43:59.000Z</time></trkpt><trkpt lon="6.178883" lat="51.129577"><ele>59.6</ele><time>2022-05-22T07:44:00.000Z</time></trkpt><trkpt lon="6.178983" lat="51.129615"><ele>59.8</ele><time>2022-05-22T07:44:01.000Z</time></trkpt><trkpt lon="6.179076" lat="51.129649"><ele>60</ele><time>2022-05-22T07:44:02.000Z</time></trkpt><trkpt lon="6.179165" lat="51.129684"><ele>60.4</ele><time>2022-05-22T07:44:03.000Z</time></trkpt><trkpt lon="6.179251" lat="51.129718"><ele>60.8</ele><time>2022-05-22T07:44:04.000Z</time></trkpt><trkpt lon="6.179334" lat="51.129745"><ele>61.2</ele><time>2022-05-22T07:44:05.000Z</time></trkpt><trkpt lon="6.179412" lat="51.129767"><ele>61.8</ele><time>2022-05-22T07:44:06.000Z</time></trkpt><trkpt lon="6.179495" lat="51.129798"><ele>62.2</ele><time>2022-05-22T07:44:07.000Z</time></trkpt><trkpt lon="6.179572" lat="51.129832"><ele>62.6</ele><time>2022-05-22T07:44:08.000Z</time></trkpt><trkpt lon="6.179649" lat="51.129873"><ele>63.2</ele><time>2022-05-22T07:44:09.000Z</time></trkpt><trkpt lon="6.17973" lat="51.129909"><ele>63.6</ele><time>2022-05-22T07:44:10.000Z</time></trkpt><trkpt lon="6.179804" lat="51.129943"><ele>64.2</ele><time>2022-05-22T07:44:11.000Z</time></trkpt><trkpt lon="6.179877" lat="51.129982"><ele>64.6</ele><time>2022-05-22T07:44:12.000Z</time></trkpt><trkpt lon="6.179953" lat="51.130016"><ele>65</ele><time>2022-05-22T07:44:13.000Z</time></trkpt><trkpt lon="6.180022" lat="51.13005"><ele>65.4</ele><time>2022-05-22T07:44:14.000Z</time></trkpt><trkpt lon="6.180095" lat="51.130083"><ele>65.8</ele><time>2022-05-22T07:44:15.000Z</time></trkpt><trkpt lon="6.180185" lat="51.130111"><ele>66.2</ele><time>2022-05-22T07:44:16.000Z</time></trkpt><trkpt lon="6.180273" lat="51.130142"><ele>66.6</ele><time>2022-05-22T07:44:17.000Z</time></trkpt><trkpt lon="6.180368" lat="51.130176"><ele>66.8</ele><time>2022-05-22T07:44:18.000Z</time></trkpt><trkpt lon="6.180447" lat="51.130209"><ele>67</ele><time>2022-05-22T07:44:19.000Z</time></trkpt><trkpt lon="6.180526" lat="51.13024"><ele>67.2</ele><time>2022-05-22T07:44:20.000Z</time></trkpt><trkpt lon="6.180604" lat="51.130282"><ele>67.6</ele><time>2022-05-22T07:44:21.000Z</time></trkpt><trkpt lon="6.180681" lat="51.13032"><ele>68</ele><time>2022-05-22T07:44:22.000Z</time></trkpt><trkpt lon="6.18076" lat="51.130358"><ele>68.4</ele><time>2022-05-22T07:44:23.000Z</time></trkpt><trkpt lon="6.180839" lat="51.130393"><ele>68.8</ele><time>2022-05-22T07:44:24.000Z</time></trkpt><trkpt lon="6.180911" lat="51.13042"><ele>69.4</ele><time>2022-05-22T07:44:25.000Z</time></trkpt><trkpt lon="6.180987" lat="51.130443"><ele>69.8</ele><time>2022-05-22T07:44:26.000Z</time></trkpt><trkpt lon="6.181054" lat="51.130469"><ele>70.4</ele><time>2022-05-22T07:44:27.000Z</time></trkpt><trkpt lon="6.181127" lat="51.130492"><ele>70.8</ele><time>2022-05-22T07:44:28.000Z</time></trkpt><trkpt lon="6.181205" lat="51.130519"><ele>71.4</ele><time>2022-05-22T07:44:29.000Z</time></trkpt><trkpt lon="6.181285" lat="51.130553"><ele>71.8</ele><time>2022-05-22T07:44:30.000Z</time></trkpt><trkpt lon="6.181358" lat="51.13059"><ele>72.2</ele><time>2022-05-22T07:44:31.000Z</time></trkpt><trkpt lon="6.181441" lat="51.130628"><ele>72.8</ele><time>2022-05-22T07:44:32.000Z</time></trkpt><trkpt lon="6.181524" lat="51.13066"><ele>73.2</ele><time>2022-05-22T07:44:33.000Z</time></trkpt><trkpt lon="6.18161" lat="51.130699"><ele>73.6</ele><time>2022-05-22T07:44:34.000Z</time></trkpt><trkpt lon="6.181691" lat="51.130736"><ele>74.2</ele><time>2022-05-22T07:44:35.000Z</time></trkpt><trkpt lon="6.181776" lat="51.13077"><ele>74.6</ele><time>2022-05-22T07:44:36.000Z</time></trkpt><trkpt lon="6.181852" lat="51.130801"><ele>75.2</ele><time>2022-05-22T07:44:37.000Z</time></trkpt><trkpt lon="6.181922" lat="51.130846"><ele>75.8</ele><time>2022-05-22T07:44:38.000Z</time></trkpt><trkpt lon="6.181993" lat="51.130877"><ele>76.2</ele><time>2022-05-22T07:44:39.000Z</time></trkpt><trkpt lon="6.182066" lat="51.130915"><ele>76.8</ele><time>2022-05-22T07:44:40.000Z</time></trkpt><trkpt lon="6.182141" lat="51.13095"><ele>77.2</ele><time>2022-05-22T07:44:41.000Z</time></trkpt><trkpt lon="6.182211" lat="51.130984"><ele>77.8</ele><time>2022-05-22T07:44:42.000Z</time></trkpt><trkpt lon="6.182279" lat="51.131015"><ele>78.2</ele><time>2022-05-22T07:44:43.000Z</time></trkpt><trkpt lon="6.182346" lat="51.131045"><ele>78.6</ele><time>2022-05-22T07:44:44.000Z</time></trkpt><trkpt lon="6.182413" lat="51.131072"><ele>79</ele><time>2022-05-22T07:44:45.000Z</time></trkpt><trkpt lon="6.182487" lat="51.131103"><ele>79.4</ele><time>2022-05-22T07:44:46.000Z</time></trkpt><trkpt lon="6.182565" lat="51.13113"><ele>79.8</ele><time>2022-05-22T07:44:47.000Z</time></trkpt><trkpt lon="6.18263" lat="51.13116"><ele>80.2</ele><time>2022-05-22T07:44:48.000Z</time></trkpt><trkpt lon="6.1827" lat="51.13119"><ele>80.6</ele><time>2022-05-22T07:44:49.000Z</time></trkpt><trkpt lon="6.182766" lat="51.131221"><ele>81</ele><time>2022-05-22T07:44:50.000Z</time></trkpt><trkpt lon="6.182837" lat="51.131244"><ele>81.4</ele><time>2022-05-22T07:44:51.000Z</time></trkpt><trkpt lon="6.182903" lat="51.131267"><ele>81.6</ele><time>2022-05-22T07:44:52.000Z</time></trkpt><trkpt lon="6.182982" lat="51.131301"><ele>82</ele><time>2022-05-22T07:44:53.000Z</time></trkpt><trkpt lon="6.183063" lat="51.131335"><ele>82.2</ele><time>2022-05-22T07:44:54.000Z</time></trkpt><trkpt lon="6.183137" lat="51.131366"><ele>82.4</ele><time>2022-05-22T07:44:55.000Z</time></trkpt><trkpt lon="6.183212" lat="51.131397"><ele>82.6</ele><time>2022-05-22T07:44:56.000Z</time></trkpt><trkpt lon="6.183277" lat="51.13142"><ele>82.8</ele><time>2022-05-22T07:44:57.000Z</time></trkpt><trkpt lon="6.183337" lat="51.131443"><ele>83</ele><time>2022-05-22T07:44:58.000Z</time></trkpt><trkpt lon="6.183403" lat="51.131473"><ele>83.2</ele><time>2022-05-22T07:44:59.000Z</time></trkpt><trkpt lon="6.18347" lat="51.131496"><ele>83.4</ele><time>2022-05-22T07:45:00.000Z</time></trkpt><trkpt lon="6.183536" lat="51.131511"><ele>83.6</ele><time>2022-05-22T07:45:01.000Z</time></trkpt><trkpt lon="6.18359" lat="51.131526"><ele>83.8</ele><time>2022-05-22T07:45:02.000Z</time></trkpt><trkpt lon="6.183647" lat="51.131549"><ele>84</ele><time>2022-05-22T07:45:03.000Z</time></trkpt><trkpt lon="6.183704" lat="51.131575"><ele>84</ele><time>2022-05-22T07:45:04.000Z</time></trkpt><trkpt lon="6.183773" lat="51.131606"><ele>84</ele><time>2022-05-22T07:45:05.000Z</time></trkpt><trkpt lon="6.183837" lat="51.131633"><ele>84</ele><time>2022-05-22T07:45:06.000Z</time></trkpt><trkpt lon="6.183904" lat="51.131671"><ele>84</ele><time>2022-05-22T07:45:07.000Z</time></trkpt><trkpt lon="6.183979" lat="51.131717"><ele>83.8</ele><time>2022-05-22T07:45:08.000Z</time></trkpt><trkpt lon="6.184042" lat="51.131747"><ele>84</ele><time>2022-05-22T07:45:09.000Z</time></trkpt><trkpt lon="6.184107" lat="51.131774"><ele>84.2</ele><time>2022-05-22T07:45:10.000Z</time></trkpt><trkpt lon="6.184178" lat="51.131801"><ele>84.4</ele><time>2022-05-22T07:45:11.000Z</time></trkpt><trkpt lon="6.184257" lat="51.131839"><ele>84.2</ele><time>2022-05-22T07:45:12.000Z</time></trkpt><trkpt lon="6.184331" lat="51.131877"><ele>84.2</ele><time>2022-05-22T07:45:13.000Z</time></trkpt><trkpt lon="6.1844" lat="51.131914"><ele>84</ele><time>2022-05-22T07:45:14.000Z</time></trkpt><trkpt lon="6.18447" lat="51.131938"><ele>84</ele><time>2022-05-22T07:45:15.000Z</time></trkpt><trkpt lon="6.184541" lat="51.131976"><ele>83.8</ele><time>2022-05-22T07:45:16.000Z</time></trkpt><trkpt lon="6.184608" lat="51.132014"><ele>83.8</ele><time>2022-05-22T07:45:17.000Z</time></trkpt><trkpt lon="6.18468" lat="51.132049"><ele>83.8</ele><time>2022-05-22T07:45:18.000Z</time></trkpt><trkpt lon="6.184772" lat="51.132087"><ele>83.8</ele><time>2022-05-22T07:45:19.000Z</time></trkpt><trkpt lon="6.184863" lat="51.132106"><ele>83.8</ele><time>2022-05-22T07:45:20.000Z</time></trkpt><trkpt lon="6.184951" lat="51.132132"><ele>83.6</ele><time>2022-05-22T07:45:21.000Z</time></trkpt><trkpt lon="6.185037" lat="51.132159"><ele>83.6</ele><time>2022-05-22T07:45:22.000Z</time></trkpt><trkpt lon="6.185128" lat="51.132186"><ele>83.4</ele><time>2022-05-22T07:45:23.000Z</time></trkpt><trkpt lon="6.18522" lat="51.132224"><ele>83.4</ele><time>2022-05-22T07:45:24.000Z</time></trkpt><trkpt lon="6.185317" lat="51.132262"><ele>83.2</ele><time>2022-05-22T07:45:25.000Z</time></trkpt><trkpt lon="6.185411" lat="51.132303"><ele>83.2</ele><time>2022-05-22T07:45:26.000Z</time></trkpt><trkpt lon="6.185503" lat="51.132338"><ele>83</ele><time>2022-05-22T07:45:27.000Z</time></trkpt><trkpt lon="6.185593" lat="51.132377"><ele>83</ele><time>2022-05-22T07:45:28.000Z</time></trkpt><trkpt lon="6.185676" lat="51.132414"><ele>83</ele><time>2022-05-22T07:45:29.000Z</time></trkpt><trkpt lon="6.185762" lat="51.132461"><ele>83</ele><time>2022-05-22T07:45:30.000Z</time></trkpt><trkpt lon="6.185845" lat="51.13251"><ele>83</ele><time>2022-05-22T07:45:31.000Z</time></trkpt><trkpt lon="6.185937" lat="51.132552"><ele>82.8</ele><time>2022-05-22T07:45:32.000Z</time></trkpt><trkpt lon="6.186033" lat="51.132587"><ele>82.8</ele><time>2022-05-22T07:45:33.000Z</time></trkpt><trkpt lon="6.186123" lat="51.13262"><ele>82.8</ele><time>2022-05-22T07:45:34.000Z</time></trkpt><trkpt lon="6.186217" lat="51.132666"><ele>82.6</ele><time>2022-05-22T07:45:35.000Z</time></trkpt><trkpt lon="6.186318" lat="51.132704"><ele>82.4</ele><time>2022-05-22T07:45:36.000Z</time></trkpt><trkpt lon="6.186432" lat="51.132754"><ele>82.2</ele><time>2022-05-22T07:45:37.000Z</time></trkpt><trkpt lon="6.186534" lat="51.132807"><ele>82.2</ele><time>2022-05-22T07:45:38.000Z</time></trkpt><trkpt lon="6.186632" lat="51.132861"><ele>82.2</ele><time>2022-05-22T07:45:39.000Z</time></trkpt><trkpt lon="6.186738" lat="51.132906"><ele>82.2</ele><time>2022-05-22T07:45:40.000Z</time></trkpt><trkpt lon="6.186851" lat="51.132952"><ele>82.2</ele><time>2022-05-22T07:45:41.000Z</time></trkpt><trkpt lon="6.18694" lat="51.132987"><ele>82</ele><time>2022-05-22T07:45:42.000Z</time></trkpt><trkpt lon="6.187073" lat="51.13304"><ele>81.8</ele><time>2022-05-22T07:45:43.000Z</time></trkpt><trkpt lon="6.187189" lat="51.133097"><ele>81.6</ele><time>2022-05-22T07:45:44.000Z</time></trkpt><trkpt lon="6.187311" lat="51.133143"><ele>81.6</ele><time>2022-05-22T07:45:45.000Z</time></trkpt><trkpt lon="6.187423" lat="51.133196"><ele>81.6</ele><time>2022-05-22T07:45:46.000Z</time></trkpt><trkpt lon="6.187535" lat="51.133245"><ele>81.4</ele><time>2022-05-22T07:45:47.000Z</time></trkpt><trkpt lon="6.187656" lat="51.133292"><ele>81.4</ele><time>2022-05-22T07:45:48.000Z</time></trkpt><trkpt lon="6.187767" lat="51.133338"><ele>81.2</ele><time>2022-05-22T07:45:49.000Z</time></trkpt><trkpt lon="6.187877" lat="51.133384"><ele>81.2</ele><time>2022-05-22T07:45:50.000Z</time></trkpt><trkpt lon="6.187979" lat="51.133433"><ele>81.2</ele><time>2022-05-22T07:45:51.000Z</time></trkpt><trkpt lon="6.188081" lat="51.133478"><ele>81.2</ele><time>2022-05-22T07:45:52.000Z</time></trkpt><trkpt lon="6.188176" lat="51.133523"><ele>81</ele><time>2022-05-22T07:45:53.000Z</time></trkpt><trkpt lon="6.188278" lat="51.133566"><ele>81</ele><time>2022-05-22T07:45:54.000Z</time></trkpt><trkpt lon="6.188377" lat="51.133609"><ele>81</ele><time>2022-05-22T07:45:55.000Z</time></trkpt><trkpt lon="6.188474" lat="51.133654"><ele>81</ele><time>2022-05-22T07:45:56.000Z</time></trkpt><trkpt lon="6.188567" lat="51.133691"><ele>81</ele><time>2022-05-22T07:45:57.000Z</time></trkpt><trkpt lon="6.188663" lat="51.133731"><ele>81</ele><time>2022-05-22T07:45:58.000Z</time></trkpt><trkpt lon="6.188754" lat="51.133772"><ele>81</ele><time>2022-05-22T07:45:59.000Z</time></trkpt><trkpt lon="6.188842" lat="51.133814"><ele>81</ele><time>2022-05-22T07:46:00.000Z</time></trkpt><trkpt lon="6.188932" lat="51.133853"><ele>81</ele><time>2022-05-22T07:46:01.000Z</time></trkpt><trkpt lon="6.189023" lat="51.133894"><ele>81</ele><time>2022-05-22T07:46:02.000Z</time></trkpt><trkpt lon="6.189116" lat="51.133932"><ele>81</ele><time>2022-05-22T07:46:03.000Z</time></trkpt><trkpt lon="6.189208" lat="51.133975"><ele>80.8</ele><time>2022-05-22T07:46:04.000Z</time></trkpt><trkpt lon="6.189298" lat="51.134013"><ele>80.8</ele><time>2022-05-22T07:46:05.000Z</time></trkpt><trkpt lon="6.189385" lat="51.134051"><ele>80.8</ele><time>2022-05-22T07:46:06.000Z</time></trkpt><trkpt lon="6.189474" lat="51.134086"><ele>80.8</ele><time>2022-05-22T07:46:07.000Z</time></trkpt><trkpt lon="6.189561" lat="51.13412"><ele>80.8</ele><time>2022-05-22T07:46:08.000Z</time></trkpt><trkpt lon="6.189648" lat="51.134154"><ele>80.6</ele><time>2022-05-22T07:46:09.000Z</time></trkpt><trkpt lon="6.189731" lat="51.134189"><ele>80.6</ele><time>2022-05-22T07:46:10.000Z</time></trkpt><trkpt lon="6.189813" lat="51.134219"><ele>80.6</ele><time>2022-05-22T07:46:11.000Z</time></trkpt><trkpt lon="6.189871" lat="51.134247"><ele>80.6</ele><time>2022-05-22T07:46:12.000Z</time></trkpt><trkpt lon="6.189966" lat="51.134291"><ele>80.8</ele><time>2022-05-22T07:46:13.000Z</time></trkpt><trkpt lon="6.190041" lat="51.134326"><ele>80.8</ele><time>2022-05-22T07:46:14.000Z</time></trkpt><trkpt lon="6.190109" lat="51.134353"><ele>80.8</ele><time>2022-05-22T07:46:15.000Z</time></trkpt><trkpt lon="6.190168" lat="51.134376"><ele>80.8</ele><time>2022-05-22T07:46:16.000Z</time></trkpt><trkpt lon="6.19022" lat="51.134399"><ele>80.8</ele><time>2022-05-22T07:46:17.000Z</time></trkpt><trkpt lon="6.190265" lat="51.134418"><ele>80.8</ele><time>2022-05-22T07:46:18.000Z</time></trkpt><trkpt lon="6.190304" lat="51.13443"><ele>81</ele><time>2022-05-22T07:46:19.000Z</time></trkpt><trkpt lon="6.190338" lat="51.134444"><ele>81</ele><time>2022-05-22T07:46:20.000Z</time></trkpt><trkpt lon="6.190372" lat="51.134456"><ele>81</ele><time>2022-05-22T07:46:21.000Z</time></trkpt><trkpt lon="6.190397" lat="51.134464"><ele>81</ele><time>2022-05-22T07:46:22.000Z</time></trkpt><trkpt lon="6.190416" lat="51.134472"><ele>81.2</ele><time>2022-05-22T07:46:23.000Z</time></trkpt><trkpt lon="6.190428" lat="51.134487"><ele>81.2</ele><time>2022-05-22T07:48:11.000Z</time></trkpt><trkpt lon="6.190428" lat="51.134487"><ele>81.2</ele><time>2022-05-22T07:48:12.000Z</time></trkpt><trkpt lon="6.190428" lat="51.134487"><ele>81.2</ele><time>2022-05-22T07:48:13.000Z</time></trkpt><trkpt lon="6.190428" lat="51.134487"><ele>81.2</ele><time>2022-05-22T07:48:14.000Z</time></trkpt><trkpt lon="6.190428" lat="51.134487"><ele>81.2</ele><time>2022-05-22T07:48:15.000Z</time></trkpt><trkpt lon="6.190428" lat="51.134487"><ele>81.2</ele><time>2022-05-22T07:48:16.000Z</time></trkpt><trkpt lon="6.190428" lat="51.134487"><ele>81.2</ele><time>2022-05-22T07:48:17.000Z</time></trkpt><trkpt lon="6.190428" lat="51.134487"><ele>81.2</ele><time>2022-05-22T07:48:18.000Z</time></trkpt><trkpt lon="6.190477" lat="51.134519"><ele>81.2</ele><time>2022-05-22T07:48:19.000Z</time></trkpt><trkpt lon="6.19057" lat="51.134598"><ele>81.2</ele><time>2022-05-22T07:48:29.000Z</time></trkpt><trkpt lon="6.190585" lat="51.134598"><ele>81.2</ele><time>2022-05-22T07:48:30.000Z</time></trkpt><trkpt lon="6.190601" lat="51.134602"><ele>81.2</ele><time>2022-05-22T07:48:31.000Z</time></trkpt><trkpt lon="6.190628" lat="51.134605"><ele>81.2</ele><time>2022-05-22T07:48:32.000Z</time></trkpt><trkpt lon="6.19064" lat="51.134564"><ele>81.2</ele><time>2022-05-22T07:48:33.000Z</time></trkpt><trkpt lon="6.190677" lat="51.134611"><ele>81.2</ele><time>2022-05-22T07:48:34.000Z</time></trkpt><trkpt lon="6.190694" lat="51.134638"><ele>81.2</ele><time>2022-05-22T07:48:35.000Z</time></trkpt><trkpt lon="6.190698" lat="51.134666"><ele>81.2</ele><time>2022-05-22T07:48:36.000Z</time></trkpt><trkpt lon="6.190695" lat="51.134704"><ele>81</ele><time>2022-05-22T07:48:37.000Z</time></trkpt><trkpt lon="6.190687" lat="51.134746"><ele>81</ele><time>2022-05-22T07:48:38.000Z</time></trkpt><trkpt lon="6.190682" lat="51.134788"><ele>81</ele><time>2022-05-22T07:48:39.000Z</time></trkpt><trkpt lon="6.190685" lat="51.134834"><ele>80.8</ele><time>2022-05-22T07:48:40.000Z</time></trkpt><trkpt lon="6.190687" lat="51.134878"><ele>80.6</ele><time>2022-05-22T07:48:41.000Z</time></trkpt><trkpt lon="6.190682" lat="51.134928"><ele>80.6</ele><time>2022-05-22T07:48:42.000Z</time></trkpt><trkpt lon="6.19068" lat="51.134968"><ele>80.4</ele><time>2022-05-22T07:48:43.000Z</time></trkpt><trkpt lon="6.190677" lat="51.135023"><ele>80.4</ele><time>2022-05-22T07:48:44.000Z</time></trkpt><trkpt lon="6.190672" lat="51.135078"><ele>80.2</ele><time>2022-05-22T07:48:45.000Z</time></trkpt><trkpt lon="6.190668" lat="51.135134"><ele>80</ele><time>2022-05-22T07:48:46.000Z</time></trkpt><trkpt lon="6.190665" lat="51.135196"><ele>79.6</ele><time>2022-05-22T07:48:47.000Z</time></trkpt><trkpt lon="6.190663" lat="51.135259"><ele>79.6</ele><time>2022-05-22T07:48:48.000Z</time></trkpt><trkpt lon="6.190662" lat="51.135328"><ele>79.4</ele><time>2022-05-22T07:48:49.000Z</time></trkpt><trkpt lon="6.190661" lat="51.135401"><ele>79.2</ele><time>2022-05-22T07:48:50.000Z</time></trkpt><trkpt lon="6.190661" lat="51.135473"><ele>78.8</ele><time>2022-05-22T07:48:51.000Z</time></trkpt><trkpt lon="6.190665" lat="51.13555"><ele>78.6</ele><time>2022-05-22T07:48:52.000Z</time></trkpt><trkpt lon="6.190665" lat="51.135629"><ele>78.4</ele><time>2022-05-22T07:48:53.000Z</time></trkpt><trkpt lon="6.190662" lat="51.135698"><ele>78</ele><time>2022-05-22T07:48:54.000Z</time></trkpt><trkpt lon="6.19066" lat="51.13577"><ele>77.8</ele><time>2022-05-22T07:48:55.000Z</time></trkpt><trkpt lon="6.190655" lat="51.135843"><ele>77.6</ele><time>2022-05-22T07:48:56.000Z</time></trkpt><trkpt lon="6.19065" lat="51.135916"><ele>77.6</ele><time>2022-05-22T07:48:57.000Z</time></trkpt><trkpt lon="6.190647" lat="51.135985"><ele>77.4</ele><time>2022-05-22T07:48:58.000Z</time></trkpt><trkpt lon="6.190645" lat="51.136053"><ele>77.2</ele><time>2022-05-22T07:48:59.000Z</time></trkpt><trkpt lon="6.190642" lat="51.136122"><ele>77</ele><time>2022-05-22T07:49:00.000Z</time></trkpt><trkpt lon="6.19064" lat="51.136191"><ele>77</ele><time>2022-05-22T07:49:01.000Z</time></trkpt><trkpt lon="6.190637" lat="51.136255"><ele>77</ele><time>2022-05-22T07:49:02.000Z</time></trkpt><trkpt lon="6.190632" lat="51.136317"><ele>76.8</ele><time>2022-05-22T07:49:03.000Z</time></trkpt><trkpt lon="6.19063" lat="51.136369"><ele>76.8</ele><time>2022-05-22T07:49:04.000Z</time></trkpt><trkpt lon="6.190629" lat="51.136439"><ele>76.8</ele><time>2022-05-22T07:49:05.000Z</time></trkpt><trkpt lon="6.190629" lat="51.1365"><ele>76.8</ele><time>2022-05-22T07:49:06.000Z</time></trkpt><trkpt lon="6.190623" lat="51.136557"><ele>76.6</ele><time>2022-05-22T07:49:07.000Z</time></trkpt><trkpt lon="6.190617" lat="51.13661"><ele>76.6</ele><time>2022-05-22T07:49:08.000Z</time></trkpt><trkpt lon="6.190613" lat="51.136672"><ele>76.6</ele><time>2022-05-22T07:49:09.000Z</time></trkpt><trkpt lon="6.190617" lat="51.136725"><ele>76.6</ele><time>2022-05-22T07:49:10.000Z</time></trkpt><trkpt lon="6.190626" lat="51.136782"><ele>76.6</ele><time>2022-05-22T07:49:11.000Z</time></trkpt><trkpt lon="6.190632" lat="51.136847"><ele>76.6</ele><time>2022-05-22T07:49:12.000Z</time></trkpt><trkpt lon="6.190636" lat="51.136912"><ele>76.6</ele><time>2022-05-22T07:49:13.000Z</time></trkpt><trkpt lon="6.190638" lat="51.136969"><ele>76.4</ele><time>2022-05-22T07:49:14.000Z</time></trkpt><trkpt lon="6.190639" lat="51.137034"><ele>76.4</ele><time>2022-05-22T07:49:15.000Z</time></trkpt><trkpt lon="6.190642" lat="51.137092"><ele>76.4</ele><time>2022-05-22T07:49:16.000Z</time></trkpt><trkpt lon="6.190642" lat="51.137152"><ele>76.2</ele><time>2022-05-22T07:49:17.000Z</time></trkpt><trkpt lon="6.190639" lat="51.137217"><ele>76</ele><time>2022-05-22T07:49:18.000Z</time></trkpt><trkpt lon="6.190632" lat="51.137282"><ele>75.8</ele><time>2022-05-22T07:49:19.000Z</time></trkpt><trkpt lon="6.19063" lat="51.137347"><ele>75.8</ele><time>2022-05-22T07:49:20.000Z</time></trkpt><trkpt lon="6.19063" lat="51.137415"><ele>75.4</ele><time>2022-05-22T07:49:21.000Z</time></trkpt><trkpt lon="6.190633" lat="51.137481"><ele>75.2</ele><time>2022-05-22T07:49:22.000Z</time></trkpt><trkpt lon="6.190632" lat="51.137545"><ele>75</ele><time>2022-05-22T07:49:23.000Z</time></trkpt><trkpt lon="6.190632" lat="51.137612"><ele>74.8</ele><time>2022-05-22T07:49:24.000Z</time></trkpt><trkpt lon="6.190629" lat="51.137682"><ele>74.6</ele><time>2022-05-22T07:49:25.000Z</time></trkpt><trkpt lon="6.190625" lat="51.137747"><ele>74.4</ele><time>2022-05-22T07:49:26.000Z</time></trkpt><trkpt lon="6.19062" lat="51.137806"><ele>74</ele><time>2022-05-22T07:49:27.000Z</time></trkpt><trkpt lon="6.190612" lat="51.137862"><ele>73.6</ele><time>2022-05-22T07:49:28.000Z</time></trkpt><trkpt lon="6.190607" lat="51.137923"><ele>73.4</ele><time>2022-05-22T07:49:29.000Z</time></trkpt><trkpt lon="6.190605" lat="51.13799"><ele>73</ele><time>2022-05-22T07:49:30.000Z</time></trkpt><trkpt lon="6.190608" lat="51.13806"><ele>72.6</ele><time>2022-05-22T07:49:31.000Z</time></trkpt><trkpt lon="6.190607" lat="51.138125"><ele>72.4</ele><time>2022-05-22T07:49:32.000Z</time></trkpt><trkpt lon="6.19061" lat="51.1382"><ele>72</ele><time>2022-05-22T07:49:33.000Z</time></trkpt><trkpt lon="6.190612" lat="51.13827"><ele>71.6</ele><time>2022-05-22T07:49:34.000Z</time></trkpt><trkpt lon="6.190612" lat="51.138338"><ele>71</ele><time>2022-05-22T07:49:35.000Z</time></trkpt><trkpt lon="6.190612" lat="51.138415"><ele>70.4</ele><time>2022-05-22T07:49:36.000Z</time></trkpt><trkpt lon="6.19061" lat="51.138491"><ele>69.8</ele><time>2022-05-22T07:49:37.000Z</time></trkpt><trkpt lon="6.19061" lat="51.138562"><ele>69.2</ele><time>2022-05-22T07:49:38.000Z</time></trkpt><trkpt lon="6.190612" lat="51.138632"><ele>68.8</ele><time>2022-05-22T07:49:39.000Z</time></trkpt><trkpt lon="6.190613" lat="51.138709"><ele>68.6</ele><time>2022-05-22T07:49:40.000Z</time></trkpt><trkpt lon="6.190613" lat="51.138777"><ele>68.4</ele><time>2022-05-22T07:49:41.000Z</time></trkpt><trkpt lon="6.190613" lat="51.138853"><ele>68.4</ele><time>2022-05-22T07:49:42.000Z</time></trkpt><trkpt lon="6.190613" lat="51.13892"><ele>68.2</ele><time>2022-05-22T07:49:43.000Z</time></trkpt><trkpt lon="6.190609" lat="51.138994"><ele>68</ele><time>2022-05-22T07:49:44.000Z</time></trkpt><trkpt lon="6.190603" lat="51.139064"><ele>67.8</ele><time>2022-05-22T07:49:45.000Z</time></trkpt><trkpt lon="6.190602" lat="51.139132"><ele>67.6</ele><time>2022-05-22T07:49:46.000Z</time></trkpt><trkpt lon="6.190597" lat="51.139201"><ele>67.6</ele><time>2022-05-22T07:49:47.000Z</time></trkpt><trkpt lon="6.190587" lat="51.139256"><ele>67.6</ele><time>2022-05-22T07:49:48.000Z</time></trkpt><trkpt lon="6.190579" lat="51.139307"><ele>67.4</ele><time>2022-05-22T07:49:49.000Z</time></trkpt><trkpt lon="6.190572" lat="51.139353"><ele>67.4</ele><time>2022-05-22T07:49:50.000Z</time></trkpt><trkpt lon="6.190568" lat="51.139385"><ele>67.4</ele><time>2022-05-22T07:49:51.000Z</time></trkpt><trkpt lon="6.190567" lat="51.139407"><ele>67.2</ele><time>2022-05-22T07:49:52.000Z</time></trkpt><trkpt lon="6.190559" lat="51.139434"><ele>67.2</ele><time>2022-05-22T07:49:53.000Z</time></trkpt><trkpt lon="6.190541" lat="51.13946"><ele>67.2</ele><time>2022-05-22T07:49:54.000Z</time></trkpt><trkpt lon="6.190535" lat="51.139501"><ele>67</ele><time>2022-05-22T07:49:55.000Z</time></trkpt><trkpt lon="6.190545" lat="51.139545"><ele>67</ele><time>2022-05-22T07:49:56.000Z</time></trkpt><trkpt lon="6.190568" lat="51.139597"><ele>66.8</ele><time>2022-05-22T07:49:57.000Z</time></trkpt><trkpt lon="6.190588" lat="51.13965"><ele>66.8</ele><time>2022-05-22T07:49:58.000Z</time></trkpt><trkpt lon="6.190593" lat="51.139704"><ele>66.6</ele><time>2022-05-22T07:49:59.000Z</time></trkpt><trkpt lon="6.190596" lat="51.139758"><ele>66.6</ele><time>2022-05-22T07:50:00.000Z</time></trkpt><trkpt lon="6.190595" lat="51.139819"><ele>66.6</ele><time>2022-05-22T07:50:01.000Z</time></trkpt><trkpt lon="6.190589" lat="51.139876"><ele>66.6</ele><time>2022-05-22T07:50:02.000Z</time></trkpt><trkpt lon="6.19058" lat="51.139937"><ele>66.6</ele><time>2022-05-22T07:50:03.000Z</time></trkpt><trkpt lon="6.190567" lat="51.14"><ele>66.6</ele><time>2022-05-22T07:50:04.000Z</time></trkpt><trkpt lon="6.190555" lat="51.140063"><ele>66.8</ele><time>2022-05-22T07:50:05.000Z</time></trkpt><trkpt lon="6.190542" lat="51.140127"><ele>67.2</ele><time>2022-05-22T07:50:06.000Z</time></trkpt><trkpt lon="6.190527" lat="51.140188"><ele>67.2</ele><time>2022-05-22T07:50:07.000Z</time></trkpt><trkpt lon="6.190509" lat="51.140254"><ele>67.4</ele><time>2022-05-22T07:50:08.000Z</time></trkpt><trkpt lon="6.190487" lat="51.140315"><ele>67.4</ele><time>2022-05-22T07:50:09.000Z</time></trkpt><trkpt lon="6.190461" lat="51.140376"><ele>67.4</ele><time>2022-05-22T07:50:10.000Z</time></trkpt><trkpt lon="6.190431" lat="51.140441"><ele>67.6</ele><time>2022-05-22T07:50:11.000Z</time></trkpt><trkpt lon="6.190398" lat="51.140498"><ele>67.6</ele><time>2022-05-22T07:50:12.000Z</time></trkpt><trkpt lon="6.190359" lat="51.140555"><ele>67.8</ele><time>2022-05-22T07:50:13.000Z</time></trkpt><trkpt lon="6.190315" lat="51.140604"><ele>67.8</ele><time>2022-05-22T07:50:14.000Z</time></trkpt><trkpt lon="6.19026" lat="51.140662"><ele>68</ele><time>2022-05-22T07:50:15.000Z</time></trkpt><trkpt lon="6.190205" lat="51.140713"><ele>67.8</ele><time>2022-05-22T07:50:16.000Z</time></trkpt><trkpt lon="6.190141" lat="51.140769"><ele>67.8</ele><time>2022-05-22T07:50:17.000Z</time></trkpt><trkpt lon="6.190078" lat="51.140818"><ele>67.6</ele><time>2022-05-22T07:50:18.000Z</time></trkpt><trkpt lon="6.190013" lat="51.140868"><ele>67.6</ele><time>2022-05-22T07:50:19.000Z</time></trkpt><trkpt lon="6.189949" lat="51.140917"><ele>67.6</ele><time>2022-05-22T07:50:20.000Z</time></trkpt><trkpt lon="6.189882" lat="51.140966"><ele>67.4</ele><time>2022-05-22T07:50:21.000Z</time></trkpt><trkpt lon="6.189824" lat="51.141012"><ele>67.4</ele><time>2022-05-22T07:50:22.000Z</time></trkpt><trkpt lon="6.189755" lat="51.141059"><ele>67.2</ele><time>2022-05-22T07:50:23.000Z</time></trkpt><trkpt lon="6.189686" lat="51.141112"><ele>67.2</ele><time>2022-05-22T07:50:24.000Z</time></trkpt><trkpt lon="6.189622" lat="51.141162"><ele>67</ele><time>2022-05-22T07:50:25.000Z</time></trkpt><trkpt lon="6.189552" lat="51.141207"><ele>67</ele><time>2022-05-22T07:50:26.000Z</time></trkpt><trkpt lon="6.189486" lat="51.14125"><ele>67</ele><time>2022-05-22T07:50:27.000Z</time></trkpt><trkpt lon="6.189422" lat="51.141291"><ele>67</ele><time>2022-05-22T07:50:28.000Z</time></trkpt><trkpt lon="6.189359" lat="51.141333"><ele>67</ele><time>2022-05-22T07:50:29.000Z</time></trkpt><trkpt lon="6.189296" lat="51.141368"><ele>67.2</ele><time>2022-05-22T07:50:30.000Z</time></trkpt><trkpt lon="6.189238" lat="51.141409"><ele>67.2</ele><time>2022-05-22T07:50:31.000Z</time></trkpt><trkpt lon="6.189177" lat="51.141448"><ele>67.2</ele><time>2022-05-22T07:50:32.000Z</time></trkpt><trkpt lon="6.189115" lat="51.141486"><ele>67.2</ele><time>2022-05-22T07:50:33.000Z</time></trkpt><trkpt lon="6.189058" lat="51.141528"><ele>67.2</ele><time>2022-05-22T07:50:34.000Z</time></trkpt><trkpt lon="6.189006" lat="51.141574"><ele>67.2</ele><time>2022-05-22T07:50:35.000Z</time></trkpt><trkpt lon="6.188961" lat="51.141627"><ele>67.2</ele><time>2022-05-22T07:50:36.000Z</time></trkpt><trkpt lon="6.188903" lat="51.141677"><ele>67.2</ele><time>2022-05-22T07:50:37.000Z</time></trkpt><trkpt lon="6.188837" lat="51.141734"><ele>67.2</ele><time>2022-05-22T07:50:38.000Z</time></trkpt><trkpt lon="6.188756" lat="51.14179"><ele>67.2</ele><time>2022-05-22T07:50:39.000Z</time></trkpt><trkpt lon="6.188666" lat="51.141849"><ele>67.2</ele><time>2022-05-22T07:50:40.000Z</time></trkpt><trkpt lon="6.188578" lat="51.141906"><ele>67.2</ele><time>2022-05-22T07:50:41.000Z</time></trkpt><trkpt lon="6.188494" lat="51.141966"><ele>67.2</ele><time>2022-05-22T07:50:42.000Z</time></trkpt><trkpt lon="6.188417" lat="51.142027"><ele>67.2</ele><time>2022-05-22T07:50:43.000Z</time></trkpt><trkpt lon="6.188354" lat="51.142084"><ele>67.4</ele><time>2022-05-22T07:50:44.000Z</time></trkpt><trkpt lon="6.188291" lat="51.142138"><ele>67.4</ele><time>2022-05-22T07:50:45.000Z</time></trkpt><trkpt lon="6.188231" lat="51.142194"><ele>67.4</ele><time>2022-05-22T07:50:46.000Z</time></trkpt><trkpt lon="6.188187" lat="51.142245"><ele>67.6</ele><time>2022-05-22T07:50:47.000Z</time></trkpt><trkpt lon="6.188152" lat="51.142285"><ele>67.6</ele><time>2022-05-22T07:50:48.000Z</time></trkpt><trkpt lon="6.188124" lat="51.142325"><ele>67.6</ele><time>2022-05-22T07:50:49.000Z</time></trkpt><trkpt lon="6.188097" lat="51.142356"><ele>67.8</ele><time>2022-05-22T07:50:50.000Z</time></trkpt><trkpt lon="6.188069" lat="51.142394"><ele>67.8</ele><time>2022-05-22T07:50:51.000Z</time></trkpt><trkpt lon="6.188045" lat="51.142432"><ele>67.8</ele><time>2022-05-22T07:50:52.000Z</time></trkpt><trkpt lon="6.188025" lat="51.142467"><ele>67.8</ele><time>2022-05-22T07:50:53.000Z</time></trkpt><trkpt lon="6.188018" lat="51.142505"><ele>67.8</ele><time>2022-05-22T07:50:54.000Z</time></trkpt><trkpt lon="6.188015" lat="51.142554"><ele>67.8</ele><time>2022-05-22T07:50:55.000Z</time></trkpt><trkpt lon="6.188005" lat="51.1426"><ele>67.6</ele><time>2022-05-22T07:50:56.000Z</time></trkpt><trkpt lon="6.187981" lat="51.142639"><ele>67.6</ele><time>2022-05-22T07:50:57.000Z</time></trkpt><trkpt lon="6.187936" lat="51.142669"><ele>67.6</ele><time>2022-05-22T07:50:58.000Z</time></trkpt><trkpt lon="6.187878" lat="51.142688"><ele>67.8</ele><time>2022-05-22T07:50:59.000Z</time></trkpt><trkpt lon="6.187807" lat="51.142678"><ele>67.8</ele><time>2022-05-22T07:51:00.000Z</time></trkpt><trkpt lon="6.187727" lat="51.142662"><ele>68</ele><time>2022-05-22T07:51:01.000Z</time></trkpt><trkpt lon="6.187643" lat="51.142655"><ele>68</ele><time>2022-05-22T07:51:02.000Z</time></trkpt><trkpt lon="6.187546" lat="51.142647"><ele>68.2</ele><time>2022-05-22T07:51:03.000Z</time></trkpt><trkpt lon="6.187442" lat="51.142639"><ele>68.4</ele><time>2022-05-22T07:51:04.000Z</time></trkpt><trkpt lon="6.18734" lat="51.142635"><ele>68.6</ele><time>2022-05-22T07:51:05.000Z</time></trkpt><trkpt lon="6.187237" lat="51.142639"><ele>68.8</ele><time>2022-05-22T07:51:06.000Z</time></trkpt><trkpt lon="6.187141" lat="51.142635"><ele>69.2</ele><time>2022-05-22T07:51:07.000Z</time></trkpt><trkpt lon="6.187049" lat="51.142628"><ele>69.4</ele><time>2022-05-22T07:51:08.000Z</time></trkpt><trkpt lon="6.186966" lat="51.142617"><ele>69.6</ele><time>2022-05-22T07:51:09.000Z</time></trkpt><trkpt lon="6.186879" lat="51.142605"><ele>70</ele><time>2022-05-22T07:51:10.000Z</time></trkpt><trkpt lon="6.186789" lat="51.142601"><ele>70.2</ele><time>2022-05-22T07:51:11.000Z</time></trkpt><trkpt lon="6.186707" lat="51.142594"><ele>70.6</ele><time>2022-05-22T07:51:12.000Z</time></trkpt><trkpt lon="6.186619" lat="51.14259"><ele>70.8</ele><time>2022-05-22T07:51:13.000Z</time></trkpt><trkpt lon="6.186539" lat="51.142582"><ele>71</ele><time>2022-05-22T07:51:14.000Z</time></trkpt><trkpt lon="6.186462" lat="51.142578"><ele>71.4</ele><time>2022-05-22T07:51:15.000Z</time></trkpt><trkpt lon="6.186383" lat="51.142574"><ele>71.6</ele><time>2022-05-22T07:51:16.000Z</time></trkpt><trkpt lon="6.18631" lat="51.142567"><ele>71.8</ele><time>2022-05-22T07:51:17.000Z</time></trkpt><trkpt lon="6.186236" lat="51.142559"><ele>72</ele><time>2022-05-22T07:51:18.000Z</time></trkpt><trkpt lon="6.186162" lat="51.142552"><ele>72.2</ele><time>2022-05-22T07:51:19.000Z</time></trkpt><trkpt lon="6.18609" lat="51.14254"><ele>72.4</ele><time>2022-05-22T07:51:20.000Z</time></trkpt><trkpt lon="6.18602" lat="51.142536"><ele>72.6</ele><time>2022-05-22T07:51:21.000Z</time></trkpt><trkpt lon="6.185945" lat="51.142529"><ele>72.8</ele><time>2022-05-22T07:51:22.000Z</time></trkpt><trkpt lon="6.185871" lat="51.142525"><ele>73</ele><time>2022-05-22T07:51:23.000Z</time></trkpt><trkpt lon="6.185793" lat="51.142517"><ele>73.2</ele><time>2022-05-22T07:51:24.000Z</time></trkpt><trkpt lon="6.185717" lat="51.142513"><ele>73.4</ele><time>2022-05-22T07:51:25.000Z</time></trkpt><trkpt lon="6.185644" lat="51.14251"><ele>73.6</ele><time>2022-05-22T07:51:26.000Z</time></trkpt><trkpt lon="6.185567" lat="51.142502"><ele>73.8</ele><time>2022-05-22T07:51:27.000Z</time></trkpt><trkpt lon="6.185486" lat="51.142494"><ele>74</ele><time>2022-05-22T07:51:28.000Z</time></trkpt><trkpt lon="6.185407" lat="51.142484"><ele>74.2</ele><time>2022-05-22T07:51:29.000Z</time></trkpt><trkpt lon="6.185321" lat="51.142475"><ele>74.2</ele><time>2022-05-22T07:51:30.000Z</time></trkpt><trkpt lon="6.185236" lat="51.142468"><ele>74.4</ele><time>2022-05-22T07:51:31.000Z</time></trkpt><trkpt lon="6.185147" lat="51.14246"><ele>74.6</ele><time>2022-05-22T07:51:32.000Z</time></trkpt><trkpt lon="6.185064" lat="51.142452"><ele>74.8</ele><time>2022-05-22T07:51:33.000Z</time></trkpt><trkpt lon="6.184979" lat="51.142445"><ele>75</ele><time>2022-05-22T07:51:34.000Z</time></trkpt><trkpt lon="6.184893" lat="51.142437"><ele>75</ele><time>2022-05-22T07:51:35.000Z</time></trkpt><trkpt lon="6.1848" lat="51.14243"><ele>75.2</ele><time>2022-05-22T07:51:36.000Z</time></trkpt><trkpt lon="6.184717" lat="51.142423"><ele>75.4</ele><time>2022-05-22T07:51:37.000Z</time></trkpt><trkpt lon="6.18462" lat="51.142418"><ele>75.6</ele><time>2022-05-22T07:51:38.000Z</time></trkpt><trkpt lon="6.184531" lat="51.142411"><ele>75.6</ele><time>2022-05-22T07:51:39.000Z</time></trkpt><trkpt lon="6.184434" lat="51.142407"><ele>75.8</ele><time>2022-05-22T07:51:40.000Z</time></trkpt><trkpt lon="6.184342" lat="51.142403"><ele>75.8</ele><time>2022-05-22T07:51:41.000Z</time></trkpt><trkpt lon="6.184254" lat="51.142399"><ele>76</ele><time>2022-05-22T07:51:42.000Z</time></trkpt><trkpt lon="6.184166" lat="51.142395"><ele>76</ele><time>2022-05-22T07:51:43.000Z</time></trkpt><trkpt lon="6.184082" lat="51.142392"><ele>76.2</ele><time>2022-05-22T07:51:44.000Z</time></trkpt><trkpt lon="6.184" lat="51.142391"><ele>76.2</ele><time>2022-05-22T07:51:45.000Z</time></trkpt><trkpt lon="6.183891" lat="51.142384"><ele>76.4</ele><time>2022-05-22T07:51:46.000Z</time></trkpt><trkpt lon="6.183797" lat="51.14238"><ele>76.4</ele><time>2022-05-22T07:51:47.000Z</time></trkpt><trkpt lon="6.183703" lat="51.142372"><ele>76.6</ele><time>2022-05-22T07:51:48.000Z</time></trkpt><trkpt lon="6.183613" lat="51.142368"><ele>76.6</ele><time>2022-05-22T07:51:49.000Z</time></trkpt><trkpt lon="6.183523" lat="51.142365"><ele>76.8</ele><time>2022-05-22T07:51:50.000Z</time></trkpt><trkpt lon="6.183434" lat="51.142361"><ele>76.8</ele><time>2022-05-22T07:51:51.000Z</time></trkpt><trkpt lon="6.183347" lat="51.142357"><ele>76.8</ele><time>2022-05-22T07:51:52.000Z</time></trkpt><trkpt lon="6.183255" lat="51.142353"><ele>77</ele><time>2022-05-22T07:51:53.000Z</time></trkpt><trkpt lon="6.183173" lat="51.142349"><ele>77</ele><time>2022-05-22T07:51:54.000Z</time></trkpt><trkpt lon="6.183084" lat="51.142349"><ele>77.2</ele><time>2022-05-22T07:51:55.000Z</time></trkpt><trkpt lon="6.182999" lat="51.142346"><ele>77.2</ele><time>2022-05-22T07:51:56.000Z</time></trkpt><trkpt lon="6.182915" lat="51.142342"><ele>77.2</ele><time>2022-05-22T07:51:57.000Z</time></trkpt><trkpt lon="6.182828" lat="51.142338"><ele>77.2</ele><time>2022-05-22T07:51:58.000Z</time></trkpt><trkpt lon="6.182741" lat="51.14233"><ele>77.2</ele><time>2022-05-22T07:51:59.000Z</time></trkpt><trkpt lon="6.182653" lat="51.14233"><ele>77.2</ele><time>2022-05-22T07:52:00.000Z</time></trkpt><trkpt lon="6.182565" lat="51.142327"><ele>77.2</ele><time>2022-05-22T07:52:01.000Z</time></trkpt><trkpt lon="6.182481" lat="51.142323"><ele>77.2</ele><time>2022-05-22T07:52:02.000Z</time></trkpt><trkpt lon="6.182383" lat="51.142319"><ele>77.2</ele><time>2022-05-22T07:52:03.000Z</time></trkpt><trkpt lon="6.182292" lat="51.142312"><ele>77.4</ele><time>2022-05-22T07:52:04.000Z</time></trkpt><trkpt lon="6.182196" lat="51.142307"><ele>77.4</ele><time>2022-05-22T07:52:05.000Z</time></trkpt><trkpt lon="6.182098" lat="51.1423"><ele>77.2</ele><time>2022-05-22T07:52:06.000Z</time></trkpt><trkpt lon="6.182001" lat="51.142292"><ele>77.2</ele><time>2022-05-22T07:52:07.000Z</time></trkpt><trkpt lon="6.181906" lat="51.142288"><ele>77.2</ele><time>2022-05-22T07:52:08.000Z</time></trkpt><trkpt lon="6.181812" lat="51.142281"><ele>77.2</ele><time>2022-05-22T07:52:09.000Z</time></trkpt><trkpt lon="6.181712" lat="51.142273"><ele>77.2</ele><time>2022-05-22T07:52:10.000Z</time></trkpt><trkpt lon="6.181617" lat="51.142266"><ele>77.2</ele><time>2022-05-22T07:52:11.000Z</time></trkpt><trkpt lon="6.181524" lat="51.142258"><ele>77.2</ele><time>2022-05-22T07:52:12.000Z</time></trkpt><trkpt lon="6.181429" lat="51.142247"><ele>77.2</ele><time>2022-05-22T07:52:13.000Z</time></trkpt><trkpt lon="6.18136" lat="51.142231"><ele>77.2</ele><time>2022-05-22T07:52:14.000Z</time></trkpt><trkpt lon="6.181275" lat="51.142204"><ele>77.2</ele><time>2022-05-22T07:52:15.000Z</time></trkpt><trkpt lon="6.181216" lat="51.142161"><ele>77.2</ele><time>2022-05-22T07:52:16.000Z</time></trkpt><trkpt lon="6.181174" lat="51.142107"><ele>77.2</ele><time>2022-05-22T07:52:17.000Z</time></trkpt><trkpt lon="6.181149" lat="51.14205"><ele>77.2</ele><time>2022-05-22T07:52:18.000Z</time></trkpt><trkpt lon="6.18114" lat="51.14199"><ele>77.2</ele><time>2022-05-22T07:52:19.000Z</time></trkpt><trkpt lon="6.181139" lat="51.141929"><ele>77.2</ele><time>2022-05-22T07:52:20.000Z</time></trkpt><trkpt lon="6.18114" lat="51.141867"><ele>77</ele><time>2022-05-22T07:52:21.000Z</time></trkpt><trkpt lon="6.181145" lat="51.141801"><ele>77</ele><time>2022-05-22T07:52:22.000Z</time></trkpt><trkpt lon="6.18115" lat="51.141748"><ele>77</ele><time>2022-05-22T07:52:23.000Z</time></trkpt><trkpt lon="6.181149" lat="51.141695"><ele>76.8</ele><time>2022-05-22T07:52:24.000Z</time></trkpt><trkpt lon="6.181135" lat="51.141644"><ele>76.8</ele><time>2022-05-22T07:52:25.000Z</time></trkpt><trkpt lon="6.181113" lat="51.1416"><ele>76.6</ele><time>2022-05-22T07:52:26.000Z</time></trkpt><trkpt lon="6.181074" lat="51.141553"><ele>76.4</ele><time>2022-05-22T07:52:27.000Z</time></trkpt><trkpt lon="6.181021" lat="51.141512"><ele>76.2</ele><time>2022-05-22T07:52:28.000Z</time></trkpt><trkpt lon="6.180956" lat="51.14147"><ele>76.2</ele><time>2022-05-22T07:52:29.000Z</time></trkpt><trkpt lon="6.180881" lat="51.141428"><ele>76</ele><time>2022-05-22T07:52:30.000Z</time></trkpt><trkpt lon="6.180807" lat="51.141389"><ele>75.8</ele><time>2022-05-22T07:52:31.000Z</time></trkpt><trkpt lon="6.180738" lat="51.141351"><ele>75.6</ele><time>2022-05-22T07:52:32.000Z</time></trkpt><trkpt lon="6.18067" lat="51.141328"><ele>75.4</ele><time>2022-05-22T07:52:33.000Z</time></trkpt><trkpt lon="6.180597" lat="51.141308"><ele>75.2</ele><time>2022-05-22T07:52:34.000Z</time></trkpt><trkpt lon="6.180522" lat="51.141297"><ele>74.8</ele><time>2022-05-22T07:52:35.000Z</time></trkpt><trkpt lon="6.18044" lat="51.141296"><ele>74.4</ele><time>2022-05-22T07:52:36.000Z</time></trkpt><trkpt lon="6.180348" lat="51.141304"><ele>74</ele><time>2022-05-22T07:52:37.000Z</time></trkpt><trkpt lon="6.180257" lat="51.141323"><ele>73.4</ele><time>2022-05-22T07:52:38.000Z</time></trkpt><trkpt lon="6.18016" lat="51.141352"><ele>72.8</ele><time>2022-05-22T07:52:39.000Z</time></trkpt><trkpt lon="6.180036" lat="51.141404"><ele>72.2</ele><time>2022-05-22T07:52:40.000Z</time></trkpt><trkpt lon="6.179906" lat="51.141455"><ele>71.6</ele><time>2022-05-22T07:52:41.000Z</time></trkpt><trkpt lon="6.179788" lat="51.141505"><ele>71</ele><time>2022-05-22T07:52:42.000Z</time></trkpt><trkpt lon="6.179675" lat="51.141558"><ele>70.4</ele><time>2022-05-22T07:52:43.000Z</time></trkpt><trkpt lon="6.179571" lat="51.141604"><ele>69.6</ele><time>2022-05-22T07:52:44.000Z</time></trkpt><trkpt lon="6.179437" lat="51.141662"><ele>69</ele><time>2022-05-22T07:52:45.000Z</time></trkpt><trkpt lon="6.179295" lat="51.141722"><ele>68.4</ele><time>2022-05-22T07:52:46.000Z</time></trkpt><trkpt lon="6.179171" lat="51.141775"><ele>67.8</ele><time>2022-05-22T07:52:47.000Z</time></trkpt><trkpt lon="6.179048" lat="51.141837"><ele>67.2</ele><time>2022-05-22T07:52:48.000Z</time></trkpt><trkpt lon="6.178924" lat="51.141896"><ele>66.6</ele><time>2022-05-22T07:52:49.000Z</time></trkpt><trkpt lon="6.178796" lat="51.141947"><ele>66</ele><time>2022-05-22T07:52:50.000Z</time></trkpt><trkpt lon="6.178645" lat="51.142003"><ele>65.2</ele><time>2022-05-22T07:52:51.000Z</time></trkpt><trkpt lon="6.178478" lat="51.142051"><ele>64.6</ele><time>2022-05-22T07:52:52.000Z</time></trkpt><trkpt lon="6.178315" lat="51.142085"><ele>63.8</ele><time>2022-05-22T07:52:53.000Z</time></trkpt><trkpt lon="6.178154" lat="51.142108"><ele>63</ele><time>2022-05-22T07:52:54.000Z</time></trkpt><trkpt lon="6.17799" lat="51.142131"><ele>62.4</ele><time>2022-05-22T07:52:55.000Z</time></trkpt><trkpt lon="6.177818" lat="51.142158"><ele>62</ele><time>2022-05-22T07:52:56.000Z</time></trkpt><trkpt lon="6.177648" lat="51.142184"><ele>61.4</ele><time>2022-05-22T07:52:57.000Z</time></trkpt><trkpt lon="6.177479" lat="51.142219"><ele>60.8</ele><time>2022-05-22T07:52:58.000Z</time></trkpt><trkpt lon="6.177334" lat="51.142255"><ele>60.6</ele><time>2022-05-22T07:52:59.000Z</time></trkpt><trkpt lon="6.177176" lat="51.142302"><ele>60.2</ele><time>2022-05-22T07:53:00.000Z</time></trkpt><trkpt lon="6.177028" lat="51.142352"><ele>60</ele><time>2022-05-22T07:53:01.000Z</time></trkpt><trkpt lon="6.176875" lat="51.14241"><ele>59.6</ele><time>2022-05-22T07:53:02.000Z</time></trkpt><trkpt lon="6.176736" lat="51.142469"><ele>59.4</ele><time>2022-05-22T07:53:03.000Z</time></trkpt><trkpt lon="6.176609" lat="51.142519"><ele>59.2</ele><time>2022-05-22T07:53:04.000Z</time></trkpt><trkpt lon="6.176485" lat="51.142573"><ele>59</ele><time>2022-05-22T07:53:05.000Z</time></trkpt><trkpt lon="6.176356" lat="51.14263"><ele>58.8</ele><time>2022-05-22T07:53:06.000Z</time></trkpt><trkpt lon="6.176226" lat="51.142679"><ele>58.4</ele><time>2022-05-22T07:53:07.000Z</time></trkpt><trkpt lon="6.176099" lat="51.142726"><ele>58.2</ele><time>2022-05-22T07:53:08.000Z</time></trkpt><trkpt lon="6.175977" lat="51.142775"><ele>58</ele><time>2022-05-22T07:53:09.000Z</time></trkpt><trkpt lon="6.175854" lat="51.142829"><ele>57.8</ele><time>2022-05-22T07:53:10.000Z</time></trkpt><trkpt lon="6.175718" lat="51.142897"><ele>57.6</ele><time>2022-05-22T07:53:11.000Z</time></trkpt><trkpt lon="6.175577" lat="51.142962"><ele>57.2</ele><time>2022-05-22T07:53:12.000Z</time></trkpt><trkpt lon="6.175446" lat="51.14302"><ele>56.8</ele><time>2022-05-22T07:53:13.000Z</time></trkpt><trkpt lon="6.175323" lat="51.143082"><ele>56.4</ele><time>2022-05-22T07:53:14.000Z</time></trkpt><trkpt lon="6.175195" lat="51.143144"><ele>55.8</ele><time>2022-05-22T07:53:15.000Z</time></trkpt><trkpt lon="6.175073" lat="51.143205"><ele>55.2</ele><time>2022-05-22T07:53:16.000Z</time></trkpt><trkpt lon="6.174951" lat="51.14326"><ele>54.8</ele><time>2022-05-22T07:53:17.000Z</time></trkpt><trkpt lon="6.174834" lat="51.143316"><ele>54.6</ele><time>2022-05-22T07:53:18.000Z</time></trkpt><trkpt lon="6.174717" lat="51.143374"><ele>54.6</ele><time>2022-05-22T07:53:19.000Z</time></trkpt><trkpt lon="6.174608" lat="51.143431"><ele>54.6</ele><time>2022-05-22T07:53:20.000Z</time></trkpt><trkpt lon="6.174506" lat="51.143477"><ele>54.6</ele><time>2022-05-22T07:53:21.000Z</time></trkpt><trkpt lon="6.174401" lat="51.143527"><ele>54.4</ele><time>2022-05-22T07:53:22.000Z</time></trkpt><trkpt lon="6.174299" lat="51.143573"><ele>54.2</ele><time>2022-05-22T07:53:23.000Z</time></trkpt><trkpt lon="6.174201" lat="51.143617"><ele>54</ele><time>2022-05-22T07:53:24.000Z</time></trkpt><trkpt lon="6.174091" lat="51.14366"><ele>53.8</ele><time>2022-05-22T07:53:25.000Z</time></trkpt><trkpt lon="6.173984" lat="51.143698"><ele>53.6</ele><time>2022-05-22T07:53:26.000Z</time></trkpt><trkpt lon="6.173876" lat="51.143741"><ele>53.4</ele><time>2022-05-22T07:53:27.000Z</time></trkpt><trkpt lon="6.173766" lat="51.143786"><ele>53.2</ele><time>2022-05-22T07:53:28.000Z</time></trkpt><trkpt lon="6.173655" lat="51.143832"><ele>53.2</ele><time>2022-05-22T07:53:29.000Z</time></trkpt><trkpt lon="6.17355" lat="51.14388"><ele>53</ele><time>2022-05-22T07:53:30.000Z</time></trkpt><trkpt lon="6.173438" lat="51.143927"><ele>53</ele><time>2022-05-22T07:53:31.000Z</time></trkpt><trkpt lon="6.173312" lat="51.143999"><ele>52.6</ele><time>2022-05-22T07:53:32.000Z</time></trkpt><trkpt lon="6.173184" lat="51.144059"><ele>52.2</ele><time>2022-05-22T07:53:33.000Z</time></trkpt><trkpt lon="6.173046" lat="51.144125"><ele>52</ele><time>2022-05-22T07:53:34.000Z</time></trkpt><trkpt lon="6.172905" lat="51.144187"><ele>51.6</ele><time>2022-05-22T07:53:35.000Z</time></trkpt><trkpt lon="6.172757" lat="51.144243"><ele>51.4</ele><time>2022-05-22T07:53:36.000Z</time></trkpt><trkpt lon="6.172638" lat="51.14429"><ele>51.2</ele><time>2022-05-22T07:53:37.000Z</time></trkpt><trkpt lon="6.172522" lat="51.144332"><ele>51</ele><time>2022-05-22T07:53:38.000Z</time></trkpt><trkpt lon="6.172426" lat="51.14437"><ele>51</ele><time>2022-05-22T07:53:39.000Z</time></trkpt><trkpt lon="6.172321" lat="51.144416"><ele>51</ele><time>2022-05-22T07:53:40.000Z</time></trkpt><trkpt lon="6.172231" lat="51.144446"><ele>51</ele><time>2022-05-22T07:53:41.000Z</time></trkpt><trkpt lon="6.172137" lat="51.144481"><ele>50.8</ele><time>2022-05-22T07:53:42.000Z</time></trkpt><trkpt lon="6.172049" lat="51.144526"><ele>51</ele><time>2022-05-22T07:53:43.000Z</time></trkpt><trkpt lon="6.171943" lat="51.144564"><ele>51</ele><time>2022-05-22T07:53:44.000Z</time></trkpt><trkpt lon="6.171874" lat="51.144594"><ele>51</ele><time>2022-05-22T07:53:45.000Z</time></trkpt><trkpt lon="6.171773" lat="51.144641"><ele>51</ele><time>2022-05-22T07:53:46.000Z</time></trkpt><trkpt lon="6.171691" lat="51.144668"><ele>51</ele><time>2022-05-22T07:53:47.000Z</time></trkpt><trkpt lon="6.171604" lat="51.144702"><ele>51</ele><time>2022-05-22T07:53:48.000Z</time></trkpt><trkpt lon="6.171509" lat="51.144747"><ele>51</ele><time>2022-05-22T07:53:49.000Z</time></trkpt><trkpt lon="6.1714" lat="51.144793"><ele>51.2</ele><time>2022-05-22T07:53:50.000Z</time></trkpt><trkpt lon="6.171274" lat="51.144839"><ele>51.4</ele><time>2022-05-22T07:53:51.000Z</time></trkpt><trkpt lon="6.17117" lat="51.144888"><ele>51.4</ele><time>2022-05-22T07:53:52.000Z</time></trkpt><trkpt lon="6.171059" lat="51.144945"><ele>51.6</ele><time>2022-05-22T07:53:53.000Z</time></trkpt><trkpt lon="6.170963" lat="51.144995"><ele>51.6</ele><time>2022-05-22T07:53:54.000Z</time></trkpt><trkpt lon="6.17086" lat="51.145056"><ele>51.6</ele><time>2022-05-22T07:53:55.000Z</time></trkpt><trkpt lon="6.170757" lat="51.145106"><ele>51.6</ele><time>2022-05-22T07:53:56.000Z</time></trkpt><trkpt lon="6.170657" lat="51.145178"><ele>51.6</ele><time>2022-05-22T07:53:57.000Z</time></trkpt><trkpt lon="6.170538" lat="51.145235"><ele>51.4</ele><time>2022-05-22T07:53:58.000Z</time></trkpt><trkpt lon="6.170417" lat="51.145288"><ele>51.4</ele><time>2022-05-22T07:53:59.000Z</time></trkpt><trkpt lon="6.170282" lat="51.14535"><ele>51.4</ele><time>2022-05-22T07:54:00.000Z</time></trkpt><trkpt lon="6.17016" lat="51.145392"><ele>51.2</ele><time>2022-05-22T07:54:01.000Z</time></trkpt><trkpt lon="6.17003" lat="51.145446"><ele>51</ele><time>2022-05-22T07:54:02.000Z</time></trkpt><trkpt lon="6.169923" lat="51.145491"><ele>51</ele><time>2022-05-22T07:54:03.000Z</time></trkpt><trkpt lon="6.169826" lat="51.145529"><ele>50.8</ele><time>2022-05-22T07:54:04.000Z</time></trkpt><trkpt lon="6.169733" lat="51.145567"><ele>50.6</ele><time>2022-05-22T07:54:05.000Z</time></trkpt><trkpt lon="6.169631" lat="51.145606"><ele>50.4</ele><time>2022-05-22T07:54:06.000Z</time></trkpt><trkpt lon="6.169533" lat="51.145644"><ele>50.4</ele><time>2022-05-22T07:54:07.000Z</time></trkpt><trkpt lon="6.16944" lat="51.145688"><ele>50.2</ele><time>2022-05-22T07:54:08.000Z</time></trkpt><trkpt lon="6.169343" lat="51.145731"><ele>50</ele><time>2022-05-22T07:54:09.000Z</time></trkpt><trkpt lon="6.16926" lat="51.145772"><ele>50</ele><time>2022-05-22T07:54:10.000Z</time></trkpt><trkpt lon="6.169168" lat="51.145815"><ele>50</ele><time>2022-05-22T07:54:11.000Z</time></trkpt><trkpt lon="6.169072" lat="51.145861"><ele>49.8</ele><time>2022-05-22T07:54:12.000Z</time></trkpt><trkpt lon="6.168978" lat="51.14591"><ele>49.8</ele><time>2022-05-22T07:54:13.000Z</time></trkpt><trkpt lon="6.168885" lat="51.145953"><ele>49.6</ele><time>2022-05-22T07:54:14.000Z</time></trkpt><trkpt lon="6.168787" lat="51.145998"><ele>49.6</ele><time>2022-05-22T07:54:15.000Z</time></trkpt><trkpt lon="6.168688" lat="51.146041"><ele>49.6</ele><time>2022-05-22T07:54:16.000Z</time></trkpt><trkpt lon="6.168587" lat="51.146087"><ele>49.6</ele><time>2022-05-22T07:54:17.000Z</time></trkpt><trkpt lon="6.168483" lat="51.146128"><ele>49.4</ele><time>2022-05-22T07:54:18.000Z</time></trkpt><trkpt lon="6.168391" lat="51.146163"><ele>49.4</ele><time>2022-05-22T07:54:19.000Z</time></trkpt><trkpt lon="6.168302" lat="51.146201"><ele>49.4</ele><time>2022-05-22T07:54:20.000Z</time></trkpt><trkpt lon="6.168217" lat="51.146239"><ele>49.2</ele><time>2022-05-22T07:54:21.000Z</time></trkpt><trkpt lon="6.168131" lat="51.146276"><ele>49.2</ele><time>2022-05-22T07:54:22.000Z</time></trkpt><trkpt lon="6.168054" lat="51.146309"><ele>49.2</ele><time>2022-05-22T07:54:23.000Z</time></trkpt><trkpt lon="6.167947" lat="51.146355"><ele>49</ele><time>2022-05-22T07:54:24.000Z</time></trkpt><trkpt lon="6.167843" lat="51.146409"><ele>49</ele><time>2022-05-22T07:54:25.000Z</time></trkpt><trkpt lon="6.16773" lat="51.146463"><ele>48.8</ele><time>2022-05-22T07:54:26.000Z</time></trkpt><trkpt lon="6.167626" lat="51.146513"><ele>48.8</ele><time>2022-05-22T07:54:27.000Z</time></trkpt><trkpt lon="6.167522" lat="51.146555"><ele>48.8</ele><time>2022-05-22T07:54:28.000Z</time></trkpt><trkpt lon="6.167421" lat="51.146593"><ele>48.6</ele><time>2022-05-22T07:54:29.000Z</time></trkpt><trkpt lon="6.167328" lat="51.146631"><ele>48.6</ele><time>2022-05-22T07:54:30.000Z</time></trkpt><trkpt lon="6.167237" lat="51.146673"><ele>48.6</ele><time>2022-05-22T07:54:31.000Z</time></trkpt><trkpt lon="6.167147" lat="51.146714"><ele>48.4</ele><time>2022-05-22T07:54:32.000Z</time></trkpt><trkpt lon="6.167058" lat="51.146757"><ele>48.4</ele><time>2022-05-22T07:54:33.000Z</time></trkpt><trkpt lon="6.16698" lat="51.146799"><ele>48.4</ele><time>2022-05-22T07:54:34.000Z</time></trkpt><trkpt lon="6.166898" lat="51.146838"><ele>48.2</ele><time>2022-05-22T07:54:35.000Z</time></trkpt><trkpt lon="6.166794" lat="51.146879"><ele>48.2</ele><time>2022-05-22T07:54:36.000Z</time></trkpt><trkpt lon="6.166717" lat="51.146914"><ele>48.2</ele><time>2022-05-22T07:54:37.000Z</time></trkpt><trkpt lon="6.16665" lat="51.146945"><ele>48.4</ele><time>2022-05-22T07:54:38.000Z</time></trkpt><trkpt lon="6.166567" lat="51.146979"><ele>48.4</ele><time>2022-05-22T07:54:39.000Z</time></trkpt><trkpt lon="6.166488" lat="51.14702"><ele>48.4</ele><time>2022-05-22T07:54:40.000Z</time></trkpt><trkpt lon="6.166371" lat="51.14707"><ele>48.4</ele><time>2022-05-22T07:54:41.000Z</time></trkpt><trkpt lon="6.166256" lat="51.147116"><ele>48.4</ele><time>2022-05-22T07:54:42.000Z</time></trkpt><trkpt lon="6.166126" lat="51.147169"><ele>48.4</ele><time>2022-05-22T07:54:43.000Z</time></trkpt><trkpt lon="6.165992" lat="51.147226"><ele>48.4</ele><time>2022-05-22T07:54:44.000Z</time></trkpt><trkpt lon="6.165861" lat="51.147279"><ele>48.4</ele><time>2022-05-22T07:54:45.000Z</time></trkpt><trkpt lon="6.165732" lat="51.147336"><ele>48.4</ele><time>2022-05-22T07:54:46.000Z</time></trkpt><trkpt lon="6.165618" lat="51.147383"><ele>48.4</ele><time>2022-05-22T07:54:47.000Z</time></trkpt><trkpt lon="6.165513" lat="51.147428"><ele>48.2</ele><time>2022-05-22T07:54:48.000Z</time></trkpt><trkpt lon="6.165427" lat="51.147473"><ele>48.2</ele><time>2022-05-22T07:54:49.000Z</time></trkpt><trkpt lon="6.165332" lat="51.147524"><ele>48</ele><time>2022-05-22T07:54:50.000Z</time></trkpt><trkpt lon="6.165234" lat="51.147585"><ele>48</ele><time>2022-05-22T07:54:51.000Z</time></trkpt><trkpt lon="6.165139" lat="51.147634"><ele>47.8</ele><time>2022-05-22T07:54:52.000Z</time></trkpt><trkpt lon="6.16505" lat="51.147672"><ele>47.6</ele><time>2022-05-22T07:54:53.000Z</time></trkpt><trkpt lon="6.164964" lat="51.147707"><ele>47.6</ele><time>2022-05-22T07:54:54.000Z</time></trkpt><trkpt lon="6.164884" lat="51.147748"><ele>47.4</ele><time>2022-05-22T07:54:55.000Z</time></trkpt><trkpt lon="6.164805" lat="51.147784"><ele>47.2</ele><time>2022-05-22T07:54:56.000Z</time></trkpt><trkpt lon="6.164723" lat="51.147829"><ele>46.8</ele><time>2022-05-22T07:54:57.000Z</time></trkpt><trkpt lon="6.16463" lat="51.147864"><ele>46.6</ele><time>2022-05-22T07:54:58.000Z</time></trkpt><trkpt lon="6.16455" lat="51.1479"><ele>46.4</ele><time>2022-05-22T07:54:59.000Z</time></trkpt><trkpt lon="6.164461" lat="51.147954"><ele>46.4</ele><time>2022-05-22T07:55:00.000Z</time></trkpt><trkpt lon="6.164385" lat="51.147986"><ele>46.2</ele><time>2022-05-22T07:55:01.000Z</time></trkpt><trkpt lon="6.164307" lat="51.14802"><ele>46.2</ele><time>2022-05-22T07:55:02.000Z</time></trkpt><trkpt lon="6.164223" lat="51.148062"><ele>46.2</ele><time>2022-05-22T07:55:03.000Z</time></trkpt><trkpt lon="6.164148" lat="51.1481"><ele>46</ele><time>2022-05-22T07:55:04.000Z</time></trkpt><trkpt lon="6.164073" lat="51.148135"><ele>46</ele><time>2022-05-22T07:55:05.000Z</time></trkpt><trkpt lon="6.164009" lat="51.148169"><ele>45.8</ele><time>2022-05-22T07:55:06.000Z</time></trkpt><trkpt lon="6.163936" lat="51.148222"><ele>45.8</ele><time>2022-05-22T07:55:07.000Z</time></trkpt><trkpt lon="6.16387" lat="51.148282"><ele>45.8</ele><time>2022-05-22T07:55:08.000Z</time></trkpt><trkpt lon="6.163816" lat="51.148343"><ele>45.8</ele><time>2022-05-22T07:55:09.000Z</time></trkpt><trkpt lon="6.163773" lat="51.148401"><ele>45.6</ele><time>2022-05-22T07:55:10.000Z</time></trkpt><trkpt lon="6.163742" lat="51.148454"><ele>45.6</ele><time>2022-05-22T07:55:11.000Z</time></trkpt><trkpt lon="6.163718" lat="51.148503"><ele>45.4</ele><time>2022-05-22T07:55:12.000Z</time></trkpt><trkpt lon="6.163709" lat="51.148546"><ele>45.4</ele><time>2022-05-22T07:55:13.000Z</time></trkpt><trkpt lon="6.163711" lat="51.148589"><ele>45.6</ele><time>2022-05-22T07:55:14.000Z</time></trkpt><trkpt lon="6.163722" lat="51.148631"><ele>45.6</ele><time>2022-05-22T07:55:15.000Z</time></trkpt><trkpt lon="6.163731" lat="51.148669"><ele>45.6</ele><time>2022-05-22T07:55:16.000Z</time></trkpt><trkpt lon="6.163735" lat="51.148703"><ele>45.6</ele><time>2022-05-22T07:55:17.000Z</time></trkpt><trkpt lon="6.163737" lat="51.148737"><ele>45.6</ele><time>2022-05-22T07:55:18.000Z</time></trkpt><trkpt lon="6.163744" lat="51.148771"><ele>45.6</ele><time>2022-05-22T07:55:19.000Z</time></trkpt><trkpt lon="6.163763" lat="51.148813"><ele>45.6</ele><time>2022-05-22T07:55:20.000Z</time></trkpt><trkpt lon="6.163784" lat="51.148851"><ele>45.6</ele><time>2022-05-22T07:55:21.000Z</time></trkpt><trkpt lon="6.163814" lat="51.148888"><ele>45.6</ele><time>2022-05-22T07:55:22.000Z</time></trkpt><trkpt lon="6.163851" lat="51.148924"><ele>45.8</ele><time>2022-05-22T07:55:23.000Z</time></trkpt><trkpt lon="6.163885" lat="51.148954"><ele>45.8</ele><time>2022-05-22T07:55:24.000Z</time></trkpt><trkpt lon="6.16393" lat="51.148985"><ele>45.8</ele><time>2022-05-22T07:55:25.000Z</time></trkpt><trkpt lon="6.163982" lat="51.149019"><ele>45.8</ele><time>2022-05-22T07:55:26.000Z</time></trkpt><trkpt lon="6.164029" lat="51.149056"><ele>45.8</ele><time>2022-05-22T07:55:27.000Z</time></trkpt><trkpt lon="6.164074" lat="51.149097"><ele>45.6</ele><time>2022-05-22T07:55:28.000Z</time></trkpt><trkpt lon="6.164113" lat="51.149134"><ele>45.6</ele><time>2022-05-22T07:55:29.000Z</time></trkpt><trkpt lon="6.164151" lat="51.149175"><ele>45.6</ele><time>2022-05-22T07:55:30.000Z</time></trkpt><trkpt lon="6.164186" lat="51.149228"><ele>45.6</ele><time>2022-05-22T07:55:31.000Z</time></trkpt><trkpt lon="6.164232" lat="51.149272"><ele>45.6</ele><time>2022-05-22T07:55:32.000Z</time></trkpt><trkpt lon="6.164287" lat="51.149303"><ele>45.6</ele><time>2022-05-22T07:55:33.000Z</time></trkpt><trkpt lon="6.164342" lat="51.149329"><ele>45.6</ele><time>2022-05-22T07:55:34.000Z</time></trkpt><trkpt lon="6.164407" lat="51.149367"><ele>45.8</ele><time>2022-05-22T07:55:35.000Z</time></trkpt><trkpt lon="6.164479" lat="51.149413"><ele>45.8</ele><time>2022-05-22T07:55:36.000Z</time></trkpt><trkpt lon="6.164549" lat="51.149445"><ele>45.8</ele><time>2022-05-22T07:55:37.000Z</time></trkpt><trkpt lon="6.164633" lat="51.14948"><ele>45.8</ele><time>2022-05-22T07:55:38.000Z</time></trkpt><trkpt lon="6.164724" lat="51.149523"><ele>45.8</ele><time>2022-05-22T07:55:39.000Z</time></trkpt><trkpt lon="6.164803" lat="51.149567"><ele>46</ele><time>2022-05-22T07:55:40.000Z</time></trkpt><trkpt lon="6.164885" lat="51.149608"><ele>46</ele><time>2022-05-22T07:55:41.000Z</time></trkpt><trkpt lon="6.164959" lat="51.149642"><ele>46</ele><time>2022-05-22T07:55:42.000Z</time></trkpt><trkpt lon="6.165032" lat="51.149673"><ele>46.2</ele><time>2022-05-22T07:55:43.000Z</time></trkpt><trkpt lon="6.165097" lat="51.1497"><ele>46.4</ele><time>2022-05-22T07:55:44.000Z</time></trkpt><trkpt lon="6.165152" lat="51.14973"><ele>46.4</ele><time>2022-05-22T07:55:45.000Z</time></trkpt><trkpt lon="6.165197" lat="51.149772"><ele>46.6</ele><time>2022-05-22T07:55:46.000Z</time></trkpt><trkpt lon="6.165232" lat="51.14981"><ele>46.8</ele><time>2022-05-22T07:55:47.000Z</time></trkpt><trkpt lon="6.165267" lat="51.149855"><ele>47</ele><time>2022-05-22T07:55:48.000Z</time></trkpt><trkpt lon="6.165301" lat="51.149898"><ele>47.2</ele><time>2022-05-22T07:55:49.000Z</time></trkpt><trkpt lon="6.165325" lat="51.149936"><ele>47.4</ele><time>2022-05-22T07:55:50.000Z</time></trkpt><trkpt lon="6.165346" lat="51.14997"><ele>47.6</ele><time>2022-05-22T07:55:51.000Z</time></trkpt><trkpt lon="6.165366" lat="51.150001"><ele>47.8</ele><time>2022-05-22T07:55:52.000Z</time></trkpt><trkpt lon="6.165387" lat="51.150027"><ele>48.2</ele><time>2022-05-22T07:55:53.000Z</time></trkpt><trkpt lon="6.165403" lat="51.150054"><ele>48.4</ele><time>2022-05-22T07:55:54.000Z</time></trkpt><trkpt lon="6.16542" lat="51.150084"><ele>48.8</ele><time>2022-05-22T07:55:55.000Z</time></trkpt><trkpt lon="6.165438" lat="51.150119"><ele>49</ele><time>2022-05-22T07:55:56.000Z</time></trkpt><trkpt lon="6.165468" lat="51.150168"><ele>49.4</ele><time>2022-05-22T07:55:57.000Z</time></trkpt><trkpt lon="6.165496" lat="51.150214"><ele>49.8</ele><time>2022-05-22T07:55:58.000Z</time></trkpt><trkpt lon="6.165536" lat="51.150267"><ele>50.2</ele><time>2022-05-22T07:55:59.000Z</time></trkpt><trkpt lon="6.165551" lat="51.150298"><ele>50.6</ele><time>2022-05-22T07:56:00.000Z</time></trkpt><trkpt lon="6.165568" lat="51.150333"><ele>51</ele><time>2022-05-22T07:56:01.000Z</time></trkpt><trkpt lon="6.165583" lat="51.150366"><ele>51.2</ele><time>2022-05-22T07:56:02.000Z</time></trkpt><trkpt lon="6.165603" lat="51.150401"><ele>51.6</ele><time>2022-05-22T07:56:03.000Z</time></trkpt><trkpt lon="6.165634" lat="51.150446"><ele>51.8</ele><time>2022-05-22T07:56:04.000Z</time></trkpt><trkpt lon="6.165655" lat="51.150474"><ele>52</ele><time>2022-05-22T07:56:05.000Z</time></trkpt><trkpt lon="6.165678" lat="51.150501"><ele>52.2</ele><time>2022-05-22T07:56:06.000Z</time></trkpt><trkpt lon="6.165701" lat="51.150531"><ele>52.4</ele><time>2022-05-22T07:56:07.000Z</time></trkpt><trkpt lon="6.165726" lat="51.150562"><ele>52.6</ele><time>2022-05-22T07:56:08.000Z</time></trkpt><trkpt lon="6.165746" lat="51.150596"><ele>52.8</ele><time>2022-05-22T07:56:09.000Z</time></trkpt><trkpt lon="6.165771" lat="51.150623"><ele>53</ele><time>2022-05-22T07:56:10.000Z</time></trkpt><trkpt lon="6.165788" lat="51.15065"><ele>53.2</ele><time>2022-05-22T07:56:11.000Z</time></trkpt><trkpt lon="6.165806" lat="51.150683"><ele>53.2</ele><time>2022-05-22T07:56:12.000Z</time></trkpt><trkpt lon="6.165836" lat="51.150711"><ele>53.4</ele><time>2022-05-22T07:56:13.000Z</time></trkpt><trkpt lon="6.165876" lat="51.150763"><ele>53.6</ele><time>2022-05-22T07:56:14.000Z</time></trkpt><trkpt lon="6.165918" lat="51.150806"><ele>53.8</ele><time>2022-05-22T07:56:15.000Z</time></trkpt><trkpt lon="6.165944" lat="51.15084"><ele>54</ele><time>2022-05-22T07:56:16.000Z</time></trkpt><trkpt lon="6.165961" lat="51.150874"><ele>54.2</ele><time>2022-05-22T07:56:17.000Z</time></trkpt><trkpt lon="6.165968" lat="51.150912"><ele>54.4</ele><time>2022-05-22T07:56:18.000Z</time></trkpt><trkpt lon="6.165968" lat="51.150954"><ele>54.6</ele><time>2022-05-22T07:56:19.000Z</time></trkpt><trkpt lon="6.165959" lat="51.150996"><ele>54.6</ele><time>2022-05-22T07:56:20.000Z</time></trkpt><trkpt lon="6.165945" lat="51.151038"><ele>54.8</ele><time>2022-05-22T07:56:21.000Z</time></trkpt><trkpt lon="6.16593" lat="51.151073"><ele>54.8</ele><time>2022-05-22T07:56:22.000Z</time></trkpt><trkpt lon="6.165919" lat="51.15111"><ele>54.8</ele><time>2022-05-22T07:56:23.000Z</time></trkpt><trkpt lon="6.16591" lat="51.15116"><ele>55</ele><time>2022-05-22T07:56:24.000Z</time></trkpt><trkpt lon="6.16591" lat="51.151214"><ele>55</ele><time>2022-05-22T07:56:25.000Z</time></trkpt><trkpt lon="6.165902" lat="51.151248"><ele>55</ele><time>2022-05-22T07:56:26.000Z</time></trkpt><trkpt lon="6.165882" lat="51.151282"><ele>55</ele><time>2022-05-22T07:56:27.000Z</time></trkpt><trkpt lon="6.165865" lat="51.151309"><ele>55</ele><time>2022-05-22T07:56:28.000Z</time></trkpt><trkpt lon="6.165839" lat="51.15134"><ele>55</ele><time>2022-05-22T07:56:29.000Z</time></trkpt><trkpt lon="6.165799" lat="51.151376"><ele>55</ele><time>2022-05-22T07:56:30.000Z</time></trkpt><trkpt lon="6.165753" lat="51.151416"><ele>54.8</ele><time>2022-05-22T07:56:31.000Z</time></trkpt><trkpt lon="6.1657" lat="51.151462"><ele>54.6</ele><time>2022-05-22T07:56:32.000Z</time></trkpt><trkpt lon="6.165648" lat="51.151507"><ele>54.4</ele><time>2022-05-22T07:56:33.000Z</time></trkpt><trkpt lon="6.165601" lat="51.15155"><ele>54.2</ele><time>2022-05-22T07:56:34.000Z</time></trkpt><trkpt lon="6.165555" lat="51.151588"><ele>54</ele><time>2022-05-22T07:56:35.000Z</time></trkpt><trkpt lon="6.165508" lat="51.151626"><ele>53.8</ele><time>2022-05-22T07:56:36.000Z</time></trkpt><trkpt lon="6.165468" lat="51.151679"><ele>53.6</ele><time>2022-05-22T07:56:37.000Z</time></trkpt><trkpt lon="6.16542" lat="51.151723"><ele>53.4</ele><time>2022-05-22T07:56:38.000Z</time></trkpt><trkpt lon="6.165372" lat="51.15177"><ele>53.2</ele><time>2022-05-22T07:56:39.000Z</time></trkpt><trkpt lon="6.165321" lat="51.151831"><ele>53</ele><time>2022-05-22T07:56:40.000Z</time></trkpt><trkpt lon="6.165268" lat="51.151877"><ele>52.8</ele><time>2022-05-22T07:56:41.000Z</time></trkpt><trkpt lon="6.165221" lat="51.151927"><ele>52.6</ele><time>2022-05-22T07:56:42.000Z</time></trkpt><trkpt lon="6.165171" lat="51.15198"><ele>52.6</ele><time>2022-05-22T07:56:43.000Z</time></trkpt><trkpt lon="6.165118" lat="51.152029"><ele>52.4</ele><time>2022-05-22T07:56:44.000Z</time></trkpt><trkpt lon="6.165075" lat="51.152072"><ele>52.4</ele><time>2022-05-22T07:56:45.000Z</time></trkpt><trkpt lon="6.165034" lat="51.152114"><ele>52.2</ele><time>2022-05-22T07:56:46.000Z</time></trkpt><trkpt lon="6.164991" lat="51.152155"><ele>52.2</ele><time>2022-05-22T07:56:47.000Z</time></trkpt><trkpt lon="6.164948" lat="51.152194"><ele>52.2</ele><time>2022-05-22T07:56:48.000Z</time></trkpt><trkpt lon="6.164908" lat="51.152228"><ele>52</ele><time>2022-05-22T07:56:49.000Z</time></trkpt><trkpt lon="6.164873" lat="51.152259"><ele>52</ele><time>2022-05-22T07:56:50.000Z</time></trkpt><trkpt lon="6.164842" lat="51.15229"><ele>52</ele><time>2022-05-22T07:56:51.000Z</time></trkpt><trkpt lon="6.164814" lat="51.152332"><ele>52</ele><time>2022-05-22T07:56:52.000Z</time></trkpt><trkpt lon="6.164782" lat="51.152373"><ele>52</ele><time>2022-05-22T07:56:53.000Z</time></trkpt><trkpt lon="6.164749" lat="51.152404"><ele>52</ele><time>2022-05-22T07:56:54.000Z</time></trkpt><trkpt lon="6.164718" lat="51.152438"><ele>51.8</ele><time>2022-05-22T07:56:55.000Z</time></trkpt><trkpt lon="6.164695" lat="51.152476"><ele>51.8</ele><time>2022-05-22T07:56:56.000Z</time></trkpt><trkpt lon="6.164666" lat="51.152518"><ele>52</ele><time>2022-05-22T07:56:57.000Z</time></trkpt><trkpt lon="6.164626" lat="51.152571"><ele>51.8</ele><time>2022-05-22T07:56:58.000Z</time></trkpt><trkpt lon="6.164593" lat="51.152602"><ele>51.8</ele><time>2022-05-22T07:56:59.000Z</time></trkpt><trkpt lon="6.164551" lat="51.152633"><ele>51.8</ele><time>2022-05-22T07:57:00.000Z</time></trkpt><trkpt lon="6.1645" lat="51.152663"><ele>51.8</ele><time>2022-05-22T07:57:01.000Z</time></trkpt><trkpt lon="6.16444" lat="51.152694"><ele>51.8</ele><time>2022-05-22T07:57:02.000Z</time></trkpt><trkpt lon="6.164362" lat="51.152727"><ele>51.6</ele><time>2022-05-22T07:57:03.000Z</time></trkpt><trkpt lon="6.164282" lat="51.152755"><ele>51.8</ele><time>2022-05-22T07:57:04.000Z</time></trkpt><trkpt lon="6.164201" lat="51.152786"><ele>51.6</ele><time>2022-05-22T07:57:05.000Z</time></trkpt><trkpt lon="6.164121" lat="51.152812"><ele>51.6</ele><time>2022-05-22T07:57:06.000Z</time></trkpt><trkpt lon="6.164033" lat="51.152843"><ele>51.6</ele><time>2022-05-22T07:57:07.000Z</time></trkpt><trkpt lon="6.163939" lat="51.152877"><ele>51.6</ele><time>2022-05-22T07:57:08.000Z</time></trkpt><trkpt lon="6.163854" lat="51.152908"><ele>51.8</ele><time>2022-05-22T07:57:09.000Z</time></trkpt><trkpt lon="6.163766" lat="51.152937"><ele>51.8</ele><time>2022-05-22T07:57:10.000Z</time></trkpt><trkpt lon="6.16367" lat="51.152976"><ele>51.8</ele><time>2022-05-22T07:57:11.000Z</time></trkpt><trkpt lon="6.163588" lat="51.153006"><ele>51.8</ele><time>2022-05-22T07:57:12.000Z</time></trkpt><trkpt lon="6.163507" lat="51.15303"><ele>52</ele><time>2022-05-22T07:57:13.000Z</time></trkpt><trkpt lon="6.163425" lat="51.15306"><ele>52</ele><time>2022-05-22T07:57:14.000Z</time></trkpt><trkpt lon="6.163349" lat="51.153083"><ele>52.2</ele><time>2022-05-22T07:57:15.000Z</time></trkpt><trkpt lon="6.163269" lat="51.15311"><ele>52.2</ele><time>2022-05-22T07:57:16.000Z</time></trkpt><trkpt lon="6.163182" lat="51.15314"><ele>52.4</ele><time>2022-05-22T07:57:17.000Z</time></trkpt><trkpt lon="6.1631" lat="51.153171"><ele>52.4</ele><time>2022-05-22T07:57:18.000Z</time></trkpt><trkpt lon="6.163017" lat="51.153198"><ele>52.4</ele><time>2022-05-22T07:57:19.000Z</time></trkpt><trkpt lon="6.162938" lat="51.153224"><ele>52.6</ele><time>2022-05-22T07:57:20.000Z</time></trkpt><trkpt lon="6.162854" lat="51.153255"><ele>52.6</ele><time>2022-05-22T07:57:21.000Z</time></trkpt><trkpt lon="6.162779" lat="51.153278"><ele>52.6</ele><time>2022-05-22T07:57:22.000Z</time></trkpt><trkpt lon="6.1627" lat="51.153297"><ele>52.8</ele><time>2022-05-22T07:57:23.000Z</time></trkpt><trkpt lon="6.162619" lat="51.153323"><ele>52.8</ele><time>2022-05-22T07:57:24.000Z</time></trkpt><trkpt lon="6.162538" lat="51.153354"><ele>52.8</ele><time>2022-05-22T07:57:25.000Z</time></trkpt><trkpt lon="6.16246" lat="51.153377"><ele>53</ele><time>2022-05-22T07:57:26.000Z</time></trkpt><trkpt lon="6.162388" lat="51.1534"><ele>53.2</ele><time>2022-05-22T07:57:27.000Z</time></trkpt><trkpt lon="6.162312" lat="51.153423"><ele>53.2</ele><time>2022-05-22T07:57:28.000Z</time></trkpt><trkpt lon="6.162236" lat="51.153446"><ele>53.4</ele><time>2022-05-22T07:57:29.000Z</time></trkpt><trkpt lon="6.162158" lat="51.153468"><ele>53.6</ele><time>2022-05-22T07:57:30.000Z</time></trkpt><trkpt lon="6.162071" lat="51.153495"><ele>53.6</ele><time>2022-05-22T07:57:31.000Z</time></trkpt><trkpt lon="6.161994" lat="51.153521"><ele>53.8</ele><time>2022-05-22T07:57:32.000Z</time></trkpt><trkpt lon="6.161904" lat="51.153555"><ele>53.8</ele><time>2022-05-22T07:57:33.000Z</time></trkpt><trkpt lon="6.161831" lat="51.153579"><ele>54</ele><time>2022-05-22T07:57:34.000Z</time></trkpt><trkpt lon="6.161745" lat="51.153613"><ele>54</ele><time>2022-05-22T07:57:35.000Z</time></trkpt><trkpt lon="6.161664" lat="51.153636"><ele>54.2</ele><time>2022-05-22T07:57:36.000Z</time></trkpt><trkpt lon="6.161592" lat="51.153659"><ele>54.2</ele><time>2022-05-22T07:57:37.000Z</time></trkpt><trkpt lon="6.161539" lat="51.153678"><ele>54.4</ele><time>2022-05-22T07:57:38.000Z</time></trkpt><trkpt lon="6.16148" lat="51.153701"><ele>54.4</ele><time>2022-05-22T07:57:39.000Z</time></trkpt><trkpt lon="6.16142" lat="51.153717"><ele>54.6</ele><time>2022-05-22T07:57:40.000Z</time></trkpt><trkpt lon="6.161354" lat="51.153739"><ele>54.6</ele><time>2022-05-22T07:57:41.000Z</time></trkpt><trkpt lon="6.161288" lat="51.153762"><ele>54.8</ele><time>2022-05-22T07:57:42.000Z</time></trkpt><trkpt lon="6.161223" lat="51.153788"><ele>54.8</ele><time>2022-05-22T07:57:43.000Z</time></trkpt><trkpt lon="6.161158" lat="51.153808"><ele>55</ele><time>2022-05-22T07:57:44.000Z</time></trkpt><trkpt lon="6.161102" lat="51.153831"><ele>55</ele><time>2022-05-22T07:57:45.000Z</time></trkpt><trkpt lon="6.161031" lat="51.153868"><ele>55.2</ele><time>2022-05-22T07:57:46.000Z</time></trkpt><trkpt lon="6.16096" lat="51.153895"><ele>55.4</ele><time>2022-05-22T07:57:47.000Z</time></trkpt><trkpt lon="6.160903" lat="51.153889"><ele>55.4</ele><time>2022-05-22T07:57:48.000Z</time></trkpt><trkpt lon="6.160843" lat="51.15387"><ele>55.6</ele><time>2022-05-22T07:57:49.000Z</time></trkpt><trkpt lon="6.160769" lat="51.153836"><ele>55.6</ele><time>2022-05-22T07:57:50.000Z</time></trkpt><trkpt lon="6.160669" lat="51.153794"><ele>55.4</ele><time>2022-05-22T07:57:51.000Z</time></trkpt><trkpt lon="6.160574" lat="51.153745"><ele>55.6</ele><time>2022-05-22T07:57:52.000Z</time></trkpt><trkpt lon="6.160482" lat="51.153703"><ele>55.4</ele><time>2022-05-22T07:57:53.000Z</time></trkpt><trkpt lon="6.160404" lat="51.153662"><ele>55.4</ele><time>2022-05-22T07:57:54.000Z</time></trkpt><trkpt lon="6.160318" lat="51.153614"><ele>55.4</ele><time>2022-05-22T07:57:55.000Z</time></trkpt><trkpt lon="6.160242" lat="51.153576"><ele>55.6</ele><time>2022-05-22T07:57:56.000Z</time></trkpt><trkpt lon="6.160163" lat="51.153527"><ele>55.6</ele><time>2022-05-22T07:57:57.000Z</time></trkpt><trkpt lon="6.160093" lat="51.15349"><ele>55.6</ele><time>2022-05-22T07:57:58.000Z</time></trkpt><trkpt lon="6.160018" lat="51.153447"><ele>55.6</ele><time>2022-05-22T07:57:59.000Z</time></trkpt><trkpt lon="6.159952" lat="51.153406"><ele>55.6</ele><time>2022-05-22T07:58:00.000Z</time></trkpt><trkpt lon="6.159882" lat="51.15336"><ele>55.6</ele><time>2022-05-22T07:58:01.000Z</time></trkpt><trkpt lon="6.159814" lat="51.153318"><ele>55.6</ele><time>2022-05-22T07:58:02.000Z</time></trkpt><trkpt lon="6.159744" lat="51.153279"><ele>55.6</ele><time>2022-05-22T07:58:03.000Z</time></trkpt><trkpt lon="6.159678" lat="51.153243"><ele>55.6</ele><time>2022-05-22T07:58:04.000Z</time></trkpt><trkpt lon="6.159611" lat="51.153203"><ele>55.6</ele><time>2022-05-22T07:58:05.000Z</time></trkpt><trkpt lon="6.159551" lat="51.153165"><ele>55.6</ele><time>2022-05-22T07:58:06.000Z</time></trkpt><trkpt lon="6.159485" lat="51.153134"><ele>55.6</ele><time>2022-05-22T07:58:07.000Z</time></trkpt><trkpt lon="6.159419" lat="51.153108"><ele>55.6</ele><time>2022-05-22T07:58:08.000Z</time></trkpt><trkpt lon="6.159347" lat="51.153081"><ele>55.8</ele><time>2022-05-22T07:58:09.000Z</time></trkpt><trkpt lon="6.159273" lat="51.153062"><ele>55.8</ele><time>2022-05-22T07:58:10.000Z</time></trkpt><trkpt lon="6.159197" lat="51.153053"><ele>55.8</ele><time>2022-05-22T07:58:11.000Z</time></trkpt><trkpt lon="6.159123" lat="51.153046"><ele>55.8</ele><time>2022-05-22T07:58:12.000Z</time></trkpt><trkpt lon="6.159047" lat="51.153046"><ele>55.8</ele><time>2022-05-22T07:58:13.000Z</time></trkpt><trkpt lon="6.158984" lat="51.153042"><ele>55.8</ele><time>2022-05-22T07:58:14.000Z</time></trkpt><trkpt lon="6.158904" lat="51.153047"><ele>55.6</ele><time>2022-05-22T07:58:15.000Z</time></trkpt><trkpt lon="6.158822" lat="51.153053"><ele>55.6</ele><time>2022-05-22T07:58:16.000Z</time></trkpt><trkpt lon="6.158749" lat="51.153061"><ele>55.6</ele><time>2022-05-22T07:58:17.000Z</time></trkpt><trkpt lon="6.158675" lat="51.153068"><ele>55.8</ele><time>2022-05-22T07:58:18.000Z</time></trkpt><trkpt lon="6.158608" lat="51.15308"><ele>55.8</ele><time>2022-05-22T07:58:19.000Z</time></trkpt><trkpt lon="6.158553" lat="51.153084"><ele>55.8</ele><time>2022-05-22T07:58:20.000Z</time></trkpt><trkpt lon="6.1585" lat="51.153084"><ele>56</ele><time>2022-05-22T07:58:21.000Z</time></trkpt><trkpt lon="6.158443" lat="51.153076"><ele>56.2</ele><time>2022-05-22T07:58:22.000Z</time></trkpt><trkpt lon="6.158386" lat="51.153058"><ele>56.2</ele><time>2022-05-22T07:58:23.000Z</time></trkpt><trkpt lon="6.15833" lat="51.153027"><ele>56.2</ele><time>2022-05-22T07:58:24.000Z</time></trkpt><trkpt lon="6.15829" lat="51.152979"><ele>56.2</ele><time>2022-05-22T07:58:25.000Z</time></trkpt><trkpt lon="6.158263" lat="51.152922"><ele>56.2</ele><time>2022-05-22T07:58:26.000Z</time></trkpt><trkpt lon="6.15825" lat="51.152864"><ele>55.8</ele><time>2022-05-22T07:58:27.000Z</time></trkpt><trkpt lon="6.158243" lat="51.152807"><ele>55.6</ele><time>2022-05-22T07:58:28.000Z</time></trkpt><trkpt lon="6.158239" lat="51.15275"><ele>55.4</ele><time>2022-05-22T07:58:29.000Z</time></trkpt><trkpt lon="6.158211" lat="51.152685"><ele>55.2</ele><time>2022-05-22T07:58:30.000Z</time></trkpt><trkpt lon="6.158176" lat="51.15262"><ele>54.8</ele><time>2022-05-22T07:58:31.000Z</time></trkpt><trkpt lon="6.158134" lat="51.152553"><ele>54.6</ele><time>2022-05-22T07:58:32.000Z</time></trkpt><trkpt lon="6.158078" lat="51.152486"><ele>54.6</ele><time>2022-05-22T07:58:33.000Z</time></trkpt><trkpt lon="6.15802" lat="51.152426"><ele>54.4</ele><time>2022-05-22T07:58:34.000Z</time></trkpt><trkpt lon="6.157953" lat="51.152362"><ele>54.2</ele><time>2022-05-22T07:58:35.000Z</time></trkpt><trkpt lon="6.157872" lat="51.152285"><ele>54</ele><time>2022-05-22T07:58:36.000Z</time></trkpt><trkpt lon="6.157786" lat="51.152219"><ele>53.8</ele><time>2022-05-22T07:58:37.000Z</time></trkpt><trkpt lon="6.157686" lat="51.15217"><ele>53.8</ele><time>2022-05-22T07:58:38.000Z</time></trkpt><trkpt lon="6.157581" lat="51.152132"><ele>53.6</ele><time>2022-05-22T07:58:39.000Z</time></trkpt><trkpt lon="6.157464" lat="51.152111"><ele>53.6</ele><time>2022-05-22T07:58:40.000Z</time></trkpt><trkpt lon="6.157353" lat="51.1521"><ele>53.6</ele><time>2022-05-22T07:58:41.000Z</time></trkpt><trkpt lon="6.157239" lat="51.152096"><ele>53.6</ele><time>2022-05-22T07:58:42.000Z</time></trkpt><trkpt lon="6.157119" lat="51.152088"><ele>53.6</ele><time>2022-05-22T07:58:43.000Z</time></trkpt><trkpt lon="6.157007" lat="51.152084"><ele>53.4</ele><time>2022-05-22T07:58:44.000Z</time></trkpt><trkpt lon="6.156903" lat="51.152081"><ele>53.4</ele><time>2022-05-22T07:58:45.000Z</time></trkpt><trkpt lon="6.156793" lat="51.152084"><ele>53.4</ele><time>2022-05-22T07:58:46.000Z</time></trkpt><trkpt lon="6.156694" lat="51.152084"><ele>53.4</ele><time>2022-05-22T07:58:47.000Z</time></trkpt><trkpt lon="6.156596" lat="51.152084"><ele>53.4</ele><time>2022-05-22T07:58:48.000Z</time></trkpt><trkpt lon="6.156492" lat="51.152077"><ele>53.6</ele><time>2022-05-22T07:58:49.000Z</time></trkpt><trkpt lon="6.156383" lat="51.152069"><ele>53.6</ele><time>2022-05-22T07:58:50.000Z</time></trkpt><trkpt lon="6.156264" lat="51.152062"><ele>53.6</ele><time>2022-05-22T07:58:51.000Z</time></trkpt><trkpt lon="6.15614" lat="51.152058"><ele>53.6</ele><time>2022-05-22T07:58:52.000Z</time></trkpt><trkpt lon="6.156013" lat="51.152054"><ele>53.6</ele><time>2022-05-22T07:58:53.000Z</time></trkpt><trkpt lon="6.155899" lat="51.152054"><ele>53.6</ele><time>2022-05-22T07:58:54.000Z</time></trkpt><trkpt lon="6.155785" lat="51.152054"><ele>53.6</ele><time>2022-05-22T07:58:55.000Z</time></trkpt><trkpt lon="6.15567" lat="51.152054"><ele>53.6</ele><time>2022-05-22T07:58:56.000Z</time></trkpt><trkpt lon="6.155548" lat="51.152054"><ele>53.6</ele><time>2022-05-22T07:58:57.000Z</time></trkpt><trkpt lon="6.155429" lat="51.15205"><ele>53.8</ele><time>2022-05-22T07:58:58.000Z</time></trkpt><trkpt lon="6.155308" lat="51.15205"><ele>53.8</ele><time>2022-05-22T07:58:59.000Z</time></trkpt><trkpt lon="6.155192" lat="51.152046"><ele>53.8</ele><time>2022-05-22T07:59:00.000Z</time></trkpt><trkpt lon="6.155072" lat="51.152043"><ele>53.8</ele><time>2022-05-22T07:59:01.000Z</time></trkpt><trkpt lon="6.154949" lat="51.152039"><ele>53.8</ele><time>2022-05-22T07:59:02.000Z</time></trkpt><trkpt lon="6.154829" lat="51.152031"><ele>53.8</ele><time>2022-05-22T07:59:03.000Z</time></trkpt><trkpt lon="6.154696" lat="51.152023"><ele>53.8</ele><time>2022-05-22T07:59:04.000Z</time></trkpt><trkpt lon="6.154569" lat="51.152012"><ele>53.8</ele><time>2022-05-22T07:59:05.000Z</time></trkpt><trkpt lon="6.15444" lat="51.151997"><ele>53.8</ele><time>2022-05-22T07:59:06.000Z</time></trkpt><trkpt lon="6.154318" lat="51.151989"><ele>53.6</ele><time>2022-05-22T07:59:07.000Z</time></trkpt><trkpt lon="6.154197" lat="51.151978"><ele>53.6</ele><time>2022-05-22T07:59:08.000Z</time></trkpt><trkpt lon="6.154074" lat="51.15197"><ele>53.4</ele><time>2022-05-22T07:59:09.000Z</time></trkpt><trkpt lon="6.153947" lat="51.151959"><ele>53.4</ele><time>2022-05-22T07:59:10.000Z</time></trkpt><trkpt lon="6.153818" lat="51.151944"><ele>53.2</ele><time>2022-05-22T07:59:11.000Z</time></trkpt><trkpt lon="6.153695" lat="51.151932"><ele>53</ele><time>2022-05-22T07:59:12.000Z</time></trkpt><trkpt lon="6.153568" lat="51.151917"><ele>53</ele><time>2022-05-22T07:59:13.000Z</time></trkpt><trkpt lon="6.153442" lat="51.151905"><ele>53</ele><time>2022-05-22T07:59:14.000Z</time></trkpt><trkpt lon="6.153322" lat="51.151898"><ele>52.8</ele><time>2022-05-22T07:59:15.000Z</time></trkpt><trkpt lon="6.15321" lat="51.15189"><ele>52.8</ele><time>2022-05-22T07:59:16.000Z</time></trkpt><trkpt lon="6.1531" lat="51.151882"><ele>52.8</ele><time>2022-05-22T07:59:17.000Z</time></trkpt><trkpt lon="6.152989" lat="51.151878"><ele>52.6</ele><time>2022-05-22T07:59:18.000Z</time></trkpt><trkpt lon="6.15288" lat="51.151878"><ele>52.6</ele><time>2022-05-22T07:59:19.000Z</time></trkpt><trkpt lon="6.152769" lat="51.151871"><ele>52.6</ele><time>2022-05-22T07:59:20.000Z</time></trkpt><trkpt lon="6.152659" lat="51.151863"><ele>52.6</ele><time>2022-05-22T07:59:21.000Z</time></trkpt><trkpt lon="6.152549" lat="51.151859"><ele>52.6</ele><time>2022-05-22T07:59:22.000Z</time></trkpt><trkpt lon="6.152449" lat="51.151852"><ele>52.6</ele><time>2022-05-22T07:59:23.000Z</time></trkpt><trkpt lon="6.152355" lat="51.151848"><ele>52.4</ele><time>2022-05-22T07:59:24.000Z</time></trkpt><trkpt lon="6.15226" lat="51.151844"><ele>52.4</ele><time>2022-05-22T07:59:25.000Z</time></trkpt><trkpt lon="6.152152" lat="51.151833"><ele>52.4</ele><time>2022-05-22T07:59:26.000Z</time></trkpt><trkpt lon="6.152043" lat="51.151825"><ele>52.4</ele><time>2022-05-22T07:59:27.000Z</time></trkpt><trkpt lon="6.151929" lat="51.151817"><ele>52.4</ele><time>2022-05-22T07:59:28.000Z</time></trkpt><trkpt lon="6.151817" lat="51.15181"><ele>52.4</ele><time>2022-05-22T07:59:29.000Z</time></trkpt><trkpt lon="6.151701" lat="51.151802"><ele>52.2</ele><time>2022-05-22T07:59:30.000Z</time></trkpt><trkpt lon="6.151583" lat="51.151791"><ele>52.2</ele><time>2022-05-22T07:59:31.000Z</time></trkpt><trkpt lon="6.151461" lat="51.151779"><ele>52.2</ele><time>2022-05-22T07:59:32.000Z</time></trkpt><trkpt lon="6.151343" lat="51.151768"><ele>52.2</ele><time>2022-05-22T07:59:33.000Z</time></trkpt><trkpt lon="6.151226" lat="51.151753"><ele>52.2</ele><time>2022-05-22T07:59:34.000Z</time></trkpt><trkpt lon="6.151111" lat="51.151738"><ele>52</ele><time>2022-05-22T07:59:35.000Z</time></trkpt><trkpt lon="6.150999" lat="51.151722"><ele>52</ele><time>2022-05-22T07:59:36.000Z</time></trkpt><trkpt lon="6.150865" lat="51.151704"><ele>51.8</ele><time>2022-05-22T07:59:37.000Z</time></trkpt><trkpt lon="6.150737" lat="51.151681"><ele>51.8</ele><time>2022-05-22T07:59:38.000Z</time></trkpt><trkpt lon="6.150605" lat="51.151661"><ele>51.6</ele><time>2022-05-22T07:59:39.000Z</time></trkpt><trkpt lon="6.15048" lat="51.151642"><ele>51.6</ele><time>2022-05-22T07:59:40.000Z</time></trkpt><trkpt lon="6.150361" lat="51.151621"><ele>51.4</ele><time>2022-05-22T07:59:41.000Z</time></trkpt><trkpt lon="6.150232" lat="51.1516"><ele>51.2</ele><time>2022-05-22T07:59:42.000Z</time></trkpt><trkpt lon="6.150107" lat="51.151582"><ele>51</ele><time>2022-05-22T07:59:43.000Z</time></trkpt><trkpt lon="6.149991" lat="51.151567"><ele>50.8</ele><time>2022-05-22T07:59:44.000Z</time></trkpt><trkpt lon="6.149859" lat="51.151551"><ele>50.8</ele><time>2022-05-22T07:59:45.000Z</time></trkpt><trkpt lon="6.149734" lat="51.151536"><ele>50.8</ele><time>2022-05-22T07:59:46.000Z</time></trkpt><trkpt lon="6.14961" lat="51.151524"><ele>50.8</ele><time>2022-05-22T07:59:47.000Z</time></trkpt><trkpt lon="6.149478" lat="51.151505"><ele>50.8</ele><time>2022-05-22T07:59:48.000Z</time></trkpt><trkpt lon="6.149346" lat="51.151482"><ele>50.8</ele><time>2022-05-22T07:59:49.000Z</time></trkpt><trkpt lon="6.149185" lat="51.151452"><ele>50.8</ele><time>2022-05-22T07:59:50.000Z</time></trkpt><trkpt lon="6.149043" lat="51.151425"><ele>50.8</ele><time>2022-05-22T07:59:51.000Z</time></trkpt><trkpt lon="6.148925" lat="51.151395"><ele>51</ele><time>2022-05-22T07:59:52.000Z</time></trkpt><trkpt lon="6.148812" lat="51.151357"><ele>50.8</ele><time>2022-05-22T07:59:53.000Z</time></trkpt><trkpt lon="6.148704" lat="51.151319"><ele>50.8</ele><time>2022-05-22T07:59:54.000Z</time></trkpt><trkpt lon="6.148593" lat="51.15128"><ele>50.8</ele><time>2022-05-22T07:59:55.000Z</time></trkpt><trkpt lon="6.148473" lat="51.151242"><ele>50.6</ele><time>2022-05-22T07:59:56.000Z</time></trkpt><trkpt lon="6.148328" lat="51.151204"><ele>50.6</ele><time>2022-05-22T07:59:57.000Z</time></trkpt><trkpt lon="6.148203" lat="51.151173"><ele>50.4</ele><time>2022-05-22T07:59:58.000Z</time></trkpt><trkpt lon="6.148059" lat="51.151139"><ele>50.4</ele><time>2022-05-22T07:59:59.000Z</time></trkpt><trkpt lon="6.147918" lat="51.151112"><ele>50.4</ele><time>2022-05-22T08:00:00.000Z</time></trkpt><trkpt lon="6.147795" lat="51.151086"><ele>50.4</ele><time>2022-05-22T08:00:01.000Z</time></trkpt><trkpt lon="6.147673" lat="51.151063"><ele>50.4</ele><time>2022-05-22T08:00:02.000Z</time></trkpt><trkpt lon="6.14756" lat="51.151041"><ele>50.2</ele><time>2022-05-22T08:00:03.000Z</time></trkpt><trkpt lon="6.147429" lat="51.151013"><ele>50.2</ele><time>2022-05-22T08:00:04.000Z</time></trkpt><trkpt lon="6.147318" lat="51.150991"><ele>50.2</ele><time>2022-05-22T08:00:05.000Z</time></trkpt><trkpt lon="6.147188" lat="51.150967"><ele>50</ele><time>2022-05-22T08:00:06.000Z</time></trkpt><trkpt lon="6.147078" lat="51.150949"><ele>50</ele><time>2022-05-22T08:00:07.000Z</time></trkpt><trkpt lon="6.146951" lat="51.150925"><ele>49.8</ele><time>2022-05-22T08:00:08.000Z</time></trkpt><trkpt lon="6.146835" lat="51.150903"><ele>49.8</ele><time>2022-05-22T08:00:09.000Z</time></trkpt><trkpt lon="6.146722" lat="51.150883"><ele>49.6</ele><time>2022-05-22T08:00:10.000Z</time></trkpt><trkpt lon="6.146619" lat="51.150864"><ele>49.6</ele><time>2022-05-22T08:00:11.000Z</time></trkpt><trkpt lon="6.146511" lat="51.150845"><ele>49.4</ele><time>2022-05-22T08:00:12.000Z</time></trkpt><trkpt lon="6.146404" lat="51.150826"><ele>49.4</ele><time>2022-05-22T08:00:13.000Z</time></trkpt><trkpt lon="6.146281" lat="51.150803"><ele>49.2</ele><time>2022-05-22T08:00:14.000Z</time></trkpt><trkpt lon="6.146164" lat="51.15078"><ele>49.2</ele><time>2022-05-22T08:00:15.000Z</time></trkpt><trkpt lon="6.146052" lat="51.150758"><ele>49.2</ele><time>2022-05-22T08:00:16.000Z</time></trkpt><trkpt lon="6.145921" lat="51.150731"><ele>49.2</ele><time>2022-05-22T08:00:17.000Z</time></trkpt><trkpt lon="6.145809" lat="51.150712"><ele>49.2</ele><time>2022-05-22T08:00:18.000Z</time></trkpt><trkpt lon="6.1457" lat="51.150689"><ele>49.2</ele><time>2022-05-22T08:00:19.000Z</time></trkpt><trkpt lon="6.145588" lat="51.150667"><ele>49.2</ele><time>2022-05-22T08:00:20.000Z</time></trkpt><trkpt lon="6.145463" lat="51.150643"><ele>49.2</ele><time>2022-05-22T08:00:21.000Z</time></trkpt><trkpt lon="6.145341" lat="51.15062"><ele>49.2</ele><time>2022-05-22T08:00:22.000Z</time></trkpt><trkpt lon="6.145215" lat="51.150594"><ele>49.2</ele><time>2022-05-22T08:00:23.000Z</time></trkpt><trkpt lon="6.145088" lat="51.150567"><ele>49.4</ele><time>2022-05-22T08:00:24.000Z</time></trkpt><trkpt lon="6.144968" lat="51.150544"><ele>49.4</ele><time>2022-05-22T08:00:25.000Z</time></trkpt><trkpt lon="6.14484" lat="51.150518"><ele>49.4</ele><time>2022-05-22T08:00:26.000Z</time></trkpt><trkpt lon="6.144717" lat="51.150494"><ele>49.6</ele><time>2022-05-22T08:00:27.000Z</time></trkpt><trkpt lon="6.144602" lat="51.150479"><ele>49.8</ele><time>2022-05-22T08:00:28.000Z</time></trkpt><trkpt lon="6.144488" lat="51.150456"><ele>50</ele><time>2022-05-22T08:00:29.000Z</time></trkpt><trkpt lon="6.144381" lat="51.150441"><ele>50.2</ele><time>2022-05-22T08:00:30.000Z</time></trkpt><trkpt lon="6.144269" lat="51.150422"><ele>50.2</ele><time>2022-05-22T08:00:31.000Z</time></trkpt><trkpt lon="6.144157" lat="51.150403"><ele>50.4</ele><time>2022-05-22T08:00:32.000Z</time></trkpt><trkpt lon="6.144048" lat="51.150384"><ele>50.6</ele><time>2022-05-22T08:00:33.000Z</time></trkpt><trkpt lon="6.143926" lat="51.150364"><ele>50.6</ele><time>2022-05-22T08:00:34.000Z</time></trkpt><trkpt lon="6.143815" lat="51.150342"><ele>50.6</ele><time>2022-05-22T08:00:35.000Z</time></trkpt><trkpt lon="6.143708" lat="51.150319"><ele>50.8</ele><time>2022-05-22T08:00:36.000Z</time></trkpt><trkpt lon="6.143611" lat="51.150296"><ele>50.8</ele><time>2022-05-22T08:00:37.000Z</time></trkpt><trkpt lon="6.143524" lat="51.150273"><ele>50.8</ele><time>2022-05-22T08:00:38.000Z</time></trkpt><trkpt lon="6.143437" lat="51.150242"><ele>50.8</ele><time>2022-05-22T08:00:39.000Z</time></trkpt><trkpt lon="6.143341" lat="51.150209"><ele>50.8</ele><time>2022-05-22T08:00:40.000Z</time></trkpt><trkpt lon="6.143245" lat="51.150177"><ele>50.8</ele><time>2022-05-22T08:00:41.000Z</time></trkpt><trkpt lon="6.143141" lat="51.150137"><ele>50.8</ele><time>2022-05-22T08:00:42.000Z</time></trkpt><trkpt lon="6.143052" lat="51.150106"><ele>50.6</ele><time>2022-05-22T08:00:43.000Z</time></trkpt><trkpt lon="6.142968" lat="51.150076"><ele>50.6</ele><time>2022-05-22T08:00:44.000Z</time></trkpt><trkpt lon="6.142882" lat="51.150041"><ele>50.4</ele><time>2022-05-22T08:00:45.000Z</time></trkpt><trkpt lon="6.142797" lat="51.150002"><ele>50.2</ele><time>2022-05-22T08:00:46.000Z</time></trkpt><trkpt lon="6.142712" lat="51.149964"><ele>50.2</ele><time>2022-05-22T08:00:47.000Z</time></trkpt><trkpt lon="6.142623" lat="51.149926"><ele>50</ele><time>2022-05-22T08:00:48.000Z</time></trkpt><trkpt lon="6.142537" lat="51.149884"><ele>49.8</ele><time>2022-05-22T08:00:49.000Z</time></trkpt><trkpt lon="6.142434" lat="51.149842"><ele>49.6</ele><time>2022-05-22T08:00:50.000Z</time></trkpt><trkpt lon="6.142328" lat="51.1498"><ele>49.4</ele><time>2022-05-22T08:00:51.000Z</time></trkpt><trkpt lon="6.14222" lat="51.149762"><ele>49.2</ele><time>2022-05-22T08:00:52.000Z</time></trkpt><trkpt lon="6.142121" lat="51.149729"><ele>49</ele><time>2022-05-22T08:00:53.000Z</time></trkpt><trkpt lon="6.142018" lat="51.149701"><ele>49</ele><time>2022-05-22T08:00:54.000Z</time></trkpt><trkpt lon="6.141916" lat="51.14967"><ele>48.8</ele><time>2022-05-22T08:00:55.000Z</time></trkpt><trkpt lon="6.141815" lat="51.149648"><ele>48.8</ele><time>2022-05-22T08:00:56.000Z</time></trkpt><trkpt lon="6.141709" lat="51.149639"><ele>48.8</ele><time>2022-05-22T08:00:57.000Z</time></trkpt><trkpt lon="6.141603" lat="51.149639"><ele>48.8</ele><time>2022-05-22T08:00:58.000Z</time></trkpt><trkpt lon="6.141473" lat="51.149639"><ele>48.8</ele><time>2022-05-22T08:00:59.000Z</time></trkpt><trkpt lon="6.141351" lat="51.14965"><ele>49</ele><time>2022-05-22T08:01:00.000Z</time></trkpt><trkpt lon="6.141231" lat="51.149673"><ele>49</ele><time>2022-05-22T08:01:01.000Z</time></trkpt><trkpt lon="6.141112" lat="51.149692"><ele>49.2</ele><time>2022-05-22T08:01:02.000Z</time></trkpt><trkpt lon="6.14099" lat="51.149707"><ele>49.2</ele><time>2022-05-22T08:01:03.000Z</time></trkpt><trkpt lon="6.140862" lat="51.149723"><ele>49.2</ele><time>2022-05-22T08:01:04.000Z</time></trkpt><trkpt lon="6.140746" lat="51.14973"><ele>49.2</ele><time>2022-05-22T08:01:05.000Z</time></trkpt><trkpt lon="6.140604" lat="51.149738"><ele>49.2</ele><time>2022-05-22T08:01:06.000Z</time></trkpt><trkpt lon="6.14047" lat="51.149742"><ele>49.2</ele><time>2022-05-22T08:01:07.000Z</time></trkpt><trkpt lon="6.140324" lat="51.149742"><ele>49</ele><time>2022-05-22T08:01:08.000Z</time></trkpt><trkpt lon="6.140196" lat="51.149742"><ele>48.8</ele><time>2022-05-22T08:01:09.000Z</time></trkpt><trkpt lon="6.140065" lat="51.149735"><ele>48.6</ele><time>2022-05-22T08:01:10.000Z</time></trkpt><trkpt lon="6.139926" lat="51.149723"><ele>48.4</ele><time>2022-05-22T08:01:11.000Z</time></trkpt><trkpt lon="6.13977" lat="51.149708"><ele>48</ele><time>2022-05-22T08:01:12.000Z</time></trkpt><trkpt lon="6.13963" lat="51.149697"><ele>47.6</ele><time>2022-05-22T08:01:13.000Z</time></trkpt><trkpt lon="6.139498" lat="51.149675"><ele>47.2</ele><time>2022-05-22T08:01:14.000Z</time></trkpt><trkpt lon="6.139361" lat="51.149649"><ele>46.8</ele><time>2022-05-22T08:01:15.000Z</time></trkpt><trkpt lon="6.139212" lat="51.14962"><ele>46.4</ele><time>2022-05-22T08:01:16.000Z</time></trkpt><trkpt lon="6.139088" lat="51.149594"><ele>46</ele><time>2022-05-22T08:01:17.000Z</time></trkpt><trkpt lon="6.138965" lat="51.14956"><ele>45.8</ele><time>2022-05-22T08:01:18.000Z</time></trkpt><trkpt lon="6.13885" lat="51.149527"><ele>45.4</ele><time>2022-05-22T08:01:19.000Z</time></trkpt><trkpt lon="6.138743" lat="51.149477"><ele>45</ele><time>2022-05-22T08:01:20.000Z</time></trkpt><trkpt lon="6.138649" lat="51.149425"><ele>44.6</ele><time>2022-05-22T08:01:21.000Z</time></trkpt><trkpt lon="6.138547" lat="51.149359"><ele>44.2</ele><time>2022-05-22T08:01:22.000Z</time></trkpt><trkpt lon="6.13845" lat="51.149286"><ele>43.8</ele><time>2022-05-22T08:01:23.000Z</time></trkpt><trkpt lon="6.138356" lat="51.149203"><ele>43.4</ele><time>2022-05-22T08:01:24.000Z</time></trkpt><trkpt lon="6.138272" lat="51.149126"><ele>43</ele><time>2022-05-22T08:01:25.000Z</time></trkpt><trkpt lon="6.138192" lat="51.14905"><ele>42.6</ele><time>2022-05-22T08:01:26.000Z</time></trkpt><trkpt lon="6.138106" lat="51.14897"><ele>42.2</ele><time>2022-05-22T08:01:27.000Z</time></trkpt><trkpt lon="6.138007" lat="51.148886"><ele>42</ele><time>2022-05-22T08:01:28.000Z</time></trkpt><trkpt lon="6.137919" lat="51.148809"><ele>41.6</ele><time>2022-05-22T08:01:29.000Z</time></trkpt><trkpt lon="6.137819" lat="51.148733"><ele>41.4</ele><time>2022-05-22T08:01:30.000Z</time></trkpt><trkpt lon="6.137735" lat="51.148657"><ele>41.2</ele><time>2022-05-22T08:01:31.000Z</time></trkpt><trkpt lon="6.137644" lat="51.148574"><ele>40.8</ele><time>2022-05-22T08:01:32.000Z</time></trkpt><trkpt lon="6.137567" lat="51.148497"><ele>40.6</ele><time>2022-05-22T08:01:33.000Z</time></trkpt><trkpt lon="6.137483" lat="51.148417"><ele>40.2</ele><time>2022-05-22T08:01:34.000Z</time></trkpt><trkpt lon="6.137401" lat="51.148333"><ele>40.2</ele><time>2022-05-22T08:01:35.000Z</time></trkpt><trkpt lon="6.137325" lat="51.148256"><ele>40</ele><time>2022-05-22T08:01:36.000Z</time></trkpt><trkpt lon="6.137255" lat="51.14818"><ele>39.8</ele><time>2022-05-22T08:01:37.000Z</time></trkpt><trkpt lon="6.137178" lat="51.148104"><ele>39.6</ele><time>2022-05-22T08:01:38.000Z</time></trkpt><trkpt lon="6.137112" lat="51.148031"><ele>39.4</ele><time>2022-05-22T08:01:39.000Z</time></trkpt><trkpt lon="6.137035" lat="51.14796"><ele>39.4</ele><time>2022-05-22T08:01:40.000Z</time></trkpt><trkpt lon="6.136957" lat="51.147887"><ele>39.2</ele><time>2022-05-22T08:01:41.000Z</time></trkpt><trkpt lon="6.136892" lat="51.147821"><ele>39.2</ele><time>2022-05-22T08:01:42.000Z</time></trkpt><trkpt lon="6.136832" lat="51.147748"><ele>39</ele><time>2022-05-22T08:01:43.000Z</time></trkpt><trkpt lon="6.136756" lat="51.147673"><ele>38.8</ele><time>2022-05-22T08:01:44.000Z</time></trkpt><trkpt lon="6.136693" lat="51.147604"><ele>38.6</ele><time>2022-05-22T08:01:45.000Z</time></trkpt><trkpt lon="6.136625" lat="51.147532"><ele>38.4</ele><time>2022-05-22T08:01:46.000Z</time></trkpt><trkpt lon="6.136559" lat="51.147466"><ele>38.4</ele><time>2022-05-22T08:01:47.000Z</time></trkpt><trkpt lon="6.136479" lat="51.147387"><ele>38.2</ele><time>2022-05-22T08:01:48.000Z</time></trkpt><trkpt lon="6.136419" lat="51.147325"><ele>38.2</ele><time>2022-05-22T08:01:49.000Z</time></trkpt><trkpt lon="6.136337" lat="51.147249"><ele>38</ele><time>2022-05-22T08:01:50.000Z</time></trkpt><trkpt lon="6.13627" lat="51.147177"><ele>38</ele><time>2022-05-22T08:01:51.000Z</time></trkpt><trkpt lon="6.1362" lat="51.147107"><ele>37.8</ele><time>2022-05-22T08:01:52.000Z</time></trkpt><trkpt lon="6.136134" lat="51.147033"><ele>37.8</ele><time>2022-05-22T08:01:53.000Z</time></trkpt><trkpt lon="6.136071" lat="51.146967"><ele>37.6</ele><time>2022-05-22T08:01:54.000Z</time></trkpt><trkpt lon="6.135999" lat="51.146894"><ele>37.6</ele><time>2022-05-22T08:01:55.000Z</time></trkpt><trkpt lon="6.135924" lat="51.146827"><ele>37.4</ele><time>2022-05-22T08:01:56.000Z</time></trkpt><trkpt lon="6.135849" lat="51.146761"><ele>37.2</ele><time>2022-05-22T08:01:57.000Z</time></trkpt><trkpt lon="6.135755" lat="51.146699"><ele>37.2</ele><time>2022-05-22T08:01:58.000Z</time></trkpt><trkpt lon="6.135654" lat="51.146639"><ele>37</ele><time>2022-05-22T08:01:59.000Z</time></trkpt><trkpt lon="6.13554" lat="51.146597"><ele>37</ele><time>2022-05-22T08:02:00.000Z</time></trkpt><trkpt lon="6.135428" lat="51.146563"><ele>36.8</ele><time>2022-05-22T08:02:01.000Z</time></trkpt><trkpt lon="6.135303" lat="51.146538"><ele>36.8</ele><time>2022-05-22T08:02:02.000Z</time></trkpt><trkpt lon="6.135182" lat="51.14652"><ele>36.8</ele><time>2022-05-22T08:02:03.000Z</time></trkpt><trkpt lon="6.135056" lat="51.146508"><ele>36.8</ele><time>2022-05-22T08:02:04.000Z</time></trkpt><trkpt lon="6.134934" lat="51.146496"><ele>36.8</ele><time>2022-05-22T08:02:05.000Z</time></trkpt><trkpt lon="6.134815" lat="51.146485"><ele>36.8</ele><time>2022-05-22T08:02:06.000Z</time></trkpt><trkpt lon="6.134697" lat="51.146473"><ele>36.6</ele><time>2022-05-22T08:02:07.000Z</time></trkpt><trkpt lon="6.134577" lat="51.146458"><ele>36.6</ele><time>2022-05-22T08:02:08.000Z</time></trkpt><trkpt lon="6.134462" lat="51.146435"><ele>36.8</ele><time>2022-05-22T08:02:09.000Z</time></trkpt><trkpt lon="6.134353" lat="51.14642"><ele>36.8</ele><time>2022-05-22T08:02:10.000Z</time></trkpt><trkpt lon="6.134239" lat="51.146408"><ele>36.8</ele><time>2022-05-22T08:02:11.000Z</time></trkpt><trkpt lon="6.134124" lat="51.146397"><ele>36.8</ele><time>2022-05-22T08:02:12.000Z</time></trkpt><trkpt lon="6.134012" lat="51.14639"><ele>36.8</ele><time>2022-05-22T08:02:13.000Z</time></trkpt><trkpt lon="6.133888" lat="51.146378"><ele>36.8</ele><time>2022-05-22T08:02:14.000Z</time></trkpt><trkpt lon="6.133768" lat="51.146366"><ele>36.8</ele><time>2022-05-22T08:02:15.000Z</time></trkpt><trkpt lon="6.133655" lat="51.146355"><ele>36.8</ele><time>2022-05-22T08:02:16.000Z</time></trkpt><trkpt lon="6.133528" lat="51.146343"><ele>36.8</ele><time>2022-05-22T08:02:17.000Z</time></trkpt><trkpt lon="6.133403" lat="51.146328"><ele>36.8</ele><time>2022-05-22T08:02:18.000Z</time></trkpt><trkpt lon="6.133294" lat="51.146313"><ele>36.8</ele><time>2022-05-22T08:02:19.000Z</time></trkpt><trkpt lon="6.133176" lat="51.146298"><ele>36.8</ele><time>2022-05-22T08:02:20.000Z</time></trkpt><trkpt lon="6.133054" lat="51.14629"><ele>36.8</ele><time>2022-05-22T08:02:21.000Z</time></trkpt><trkpt lon="6.132938" lat="51.146279"><ele>36.6</ele><time>2022-05-22T08:02:22.000Z</time></trkpt><trkpt lon="6.132822" lat="51.146267"><ele>36.6</ele><time>2022-05-22T08:02:23.000Z</time></trkpt><trkpt lon="6.132706" lat="51.146256"><ele>36.6</ele><time>2022-05-22T08:02:24.000Z</time></trkpt><trkpt lon="6.132594" lat="51.146245"><ele>36.6</ele><time>2022-05-22T08:02:25.000Z</time></trkpt><trkpt lon="6.132471" lat="51.146233"><ele>36.4</ele><time>2022-05-22T08:02:26.000Z</time></trkpt><trkpt lon="6.132355" lat="51.146221"><ele>36.6</ele><time>2022-05-22T08:02:27.000Z</time></trkpt><trkpt lon="6.132237" lat="51.146206"><ele>36.6</ele><time>2022-05-22T08:02:28.000Z</time></trkpt><trkpt lon="6.13212" lat="51.146191"><ele>36.4</ele><time>2022-05-22T08:02:29.000Z</time></trkpt><trkpt lon="6.132008" lat="51.146187"><ele>36.4</ele><time>2022-05-22T08:02:30.000Z</time></trkpt><trkpt lon="6.131892" lat="51.146172"><ele>36.4</ele><time>2022-05-22T08:02:31.000Z</time></trkpt><trkpt lon="6.131778" lat="51.146161"><ele>36.4</ele><time>2022-05-22T08:02:32.000Z</time></trkpt><trkpt lon="6.131658" lat="51.146145"><ele>36.4</ele><time>2022-05-22T08:02:33.000Z</time></trkpt><trkpt lon="6.131554" lat="51.146138"><ele>36.4</ele><time>2022-05-22T08:02:34.000Z</time></trkpt><trkpt lon="6.131434" lat="51.146126"><ele>36.4</ele><time>2022-05-22T08:02:35.000Z</time></trkpt><trkpt lon="6.131328" lat="51.146115"><ele>36.4</ele><time>2022-05-22T08:02:36.000Z</time></trkpt><trkpt lon="6.131215" lat="51.146096"><ele>36.4</ele><time>2022-05-22T08:02:37.000Z</time></trkpt><trkpt lon="6.131107" lat="51.146077"><ele>36.4</ele><time>2022-05-22T08:02:38.000Z</time></trkpt><trkpt lon="6.131002" lat="51.146062"><ele>36.4</ele><time>2022-05-22T08:02:39.000Z</time></trkpt><trkpt lon="6.130894" lat="51.146046"><ele>36.4</ele><time>2022-05-22T08:02:40.000Z</time></trkpt><trkpt lon="6.130787" lat="51.146027"><ele>36.4</ele><time>2022-05-22T08:02:41.000Z</time></trkpt><trkpt lon="6.130677" lat="51.146008"><ele>36.4</ele><time>2022-05-22T08:02:42.000Z</time></trkpt><trkpt lon="6.130568" lat="51.145993"><ele>36.4</ele><time>2022-05-22T08:02:43.000Z</time></trkpt><trkpt lon="6.130458" lat="51.145981"><ele>36.2</ele><time>2022-05-22T08:02:44.000Z</time></trkpt><trkpt lon="6.130357" lat="51.14597"><ele>36.2</ele><time>2022-05-22T08:02:45.000Z</time></trkpt><trkpt lon="6.130235" lat="51.145958"><ele>36.2</ele><time>2022-05-22T08:02:46.000Z</time></trkpt><trkpt lon="6.130119" lat="51.145943"><ele>36.2</ele><time>2022-05-22T08:02:47.000Z</time></trkpt><trkpt lon="6.130001" lat="51.145928"><ele>36.2</ele><time>2022-05-22T08:02:48.000Z</time></trkpt><trkpt lon="6.129886" lat="51.145909"><ele>36</ele><time>2022-05-22T08:02:49.000Z</time></trkpt><trkpt lon="6.129768" lat="51.145893"><ele>36</ele><time>2022-05-22T08:02:50.000Z</time></trkpt><trkpt lon="6.129648" lat="51.145882"><ele>36</ele><time>2022-05-22T08:02:51.000Z</time></trkpt><trkpt lon="6.129534" lat="51.145867"><ele>35.8</ele><time>2022-05-22T08:02:52.000Z</time></trkpt><trkpt lon="6.12941" lat="51.145855"><ele>35.8</ele><time>2022-05-22T08:02:53.000Z</time></trkpt><trkpt lon="6.129288" lat="51.145855"><ele>35.8</ele><time>2022-05-22T08:02:54.000Z</time></trkpt><trkpt lon="6.129158" lat="51.145844"><ele>35.8</ele><time>2022-05-22T08:02:55.000Z</time></trkpt><trkpt lon="6.129039" lat="51.145833"><ele>35.8</ele><time>2022-05-22T08:02:56.000Z</time></trkpt><trkpt lon="6.128919" lat="51.145821"><ele>35.8</ele><time>2022-05-22T08:02:57.000Z</time></trkpt><trkpt lon="6.128794" lat="51.145809"><ele>35.6</ele><time>2022-05-22T08:02:58.000Z</time></trkpt><trkpt lon="6.128674" lat="51.145802"><ele>35.6</ele><time>2022-05-22T08:02:59.000Z</time></trkpt><trkpt lon="6.128555" lat="51.145791"><ele>35.6</ele><time>2022-05-22T08:03:00.000Z</time></trkpt><trkpt lon="6.128426" lat="51.145783"><ele>35.6</ele><time>2022-05-22T08:03:01.000Z</time></trkpt><trkpt lon="6.128316" lat="51.145779"><ele>35.6</ele><time>2022-05-22T08:03:02.000Z</time></trkpt><trkpt lon="6.128219" lat="51.145772"><ele>35.4</ele><time>2022-05-22T08:03:03.000Z</time></trkpt><trkpt lon="6.128096" lat="51.145764"><ele>35.4</ele><time>2022-05-22T08:03:04.000Z</time></trkpt><trkpt lon="6.127988" lat="51.145752"><ele>35.4</ele><time>2022-05-22T08:03:05.000Z</time></trkpt><trkpt lon="6.127869" lat="51.145741"><ele>35.4</ele><time>2022-05-22T08:03:06.000Z</time></trkpt><trkpt lon="6.127752" lat="51.145729"><ele>35.4</ele><time>2022-05-22T08:03:07.000Z</time></trkpt><trkpt lon="6.127644" lat="51.145722"><ele>35.4</ele><time>2022-05-22T08:03:08.000Z</time></trkpt><trkpt lon="6.127514" lat="51.14571"><ele>35.4</ele><time>2022-05-22T08:03:09.000Z</time></trkpt><trkpt lon="6.127405" lat="51.145692"><ele>35.4</ele><time>2022-05-22T08:03:10.000Z</time></trkpt><trkpt lon="6.127293" lat="51.145669"><ele>35.2</ele><time>2022-05-22T08:03:11.000Z</time></trkpt><trkpt lon="6.127188" lat="51.145646"><ele>35.2</ele><time>2022-05-22T08:03:12.000Z</time></trkpt><trkpt lon="6.127069" lat="51.145623"><ele>35.2</ele><time>2022-05-22T08:03:13.000Z</time></trkpt><trkpt lon="6.12696" lat="51.1456"><ele>35.2</ele><time>2022-05-22T08:03:14.000Z</time></trkpt><trkpt lon="6.12686" lat="51.145578"><ele>35.2</ele><time>2022-05-22T08:03:15.000Z</time></trkpt><trkpt lon="6.126751" lat="51.145555"><ele>35.2</ele><time>2022-05-22T08:03:16.000Z</time></trkpt><trkpt lon="6.126645" lat="51.145528"><ele>35.2</ele><time>2022-05-22T08:03:17.000Z</time></trkpt><trkpt lon="6.12654" lat="51.145505"><ele>35.2</ele><time>2022-05-22T08:03:18.000Z</time></trkpt><trkpt lon="6.126431" lat="51.145485"><ele>35.2</ele><time>2022-05-22T08:03:19.000Z</time></trkpt><trkpt lon="6.12633" lat="51.145463"><ele>35.2</ele><time>2022-05-22T08:03:20.000Z</time></trkpt><trkpt lon="6.126229" lat="51.145447"><ele>35.2</ele><time>2022-05-22T08:03:21.000Z</time></trkpt><trkpt lon="6.126134" lat="51.145428"><ele>35.2</ele><time>2022-05-22T08:03:22.000Z</time></trkpt><trkpt lon="6.126035" lat="51.145409"><ele>35.2</ele><time>2022-05-22T08:03:23.000Z</time></trkpt><trkpt lon="6.125932" lat="51.145387"><ele>35</ele><time>2022-05-22T08:03:24.000Z</time></trkpt><trkpt lon="6.125823" lat="51.145364"><ele>35</ele><time>2022-05-22T08:03:25.000Z</time></trkpt><trkpt lon="6.125699" lat="51.145341"><ele>34.8</ele><time>2022-05-22T08:03:26.000Z</time></trkpt><trkpt lon="6.125573" lat="51.145321"><ele>34.8</ele><time>2022-05-22T08:03:27.000Z</time></trkpt><trkpt lon="6.12546" lat="51.145295"><ele>34.8</ele><time>2022-05-22T08:03:28.000Z</time></trkpt><trkpt lon="6.125341" lat="51.145273"><ele>34.8</ele><time>2022-05-22T08:03:29.000Z</time></trkpt><trkpt lon="6.125215" lat="51.145249"><ele>34.8</ele><time>2022-05-22T08:03:30.000Z</time></trkpt><trkpt lon="6.12509" lat="51.14523"><ele>34.8</ele><time>2022-05-22T08:03:31.000Z</time></trkpt><trkpt lon="6.124976" lat="51.145207"><ele>34.8</ele><time>2022-05-22T08:03:32.000Z</time></trkpt><trkpt lon="6.124869" lat="51.145186"><ele>34.8</ele><time>2022-05-22T08:03:33.000Z</time></trkpt><trkpt lon="6.12476" lat="51.145158"><ele>34.6</ele><time>2022-05-22T08:03:34.000Z</time></trkpt><trkpt lon="6.124661" lat="51.145124"><ele>34.6</ele><time>2022-05-22T08:03:35.000Z</time></trkpt><trkpt lon="6.12455" lat="51.145078"><ele>34.6</ele><time>2022-05-22T08:03:36.000Z</time></trkpt><trkpt lon="6.124461" lat="51.145033"><ele>34.4</ele><time>2022-05-22T08:03:37.000Z</time></trkpt><trkpt lon="6.124362" lat="51.144986"><ele>34.2</ele><time>2022-05-22T08:03:38.000Z</time></trkpt><trkpt lon="6.124263" lat="51.144941"><ele>34</ele><time>2022-05-22T08:03:39.000Z</time></trkpt><trkpt lon="6.124171" lat="51.144891"><ele>34</ele><time>2022-05-22T08:03:40.000Z</time></trkpt><trkpt lon="6.124084" lat="51.144838"><ele>34</ele><time>2022-05-22T08:03:41.000Z</time></trkpt><trkpt lon="6.123993" lat="51.144784"><ele>34</ele><time>2022-05-22T08:03:42.000Z</time></trkpt><trkpt lon="6.123903" lat="51.144731"><ele>34</ele><time>2022-05-22T08:03:43.000Z</time></trkpt><trkpt lon="6.123797" lat="51.144675"><ele>34</ele><time>2022-05-22T08:03:44.000Z</time></trkpt><trkpt lon="6.123692" lat="51.144617"><ele>34</ele><time>2022-05-22T08:03:45.000Z</time></trkpt><trkpt lon="6.123583" lat="51.144559"><ele>34</ele><time>2022-05-22T08:03:46.000Z</time></trkpt><trkpt lon="6.123471" lat="51.144498"><ele>34</ele><time>2022-05-22T08:03:47.000Z</time></trkpt><trkpt lon="6.123358" lat="51.144434"><ele>33.8</ele><time>2022-05-22T08:03:48.000Z</time></trkpt><trkpt lon="6.123264" lat="51.14438"><ele>33.8</ele><time>2022-05-22T08:03:49.000Z</time></trkpt><trkpt lon="6.123174" lat="51.144323"><ele>33.8</ele><time>2022-05-22T08:03:50.000Z</time></trkpt><trkpt lon="6.123067" lat="51.144265"><ele>34</ele><time>2022-05-22T08:03:51.000Z</time></trkpt><trkpt lon="6.122979" lat="51.144212"><ele>33.8</ele><time>2022-05-22T08:03:52.000Z</time></trkpt><trkpt lon="6.122887" lat="51.144162"><ele>33.8</ele><time>2022-05-22T08:03:53.000Z</time></trkpt><trkpt lon="6.122808" lat="51.144118"><ele>33.8</ele><time>2022-05-22T08:03:54.000Z</time></trkpt><trkpt lon="6.122721" lat="51.144064"><ele>33.8</ele><time>2022-05-22T08:03:55.000Z</time></trkpt><trkpt lon="6.12264" lat="51.144011"><ele>33.8</ele><time>2022-05-22T08:03:56.000Z</time></trkpt><trkpt lon="6.122558" lat="51.143957"><ele>33.6</ele><time>2022-05-22T08:03:57.000Z</time></trkpt><trkpt lon="6.12247" lat="51.143896"><ele>33.6</ele><time>2022-05-22T08:03:58.000Z</time></trkpt><trkpt lon="6.122379" lat="51.143838"><ele>33.6</ele><time>2022-05-22T08:03:59.000Z</time></trkpt><trkpt lon="6.122292" lat="51.143788"><ele>33.6</ele><time>2022-05-22T08:04:00.000Z</time></trkpt><trkpt lon="6.122195" lat="51.143728"><ele>33.6</ele><time>2022-05-22T08:04:01.000Z</time></trkpt><trkpt lon="6.122107" lat="51.14367"><ele>33.6</ele><time>2022-05-22T08:04:02.000Z</time></trkpt><trkpt lon="6.122022" lat="51.143614"><ele>33.6</ele><time>2022-05-22T08:04:03.000Z</time></trkpt><trkpt lon="6.121943" lat="51.14356"><ele>33.4</ele><time>2022-05-22T08:04:04.000Z</time></trkpt><trkpt lon="6.121862" lat="51.143507"><ele>33.4</ele><time>2022-05-22T08:04:05.000Z</time></trkpt><trkpt lon="6.121788" lat="51.143461"><ele>33.4</ele><time>2022-05-22T08:04:06.000Z</time></trkpt><trkpt lon="6.121709" lat="51.143415"><ele>33.4</ele><time>2022-05-22T08:04:07.000Z</time></trkpt><trkpt lon="6.121637" lat="51.143365"><ele>33.2</ele><time>2022-05-22T08:04:08.000Z</time></trkpt><trkpt lon="6.121566" lat="51.143316"><ele>33.2</ele><time>2022-05-22T08:04:09.000Z</time></trkpt><trkpt lon="6.121491" lat="51.143266"><ele>33.2</ele><time>2022-05-22T08:04:10.000Z</time></trkpt><trkpt lon="6.121424" lat="51.14322"><ele>33.2</ele><time>2022-05-22T08:04:11.000Z</time></trkpt><trkpt lon="6.121348" lat="51.143168"><ele>33.2</ele><time>2022-05-22T08:04:12.000Z</time></trkpt><trkpt lon="6.121267" lat="51.143117"><ele>33.2</ele><time>2022-05-22T08:04:13.000Z</time></trkpt><trkpt lon="6.121188" lat="51.143067"><ele>33.2</ele><time>2022-05-22T08:04:14.000Z</time></trkpt><trkpt lon="6.121109" lat="51.143022"><ele>33.2</ele><time>2022-05-22T08:04:15.000Z</time></trkpt><trkpt lon="6.121026" lat="51.142977"><ele>33.2</ele><time>2022-05-22T08:04:16.000Z</time></trkpt><trkpt lon="6.120936" lat="51.142919"><ele>33.2</ele><time>2022-05-22T08:04:17.000Z</time></trkpt><trkpt lon="6.120853" lat="51.142873"><ele>33.2</ele><time>2022-05-22T08:04:18.000Z</time></trkpt><trkpt lon="6.120773" lat="51.142821"><ele>33.2</ele><time>2022-05-22T08:04:19.000Z</time></trkpt><trkpt lon="6.120687" lat="51.142771"><ele>33</ele><time>2022-05-22T08:04:20.000Z</time></trkpt><trkpt lon="6.120604" lat="51.142729"><ele>33</ele><time>2022-05-22T08:04:21.000Z</time></trkpt><trkpt lon="6.120513" lat="51.142682"><ele>32.8</ele><time>2022-05-22T08:04:22.000Z</time></trkpt><trkpt lon="6.120428" lat="51.142633"><ele>32.8</ele><time>2022-05-22T08:04:23.000Z</time></trkpt><trkpt lon="6.120336" lat="51.142591"><ele>32.6</ele><time>2022-05-22T08:04:24.000Z</time></trkpt><trkpt lon="6.120248" lat="51.142541"><ele>32.6</ele><time>2022-05-22T08:04:25.000Z</time></trkpt><trkpt lon="6.120153" lat="51.142503"><ele>32.6</ele><time>2022-05-22T08:04:26.000Z</time></trkpt><trkpt lon="6.12006" lat="51.142461"><ele>32.6</ele><time>2022-05-22T08:04:27.000Z</time></trkpt><trkpt lon="6.119969" lat="51.142423"><ele>32.6</ele><time>2022-05-22T08:04:28.000Z</time></trkpt><trkpt lon="6.119862" lat="51.142381"><ele>32.6</ele><time>2022-05-22T08:04:29.000Z</time></trkpt><trkpt lon="6.119755" lat="51.14234"><ele>32.6</ele><time>2022-05-22T08:04:30.000Z</time></trkpt><trkpt lon="6.119653" lat="51.142293"><ele>32.6</ele><time>2022-05-22T08:04:31.000Z</time></trkpt><trkpt lon="6.119541" lat="51.142252"><ele>32.6</ele><time>2022-05-22T08:04:32.000Z</time></trkpt><trkpt lon="6.119441" lat="51.14222"><ele>32.6</ele><time>2022-05-22T08:04:33.000Z</time></trkpt><trkpt lon="6.119353" lat="51.14219"><ele>32.4</ele><time>2022-05-22T08:04:34.000Z</time></trkpt><trkpt lon="6.119269" lat="51.142156"><ele>32.4</ele><time>2022-05-22T08:04:35.000Z</time></trkpt><trkpt lon="6.119185" lat="51.142125"><ele>32.4</ele><time>2022-05-22T08:04:36.000Z</time></trkpt><trkpt lon="6.119112" lat="51.142098"><ele>32.4</ele><time>2022-05-22T08:04:37.000Z</time></trkpt><trkpt lon="6.119039" lat="51.142071"><ele>32.4</ele><time>2022-05-22T08:04:38.000Z</time></trkpt><trkpt lon="6.118931" lat="51.142042"><ele>32.4</ele><time>2022-05-22T08:04:39.000Z</time></trkpt><trkpt lon="6.118846" lat="51.142014"><ele>32.4</ele><time>2022-05-22T08:04:40.000Z</time></trkpt><trkpt lon="6.118766" lat="51.14198"><ele>32.4</ele><time>2022-05-22T08:04:41.000Z</time></trkpt><trkpt lon="6.118656" lat="51.141939"><ele>32.4</ele><time>2022-05-22T08:04:42.000Z</time></trkpt><trkpt lon="6.118547" lat="51.141897"><ele>32.4</ele><time>2022-05-22T08:04:43.000Z</time></trkpt><trkpt lon="6.118485" lat="51.141863"><ele>32.4</ele><time>2022-05-22T08:04:44.000Z</time></trkpt><trkpt lon="6.118401" lat="51.141816"><ele>32.4</ele><time>2022-05-22T08:04:45.000Z</time></trkpt><trkpt lon="6.11834" lat="51.141775"><ele>32.2</ele><time>2022-05-22T08:04:46.000Z</time></trkpt><trkpt lon="6.118292" lat="51.141733"><ele>32.2</ele><time>2022-05-22T08:04:47.000Z</time></trkpt><trkpt lon="6.118235" lat="51.141683"><ele>32.2</ele><time>2022-05-22T08:04:48.000Z</time></trkpt><trkpt lon="6.1182" lat="51.141642"><ele>32.2</ele><time>2022-05-22T08:04:49.000Z</time></trkpt><trkpt lon="6.11814" lat="51.141595"><ele>32.2</ele><time>2022-05-22T08:04:50.000Z</time></trkpt><trkpt lon="6.118092" lat="51.141557"><ele>32.2</ele><time>2022-05-22T08:04:51.000Z</time></trkpt><trkpt lon="6.118037" lat="51.141512"><ele>32.2</ele><time>2022-05-22T08:04:52.000Z</time></trkpt><trkpt lon="6.11798" lat="51.141473"><ele>32.2</ele><time>2022-05-22T08:04:53.000Z</time></trkpt><trkpt lon="6.117949" lat="51.141435"><ele>32.2</ele><time>2022-05-22T08:04:54.000Z</time></trkpt><trkpt lon="6.117905" lat="51.1414"><ele>32.2</ele><time>2022-05-22T08:04:55.000Z</time></trkpt><trkpt lon="6.117868" lat="51.141374"><ele>32.2</ele><time>2022-05-22T08:04:56.000Z</time></trkpt><trkpt lon="6.11783" lat="51.141336"><ele>32.2</ele><time>2022-05-22T08:04:57.000Z</time></trkpt><trkpt lon="6.117798" lat="51.141305"><ele>32.2</ele><time>2022-05-22T08:04:58.000Z</time></trkpt><trkpt lon="6.117763" lat="51.141282"><ele>32.2</ele><time>2022-05-22T08:04:59.000Z</time></trkpt><trkpt lon="6.117734" lat="51.141266"><ele>32.2</ele><time>2022-05-22T08:05:00.000Z</time></trkpt><trkpt lon="6.117712" lat="51.141255"><ele>32.2</ele><time>2022-05-22T08:05:01.000Z</time></trkpt><trkpt lon="6.117691" lat="51.141243"><ele>32.2</ele><time>2022-05-22T08:05:02.000Z</time></trkpt><trkpt lon="6.117671" lat="51.141228"><ele>32.2</ele><time>2022-05-22T08:05:03.000Z</time></trkpt><trkpt lon="6.117649" lat="51.141206"><ele>32.2</ele><time>2022-05-22T08:05:04.000Z</time></trkpt><trkpt lon="6.117631" lat="51.14118"><ele>32.2</ele><time>2022-05-22T08:05:05.000Z</time></trkpt><trkpt lon="6.117616" lat="51.141152"><ele>32</ele><time>2022-05-22T08:05:06.000Z</time></trkpt><trkpt lon="6.117606" lat="51.141122"><ele>32</ele><time>2022-05-22T08:05:07.000Z</time></trkpt><trkpt lon="6.117592" lat="51.141088"><ele>32</ele><time>2022-05-22T08:05:08.000Z</time></trkpt><trkpt lon="6.117576" lat="51.141061"><ele>31.8</ele><time>2022-05-22T08:05:09.000Z</time></trkpt><trkpt lon="6.117556" lat="51.141038"><ele>31.8</ele><time>2022-05-22T08:05:10.000Z</time></trkpt><trkpt lon="6.117528" lat="51.141022"><ele>31.8</ele><time>2022-05-22T08:05:11.000Z</time></trkpt><trkpt lon="6.117501" lat="51.141007"><ele>31.8</ele><time>2022-05-22T08:05:12.000Z</time></trkpt><trkpt lon="6.117471" lat="51.140995"><ele>31.8</ele><time>2022-05-22T08:05:13.000Z</time></trkpt><trkpt lon="6.117444" lat="51.140988"><ele>31.8</ele><time>2022-05-22T08:05:14.000Z</time></trkpt><trkpt lon="6.117416" lat="51.14098"><ele>31.8</ele><time>2022-05-22T08:05:15.000Z</time></trkpt><trkpt lon="6.117389" lat="51.140976"><ele>31.8</ele><time>2022-05-22T08:05:16.000Z</time></trkpt><trkpt lon="6.117354" lat="51.140968"><ele>31.8</ele><time>2022-05-22T08:05:17.000Z</time></trkpt><trkpt lon="6.117343" lat="51.140967"><ele>31.8</ele><time>2022-05-22T08:05:18.000Z</time></trkpt><trkpt lon="6.117332" lat="51.140966"><ele>31.8</ele><time>2022-05-22T08:05:19.000Z</time></trkpt><trkpt lon="6.117322" lat="51.140965"><ele>31.8</ele><time>2022-05-22T08:05:20.000Z</time></trkpt><trkpt lon="6.117311" lat="51.140965"><ele>31.8</ele><time>2022-05-22T08:05:21.000Z</time></trkpt><trkpt lon="6.1173" lat="51.140964"><ele>31.8</ele><time>2022-05-22T08:05:22.000Z</time></trkpt><trkpt lon="6.117289" lat="51.140963"><ele>32</ele><time>2022-05-22T08:05:23.000Z</time></trkpt><trkpt lon="6.117279" lat="51.140962"><ele>32</ele><time>2022-05-22T08:05:24.000Z</time></trkpt><trkpt lon="6.117268" lat="51.140961"><ele>32</ele><time>2022-05-22T08:05:25.000Z</time></trkpt><trkpt lon="6.117257" lat="51.14096"><ele>32</ele><time>2022-05-22T08:05:26.000Z</time></trkpt><trkpt lon="6.117246" lat="51.14096"><ele>32</ele><time>2022-05-22T08:05:27.000Z</time></trkpt><trkpt lon="6.117236" lat="51.140959"><ele>32</ele><time>2022-05-22T08:05:28.000Z</time></trkpt><trkpt lon="6.117225" lat="51.140958"><ele>32</ele><time>2022-05-22T08:05:29.000Z</time></trkpt><trkpt lon="6.117214" lat="51.140957"><ele>32</ele><time>2022-05-22T08:05:30.000Z</time></trkpt><trkpt lon="6.117203" lat="51.140956"><ele>32</ele><time>2022-05-22T08:45:47.000Z</time></trkpt><trkpt lon="6.117193" lat="51.140955"><ele>32</ele><time>2022-05-22T08:45:48.000Z</time></trkpt><trkpt lon="6.117182" lat="51.140955"><ele>31.8</ele><time>2022-05-22T08:45:49.000Z</time></trkpt><trkpt lon="6.117168" lat="51.140944"><ele>31.8</ele><time>2022-05-22T08:45:50.000Z</time></trkpt><trkpt lon="6.117163" lat="51.140943"><ele>31.8</ele><time>2022-05-22T08:45:51.000Z</time></trkpt><trkpt lon="6.117157" lat="51.140941"><ele>31.8</ele><time>2022-05-22T08:45:52.000Z</time></trkpt><trkpt lon="6.117151" lat="51.140939"><ele>31.8</ele><time>2022-05-22T08:45:53.000Z</time></trkpt><trkpt lon="6.117145" lat="51.140938"><ele>31.8</ele><time>2022-05-22T08:45:54.000Z</time></trkpt><trkpt lon="6.11714" lat="51.140936"><ele>31.8</ele><time>2022-05-22T08:45:55.000Z</time></trkpt><trkpt lon="6.117134" lat="51.140934"><ele>31.8</ele><time>2022-05-22T08:45:56.000Z</time></trkpt><trkpt lon="6.117128" lat="51.140932"><ele>31.8</ele><time>2022-05-22T08:45:57.000Z</time></trkpt><trkpt lon="6.117123" lat="51.140931"><ele>31.8</ele><time>2022-05-22T08:45:58.000Z</time></trkpt><trkpt lon="6.117117" lat="51.140929"><ele>31.8</ele><time>2022-05-22T08:45:59.000Z</time></trkpt><trkpt lon="6.117111" lat="51.140927"><ele>31.8</ele><time>2022-05-22T08:46:00.000Z</time></trkpt><trkpt lon="6.117106" lat="51.140926"><ele>31.8</ele><time>2022-05-22T08:46:01.000Z</time></trkpt><trkpt lon="6.1171" lat="51.140924"><ele>31.8</ele><time>2022-05-22T08:46:02.000Z</time></trkpt><trkpt lon="6.117094" lat="51.140922"><ele>31.6</ele><time>2022-05-22T08:46:03.000Z</time></trkpt><trkpt lon="6.117089" lat="51.14092"><ele>31.6</ele><time>2022-05-22T08:46:04.000Z</time></trkpt><trkpt lon="6.117083" lat="51.140919"><ele>31.6</ele><time>2022-05-22T08:46:05.000Z</time></trkpt><trkpt lon="6.117077" lat="51.140917"><ele>31.6</ele><time>2022-05-22T08:46:20.000Z</time></trkpt><trkpt lon="6.117072" lat="51.140915"><ele>31.6</ele><time>2022-05-22T08:46:21.000Z</time></trkpt><trkpt lon="6.117066" lat="51.140914"><ele>31.6</ele><time>2022-05-22T08:46:22.000Z</time></trkpt><trkpt lon="6.11706" lat="51.140912"><ele>31.6</ele><time>2022-05-22T08:46:23.000Z</time></trkpt><trkpt lon="6.117054" lat="51.14091"><ele>31.6</ele><time>2022-05-22T08:46:24.000Z</time></trkpt><trkpt lon="6.117049" lat="51.140909"><ele>31.6</ele><time>2022-05-22T08:46:25.000Z</time></trkpt><trkpt lon="6.117043" lat="51.140907"><ele>31.6</ele><time>2022-05-22T08:46:26.000Z</time></trkpt><trkpt lon="6.117037" lat="51.140905"><ele>31.6</ele><time>2022-05-22T08:46:27.000Z</time></trkpt><trkpt lon="6.117032" lat="51.140903"><ele>31.6</ele><time>2022-05-22T08:46:28.000Z</time></trkpt><trkpt lon="6.117026" lat="51.140902"><ele>31.6</ele><time>2022-05-22T08:46:29.000Z</time></trkpt><trkpt lon="6.11702" lat="51.1409"><ele>31.6</ele><time>2022-05-22T08:46:30.000Z</time></trkpt><trkpt lon="6.117015" lat="51.140898"><ele>31.6</ele><time>2022-05-22T08:46:31.000Z</time></trkpt><trkpt lon="6.116995" lat="51.140893"><ele>31.6</ele><time>2022-05-22T08:46:32.000Z</time></trkpt><trkpt lon="6.116982" lat="51.140892"><ele>31.6</ele><time>2022-05-22T08:46:33.000Z</time></trkpt><trkpt lon="6.116975" lat="51.140892"><ele>31.6</ele><time>2022-05-22T08:46:34.000Z</time></trkpt><trkpt lon="6.11697" lat="51.140892"><ele>31.6</ele><time>2022-05-22T08:46:35.000Z</time></trkpt><trkpt lon="6.11697" lat="51.140892"><ele>31.6</ele><time>2022-05-22T08:46:36.000Z</time></trkpt><trkpt lon="6.11697" lat="51.140892"><ele>31.6</ele><time>2022-05-22T08:46:37.000Z</time></trkpt><trkpt lon="6.11697" lat="51.140892"><ele>31.6</ele><time>2022-05-22T08:46:38.000Z</time></trkpt><trkpt lon="6.11697" lat="51.140892"><ele>31.6</ele><time>2022-05-22T08:46:39.000Z</time></trkpt><trkpt lon="6.11697" lat="51.140892"><ele>31.6</ele><time>2022-05-22T08:46:40.000Z</time></trkpt><trkpt lon="6.116909" lat="51.140881"><ele>31.6</ele><time>2022-05-22T08:47:10.000Z</time></trkpt><trkpt lon="6.116876" lat="51.140881"><ele>31.6</ele><time>2022-05-22T08:47:11.000Z</time></trkpt><trkpt lon="6.116844" lat="51.140881"><ele>31.6</ele><time>2022-05-22T08:47:12.000Z</time></trkpt><trkpt lon="6.116808" lat="51.140884"><ele>31.6</ele><time>2022-05-22T08:47:13.000Z</time></trkpt><trkpt lon="6.116761" lat="51.140881"><ele>31.6</ele><time>2022-05-22T08:47:14.000Z</time></trkpt><trkpt lon="6.116713" lat="51.140877"><ele>31.6</ele><time>2022-05-22T08:47:15.000Z</time></trkpt><trkpt lon="6.11666" lat="51.140869"><ele>31.6</ele><time>2022-05-22T08:47:16.000Z</time></trkpt><trkpt lon="6.116595" lat="51.140864"><ele>31.6</ele><time>2022-05-22T08:47:17.000Z</time></trkpt><trkpt lon="6.11653" lat="51.140858"><ele>31.6</ele><time>2022-05-22T08:47:18.000Z</time></trkpt><trkpt lon="6.116454" lat="51.140854"><ele>31.6</ele><time>2022-05-22T08:47:19.000Z</time></trkpt><trkpt lon="6.116376" lat="51.14085"><ele>31.6</ele><time>2022-05-22T08:47:20.000Z</time></trkpt><trkpt lon="6.116294" lat="51.140845"><ele>31.4</ele><time>2022-05-22T08:47:21.000Z</time></trkpt><trkpt lon="6.116213" lat="51.140839"><ele>31.4</ele><time>2022-05-22T08:47:22.000Z</time></trkpt><trkpt lon="6.116131" lat="51.140831"><ele>31.4</ele><time>2022-05-22T08:47:23.000Z</time></trkpt><trkpt lon="6.116049" lat="51.140816"><ele>31.4</ele><time>2022-05-22T08:47:24.000Z</time></trkpt><trkpt lon="6.115967" lat="51.140805"><ele>31.4</ele><time>2022-05-22T08:47:25.000Z</time></trkpt><trkpt lon="6.115887" lat="51.140793"><ele>31.4</ele><time>2022-05-22T08:47:26.000Z</time></trkpt><trkpt lon="6.115804" lat="51.140785"><ele>31.4</ele><time>2022-05-22T08:47:27.000Z</time></trkpt><trkpt lon="6.115726" lat="51.14077"><ele>31.4</ele><time>2022-05-22T08:47:28.000Z</time></trkpt><trkpt lon="6.115647" lat="51.140763"><ele>31.4</ele><time>2022-05-22T08:47:29.000Z</time></trkpt><trkpt lon="6.115575" lat="51.140755"><ele>31.4</ele><time>2022-05-22T08:47:30.000Z</time></trkpt><trkpt lon="6.115493" lat="51.14074"><ele>31.4</ele><time>2022-05-22T08:47:31.000Z</time></trkpt><trkpt lon="6.115409" lat="51.140725"><ele>31.4</ele><time>2022-05-22T08:47:32.000Z</time></trkpt><trkpt lon="6.115313" lat="51.140706"><ele>31.4</ele><time>2022-05-22T08:47:33.000Z</time></trkpt><trkpt lon="6.115206" lat="51.140683"><ele>31.4</ele><time>2022-05-22T08:47:34.000Z</time></trkpt><trkpt lon="6.115101" lat="51.14066"><ele>31.4</ele><time>2022-05-22T08:47:35.000Z</time></trkpt><trkpt lon="6.115004" lat="51.140645"><ele>31.2</ele><time>2022-05-22T08:47:36.000Z</time></trkpt><trkpt lon="6.114912" lat="51.14063"><ele>31.2</ele><time>2022-05-22T08:47:37.000Z</time></trkpt><trkpt lon="6.114823" lat="51.140614"><ele>31.2</ele><time>2022-05-22T08:47:38.000Z</time></trkpt><trkpt lon="6.114726" lat="51.140602"><ele>31.2</ele><time>2022-05-22T08:47:39.000Z</time></trkpt><trkpt lon="6.114633" lat="51.140591"><ele>31.2</ele><time>2022-05-22T08:47:40.000Z</time></trkpt><trkpt lon="6.114524" lat="51.14058"><ele>31.2</ele><time>2022-05-22T08:47:41.000Z</time></trkpt><trkpt lon="6.114423" lat="51.140572"><ele>31</ele><time>2022-05-22T08:47:42.000Z</time></trkpt><trkpt lon="6.114326" lat="51.140561"><ele>31</ele><time>2022-05-22T08:47:43.000Z</time></trkpt><trkpt lon="6.114231" lat="51.140549"><ele>30.8</ele><time>2022-05-22T08:47:44.000Z</time></trkpt><trkpt lon="6.114143" lat="51.140541"><ele>30.8</ele><time>2022-05-22T08:47:45.000Z</time></trkpt><trkpt lon="6.114053" lat="51.14053"><ele>30.8</ele><time>2022-05-22T08:47:46.000Z</time></trkpt><trkpt lon="6.113965" lat="51.140515"><ele>30.8</ele><time>2022-05-22T08:47:47.000Z</time></trkpt><trkpt lon="6.113867" lat="51.140503"><ele>30.8</ele><time>2022-05-22T08:47:48.000Z</time></trkpt><trkpt lon="6.11377" lat="51.140492"><ele>30.8</ele><time>2022-05-22T08:47:49.000Z</time></trkpt><trkpt lon="6.113671" lat="51.140481"><ele>30.8</ele><time>2022-05-22T08:47:50.000Z</time></trkpt><trkpt lon="6.113568" lat="51.140465"><ele>30.8</ele><time>2022-05-22T08:47:51.000Z</time></trkpt><trkpt lon="6.113478" lat="51.140454"><ele>30.8</ele><time>2022-05-22T08:47:52.000Z</time></trkpt><trkpt lon="6.113384" lat="51.14045"><ele>30.6</ele><time>2022-05-22T08:47:53.000Z</time></trkpt><trkpt lon="6.113296" lat="51.140438"><ele>30.6</ele><time>2022-05-22T08:47:54.000Z</time></trkpt><trkpt lon="6.113216" lat="51.140423"><ele>30.6</ele><time>2022-05-22T08:47:55.000Z</time></trkpt><trkpt lon="6.11311" lat="51.140401"><ele>30.6</ele><time>2022-05-22T08:47:56.000Z</time></trkpt><trkpt lon="6.113019" lat="51.140385"><ele>30.6</ele><time>2022-05-22T08:47:57.000Z</time></trkpt><trkpt lon="6.112926" lat="51.140374"><ele>30.6</ele><time>2022-05-22T08:47:58.000Z</time></trkpt><trkpt lon="6.112834" lat="51.140362"><ele>30.4</ele><time>2022-05-22T08:47:59.000Z</time></trkpt><trkpt lon="6.112744" lat="51.140336"><ele>30.4</ele><time>2022-05-22T08:48:00.000Z</time></trkpt><trkpt lon="6.112655" lat="51.140317"><ele>30.4</ele><time>2022-05-22T08:48:01.000Z</time></trkpt><trkpt lon="6.112551" lat="51.140301"><ele>30.4</ele><time>2022-05-22T08:48:02.000Z</time></trkpt><trkpt lon="6.112441" lat="51.140278"><ele>30.4</ele><time>2022-05-22T08:48:03.000Z</time></trkpt><trkpt lon="6.112341" lat="51.140256"><ele>30.4</ele><time>2022-05-22T08:48:04.000Z</time></trkpt><trkpt lon="6.112235" lat="51.140229"><ele>30.4</ele><time>2022-05-22T08:48:05.000Z</time></trkpt><trkpt lon="6.112134" lat="51.140206"><ele>30.4</ele><time>2022-05-22T08:48:06.000Z</time></trkpt><trkpt lon="6.112036" lat="51.140183"><ele>30.4</ele><time>2022-05-22T08:48:07.000Z</time></trkpt><trkpt lon="6.111937" lat="51.140157"><ele>30.4</ele><time>2022-05-22T08:48:08.000Z</time></trkpt><trkpt lon="6.111831" lat="51.140134"><ele>30.4</ele><time>2022-05-22T08:48:09.000Z</time></trkpt><trkpt lon="6.111723" lat="51.140107"><ele>30.4</ele><time>2022-05-22T08:48:10.000Z</time></trkpt><trkpt lon="6.111596" lat="51.140076"><ele>30.4</ele><time>2022-05-22T08:48:11.000Z</time></trkpt><trkpt lon="6.111486" lat="51.140061"><ele>30.2</ele><time>2022-05-22T08:48:12.000Z</time></trkpt><trkpt lon="6.111379" lat="51.140049"><ele>30.2</ele><time>2022-05-22T08:48:13.000Z</time></trkpt><trkpt lon="6.111267" lat="51.140031"><ele>30.2</ele><time>2022-05-22T08:48:14.000Z</time></trkpt><trkpt lon="6.111156" lat="51.140012"><ele>30.2</ele><time>2022-05-22T08:48:15.000Z</time></trkpt><trkpt lon="6.111037" lat="51.139982"><ele>30</ele><time>2022-05-22T08:48:16.000Z</time></trkpt><trkpt lon="6.110919" lat="51.139948"><ele>29.8</ele><time>2022-05-22T08:48:17.000Z</time></trkpt><trkpt lon="6.110792" lat="51.139924"><ele>29.8</ele><time>2022-05-22T08:48:18.000Z</time></trkpt><trkpt lon="6.110667" lat="51.139901"><ele>29.6</ele><time>2022-05-22T08:48:19.000Z</time></trkpt><trkpt lon="6.110552" lat="51.139875"><ele>29.6</ele><time>2022-05-22T08:48:20.000Z</time></trkpt><trkpt lon="6.110302" lat="51.139774"><ele>29.6</ele><time>2022-05-22T08:48:21.000Z</time></trkpt><trkpt lon="6.110053" lat="51.139674"><ele>29.6</ele><time>2022-05-22T08:48:22.000Z</time></trkpt><trkpt lon="6.109848" lat="51.139589"><ele>29.6</ele><time>2022-05-22T08:48:23.000Z</time></trkpt><trkpt lon="6.109788" lat="51.139568"><ele>29.6</ele><time>2022-05-22T08:48:24.000Z</time></trkpt><trkpt lon="6.109681" lat="51.139565"><ele>29.6</ele><time>2022-05-22T08:48:25.000Z</time></trkpt><trkpt lon="6.109571" lat="51.139542"><ele>29.6</ele><time>2022-05-22T08:48:26.000Z</time></trkpt><trkpt lon="6.109471" lat="51.13953"><ele>29.6</ele><time>2022-05-22T08:48:27.000Z</time></trkpt><trkpt lon="6.109362" lat="51.139515"><ele>29.6</ele><time>2022-05-22T08:48:28.000Z</time></trkpt><trkpt lon="6.10927" lat="51.139504"><ele>29.6</ele><time>2022-05-22T08:48:29.000Z</time></trkpt><trkpt lon="6.109182" lat="51.139485"><ele>29.6</ele><time>2022-05-22T08:48:30.000Z</time></trkpt><trkpt lon="6.109095" lat="51.139458"><ele>29.6</ele><time>2022-05-22T08:48:31.000Z</time></trkpt><trkpt lon="6.109004" lat="51.139436"><ele>29.4</ele><time>2022-05-22T08:48:32.000Z</time></trkpt><trkpt lon="6.108906" lat="51.139427"><ele>29.4</ele><time>2022-05-22T08:48:33.000Z</time></trkpt><trkpt lon="6.108812" lat="51.139423"><ele>29.4</ele><time>2022-05-22T08:48:34.000Z</time></trkpt><trkpt lon="6.108714" lat="51.13942"><ele>29.4</ele><time>2022-05-22T08:48:35.000Z</time></trkpt><trkpt lon="6.108614" lat="51.139412"><ele>29.4</ele><time>2022-05-22T08:48:36.000Z</time></trkpt><trkpt lon="6.108522" lat="51.139408"><ele>29.4</ele><time>2022-05-22T08:48:37.000Z</time></trkpt><trkpt lon="6.108424" lat="51.139408"><ele>29.2</ele><time>2022-05-22T08:48:38.000Z</time></trkpt><trkpt lon="6.10833" lat="51.139404"><ele>29.2</ele><time>2022-05-22T08:48:39.000Z</time></trkpt><trkpt lon="6.108228" lat="51.139404"><ele>29.2</ele><time>2022-05-22T08:48:40.000Z</time></trkpt><trkpt lon="6.108126" lat="51.139408"><ele>29.2</ele><time>2022-05-22T08:48:41.000Z</time></trkpt><trkpt lon="6.108021" lat="51.139412"><ele>29.2</ele><time>2022-05-22T08:48:42.000Z</time></trkpt><trkpt lon="6.107923" lat="51.139401"><ele>29.2</ele><time>2022-05-22T08:48:43.000Z</time></trkpt><trkpt lon="6.107825" lat="51.139397"><ele>29.2</ele><time>2022-05-22T08:48:44.000Z</time></trkpt><trkpt lon="6.107716" lat="51.139386"><ele>29.2</ele><time>2022-05-22T08:48:45.000Z</time></trkpt><trkpt lon="6.107614" lat="51.139374"><ele>29.2</ele><time>2022-05-22T08:48:46.000Z</time></trkpt><trkpt lon="6.10751" lat="51.139363"><ele>29.2</ele><time>2022-05-22T08:48:47.000Z</time></trkpt><trkpt lon="6.1074" lat="51.139347"><ele>29.2</ele><time>2022-05-22T08:48:48.000Z</time></trkpt><trkpt lon="6.107295" lat="51.139332"><ele>29.2</ele><time>2022-05-22T08:48:49.000Z</time></trkpt><trkpt lon="6.107196" lat="51.139321"><ele>29.2</ele><time>2022-05-22T08:48:50.000Z</time></trkpt><trkpt lon="6.107097" lat="51.139306"><ele>29.2</ele><time>2022-05-22T08:48:51.000Z</time></trkpt><trkpt lon="6.107004" lat="51.13929"><ele>29.2</ele><time>2022-05-22T08:48:52.000Z</time></trkpt><trkpt lon="6.106907" lat="51.139272"><ele>29.2</ele><time>2022-05-22T08:48:53.000Z</time></trkpt><trkpt lon="6.106801" lat="51.139252"><ele>29.2</ele><time>2022-05-22T08:48:54.000Z</time></trkpt><trkpt lon="6.106691" lat="51.139226"><ele>29.2</ele><time>2022-05-22T08:48:55.000Z</time></trkpt><trkpt lon="6.10659" lat="51.13921"><ele>29.2</ele><time>2022-05-22T08:48:56.000Z</time></trkpt><trkpt lon="6.106488" lat="51.139195"><ele>29</ele><time>2022-05-22T08:48:57.000Z</time></trkpt><trkpt lon="6.106382" lat="51.139176"><ele>29</ele><time>2022-05-22T08:48:58.000Z</time></trkpt><trkpt lon="6.106276" lat="51.139153"><ele>29</ele><time>2022-05-22T08:48:59.000Z</time></trkpt><trkpt lon="6.106168" lat="51.139134"><ele>29</ele><time>2022-05-22T08:49:00.000Z</time></trkpt><trkpt lon="6.106062" lat="51.139107"><ele>29</ele><time>2022-05-22T08:49:01.000Z</time></trkpt><trkpt lon="6.105956" lat="51.139085"><ele>28.8</ele><time>2022-05-22T08:49:02.000Z</time></trkpt><trkpt lon="6.105857" lat="51.139069"><ele>28.8</ele><time>2022-05-22T08:49:03.000Z</time></trkpt><trkpt lon="6.105764" lat="51.139043"><ele>28.8</ele><time>2022-05-22T08:49:04.000Z</time></trkpt><trkpt lon="6.105668" lat="51.139023"><ele>29</ele><time>2022-05-22T08:49:05.000Z</time></trkpt><trkpt lon="6.105573" lat="51.139001"><ele>29</ele><time>2022-05-22T08:49:06.000Z</time></trkpt><trkpt lon="6.105473" lat="51.138974"><ele>29</ele><time>2022-05-22T08:49:07.000Z</time></trkpt><trkpt lon="6.10538" lat="51.138951"><ele>28.8</ele><time>2022-05-22T08:49:08.000Z</time></trkpt><trkpt lon="6.105277" lat="51.138932"><ele>28.8</ele><time>2022-05-22T08:49:09.000Z</time></trkpt><trkpt lon="6.105169" lat="51.138913"><ele>29</ele><time>2022-05-22T08:49:10.000Z</time></trkpt><trkpt lon="6.105063" lat="51.138894"><ele>29</ele><time>2022-05-22T08:49:11.000Z</time></trkpt><trkpt lon="6.104964" lat="51.138878"><ele>29</ele><time>2022-05-22T08:49:12.000Z</time></trkpt><trkpt lon="6.104875" lat="51.13886"><ele>29</ele><time>2022-05-22T08:49:13.000Z</time></trkpt><trkpt lon="6.104784" lat="51.138837"><ele>29</ele><time>2022-05-22T08:49:14.000Z</time></trkpt><trkpt lon="6.104698" lat="51.138817"><ele>29</ele><time>2022-05-22T08:49:15.000Z</time></trkpt><trkpt lon="6.104609" lat="51.138802"><ele>29</ele><time>2022-05-22T08:49:16.000Z</time></trkpt><trkpt lon="6.104524" lat="51.138779"><ele>29</ele><time>2022-05-22T08:49:17.000Z</time></trkpt><trkpt lon="6.104445" lat="51.138756"><ele>29</ele><time>2022-05-22T08:49:18.000Z</time></trkpt><trkpt lon="6.104358" lat="51.138737"><ele>29</ele><time>2022-05-22T08:49:19.000Z</time></trkpt><trkpt lon="6.104268" lat="51.138722"><ele>29</ele><time>2022-05-22T08:49:20.000Z</time></trkpt><trkpt lon="6.104172" lat="51.138707"><ele>29</ele><time>2022-05-22T08:49:21.000Z</time></trkpt><trkpt lon="6.10407" lat="51.138691"><ele>29</ele><time>2022-05-22T08:49:22.000Z</time></trkpt><trkpt lon="6.103964" lat="51.138673"><ele>29</ele><time>2022-05-22T08:49:23.000Z</time></trkpt><trkpt lon="6.103853" lat="51.138657"><ele>29</ele><time>2022-05-22T08:49:24.000Z</time></trkpt><trkpt lon="6.103745" lat="51.138646"><ele>28.8</ele><time>2022-05-22T08:49:25.000Z</time></trkpt><trkpt lon="6.103643" lat="51.13863"><ele>28.8</ele><time>2022-05-22T08:49:26.000Z</time></trkpt><trkpt lon="6.103539" lat="51.138616"><ele>28.8</ele><time>2022-05-22T08:49:27.000Z</time></trkpt><trkpt lon="6.103426" lat="51.1386"><ele>28.8</ele><time>2022-05-22T08:49:28.000Z</time></trkpt><trkpt lon="6.103318" lat="51.138585"><ele>28.8</ele><time>2022-05-22T08:49:29.000Z</time></trkpt><trkpt lon="6.103213" lat="51.138569"><ele>28.8</ele><time>2022-05-22T08:49:30.000Z</time></trkpt><trkpt lon="6.103097" lat="51.13855"><ele>28.8</ele><time>2022-05-22T08:49:31.000Z</time></trkpt><trkpt lon="6.10299" lat="51.138532"><ele>28.8</ele><time>2022-05-22T08:49:32.000Z</time></trkpt><trkpt lon="6.102875" lat="51.138512"><ele>28.8</ele><time>2022-05-22T08:49:33.000Z</time></trkpt><trkpt lon="6.102773" lat="51.138497"><ele>28.8</ele><time>2022-05-22T08:49:34.000Z</time></trkpt><trkpt lon="6.102666" lat="51.138478"><ele>28.8</ele><time>2022-05-22T08:49:35.000Z</time></trkpt><trkpt lon="6.102554" lat="51.13847"><ele>29</ele><time>2022-05-22T08:49:36.000Z</time></trkpt><trkpt lon="6.102459" lat="51.138459"><ele>29</ele><time>2022-05-22T08:49:37.000Z</time></trkpt><trkpt lon="6.102364" lat="51.138444"><ele>29</ele><time>2022-05-22T08:49:38.000Z</time></trkpt><trkpt lon="6.102266" lat="51.138425"><ele>29</ele><time>2022-05-22T08:49:39.000Z</time></trkpt><trkpt lon="6.102158" lat="51.138402"><ele>29</ele><time>2022-05-22T08:49:40.000Z</time></trkpt><trkpt lon="6.102053" lat="51.138382"><ele>29</ele><time>2022-05-22T08:49:41.000Z</time></trkpt><trkpt lon="6.101955" lat="51.138364"><ele>29</ele><time>2022-05-22T08:49:42.000Z</time></trkpt><trkpt lon="6.101852" lat="51.138341"><ele>29</ele><time>2022-05-22T08:49:43.000Z</time></trkpt><trkpt lon="6.10175" lat="51.138322"><ele>29</ele><time>2022-05-22T08:49:44.000Z</time></trkpt><trkpt lon="6.101644" lat="51.138306"><ele>29</ele><time>2022-05-22T08:49:45.000Z</time></trkpt><trkpt lon="6.101536" lat="51.138291"><ele>29</ele><time>2022-05-22T08:49:46.000Z</time></trkpt><trkpt lon="6.101431" lat="51.138276"><ele>29</ele><time>2022-05-22T08:49:47.000Z</time></trkpt><trkpt lon="6.101331" lat="51.13826"><ele>29</ele><time>2022-05-22T08:49:48.000Z</time></trkpt><trkpt lon="6.101226" lat="51.138241"><ele>29</ele><time>2022-05-22T08:49:49.000Z</time></trkpt><trkpt lon="6.101126" lat="51.138226"><ele>29</ele><time>2022-05-22T08:49:50.000Z</time></trkpt><trkpt lon="6.101023" lat="51.138211"><ele>29</ele><time>2022-05-22T08:49:51.000Z</time></trkpt><trkpt lon="6.100921" lat="51.138196"><ele>29</ele><time>2022-05-22T08:49:52.000Z</time></trkpt><trkpt lon="6.100817" lat="51.13818"><ele>29</ele><time>2022-05-22T08:49:53.000Z</time></trkpt><trkpt lon="6.100721" lat="51.138165"><ele>29</ele><time>2022-05-22T08:49:54.000Z</time></trkpt><trkpt lon="6.100626" lat="51.13815"><ele>29</ele><time>2022-05-22T08:49:55.000Z</time></trkpt><trkpt lon="6.100521" lat="51.138131"><ele>29</ele><time>2022-05-22T08:49:56.000Z</time></trkpt><trkpt lon="6.100416" lat="51.138115"><ele>29</ele><time>2022-05-22T08:49:57.000Z</time></trkpt><trkpt lon="6.100306" lat="51.138096"><ele>28.8</ele><time>2022-05-22T08:49:58.000Z</time></trkpt><trkpt lon="6.100201" lat="51.138081"><ele>28.8</ele><time>2022-05-22T08:49:59.000Z</time></trkpt><trkpt lon="6.100087" lat="51.138062"><ele>28.8</ele><time>2022-05-22T08:50:00.000Z</time></trkpt><trkpt lon="6.099987" lat="51.138051"><ele>28.8</ele><time>2022-05-22T08:50:01.000Z</time></trkpt><trkpt lon="6.099892" lat="51.138035"><ele>28.8</ele><time>2022-05-22T08:50:02.000Z</time></trkpt><trkpt lon="6.099794" lat="51.138024"><ele>28.6</ele><time>2022-05-22T08:50:03.000Z</time></trkpt><trkpt lon="6.099691" lat="51.138009"><ele>28.6</ele><time>2022-05-22T08:50:04.000Z</time></trkpt><trkpt lon="6.099575" lat="51.137993"><ele>28.6</ele><time>2022-05-22T08:50:05.000Z</time></trkpt><trkpt lon="6.099451" lat="51.137978"><ele>28.6</ele><time>2022-05-22T08:50:06.000Z</time></trkpt><trkpt lon="6.099325" lat="51.137959"><ele>28.6</ele><time>2022-05-22T08:50:07.000Z</time></trkpt><trkpt lon="6.099206" lat="51.137944"><ele>28.6</ele><time>2022-05-22T08:50:08.000Z</time></trkpt><trkpt lon="6.099085" lat="51.137925"><ele>28.6</ele><time>2022-05-22T08:50:09.000Z</time></trkpt><trkpt lon="6.098965" lat="51.137906"><ele>28.6</ele><time>2022-05-22T08:50:10.000Z</time></trkpt><trkpt lon="6.098851" lat="51.13789"><ele>28.6</ele><time>2022-05-22T08:50:11.000Z</time></trkpt><trkpt lon="6.098738" lat="51.137875"><ele>28.6</ele><time>2022-05-22T08:50:12.000Z</time></trkpt><trkpt lon="6.09863" lat="51.137864"><ele>28.6</ele><time>2022-05-22T08:50:13.000Z</time></trkpt><trkpt lon="6.098524" lat="51.137852"><ele>28.6</ele><time>2022-05-22T08:50:14.000Z</time></trkpt><trkpt lon="6.098421" lat="51.137833"><ele>28.6</ele><time>2022-05-22T08:50:15.000Z</time></trkpt><trkpt lon="6.098318" lat="51.137818"><ele>28.6</ele><time>2022-05-22T08:50:16.000Z</time></trkpt><trkpt lon="6.098214" lat="51.137806"><ele>28.4</ele><time>2022-05-22T08:50:17.000Z</time></trkpt><trkpt lon="6.098111" lat="51.137791"><ele>28.4</ele><time>2022-05-22T08:50:18.000Z</time></trkpt><trkpt lon="6.098003" lat="51.137776"><ele>28.4</ele><time>2022-05-22T08:50:19.000Z</time></trkpt><trkpt lon="6.0979" lat="51.137761"><ele>28.4</ele><time>2022-05-22T08:50:20.000Z</time></trkpt><trkpt lon="6.097792" lat="51.137742"><ele>28.4</ele><time>2022-05-22T08:50:21.000Z</time></trkpt><trkpt lon="6.097684" lat="51.137726"><ele>28.4</ele><time>2022-05-22T08:50:22.000Z</time></trkpt><trkpt lon="6.097574" lat="51.137711"><ele>28.4</ele><time>2022-05-22T08:50:23.000Z</time></trkpt><trkpt lon="6.097465" lat="51.137693"><ele>28.4</ele><time>2022-05-22T08:50:24.000Z</time></trkpt><trkpt lon="6.097353" lat="51.13768"><ele>28.2</ele><time>2022-05-22T08:50:25.000Z</time></trkpt><trkpt lon="6.097246" lat="51.137669"><ele>28.2</ele><time>2022-05-22T08:50:26.000Z</time></trkpt><trkpt lon="6.097138" lat="51.137654"><ele>28</ele><time>2022-05-22T08:50:27.000Z</time></trkpt><trkpt lon="6.097029" lat="51.137642"><ele>28</ele><time>2022-05-22T08:50:28.000Z</time></trkpt><trkpt lon="6.096918" lat="51.137638"><ele>27.8</ele><time>2022-05-22T08:50:29.000Z</time></trkpt><trkpt lon="6.096806" lat="51.137638"><ele>27.8</ele><time>2022-05-22T08:50:30.000Z</time></trkpt><trkpt lon="6.096692" lat="51.137642"><ele>27.6</ele><time>2022-05-22T08:50:31.000Z</time></trkpt><trkpt lon="6.096581" lat="51.137642"><ele>27.6</ele><time>2022-05-22T08:50:32.000Z</time></trkpt><trkpt lon="6.096468" lat="51.137642"><ele>27.4</ele><time>2022-05-22T08:50:33.000Z</time></trkpt><trkpt lon="6.096353" lat="51.137642"><ele>27.4</ele><time>2022-05-22T08:50:34.000Z</time></trkpt><trkpt lon="6.096246" lat="51.137642"><ele>27.2</ele><time>2022-05-22T08:50:35.000Z</time></trkpt><trkpt lon="6.096136" lat="51.137646"><ele>27.2</ele><time>2022-05-22T08:50:36.000Z</time></trkpt><trkpt lon="6.096039" lat="51.137653"><ele>27.2</ele><time>2022-05-22T08:50:37.000Z</time></trkpt><trkpt lon="6.095945" lat="51.137653"><ele>27.2</ele><time>2022-05-22T08:50:38.000Z</time></trkpt><trkpt lon="6.095847" lat="51.137653"><ele>27.2</ele><time>2022-05-22T08:50:39.000Z</time></trkpt><trkpt lon="6.095746" lat="51.13765"><ele>27.2</ele><time>2022-05-22T08:50:40.000Z</time></trkpt><trkpt lon="6.095647" lat="51.137646"><ele>27.2</ele><time>2022-05-22T08:50:41.000Z</time></trkpt><trkpt lon="6.095553" lat="51.137642"><ele>27.4</ele><time>2022-05-22T08:50:42.000Z</time></trkpt><trkpt lon="6.095457" lat="51.137635"><ele>27.4</ele><time>2022-05-22T08:50:43.000Z</time></trkpt><trkpt lon="6.095365" lat="51.137627"><ele>27.2</ele><time>2022-05-22T08:50:44.000Z</time></trkpt><trkpt lon="6.095271" lat="51.137615"><ele>27.2</ele><time>2022-05-22T08:50:45.000Z</time></trkpt><trkpt lon="6.095181" lat="51.137608"><ele>27.2</ele><time>2022-05-22T08:50:46.000Z</time></trkpt><trkpt lon="6.095085" lat="51.1376"><ele>27.4</ele><time>2022-05-22T08:50:47.000Z</time></trkpt><trkpt lon="6.094986" lat="51.137593"><ele>27.4</ele><time>2022-05-22T08:50:48.000Z</time></trkpt><trkpt lon="6.094887" lat="51.137585"><ele>27.4</ele><time>2022-05-22T08:50:49.000Z</time></trkpt><trkpt lon="6.09479" lat="51.137577"><ele>27.4</ele><time>2022-05-22T08:50:50.000Z</time></trkpt><trkpt lon="6.094688" lat="51.13757"><ele>27.4</ele><time>2022-05-22T08:50:51.000Z</time></trkpt><trkpt lon="6.094584" lat="51.137562"><ele>27.4</ele><time>2022-05-22T08:50:52.000Z</time></trkpt><trkpt lon="6.094483" lat="51.137558"><ele>27.4</ele><time>2022-05-22T08:50:53.000Z</time></trkpt><trkpt lon="6.09439" lat="51.137548"><ele>27.4</ele><time>2022-05-22T08:50:54.000Z</time></trkpt><trkpt lon="6.094274" lat="51.137535"><ele>27.4</ele><time>2022-05-22T08:50:55.000Z</time></trkpt><trkpt lon="6.09417" lat="51.137513"><ele>27.4</ele><time>2022-05-22T08:50:56.000Z</time></trkpt><trkpt lon="6.094069" lat="51.137491"><ele>27.2</ele><time>2022-05-22T08:50:57.000Z</time></trkpt><trkpt lon="6.093961" lat="51.137464"><ele>27.2</ele><time>2022-05-22T08:50:58.000Z</time></trkpt><trkpt lon="6.093856" lat="51.137437"><ele>27.2</ele><time>2022-05-22T08:50:59.000Z</time></trkpt><trkpt lon="6.093759" lat="51.137403"><ele>27</ele><time>2022-05-22T08:51:00.000Z</time></trkpt><trkpt lon="6.093664" lat="51.137357"><ele>26.8</ele><time>2022-05-22T08:51:01.000Z</time></trkpt><trkpt lon="6.093582" lat="51.137312"><ele>26.6</ele><time>2022-05-22T08:51:02.000Z</time></trkpt><trkpt lon="6.093502" lat="51.137251"><ele>26.6</ele><time>2022-05-22T08:51:03.000Z</time></trkpt><trkpt lon="6.093438" lat="51.137204"><ele>26.4</ele><time>2022-05-22T08:51:04.000Z</time></trkpt><trkpt lon="6.09337" lat="51.137154"><ele>26.2</ele><time>2022-05-22T08:51:05.000Z</time></trkpt><trkpt lon="6.093268" lat="51.137081"><ele>26</ele><time>2022-05-22T08:51:06.000Z</time></trkpt><trkpt lon="6.093187" lat="51.137024"><ele>25.8</ele><time>2022-05-22T08:51:07.000Z</time></trkpt><trkpt lon="6.093104" lat="51.136961"><ele>25.6</ele><time>2022-05-22T08:51:08.000Z</time></trkpt><trkpt lon="6.093024" lat="51.1369"><ele>25.4</ele><time>2022-05-22T08:51:09.000Z</time></trkpt><trkpt lon="6.092943" lat="51.136834"><ele>25.2</ele><time>2022-05-22T08:51:10.000Z</time></trkpt><trkpt lon="6.092864" lat="51.136775"><ele>25</ele><time>2022-05-22T08:51:11.000Z</time></trkpt><trkpt lon="6.092779" lat="51.136709"><ele>24.6</ele><time>2022-05-22T08:51:12.000Z</time></trkpt><trkpt lon="6.092698" lat="51.136648"><ele>24.6</ele><time>2022-05-22T08:51:13.000Z</time></trkpt><trkpt lon="6.092617" lat="51.13659"><ele>24.4</ele><time>2022-05-22T08:51:14.000Z</time></trkpt><trkpt lon="6.092535" lat="51.136533"><ele>24.2</ele><time>2022-05-22T08:51:15.000Z</time></trkpt><trkpt lon="6.092452" lat="51.136479"><ele>24</ele><time>2022-05-22T08:51:16.000Z</time></trkpt><trkpt lon="6.092367" lat="51.136423"><ele>24</ele><time>2022-05-22T08:51:17.000Z</time></trkpt><trkpt lon="6.092283" lat="51.136371"><ele>24</ele><time>2022-05-22T08:51:18.000Z</time></trkpt><trkpt lon="6.092195" lat="51.13632"><ele>23.8</ele><time>2022-05-22T08:51:19.000Z</time></trkpt><trkpt lon="6.092107" lat="51.136266"><ele>23.8</ele><time>2022-05-22T08:51:20.000Z</time></trkpt><trkpt lon="6.092028" lat="51.136222"><ele>23.8</ele><time>2022-05-22T08:51:21.000Z</time></trkpt><trkpt lon="6.091944" lat="51.136175"><ele>24</ele><time>2022-05-22T08:51:22.000Z</time></trkpt><trkpt lon="6.091864" lat="51.136132"><ele>24</ele><time>2022-05-22T08:51:23.000Z</time></trkpt><trkpt lon="6.091783" lat="51.136086"><ele>24</ele><time>2022-05-22T08:51:24.000Z</time></trkpt><trkpt lon="6.091708" lat="51.136049"><ele>24</ele><time>2022-05-22T08:51:25.000Z</time></trkpt><trkpt lon="6.091632" lat="51.136004"><ele>24</ele><time>2022-05-22T08:51:26.000Z</time></trkpt><trkpt lon="6.091556" lat="51.135958"><ele>24</ele><time>2022-05-22T08:51:27.000Z</time></trkpt><trkpt lon="6.091479" lat="51.13591"><ele>24</ele><time>2022-05-22T08:51:28.000Z</time></trkpt><trkpt lon="6.091398" lat="51.135858"><ele>24</ele><time>2022-05-22T08:51:29.000Z</time></trkpt><trkpt lon="6.091323" lat="51.135812"><ele>24</ele><time>2022-05-22T08:51:30.000Z</time></trkpt><trkpt lon="6.091253" lat="51.135768"><ele>24</ele><time>2022-05-22T08:51:31.000Z</time></trkpt><trkpt lon="6.091186" lat="51.135729"><ele>24</ele><time>2022-05-22T08:51:32.000Z</time></trkpt><trkpt lon="6.091123" lat="51.13569"><ele>24</ele><time>2022-05-22T08:51:33.000Z</time></trkpt><trkpt lon="6.09106" lat="51.135648"><ele>24</ele><time>2022-05-22T08:51:34.000Z</time></trkpt><trkpt lon="6.090993" lat="51.135621"><ele>24</ele><time>2022-05-22T08:51:35.000Z</time></trkpt><trkpt lon="6.090925" lat="51.135613"><ele>24</ele><time>2022-05-22T08:51:36.000Z</time></trkpt><trkpt lon="6.090852" lat="51.13562"><ele>24</ele><time>2022-05-22T08:51:37.000Z</time></trkpt><trkpt lon="6.090785" lat="51.135646"><ele>24</ele><time>2022-05-22T08:51:38.000Z</time></trkpt><trkpt lon="6.090719" lat="51.135686"><ele>24</ele><time>2022-05-22T08:51:39.000Z</time></trkpt><trkpt lon="6.090642" lat="51.135736"><ele>24</ele><time>2022-05-22T08:51:40.000Z</time></trkpt><trkpt lon="6.09056" lat="51.135786"><ele>24</ele><time>2022-05-22T08:51:41.000Z</time></trkpt><trkpt lon="6.09048" lat="51.135835"><ele>24</ele><time>2022-05-22T08:51:42.000Z</time></trkpt><trkpt lon="6.090406" lat="51.13588"><ele>24</ele><time>2022-05-22T08:51:43.000Z</time></trkpt><trkpt lon="6.090329" lat="51.135923"><ele>23.8</ele><time>2022-05-22T08:51:44.000Z</time></trkpt><trkpt lon="6.090255" lat="51.135969"><ele>23.8</ele><time>2022-05-22T08:51:45.000Z</time></trkpt><trkpt lon="6.090181" lat="51.136012"><ele>23.8</ele><time>2022-05-22T08:51:46.000Z</time></trkpt><trkpt lon="6.090112" lat="51.136049"><ele>23.8</ele><time>2022-05-22T08:51:47.000Z</time></trkpt><trkpt lon="6.090043" lat="51.136091"><ele>23.8</ele><time>2022-05-22T08:51:48.000Z</time></trkpt><trkpt lon="6.089973" lat="51.136137"><ele>23.8</ele><time>2022-05-22T08:51:49.000Z</time></trkpt><trkpt lon="6.089908" lat="51.136176"><ele>23.8</ele><time>2022-05-22T08:51:50.000Z</time></trkpt><trkpt lon="6.08984" lat="51.13622"><ele>23.8</ele><time>2022-05-22T08:51:51.000Z</time></trkpt><trkpt lon="6.089767" lat="51.136267"><ele>23.8</ele><time>2022-05-22T08:51:52.000Z</time></trkpt><trkpt lon="6.089693" lat="51.136316"><ele>23.8</ele><time>2022-05-22T08:51:53.000Z</time></trkpt><trkpt lon="6.089633" lat="51.136352"><ele>23.8</ele><time>2022-05-22T08:51:54.000Z</time></trkpt><trkpt lon="6.089551" lat="51.136408"><ele>23.8</ele><time>2022-05-22T08:51:55.000Z</time></trkpt><trkpt lon="6.089478" lat="51.136454"><ele>23.8</ele><time>2022-05-22T08:51:56.000Z</time></trkpt><trkpt lon="6.089407" lat="51.136496"><ele>23.8</ele><time>2022-05-22T08:51:57.000Z</time></trkpt><trkpt lon="6.089341" lat="51.136541"><ele>23.8</ele><time>2022-05-22T08:51:58.000Z</time></trkpt><trkpt lon="6.089271" lat="51.136583"><ele>24</ele><time>2022-05-22T08:51:59.000Z</time></trkpt><trkpt lon="6.0892" lat="51.13663"><ele>23.8</ele><time>2022-05-22T08:52:00.000Z</time></trkpt><trkpt lon="6.089128" lat="51.136676"><ele>23.8</ele><time>2022-05-22T08:52:01.000Z</time></trkpt><trkpt lon="6.089058" lat="51.136721"><ele>23.8</ele><time>2022-05-22T08:52:02.000Z</time></trkpt><trkpt lon="6.088988" lat="51.136767"><ele>24</ele><time>2022-05-22T08:52:03.000Z</time></trkpt><trkpt lon="6.08892" lat="51.136817"><ele>24</ele><time>2022-05-22T08:52:04.000Z</time></trkpt><trkpt lon="6.088855" lat="51.136859"><ele>24</ele><time>2022-05-22T08:52:05.000Z</time></trkpt><trkpt lon="6.088793" lat="51.136901"><ele>24</ele><time>2022-05-22T08:52:06.000Z</time></trkpt><trkpt lon="6.088735" lat="51.136939"><ele>24.2</ele><time>2022-05-22T08:52:07.000Z</time></trkpt><trkpt lon="6.088679" lat="51.136977"><ele>24.2</ele><time>2022-05-22T08:52:08.000Z</time></trkpt><trkpt lon="6.088628" lat="51.137012"><ele>24.4</ele><time>2022-05-22T08:52:09.000Z</time></trkpt><trkpt lon="6.088582" lat="51.137042"><ele>24.4</ele><time>2022-05-22T08:52:10.000Z</time></trkpt><trkpt lon="6.088541" lat="51.137073"><ele>24.4</ele><time>2022-05-22T08:52:11.000Z</time></trkpt><trkpt lon="6.088508" lat="51.137096"><ele>24.4</ele><time>2022-05-22T08:52:12.000Z</time></trkpt><trkpt lon="6.088474" lat="51.137115"><ele>24.6</ele><time>2022-05-22T08:52:13.000Z</time></trkpt><trkpt lon="6.088447" lat="51.137132"><ele>24.4</ele><time>2022-05-22T08:52:14.000Z</time></trkpt><trkpt lon="6.088395" lat="51.137164"><ele>24.4</ele><time>2022-05-22T08:52:15.000Z</time></trkpt><trkpt lon="6.088352" lat="51.137191"><ele>24.4</ele><time>2022-05-22T08:52:16.000Z</time></trkpt><trkpt lon="6.088296" lat="51.137218"><ele>24.2</ele><time>2022-05-22T08:52:17.000Z</time></trkpt><trkpt lon="6.088246" lat="51.137229"><ele>24.2</ele><time>2022-05-22T08:52:18.000Z</time></trkpt><trkpt lon="6.088191" lat="51.137234"><ele>24.2</ele><time>2022-05-22T08:52:19.000Z</time></trkpt><trkpt lon="6.088139" lat="51.13723"><ele>24.2</ele><time>2022-05-22T08:52:20.000Z</time></trkpt><trkpt lon="6.088083" lat="51.13723"><ele>24.2</ele><time>2022-05-22T08:52:21.000Z</time></trkpt><trkpt lon="6.088021" lat="51.137226"><ele>24.2</ele><time>2022-05-22T08:52:22.000Z</time></trkpt><trkpt lon="6.087961" lat="51.137211"><ele>24.2</ele><time>2022-05-22T08:52:23.000Z</time></trkpt><trkpt lon="6.0879" lat="51.137185"><ele>24.2</ele><time>2022-05-22T08:52:24.000Z</time></trkpt><trkpt lon="6.087834" lat="51.137155"><ele>24.2</ele><time>2022-05-22T08:52:25.000Z</time></trkpt><trkpt lon="6.08776" lat="51.137124"><ele>24.2</ele><time>2022-05-22T08:52:26.000Z</time></trkpt><trkpt lon="6.087676" lat="51.137112"><ele>24.2</ele><time>2022-05-22T08:52:27.000Z</time></trkpt><trkpt lon="6.087593" lat="51.137104"><ele>24.2</ele><time>2022-05-22T08:52:28.000Z</time></trkpt><trkpt lon="6.087518" lat="51.137093"><ele>24</ele><time>2022-05-22T08:52:29.000Z</time></trkpt><trkpt lon="6.08745" lat="51.137074"><ele>24</ele><time>2022-05-22T08:52:30.000Z</time></trkpt><trkpt lon="6.087404" lat="51.137044"><ele>24.2</ele><time>2022-05-22T08:52:31.000Z</time></trkpt><trkpt lon="6.087383" lat="51.137006"><ele>24.2</ele><time>2022-05-22T08:52:32.000Z</time></trkpt><trkpt lon="6.087382" lat="51.136964"><ele>24.2</ele><time>2022-05-22T08:52:33.000Z</time></trkpt><trkpt lon="6.087387" lat="51.136914"><ele>24.2</ele><time>2022-05-22T08:52:34.000Z</time></trkpt><trkpt lon="6.087375" lat="51.136861"><ele>24.2</ele><time>2022-05-22T08:52:35.000Z</time></trkpt><trkpt lon="6.087344" lat="51.136804"><ele>24.2</ele><time>2022-05-22T08:52:36.000Z</time></trkpt><trkpt lon="6.087294" lat="51.136751"><ele>24</ele><time>2022-05-22T08:52:37.000Z</time></trkpt><trkpt lon="6.087229" lat="51.136694"><ele>24</ele><time>2022-05-22T08:52:38.000Z</time></trkpt><trkpt lon="6.087167" lat="51.136636"><ele>23.8</ele><time>2022-05-22T08:52:39.000Z</time></trkpt><trkpt lon="6.087096" lat="51.136564"><ele>23.8</ele><time>2022-05-22T08:52:40.000Z</time></trkpt><trkpt lon="6.087026" lat="51.136504"><ele>23.8</ele><time>2022-05-22T08:52:41.000Z</time></trkpt><trkpt lon="6.086953" lat="51.136443"><ele>23.8</ele><time>2022-05-22T08:52:42.000Z</time></trkpt><trkpt lon="6.086879" lat="51.136385"><ele>24</ele><time>2022-05-22T08:52:43.000Z</time></trkpt><trkpt lon="6.086806" lat="51.136328"><ele>24</ele><time>2022-05-22T08:52:44.000Z</time></trkpt><trkpt lon="6.086735" lat="51.136274"><ele>24</ele><time>2022-05-22T08:52:45.000Z</time></trkpt><trkpt lon="6.086665" lat="51.13622"><ele>24</ele><time>2022-05-22T08:52:46.000Z</time></trkpt><trkpt lon="6.086597" lat="51.136167"><ele>24</ele><time>2022-05-22T08:52:47.000Z</time></trkpt><trkpt lon="6.086531" lat="51.136115"><ele>24</ele><time>2022-05-22T08:52:48.000Z</time></trkpt><trkpt lon="6.086463" lat="51.13606"><ele>24</ele><time>2022-05-22T08:52:49.000Z</time></trkpt><trkpt lon="6.086402" lat="51.136012"><ele>23.8</ele><time>2022-05-22T08:52:50.000Z</time></trkpt><trkpt lon="6.086338" lat="51.135958"><ele>23.8</ele><time>2022-05-22T08:52:51.000Z</time></trkpt><trkpt lon="6.086269" lat="51.135908"><ele>23.8</ele><time>2022-05-22T08:52:52.000Z</time></trkpt><trkpt lon="6.086198" lat="51.135855"><ele>23.8</ele><time>2022-05-22T08:52:53.000Z</time></trkpt><trkpt lon="6.086123" lat="51.135805"><ele>23.8</ele><time>2022-05-22T08:52:54.000Z</time></trkpt><trkpt lon="6.086049" lat="51.135752"><ele>24</ele><time>2022-05-22T08:52:55.000Z</time></trkpt><trkpt lon="6.085979" lat="51.135702"><ele>23.8</ele><time>2022-05-22T08:52:56.000Z</time></trkpt><trkpt lon="6.08591" lat="51.135648"><ele>24</ele><time>2022-05-22T08:52:57.000Z</time></trkpt><trkpt lon="6.085841" lat="51.135594"><ele>24</ele><time>2022-05-22T08:52:58.000Z</time></trkpt><trkpt lon="6.085773" lat="51.135542"><ele>24</ele><time>2022-05-22T08:52:59.000Z</time></trkpt><trkpt lon="6.0857" lat="51.135496"><ele>24</ele><time>2022-05-22T08:53:00.000Z</time></trkpt><trkpt lon="6.085625" lat="51.135447"><ele>24</ele><time>2022-05-22T08:53:01.000Z</time></trkpt><trkpt lon="6.08555" lat="51.135393"><ele>24</ele><time>2022-05-22T08:53:02.000Z</time></trkpt><trkpt lon="6.085475" lat="51.135343"><ele>24.2</ele><time>2022-05-22T08:53:03.000Z</time></trkpt><trkpt lon="6.0854" lat="51.135293"><ele>24.2</ele><time>2022-05-22T08:53:04.000Z</time></trkpt><trkpt lon="6.085321" lat="51.135244"><ele>24.2</ele><time>2022-05-22T08:53:05.000Z</time></trkpt><trkpt lon="6.085242" lat="51.135199"><ele>24.2</ele><time>2022-05-22T08:53:06.000Z</time></trkpt><trkpt lon="6.085164" lat="51.13516"><ele>24.2</ele><time>2022-05-22T08:53:07.000Z</time></trkpt><trkpt lon="6.085071" lat="51.13511"><ele>24.2</ele><time>2022-05-22T08:53:08.000Z</time></trkpt><trkpt lon="6.084989" lat="51.135068"><ele>24.4</ele><time>2022-05-22T08:53:09.000Z</time></trkpt><trkpt lon="6.084902" lat="51.135026"><ele>24.4</ele><time>2022-05-22T08:53:10.000Z</time></trkpt><trkpt lon="6.084817" lat="51.134985"><ele>24.4</ele><time>2022-05-22T08:53:11.000Z</time></trkpt><trkpt lon="6.084727" lat="51.134942"><ele>24.4</ele><time>2022-05-22T08:53:12.000Z</time></trkpt><trkpt lon="6.084638" lat="51.134905"><ele>24.4</ele><time>2022-05-22T08:53:13.000Z</time></trkpt><trkpt lon="6.084543" lat="51.134866"><ele>24.4</ele><time>2022-05-22T08:53:14.000Z</time></trkpt><trkpt lon="6.084451" lat="51.134831"><ele>24.4</ele><time>2022-05-22T08:53:15.000Z</time></trkpt><trkpt lon="6.084362" lat="51.134794"><ele>24.4</ele><time>2022-05-22T08:53:16.000Z</time></trkpt><trkpt lon="6.084268" lat="51.13476"><ele>24.4</ele><time>2022-05-22T08:53:17.000Z</time></trkpt><trkpt lon="6.084179" lat="51.134722"><ele>24.4</ele><time>2022-05-22T08:53:18.000Z</time></trkpt><trkpt lon="6.084086" lat="51.134686"><ele>24.4</ele><time>2022-05-22T08:53:19.000Z</time></trkpt><trkpt lon="6.083995" lat="51.134649"><ele>24.4</ele><time>2022-05-22T08:53:20.000Z</time></trkpt><trkpt lon="6.083911" lat="51.134613"><ele>24.4</ele><time>2022-05-22T08:53:21.000Z</time></trkpt><trkpt lon="6.083814" lat="51.134576"><ele>24.4</ele><time>2022-05-22T08:53:22.000Z</time></trkpt><trkpt lon="6.083729" lat="51.134545"><ele>24.6</ele><time>2022-05-22T08:53:23.000Z</time></trkpt><trkpt lon="6.083646" lat="51.134511"><ele>24.6</ele><time>2022-05-22T08:53:24.000Z</time></trkpt><trkpt lon="6.083568" lat="51.134485"><ele>24.6</ele><time>2022-05-22T08:53:25.000Z</time></trkpt><trkpt lon="6.083486" lat="51.13445"><ele>24.8</ele><time>2022-05-22T08:53:26.000Z</time></trkpt><trkpt lon="6.083406" lat="51.134419"><ele>24.8</ele><time>2022-05-22T08:53:27.000Z</time></trkpt><trkpt lon="6.08333" lat="51.134386"><ele>24.8</ele><time>2022-05-22T08:53:28.000Z</time></trkpt><trkpt lon="6.083256" lat="51.134357"><ele>25</ele><time>2022-05-22T08:53:29.000Z</time></trkpt><trkpt lon="6.083187" lat="51.134327"><ele>25.2</ele><time>2022-05-22T08:53:30.000Z</time></trkpt><trkpt lon="6.083092" lat="51.134288"><ele>25.2</ele><time>2022-05-22T08:53:31.000Z</time></trkpt><trkpt lon="6.083004" lat="51.134252"><ele>25.2</ele><time>2022-05-22T08:53:32.000Z</time></trkpt><trkpt lon="6.082916" lat="51.134214"><ele>25.2</ele><time>2022-05-22T08:53:33.000Z</time></trkpt><trkpt lon="6.082827" lat="51.13418"><ele>25.4</ele><time>2022-05-22T08:53:34.000Z</time></trkpt><trkpt lon="6.082734" lat="51.134145"><ele>25.4</ele><time>2022-05-22T08:53:35.000Z</time></trkpt><trkpt lon="6.082648" lat="51.134115"><ele>25.6</ele><time>2022-05-22T08:53:36.000Z</time></trkpt><trkpt lon="6.082557" lat="51.13408"><ele>25.8</ele><time>2022-05-22T08:53:37.000Z</time></trkpt><trkpt lon="6.08247" lat="51.13405"><ele>25.8</ele><time>2022-05-22T08:53:38.000Z</time></trkpt><trkpt lon="6.082382" lat="51.134015"><ele>26</ele><time>2022-05-22T08:53:39.000Z</time></trkpt><trkpt lon="6.082302" lat="51.133982"><ele>26</ele><time>2022-05-22T08:53:40.000Z</time></trkpt><trkpt lon="6.082228" lat="51.133941"><ele>26.2</ele><time>2022-05-22T08:53:41.000Z</time></trkpt><trkpt lon="6.082153" lat="51.133901"><ele>26.4</ele><time>2022-05-22T08:53:42.000Z</time></trkpt><trkpt lon="6.082075" lat="51.13387"><ele>26.4</ele><time>2022-05-22T08:53:43.000Z</time></trkpt><trkpt lon="6.081992" lat="51.133836"><ele>26.6</ele><time>2022-05-22T08:53:44.000Z</time></trkpt><trkpt lon="6.08191" lat="51.133805"><ele>26.6</ele><time>2022-05-22T08:53:45.000Z</time></trkpt><trkpt lon="6.081831" lat="51.133774"><ele>26.6</ele><time>2022-05-22T08:53:46.000Z</time></trkpt><trkpt lon="6.081751" lat="51.133744"><ele>26.4</ele><time>2022-05-22T08:53:47.000Z</time></trkpt><trkpt lon="6.081668" lat="51.133713"><ele>26.4</ele><time>2022-05-22T08:53:48.000Z</time></trkpt><trkpt lon="6.081587" lat="51.133679"><ele>26.4</ele><time>2022-05-22T08:53:49.000Z</time></trkpt><trkpt lon="6.081504" lat="51.133649"><ele>26.2</ele><time>2022-05-22T08:53:50.000Z</time></trkpt><trkpt lon="6.081433" lat="51.133616"><ele>26.2</ele><time>2022-05-22T08:53:51.000Z</time></trkpt><trkpt lon="6.081357" lat="51.13358"><ele>26</ele><time>2022-05-22T08:53:52.000Z</time></trkpt><trkpt lon="6.081277" lat="51.133542"><ele>25.8</ele><time>2022-05-22T08:53:53.000Z</time></trkpt><trkpt lon="6.081192" lat="51.133504"><ele>25.6</ele><time>2022-05-22T08:53:54.000Z</time></trkpt><trkpt lon="6.081106" lat="51.133467"><ele>25.6</ele><time>2022-05-22T08:53:55.000Z</time></trkpt><trkpt lon="6.08101" lat="51.133429"><ele>25.4</ele><time>2022-05-22T08:53:56.000Z</time></trkpt><trkpt lon="6.080915" lat="51.13339"><ele>25.2</ele><time>2022-05-22T08:53:57.000Z</time></trkpt><trkpt lon="6.080822" lat="51.133348"><ele>25.2</ele><time>2022-05-22T08:53:58.000Z</time></trkpt><trkpt lon="6.080729" lat="51.13331"><ele>25.2</ele><time>2022-05-22T08:53:59.000Z</time></trkpt><trkpt lon="6.080645" lat="51.133271"><ele>25.2</ele><time>2022-05-22T08:54:00.000Z</time></trkpt><trkpt lon="6.080549" lat="51.133229"><ele>25.2</ele><time>2022-05-22T08:54:01.000Z</time></trkpt><trkpt lon="6.080461" lat="51.13318"><ele>25.2</ele><time>2022-05-22T08:54:02.000Z</time></trkpt><trkpt lon="6.080371" lat="51.13313"><ele>25.2</ele><time>2022-05-22T08:54:03.000Z</time></trkpt><trkpt lon="6.080282" lat="51.133081"><ele>25</ele><time>2022-05-22T08:54:04.000Z</time></trkpt><trkpt lon="6.080193" lat="51.133031"><ele>25</ele><time>2022-05-22T08:54:05.000Z</time></trkpt><trkpt lon="6.08011" lat="51.132978"><ele>25</ele><time>2022-05-22T08:54:06.000Z</time></trkpt><trkpt lon="6.080025" lat="51.132924"><ele>25.2</ele><time>2022-05-22T08:54:07.000Z</time></trkpt><trkpt lon="6.079949" lat="51.132875"><ele>25.2</ele><time>2022-05-22T08:54:08.000Z</time></trkpt><trkpt lon="6.079876" lat="51.132822"><ele>25.4</ele><time>2022-05-22T08:54:09.000Z</time></trkpt><trkpt lon="6.079801" lat="51.132775"><ele>25.6</ele><time>2022-05-22T08:54:10.000Z</time></trkpt><trkpt lon="6.079731" lat="51.132727"><ele>25.8</ele><time>2022-05-22T08:54:11.000Z</time></trkpt><trkpt lon="6.079659" lat="51.132677"><ele>26</ele><time>2022-05-22T08:54:12.000Z</time></trkpt><trkpt lon="6.079585" lat="51.132627"><ele>26</ele><time>2022-05-22T08:54:13.000Z</time></trkpt><trkpt lon="6.079513" lat="51.132581"><ele>26.2</ele><time>2022-05-22T08:54:14.000Z</time></trkpt><trkpt lon="6.079437" lat="51.13254"><ele>26.4</ele><time>2022-05-22T08:54:15.000Z</time></trkpt><trkpt lon="6.079351" lat="51.132501"><ele>26.6</ele><time>2022-05-22T08:54:16.000Z</time></trkpt><trkpt lon="6.079264" lat="51.132463"><ele>26.6</ele><time>2022-05-22T08:54:17.000Z</time></trkpt><trkpt lon="6.079177" lat="51.132432"><ele>26.8</ele><time>2022-05-22T08:54:18.000Z</time></trkpt><trkpt lon="6.079086" lat="51.132402"><ele>27</ele><time>2022-05-22T08:54:19.000Z</time></trkpt><trkpt lon="6.078989" lat="51.132378"><ele>27</ele><time>2022-05-22T08:54:20.000Z</time></trkpt><trkpt lon="6.078905" lat="51.132361"><ele>27.2</ele><time>2022-05-22T08:54:21.000Z</time></trkpt><trkpt lon="6.078798" lat="51.132344"><ele>27.2</ele><time>2022-05-22T08:54:22.000Z</time></trkpt><trkpt lon="6.078701" lat="51.132329"><ele>27.4</ele><time>2022-05-22T08:54:23.000Z</time></trkpt><trkpt lon="6.078607" lat="51.132313"><ele>27.4</ele><time>2022-05-22T08:54:24.000Z</time></trkpt><trkpt lon="6.078516" lat="51.132302"><ele>27.6</ele><time>2022-05-22T08:54:25.000Z</time></trkpt><trkpt lon="6.078427" lat="51.13229"><ele>27.6</ele><time>2022-05-22T08:54:26.000Z</time></trkpt><trkpt lon="6.078339" lat="51.13229"><ele>27.8</ele><time>2022-05-22T08:54:27.000Z</time></trkpt><trkpt lon="6.078257" lat="51.132279"><ele>27.8</ele><time>2022-05-22T08:54:28.000Z</time></trkpt><trkpt lon="6.078182" lat="51.132271"><ele>27.8</ele><time>2022-05-22T08:54:29.000Z</time></trkpt><trkpt lon="6.078105" lat="51.132263"><ele>28</ele><time>2022-05-22T08:54:30.000Z</time></trkpt><trkpt lon="6.078027" lat="51.13227"><ele>28</ele><time>2022-05-22T08:54:31.000Z</time></trkpt><trkpt lon="6.077942" lat="51.132286"><ele>28.2</ele><time>2022-05-22T08:54:32.000Z</time></trkpt><trkpt lon="6.077854" lat="51.132308"><ele>28</ele><time>2022-05-22T08:54:33.000Z</time></trkpt><trkpt lon="6.077763" lat="51.132331"><ele>28</ele><time>2022-05-22T08:54:34.000Z</time></trkpt><trkpt lon="6.077678" lat="51.132357"><ele>28</ele><time>2022-05-22T08:54:35.000Z</time></trkpt><trkpt lon="6.077581" lat="51.132385"><ele>28</ele><time>2022-05-22T08:54:36.000Z</time></trkpt><trkpt lon="6.077486" lat="51.132408"><ele>28</ele><time>2022-05-22T08:54:37.000Z</time></trkpt><trkpt lon="6.077387" lat="51.132423"><ele>28</ele><time>2022-05-22T08:54:38.000Z</time></trkpt><trkpt lon="6.077287" lat="51.132438"><ele>28</ele><time>2022-05-22T08:54:39.000Z</time></trkpt><trkpt lon="6.077189" lat="51.132456"><ele>28</ele><time>2022-05-22T08:54:40.000Z</time></trkpt><trkpt lon="6.077083" lat="51.132472"><ele>28</ele><time>2022-05-22T08:54:41.000Z</time></trkpt><trkpt lon="6.076985" lat="51.132484"><ele>27.8</ele><time>2022-05-22T08:54:42.000Z</time></trkpt><trkpt lon="6.076884" lat="51.132506"><ele>27.8</ele><time>2022-05-22T08:54:43.000Z</time></trkpt><trkpt lon="6.076787" lat="51.132533"><ele>27.8</ele><time>2022-05-22T08:54:44.000Z</time></trkpt><trkpt lon="6.076693" lat="51.132567"><ele>27.8</ele><time>2022-05-22T08:54:45.000Z</time></trkpt><trkpt lon="6.076611" lat="51.132607"><ele>27.8</ele><time>2022-05-22T08:54:46.000Z</time></trkpt><trkpt lon="6.076535" lat="51.132658"><ele>27.8</ele><time>2022-05-22T08:54:47.000Z</time></trkpt><trkpt lon="6.076467" lat="51.132712"><ele>27.6</ele><time>2022-05-22T08:54:48.000Z</time></trkpt><trkpt lon="6.076407" lat="51.132769"><ele>27.6</ele><time>2022-05-22T08:54:49.000Z</time></trkpt><trkpt lon="6.076346" lat="51.132833"><ele>27.4</ele><time>2022-05-22T08:54:50.000Z</time></trkpt><trkpt lon="6.076289" lat="51.132897"><ele>27.4</ele><time>2022-05-22T08:54:51.000Z</time></trkpt><trkpt lon="6.076229" lat="51.132959"><ele>27.2</ele><time>2022-05-22T08:54:52.000Z</time></trkpt><trkpt lon="6.07617" lat="51.133021"><ele>27.2</ele><time>2022-05-22T08:54:53.000Z</time></trkpt><trkpt lon="6.076116" lat="51.133069"><ele>27.2</ele><time>2022-05-22T08:54:54.000Z</time></trkpt><trkpt lon="6.076039" lat="51.133131"><ele>27.4</ele><time>2022-05-22T08:54:55.000Z</time></trkpt><trkpt lon="6.075964" lat="51.133181"><ele>27.2</ele><time>2022-05-22T08:54:56.000Z</time></trkpt><trkpt lon="6.075886" lat="51.133223"><ele>27.2</ele><time>2022-05-22T08:54:57.000Z</time></trkpt><trkpt lon="6.075803" lat="51.133265"><ele>27.2</ele><time>2022-05-22T08:54:58.000Z</time></trkpt><trkpt lon="6.075717" lat="51.133307"><ele>27.2</ele><time>2022-05-22T08:54:59.000Z</time></trkpt><trkpt lon="6.075632" lat="51.133344"><ele>27.2</ele><time>2022-05-22T08:55:00.000Z</time></trkpt><trkpt lon="6.075542" lat="51.133383"><ele>27.2</ele><time>2022-05-22T08:55:01.000Z</time></trkpt><trkpt lon="6.075457" lat="51.13342"><ele>27.2</ele><time>2022-05-22T08:55:02.000Z</time></trkpt><trkpt lon="6.07537" lat="51.133456"><ele>27.2</ele><time>2022-05-22T08:55:03.000Z</time></trkpt><trkpt lon="6.075289" lat="51.133494"><ele>27.4</ele><time>2022-05-22T08:55:04.000Z</time></trkpt><trkpt lon="6.075209" lat="51.133532"><ele>27.4</ele><time>2022-05-22T08:55:05.000Z</time></trkpt><trkpt lon="6.075132" lat="51.133569"><ele>27.4</ele><time>2022-05-22T08:55:06.000Z</time></trkpt><trkpt lon="6.075047" lat="51.133609"><ele>27.4</ele><time>2022-05-22T08:55:07.000Z</time></trkpt><trkpt lon="6.07496" lat="51.133651"><ele>27.6</ele><time>2022-05-22T08:55:08.000Z</time></trkpt><trkpt lon="6.074882" lat="51.133687"><ele>27.6</ele><time>2022-05-22T08:55:09.000Z</time></trkpt><trkpt lon="6.074791" lat="51.133727"><ele>27.6</ele><time>2022-05-22T08:55:10.000Z</time></trkpt><trkpt lon="6.074709" lat="51.133764"><ele>27.6</ele><time>2022-05-22T08:55:11.000Z</time></trkpt><trkpt lon="6.074616" lat="51.133803"><ele>27.6</ele><time>2022-05-22T08:55:12.000Z</time></trkpt><trkpt lon="6.07452" lat="51.133845"><ele>27.4</ele><time>2022-05-22T08:55:13.000Z</time></trkpt><trkpt lon="6.074425" lat="51.13388"><ele>27.4</ele><time>2022-05-22T08:55:14.000Z</time></trkpt><trkpt lon="6.07433" lat="51.133918"><ele>27.4</ele><time>2022-05-22T08:55:15.000Z</time></trkpt><trkpt lon="6.07424" lat="51.133952"><ele>27.2</ele><time>2022-05-22T08:55:16.000Z</time></trkpt><trkpt lon="6.074146" lat="51.13399"><ele>27.2</ele><time>2022-05-22T08:55:17.000Z</time></trkpt><trkpt lon="6.074049" lat="51.134021"><ele>27.2</ele><time>2022-05-22T08:55:18.000Z</time></trkpt><trkpt lon="6.073951" lat="51.134052"><ele>27.2</ele><time>2022-05-22T08:55:19.000Z</time></trkpt><trkpt lon="6.073851" lat="51.134081"><ele>27.4</ele><time>2022-05-22T08:55:20.000Z</time></trkpt><trkpt lon="6.073749" lat="51.134113"><ele>27.4</ele><time>2022-05-22T08:55:21.000Z</time></trkpt><trkpt lon="6.073653" lat="51.134142"><ele>27.4</ele><time>2022-05-22T08:55:22.000Z</time></trkpt><trkpt lon="6.073558" lat="51.134172"><ele>27.4</ele><time>2022-05-22T08:55:23.000Z</time></trkpt><trkpt lon="6.073451" lat="51.134204"><ele>27.2</ele><time>2022-05-22T08:55:24.000Z</time></trkpt><trkpt lon="6.073345" lat="51.134235"><ele>27.2</ele><time>2022-05-22T08:55:25.000Z</time></trkpt><trkpt lon="6.073241" lat="51.134265"><ele>27.4</ele><time>2022-05-22T08:55:26.000Z</time></trkpt><trkpt lon="6.073136" lat="51.134292"><ele>27.6</ele><time>2022-05-22T08:55:27.000Z</time></trkpt><trkpt lon="6.073036" lat="51.134322"><ele>27.6</ele><time>2022-05-22T08:55:28.000Z</time></trkpt><trkpt lon="6.072936" lat="51.134348"><ele>27.6</ele><time>2022-05-22T08:55:29.000Z</time></trkpt><trkpt lon="6.072836" lat="51.134375"><ele>27.6</ele><time>2022-05-22T08:55:30.000Z</time></trkpt><trkpt lon="6.072741" lat="51.134401"><ele>27.6</ele><time>2022-05-22T08:55:31.000Z</time></trkpt><trkpt lon="6.072638" lat="51.134429"><ele>27.6</ele><time>2022-05-22T08:55:32.000Z</time></trkpt><trkpt lon="6.072532" lat="51.134463"><ele>27.6</ele><time>2022-05-22T08:55:33.000Z</time></trkpt><trkpt lon="6.072433" lat="51.134491"><ele>27.6</ele><time>2022-05-22T08:55:34.000Z</time></trkpt><trkpt lon="6.072336" lat="51.134521"><ele>27.6</ele><time>2022-05-22T08:55:35.000Z</time></trkpt><trkpt lon="6.07224" lat="51.134546"><ele>27.6</ele><time>2022-05-22T08:55:36.000Z</time></trkpt><trkpt lon="6.072137" lat="51.134581"><ele>27.6</ele><time>2022-05-22T08:55:37.000Z</time></trkpt><trkpt lon="6.07204" lat="51.134612"><ele>27.6</ele><time>2022-05-22T08:55:38.000Z</time></trkpt><trkpt lon="6.071946" lat="51.134642"><ele>27.6</ele><time>2022-05-22T08:55:39.000Z</time></trkpt><trkpt lon="6.071852" lat="51.134669"><ele>27.6</ele><time>2022-05-22T08:55:40.000Z</time></trkpt><trkpt lon="6.071761" lat="51.134695"><ele>27.6</ele><time>2022-05-22T08:55:41.000Z</time></trkpt><trkpt lon="6.071663" lat="51.134726"><ele>27.4</ele><time>2022-05-22T08:55:42.000Z</time></trkpt><trkpt lon="6.071567" lat="51.134753"><ele>27.4</ele><time>2022-05-22T08:55:43.000Z</time></trkpt><trkpt lon="6.07147" lat="51.13478"><ele>27.4</ele><time>2022-05-22T08:55:44.000Z</time></trkpt><trkpt lon="6.071374" lat="51.134807"><ele>27.2</ele><time>2022-05-22T08:55:45.000Z</time></trkpt><trkpt lon="6.071283" lat="51.134833"><ele>27</ele><time>2022-05-22T08:55:46.000Z</time></trkpt><trkpt lon="6.071189" lat="51.134864"><ele>26.8</ele><time>2022-05-22T08:55:47.000Z</time></trkpt><trkpt lon="6.071099" lat="51.134889"><ele>26.6</ele><time>2022-05-22T08:55:48.000Z</time></trkpt><trkpt lon="6.070994" lat="51.134925"><ele>26.6</ele><time>2022-05-22T08:55:49.000Z</time></trkpt><trkpt lon="6.070895" lat="51.134951"><ele>26.6</ele><time>2022-05-22T08:55:50.000Z</time></trkpt><trkpt lon="6.070787" lat="51.134975"><ele>26.8</ele><time>2022-05-22T08:55:51.000Z</time></trkpt><trkpt lon="6.070683" lat="51.135005"><ele>26.8</ele><time>2022-05-22T08:55:52.000Z</time></trkpt><trkpt lon="6.070584" lat="51.135032"><ele>26.6</ele><time>2022-05-22T08:55:53.000Z</time></trkpt><trkpt lon="6.070489" lat="51.135058"><ele>26.4</ele><time>2022-05-22T08:55:54.000Z</time></trkpt><trkpt lon="6.070394" lat="51.135089"><ele>26.4</ele><time>2022-05-22T08:55:55.000Z</time></trkpt><trkpt lon="6.070298" lat="51.135116"><ele>26.6</ele><time>2022-05-22T08:55:56.000Z</time></trkpt><trkpt lon="6.070203" lat="51.135145"><ele>26.6</ele><time>2022-05-22T08:55:57.000Z</time></trkpt><trkpt lon="6.070105" lat="51.135173"><ele>26.4</ele><time>2022-05-22T08:55:58.000Z</time></trkpt><trkpt lon="6.070009" lat="51.135199"><ele>26.4</ele><time>2022-05-22T08:55:59.000Z</time></trkpt><trkpt lon="6.069907" lat="51.13523"><ele>26.4</ele><time>2022-05-22T08:56:00.000Z</time></trkpt><trkpt lon="6.069824" lat="51.13525"><ele>26.6</ele><time>2022-05-22T08:56:01.000Z</time></trkpt><trkpt lon="6.069702" lat="51.135283"><ele>26.6</ele><time>2022-05-22T08:56:02.000Z</time></trkpt><trkpt lon="6.069593" lat="51.135314"><ele>26.6</ele><time>2022-05-22T08:56:03.000Z</time></trkpt><trkpt lon="6.069486" lat="51.135341"><ele>26.6</ele><time>2022-05-22T08:56:04.000Z</time></trkpt><trkpt lon="6.069379" lat="51.135371"><ele>26.8</ele><time>2022-05-22T08:56:05.000Z</time></trkpt><trkpt lon="6.069273" lat="51.135398"><ele>26.6</ele><time>2022-05-22T08:56:06.000Z</time></trkpt><trkpt lon="6.069166" lat="51.135432"><ele>26.6</ele><time>2022-05-22T08:56:07.000Z</time></trkpt><trkpt lon="6.069057" lat="51.135463"><ele>26.6</ele><time>2022-05-22T08:56:08.000Z</time></trkpt><trkpt lon="6.068954" lat="51.135494"><ele>26.6</ele><time>2022-05-22T08:56:09.000Z</time></trkpt><trkpt lon="6.068843" lat="51.135524"><ele>26.4</ele><time>2022-05-22T08:56:10.000Z</time></trkpt><trkpt lon="6.068739" lat="51.135554"><ele>26.2</ele><time>2022-05-22T08:56:11.000Z</time></trkpt><trkpt lon="6.068628" lat="51.135585"><ele>26.2</ele><time>2022-05-22T08:56:12.000Z</time></trkpt><trkpt lon="6.068527" lat="51.135618"><ele>26.2</ele><time>2022-05-22T08:56:13.000Z</time></trkpt><trkpt lon="6.068423" lat="51.13565"><ele>26.2</ele><time>2022-05-22T08:56:14.000Z</time></trkpt><trkpt lon="6.068321" lat="51.135676"><ele>26.2</ele><time>2022-05-22T08:56:15.000Z</time></trkpt><trkpt lon="6.068219" lat="51.135707"><ele>26</ele><time>2022-05-22T08:56:16.000Z</time></trkpt><trkpt lon="6.068123" lat="51.135737"><ele>26</ele><time>2022-05-22T08:56:17.000Z</time></trkpt><trkpt lon="6.068022" lat="51.135765"><ele>26</ele><time>2022-05-22T08:56:18.000Z</time></trkpt><trkpt lon="6.067924" lat="51.135791"><ele>26</ele><time>2022-05-22T08:56:19.000Z</time></trkpt><trkpt lon="6.067823" lat="51.135818"><ele>26</ele><time>2022-05-22T08:56:20.000Z</time></trkpt><trkpt lon="6.067722" lat="51.135844"><ele>26</ele><time>2022-05-22T08:56:21.000Z</time></trkpt><trkpt lon="6.067621" lat="51.135871"><ele>26</ele><time>2022-05-22T08:56:22.000Z</time></trkpt><trkpt lon="6.067521" lat="51.135894"><ele>26</ele><time>2022-05-22T08:56:23.000Z</time></trkpt><trkpt lon="6.067423" lat="51.135913"><ele>26</ele><time>2022-05-22T08:56:24.000Z</time></trkpt><trkpt lon="6.067321" lat="51.135936"><ele>26</ele><time>2022-05-22T08:56:25.000Z</time></trkpt><trkpt lon="6.067226" lat="51.135963"><ele>26</ele><time>2022-05-22T08:56:26.000Z</time></trkpt><trkpt lon="6.067132" lat="51.135989"><ele>26</ele><time>2022-05-22T08:56:27.000Z</time></trkpt><trkpt lon="6.06704" lat="51.136016"><ele>26</ele><time>2022-05-22T08:56:28.000Z</time></trkpt><trkpt lon="6.066955" lat="51.136043"><ele>26</ele><time>2022-05-22T08:56:29.000Z</time></trkpt><trkpt lon="6.06687" lat="51.136062"><ele>26</ele><time>2022-05-22T08:56:30.000Z</time></trkpt><trkpt lon="6.066792" lat="51.13608"><ele>26</ele><time>2022-05-22T08:56:31.000Z</time></trkpt><trkpt lon="6.0667" lat="51.136085"><ele>26</ele><time>2022-05-22T08:56:32.000Z</time></trkpt><trkpt lon="6.066609" lat="51.136089"><ele>26</ele><time>2022-05-22T08:56:33.000Z</time></trkpt><trkpt lon="6.066513" lat="51.136108"><ele>25.8</ele><time>2022-05-22T08:56:34.000Z</time></trkpt><trkpt lon="6.066417" lat="51.13613"><ele>25.6</ele><time>2022-05-22T08:56:35.000Z</time></trkpt><trkpt lon="6.066316" lat="51.136161"><ele>25.6</ele><time>2022-05-22T08:56:36.000Z</time></trkpt><trkpt lon="6.066218" lat="51.136188"><ele>25.6</ele><time>2022-05-22T08:56:37.000Z</time></trkpt><trkpt lon="6.066118" lat="51.136218"><ele>25.8</ele><time>2022-05-22T08:56:38.000Z</time></trkpt><trkpt lon="6.066021" lat="51.136245"><ele>25.8</ele><time>2022-05-22T08:56:39.000Z</time></trkpt><trkpt lon="6.065924" lat="51.136276"><ele>25.8</ele><time>2022-05-22T08:56:40.000Z</time></trkpt><trkpt lon="6.065832" lat="51.136302"><ele>25.8</ele><time>2022-05-22T08:56:41.000Z</time></trkpt><trkpt lon="6.065734" lat="51.136328"><ele>25.8</ele><time>2022-05-22T08:56:42.000Z</time></trkpt><trkpt lon="6.065634" lat="51.136359"><ele>25.8</ele><time>2022-05-22T08:56:43.000Z</time></trkpt><trkpt lon="6.065534" lat="51.136386"><ele>25.8</ele><time>2022-05-22T08:56:44.000Z</time></trkpt><trkpt lon="6.065443" lat="51.13642"><ele>25.8</ele><time>2022-05-22T08:56:45.000Z</time></trkpt><trkpt lon="6.065359" lat="51.136451"><ele>26</ele><time>2022-05-22T08:56:46.000Z</time></trkpt><trkpt lon="6.065283" lat="51.136481"><ele>26</ele><time>2022-05-22T08:56:47.000Z</time></trkpt><trkpt lon="6.065206" lat="51.136503"><ele>26.2</ele><time>2022-05-22T08:56:48.000Z</time></trkpt><trkpt lon="6.06512" lat="51.136531"><ele>26</ele><time>2022-05-22T08:56:49.000Z</time></trkpt><trkpt lon="6.065037" lat="51.136545"><ele>26</ele><time>2022-05-22T08:56:50.000Z</time></trkpt><trkpt lon="6.064934" lat="51.136558"><ele>26</ele><time>2022-05-22T08:56:51.000Z</time></trkpt><trkpt lon="6.06483" lat="51.136566"><ele>26</ele><time>2022-05-22T08:56:52.000Z</time></trkpt><trkpt lon="6.064728" lat="51.136574"><ele>26</ele><time>2022-05-22T08:56:53.000Z</time></trkpt><trkpt lon="6.064627" lat="51.136588"><ele>26.2</ele><time>2022-05-22T08:56:54.000Z</time></trkpt><trkpt lon="6.064524" lat="51.136607"><ele>26.2</ele><time>2022-05-22T08:56:55.000Z</time></trkpt><trkpt lon="6.06442" lat="51.136627"><ele>26.2</ele><time>2022-05-22T08:56:56.000Z</time></trkpt><trkpt lon="6.064321" lat="51.136646"><ele>26.4</ele><time>2022-05-22T08:56:57.000Z</time></trkpt><trkpt lon="6.064222" lat="51.136673"><ele>26.4</ele><time>2022-05-22T08:56:58.000Z</time></trkpt><trkpt lon="6.064125" lat="51.136699"><ele>26.4</ele><time>2022-05-22T08:56:59.000Z</time></trkpt><trkpt lon="6.064031" lat="51.136722"><ele>26.6</ele><time>2022-05-22T08:57:00.000Z</time></trkpt><trkpt lon="6.063943" lat="51.136745"><ele>26.8</ele><time>2022-05-22T08:57:01.000Z</time></trkpt><trkpt lon="6.063854" lat="51.136768"><ele>26.8</ele><time>2022-05-22T08:57:02.000Z</time></trkpt><trkpt lon="6.063765" lat="51.136791"><ele>26.8</ele><time>2022-05-22T08:57:03.000Z</time></trkpt><trkpt lon="6.063674" lat="51.13681"><ele>27</ele><time>2022-05-22T08:57:04.000Z</time></trkpt><trkpt lon="6.063576" lat="51.136829"><ele>27</ele><time>2022-05-22T08:57:05.000Z</time></trkpt><trkpt lon="6.063478" lat="51.136844"><ele>27</ele><time>2022-05-22T08:57:06.000Z</time></trkpt><trkpt lon="6.06338" lat="51.13686"><ele>27.2</ele><time>2022-05-22T08:57:07.000Z</time></trkpt><trkpt lon="6.06328" lat="51.136875"><ele>27.2</ele><time>2022-05-22T08:57:08.000Z</time></trkpt><trkpt lon="6.063179" lat="51.13689"><ele>27.2</ele><time>2022-05-22T08:57:09.000Z</time></trkpt><trkpt lon="6.063083" lat="51.136905"><ele>27.2</ele><time>2022-05-22T08:57:10.000Z</time></trkpt><trkpt lon="6.062999" lat="51.136917"><ele>27.2</ele><time>2022-05-22T08:57:11.000Z</time></trkpt><trkpt lon="6.062911" lat="51.136932"><ele>27.4</ele><time>2022-05-22T08:57:12.000Z</time></trkpt><trkpt lon="6.062817" lat="51.136951"><ele>27.4</ele><time>2022-05-22T08:57:13.000Z</time></trkpt><trkpt lon="6.062724" lat="51.136966"><ele>27.4</ele><time>2022-05-22T08:57:14.000Z</time></trkpt><trkpt lon="6.062629" lat="51.136982"><ele>27.4</ele><time>2022-05-22T08:57:15.000Z</time></trkpt><trkpt lon="6.062527" lat="51.137001"><ele>27.4</ele><time>2022-05-22T08:57:16.000Z</time></trkpt><trkpt lon="6.062433" lat="51.13702"><ele>27.6</ele><time>2022-05-22T08:57:17.000Z</time></trkpt><trkpt lon="6.062342" lat="51.137035"><ele>27.6</ele><time>2022-05-22T08:57:18.000Z</time></trkpt><trkpt lon="6.06225" lat="51.137053"><ele>27.6</ele><time>2022-05-22T08:57:19.000Z</time></trkpt><trkpt lon="6.062154" lat="51.137074"><ele>27.6</ele><time>2022-05-22T08:57:20.000Z</time></trkpt><trkpt lon="6.062045" lat="51.137099"><ele>27.8</ele><time>2022-05-22T08:57:21.000Z</time></trkpt><trkpt lon="6.061949" lat="51.137119"><ele>27.8</ele><time>2022-05-22T08:57:22.000Z</time></trkpt><trkpt lon="6.061855" lat="51.137134"><ele>27.8</ele><time>2022-05-22T08:57:23.000Z</time></trkpt><trkpt lon="6.061765" lat="51.137149"><ele>27.8</ele><time>2022-05-22T08:57:24.000Z</time></trkpt><trkpt lon="6.061683" lat="51.137168"><ele>27.8</ele><time>2022-05-22T08:57:25.000Z</time></trkpt><trkpt lon="6.061597" lat="51.137191"><ele>27.6</ele><time>2022-05-22T08:57:26.000Z</time></trkpt><trkpt lon="6.061509" lat="51.137214"><ele>27.6</ele><time>2022-05-22T08:57:27.000Z</time></trkpt><trkpt lon="6.061412" lat="51.137241"><ele>27.6</ele><time>2022-05-22T08:57:28.000Z</time></trkpt><trkpt lon="6.061312" lat="51.13727"><ele>27.6</ele><time>2022-05-22T08:57:29.000Z</time></trkpt><trkpt lon="6.061208" lat="51.137302"><ele>27.4</ele><time>2022-05-22T08:57:30.000Z</time></trkpt><trkpt lon="6.06111" lat="51.137331"><ele>27.4</ele><time>2022-05-22T08:57:31.000Z</time></trkpt><trkpt lon="6.060999" lat="51.137358"><ele>27.2</ele><time>2022-05-22T08:57:32.000Z</time></trkpt><trkpt lon="6.06089" lat="51.137378"><ele>27</ele><time>2022-05-22T08:57:33.000Z</time></trkpt><trkpt lon="6.060795" lat="51.137401"><ele>27</ele><time>2022-05-22T08:57:34.000Z</time></trkpt><trkpt lon="6.060711" lat="51.137424"><ele>26.8</ele><time>2022-05-22T08:57:35.000Z</time></trkpt><trkpt lon="6.060634" lat="51.137447"><ele>26.6</ele><time>2022-05-22T08:57:36.000Z</time></trkpt><trkpt lon="6.060551" lat="51.137473"><ele>26.6</ele><time>2022-05-22T08:57:37.000Z</time></trkpt><trkpt lon="6.060454" lat="51.137508"><ele>26.4</ele><time>2022-05-22T08:57:38.000Z</time></trkpt><trkpt lon="6.060357" lat="51.137541"><ele>26.4</ele><time>2022-05-22T08:57:39.000Z</time></trkpt><trkpt lon="6.060266" lat="51.137569"><ele>26.2</ele><time>2022-05-22T08:57:40.000Z</time></trkpt><trkpt lon="6.060187" lat="51.137598"><ele>26.2</ele><time>2022-05-22T08:57:41.000Z</time></trkpt><trkpt lon="6.060102" lat="51.13763"><ele>26.2</ele><time>2022-05-22T08:57:42.000Z</time></trkpt><trkpt lon="6.06001" lat="51.137664"><ele>26</ele><time>2022-05-22T08:57:43.000Z</time></trkpt><trkpt lon="6.059925" lat="51.137691"><ele>26</ele><time>2022-05-22T08:57:44.000Z</time></trkpt><trkpt lon="6.059837" lat="51.137725"><ele>26</ele><time>2022-05-22T08:57:45.000Z</time></trkpt><trkpt lon="6.059744" lat="51.137763"><ele>26</ele><time>2022-05-22T08:57:46.000Z</time></trkpt><trkpt lon="6.059649" lat="51.137801"><ele>26</ele><time>2022-05-22T08:57:47.000Z</time></trkpt><trkpt lon="6.059546" lat="51.137841"><ele>26</ele><time>2022-05-22T08:57:48.000Z</time></trkpt><trkpt lon="6.059451" lat="51.137877"><ele>25.8</ele><time>2022-05-22T08:57:49.000Z</time></trkpt><trkpt lon="6.05936" lat="51.137909"><ele>25.8</ele><time>2022-05-22T08:57:50.000Z</time></trkpt><trkpt lon="6.059264" lat="51.137942"><ele>25.8</ele><time>2022-05-22T08:57:51.000Z</time></trkpt><trkpt lon="6.05915" lat="51.137984"><ele>26</ele><time>2022-05-22T08:57:52.000Z</time></trkpt><trkpt lon="6.05907" lat="51.138015"><ele>26.2</ele><time>2022-05-22T08:57:53.000Z</time></trkpt><trkpt lon="6.058995" lat="51.138037"><ele>26.4</ele><time>2022-05-22T08:57:54.000Z</time></trkpt><trkpt lon="6.058901" lat="51.138072"><ele>26.6</ele><time>2022-05-22T08:57:55.000Z</time></trkpt><trkpt lon="6.058815" lat="51.13811"><ele>26.6</ele><time>2022-05-22T08:57:56.000Z</time></trkpt><trkpt lon="6.058721" lat="51.138147"><ele>26.6</ele><time>2022-05-22T08:57:57.000Z</time></trkpt><trkpt lon="6.058622" lat="51.138186"><ele>26.6</ele><time>2022-05-22T08:57:58.000Z</time></trkpt><trkpt lon="6.058534" lat="51.138221"><ele>26.8</ele><time>2022-05-22T08:57:59.000Z</time></trkpt><trkpt lon="6.05845" lat="51.138258"><ele>26.8</ele><time>2022-05-22T08:58:00.000Z</time></trkpt><trkpt lon="6.058351" lat="51.138289"><ele>26.6</ele><time>2022-05-22T08:58:01.000Z</time></trkpt><trkpt lon="6.05825" lat="51.138323"><ele>26.6</ele><time>2022-05-22T08:58:02.000Z</time></trkpt><trkpt lon="6.058106" lat="51.138354"><ele>26.4</ele><time>2022-05-22T08:58:03.000Z</time></trkpt><trkpt lon="6.057984" lat="51.138391"><ele>26.4</ele><time>2022-05-22T08:58:04.000Z</time></trkpt><trkpt lon="6.057848" lat="51.138422"><ele>26.4</ele><time>2022-05-22T08:58:05.000Z</time></trkpt><trkpt lon="6.057727" lat="51.13846"><ele>26.2</ele><time>2022-05-22T08:58:06.000Z</time></trkpt><trkpt lon="6.057605" lat="51.138494"><ele>26</ele><time>2022-05-22T08:58:07.000Z</time></trkpt><trkpt lon="6.057493" lat="51.138535"><ele>25.8</ele><time>2022-05-22T08:58:08.000Z</time></trkpt><trkpt lon="6.057381" lat="51.138584"><ele>25.6</ele><time>2022-05-22T08:58:09.000Z</time></trkpt><trkpt lon="6.057255" lat="51.138634"><ele>25.4</ele><time>2022-05-22T08:58:10.000Z</time></trkpt><trkpt lon="6.057143" lat="51.138676"><ele>25.2</ele><time>2022-05-22T08:58:11.000Z</time></trkpt><trkpt lon="6.05702" lat="51.138723"><ele>25</ele><time>2022-05-22T08:58:12.000Z</time></trkpt><trkpt lon="6.056914" lat="51.138761"><ele>24.8</ele><time>2022-05-22T08:58:13.000Z</time></trkpt><trkpt lon="6.056804" lat="51.138796"><ele>24.6</ele><time>2022-05-22T08:58:14.000Z</time></trkpt><trkpt lon="6.056697" lat="51.138834"><ele>24.6</ele><time>2022-05-22T08:58:15.000Z</time></trkpt><trkpt lon="6.056588" lat="51.138871"><ele>24.6</ele><time>2022-05-22T08:58:16.000Z</time></trkpt><trkpt lon="6.056473" lat="51.138917"><ele>24.4</ele><time>2022-05-22T08:58:17.000Z</time></trkpt><trkpt lon="6.056361" lat="51.138964"><ele>24.4</ele><time>2022-05-22T08:58:18.000Z</time></trkpt><trkpt lon="6.056241" lat="51.139014"><ele>24.4</ele><time>2022-05-22T08:58:19.000Z</time></trkpt><trkpt lon="6.056142" lat="51.139059"><ele>24.4</ele><time>2022-05-22T08:58:20.000Z</time></trkpt><trkpt lon="6.056008" lat="51.139121"><ele>24.4</ele><time>2022-05-22T08:58:21.000Z</time></trkpt><trkpt lon="6.055896" lat="51.139174"><ele>24.4</ele><time>2022-05-22T08:58:22.000Z</time></trkpt><trkpt lon="6.055801" lat="51.139226"><ele>24.4</ele><time>2022-05-22T08:58:23.000Z</time></trkpt><trkpt lon="6.055695" lat="51.139277"><ele>24.4</ele><time>2022-05-22T08:58:24.000Z</time></trkpt><trkpt lon="6.055599" lat="51.139327"><ele>24.4</ele><time>2022-05-22T08:58:25.000Z</time></trkpt><trkpt lon="6.055486" lat="51.13938"><ele>24.4</ele><time>2022-05-22T08:58:26.000Z</time></trkpt><trkpt lon="6.055382" lat="51.139425"><ele>24.4</ele><time>2022-05-22T08:58:27.000Z</time></trkpt><trkpt lon="6.055283" lat="51.139475"><ele>24.2</ele><time>2022-05-22T08:58:28.000Z</time></trkpt><trkpt lon="6.055188" lat="51.139524"><ele>24.2</ele><time>2022-05-22T08:58:29.000Z</time></trkpt><trkpt lon="6.055093" lat="51.139571"><ele>24.2</ele><time>2022-05-22T08:58:30.000Z</time></trkpt><trkpt lon="6.054998" lat="51.139619"><ele>24.2</ele><time>2022-05-22T08:58:31.000Z</time></trkpt><trkpt lon="6.0549" lat="51.139666"><ele>24.4</ele><time>2022-05-22T08:58:32.000Z</time></trkpt><trkpt lon="6.054805" lat="51.139712"><ele>24.4</ele><time>2022-05-22T08:58:33.000Z</time></trkpt><trkpt lon="6.054706" lat="51.139754"><ele>24.4</ele><time>2022-05-22T08:58:34.000Z</time></trkpt><trkpt lon="6.054605" lat="51.139799"><ele>24.6</ele><time>2022-05-22T08:58:35.000Z</time></trkpt><trkpt lon="6.054504" lat="51.139846"><ele>24.6</ele><time>2022-05-22T08:58:36.000Z</time></trkpt><trkpt lon="6.054412" lat="51.139889"><ele>24.6</ele><time>2022-05-22T08:58:37.000Z</time></trkpt><trkpt lon="6.054308" lat="51.139937"><ele>24.6</ele><time>2022-05-22T08:58:38.000Z</time></trkpt><trkpt lon="6.05421" lat="51.139978"><ele>24.6</ele><time>2022-05-22T08:58:39.000Z</time></trkpt><trkpt lon="6.054105" lat="51.140017"><ele>24.6</ele><time>2022-05-22T08:58:40.000Z</time></trkpt><trkpt lon="6.05401" lat="51.140053"><ele>24.6</ele><time>2022-05-22T08:58:41.000Z</time></trkpt><trkpt lon="6.053902" lat="51.140096"><ele>24.6</ele><time>2022-05-22T08:58:42.000Z</time></trkpt><trkpt lon="6.053794" lat="51.140131"><ele>24.4</ele><time>2022-05-22T08:58:43.000Z</time></trkpt><trkpt lon="6.053685" lat="51.140163"><ele>24.4</ele><time>2022-05-22T08:58:44.000Z</time></trkpt><trkpt lon="6.053584" lat="51.140192"><ele>24.4</ele><time>2022-05-22T08:58:45.000Z</time></trkpt><trkpt lon="6.053476" lat="51.140224"><ele>24.2</ele><time>2022-05-22T08:58:46.000Z</time></trkpt><trkpt lon="6.053376" lat="51.140254"><ele>24.2</ele><time>2022-05-22T08:58:47.000Z</time></trkpt><trkpt lon="6.053276" lat="51.140285"><ele>24</ele><time>2022-05-22T08:58:48.000Z</time></trkpt><trkpt lon="6.053185" lat="51.14031"><ele>24</ele><time>2022-05-22T08:58:49.000Z</time></trkpt><trkpt lon="6.053085" lat="51.140334"><ele>24.2</ele><time>2022-05-22T08:58:50.000Z</time></trkpt><trkpt lon="6.052993" lat="51.140355"><ele>24.2</ele><time>2022-05-22T08:58:51.000Z</time></trkpt><trkpt lon="6.052887" lat="51.140373"><ele>24.2</ele><time>2022-05-22T08:58:52.000Z</time></trkpt><trkpt lon="6.052792" lat="51.140391"><ele>24.2</ele><time>2022-05-22T08:58:53.000Z</time></trkpt><trkpt lon="6.052697" lat="51.140406"><ele>24.2</ele><time>2022-05-22T08:58:54.000Z</time></trkpt><trkpt lon="6.052592" lat="51.140421"><ele>24.2</ele><time>2022-05-22T08:58:55.000Z</time></trkpt><trkpt lon="6.052482" lat="51.140434"><ele>24.2</ele><time>2022-05-22T08:58:56.000Z</time></trkpt><trkpt lon="6.052385" lat="51.140441"><ele>24.2</ele><time>2022-05-22T08:58:57.000Z</time></trkpt><trkpt lon="6.052279" lat="51.140453"><ele>24.4</ele><time>2022-05-22T08:58:58.000Z</time></trkpt><trkpt lon="6.052181" lat="51.140457"><ele>24.4</ele><time>2022-05-22T08:58:59.000Z</time></trkpt><trkpt lon="6.052082" lat="51.140464"><ele>24.8</ele><time>2022-05-22T08:59:00.000Z</time></trkpt><trkpt lon="6.051987" lat="51.140472"><ele>24.8</ele><time>2022-05-22T08:59:01.000Z</time></trkpt><trkpt lon="6.051884" lat="51.140476"><ele>25</ele><time>2022-05-22T08:59:02.000Z</time></trkpt><trkpt lon="6.051791" lat="51.14048"><ele>25.2</ele><time>2022-05-22T08:59:03.000Z</time></trkpt><trkpt lon="6.051685" lat="51.140487"><ele>25.2</ele><time>2022-05-22T08:59:04.000Z</time></trkpt><trkpt lon="6.05158" lat="51.140491"><ele>25.4</ele><time>2022-05-22T08:59:05.000Z</time></trkpt><trkpt lon="6.051472" lat="51.140495"><ele>25.4</ele><time>2022-05-22T08:59:06.000Z</time></trkpt><trkpt lon="6.051365" lat="51.140499"><ele>25.4</ele><time>2022-05-22T08:59:07.000Z</time></trkpt><trkpt lon="6.051248" lat="51.140503"><ele>25.4</ele><time>2022-05-22T08:59:08.000Z</time></trkpt><trkpt lon="6.051137" lat="51.140506"><ele>25.4</ele><time>2022-05-22T08:59:09.000Z</time></trkpt><trkpt lon="6.051006" lat="51.140518"><ele>25.2</ele><time>2022-05-22T08:59:10.000Z</time></trkpt><trkpt lon="6.050897" lat="51.140522"><ele>25</ele><time>2022-05-22T08:59:11.000Z</time></trkpt><trkpt lon="6.050787" lat="51.140529"><ele>25</ele><time>2022-05-22T08:59:12.000Z</time></trkpt><trkpt lon="6.050679" lat="51.140533"><ele>25</ele><time>2022-05-22T08:59:13.000Z</time></trkpt><trkpt lon="6.050562" lat="51.140541"><ele>25</ele><time>2022-05-22T08:59:14.000Z</time></trkpt><trkpt lon="6.05045" lat="51.140548"><ele>25</ele><time>2022-05-22T08:59:15.000Z</time></trkpt><trkpt lon="6.050328" lat="51.14056"><ele>25</ele><time>2022-05-22T08:59:16.000Z</time></trkpt><trkpt lon="6.050205" lat="51.140571"><ele>25</ele><time>2022-05-22T08:59:17.000Z</time></trkpt><trkpt lon="6.050094" lat="51.140579"><ele>25</ele><time>2022-05-22T08:59:18.000Z</time></trkpt><trkpt lon="6.049979" lat="51.140585"><ele>25</ele><time>2022-05-22T08:59:19.000Z</time></trkpt><trkpt lon="6.049865" lat="51.14059"><ele>25</ele><time>2022-05-22T08:59:20.000Z</time></trkpt><trkpt lon="6.049755" lat="51.140598"><ele>25.2</ele><time>2022-05-22T08:59:21.000Z</time></trkpt><trkpt lon="6.049637" lat="51.140606"><ele>25.2</ele><time>2022-05-22T08:59:22.000Z</time></trkpt><trkpt lon="6.049519" lat="51.140613"><ele>25.4</ele><time>2022-05-22T08:59:23.000Z</time></trkpt><trkpt lon="6.049403" lat="51.140621"><ele>25.4</ele><time>2022-05-22T08:59:24.000Z</time></trkpt><trkpt lon="6.049287" lat="51.140629"><ele>25.4</ele><time>2022-05-22T08:59:25.000Z</time></trkpt><trkpt lon="6.04917" lat="51.140636"><ele>25.4</ele><time>2022-05-22T08:59:26.000Z</time></trkpt><trkpt lon="6.049056" lat="51.140644"><ele>25.4</ele><time>2022-05-22T08:59:27.000Z</time></trkpt><trkpt lon="6.048941" lat="51.140651"><ele>25.2</ele><time>2022-05-22T08:59:28.000Z</time></trkpt><trkpt lon="6.048824" lat="51.140659"><ele>25.4</ele><time>2022-05-22T08:59:29.000Z</time></trkpt><trkpt lon="6.048697" lat="51.140667"><ele>25.6</ele><time>2022-05-22T08:59:30.000Z</time></trkpt><trkpt lon="6.048572" lat="51.140674"><ele>25.6</ele><time>2022-05-22T08:59:31.000Z</time></trkpt><trkpt lon="6.048455" lat="51.140682"><ele>25.4</ele><time>2022-05-22T08:59:32.000Z</time></trkpt><trkpt lon="6.04834" lat="51.14069"><ele>25.4</ele><time>2022-05-22T08:59:33.000Z</time></trkpt><trkpt lon="6.048227" lat="51.140701"><ele>25.4</ele><time>2022-05-22T08:59:34.000Z</time></trkpt><trkpt lon="6.04811" lat="51.140709"><ele>25.2</ele><time>2022-05-22T08:59:35.000Z</time></trkpt><trkpt lon="6.047992" lat="51.140716"><ele>25.2</ele><time>2022-05-22T08:59:36.000Z</time></trkpt><trkpt lon="6.047875" lat="51.140728"><ele>25.2</ele><time>2022-05-22T08:59:37.000Z</time></trkpt><trkpt lon="6.047758" lat="51.140732"><ele>25.2</ele><time>2022-05-22T08:59:38.000Z</time></trkpt><trkpt lon="6.047642" lat="51.140743"><ele>25.2</ele><time>2022-05-22T08:59:39.000Z</time></trkpt><trkpt lon="6.047526" lat="51.140751"><ele>25.2</ele><time>2022-05-22T08:59:40.000Z</time></trkpt><trkpt lon="6.047404" lat="51.140758"><ele>25.4</ele><time>2022-05-22T08:59:41.000Z</time></trkpt><trkpt lon="6.047281" lat="51.140766"><ele>25.4</ele><time>2022-05-22T08:59:42.000Z</time></trkpt><trkpt lon="6.047155" lat="51.140775"><ele>25.4</ele><time>2022-05-22T08:59:43.000Z</time></trkpt><trkpt lon="6.047028" lat="51.140785"><ele>25.2</ele><time>2022-05-22T08:59:44.000Z</time></trkpt><trkpt lon="6.046907" lat="51.140796"><ele>25.2</ele><time>2022-05-22T08:59:45.000Z</time></trkpt><trkpt lon="6.046779" lat="51.140808"><ele>25</ele><time>2022-05-22T08:59:46.000Z</time></trkpt><trkpt lon="6.046653" lat="51.140816"><ele>24.6</ele><time>2022-05-22T08:59:47.000Z</time></trkpt><trkpt lon="6.046526" lat="51.140825"><ele>24.2</ele><time>2022-05-22T08:59:48.000Z</time></trkpt><trkpt lon="6.0464" lat="51.140834"><ele>24</ele><time>2022-05-22T08:59:49.000Z</time></trkpt><trkpt lon="6.046275" lat="51.140846"><ele>23.6</ele><time>2022-05-22T08:59:50.000Z</time></trkpt><trkpt lon="6.046146" lat="51.140857"><ele>23.4</ele><time>2022-05-22T08:59:51.000Z</time></trkpt><trkpt lon="6.046016" lat="51.140869"><ele>23.4</ele><time>2022-05-22T08:59:52.000Z</time></trkpt><trkpt lon="6.045885" lat="51.14088"><ele>23.2</ele><time>2022-05-22T08:59:53.000Z</time></trkpt><trkpt lon="6.045757" lat="51.140888"><ele>23</ele><time>2022-05-22T08:59:54.000Z</time></trkpt><trkpt lon="6.04563" lat="51.140903"><ele>23</ele><time>2022-05-22T08:59:55.000Z</time></trkpt><trkpt lon="6.045503" lat="51.140915"><ele>22.8</ele><time>2022-05-22T08:59:56.000Z</time></trkpt><trkpt lon="6.045378" lat="51.140922"><ele>22.8</ele><time>2022-05-22T08:59:57.000Z</time></trkpt><trkpt lon="6.045253" lat="51.140934"><ele>22.6</ele><time>2022-05-22T08:59:58.000Z</time></trkpt><trkpt lon="6.045129" lat="51.140945"><ele>22.6</ele><time>2022-05-22T08:59:59.000Z</time></trkpt><trkpt lon="6.045009" lat="51.140956"><ele>22.6</ele><time>2022-05-22T09:00:00.000Z</time></trkpt><trkpt lon="6.04488" lat="51.140968"><ele>22.6</ele><time>2022-05-22T09:00:01.000Z</time></trkpt><trkpt lon="6.044753" lat="51.140976"><ele>22.6</ele><time>2022-05-22T09:00:02.000Z</time></trkpt><trkpt lon="6.044628" lat="51.140987"><ele>22.6</ele><time>2022-05-22T09:00:03.000Z</time></trkpt><trkpt lon="6.044505" lat="51.140995"><ele>22.6</ele><time>2022-05-22T09:00:04.000Z</time></trkpt><trkpt lon="6.044382" lat="51.141006"><ele>22.6</ele><time>2022-05-22T09:00:05.000Z</time></trkpt><trkpt lon="6.04426" lat="51.141014"><ele>22.6</ele><time>2022-05-22T09:00:06.000Z</time></trkpt><trkpt lon="6.044139" lat="51.141022"><ele>22.8</ele><time>2022-05-22T09:00:07.000Z</time></trkpt><trkpt lon="6.04402" lat="51.141033"><ele>22.8</ele><time>2022-05-22T09:00:08.000Z</time></trkpt><trkpt lon="6.043903" lat="51.141044"><ele>22.8</ele><time>2022-05-22T09:00:09.000Z</time></trkpt><trkpt lon="6.043785" lat="51.141052"><ele>22.8</ele><time>2022-05-22T09:00:10.000Z</time></trkpt><trkpt lon="6.043672" lat="51.141063"><ele>23</ele><time>2022-05-22T09:00:11.000Z</time></trkpt><trkpt lon="6.043554" lat="51.141071"><ele>23</ele><time>2022-05-22T09:00:12.000Z</time></trkpt><trkpt lon="6.043432" lat="51.141079"><ele>23</ele><time>2022-05-22T09:00:13.000Z</time></trkpt><trkpt lon="6.043315" lat="51.141086"><ele>23</ele><time>2022-05-22T09:00:14.000Z</time></trkpt><trkpt lon="6.043201" lat="51.141094"><ele>23</ele><time>2022-05-22T09:00:15.000Z</time></trkpt><trkpt lon="6.043083" lat="51.141102"><ele>23</ele><time>2022-05-22T09:00:16.000Z</time></trkpt><trkpt lon="6.042967" lat="51.141113"><ele>23</ele><time>2022-05-22T09:00:17.000Z</time></trkpt><trkpt lon="6.042858" lat="51.141124"><ele>23</ele><time>2022-05-22T09:00:18.000Z</time></trkpt><trkpt lon="6.042745" lat="51.141132"><ele>23</ele><time>2022-05-22T09:00:19.000Z</time></trkpt><trkpt lon="6.042626" lat="51.14114"><ele>23</ele><time>2022-05-22T09:00:20.000Z</time></trkpt><trkpt lon="6.042507" lat="51.141151"><ele>23</ele><time>2022-05-22T09:00:21.000Z</time></trkpt><trkpt lon="6.042395" lat="51.141155"><ele>23</ele><time>2022-05-22T09:00:22.000Z</time></trkpt><trkpt lon="6.04228" lat="51.141163"><ele>23</ele><time>2022-05-22T09:00:23.000Z</time></trkpt><trkpt lon="6.042166" lat="51.14117"><ele>23</ele><time>2022-05-22T09:00:24.000Z</time></trkpt><trkpt lon="6.04206" lat="51.141174"><ele>23</ele><time>2022-05-22T09:00:25.000Z</time></trkpt><trkpt lon="6.04196" lat="51.141178"><ele>23</ele><time>2022-05-22T09:00:26.000Z</time></trkpt><trkpt lon="6.04186" lat="51.141186"><ele>23</ele><time>2022-05-22T09:00:27.000Z</time></trkpt><trkpt lon="6.041766" lat="51.141193"><ele>23</ele><time>2022-05-22T09:00:28.000Z</time></trkpt><trkpt lon="6.041669" lat="51.141205"><ele>22.8</ele><time>2022-05-22T09:00:29.000Z</time></trkpt><trkpt lon="6.041576" lat="51.141216"><ele>22.8</ele><time>2022-05-22T09:00:30.000Z</time></trkpt><trkpt lon="6.041483" lat="51.141224"><ele>22.8</ele><time>2022-05-22T09:00:31.000Z</time></trkpt><trkpt lon="6.041382" lat="51.141235"><ele>22.8</ele><time>2022-05-22T09:00:32.000Z</time></trkpt><trkpt lon="6.041269" lat="51.141247"><ele>22.8</ele><time>2022-05-22T09:00:33.000Z</time></trkpt><trkpt lon="6.041154" lat="51.141258"><ele>22.8</ele><time>2022-05-22T09:00:34.000Z</time></trkpt><trkpt lon="6.041037" lat="51.141273"><ele>22.8</ele><time>2022-05-22T09:00:35.000Z</time></trkpt><trkpt lon="6.04092" lat="51.141281"><ele>22.8</ele><time>2022-05-22T09:00:36.000Z</time></trkpt><trkpt lon="6.040808" lat="51.141289"><ele>22.6</ele><time>2022-05-22T09:00:37.000Z</time></trkpt><trkpt lon="6.040695" lat="51.141296"><ele>22.8</ele><time>2022-05-22T09:00:38.000Z</time></trkpt><trkpt lon="6.040589" lat="51.141304"><ele>22.8</ele><time>2022-05-22T09:00:39.000Z</time></trkpt><trkpt lon="6.040476" lat="51.141311"><ele>22.8</ele><time>2022-05-22T09:00:40.000Z</time></trkpt><trkpt lon="6.040365" lat="51.141315"><ele>23</ele><time>2022-05-22T09:00:41.000Z</time></trkpt><trkpt lon="6.040259" lat="51.141326"><ele>23</ele><time>2022-05-22T09:00:42.000Z</time></trkpt><trkpt lon="6.040151" lat="51.141331"><ele>23</ele><time>2022-05-22T09:00:43.000Z</time></trkpt><trkpt lon="6.040041" lat="51.141338"><ele>23</ele><time>2022-05-22T09:00:44.000Z</time></trkpt><trkpt lon="6.039938" lat="51.141342"><ele>23</ele><time>2022-05-22T09:00:45.000Z</time></trkpt><trkpt lon="6.039836" lat="51.141346"><ele>23</ele><time>2022-05-22T09:00:46.000Z</time></trkpt><trkpt lon="6.039739" lat="51.141353"><ele>23</ele><time>2022-05-22T09:00:47.000Z</time></trkpt><trkpt lon="6.039641" lat="51.141361"><ele>23</ele><time>2022-05-22T09:00:48.000Z</time></trkpt><trkpt lon="6.039545" lat="51.141368"><ele>23</ele><time>2022-05-22T09:00:49.000Z</time></trkpt><trkpt lon="6.039444" lat="51.141384"><ele>23.2</ele><time>2022-05-22T09:00:50.000Z</time></trkpt><trkpt lon="6.039358" lat="51.141402"><ele>23.4</ele><time>2022-05-22T09:00:51.000Z</time></trkpt><trkpt lon="6.039259" lat="51.141418"><ele>23.6</ele><time>2022-05-22T09:00:52.000Z</time></trkpt><trkpt lon="6.03916" lat="51.141444"><ele>23.6</ele><time>2022-05-22T09:00:53.000Z</time></trkpt><trkpt lon="6.03905" lat="51.141476"><ele>23.8</ele><time>2022-05-22T09:00:54.000Z</time></trkpt><trkpt lon="6.038939" lat="51.141509"><ele>23.8</ele><time>2022-05-22T09:00:55.000Z</time></trkpt><trkpt lon="6.038831" lat="51.141547"><ele>24</ele><time>2022-05-22T09:00:56.000Z</time></trkpt><trkpt lon="6.038721" lat="51.141589"><ele>24</ele><time>2022-05-22T09:00:57.000Z</time></trkpt><trkpt lon="6.038623" lat="51.141638"><ele>24</ele><time>2022-05-22T09:00:58.000Z</time></trkpt><trkpt lon="6.038518" lat="51.14168"><ele>24</ele><time>2022-05-22T09:00:59.000Z</time></trkpt><trkpt lon="6.038417" lat="51.141726"><ele>23.8</ele><time>2022-05-22T09:01:00.000Z</time></trkpt><trkpt lon="6.038317" lat="51.141768"><ele>23.8</ele><time>2022-05-22T09:01:01.000Z</time></trkpt><trkpt lon="6.038217" lat="51.141813"><ele>23.8</ele><time>2022-05-22T09:01:02.000Z</time></trkpt><trkpt lon="6.038115" lat="51.141852"><ele>23.8</ele><time>2022-05-22T09:01:03.000Z</time></trkpt><trkpt lon="6.038015" lat="51.141895"><ele>23.8</ele><time>2022-05-22T09:01:04.000Z</time></trkpt><trkpt lon="6.037921" lat="51.141933"><ele>23.6</ele><time>2022-05-22T09:01:05.000Z</time></trkpt><trkpt lon="6.037828" lat="51.141974"><ele>23.6</ele><time>2022-05-22T09:01:06.000Z</time></trkpt><trkpt lon="6.037736" lat="51.142016"><ele>23.6</ele><time>2022-05-22T09:01:07.000Z</time></trkpt><trkpt lon="6.037642" lat="51.142055"><ele>23.4</ele><time>2022-05-22T09:01:08.000Z</time></trkpt><trkpt lon="6.037544" lat="51.142097"><ele>23.4</ele><time>2022-05-22T09:01:09.000Z</time></trkpt><trkpt lon="6.037442" lat="51.142142"><ele>23.4</ele><time>2022-05-22T09:01:10.000Z</time></trkpt><trkpt lon="6.037345" lat="51.14218"><ele>23.4</ele><time>2022-05-22T09:01:11.000Z</time></trkpt><trkpt lon="6.037247" lat="51.142221"><ele>23.2</ele><time>2022-05-22T09:01:12.000Z</time></trkpt><trkpt lon="6.037144" lat="51.142261"><ele>23.2</ele><time>2022-05-22T09:01:13.000Z</time></trkpt><trkpt lon="6.037047" lat="51.142299"><ele>23</ele><time>2022-05-22T09:01:14.000Z</time></trkpt><trkpt lon="6.036955" lat="51.14234"><ele>23</ele><time>2022-05-22T09:01:15.000Z</time></trkpt><trkpt lon="6.036861" lat="51.142382"><ele>23</ele><time>2022-05-22T09:01:16.000Z</time></trkpt><trkpt lon="6.036766" lat="51.142423"><ele>23</ele><time>2022-05-22T09:01:17.000Z</time></trkpt><trkpt lon="6.036671" lat="51.142461"><ele>23</ele><time>2022-05-22T09:01:18.000Z</time></trkpt><trkpt lon="6.036574" lat="51.142501"><ele>23.2</ele><time>2022-05-22T09:01:19.000Z</time></trkpt><trkpt lon="6.036484" lat="51.142539"><ele>23.2</ele><time>2022-05-22T09:01:20.000Z</time></trkpt><trkpt lon="6.036397" lat="51.142581"><ele>23.2</ele><time>2022-05-22T09:01:21.000Z</time></trkpt><trkpt lon="6.036318" lat="51.142622"><ele>23.4</ele><time>2022-05-22T09:01:22.000Z</time></trkpt><trkpt lon="6.036239" lat="51.142668"><ele>23.4</ele><time>2022-05-22T09:01:23.000Z</time></trkpt><trkpt lon="6.036165" lat="51.142711"><ele>23.2</ele><time>2022-05-22T09:01:24.000Z</time></trkpt><trkpt lon="6.036094" lat="51.142756"><ele>23</ele><time>2022-05-22T09:01:25.000Z</time></trkpt><trkpt lon="6.03602" lat="51.142802"><ele>22.8</ele><time>2022-05-22T09:01:26.000Z</time></trkpt><trkpt lon="6.035945" lat="51.142852"><ele>22.6</ele><time>2022-05-22T09:01:27.000Z</time></trkpt><trkpt lon="6.035874" lat="51.142901"><ele>22.6</ele><time>2022-05-22T09:01:28.000Z</time></trkpt><trkpt lon="6.035804" lat="51.142951"><ele>22.6</ele><time>2022-05-22T09:01:29.000Z</time></trkpt><trkpt lon="6.035735" lat="51.143"><ele>22.6</ele><time>2022-05-22T09:01:30.000Z</time></trkpt><trkpt lon="6.035671" lat="51.143055"><ele>22.6</ele><time>2022-05-22T09:01:31.000Z</time></trkpt><trkpt lon="6.035607" lat="51.143109"><ele>22.6</ele><time>2022-05-22T09:01:32.000Z</time></trkpt><trkpt lon="6.03554" lat="51.143164"><ele>22.4</ele><time>2022-05-22T09:01:33.000Z</time></trkpt><trkpt lon="6.035473" lat="51.143221"><ele>22.4</ele><time>2022-05-22T09:01:34.000Z</time></trkpt><trkpt lon="6.035406" lat="51.143268"><ele>22.2</ele><time>2022-05-22T09:01:35.000Z</time></trkpt><trkpt lon="6.035334" lat="51.143313"><ele>22.2</ele><time>2022-05-22T09:01:36.000Z</time></trkpt><trkpt lon="6.035257" lat="51.143355"><ele>22.2</ele><time>2022-05-22T09:01:37.000Z</time></trkpt><trkpt lon="6.035187" lat="51.143389"><ele>22.2</ele><time>2022-05-22T09:01:38.000Z</time></trkpt><trkpt lon="6.035115" lat="51.143417"><ele>22.2</ele><time>2022-05-22T09:01:39.000Z</time></trkpt><trkpt lon="6.035041" lat="51.143436"><ele>22.2</ele><time>2022-05-22T09:01:40.000Z</time></trkpt><trkpt lon="6.034957" lat="51.143451"><ele>22.2</ele><time>2022-05-22T09:01:41.000Z</time></trkpt><trkpt lon="6.034867" lat="51.143459"><ele>22.2</ele><time>2022-05-22T09:01:42.000Z</time></trkpt><trkpt lon="6.034779" lat="51.143456"><ele>22.2</ele><time>2022-05-22T09:01:43.000Z</time></trkpt><trkpt lon="6.034686" lat="51.143448"><ele>22.2</ele><time>2022-05-22T09:01:44.000Z</time></trkpt><trkpt lon="6.034586" lat="51.143437"><ele>22.2</ele><time>2022-05-22T09:01:45.000Z</time></trkpt><trkpt lon="6.034484" lat="51.143429"><ele>22</ele><time>2022-05-22T09:01:46.000Z</time></trkpt><trkpt lon="6.034388" lat="51.143421"><ele>22</ele><time>2022-05-22T09:01:47.000Z</time></trkpt><trkpt lon="6.034294" lat="51.143414"><ele>22.2</ele><time>2022-05-22T09:01:48.000Z</time></trkpt><trkpt lon="6.034193" lat="51.143406"><ele>22.4</ele><time>2022-05-22T09:01:49.000Z</time></trkpt><trkpt lon="6.034095" lat="51.143399"><ele>22.4</ele><time>2022-05-22T09:01:50.000Z</time></trkpt><trkpt lon="6.033997" lat="51.143388"><ele>22.4</ele><time>2022-05-22T09:01:51.000Z</time></trkpt><trkpt lon="6.033894" lat="51.143374"><ele>22.4</ele><time>2022-05-22T09:01:52.000Z</time></trkpt><trkpt lon="6.033775" lat="51.14336"><ele>22.4</ele><time>2022-05-22T09:01:53.000Z</time></trkpt><trkpt lon="6.033672" lat="51.143345"><ele>22.4</ele><time>2022-05-22T09:01:54.000Z</time></trkpt><trkpt lon="6.033576" lat="51.14333"><ele>22.4</ele><time>2022-05-22T09:01:55.000Z</time></trkpt><trkpt lon="6.033477" lat="51.143319"><ele>22.4</ele><time>2022-05-22T09:01:56.000Z</time></trkpt><trkpt lon="6.033374" lat="51.143307"><ele>22.4</ele><time>2022-05-22T09:01:57.000Z</time></trkpt><trkpt lon="6.033265" lat="51.143292"><ele>22.4</ele><time>2022-05-22T09:01:58.000Z</time></trkpt><trkpt lon="6.033157" lat="51.14328"><ele>22.6</ele><time>2022-05-22T09:01:59.000Z</time></trkpt><trkpt lon="6.033049" lat="51.143269"><ele>22.6</ele><time>2022-05-22T09:02:00.000Z</time></trkpt><trkpt lon="6.032939" lat="51.143257"><ele>22.8</ele><time>2022-05-22T09:02:01.000Z</time></trkpt><trkpt lon="6.032832" lat="51.143246"><ele>22.8</ele><time>2022-05-22T09:02:02.000Z</time></trkpt><trkpt lon="6.032729" lat="51.143242"><ele>23</ele><time>2022-05-22T09:02:03.000Z</time></trkpt><trkpt lon="6.032624" lat="51.143242"><ele>23</ele><time>2022-05-22T09:02:04.000Z</time></trkpt><trkpt lon="6.032519" lat="51.143242"><ele>23</ele><time>2022-05-22T09:02:05.000Z</time></trkpt><trkpt lon="6.032413" lat="51.143246"><ele>22.8</ele><time>2022-05-22T09:02:06.000Z</time></trkpt><trkpt lon="6.032309" lat="51.143246"><ele>22.8</ele><time>2022-05-22T09:02:07.000Z</time></trkpt><trkpt lon="6.032196" lat="51.143253"><ele>22.8</ele><time>2022-05-22T09:02:08.000Z</time></trkpt><trkpt lon="6.032088" lat="51.143257"><ele>23</ele><time>2022-05-22T09:02:09.000Z</time></trkpt><trkpt lon="6.031982" lat="51.143264"><ele>22.8</ele><time>2022-05-22T09:02:10.000Z</time></trkpt><trkpt lon="6.031872" lat="51.143265"><ele>22.8</ele><time>2022-05-22T09:02:11.000Z</time></trkpt><trkpt lon="6.031758" lat="51.143272"><ele>22.8</ele><time>2022-05-22T09:02:12.000Z</time></trkpt><trkpt lon="6.03164" lat="51.14328"><ele>22.6</ele><time>2022-05-22T09:02:13.000Z</time></trkpt><trkpt lon="6.031527" lat="51.143284"><ele>22.6</ele><time>2022-05-22T09:02:14.000Z</time></trkpt><trkpt lon="6.031429" lat="51.14329"><ele>22.6</ele><time>2022-05-22T09:02:15.000Z</time></trkpt><trkpt lon="6.031322" lat="51.143298"><ele>22.6</ele><time>2022-05-22T09:02:16.000Z</time></trkpt><trkpt lon="6.031192" lat="51.143306"><ele>22.6</ele><time>2022-05-22T09:02:17.000Z</time></trkpt><trkpt lon="6.031076" lat="51.143316"><ele>22.6</ele><time>2022-05-22T09:02:18.000Z</time></trkpt><trkpt lon="6.03096" lat="51.143326"><ele>22.6</ele><time>2022-05-22T09:02:19.000Z</time></trkpt><trkpt lon="6.030848" lat="51.143333"><ele>22.6</ele><time>2022-05-22T09:02:20.000Z</time></trkpt><trkpt lon="6.030733" lat="51.143341"><ele>22.6</ele><time>2022-05-22T09:02:21.000Z</time></trkpt><trkpt lon="6.030618" lat="51.143345"><ele>22.6</ele><time>2022-05-22T09:02:22.000Z</time></trkpt><trkpt lon="6.030506" lat="51.143356"><ele>22.6</ele><time>2022-05-22T09:02:23.000Z</time></trkpt><trkpt lon="6.030396" lat="51.143364"><ele>22.6</ele><time>2022-05-22T09:02:24.000Z</time></trkpt><trkpt lon="6.030281" lat="51.143371"><ele>22.8</ele><time>2022-05-22T09:02:25.000Z</time></trkpt><trkpt lon="6.030169" lat="51.143379"><ele>22.6</ele><time>2022-05-22T09:02:26.000Z</time></trkpt><trkpt lon="6.030055" lat="51.143387"><ele>22.6</ele><time>2022-05-22T09:02:27.000Z</time></trkpt><trkpt lon="6.029943" lat="51.143391"><ele>22.4</ele><time>2022-05-22T09:02:28.000Z</time></trkpt><trkpt lon="6.029829" lat="51.143398"><ele>22.4</ele><time>2022-05-22T09:02:29.000Z</time></trkpt><trkpt lon="6.029715" lat="51.143406"><ele>22.4</ele><time>2022-05-22T09:02:30.000Z</time></trkpt><trkpt lon="6.029604" lat="51.143417"><ele>22.6</ele><time>2022-05-22T09:02:31.000Z</time></trkpt><trkpt lon="6.029496" lat="51.143429"><ele>22.6</ele><time>2022-05-22T09:02:32.000Z</time></trkpt><trkpt lon="6.029387" lat="51.143444"><ele>22.4</ele><time>2022-05-22T09:02:33.000Z</time></trkpt><trkpt lon="6.029278" lat="51.143463"><ele>22.4</ele><time>2022-05-22T09:02:34.000Z</time></trkpt><trkpt lon="6.029169" lat="51.143478"><ele>22.4</ele><time>2022-05-22T09:02:35.000Z</time></trkpt><trkpt lon="6.029068" lat="51.143492"><ele>22.4</ele><time>2022-05-22T09:02:36.000Z</time></trkpt><trkpt lon="6.028963" lat="51.143512"><ele>22.4</ele><time>2022-05-22T09:02:37.000Z</time></trkpt><trkpt lon="6.028861" lat="51.143531"><ele>22.2</ele><time>2022-05-22T09:02:38.000Z</time></trkpt><trkpt lon="6.028761" lat="51.14355"><ele>22.2</ele><time>2022-05-22T09:02:39.000Z</time></trkpt><trkpt lon="6.028676" lat="51.143581"><ele>22.2</ele><time>2022-05-22T09:02:40.000Z</time></trkpt><trkpt lon="6.028573" lat="51.143614"><ele>22.2</ele><time>2022-05-22T09:02:41.000Z</time></trkpt><trkpt lon="6.028474" lat="51.14364"><ele>22.2</ele><time>2022-05-22T09:02:42.000Z</time></trkpt><trkpt lon="6.028371" lat="51.143668"><ele>22.2</ele><time>2022-05-22T09:02:43.000Z</time></trkpt><trkpt lon="6.028275" lat="51.143691"><ele>22.2</ele><time>2022-05-22T09:02:44.000Z</time></trkpt><trkpt lon="6.028177" lat="51.143718"><ele>22.2</ele><time>2022-05-22T09:02:45.000Z</time></trkpt><trkpt lon="6.028079" lat="51.143741"><ele>22.4</ele><time>2022-05-22T09:02:46.000Z</time></trkpt><trkpt lon="6.027982" lat="51.143764"><ele>22.6</ele><time>2022-05-22T09:02:47.000Z</time></trkpt><trkpt lon="6.027887" lat="51.143787"><ele>22.8</ele><time>2022-05-22T09:02:48.000Z</time></trkpt><trkpt lon="6.027792" lat="51.143805"><ele>22.8</ele><time>2022-05-22T09:02:49.000Z</time></trkpt><trkpt lon="6.027694" lat="51.143828"><ele>23</ele><time>2022-05-22T09:02:50.000Z</time></trkpt><trkpt lon="6.027598" lat="51.143848"><ele>23</ele><time>2022-05-22T09:02:51.000Z</time></trkpt><trkpt lon="6.027499" lat="51.143871"><ele>23.2</ele><time>2022-05-22T09:02:52.000Z</time></trkpt><trkpt lon="6.027397" lat="51.143886"><ele>23.2</ele><time>2022-05-22T09:02:53.000Z</time></trkpt><trkpt lon="6.027289" lat="51.143901"><ele>23</ele><time>2022-05-22T09:02:54.000Z</time></trkpt><trkpt lon="6.027178" lat="51.143913"><ele>23</ele><time>2022-05-22T09:02:55.000Z</time></trkpt><trkpt lon="6.027064" lat="51.143917"><ele>23.2</ele><time>2022-05-22T09:02:56.000Z</time></trkpt><trkpt lon="6.026937" lat="51.143921"><ele>23.2</ele><time>2022-05-22T09:02:57.000Z</time></trkpt><trkpt lon="6.026811" lat="51.143921"><ele>23.2</ele><time>2022-05-22T09:02:58.000Z</time></trkpt><trkpt lon="6.026686" lat="51.143914"><ele>23.4</ele><time>2022-05-22T09:02:59.000Z</time></trkpt><trkpt lon="6.026562" lat="51.143906"><ele>23.2</ele><time>2022-05-22T09:03:00.000Z</time></trkpt><trkpt lon="6.026435" lat="51.143898"><ele>23.2</ele><time>2022-05-22T09:03:01.000Z</time></trkpt><trkpt lon="6.026308" lat="51.143887"><ele>23.2</ele><time>2022-05-22T09:03:02.000Z</time></trkpt><trkpt lon="6.026187" lat="51.143876"><ele>23.2</ele><time>2022-05-22T09:03:03.000Z</time></trkpt><trkpt lon="6.026068" lat="51.143864"><ele>23.2</ele><time>2022-05-22T09:03:04.000Z</time></trkpt><trkpt lon="6.025954" lat="51.143857"><ele>23.2</ele><time>2022-05-22T09:03:05.000Z</time></trkpt><trkpt lon="6.025843" lat="51.143847"><ele>23.2</ele><time>2022-05-22T09:03:06.000Z</time></trkpt><trkpt lon="6.025709" lat="51.14383"><ele>23.2</ele><time>2022-05-22T09:03:07.000Z</time></trkpt><trkpt lon="6.025588" lat="51.143818"><ele>23.2</ele><time>2022-05-22T09:03:08.000Z</time></trkpt><trkpt lon="6.025469" lat="51.143807"><ele>23.2</ele><time>2022-05-22T09:03:09.000Z</time></trkpt><trkpt lon="6.025351" lat="51.143795"><ele>23.4</ele><time>2022-05-22T09:03:10.000Z</time></trkpt><trkpt lon="6.025233" lat="51.143784"><ele>23.2</ele><time>2022-05-22T09:03:11.000Z</time></trkpt><trkpt lon="6.025118" lat="51.143769"><ele>23.2</ele><time>2022-05-22T09:03:12.000Z</time></trkpt><trkpt lon="6.024998" lat="51.143757"><ele>23.2</ele><time>2022-05-22T09:03:13.000Z</time></trkpt><trkpt lon="6.024882" lat="51.143742"><ele>23.2</ele><time>2022-05-22T09:03:14.000Z</time></trkpt><trkpt lon="6.024766" lat="51.14373"><ele>23.2</ele><time>2022-05-22T09:03:15.000Z</time></trkpt><trkpt lon="6.024653" lat="51.143719"><ele>23.2</ele><time>2022-05-22T09:03:16.000Z</time></trkpt><trkpt lon="6.024533" lat="51.143708"><ele>23.4</ele><time>2022-05-22T09:03:17.000Z</time></trkpt><trkpt lon="6.024417" lat="51.143693"><ele>23.4</ele><time>2022-05-22T09:03:18.000Z</time></trkpt><trkpt lon="6.024308" lat="51.143681"><ele>23.6</ele><time>2022-05-22T09:03:19.000Z</time></trkpt><trkpt lon="6.024192" lat="51.143666"><ele>23.6</ele><time>2022-05-22T09:03:20.000Z</time></trkpt><trkpt lon="6.024082" lat="51.143655"><ele>23.6</ele><time>2022-05-22T09:03:21.000Z</time></trkpt><trkpt lon="6.023969" lat="51.143643"><ele>23.6</ele><time>2022-05-22T09:03:22.000Z</time></trkpt><trkpt lon="6.023854" lat="51.143635"><ele>23.6</ele><time>2022-05-22T09:03:23.000Z</time></trkpt><trkpt lon="6.023744" lat="51.143627"><ele>23.6</ele><time>2022-05-22T09:03:24.000Z</time></trkpt><trkpt lon="6.023634" lat="51.14362"><ele>23.6</ele><time>2022-05-22T09:03:25.000Z</time></trkpt><trkpt lon="6.023527" lat="51.143616"><ele>23.8</ele><time>2022-05-22T09:03:26.000Z</time></trkpt><trkpt lon="6.023421" lat="51.143608"><ele>24</ele><time>2022-05-22T09:03:27.000Z</time></trkpt><trkpt lon="6.023311" lat="51.143604"><ele>24.2</ele><time>2022-05-22T09:03:28.000Z</time></trkpt><trkpt lon="6.023211" lat="51.143598"><ele>24.2</ele><time>2022-05-22T09:03:29.000Z</time></trkpt><trkpt lon="6.023092" lat="51.143593"><ele>24.4</ele><time>2022-05-22T09:03:30.000Z</time></trkpt><trkpt lon="6.02299" lat="51.143586"><ele>24.4</ele><time>2022-05-22T09:03:31.000Z</time></trkpt><trkpt lon="6.022875" lat="51.143582"><ele>24.6</ele><time>2022-05-22T09:03:32.000Z</time></trkpt><trkpt lon="6.022757" lat="51.143574"><ele>24.6</ele><time>2022-05-22T09:03:33.000Z</time></trkpt><trkpt lon="6.022645" lat="51.14357"><ele>24.6</ele><time>2022-05-22T09:03:34.000Z</time></trkpt><trkpt lon="6.022534" lat="51.143566"><ele>24.6</ele><time>2022-05-22T09:03:35.000Z</time></trkpt><trkpt lon="6.022423" lat="51.143559"><ele>24.6</ele><time>2022-05-22T09:03:36.000Z</time></trkpt><trkpt lon="6.022315" lat="51.143555"><ele>24.6</ele><time>2022-05-22T09:03:37.000Z</time></trkpt><trkpt lon="6.022206" lat="51.143547"><ele>24.6</ele><time>2022-05-22T09:03:38.000Z</time></trkpt><trkpt lon="6.022094" lat="51.14354"><ele>24.8</ele><time>2022-05-22T09:03:39.000Z</time></trkpt><trkpt lon="6.021985" lat="51.143536"><ele>24.8</ele><time>2022-05-22T09:03:40.000Z</time></trkpt><trkpt lon="6.021874" lat="51.143532"><ele>24.8</ele><time>2022-05-22T09:03:41.000Z</time></trkpt><trkpt lon="6.021765" lat="51.143524"><ele>24.8</ele><time>2022-05-22T09:03:42.000Z</time></trkpt><trkpt lon="6.021654" lat="51.143521"><ele>25</ele><time>2022-05-22T09:03:43.000Z</time></trkpt><trkpt lon="6.021546" lat="51.143517"><ele>25</ele><time>2022-05-22T09:03:44.000Z</time></trkpt><trkpt lon="6.02145" lat="51.143507"><ele>25</ele><time>2022-05-22T09:03:45.000Z</time></trkpt><trkpt lon="6.021336" lat="51.14349"><ele>25</ele><time>2022-05-22T09:03:46.000Z</time></trkpt><trkpt lon="6.021234" lat="51.143479"><ele>24.8</ele><time>2022-05-22T09:03:47.000Z</time></trkpt><trkpt lon="6.02113" lat="51.143467"><ele>24.8</ele><time>2022-05-22T09:03:48.000Z</time></trkpt><trkpt lon="6.021025" lat="51.143463"><ele>24.8</ele><time>2022-05-22T09:03:49.000Z</time></trkpt><trkpt lon="6.020927" lat="51.143463"><ele>24.8</ele><time>2022-05-22T09:03:50.000Z</time></trkpt><trkpt lon="6.020833" lat="51.143463"><ele>24.8</ele><time>2022-05-22T09:03:51.000Z</time></trkpt><trkpt lon="6.020733" lat="51.143463"><ele>24.8</ele><time>2022-05-22T09:03:52.000Z</time></trkpt><trkpt lon="6.020634" lat="51.143456"><ele>24.8</ele><time>2022-05-22T09:03:53.000Z</time></trkpt><trkpt lon="6.020543" lat="51.143455"><ele>25</ele><time>2022-05-22T09:03:54.000Z</time></trkpt><trkpt lon="6.020428" lat="51.143459"><ele>25</ele><time>2022-05-22T09:03:55.000Z</time></trkpt><trkpt lon="6.020325" lat="51.143463"><ele>25</ele><time>2022-05-22T09:03:56.000Z</time></trkpt><trkpt lon="6.020224" lat="51.143463"><ele>25.2</ele><time>2022-05-22T09:03:57.000Z</time></trkpt><trkpt lon="6.020131" lat="51.143467"><ele>25.2</ele><time>2022-05-22T09:03:58.000Z</time></trkpt><trkpt lon="6.020037" lat="51.143471"><ele>25.2</ele><time>2022-05-22T09:03:59.000Z</time></trkpt><trkpt lon="6.019949" lat="51.143478"><ele>25.2</ele><time>2022-05-22T09:04:00.000Z</time></trkpt><trkpt lon="6.019856" lat="51.143486"><ele>25.2</ele><time>2022-05-22T09:04:01.000Z</time></trkpt><trkpt lon="6.019754" lat="51.143493"><ele>25.2</ele><time>2022-05-22T09:04:02.000Z</time></trkpt><trkpt lon="6.019653" lat="51.143516"><ele>25.4</ele><time>2022-05-22T09:04:03.000Z</time></trkpt><trkpt lon="6.019549" lat="51.143538"><ele>25.4</ele><time>2022-05-22T09:04:04.000Z</time></trkpt><trkpt lon="6.019436" lat="51.143554"><ele>25.4</ele><time>2022-05-22T09:04:05.000Z</time></trkpt><trkpt lon="6.019323" lat="51.143562"><ele>25.4</ele><time>2022-05-22T09:04:06.000Z</time></trkpt><trkpt lon="6.019211" lat="51.14357"><ele>25.4</ele><time>2022-05-22T09:04:07.000Z</time></trkpt><trkpt lon="6.01909" lat="51.143581"><ele>25.4</ele><time>2022-05-22T09:04:08.000Z</time></trkpt><trkpt lon="6.018964" lat="51.143589"><ele>25.4</ele><time>2022-05-22T09:04:09.000Z</time></trkpt><trkpt lon="6.018838" lat="51.143593"><ele>25.4</ele><time>2022-05-22T09:04:10.000Z</time></trkpt><trkpt lon="6.01872" lat="51.143604"><ele>25.2</ele><time>2022-05-22T09:04:11.000Z</time></trkpt><trkpt lon="6.018616" lat="51.143608"><ele>25.2</ele><time>2022-05-22T09:04:12.000Z</time></trkpt><trkpt lon="6.018507" lat="51.143608"><ele>25</ele><time>2022-05-22T09:04:13.000Z</time></trkpt><trkpt lon="6.018406" lat="51.143608"><ele>25</ele><time>2022-05-22T09:04:14.000Z</time></trkpt><trkpt lon="6.018281" lat="51.143612"><ele>25</ele><time>2022-05-22T09:04:15.000Z</time></trkpt><trkpt lon="6.018161" lat="51.143619"><ele>25</ele><time>2022-05-22T09:04:16.000Z</time></trkpt><trkpt lon="6.018043" lat="51.143623"><ele>25</ele><time>2022-05-22T09:04:17.000Z</time></trkpt><trkpt lon="6.017925" lat="51.143634"><ele>24.8</ele><time>2022-05-22T09:04:18.000Z</time></trkpt><trkpt lon="6.017807" lat="51.14365"><ele>24.8</ele><time>2022-05-22T09:04:19.000Z</time></trkpt><trkpt lon="6.017693" lat="51.143668"><ele>24.8</ele><time>2022-05-22T09:04:20.000Z</time></trkpt><trkpt lon="6.017576" lat="51.143684"><ele>24.8</ele><time>2022-05-22T09:04:21.000Z</time></trkpt><trkpt lon="6.017461" lat="51.143703"><ele>24.8</ele><time>2022-05-22T09:04:22.000Z</time></trkpt><trkpt lon="6.017344" lat="51.143722"><ele>24.8</ele><time>2022-05-22T09:04:23.000Z</time></trkpt><trkpt lon="6.017225" lat="51.143741"><ele>25</ele><time>2022-05-22T09:04:24.000Z</time></trkpt><trkpt lon="6.017105" lat="51.14376"><ele>25</ele><time>2022-05-22T09:04:25.000Z</time></trkpt><trkpt lon="6.016988" lat="51.143772"><ele>25.2</ele><time>2022-05-22T09:04:26.000Z</time></trkpt><trkpt lon="6.016867" lat="51.143787"><ele>25.2</ele><time>2022-05-22T09:04:27.000Z</time></trkpt><trkpt lon="6.016752" lat="51.143795"><ele>25</ele><time>2022-05-22T09:04:28.000Z</time></trkpt><trkpt lon="6.016642" lat="51.14381"><ele>25</ele><time>2022-05-22T09:04:29.000Z</time></trkpt><trkpt lon="6.016527" lat="51.143825"><ele>24.8</ele><time>2022-05-22T09:04:30.000Z</time></trkpt><trkpt lon="6.016411" lat="51.14384"><ele>24.8</ele><time>2022-05-22T09:04:31.000Z</time></trkpt><trkpt lon="6.016293" lat="51.143856"><ele>24.6</ele><time>2022-05-22T09:04:32.000Z</time></trkpt><trkpt lon="6.016174" lat="51.143871"><ele>24.4</ele><time>2022-05-22T09:04:33.000Z</time></trkpt><trkpt lon="6.016059" lat="51.143886"><ele>24.4</ele><time>2022-05-22T09:04:34.000Z</time></trkpt><trkpt lon="6.015929" lat="51.143905"><ele>24.2</ele><time>2022-05-22T09:04:35.000Z</time></trkpt><trkpt lon="6.015808" lat="51.143921"><ele>24</ele><time>2022-05-22T09:04:36.000Z</time></trkpt><trkpt lon="6.015686" lat="51.143936"><ele>24</ele><time>2022-05-22T09:04:37.000Z</time></trkpt><trkpt lon="6.015566" lat="51.143951"><ele>24.2</ele><time>2022-05-22T09:04:38.000Z</time></trkpt><trkpt lon="6.01544" lat="51.143966"><ele>24.2</ele><time>2022-05-22T09:04:39.000Z</time></trkpt><trkpt lon="6.015326" lat="51.143981"><ele>24.2</ele><time>2022-05-22T09:04:40.000Z</time></trkpt><trkpt lon="6.015203" lat="51.144"><ele>24.2</ele><time>2022-05-22T09:04:41.000Z</time></trkpt><trkpt lon="6.01508" lat="51.144012"><ele>24</ele><time>2022-05-22T09:04:42.000Z</time></trkpt><trkpt lon="6.014954" lat="51.144031"><ele>24</ele><time>2022-05-22T09:04:43.000Z</time></trkpt><trkpt lon="6.014833" lat="51.144046"><ele>24</ele><time>2022-05-22T09:04:44.000Z</time></trkpt><trkpt lon="6.014713" lat="51.144062"><ele>23.8</ele><time>2022-05-22T09:04:45.000Z</time></trkpt><trkpt lon="6.01459" lat="51.144077"><ele>23.8</ele><time>2022-05-22T09:04:46.000Z</time></trkpt><trkpt lon="6.01447" lat="51.144092"><ele>23.8</ele><time>2022-05-22T09:04:47.000Z</time></trkpt><trkpt lon="6.014352" lat="51.144107"><ele>23.8</ele><time>2022-05-22T09:04:48.000Z</time></trkpt><trkpt lon="6.014236" lat="51.144122"><ele>23.8</ele><time>2022-05-22T09:04:49.000Z</time></trkpt><trkpt lon="6.014117" lat="51.144134"><ele>23.8</ele><time>2022-05-22T09:04:50.000Z</time></trkpt><trkpt lon="6.014012" lat="51.144145"><ele>23.8</ele><time>2022-05-22T09:04:51.000Z</time></trkpt><trkpt lon="6.013895" lat="51.144157"><ele>23.8</ele><time>2022-05-22T09:04:52.000Z</time></trkpt><trkpt lon="6.013791" lat="51.144169"><ele>23.8</ele><time>2022-05-22T09:04:53.000Z</time></trkpt><trkpt lon="6.013693" lat="51.14418"><ele>23.8</ele><time>2022-05-22T09:04:54.000Z</time></trkpt><trkpt lon="6.01359" lat="51.144188"><ele>23.8</ele><time>2022-05-22T09:04:55.000Z</time></trkpt><trkpt lon="6.013484" lat="51.144188"><ele>23.8</ele><time>2022-05-22T09:04:56.000Z</time></trkpt><trkpt lon="6.013374" lat="51.144188"><ele>24</ele><time>2022-05-22T09:04:57.000Z</time></trkpt><trkpt lon="6.013268" lat="51.144184"><ele>24</ele><time>2022-05-22T09:04:58.000Z</time></trkpt><trkpt lon="6.01317" lat="51.144188"><ele>23.8</ele><time>2022-05-22T09:04:59.000Z</time></trkpt><trkpt lon="6.013068" lat="51.144192"><ele>23.8</ele><time>2022-05-22T09:05:00.000Z</time></trkpt><trkpt lon="6.012965" lat="51.144195"><ele>23.8</ele><time>2022-05-22T09:05:01.000Z</time></trkpt><trkpt lon="6.012872" lat="51.144203"><ele>23.8</ele><time>2022-05-22T09:05:02.000Z</time></trkpt><trkpt lon="6.012782" lat="51.144207"><ele>23.8</ele><time>2022-05-22T09:05:03.000Z</time></trkpt><trkpt lon="6.012684" lat="51.144218"><ele>23.8</ele><time>2022-05-22T09:05:04.000Z</time></trkpt><trkpt lon="6.012587" lat="51.144226"><ele>23.8</ele><time>2022-05-22T09:05:05.000Z</time></trkpt><trkpt lon="6.012478" lat="51.144234"><ele>23.8</ele><time>2022-05-22T09:05:06.000Z</time></trkpt><trkpt lon="6.01238" lat="51.144241"><ele>24</ele><time>2022-05-22T09:05:07.000Z</time></trkpt><trkpt lon="6.012278" lat="51.144241"><ele>24</ele><time>2022-05-22T09:05:08.000Z</time></trkpt><trkpt lon="6.012184" lat="51.144238"><ele>24</ele><time>2022-05-22T09:05:09.000Z</time></trkpt><trkpt lon="6.012089" lat="51.144238"><ele>24</ele><time>2022-05-22T09:05:10.000Z</time></trkpt><trkpt lon="6.011995" lat="51.144241"><ele>24</ele><time>2022-05-22T09:05:11.000Z</time></trkpt><trkpt lon="6.011899" lat="51.144245"><ele>24</ele><time>2022-05-22T09:05:12.000Z</time></trkpt><trkpt lon="6.011812" lat="51.144256"><ele>24</ele><time>2022-05-22T09:05:13.000Z</time></trkpt><trkpt lon="6.011729" lat="51.144264"><ele>23.8</ele><time>2022-05-22T09:05:14.000Z</time></trkpt><trkpt lon="6.011635" lat="51.144282"><ele>23.8</ele><time>2022-05-22T09:05:15.000Z</time></trkpt><trkpt lon="6.011519" lat="51.144309"><ele>23.6</ele><time>2022-05-22T09:05:16.000Z</time></trkpt><trkpt lon="6.011404" lat="51.144325"><ele>23.4</ele><time>2022-05-22T09:05:17.000Z</time></trkpt><trkpt lon="6.011297" lat="51.144344"><ele>23.2</ele><time>2022-05-22T09:05:18.000Z</time></trkpt><trkpt lon="6.0112" lat="51.144363"><ele>23</ele><time>2022-05-22T09:05:19.000Z</time></trkpt><trkpt lon="6.011096" lat="51.144389"><ele>22.8</ele><time>2022-05-22T09:05:20.000Z</time></trkpt><trkpt lon="6.010985" lat="51.144424"><ele>22.8</ele><time>2022-05-22T09:05:21.000Z</time></trkpt><trkpt lon="6.01087" lat="51.144451"><ele>22.6</ele><time>2022-05-22T09:05:22.000Z</time></trkpt><trkpt lon="6.010754" lat="51.144477"><ele>22.6</ele><time>2022-05-22T09:05:23.000Z</time></trkpt><trkpt lon="6.010652" lat="51.1445"><ele>22.6</ele><time>2022-05-22T09:05:24.000Z</time></trkpt><trkpt lon="6.010544" lat="51.144523"><ele>22.6</ele><time>2022-05-22T09:05:25.000Z</time></trkpt><trkpt lon="6.010439" lat="51.144546"><ele>22.6</ele><time>2022-05-22T09:05:26.000Z</time></trkpt><trkpt lon="6.010336" lat="51.144569"><ele>22.6</ele><time>2022-05-22T09:05:27.000Z</time></trkpt><trkpt lon="6.010235" lat="51.144588"><ele>22.6</ele><time>2022-05-22T09:05:28.000Z</time></trkpt><trkpt lon="6.010123" lat="51.144603"><ele>22.6</ele><time>2022-05-22T09:05:29.000Z</time></trkpt><trkpt lon="6.010019" lat="51.144622"><ele>22.8</ele><time>2022-05-22T09:05:30.000Z</time></trkpt><trkpt lon="6.009939" lat="51.144633"><ele>22.8</ele><time>2022-05-22T09:05:31.000Z</time></trkpt><trkpt lon="6.009837" lat="51.144642"><ele>23</ele><time>2022-05-22T09:05:32.000Z</time></trkpt><trkpt lon="6.009758" lat="51.144656"><ele>23</ele><time>2022-05-22T09:05:33.000Z</time></trkpt><trkpt lon="6.009668" lat="51.144668"><ele>22.8</ele><time>2022-05-22T09:05:34.000Z</time></trkpt><trkpt lon="6.009575" lat="51.14468"><ele>22.4</ele><time>2022-05-22T09:05:35.000Z</time></trkpt><trkpt lon="6.009437" lat="51.144669"><ele>22.4</ele><time>2022-05-22T09:05:36.000Z</time></trkpt><trkpt lon="6.009293" lat="51.144669"><ele>22.2</ele><time>2022-05-22T09:05:37.000Z</time></trkpt><trkpt lon="6.009182" lat="51.144683"><ele>22</ele><time>2022-05-22T09:05:38.000Z</time></trkpt><trkpt lon="6.009068" lat="51.144706"><ele>22</ele><time>2022-05-22T09:05:39.000Z</time></trkpt><trkpt lon="6.008971" lat="51.144733"><ele>22</ele><time>2022-05-22T09:05:40.000Z</time></trkpt><trkpt lon="6.008871" lat="51.144756"><ele>22</ele><time>2022-05-22T09:05:41.000Z</time></trkpt><trkpt lon="6.00877" lat="51.144782"><ele>21.8</ele><time>2022-05-22T09:05:42.000Z</time></trkpt><trkpt lon="6.008666" lat="51.144805"><ele>21.8</ele><time>2022-05-22T09:05:43.000Z</time></trkpt><trkpt lon="6.008544" lat="51.144824"><ele>21.8</ele><time>2022-05-22T09:05:44.000Z</time></trkpt><trkpt lon="6.008413" lat="51.144844"><ele>21.8</ele><time>2022-05-22T09:05:45.000Z</time></trkpt><trkpt lon="6.008302" lat="51.144863"><ele>21.8</ele><time>2022-05-22T09:05:46.000Z</time></trkpt><trkpt lon="6.008196" lat="51.144881"><ele>21.6</ele><time>2022-05-22T09:05:47.000Z</time></trkpt><trkpt lon="6.008093" lat="51.1449"><ele>21.6</ele><time>2022-05-22T09:05:48.000Z</time></trkpt><trkpt lon="6.007986" lat="51.144919"><ele>21.6</ele><time>2022-05-22T09:05:49.000Z</time></trkpt><trkpt lon="6.007881" lat="51.144949"><ele>21.6</ele><time>2022-05-22T09:05:50.000Z</time></trkpt><trkpt lon="6.007752" lat="51.144989"><ele>21.6</ele><time>2022-05-22T09:05:51.000Z</time></trkpt><trkpt lon="6.007624" lat="51.14503"><ele>21.6</ele><time>2022-05-22T09:05:52.000Z</time></trkpt><trkpt lon="6.007518" lat="51.145064"><ele>21.4</ele><time>2022-05-22T09:05:53.000Z</time></trkpt><trkpt lon="6.007426" lat="51.145087"><ele>21.4</ele><time>2022-05-22T09:05:54.000Z</time></trkpt><trkpt lon="6.007266" lat="51.145114"><ele>21.2</ele><time>2022-05-22T09:05:55.000Z</time></trkpt><trkpt lon="6.007143" lat="51.145133"><ele>21.2</ele><time>2022-05-22T09:05:56.000Z</time></trkpt><trkpt lon="6.00703" lat="51.145152"><ele>21.2</ele><time>2022-05-22T09:05:57.000Z</time></trkpt><trkpt lon="6.006925" lat="51.145164"><ele>21.2</ele><time>2022-05-22T09:05:58.000Z</time></trkpt><trkpt lon="6.006801" lat="51.145198"><ele>21.2</ele><time>2022-05-22T09:05:59.000Z</time></trkpt><trkpt lon="6.006678" lat="51.145236"><ele>21.2</ele><time>2022-05-22T09:06:00.000Z</time></trkpt><trkpt lon="6.00655" lat="51.145266"><ele>21.2</ele><time>2022-05-22T09:06:01.000Z</time></trkpt><trkpt lon="6.006434" lat="51.145286"><ele>21.2</ele><time>2022-05-22T09:06:02.000Z</time></trkpt><trkpt lon="6.006316" lat="51.145294"><ele>21.2</ele><time>2022-05-22T09:06:03.000Z</time></trkpt><trkpt lon="6.006221" lat="51.145294"><ele>21.2</ele><time>2022-05-22T09:06:04.000Z</time></trkpt><trkpt lon="6.006114" lat="51.14529"><ele>21.4</ele><time>2022-05-22T09:06:05.000Z</time></trkpt><trkpt lon="6.006034" lat="51.145276"><ele>21.6</ele><time>2022-05-22T09:06:06.000Z</time></trkpt><trkpt lon="6.005983" lat="51.14526"><ele>21.6</ele><time>2022-05-22T09:06:07.000Z</time></trkpt><trkpt lon="6.005951" lat="51.145238"><ele>21.8</ele><time>2022-05-22T09:06:08.000Z</time></trkpt><trkpt lon="6.005918" lat="51.145215"><ele>22</ele><time>2022-05-22T09:06:09.000Z</time></trkpt><trkpt lon="6.005881" lat="51.145199"><ele>22.2</ele><time>2022-05-22T09:06:10.000Z</time></trkpt><trkpt lon="6.005848" lat="51.145188"><ele>22.2</ele><time>2022-05-22T09:06:11.000Z</time></trkpt><trkpt lon="6.005797" lat="51.145184"><ele>22.4</ele><time>2022-05-22T09:06:12.000Z</time></trkpt><trkpt lon="6.005742" lat="51.145173"><ele>22.4</ele><time>2022-05-22T09:06:13.000Z</time></trkpt><trkpt lon="6.005683" lat="51.145161"><ele>22.4</ele><time>2022-05-22T09:06:14.000Z</time></trkpt><trkpt lon="6.005625" lat="51.14515"><ele>22.4</ele><time>2022-05-22T09:06:15.000Z</time></trkpt><trkpt lon="6.005565" lat="51.145134"><ele>22.4</ele><time>2022-05-22T09:06:16.000Z</time></trkpt><trkpt lon="6.005518" lat="51.145127"><ele>22.4</ele><time>2022-05-22T09:06:17.000Z</time></trkpt><trkpt lon="6.005473" lat="51.145123"><ele>22.4</ele><time>2022-05-22T09:06:18.000Z</time></trkpt><trkpt lon="6.005432" lat="51.145129"><ele>22.4</ele><time>2022-05-22T09:06:19.000Z</time></trkpt><trkpt lon="6.005398" lat="51.145141"><ele>22.4</ele><time>2022-05-22T09:06:20.000Z</time></trkpt><trkpt lon="6.005365" lat="51.145163"><ele>22.4</ele><time>2022-05-22T09:06:21.000Z</time></trkpt><trkpt lon="6.005323" lat="51.145179"><ele>22.4</ele><time>2022-05-22T09:06:22.000Z</time></trkpt><trkpt lon="6.005272" lat="51.145202"><ele>22.2</ele><time>2022-05-22T09:06:23.000Z</time></trkpt><trkpt lon="6.00521" lat="51.145214"><ele>22.2</ele><time>2022-05-22T09:06:24.000Z</time></trkpt><trkpt lon="6.005137" lat="51.145218"><ele>22.2</ele><time>2022-05-22T09:06:25.000Z</time></trkpt><trkpt lon="6.005066" lat="51.145207"><ele>22.2</ele><time>2022-05-22T09:06:26.000Z</time></trkpt><trkpt lon="6.004992" lat="51.145184"><ele>22.2</ele><time>2022-05-22T09:06:27.000Z</time></trkpt><trkpt lon="6.004915" lat="51.145161"><ele>22.4</ele><time>2022-05-22T09:06:28.000Z</time></trkpt><trkpt lon="6.00484" lat="51.145135"><ele>22.4</ele><time>2022-05-22T09:06:29.000Z</time></trkpt><trkpt lon="6.004762" lat="51.145108"><ele>22.4</ele><time>2022-05-22T09:06:30.000Z</time></trkpt><trkpt lon="6.004672" lat="51.145089"><ele>22.6</ele><time>2022-05-22T09:06:31.000Z</time></trkpt><trkpt lon="6.004578" lat="51.145066"><ele>22.6</ele><time>2022-05-22T09:06:32.000Z</time></trkpt><trkpt lon="6.004482" lat="51.145047"><ele>22.6</ele><time>2022-05-22T09:06:33.000Z</time></trkpt><trkpt lon="6.004388" lat="51.145024"><ele>22.8</ele><time>2022-05-22T09:06:34.000Z</time></trkpt><trkpt lon="6.004291" lat="51.145001"><ele>22.8</ele><time>2022-05-22T09:06:35.000Z</time></trkpt><trkpt lon="6.004191" lat="51.144982"><ele>22.8</ele><time>2022-05-22T09:06:36.000Z</time></trkpt><trkpt lon="6.004091" lat="51.144959"><ele>23</ele><time>2022-05-22T09:06:37.000Z</time></trkpt><trkpt lon="6.003991" lat="51.144936"><ele>23</ele><time>2022-05-22T09:06:38.000Z</time></trkpt><trkpt lon="6.003893" lat="51.144917"><ele>23.2</ele><time>2022-05-22T09:06:39.000Z</time></trkpt><trkpt lon="6.003792" lat="51.144906"><ele>23.2</ele><time>2022-05-22T09:06:40.000Z</time></trkpt><trkpt lon="6.00369" lat="51.144898"><ele>23.2</ele><time>2022-05-22T09:06:41.000Z</time></trkpt><trkpt lon="6.003588" lat="51.144894"><ele>23.2</ele><time>2022-05-22T09:06:42.000Z</time></trkpt><trkpt lon="6.003484" lat="51.14489"><ele>23.2</ele><time>2022-05-22T09:06:43.000Z</time></trkpt><trkpt lon="6.003382" lat="51.14489"><ele>23</ele><time>2022-05-22T09:06:44.000Z</time></trkpt><trkpt lon="6.00328" lat="51.144883"><ele>23</ele><time>2022-05-22T09:06:45.000Z</time></trkpt><trkpt lon="6.003169" lat="51.144878"><ele>23</ele><time>2022-05-22T09:06:46.000Z</time></trkpt><trkpt lon="6.003065" lat="51.144871"><ele>23</ele><time>2022-05-22T09:06:47.000Z</time></trkpt><trkpt lon="6.002957" lat="51.144867"><ele>23</ele><time>2022-05-22T09:06:48.000Z</time></trkpt><trkpt lon="6.002858" lat="51.14487"><ele>23</ele><time>2022-05-22T09:06:49.000Z</time></trkpt><trkpt lon="6.002741" lat="51.144878"><ele>23.2</ele><time>2022-05-22T09:06:50.000Z</time></trkpt><trkpt lon="6.00263" lat="51.144889"><ele>23</ele><time>2022-05-22T09:06:51.000Z</time></trkpt><trkpt lon="6.002525" lat="51.144904"><ele>23</ele><time>2022-05-22T09:06:52.000Z</time></trkpt><trkpt lon="6.002416" lat="51.144923"><ele>22.8</ele><time>2022-05-22T09:06:53.000Z</time></trkpt><trkpt lon="6.002326" lat="51.144939"><ele>22.8</ele><time>2022-05-22T09:06:54.000Z</time></trkpt><trkpt lon="6.002206" lat="51.144962"><ele>23</ele><time>2022-05-22T09:06:55.000Z</time></trkpt><trkpt lon="6.002106" lat="51.144984"><ele>23</ele><time>2022-05-22T09:06:56.000Z</time></trkpt><trkpt lon="6.002011" lat="51.145007"><ele>23</ele><time>2022-05-22T09:06:57.000Z</time></trkpt><trkpt lon="6.001925" lat="51.145027"><ele>23.2</ele><time>2022-05-22T09:06:58.000Z</time></trkpt><trkpt lon="6.001855" lat="51.145046"><ele>23.2</ele><time>2022-05-22T09:06:59.000Z</time></trkpt><trkpt lon="6.00179" lat="51.145065"><ele>23.4</ele><time>2022-05-22T09:07:00.000Z</time></trkpt><trkpt lon="6.001721" lat="51.145087"><ele>23.4</ele><time>2022-05-22T09:07:01.000Z</time></trkpt><trkpt lon="6.001643" lat="51.14511"><ele>23.4</ele><time>2022-05-22T09:07:02.000Z</time></trkpt><trkpt lon="6.00156" lat="51.145133"><ele>23.4</ele><time>2022-05-22T09:07:03.000Z</time></trkpt><trkpt lon="6.00147" lat="51.145156"><ele>23.4</ele><time>2022-05-22T09:07:04.000Z</time></trkpt><trkpt lon="6.001382" lat="51.145168"><ele>23.4</ele><time>2022-05-22T09:07:05.000Z</time></trkpt><trkpt lon="6.001295" lat="51.145183"><ele>23.4</ele><time>2022-05-22T09:07:06.000Z</time></trkpt><trkpt lon="6.001217" lat="51.145198"><ele>23.4</ele><time>2022-05-22T09:07:07.000Z</time></trkpt><trkpt lon="6.001135" lat="51.14521"><ele>23.4</ele><time>2022-05-22T09:07:08.000Z</time></trkpt><trkpt lon="6.00106" lat="51.145221"><ele>23.4</ele><time>2022-05-22T09:07:09.000Z</time></trkpt><trkpt lon="6.000989" lat="51.145214"><ele>23.4</ele><time>2022-05-22T09:07:10.000Z</time></trkpt><trkpt lon="6.000923" lat="51.145195"><ele>23.4</ele><time>2022-05-22T09:07:11.000Z</time></trkpt><trkpt lon="6.000878" lat="51.145162"><ele>23.2</ele><time>2022-05-22T09:07:12.000Z</time></trkpt><trkpt lon="6.000846" lat="51.145112"><ele>23.2</ele><time>2022-05-22T09:07:13.000Z</time></trkpt><trkpt lon="6.000821" lat="51.14506"><ele>23</ele><time>2022-05-22T09:07:14.000Z</time></trkpt><trkpt lon="6.000796" lat="51.145002"><ele>22.8</ele><time>2022-05-22T09:07:15.000Z</time></trkpt><trkpt lon="6.000766" lat="51.144945"><ele>22.8</ele><time>2022-05-22T09:07:16.000Z</time></trkpt><trkpt lon="6.000736" lat="51.144888"><ele>22.8</ele><time>2022-05-22T09:07:17.000Z</time></trkpt><trkpt lon="6.000701" lat="51.144826"><ele>22.8</ele><time>2022-05-22T09:07:18.000Z</time></trkpt><trkpt lon="6.000666" lat="51.144768"><ele>23</ele><time>2022-05-22T09:07:19.000Z</time></trkpt><trkpt lon="6.000617" lat="51.144701"><ele>23.2</ele><time>2022-05-22T09:07:20.000Z</time></trkpt><trkpt lon="6.000561" lat="51.144645"><ele>23.2</ele><time>2022-05-22T09:07:21.000Z</time></trkpt><trkpt lon="6.000498" lat="51.144594"><ele>23.4</ele><time>2022-05-22T09:07:22.000Z</time></trkpt><trkpt lon="6.000427" lat="51.144548"><ele>23.4</ele><time>2022-05-22T09:07:23.000Z</time></trkpt><trkpt lon="6.000353" lat="51.14451"><ele>23.4</ele><time>2022-05-22T09:07:24.000Z</time></trkpt><trkpt lon="6.000269" lat="51.144471"><ele>23.4</ele><time>2022-05-22T09:07:25.000Z</time></trkpt><trkpt lon="6.000185" lat="51.144429"><ele>23.4</ele><time>2022-05-22T09:07:26.000Z</time></trkpt><trkpt lon="6.000098" lat="51.144399"><ele>23.4</ele><time>2022-05-22T09:07:27.000Z</time></trkpt><trkpt lon="6.000006" lat="51.144368"><ele>23.2</ele><time>2022-05-22T09:07:28.000Z</time></trkpt><trkpt lon="5.999912" lat="51.144349"><ele>23</ele><time>2022-05-22T09:07:29.000Z</time></trkpt><trkpt lon="5.99981" lat="51.144337"><ele>23</ele><time>2022-05-22T09:07:30.000Z</time></trkpt><trkpt lon="5.999708" lat="51.144333"><ele>23.2</ele><time>2022-05-22T09:07:31.000Z</time></trkpt><trkpt lon="5.999604" lat="51.144337"><ele>23.2</ele><time>2022-05-22T09:07:32.000Z</time></trkpt><trkpt lon="5.999505" lat="51.144348"><ele>23.4</ele><time>2022-05-22T09:07:33.000Z</time></trkpt><trkpt lon="5.9994" lat="51.144352"><ele>23.6</ele><time>2022-05-22T09:07:34.000Z</time></trkpt><trkpt lon="5.999303" lat="51.144356"><ele>23.8</ele><time>2022-05-22T09:07:35.000Z</time></trkpt><trkpt lon="5.999209" lat="51.144352"><ele>24</ele><time>2022-05-22T09:07:36.000Z</time></trkpt><trkpt lon="5.999102" lat="51.144356"><ele>24</ele><time>2022-05-22T09:07:37.000Z</time></trkpt><trkpt lon="5.999002" lat="51.144356"><ele>24.2</ele><time>2022-05-22T09:07:38.000Z</time></trkpt><trkpt lon="5.998908" lat="51.144356"><ele>24.4</ele><time>2022-05-22T09:07:39.000Z</time></trkpt><trkpt lon="5.998817" lat="51.144352"><ele>24.6</ele><time>2022-05-22T09:07:40.000Z</time></trkpt><trkpt lon="5.998722" lat="51.144352"><ele>24.8</ele><time>2022-05-22T09:07:41.000Z</time></trkpt><trkpt lon="5.99862" lat="51.144348"><ele>25</ele><time>2022-05-22T09:07:42.000Z</time></trkpt><trkpt lon="5.998514" lat="51.144348"><ele>25.2</ele><time>2022-05-22T09:07:43.000Z</time></trkpt><trkpt lon="5.998411" lat="51.144344"><ele>25.4</ele><time>2022-05-22T09:07:44.000Z</time></trkpt><trkpt lon="5.998311" lat="51.144348"><ele>25.6</ele><time>2022-05-22T09:07:45.000Z</time></trkpt><trkpt lon="5.998209" lat="51.144348"><ele>25.8</ele><time>2022-05-22T09:07:46.000Z</time></trkpt><trkpt lon="5.998106" lat="51.144348"><ele>26</ele><time>2022-05-22T09:07:47.000Z</time></trkpt><trkpt lon="5.997999" lat="51.144348"><ele>26.2</ele><time>2022-05-22T09:07:48.000Z</time></trkpt><trkpt lon="5.997895" lat="51.144344"><ele>26.4</ele><time>2022-05-22T09:07:49.000Z</time></trkpt><trkpt lon="5.997787" lat="51.144341"><ele>26.4</ele><time>2022-05-22T09:07:50.000Z</time></trkpt><trkpt lon="5.997679" lat="51.144341"><ele>26.6</ele><time>2022-05-22T09:07:51.000Z</time></trkpt><trkpt lon="5.997576" lat="51.144337"><ele>26.6</ele><time>2022-05-22T09:07:52.000Z</time></trkpt><trkpt lon="5.997474" lat="51.144333"><ele>26.8</ele><time>2022-05-22T09:07:53.000Z</time></trkpt><trkpt lon="5.997384" lat="51.144327"><ele>26.8</ele><time>2022-05-22T09:07:54.000Z</time></trkpt><trkpt lon="5.997258" lat="51.144322"><ele>26.8</ele><time>2022-05-22T09:07:55.000Z</time></trkpt><trkpt lon="5.997149" lat="51.144314"><ele>27</ele><time>2022-05-22T09:07:56.000Z</time></trkpt><trkpt lon="5.997034" lat="51.144303"><ele>27</ele><time>2022-05-22T09:07:57.000Z</time></trkpt><trkpt lon="5.996925" lat="51.144291"><ele>27</ele><time>2022-05-22T09:07:58.000Z</time></trkpt><trkpt lon="5.996818" lat="51.144276"><ele>27</ele><time>2022-05-22T09:07:59.000Z</time></trkpt><trkpt lon="5.996716" lat="51.144261"><ele>27.2</ele><time>2022-05-22T09:08:00.000Z</time></trkpt><trkpt lon="5.996616" lat="51.144246"><ele>27.2</ele><time>2022-05-22T09:08:01.000Z</time></trkpt><trkpt lon="5.996515" lat="51.144223"><ele>27.2</ele><time>2022-05-22T09:08:02.000Z</time></trkpt><trkpt lon="5.996411" lat="51.1442"><ele>27.2</ele><time>2022-05-22T09:08:03.000Z</time></trkpt><trkpt lon="5.996309" lat="51.144173"><ele>27.4</ele><time>2022-05-22T09:08:04.000Z</time></trkpt><trkpt lon="5.996213" lat="51.144147"><ele>27.4</ele><time>2022-05-22T09:08:05.000Z</time></trkpt><trkpt lon="5.996112" lat="51.14412"><ele>27.4</ele><time>2022-05-22T09:08:06.000Z</time></trkpt><trkpt lon="5.996014" lat="51.144093"><ele>27.2</ele><time>2022-05-22T09:08:07.000Z</time></trkpt><trkpt lon="5.995919" lat="51.144059"><ele>27.4</ele><time>2022-05-22T09:08:08.000Z</time></trkpt><trkpt lon="5.995824" lat="51.144025"><ele>27.4</ele><time>2022-05-22T09:08:09.000Z</time></trkpt><trkpt lon="5.995735" lat="51.143991"><ele>27.4</ele><time>2022-05-22T09:08:10.000Z</time></trkpt><trkpt lon="5.995647" lat="51.143956"><ele>27.4</ele><time>2022-05-22T09:08:11.000Z</time></trkpt><trkpt lon="5.995558" lat="51.143918"><ele>27.4</ele><time>2022-05-22T09:08:12.000Z</time></trkpt><trkpt lon="5.99547" lat="51.14388"><ele>27.6</ele><time>2022-05-22T09:08:13.000Z</time></trkpt><trkpt lon="5.995385" lat="51.143838"><ele>27.6</ele><time>2022-05-22T09:08:14.000Z</time></trkpt><trkpt lon="5.995304" lat="51.143796"><ele>27.6</ele><time>2022-05-22T09:08:15.000Z</time></trkpt><trkpt lon="5.995226" lat="51.14375"><ele>27.4</ele><time>2022-05-22T09:08:16.000Z</time></trkpt><trkpt lon="5.995146" lat="51.143704"><ele>27.4</ele><time>2022-05-22T09:08:17.000Z</time></trkpt><trkpt lon="5.995074" lat="51.143655"><ele>27.6</ele><time>2022-05-22T09:08:18.000Z</time></trkpt><trkpt lon="5.994995" lat="51.143606"><ele>27.6</ele><time>2022-05-22T09:08:19.000Z</time></trkpt><trkpt lon="5.994911" lat="51.143553"><ele>27.6</ele><time>2022-05-22T09:08:20.000Z</time></trkpt><trkpt lon="5.994825" lat="51.143502"><ele>27.6</ele><time>2022-05-22T09:08:21.000Z</time></trkpt><trkpt lon="5.994739" lat="51.143451"><ele>27.6</ele><time>2022-05-22T09:08:22.000Z</time></trkpt><trkpt lon="5.994649" lat="51.1434"><ele>27.6</ele><time>2022-05-22T09:08:23.000Z</time></trkpt><trkpt lon="5.99456" lat="51.143346"><ele>27.6</ele><time>2022-05-22T09:08:24.000Z</time></trkpt><trkpt lon="5.994473" lat="51.143293"><ele>27.6</ele><time>2022-05-22T09:08:25.000Z</time></trkpt><trkpt lon="5.994387" lat="51.143243"><ele>27.6</ele><time>2022-05-22T09:08:26.000Z</time></trkpt><trkpt lon="5.994302" lat="51.143194"><ele>27.6</ele><time>2022-05-22T09:08:27.000Z</time></trkpt><trkpt lon="5.994218" lat="51.143144"><ele>27.6</ele><time>2022-05-22T09:08:28.000Z</time></trkpt><trkpt lon="5.994132" lat="51.143094"><ele>27.6</ele><time>2022-05-22T09:08:29.000Z</time></trkpt><trkpt lon="5.994045" lat="51.143049"><ele>27.6</ele><time>2022-05-22T09:08:30.000Z</time></trkpt><trkpt lon="5.993959" lat="51.143003"><ele>27.6</ele><time>2022-05-22T09:08:31.000Z</time></trkpt><trkpt lon="5.993872" lat="51.142958"><ele>27.6</ele><time>2022-05-22T09:08:32.000Z</time></trkpt><trkpt lon="5.993781" lat="51.142911"><ele>27.8</ele><time>2022-05-22T09:08:33.000Z</time></trkpt><trkpt lon="5.993687" lat="51.142869"><ele>27.6</ele><time>2022-05-22T09:08:34.000Z</time></trkpt><trkpt lon="5.993597" lat="51.142827"><ele>27.6</ele><time>2022-05-22T09:08:35.000Z</time></trkpt><trkpt lon="5.993504" lat="51.142789"><ele>27.6</ele><time>2022-05-22T09:08:36.000Z</time></trkpt><trkpt lon="5.993412" lat="51.142751"><ele>27.6</ele><time>2022-05-22T09:08:37.000Z</time></trkpt><trkpt lon="5.993323" lat="51.142713"><ele>27.6</ele><time>2022-05-22T09:08:38.000Z</time></trkpt><trkpt lon="5.993234" lat="51.142683"><ele>27.6</ele><time>2022-05-22T09:08:39.000Z</time></trkpt><trkpt lon="5.993146" lat="51.142648"><ele>27.6</ele><time>2022-05-22T09:08:40.000Z</time></trkpt><trkpt lon="5.993063" lat="51.142618"><ele>27.6</ele><time>2022-05-22T09:08:41.000Z</time></trkpt><trkpt lon="5.99298" lat="51.142587"><ele>27.6</ele><time>2022-05-22T09:08:42.000Z</time></trkpt><trkpt lon="5.992903" lat="51.14256"><ele>27.8</ele><time>2022-05-22T09:08:43.000Z</time></trkpt><trkpt lon="5.992835" lat="51.14253"><ele>27.8</ele><time>2022-05-22T09:08:44.000Z</time></trkpt><trkpt lon="5.992773" lat="51.142499"><ele>27.8</ele><time>2022-05-22T09:08:45.000Z</time></trkpt><trkpt lon="5.992719" lat="51.142468"><ele>27.8</ele><time>2022-05-22T09:08:46.000Z</time></trkpt><trkpt lon="5.992673" lat="51.142445"><ele>27.8</ele><time>2022-05-22T09:08:47.000Z</time></trkpt><trkpt lon="5.992621" lat="51.142437"><ele>27.8</ele><time>2022-05-22T09:08:48.000Z</time></trkpt><trkpt lon="5.992558" lat="51.142444"><ele>27.8</ele><time>2022-05-22T09:08:49.000Z</time></trkpt><trkpt lon="5.992484" lat="51.142448"><ele>27.8</ele><time>2022-05-22T09:08:50.000Z</time></trkpt><trkpt lon="5.992406" lat="51.142448"><ele>27.6</ele><time>2022-05-22T09:08:51.000Z</time></trkpt><trkpt lon="5.992333" lat="51.142437"><ele>27.6</ele><time>2022-05-22T09:08:52.000Z</time></trkpt><trkpt lon="5.992274" lat="51.142423"><ele>27.6</ele><time>2022-05-22T09:08:53.000Z</time></trkpt><trkpt lon="5.992217" lat="51.142422"><ele>27.6</ele><time>2022-05-22T09:08:54.000Z</time></trkpt><trkpt lon="5.992177" lat="51.142436"><ele>27.6</ele><time>2022-05-22T09:08:55.000Z</time></trkpt><trkpt lon="5.992164" lat="51.142477"><ele>27.6</ele><time>2022-05-22T09:08:56.000Z</time></trkpt><trkpt lon="5.992173" lat="51.142535"><ele>27.6</ele><time>2022-05-22T09:08:57.000Z</time></trkpt><trkpt lon="5.992186" lat="51.142595"><ele>27.6</ele><time>2022-05-22T09:08:58.000Z</time></trkpt><trkpt lon="5.992196" lat="51.142666"><ele>27.6</ele><time>2022-05-22T09:08:59.000Z</time></trkpt><trkpt lon="5.992205" lat="51.142736"><ele>27.6</ele><time>2022-05-22T09:09:00.000Z</time></trkpt><trkpt lon="5.99221" lat="51.142801"><ele>27.6</ele><time>2022-05-22T09:09:01.000Z</time></trkpt><trkpt lon="5.992212" lat="51.142874"><ele>27.6</ele><time>2022-05-22T09:09:02.000Z</time></trkpt><trkpt lon="5.992207" lat="51.142942"><ele>27.6</ele><time>2022-05-22T09:09:03.000Z</time></trkpt><trkpt lon="5.9922" lat="51.143007"><ele>27.6</ele><time>2022-05-22T09:09:04.000Z</time></trkpt><trkpt lon="5.992195" lat="51.143076"><ele>27.6</ele><time>2022-05-22T09:09:05.000Z</time></trkpt><trkpt lon="5.99219" lat="51.143141"><ele>27.6</ele><time>2022-05-22T09:09:06.000Z</time></trkpt><trkpt lon="5.992182" lat="51.143202"><ele>27.6</ele><time>2022-05-22T09:09:07.000Z</time></trkpt><trkpt lon="5.992157" lat="51.143259"><ele>27.4</ele><time>2022-05-22T09:09:08.000Z</time></trkpt><trkpt lon="5.992113" lat="51.143313"><ele>27.2</ele><time>2022-05-22T09:09:09.000Z</time></trkpt><trkpt lon="5.99205" lat="51.143358"><ele>27.2</ele><time>2022-05-22T09:09:10.000Z</time></trkpt><trkpt lon="5.991966" lat="51.143393"><ele>27.2</ele><time>2022-05-22T09:09:11.000Z</time></trkpt><trkpt lon="5.991866" lat="51.14342"><ele>27.4</ele><time>2022-05-22T09:09:12.000Z</time></trkpt><trkpt lon="5.991763" lat="51.143432"><ele>27.4</ele><time>2022-05-22T09:09:13.000Z</time></trkpt><trkpt lon="5.991654" lat="51.143436"><ele>27.2</ele><time>2022-05-22T09:09:14.000Z</time></trkpt><trkpt lon="5.991546" lat="51.14344"><ele>27.4</ele><time>2022-05-22T09:09:15.000Z</time></trkpt><trkpt lon="5.991437" lat="51.143448"><ele>27.4</ele><time>2022-05-22T09:09:16.000Z</time></trkpt><trkpt lon="5.991322" lat="51.143463"><ele>27.4</ele><time>2022-05-22T09:09:17.000Z</time></trkpt><trkpt lon="5.991212" lat="51.143478"><ele>27.2</ele><time>2022-05-22T09:09:18.000Z</time></trkpt><trkpt lon="5.991109" lat="51.143503"><ele>27.2</ele><time>2022-05-22T09:09:19.000Z</time></trkpt><trkpt lon="5.990995" lat="51.143527"><ele>27.2</ele><time>2022-05-22T09:09:20.000Z</time></trkpt><trkpt lon="5.990896" lat="51.143552"><ele>27.2</ele><time>2022-05-22T09:09:21.000Z</time></trkpt><trkpt lon="5.990785" lat="51.143577"><ele>27.2</ele><time>2022-05-22T09:09:22.000Z</time></trkpt><trkpt lon="5.990685" lat="51.143607"><ele>27</ele><time>2022-05-22T09:09:23.000Z</time></trkpt><trkpt lon="5.990588" lat="51.14363"><ele>27</ele><time>2022-05-22T09:09:24.000Z</time></trkpt><trkpt lon="5.990494" lat="51.143653"><ele>26.8</ele><time>2022-05-22T09:09:25.000Z</time></trkpt><trkpt lon="5.990396" lat="51.143676"><ele>26.8</ele><time>2022-05-22T09:09:26.000Z</time></trkpt><trkpt lon="5.990295" lat="51.143703"><ele>26.6</ele><time>2022-05-22T09:09:27.000Z</time></trkpt><trkpt lon="5.990197" lat="51.143722"><ele>26.6</ele><time>2022-05-22T09:09:28.000Z</time></trkpt><trkpt lon="5.990096" lat="51.143745"><ele>26.6</ele><time>2022-05-22T09:09:29.000Z</time></trkpt><trkpt lon="5.989991" lat="51.143768"><ele>26.6</ele><time>2022-05-22T09:09:30.000Z</time></trkpt><trkpt lon="5.989878" lat="51.143791"><ele>26.6</ele><time>2022-05-22T09:09:31.000Z</time></trkpt><trkpt lon="5.989765" lat="51.14382"><ele>26.6</ele><time>2022-05-22T09:09:32.000Z</time></trkpt><trkpt lon="5.989656" lat="51.143855"><ele>26.6</ele><time>2022-05-22T09:09:33.000Z</time></trkpt><trkpt lon="5.989556" lat="51.14389"><ele>26.6</ele><time>2022-05-22T09:09:34.000Z</time></trkpt><trkpt lon="5.989457" lat="51.143931"><ele>26.4</ele><time>2022-05-22T09:09:35.000Z</time></trkpt><trkpt lon="5.989371" lat="51.143972"><ele>26.4</ele><time>2022-05-22T09:09:36.000Z</time></trkpt><trkpt lon="5.989277" lat="51.144011"><ele>26.4</ele><time>2022-05-22T09:09:37.000Z</time></trkpt><trkpt lon="5.989181" lat="51.144053"><ele>26.4</ele><time>2022-05-22T09:09:38.000Z</time></trkpt><trkpt lon="5.989089" lat="51.144092"><ele>26.2</ele><time>2022-05-22T09:09:39.000Z</time></trkpt><trkpt lon="5.988992" lat="51.144134"><ele>26</ele><time>2022-05-22T09:09:40.000Z</time></trkpt><trkpt lon="5.988891" lat="51.144175"><ele>26</ele><time>2022-05-22T09:09:41.000Z</time></trkpt><trkpt lon="5.988793" lat="51.144217"><ele>25.8</ele><time>2022-05-22T09:09:42.000Z</time></trkpt><trkpt lon="5.988692" lat="51.144259"><ele>25.6</ele><time>2022-05-22T09:09:43.000Z</time></trkpt><trkpt lon="5.988588" lat="51.144303"><ele>25.4</ele><time>2022-05-22T09:09:44.000Z</time></trkpt><trkpt lon="5.988476" lat="51.144347"><ele>25.4</ele><time>2022-05-22T09:09:45.000Z</time></trkpt><trkpt lon="5.988366" lat="51.144389"><ele>25.4</ele><time>2022-05-22T09:09:46.000Z</time></trkpt><trkpt lon="5.988255" lat="51.144423"><ele>25.6</ele><time>2022-05-22T09:09:47.000Z</time></trkpt><trkpt lon="5.988137" lat="51.144447"><ele>25.8</ele><time>2022-05-22T09:09:48.000Z</time></trkpt><trkpt lon="5.988023" lat="51.144465"><ele>25.8</ele><time>2022-05-22T09:09:49.000Z</time></trkpt><trkpt lon="5.987904" lat="51.144481"><ele>26</ele><time>2022-05-22T09:09:50.000Z</time></trkpt><trkpt lon="5.987792" lat="51.144496"><ele>26.2</ele><time>2022-05-22T09:09:51.000Z</time></trkpt><trkpt lon="5.987675" lat="51.144508"><ele>26.4</ele><time>2022-05-22T09:09:52.000Z</time></trkpt><trkpt lon="5.987564" lat="51.144516"><ele>26.6</ele><time>2022-05-22T09:09:53.000Z</time></trkpt><trkpt lon="5.987486" lat="51.144519"><ele>26.8</ele><time>2022-05-22T09:09:54.000Z</time></trkpt><trkpt lon="5.987346" lat="51.14452"><ele>26.8</ele><time>2022-05-22T09:09:55.000Z</time></trkpt><trkpt lon="5.987233" lat="51.14452"><ele>26.8</ele><time>2022-05-22T09:09:56.000Z</time></trkpt><trkpt lon="5.987115" lat="51.144516"><ele>27</ele><time>2022-05-22T09:09:57.000Z</time></trkpt><trkpt lon="5.986993" lat="51.144512"><ele>27</ele><time>2022-05-22T09:09:58.000Z</time></trkpt><trkpt lon="5.986872" lat="51.144505"><ele>27</ele><time>2022-05-22T09:09:59.000Z</time></trkpt><trkpt lon="5.986752" lat="51.144494"><ele>27.2</ele><time>2022-05-22T09:10:00.000Z</time></trkpt><trkpt lon="5.986632" lat="51.144482"><ele>27.2</ele><time>2022-05-22T09:10:01.000Z</time></trkpt><trkpt lon="5.986519" lat="51.144471"><ele>27.2</ele><time>2022-05-22T09:10:02.000Z</time></trkpt><trkpt lon="5.986404" lat="51.144455"><ele>27.2</ele><time>2022-05-22T09:10:03.000Z</time></trkpt><trkpt lon="5.986289" lat="51.144444"><ele>27.2</ele><time>2022-05-22T09:10:04.000Z</time></trkpt><trkpt lon="5.986171" lat="51.144436"><ele>27.2</ele><time>2022-05-22T09:10:05.000Z</time></trkpt><trkpt lon="5.986052" lat="51.144428"><ele>27</ele><time>2022-05-22T09:10:06.000Z</time></trkpt><trkpt lon="5.985938" lat="51.144425"><ele>27</ele><time>2022-05-22T09:10:07.000Z</time></trkpt><trkpt lon="5.985822" lat="51.144421"><ele>27</ele><time>2022-05-22T09:10:08.000Z</time></trkpt><trkpt lon="5.985706" lat="51.144417"><ele>27</ele><time>2022-05-22T09:10:09.000Z</time></trkpt><trkpt lon="5.985585" lat="51.144409"><ele>27.2</ele><time>2022-05-22T09:10:10.000Z</time></trkpt><trkpt lon="5.985465" lat="51.144394"><ele>27.2</ele><time>2022-05-22T09:10:11.000Z</time></trkpt><trkpt lon="5.985349" lat="51.144368"><ele>27.4</ele><time>2022-05-22T09:10:12.000Z</time></trkpt><trkpt lon="5.98524" lat="51.144338"><ele>27.4</ele><time>2022-05-22T09:10:13.000Z</time></trkpt><trkpt lon="5.985138" lat="51.144296"><ele>27.6</ele><time>2022-05-22T09:10:14.000Z</time></trkpt><trkpt lon="5.985043" lat="51.144258"><ele>27.6</ele><time>2022-05-22T09:10:15.000Z</time></trkpt><trkpt lon="5.984949" lat="51.144223"><ele>27.6</ele><time>2022-05-22T09:10:16.000Z</time></trkpt><trkpt lon="5.984858" lat="51.144185"><ele>27.6</ele><time>2022-05-22T09:10:17.000Z</time></trkpt><trkpt lon="5.984767" lat="51.144147"><ele>27.6</ele><time>2022-05-22T09:10:18.000Z</time></trkpt><trkpt lon="5.984677" lat="51.144109"><ele>27.6</ele><time>2022-05-22T09:10:19.000Z</time></trkpt><trkpt lon="5.984584" lat="51.144074"><ele>27.6</ele><time>2022-05-22T09:10:20.000Z</time></trkpt><trkpt lon="5.984495" lat="51.144033"><ele>27.6</ele><time>2022-05-22T09:10:21.000Z</time></trkpt><trkpt lon="5.9844" lat="51.144001"><ele>27.4</ele><time>2022-05-22T09:10:22.000Z</time></trkpt><trkpt lon="5.984309" lat="51.143968"><ele>27.4</ele><time>2022-05-22T09:10:23.000Z</time></trkpt><trkpt lon="5.984224" lat="51.143933"><ele>27.4</ele><time>2022-05-22T09:10:24.000Z</time></trkpt><trkpt lon="5.984147" lat="51.143903"><ele>27.4</ele><time>2022-05-22T09:10:25.000Z</time></trkpt><trkpt lon="5.984074" lat="51.143872"><ele>27.4</ele><time>2022-05-22T09:10:26.000Z</time></trkpt><trkpt lon="5.984011" lat="51.143846"><ele>27.4</ele><time>2022-05-22T09:10:27.000Z</time></trkpt><trkpt lon="5.983947" lat="51.143819"><ele>27.4</ele><time>2022-05-22T09:10:28.000Z</time></trkpt><trkpt lon="5.983889" lat="51.143792"><ele>27.4</ele><time>2022-05-22T09:10:29.000Z</time></trkpt><trkpt lon="5.98384" lat="51.143769"><ele>27.4</ele><time>2022-05-22T09:10:30.000Z</time></trkpt><trkpt lon="5.9838" lat="51.14375"><ele>27.4</ele><time>2022-05-22T09:10:31.000Z</time></trkpt><trkpt lon="5.983756" lat="51.143738"><ele>27.4</ele><time>2022-05-22T09:10:32.000Z</time></trkpt><trkpt lon="5.983716" lat="51.143741"><ele>27.4</ele><time>2022-05-22T09:10:33.000Z</time></trkpt><trkpt lon="5.983687" lat="51.143756"><ele>27.2</ele><time>2022-05-22T09:10:34.000Z</time></trkpt><trkpt lon="5.983664" lat="51.143782"><ele>27</ele><time>2022-05-22T09:10:35.000Z</time></trkpt><trkpt lon="5.983657" lat="51.143824"><ele>26.8</ele><time>2022-05-22T09:10:36.000Z</time></trkpt><trkpt lon="5.98365" lat="51.143874"><ele>26.8</ele><time>2022-05-22T09:10:37.000Z</time></trkpt><trkpt lon="5.983643" lat="51.143926"><ele>26.4</ele><time>2022-05-22T09:10:38.000Z</time></trkpt><trkpt lon="5.983632" lat="51.143991"><ele>26.2</ele><time>2022-05-22T09:10:39.000Z</time></trkpt><trkpt lon="5.983624" lat="51.144057"><ele>26</ele><time>2022-05-22T09:10:40.000Z</time></trkpt><trkpt lon="5.983615" lat="51.144124"><ele>25.8</ele><time>2022-05-22T09:10:41.000Z</time></trkpt><trkpt lon="5.983604" lat="51.144188"><ele>25.6</ele><time>2022-05-22T09:10:42.000Z</time></trkpt><trkpt lon="5.98359" lat="51.144255"><ele>25.4</ele><time>2022-05-22T09:10:43.000Z</time></trkpt><trkpt lon="5.983574" lat="51.144327"><ele>25.2</ele><time>2022-05-22T09:10:44.000Z</time></trkpt><trkpt lon="5.983555" lat="51.144396"><ele>25</ele><time>2022-05-22T09:10:45.000Z</time></trkpt><trkpt lon="5.983535" lat="51.144468"><ele>24.8</ele><time>2022-05-22T09:10:46.000Z</time></trkpt><trkpt lon="5.983514" lat="51.144534"><ele>24.8</ele><time>2022-05-22T09:10:47.000Z</time></trkpt><trkpt lon="5.983494" lat="51.144602"><ele>24.6</ele><time>2022-05-22T09:10:48.000Z</time></trkpt><trkpt lon="5.983474" lat="51.144667"><ele>24.4</ele><time>2022-05-22T09:10:49.000Z</time></trkpt><trkpt lon="5.983456" lat="51.144738"><ele>24.4</ele><time>2022-05-22T09:10:50.000Z</time></trkpt><trkpt lon="5.983439" lat="51.144807"><ele>24.2</ele><time>2022-05-22T09:10:51.000Z</time></trkpt><trkpt lon="5.983426" lat="51.144875"><ele>24.2</ele><time>2022-05-22T09:10:52.000Z</time></trkpt><trkpt lon="5.983409" lat="51.144948"><ele>24</ele><time>2022-05-22T09:10:53.000Z</time></trkpt><trkpt lon="5.983397" lat="51.145014"><ele>24</ele><time>2022-05-22T09:10:54.000Z</time></trkpt><trkpt lon="5.983386" lat="51.145078"><ele>24</ele><time>2022-05-22T09:10:55.000Z</time></trkpt><trkpt lon="5.983372" lat="51.145143"><ele>23.8</ele><time>2022-05-22T09:10:56.000Z</time></trkpt><trkpt lon="5.983359" lat="51.145208"><ele>23.8</ele><time>2022-05-22T09:10:57.000Z</time></trkpt><trkpt lon="5.983342" lat="51.145273"><ele>23.8</ele><time>2022-05-22T09:10:58.000Z</time></trkpt><trkpt lon="5.983329" lat="51.145334"><ele>23.6</ele><time>2022-05-22T09:10:59.000Z</time></trkpt><trkpt lon="5.983316" lat="51.145394"><ele>23.6</ele><time>2022-05-22T09:11:00.000Z</time></trkpt><trkpt lon="5.983298" lat="51.145456"><ele>23.6</ele><time>2022-05-22T09:11:01.000Z</time></trkpt><trkpt lon="5.983283" lat="51.145512"><ele>23.6</ele><time>2022-05-22T09:11:02.000Z</time></trkpt><trkpt lon="5.983269" lat="51.145564"><ele>23.6</ele><time>2022-05-22T09:11:03.000Z</time></trkpt><trkpt lon="5.983245" lat="51.145601"><ele>23.8</ele><time>2022-05-22T09:11:04.000Z</time></trkpt><trkpt lon="5.983208" lat="51.14564"><ele>23.8</ele><time>2022-05-22T09:11:05.000Z</time></trkpt><trkpt lon="5.983161" lat="51.145667"><ele>23.8</ele><time>2022-05-22T09:11:06.000Z</time></trkpt><trkpt lon="5.983104" lat="51.14569"><ele>23.6</ele><time>2022-05-22T09:11:07.000Z</time></trkpt><trkpt lon="5.983031" lat="51.145717"><ele>23.6</ele><time>2022-05-22T09:11:08.000Z</time></trkpt><trkpt lon="5.982953" lat="51.145743"><ele>23.8</ele><time>2022-05-22T09:11:09.000Z</time></trkpt><trkpt lon="5.982867" lat="51.145774"><ele>23.8</ele><time>2022-05-22T09:11:10.000Z</time></trkpt><trkpt lon="5.982771" lat="51.145797"><ele>24.2</ele><time>2022-05-22T09:11:11.000Z</time></trkpt><trkpt lon="5.982675" lat="51.14582"><ele>24.4</ele><time>2022-05-22T09:11:12.000Z</time></trkpt><trkpt lon="5.982582" lat="51.145839"><ele>24.6</ele><time>2022-05-22T09:11:13.000Z</time></trkpt><trkpt lon="5.982492" lat="51.145858"><ele>24.8</ele><time>2022-05-22T09:11:14.000Z</time></trkpt><trkpt lon="5.982411" lat="51.145874"><ele>25.2</ele><time>2022-05-22T09:11:15.000Z</time></trkpt><trkpt lon="5.982335" lat="51.145892"><ele>25.4</ele><time>2022-05-22T09:11:16.000Z</time></trkpt><trkpt lon="5.982254" lat="51.145908"><ele>25.6</ele><time>2022-05-22T09:11:17.000Z</time></trkpt><trkpt lon="5.982171" lat="51.14593"><ele>25.8</ele><time>2022-05-22T09:11:18.000Z</time></trkpt><trkpt lon="5.982075" lat="51.145961"><ele>25.8</ele><time>2022-05-22T09:11:19.000Z</time></trkpt><trkpt lon="5.981974" lat="51.145988"><ele>25.6</ele><time>2022-05-22T09:11:20.000Z</time></trkpt><trkpt lon="5.981874" lat="51.146015"><ele>25.4</ele><time>2022-05-22T09:11:21.000Z</time></trkpt><trkpt lon="5.981779" lat="51.146039"><ele>25.4</ele><time>2022-05-22T09:11:22.000Z</time></trkpt><trkpt lon="5.981666" lat="51.146072"><ele>25.4</ele><time>2022-05-22T09:11:23.000Z</time></trkpt><trkpt lon="5.981563" lat="51.146095"><ele>25.2</ele><time>2022-05-22T09:11:24.000Z</time></trkpt><trkpt lon="5.98146" lat="51.146114"><ele>25</ele><time>2022-05-22T09:11:25.000Z</time></trkpt><trkpt lon="5.981351" lat="51.146133"><ele>25</ele><time>2022-05-22T09:11:26.000Z</time></trkpt><trkpt lon="5.981241" lat="51.146152"><ele>25</ele><time>2022-05-22T09:11:27.000Z</time></trkpt><trkpt lon="5.981138" lat="51.146171"><ele>25</ele><time>2022-05-22T09:11:28.000Z</time></trkpt><trkpt lon="5.981034" lat="51.146193"><ele>25.2</ele><time>2022-05-22T09:11:29.000Z</time></trkpt><trkpt lon="5.980924" lat="51.146216"><ele>25.4</ele><time>2022-05-22T09:11:30.000Z</time></trkpt><trkpt lon="5.980826" lat="51.146243"><ele>25.6</ele><time>2022-05-22T09:11:31.000Z</time></trkpt><trkpt lon="5.980731" lat="51.14627"><ele>26</ele><time>2022-05-22T09:11:32.000Z</time></trkpt><trkpt lon="5.980626" lat="51.146297"><ele>26.2</ele><time>2022-05-22T09:11:33.000Z</time></trkpt><trkpt lon="5.980517" lat="51.146338"><ele>26.2</ele><time>2022-05-22T09:11:34.000Z</time></trkpt><trkpt lon="5.980395" lat="51.146384"><ele>26.4</ele><time>2022-05-22T09:11:35.000Z</time></trkpt><trkpt lon="5.980278" lat="51.146411"><ele>26.4</ele><time>2022-05-22T09:11:36.000Z</time></trkpt><trkpt lon="5.980159" lat="51.146449"><ele>26.4</ele><time>2022-05-22T09:11:37.000Z</time></trkpt><trkpt lon="5.980041" lat="51.146479"><ele>26.6</ele><time>2022-05-22T09:11:38.000Z</time></trkpt><trkpt lon="5.979924" lat="51.146506"><ele>26.6</ele><time>2022-05-22T09:11:39.000Z</time></trkpt><trkpt lon="5.979809" lat="51.146537"><ele>26.8</ele><time>2022-05-22T09:11:40.000Z</time></trkpt><trkpt lon="5.979692" lat="51.146564"><ele>26.8</ele><time>2022-05-22T09:11:41.000Z</time></trkpt><trkpt lon="5.979578" lat="51.146594"><ele>26.8</ele><time>2022-05-22T09:11:42.000Z</time></trkpt><trkpt lon="5.979461" lat="51.146621"><ele>26.8</ele><time>2022-05-22T09:11:43.000Z</time></trkpt><trkpt lon="5.979352" lat="51.146651"><ele>26.8</ele><time>2022-05-22T09:11:44.000Z</time></trkpt><trkpt lon="5.979241" lat="51.146682"><ele>26.8</ele><time>2022-05-22T09:11:45.000Z</time></trkpt><trkpt lon="5.979134" lat="51.146709"><ele>26.8</ele><time>2022-05-22T09:11:46.000Z</time></trkpt><trkpt lon="5.979025" lat="51.146732"><ele>26.8</ele><time>2022-05-22T09:11:47.000Z</time></trkpt><trkpt lon="5.978923" lat="51.146758"><ele>26.8</ele><time>2022-05-22T09:11:48.000Z</time></trkpt><trkpt lon="5.978818" lat="51.146781"><ele>26.8</ele><time>2022-05-22T09:11:49.000Z</time></trkpt><trkpt lon="5.97871" lat="51.146804"><ele>26.8</ele><time>2022-05-22T09:11:50.000Z</time></trkpt><trkpt lon="5.978602" lat="51.146827"><ele>26.8</ele><time>2022-05-22T09:11:51.000Z</time></trkpt><trkpt lon="5.978493" lat="51.146846"><ele>27</ele><time>2022-05-22T09:11:52.000Z</time></trkpt><trkpt lon="5.978381" lat="51.14688"><ele>27</ele><time>2022-05-22T09:11:53.000Z</time></trkpt><trkpt lon="5.978272" lat="51.146907"><ele>27</ele><time>2022-05-22T09:11:54.000Z</time></trkpt><trkpt lon="5.978163" lat="51.146934"><ele>27</ele><time>2022-05-22T09:11:55.000Z</time></trkpt><trkpt lon="5.978055" lat="51.14696"><ele>27.2</ele><time>2022-05-22T09:11:56.000Z</time></trkpt><trkpt lon="5.977957" lat="51.146986"><ele>27.2</ele><time>2022-05-22T09:11:57.000Z</time></trkpt><trkpt lon="5.977847" lat="51.147013"><ele>27.2</ele><time>2022-05-22T09:11:58.000Z</time></trkpt><trkpt lon="5.97774" lat="51.147041"><ele>27.2</ele><time>2022-05-22T09:11:59.000Z</time></trkpt><trkpt lon="5.977634" lat="51.147067"><ele>27.2</ele><time>2022-05-22T09:12:00.000Z</time></trkpt><trkpt lon="5.977527" lat="51.147094"><ele>27.2</ele><time>2022-05-22T09:12:01.000Z</time></trkpt><trkpt lon="5.977418" lat="51.147121"><ele>27.2</ele><time>2022-05-22T09:12:02.000Z</time></trkpt><trkpt lon="5.977312" lat="51.147151"><ele>27.2</ele><time>2022-05-22T09:12:03.000Z</time></trkpt><trkpt lon="5.977203" lat="51.147178"><ele>27.2</ele><time>2022-05-22T09:12:04.000Z</time></trkpt><trkpt lon="5.977099" lat="51.147208"><ele>27.2</ele><time>2022-05-22T09:12:05.000Z</time></trkpt><trkpt lon="5.976993" lat="51.147235"><ele>27.2</ele><time>2022-05-22T09:12:06.000Z</time></trkpt><trkpt lon="5.97689" lat="51.147262"><ele>27.2</ele><time>2022-05-22T09:12:07.000Z</time></trkpt><trkpt lon="5.976785" lat="51.147288"><ele>27</ele><time>2022-05-22T09:12:08.000Z</time></trkpt><trkpt lon="5.976679" lat="51.147315"><ele>27</ele><time>2022-05-22T09:12:09.000Z</time></trkpt><trkpt lon="5.976573" lat="51.147342"><ele>27</ele><time>2022-05-22T09:12:10.000Z</time></trkpt><trkpt lon="5.976469" lat="51.147369"><ele>27</ele><time>2022-05-22T09:12:11.000Z</time></trkpt><trkpt lon="5.976363" lat="51.147395"><ele>27</ele><time>2022-05-22T09:12:12.000Z</time></trkpt><trkpt lon="5.976255" lat="51.147422"><ele>27</ele><time>2022-05-22T09:12:13.000Z</time></trkpt><trkpt lon="5.976147" lat="51.147449"><ele>27</ele><time>2022-05-22T09:12:14.000Z</time></trkpt><trkpt lon="5.976038" lat="51.147472"><ele>27</ele><time>2022-05-22T09:12:15.000Z</time></trkpt><trkpt lon="5.97593" lat="51.147498"><ele>27</ele><time>2022-05-22T09:12:16.000Z</time></trkpt><trkpt lon="5.975822" lat="51.147525"><ele>27</ele><time>2022-05-22T09:12:17.000Z</time></trkpt><trkpt lon="5.975713" lat="51.147552"><ele>27.2</ele><time>2022-05-22T09:12:18.000Z</time></trkpt><trkpt lon="5.975635" lat="51.147571"><ele>27.2</ele><time>2022-05-22T09:12:19.000Z</time></trkpt><trkpt lon="5.975499" lat="51.147608"><ele>27.2</ele><time>2022-05-22T09:12:20.000Z</time></trkpt><trkpt lon="5.975388" lat="51.147636"><ele>27.2</ele><time>2022-05-22T09:12:21.000Z</time></trkpt><trkpt lon="5.975285" lat="51.147662"><ele>27.2</ele><time>2022-05-22T09:12:22.000Z</time></trkpt><trkpt lon="5.975176" lat="51.147689"><ele>27.2</ele><time>2022-05-22T09:12:23.000Z</time></trkpt><trkpt lon="5.975074" lat="51.147715"><ele>27</ele><time>2022-05-22T09:12:24.000Z</time></trkpt><trkpt lon="5.974969" lat="51.147742"><ele>27</ele><time>2022-05-22T09:12:25.000Z</time></trkpt><trkpt lon="5.974863" lat="51.147769"><ele>27</ele><time>2022-05-22T09:12:26.000Z</time></trkpt><trkpt lon="5.974761" lat="51.147792"><ele>27.2</ele><time>2022-05-22T09:12:27.000Z</time></trkpt><trkpt lon="5.97466" lat="51.147819"><ele>27.2</ele><time>2022-05-22T09:12:28.000Z</time></trkpt><trkpt lon="5.97456" lat="51.147842"><ele>27.2</ele><time>2022-05-22T09:12:29.000Z</time></trkpt><trkpt lon="5.974461" lat="51.147868"><ele>27.2</ele><time>2022-05-22T09:12:30.000Z</time></trkpt><trkpt lon="5.974363" lat="51.147891"><ele>27.2</ele><time>2022-05-22T09:12:31.000Z</time></trkpt><trkpt lon="5.974264" lat="51.147918"><ele>27</ele><time>2022-05-22T09:12:32.000Z</time></trkpt><trkpt lon="5.97416" lat="51.147945"><ele>27</ele><time>2022-05-22T09:12:33.000Z</time></trkpt><trkpt lon="5.974055" lat="51.147971"><ele>26.8</ele><time>2022-05-22T09:12:34.000Z</time></trkpt><trkpt lon="5.97395" lat="51.147994"><ele>26.6</ele><time>2022-05-22T09:12:35.000Z</time></trkpt><trkpt lon="5.973847" lat="51.14802"><ele>26.4</ele><time>2022-05-22T09:12:36.000Z</time></trkpt><trkpt lon="5.973739" lat="51.148044"><ele>26</ele><time>2022-05-22T09:12:37.000Z</time></trkpt><trkpt lon="5.973637" lat="51.14807"><ele>26</ele><time>2022-05-22T09:12:38.000Z</time></trkpt><trkpt lon="5.973535" lat="51.14809"><ele>25.8</ele><time>2022-05-22T09:12:39.000Z</time></trkpt><trkpt lon="5.973433" lat="51.148113"><ele>25.6</ele><time>2022-05-22T09:12:40.000Z</time></trkpt><trkpt lon="5.973332" lat="51.148139"><ele>25.4</ele><time>2022-05-22T09:12:41.000Z</time></trkpt><trkpt lon="5.97323" lat="51.148165"><ele>25.4</ele><time>2022-05-22T09:12:42.000Z</time></trkpt><trkpt lon="5.973124" lat="51.148193"><ele>25.2</ele><time>2022-05-22T09:12:43.000Z</time></trkpt><trkpt lon="5.97302" lat="51.148223"><ele>25.2</ele><time>2022-05-22T09:12:44.000Z</time></trkpt><trkpt lon="5.972917" lat="51.14825"><ele>25.2</ele><time>2022-05-22T09:12:45.000Z</time></trkpt><trkpt lon="5.97281" lat="51.148276"><ele>25.2</ele><time>2022-05-22T09:12:46.000Z</time></trkpt><trkpt lon="5.972704" lat="51.148307"><ele>25.2</ele><time>2022-05-22T09:12:47.000Z</time></trkpt><trkpt lon="5.972596" lat="51.148334"><ele>25</ele><time>2022-05-22T09:12:48.000Z</time></trkpt><trkpt lon="5.972483" lat="51.148364"><ele>25</ele><time>2022-05-22T09:12:49.000Z</time></trkpt><trkpt lon="5.97237" lat="51.148391"><ele>25</ele><time>2022-05-22T09:12:50.000Z</time></trkpt><trkpt lon="5.972252" lat="51.148421"><ele>25</ele><time>2022-05-22T09:12:51.000Z</time></trkpt><trkpt lon="5.97213" lat="51.148451"><ele>25</ele><time>2022-05-22T09:12:52.000Z</time></trkpt><trkpt lon="5.972006" lat="51.148482"><ele>25</ele><time>2022-05-22T09:12:53.000Z</time></trkpt><trkpt lon="5.971882" lat="51.148513"><ele>25</ele><time>2022-05-22T09:12:54.000Z</time></trkpt><trkpt lon="5.971762" lat="51.148543"><ele>25</ele><time>2022-05-22T09:12:55.000Z</time></trkpt><trkpt lon="5.971645" lat="51.14857"><ele>25.2</ele><time>2022-05-22T09:12:56.000Z</time></trkpt><trkpt lon="5.97153" lat="51.148601"><ele>25.2</ele><time>2022-05-22T09:12:57.000Z</time></trkpt><trkpt lon="5.971417" lat="51.148627"><ele>25.4</ele><time>2022-05-22T09:12:58.000Z</time></trkpt><trkpt lon="5.971307" lat="51.148658"><ele>25.4</ele><time>2022-05-22T09:12:59.000Z</time></trkpt><trkpt lon="5.971199" lat="51.148685"><ele>25.6</ele><time>2022-05-22T09:13:00.000Z</time></trkpt><trkpt lon="5.971092" lat="51.148711"><ele>25.6</ele><time>2022-05-22T09:13:01.000Z</time></trkpt><trkpt lon="5.970986" lat="51.148734"><ele>25.6</ele><time>2022-05-22T09:13:02.000Z</time></trkpt><trkpt lon="5.970882" lat="51.148761"><ele>25.6</ele><time>2022-05-22T09:13:03.000Z</time></trkpt><trkpt lon="5.970778" lat="51.148788"><ele>25.6</ele><time>2022-05-22T09:13:04.000Z</time></trkpt><trkpt lon="5.970677" lat="51.148814"><ele>25.6</ele><time>2022-05-22T09:13:05.000Z</time></trkpt><trkpt lon="5.970577" lat="51.148845"><ele>25.6</ele><time>2022-05-22T09:13:06.000Z</time></trkpt><trkpt lon="5.97048" lat="51.148871"><ele>25.8</ele><time>2022-05-22T09:13:07.000Z</time></trkpt><trkpt lon="5.970382" lat="51.148894"><ele>25.8</ele><time>2022-05-22T09:13:08.000Z</time></trkpt><trkpt lon="5.970284" lat="51.148921"><ele>25.8</ele><time>2022-05-22T09:13:09.000Z</time></trkpt><trkpt lon="5.970188" lat="51.148944"><ele>25.8</ele><time>2022-05-22T09:13:10.000Z</time></trkpt><trkpt lon="5.970093" lat="51.148967"><ele>26</ele><time>2022-05-22T09:13:11.000Z</time></trkpt><trkpt lon="5.969998" lat="51.14899"><ele>26</ele><time>2022-05-22T09:13:12.000Z</time></trkpt><trkpt lon="5.969902" lat="51.149016"><ele>26</ele><time>2022-05-22T09:13:13.000Z</time></trkpt><trkpt lon="5.969803" lat="51.149039"><ele>26</ele><time>2022-05-22T09:13:14.000Z</time></trkpt><trkpt lon="5.9697" lat="51.149062"><ele>26</ele><time>2022-05-22T09:13:15.000Z</time></trkpt><trkpt lon="5.969597" lat="51.149089"><ele>25.8</ele><time>2022-05-22T09:13:16.000Z</time></trkpt><trkpt lon="5.969492" lat="51.149116"><ele>25.8</ele><time>2022-05-22T09:13:17.000Z</time></trkpt><trkpt lon="5.969387" lat="51.149142"><ele>25.6</ele><time>2022-05-22T09:13:18.000Z</time></trkpt><trkpt lon="5.969275" lat="51.149169"><ele>25.4</ele><time>2022-05-22T09:13:19.000Z</time></trkpt><trkpt lon="5.969168" lat="51.149195"><ele>25.4</ele><time>2022-05-22T09:13:20.000Z</time></trkpt><trkpt lon="5.969053" lat="51.149226"><ele>25.4</ele><time>2022-05-22T09:13:21.000Z</time></trkpt><trkpt lon="5.968944" lat="51.149257"><ele>25.6</ele><time>2022-05-22T09:13:22.000Z</time></trkpt><trkpt lon="5.968837" lat="51.149284"><ele>25.8</ele><time>2022-05-22T09:13:23.000Z</time></trkpt><trkpt lon="5.96873" lat="51.149307"><ele>25.8</ele><time>2022-05-22T09:13:24.000Z</time></trkpt><trkpt lon="5.968629" lat="51.149332"><ele>26</ele><time>2022-05-22T09:13:25.000Z</time></trkpt><trkpt lon="5.968522" lat="51.14936"><ele>26</ele><time>2022-05-22T09:13:26.000Z</time></trkpt><trkpt lon="5.968421" lat="51.149386"><ele>26.2</ele><time>2022-05-22T09:13:27.000Z</time></trkpt><trkpt lon="5.968318" lat="51.149413"><ele>26.4</ele><time>2022-05-22T09:13:28.000Z</time></trkpt><trkpt lon="5.968217" lat="51.149436"><ele>26.4</ele><time>2022-05-22T09:13:29.000Z</time></trkpt><trkpt lon="5.968114" lat="51.149463"><ele>26.6</ele><time>2022-05-22T09:13:30.000Z</time></trkpt><trkpt lon="5.968011" lat="51.149489"><ele>26.6</ele><time>2022-05-22T09:13:31.000Z</time></trkpt><trkpt lon="5.967906" lat="51.149516"><ele>26.6</ele><time>2022-05-22T09:13:32.000Z</time></trkpt><trkpt lon="5.9678" lat="51.149539"><ele>26.6</ele><time>2022-05-22T09:13:33.000Z</time></trkpt><trkpt lon="5.967693" lat="51.149566"><ele>26.8</ele><time>2022-05-22T09:13:34.000Z</time></trkpt><trkpt lon="5.967588" lat="51.149589"><ele>26.8</ele><time>2022-05-22T09:13:35.000Z</time></trkpt><trkpt lon="5.967485" lat="51.149615"><ele>26.8</ele><time>2022-05-22T09:13:36.000Z</time></trkpt><trkpt lon="5.967383" lat="51.149638"><ele>26.8</ele><time>2022-05-22T09:13:37.000Z</time></trkpt><trkpt lon="5.967283" lat="51.149665"><ele>26.8</ele><time>2022-05-22T09:13:38.000Z</time></trkpt><trkpt lon="5.967179" lat="51.149692"><ele>26.8</ele><time>2022-05-22T09:13:39.000Z</time></trkpt><trkpt lon="5.967074" lat="51.149718"><ele>26.6</ele><time>2022-05-22T09:13:40.000Z</time></trkpt><trkpt lon="5.966967" lat="51.149745"><ele>26.6</ele><time>2022-05-22T09:13:41.000Z</time></trkpt><trkpt lon="5.966857" lat="51.149772"><ele>26.4</ele><time>2022-05-22T09:13:42.000Z</time></trkpt><trkpt lon="5.966749" lat="51.149798"><ele>26.4</ele><time>2022-05-22T09:13:43.000Z</time></trkpt><trkpt lon="5.966633" lat="51.149825"><ele>26.4</ele><time>2022-05-22T09:13:44.000Z</time></trkpt><trkpt lon="5.966521" lat="51.149856"><ele>26.4</ele><time>2022-05-22T09:13:45.000Z</time></trkpt><trkpt lon="5.966415" lat="51.149882"><ele>26.4</ele><time>2022-05-22T09:13:46.000Z</time></trkpt><trkpt lon="5.966309" lat="51.149909"><ele>26.4</ele><time>2022-05-22T09:13:47.000Z</time></trkpt><trkpt lon="5.966204" lat="51.149932"><ele>26.4</ele><time>2022-05-22T09:13:48.000Z</time></trkpt><trkpt lon="5.966101" lat="51.149959"><ele>26.6</ele><time>2022-05-22T09:13:49.000Z</time></trkpt><trkpt lon="5.965998" lat="51.149985"><ele>26.6</ele><time>2022-05-22T09:13:50.000Z</time></trkpt><trkpt lon="5.965896" lat="51.150012"><ele>26.6</ele><time>2022-05-22T09:13:51.000Z</time></trkpt><trkpt lon="5.965795" lat="51.150038"><ele>26.4</ele><time>2022-05-22T09:13:52.000Z</time></trkpt><trkpt lon="5.965691" lat="51.150065"><ele>26.4</ele><time>2022-05-22T09:13:53.000Z</time></trkpt><trkpt lon="5.965581" lat="51.150092"><ele>26.4</ele><time>2022-05-22T09:13:54.000Z</time></trkpt><trkpt lon="5.965473" lat="51.150119"><ele>26.4</ele><time>2022-05-22T09:13:55.000Z</time></trkpt><trkpt lon="5.965362" lat="51.150146"><ele>26.4</ele><time>2022-05-22T09:13:56.000Z</time></trkpt><trkpt lon="5.965254" lat="51.150172"><ele>26.2</ele><time>2022-05-22T09:13:57.000Z</time></trkpt><trkpt lon="5.965145" lat="51.150199"><ele>26.2</ele><time>2022-05-22T09:13:58.000Z</time></trkpt><trkpt lon="5.965035" lat="51.150226"><ele>26.2</ele><time>2022-05-22T09:13:59.000Z</time></trkpt><trkpt lon="5.964925" lat="51.150252"><ele>26.2</ele><time>2022-05-22T09:14:00.000Z</time></trkpt><trkpt lon="5.964814" lat="51.150279"><ele>26.2</ele><time>2022-05-22T09:14:01.000Z</time></trkpt><trkpt lon="5.964704" lat="51.150305"><ele>26.2</ele><time>2022-05-22T09:14:02.000Z</time></trkpt><trkpt lon="5.964592" lat="51.150336"><ele>26.2</ele><time>2022-05-22T09:14:03.000Z</time></trkpt><trkpt lon="5.964482" lat="51.150363"><ele>26</ele><time>2022-05-22T09:14:04.000Z</time></trkpt><trkpt lon="5.964373" lat="51.15039"><ele>26</ele><time>2022-05-22T09:14:05.000Z</time></trkpt><trkpt lon="5.96426" lat="51.150416"><ele>26</ele><time>2022-05-22T09:14:06.000Z</time></trkpt><trkpt lon="5.964151" lat="51.150439"><ele>26</ele><time>2022-05-22T09:14:07.000Z</time></trkpt><trkpt lon="5.96404" lat="51.150466"><ele>26</ele><time>2022-05-22T09:14:08.000Z</time></trkpt><trkpt lon="5.963934" lat="51.150493"><ele>26</ele><time>2022-05-22T09:14:09.000Z</time></trkpt><trkpt lon="5.963828" lat="51.150516"><ele>26</ele><time>2022-05-22T09:14:10.000Z</time></trkpt><trkpt lon="5.963726" lat="51.150542"><ele>26</ele><time>2022-05-22T09:14:11.000Z</time></trkpt><trkpt lon="5.963627" lat="51.150569"><ele>26</ele><time>2022-05-22T09:14:12.000Z</time></trkpt><trkpt lon="5.963528" lat="51.150592"><ele>26.2</ele><time>2022-05-22T09:14:13.000Z</time></trkpt><trkpt lon="5.963428" lat="51.150619"><ele>26.2</ele><time>2022-05-22T09:14:14.000Z</time></trkpt><trkpt lon="5.96333" lat="51.150641"><ele>26.4</ele><time>2022-05-22T09:14:15.000Z</time></trkpt><trkpt lon="5.963229" lat="51.150664"><ele>26.4</ele><time>2022-05-22T09:14:16.000Z</time></trkpt><trkpt lon="5.963128" lat="51.150687"><ele>26.6</ele><time>2022-05-22T09:14:17.000Z</time></trkpt><trkpt lon="5.963026" lat="51.150714"><ele>26.6</ele><time>2022-05-22T09:14:18.000Z</time></trkpt><trkpt lon="5.962924" lat="51.150737"><ele>26.8</ele><time>2022-05-22T09:14:19.000Z</time></trkpt><trkpt lon="5.962821" lat="51.150764"><ele>26.8</ele><time>2022-05-22T09:14:20.000Z</time></trkpt><trkpt lon="5.962718" lat="51.150787"><ele>27</ele><time>2022-05-22T09:14:21.000Z</time></trkpt><trkpt lon="5.962614" lat="51.15081"><ele>27</ele><time>2022-05-22T09:14:22.000Z</time></trkpt><trkpt lon="5.962516" lat="51.150832"><ele>27</ele><time>2022-05-22T09:14:23.000Z</time></trkpt><trkpt lon="5.962416" lat="51.150848"><ele>27.2</ele><time>2022-05-22T09:14:24.000Z</time></trkpt><trkpt lon="5.962318" lat="51.150871"><ele>27.2</ele><time>2022-05-22T09:14:25.000Z</time></trkpt><trkpt lon="5.962218" lat="51.15089"><ele>27.2</ele><time>2022-05-22T09:14:26.000Z</time></trkpt><trkpt lon="5.962114" lat="51.150909"><ele>27.4</ele><time>2022-05-22T09:14:27.000Z</time></trkpt><trkpt lon="5.962008" lat="51.150924"><ele>27.2</ele><time>2022-05-22T09:14:28.000Z</time></trkpt><trkpt lon="5.961898" lat="51.150939"><ele>27.2</ele><time>2022-05-22T09:14:29.000Z</time></trkpt><trkpt lon="5.96179" lat="51.150955"><ele>27.2</ele><time>2022-05-22T09:14:30.000Z</time></trkpt><trkpt lon="5.961686" lat="51.150966"><ele>27.2</ele><time>2022-05-22T09:14:31.000Z</time></trkpt><trkpt lon="5.961573" lat="51.150981"><ele>27</ele><time>2022-05-22T09:14:32.000Z</time></trkpt><trkpt lon="5.961459" lat="51.150993"><ele>26.8</ele><time>2022-05-22T09:14:33.000Z</time></trkpt><trkpt lon="5.961348" lat="51.151004"><ele>26.8</ele><time>2022-05-22T09:14:34.000Z</time></trkpt><trkpt lon="5.961242" lat="51.151016"><ele>26.8</ele><time>2022-05-22T09:14:35.000Z</time></trkpt><trkpt lon="5.961134" lat="51.151031"><ele>26.8</ele><time>2022-05-22T09:14:36.000Z</time></trkpt><trkpt lon="5.961024" lat="51.151046"><ele>26.8</ele><time>2022-05-22T09:14:37.000Z</time></trkpt><trkpt lon="5.960916" lat="51.151058"><ele>26.8</ele><time>2022-05-22T09:14:38.000Z</time></trkpt><trkpt lon="5.960805" lat="51.151073"><ele>26.8</ele><time>2022-05-22T09:14:39.000Z</time></trkpt><trkpt lon="5.960699" lat="51.151084"><ele>27</ele><time>2022-05-22T09:14:40.000Z</time></trkpt><trkpt lon="5.960594" lat="51.151099"><ele>27</ele><time>2022-05-22T09:14:41.000Z</time></trkpt><trkpt lon="5.960482" lat="51.151111"><ele>27</ele><time>2022-05-22T09:14:42.000Z</time></trkpt><trkpt lon="5.960375" lat="51.151126"><ele>27</ele><time>2022-05-22T09:14:43.000Z</time></trkpt><trkpt lon="5.960269" lat="51.151142"><ele>27.2</ele><time>2022-05-22T09:14:44.000Z</time></trkpt><trkpt lon="5.960162" lat="51.151153"><ele>27.2</ele><time>2022-05-22T09:14:45.000Z</time></trkpt><trkpt lon="5.960054" lat="51.151168"><ele>27.2</ele><time>2022-05-22T09:14:46.000Z</time></trkpt><trkpt lon="5.959947" lat="51.15118"><ele>27.4</ele><time>2022-05-22T09:14:47.000Z</time></trkpt><trkpt lon="5.959839" lat="51.151195"><ele>27.4</ele><time>2022-05-22T09:14:48.000Z</time></trkpt><trkpt lon="5.959731" lat="51.151207"><ele>27.2</ele><time>2022-05-22T09:14:49.000Z</time></trkpt><trkpt lon="5.959624" lat="51.151218"><ele>27.2</ele><time>2022-05-22T09:14:50.000Z</time></trkpt><trkpt lon="5.959518" lat="51.15123"><ele>27.4</ele><time>2022-05-22T09:14:51.000Z</time></trkpt><trkpt lon="5.95941" lat="51.151245"><ele>27.4</ele><time>2022-05-22T09:14:52.000Z</time></trkpt><trkpt lon="5.959301" lat="51.151256"><ele>27.4</ele><time>2022-05-22T09:14:53.000Z</time></trkpt><trkpt lon="5.959194" lat="51.151268"><ele>27.6</ele><time>2022-05-22T09:14:54.000Z</time></trkpt><trkpt lon="5.959084" lat="51.151283"><ele>27.8</ele><time>2022-05-22T09:14:55.000Z</time></trkpt><trkpt lon="5.958972" lat="51.151294"><ele>27.8</ele><time>2022-05-22T09:14:56.000Z</time></trkpt><trkpt lon="5.958862" lat="51.151309"><ele>27.8</ele><time>2022-05-22T09:14:57.000Z</time></trkpt><trkpt lon="5.95875" lat="51.151325"><ele>28</ele><time>2022-05-22T09:14:58.000Z</time></trkpt><trkpt lon="5.958639" lat="51.151336"><ele>28</ele><time>2022-05-22T09:14:59.000Z</time></trkpt><trkpt lon="5.958528" lat="51.151351"><ele>28.2</ele><time>2022-05-22T09:15:00.000Z</time></trkpt><trkpt lon="5.958417" lat="51.151366"><ele>28.2</ele><time>2022-05-22T09:15:01.000Z</time></trkpt><trkpt lon="5.958303" lat="51.151378"><ele>28.2</ele><time>2022-05-22T09:15:02.000Z</time></trkpt><trkpt lon="5.958192" lat="51.15139"><ele>28</ele><time>2022-05-22T09:15:03.000Z</time></trkpt><trkpt lon="5.958082" lat="51.151405"><ele>27.8</ele><time>2022-05-22T09:15:04.000Z</time></trkpt><trkpt lon="5.957972" lat="51.15142"><ele>27.6</ele><time>2022-05-22T09:15:05.000Z</time></trkpt><trkpt lon="5.957862" lat="51.151432"><ele>27.4</ele><time>2022-05-22T09:15:06.000Z</time></trkpt><trkpt lon="5.957754" lat="51.151446"><ele>27.2</ele><time>2022-05-22T09:15:07.000Z</time></trkpt><trkpt lon="5.957641" lat="51.151458"><ele>27</ele><time>2022-05-22T09:15:08.000Z</time></trkpt><trkpt lon="5.957528" lat="51.151473"><ele>26.8</ele><time>2022-05-22T09:15:09.000Z</time></trkpt><trkpt lon="5.95741" lat="51.151485"><ele>26.8</ele><time>2022-05-22T09:15:10.000Z</time></trkpt><trkpt lon="5.957297" lat="51.151497"><ele>26.8</ele><time>2022-05-22T09:15:11.000Z</time></trkpt><trkpt lon="5.957188" lat="51.151508"><ele>26.8</ele><time>2022-05-22T09:15:12.000Z</time></trkpt><trkpt lon="5.957072" lat="51.151523"><ele>27</ele><time>2022-05-22T09:15:13.000Z</time></trkpt><trkpt lon="5.956961" lat="51.151538"><ele>27</ele><time>2022-05-22T09:15:14.000Z</time></trkpt><trkpt lon="5.956845" lat="51.151554"><ele>27</ele><time>2022-05-22T09:15:15.000Z</time></trkpt><trkpt lon="5.956732" lat="51.151569"><ele>26.8</ele><time>2022-05-22T09:15:16.000Z</time></trkpt><trkpt lon="5.956622" lat="51.151584"><ele>26.8</ele><time>2022-05-22T09:15:17.000Z</time></trkpt><trkpt lon="5.95651" lat="51.151599"><ele>26.6</ele><time>2022-05-22T09:15:18.000Z</time></trkpt><trkpt lon="5.956398" lat="51.151615"><ele>26.4</ele><time>2022-05-22T09:15:19.000Z</time></trkpt><trkpt lon="5.956287" lat="51.151626"><ele>26.4</ele><time>2022-05-22T09:15:20.000Z</time></trkpt><trkpt lon="5.956177" lat="51.151641"><ele>26.2</ele><time>2022-05-22T09:15:21.000Z</time></trkpt><trkpt lon="5.956069" lat="51.151657"><ele>26.2</ele><time>2022-05-22T09:15:22.000Z</time></trkpt><trkpt lon="5.955963" lat="51.151675"><ele>26.2</ele><time>2022-05-22T09:15:23.000Z</time></trkpt><trkpt lon="5.955852" lat="51.151691"><ele>26.2</ele><time>2022-05-22T09:15:24.000Z</time></trkpt><trkpt lon="5.955738" lat="51.151706"><ele>26</ele><time>2022-05-22T09:15:25.000Z</time></trkpt><trkpt lon="5.955628" lat="51.151721"><ele>26.2</ele><time>2022-05-22T09:15:26.000Z</time></trkpt><trkpt lon="5.955515" lat="51.151737"><ele>26.4</ele><time>2022-05-22T09:15:27.000Z</time></trkpt><trkpt lon="5.955402" lat="51.151756"><ele>26.4</ele><time>2022-05-22T09:15:28.000Z</time></trkpt><trkpt lon="5.95529" lat="51.151775"><ele>26.4</ele><time>2022-05-22T09:15:29.000Z</time></trkpt><trkpt lon="5.955181" lat="51.151794"><ele>26.2</ele><time>2022-05-22T09:15:30.000Z</time></trkpt><trkpt lon="5.955073" lat="51.151813"><ele>26</ele><time>2022-05-22T09:15:31.000Z</time></trkpt><trkpt lon="5.954965" lat="51.151835"><ele>26</ele><time>2022-05-22T09:15:32.000Z</time></trkpt><trkpt lon="5.954854" lat="51.151859"><ele>25.8</ele><time>2022-05-22T09:15:33.000Z</time></trkpt><trkpt lon="5.954744" lat="51.151878"><ele>26</ele><time>2022-05-22T09:15:34.000Z</time></trkpt><trkpt lon="5.95463" lat="51.151901"><ele>26</ele><time>2022-05-22T09:15:35.000Z</time></trkpt><trkpt lon="5.954517" lat="51.15192"><ele>26</ele><time>2022-05-22T09:15:36.000Z</time></trkpt><trkpt lon="5.954405" lat="51.151946"><ele>26.2</ele><time>2022-05-22T09:15:37.000Z</time></trkpt><trkpt lon="5.954289" lat="51.151969"><ele>26.2</ele><time>2022-05-22T09:15:38.000Z</time></trkpt><trkpt lon="5.954177" lat="51.151992"><ele>26</ele><time>2022-05-22T09:15:39.000Z</time></trkpt><trkpt lon="5.954063" lat="51.152015"><ele>26</ele><time>2022-05-22T09:15:40.000Z</time></trkpt><trkpt lon="5.953951" lat="51.152038"><ele>26</ele><time>2022-05-22T09:15:41.000Z</time></trkpt><trkpt lon="5.953833" lat="51.152061"><ele>26</ele><time>2022-05-22T09:15:42.000Z</time></trkpt><trkpt lon="5.953714" lat="51.152087"><ele>26</ele><time>2022-05-22T09:15:43.000Z</time></trkpt><trkpt lon="5.9536" lat="51.15211"><ele>26</ele><time>2022-05-22T09:15:44.000Z</time></trkpt><trkpt lon="5.953482" lat="51.152133"><ele>26</ele><time>2022-05-22T09:15:45.000Z</time></trkpt><trkpt lon="5.953369" lat="51.152156"><ele>26</ele><time>2022-05-22T09:15:46.000Z</time></trkpt><trkpt lon="5.953256" lat="51.152172"><ele>26</ele><time>2022-05-22T09:15:47.000Z</time></trkpt><trkpt lon="5.95314" lat="51.152191"><ele>26</ele><time>2022-05-22T09:15:48.000Z</time></trkpt><trkpt lon="5.953024" lat="51.15221"><ele>26</ele><time>2022-05-22T09:15:49.000Z</time></trkpt><trkpt lon="5.952914" lat="51.152221"><ele>26</ele><time>2022-05-22T09:15:50.000Z</time></trkpt><trkpt lon="5.952792" lat="51.152233"><ele>26</ele><time>2022-05-22T09:15:51.000Z</time></trkpt><trkpt lon="5.952679" lat="51.152237"><ele>26.2</ele><time>2022-05-22T09:15:52.000Z</time></trkpt><trkpt lon="5.952561" lat="51.152244"><ele>26.2</ele><time>2022-05-22T09:15:53.000Z</time></trkpt><trkpt lon="5.952449" lat="51.152248"><ele>26.2</ele><time>2022-05-22T09:15:54.000Z</time></trkpt><trkpt lon="5.952331" lat="51.152248"><ele>26.2</ele><time>2022-05-22T09:15:55.000Z</time></trkpt><trkpt lon="5.952216" lat="51.152248"><ele>26.4</ele><time>2022-05-22T09:15:56.000Z</time></trkpt><trkpt lon="5.952099" lat="51.152248"><ele>26.4</ele><time>2022-05-22T09:15:57.000Z</time></trkpt><trkpt lon="5.951982" lat="51.152248"><ele>26.6</ele><time>2022-05-22T09:15:58.000Z</time></trkpt><trkpt lon="5.951866" lat="51.152245"><ele>26.6</ele><time>2022-05-22T09:15:59.000Z</time></trkpt><trkpt lon="5.951749" lat="51.152237"><ele>26.6</ele><time>2022-05-22T09:16:00.000Z</time></trkpt><trkpt lon="5.951632" lat="51.152226"><ele>26.6</ele><time>2022-05-22T09:16:01.000Z</time></trkpt><trkpt lon="5.951516" lat="51.152218"><ele>26.6</ele><time>2022-05-22T09:16:02.000Z</time></trkpt><trkpt lon="5.951399" lat="51.152207"><ele>26.6</ele><time>2022-05-22T09:16:03.000Z</time></trkpt><trkpt lon="5.951285" lat="51.152195"><ele>26.4</ele><time>2022-05-22T09:16:04.000Z</time></trkpt><trkpt lon="5.951174" lat="51.152188"><ele>26.4</ele><time>2022-05-22T09:16:05.000Z</time></trkpt><trkpt lon="5.951055" lat="51.152176"><ele>26.4</ele><time>2022-05-22T09:16:06.000Z</time></trkpt><trkpt lon="5.950941" lat="51.152169"><ele>26.4</ele><time>2022-05-22T09:16:07.000Z</time></trkpt><trkpt lon="5.950826" lat="51.152157"><ele>26.4</ele><time>2022-05-22T09:16:08.000Z</time></trkpt><trkpt lon="5.950711" lat="51.152146"><ele>26.4</ele><time>2022-05-22T09:16:09.000Z</time></trkpt><trkpt lon="5.950594" lat="51.152134"><ele>26.4</ele><time>2022-05-22T09:16:10.000Z</time></trkpt><trkpt lon="5.95048" lat="51.152127"><ele>26.6</ele><time>2022-05-22T09:16:11.000Z</time></trkpt><trkpt lon="5.950369" lat="51.152115"><ele>26.6</ele><time>2022-05-22T09:16:12.000Z</time></trkpt><trkpt lon="5.950259" lat="51.152104"><ele>26.6</ele><time>2022-05-22T09:16:13.000Z</time></trkpt><trkpt lon="5.950149" lat="51.152092"><ele>26.6</ele><time>2022-05-22T09:16:14.000Z</time></trkpt><trkpt lon="5.95004" lat="51.152081"><ele>26.6</ele><time>2022-05-22T09:16:15.000Z</time></trkpt><trkpt lon="5.949932" lat="51.152073"><ele>26.8</ele><time>2022-05-22T09:16:16.000Z</time></trkpt><trkpt lon="5.949825" lat="51.152062"><ele>26.8</ele><time>2022-05-22T09:16:17.000Z</time></trkpt><trkpt lon="5.94972" lat="51.15205"><ele>26.8</ele><time>2022-05-22T09:16:18.000Z</time></trkpt><trkpt lon="5.949618" lat="51.152043"><ele>26.8</ele><time>2022-05-22T09:16:19.000Z</time></trkpt><trkpt lon="5.949514" lat="51.152035"><ele>26.8</ele><time>2022-05-22T09:16:20.000Z</time></trkpt><trkpt lon="5.949411" lat="51.152024"><ele>26.8</ele><time>2022-05-22T09:16:21.000Z</time></trkpt><trkpt lon="5.94931" lat="51.15202"><ele>26.6</ele><time>2022-05-22T09:16:22.000Z</time></trkpt><trkpt lon="5.949217" lat="51.15202"><ele>26.6</ele><time>2022-05-22T09:16:23.000Z</time></trkpt><trkpt lon="5.949124" lat="51.152023"><ele>26.6</ele><time>2022-05-22T09:16:24.000Z</time></trkpt><trkpt lon="5.949038" lat="51.152038"><ele>26.4</ele><time>2022-05-22T09:16:25.000Z</time></trkpt><trkpt lon="5.948964" lat="51.152061"><ele>26.4</ele><time>2022-05-22T09:16:26.000Z</time></trkpt><trkpt lon="5.948899" lat="51.152098"><ele>26.2</ele><time>2022-05-22T09:16:27.000Z</time></trkpt><trkpt lon="5.948839" lat="51.152144"><ele>26.2</ele><time>2022-05-22T09:16:28.000Z</time></trkpt><trkpt lon="5.948777" lat="51.152193"><ele>26.2</ele><time>2022-05-22T09:16:29.000Z</time></trkpt><trkpt lon="5.948709" lat="51.152238"><ele>26.2</ele><time>2022-05-22T09:16:30.000Z</time></trkpt><trkpt lon="5.948631" lat="51.152284"><ele>26.2</ele><time>2022-05-22T09:16:31.000Z</time></trkpt><trkpt lon="5.948541" lat="51.152319"><ele>26</ele><time>2022-05-22T09:16:32.000Z</time></trkpt><trkpt lon="5.94844" lat="51.152347"><ele>25.8</ele><time>2022-05-22T09:16:33.000Z</time></trkpt><trkpt lon="5.948332" lat="51.152366"><ele>25.8</ele><time>2022-05-22T09:16:34.000Z</time></trkpt><trkpt lon="5.948217" lat="51.152374"><ele>26</ele><time>2022-05-22T09:16:35.000Z</time></trkpt><trkpt lon="5.948101" lat="51.152382"><ele>26</ele><time>2022-05-22T09:16:36.000Z</time></trkpt><trkpt lon="5.947984" lat="51.152382"><ele>26</ele><time>2022-05-22T09:16:37.000Z</time></trkpt><trkpt lon="5.947865" lat="51.152386"><ele>26</ele><time>2022-05-22T09:16:38.000Z</time></trkpt><trkpt lon="5.947744" lat="51.152389"><ele>26.2</ele><time>2022-05-22T09:16:39.000Z</time></trkpt><trkpt lon="5.947628" lat="51.15239"><ele>26.2</ele><time>2022-05-22T09:16:40.000Z</time></trkpt><trkpt lon="5.947511" lat="51.152393"><ele>26.2</ele><time>2022-05-22T09:16:41.000Z</time></trkpt><trkpt lon="5.947399" lat="51.152393"><ele>26.4</ele><time>2022-05-22T09:16:42.000Z</time></trkpt><trkpt lon="5.947284" lat="51.152397"><ele>26.4</ele><time>2022-05-22T09:16:43.000Z</time></trkpt><trkpt lon="5.947169" lat="51.152405"><ele>26.4</ele><time>2022-05-22T09:16:44.000Z</time></trkpt><trkpt lon="5.947066" lat="51.152412"><ele>26.6</ele><time>2022-05-22T09:16:45.000Z</time></trkpt><trkpt lon="5.946972" lat="51.15243"><ele>26.8</ele><time>2022-05-22T09:16:46.000Z</time></trkpt><trkpt lon="5.94688" lat="51.152457"><ele>26.8</ele><time>2022-05-22T09:16:47.000Z</time></trkpt><trkpt lon="5.946797" lat="51.152495"><ele>26.8</ele><time>2022-05-22T09:16:48.000Z</time></trkpt><trkpt lon="5.946721" lat="51.152536"><ele>26.8</ele><time>2022-05-22T09:16:49.000Z</time></trkpt><trkpt lon="5.946651" lat="51.152578"><ele>26.8</ele><time>2022-05-22T09:16:50.000Z</time></trkpt><trkpt lon="5.94657" lat="51.15263"><ele>26.8</ele><time>2022-05-22T09:16:51.000Z</time></trkpt><trkpt lon="5.946491" lat="51.152682"><ele>26.8</ele><time>2022-05-22T09:16:52.000Z</time></trkpt><trkpt lon="5.94642" lat="51.152727"><ele>26.8</ele><time>2022-05-22T09:16:53.000Z</time></trkpt><trkpt lon="5.946345" lat="51.152777"><ele>26.8</ele><time>2022-05-22T09:16:54.000Z</time></trkpt><trkpt lon="5.946275" lat="51.152826"><ele>26.8</ele><time>2022-05-22T09:16:55.000Z</time></trkpt><trkpt lon="5.946207" lat="51.152873"><ele>26.8</ele><time>2022-05-22T09:16:56.000Z</time></trkpt><trkpt lon="5.946148" lat="51.15293"><ele>26.8</ele><time>2022-05-22T09:16:57.000Z</time></trkpt><trkpt lon="5.946092" lat="51.152983"><ele>26.8</ele><time>2022-05-22T09:16:58.000Z</time></trkpt><trkpt lon="5.946027" lat="51.153033"><ele>26.8</ele><time>2022-05-22T09:16:59.000Z</time></trkpt><trkpt lon="5.94596" lat="51.153078"><ele>26.8</ele><time>2022-05-22T09:17:00.000Z</time></trkpt><trkpt lon="5.945894" lat="51.153117"><ele>26.8</ele><time>2022-05-22T09:17:01.000Z</time></trkpt><trkpt lon="5.945828" lat="51.153159"><ele>26.8</ele><time>2022-05-22T09:17:02.000Z</time></trkpt><trkpt lon="5.945768" lat="51.153197"><ele>26.8</ele><time>2022-05-22T09:17:03.000Z</time></trkpt><trkpt lon="5.94571" lat="51.153239"><ele>26.8</ele><time>2022-05-22T09:17:04.000Z</time></trkpt><trkpt lon="5.945653" lat="51.153277"><ele>26.6</ele><time>2022-05-22T09:17:05.000Z</time></trkpt><trkpt lon="5.945598" lat="51.153314"><ele>26.6</ele><time>2022-05-22T09:17:06.000Z</time></trkpt><trkpt lon="5.945541" lat="51.15336"><ele>26.6</ele><time>2022-05-22T09:17:07.000Z</time></trkpt><trkpt lon="5.945483" lat="51.153403"><ele>26.4</ele><time>2022-05-22T09:17:08.000Z</time></trkpt><trkpt lon="5.94543" lat="51.153445"><ele>26.4</ele><time>2022-05-22T09:17:09.000Z</time></trkpt><trkpt lon="5.945386" lat="51.153483"><ele>26.2</ele><time>2022-05-22T09:17:10.000Z</time></trkpt><trkpt lon="5.945356" lat="51.153525"><ele>26.2</ele><time>2022-05-22T09:17:11.000Z</time></trkpt><trkpt lon="5.945347" lat="51.153563"><ele>26.2</ele><time>2022-05-22T09:17:12.000Z</time></trkpt><trkpt lon="5.945351" lat="51.15359"><ele>26</ele><time>2022-05-22T09:17:13.000Z</time></trkpt><trkpt lon="5.945365" lat="51.153621"><ele>26</ele><time>2022-05-22T09:17:14.000Z</time></trkpt><trkpt lon="5.945383" lat="51.153643"><ele>25.8</ele><time>2022-05-22T09:17:15.000Z</time></trkpt><trkpt lon="5.945393" lat="51.153663"><ele>25.8</ele><time>2022-05-22T09:17:16.000Z</time></trkpt><trkpt lon="5.945382" lat="51.15369"><ele>25.6</ele><time>2022-05-22T09:17:17.000Z</time></trkpt><trkpt lon="5.945351" lat="51.153713"><ele>25.6</ele><time>2022-05-22T09:17:18.000Z</time></trkpt><trkpt lon="5.945314" lat="51.153735"><ele>25.6</ele><time>2022-05-22T09:17:19.000Z</time></trkpt><trkpt lon="5.945273" lat="51.153758"><ele>25.4</ele><time>2022-05-22T09:17:20.000Z</time></trkpt><trkpt lon="5.945227" lat="51.153781"><ele>25.4</ele><time>2022-05-22T09:17:21.000Z</time></trkpt><trkpt lon="5.945174" lat="51.153804"><ele>25.4</ele><time>2022-05-22T09:17:22.000Z</time></trkpt><trkpt lon="5.945112" lat="51.153808"><ele>25.4</ele><time>2022-05-22T09:17:23.000Z</time></trkpt><trkpt lon="5.945048" lat="51.153809"><ele>25.4</ele><time>2022-05-22T09:17:24.000Z</time></trkpt><trkpt lon="5.944987" lat="51.153812"><ele>25.4</ele><time>2022-05-22T09:17:25.000Z</time></trkpt><trkpt lon="5.944922" lat="51.15382"><ele>25.4</ele><time>2022-05-22T09:17:26.000Z</time></trkpt><trkpt lon="5.944862" lat="51.153831"><ele>25.4</ele><time>2022-05-22T09:17:27.000Z</time></trkpt><trkpt lon="5.944804" lat="51.153846"><ele>25.4</ele><time>2022-05-22T09:17:28.000Z</time></trkpt><trkpt lon="5.944748" lat="51.153858"><ele>25.4</ele><time>2022-05-22T09:17:29.000Z</time></trkpt><trkpt lon="5.944692" lat="51.153873"><ele>25.4</ele><time>2022-05-22T09:17:30.000Z</time></trkpt><trkpt lon="5.944632" lat="51.153888"><ele>25.4</ele><time>2022-05-22T09:17:31.000Z</time></trkpt><trkpt lon="5.944566" lat="51.153903"><ele>25.4</ele><time>2022-05-22T09:17:32.000Z</time></trkpt><trkpt lon="5.944494" lat="51.153926"><ele>25.2</ele><time>2022-05-22T09:17:33.000Z</time></trkpt><trkpt lon="5.94442" lat="51.153953"><ele>25</ele><time>2022-05-22T09:17:34.000Z</time></trkpt><trkpt lon="5.944346" lat="51.15399"><ele>25</ele><time>2022-05-22T09:17:35.000Z</time></trkpt><trkpt lon="5.944267" lat="51.154028"><ele>25</ele><time>2022-05-22T09:17:36.000Z</time></trkpt><trkpt lon="5.944185" lat="51.154067"><ele>25</ele><time>2022-05-22T09:17:37.000Z</time></trkpt><trkpt lon="5.944102" lat="51.154105"><ele>25</ele><time>2022-05-22T09:17:38.000Z</time></trkpt><trkpt lon="5.944018" lat="51.154136"><ele>25</ele><time>2022-05-22T09:17:39.000Z</time></trkpt><trkpt lon="5.94393" lat="51.15417"><ele>25</ele><time>2022-05-22T09:17:40.000Z</time></trkpt><trkpt lon="5.94384" lat="51.154197"><ele>25</ele><time>2022-05-22T09:17:41.000Z</time></trkpt><trkpt lon="5.943748" lat="51.154226"><ele>25</ele><time>2022-05-22T09:17:42.000Z</time></trkpt><trkpt lon="5.943646" lat="51.154254"><ele>25</ele><time>2022-05-22T09:17:43.000Z</time></trkpt><trkpt lon="5.943546" lat="51.154288"><ele>25</ele><time>2022-05-22T09:17:44.000Z</time></trkpt><trkpt lon="5.943449" lat="51.154318"><ele>25</ele><time>2022-05-22T09:17:45.000Z</time></trkpt><trkpt lon="5.943347" lat="51.154353"><ele>25</ele><time>2022-05-22T09:17:46.000Z</time></trkpt><trkpt lon="5.94325" lat="51.154387"><ele>25</ele><time>2022-05-22T09:17:47.000Z</time></trkpt><trkpt lon="5.94316" lat="51.154419"><ele>24.8</ele><time>2022-05-22T09:17:48.000Z</time></trkpt><trkpt lon="5.94305" lat="51.154452"><ele>24.8</ele><time>2022-05-22T09:17:49.000Z</time></trkpt><trkpt lon="5.942949" lat="51.15449"><ele>25</ele><time>2022-05-22T09:17:50.000Z</time></trkpt><trkpt lon="5.942849" lat="51.15452"><ele>24.8</ele><time>2022-05-22T09:17:51.000Z</time></trkpt><trkpt lon="5.942749" lat="51.154556"><ele>24.8</ele><time>2022-05-22T09:17:52.000Z</time></trkpt><trkpt lon="5.942656" lat="51.15459"><ele>24.8</ele><time>2022-05-22T09:17:53.000Z</time></trkpt><trkpt lon="5.942575" lat="51.154617"><ele>24.8</ele><time>2022-05-22T09:17:54.000Z</time></trkpt><trkpt lon="5.942476" lat="51.154651"><ele>25</ele><time>2022-05-22T09:17:55.000Z</time></trkpt><trkpt lon="5.942385" lat="51.154689"><ele>24.8</ele><time>2022-05-22T09:17:56.000Z</time></trkpt><trkpt lon="5.942294" lat="51.154733"><ele>24.8</ele><time>2022-05-22T09:17:57.000Z</time></trkpt><trkpt lon="5.942207" lat="51.154778"><ele>24.8</ele><time>2022-05-22T09:17:58.000Z</time></trkpt><trkpt lon="5.942118" lat="51.154826"><ele>24.8</ele><time>2022-05-22T09:17:59.000Z</time></trkpt><trkpt lon="5.942033" lat="51.154871"><ele>24.8</ele><time>2022-05-22T09:18:00.000Z</time></trkpt><trkpt lon="5.941948" lat="51.154921"><ele>24.8</ele><time>2022-05-22T09:18:01.000Z</time></trkpt><trkpt lon="5.941864" lat="51.154967"><ele>24.8</ele><time>2022-05-22T09:18:02.000Z</time></trkpt><trkpt lon="5.941779" lat="51.155009"><ele>24.8</ele><time>2022-05-22T09:18:03.000Z</time></trkpt><trkpt lon="5.941692" lat="51.155051"><ele>24.6</ele><time>2022-05-22T09:18:04.000Z</time></trkpt><trkpt lon="5.941606" lat="51.155092"><ele>24.6</ele><time>2022-05-22T09:18:05.000Z</time></trkpt><trkpt lon="5.94152" lat="51.15513"><ele>24.6</ele><time>2022-05-22T09:18:06.000Z</time></trkpt><trkpt lon="5.941435" lat="51.155168"><ele>24.8</ele><time>2022-05-22T09:18:07.000Z</time></trkpt><trkpt lon="5.941346" lat="51.15521"><ele>24.8</ele><time>2022-05-22T09:18:08.000Z</time></trkpt><trkpt lon="5.941261" lat="51.155246"><ele>24.8</ele><time>2022-05-22T09:18:09.000Z</time></trkpt><trkpt lon="5.941185" lat="51.155277"><ele>24.8</ele><time>2022-05-22T09:18:10.000Z</time></trkpt><trkpt lon="5.941117" lat="51.155309"><ele>24.8</ele><time>2022-05-22T09:18:11.000Z</time></trkpt><trkpt lon="5.941043" lat="51.155341"><ele>24.8</ele><time>2022-05-22T09:18:12.000Z</time></trkpt><trkpt lon="5.940966" lat="51.155375"><ele>24.6</ele><time>2022-05-22T09:18:13.000Z</time></trkpt><trkpt lon="5.940882" lat="51.155409"><ele>24.6</ele><time>2022-05-22T09:18:14.000Z</time></trkpt><trkpt lon="5.940788" lat="51.155444"><ele>24.4</ele><time>2022-05-22T09:18:15.000Z</time></trkpt><trkpt lon="5.94069" lat="51.155482"><ele>24.4</ele><time>2022-05-22T09:18:16.000Z</time></trkpt><trkpt lon="5.940593" lat="51.155516"><ele>24.6</ele><time>2022-05-22T09:18:17.000Z</time></trkpt><trkpt lon="5.940493" lat="51.155555"><ele>24.4</ele><time>2022-05-22T09:18:18.000Z</time></trkpt><trkpt lon="5.940395" lat="51.155597"><ele>24.4</ele><time>2022-05-22T09:18:19.000Z</time></trkpt><trkpt lon="5.940302" lat="51.155637"><ele>24.4</ele><time>2022-05-22T09:18:20.000Z</time></trkpt><trkpt lon="5.940202" lat="51.15568"><ele>24.4</ele><time>2022-05-22T09:18:21.000Z</time></trkpt><trkpt lon="5.940102" lat="51.155723"><ele>24.4</ele><time>2022-05-22T09:18:22.000Z</time></trkpt><trkpt lon="5.940008" lat="51.155764"><ele>24.4</ele><time>2022-05-22T09:18:23.000Z</time></trkpt><trkpt lon="5.939917" lat="51.155805"><ele>24.4</ele><time>2022-05-22T09:18:24.000Z</time></trkpt><trkpt lon="5.939825" lat="51.155844"><ele>24.4</ele><time>2022-05-22T09:18:25.000Z</time></trkpt><trkpt lon="5.939738" lat="51.155882"><ele>24.4</ele><time>2022-05-22T09:18:26.000Z</time></trkpt><trkpt lon="5.939651" lat="51.155924"><ele>24.4</ele><time>2022-05-22T09:18:27.000Z</time></trkpt><trkpt lon="5.939564" lat="51.155967"><ele>24.4</ele><time>2022-05-22T09:18:28.000Z</time></trkpt><trkpt lon="5.939478" lat="51.156009"><ele>24.4</ele><time>2022-05-22T09:18:29.000Z</time></trkpt><trkpt lon="5.939398" lat="51.156049"><ele>24.4</ele><time>2022-05-22T09:18:30.000Z</time></trkpt><trkpt lon="5.939313" lat="51.156096"><ele>24.4</ele><time>2022-05-22T09:18:31.000Z</time></trkpt><trkpt lon="5.939232" lat="51.156142"><ele>24.2</ele><time>2022-05-22T09:18:32.000Z</time></trkpt><trkpt lon="5.939152" lat="51.156187"><ele>24.2</ele><time>2022-05-22T09:18:33.000Z</time></trkpt><trkpt lon="5.939068" lat="51.156238"><ele>24.2</ele><time>2022-05-22T09:18:34.000Z</time></trkpt><trkpt lon="5.938987" lat="51.156279"><ele>24.2</ele><time>2022-05-22T09:18:35.000Z</time></trkpt><trkpt lon="5.938908" lat="51.156321"><ele>24.2</ele><time>2022-05-22T09:18:36.000Z</time></trkpt><trkpt lon="5.938833" lat="51.156361"><ele>24.2</ele><time>2022-05-22T09:18:37.000Z</time></trkpt><trkpt lon="5.938761" lat="51.156403"><ele>24.2</ele><time>2022-05-22T09:18:38.000Z</time></trkpt><trkpt lon="5.938692" lat="51.156445"><ele>24.4</ele><time>2022-05-22T09:18:39.000Z</time></trkpt><trkpt lon="5.938625" lat="51.156486"><ele>24.4</ele><time>2022-05-22T09:18:40.000Z</time></trkpt><trkpt lon="5.938562" lat="51.156527"><ele>24.4</ele><time>2022-05-22T09:18:41.000Z</time></trkpt><trkpt lon="5.938494" lat="51.156569"><ele>24.4</ele><time>2022-05-22T09:18:42.000Z</time></trkpt><trkpt lon="5.93843" lat="51.156611"><ele>24.4</ele><time>2022-05-22T09:18:43.000Z</time></trkpt><trkpt lon="5.938373" lat="51.156653"><ele>24.4</ele><time>2022-05-22T09:18:44.000Z</time></trkpt><trkpt lon="5.93832" lat="51.156695"><ele>24.4</ele><time>2022-05-22T09:18:45.000Z</time></trkpt><trkpt lon="5.938269" lat="51.15673"><ele>24.6</ele><time>2022-05-22T09:18:46.000Z</time></trkpt><trkpt lon="5.938221" lat="51.15676"><ele>24.6</ele><time>2022-05-22T09:18:47.000Z</time></trkpt><trkpt lon="5.938176" lat="51.156791"><ele>24.6</ele><time>2022-05-22T09:18:48.000Z</time></trkpt><trkpt lon="5.938121" lat="51.156821"><ele>24.6</ele><time>2022-05-22T09:18:49.000Z</time></trkpt><trkpt lon="5.938067" lat="51.156851"><ele>24.4</ele><time>2022-05-22T09:18:50.000Z</time></trkpt><trkpt lon="5.937992" lat="51.156892"><ele>24.4</ele><time>2022-05-22T09:18:51.000Z</time></trkpt><trkpt lon="5.937912" lat="51.156936"><ele>24.4</ele><time>2022-05-22T09:18:52.000Z</time></trkpt><trkpt lon="5.937832" lat="51.156985"><ele>24.4</ele><time>2022-05-22T09:18:53.000Z</time></trkpt><trkpt lon="5.93775" lat="51.157034"><ele>24.4</ele><time>2022-05-22T09:18:54.000Z</time></trkpt><trkpt lon="5.937661" lat="51.15708"><ele>24.2</ele><time>2022-05-22T09:18:55.000Z</time></trkpt><trkpt lon="5.937576" lat="51.157126"><ele>24.2</ele><time>2022-05-22T09:18:56.000Z</time></trkpt><trkpt lon="5.937497" lat="51.157164"><ele>24.2</ele><time>2022-05-22T09:18:57.000Z</time></trkpt><trkpt lon="5.937408" lat="51.157212"><ele>24.2</ele><time>2022-05-22T09:18:58.000Z</time></trkpt><trkpt lon="5.937323" lat="51.157252"><ele>24.2</ele><time>2022-05-22T09:18:59.000Z</time></trkpt><trkpt lon="5.937245" lat="51.157297"><ele>24.2</ele><time>2022-05-22T09:19:00.000Z</time></trkpt><trkpt lon="5.937165" lat="51.157339"><ele>24</ele><time>2022-05-22T09:19:01.000Z</time></trkpt><trkpt lon="5.937097" lat="51.157375"><ele>24</ele><time>2022-05-22T09:19:02.000Z</time></trkpt><trkpt lon="5.937004" lat="51.157424"><ele>24</ele><time>2022-05-22T09:19:03.000Z</time></trkpt><trkpt lon="5.936925" lat="51.157461"><ele>24</ele><time>2022-05-22T09:19:04.000Z</time></trkpt><trkpt lon="5.936843" lat="51.157503"><ele>24</ele><time>2022-05-22T09:19:05.000Z</time></trkpt><trkpt lon="5.936761" lat="51.157542"><ele>24</ele><time>2022-05-22T09:19:06.000Z</time></trkpt><trkpt lon="5.936674" lat="51.15758"><ele>23.8</ele><time>2022-05-22T09:19:07.000Z</time></trkpt><trkpt lon="5.936582" lat="51.157622"><ele>23.6</ele><time>2022-05-22T09:19:08.000Z</time></trkpt><trkpt lon="5.936487" lat="51.157661"><ele>23.4</ele><time>2022-05-22T09:19:09.000Z</time></trkpt><trkpt lon="5.936395" lat="51.157697"><ele>23.2</ele><time>2022-05-22T09:19:10.000Z</time></trkpt><trkpt lon="5.936301" lat="51.157735"><ele>23</ele><time>2022-05-22T09:19:11.000Z</time></trkpt><trkpt lon="5.936209" lat="51.157775"><ele>22.6</ele><time>2022-05-22T09:19:12.000Z</time></trkpt><trkpt lon="5.936126" lat="51.157801"><ele>22.4</ele><time>2022-05-22T09:19:13.000Z</time></trkpt><trkpt lon="5.936039" lat="51.157821"><ele>22</ele><time>2022-05-22T09:19:14.000Z</time></trkpt><trkpt lon="5.935951" lat="51.157833"><ele>21.8</ele><time>2022-05-22T09:19:15.000Z</time></trkpt><trkpt lon="5.935868" lat="51.157833"><ele>21.6</ele><time>2022-05-22T09:19:16.000Z</time></trkpt><trkpt lon="5.93579" lat="51.157833"><ele>21.2</ele><time>2022-05-22T09:19:17.000Z</time></trkpt><trkpt lon="5.935712" lat="51.157833"><ele>21</ele><time>2022-05-22T09:19:18.000Z</time></trkpt><trkpt lon="5.935632" lat="51.157837"><ele>20.6</ele><time>2022-05-22T09:19:19.000Z</time></trkpt><trkpt lon="5.935557" lat="51.157833"><ele>20.4</ele><time>2022-05-22T09:19:20.000Z</time></trkpt><trkpt lon="5.935488" lat="51.157819"><ele>20.2</ele><time>2022-05-22T09:19:21.000Z</time></trkpt><trkpt lon="5.935418" lat="51.157792"><ele>19.6</ele><time>2022-05-22T09:19:22.000Z</time></trkpt><trkpt lon="5.935344" lat="51.157754"><ele>19.4</ele><time>2022-05-22T09:19:23.000Z</time></trkpt><trkpt lon="5.935257" lat="51.157705"><ele>19.2</ele><time>2022-05-22T09:19:24.000Z</time></trkpt><trkpt lon="5.93517" lat="51.157659"><ele>19</ele><time>2022-05-22T09:19:25.000Z</time></trkpt><trkpt lon="5.935091" lat="51.157614"><ele>18.8</ele><time>2022-05-22T09:19:26.000Z</time></trkpt><trkpt lon="5.934981" lat="51.157556"><ele>18.6</ele><time>2022-05-22T09:19:27.000Z</time></trkpt><trkpt lon="5.934887" lat="51.157506"><ele>18.4</ele><time>2022-05-22T09:19:28.000Z</time></trkpt><trkpt lon="5.934791" lat="51.157461"><ele>18.4</ele><time>2022-05-22T09:19:29.000Z</time></trkpt><trkpt lon="5.934684" lat="51.157423"><ele>18.2</ele><time>2022-05-22T09:19:30.000Z</time></trkpt><trkpt lon="5.93457" lat="51.157389"><ele>18</ele><time>2022-05-22T09:19:31.000Z</time></trkpt><trkpt lon="5.934442" lat="51.157353"><ele>18</ele><time>2022-05-22T09:19:32.000Z</time></trkpt><trkpt lon="5.934316" lat="51.157319"><ele>17.8</ele><time>2022-05-22T09:19:33.000Z</time></trkpt><trkpt lon="5.934199" lat="51.157285"><ele>17.8</ele><time>2022-05-22T09:19:34.000Z</time></trkpt><trkpt lon="5.934079" lat="51.157255"><ele>17.8</ele><time>2022-05-22T09:19:35.000Z</time></trkpt><trkpt lon="5.933954" lat="51.157223"><ele>18</ele><time>2022-05-22T09:19:36.000Z</time></trkpt><trkpt lon="5.933838" lat="51.157197"><ele>18</ele><time>2022-05-22T09:19:37.000Z</time></trkpt><trkpt lon="5.933717" lat="51.157174"><ele>18</ele><time>2022-05-22T09:19:38.000Z</time></trkpt><trkpt lon="5.933603" lat="51.157151"><ele>18</ele><time>2022-05-22T09:19:39.000Z</time></trkpt><trkpt lon="5.933487" lat="51.157128"><ele>18.2</ele><time>2022-05-22T09:19:40.000Z</time></trkpt><trkpt lon="5.933381" lat="51.157109"><ele>18.4</ele><time>2022-05-22T09:19:41.000Z</time></trkpt><trkpt lon="5.93327" lat="51.157094"><ele>18.4</ele><time>2022-05-22T09:19:42.000Z</time></trkpt><trkpt lon="5.933165" lat="51.157079"><ele>18.4</ele><time>2022-05-22T09:19:43.000Z</time></trkpt><trkpt lon="5.933053" lat="51.157059"><ele>18.6</ele><time>2022-05-22T09:19:44.000Z</time></trkpt><trkpt lon="5.932935" lat="51.157044"><ele>18.6</ele><time>2022-05-22T09:19:45.000Z</time></trkpt><trkpt lon="5.932818" lat="51.157029"><ele>18.6</ele><time>2022-05-22T09:19:46.000Z</time></trkpt><trkpt lon="5.932705" lat="51.15701"><ele>18.6</ele><time>2022-05-22T09:19:47.000Z</time></trkpt><trkpt lon="5.932592" lat="51.156991"><ele>18.6</ele><time>2022-05-22T09:19:48.000Z</time></trkpt><trkpt lon="5.932483" lat="51.156972"><ele>18.6</ele><time>2022-05-22T09:19:49.000Z</time></trkpt><trkpt lon="5.932373" lat="51.156952"><ele>18.6</ele><time>2022-05-22T09:19:50.000Z</time></trkpt><trkpt lon="5.932264" lat="51.156941"><ele>18.6</ele><time>2022-05-22T09:19:51.000Z</time></trkpt><trkpt lon="5.932151" lat="51.156922"><ele>18.4</ele><time>2022-05-22T09:19:52.000Z</time></trkpt><trkpt lon="5.932043" lat="51.15691"><ele>18.4</ele><time>2022-05-22T09:19:53.000Z</time></trkpt><trkpt lon="5.931935" lat="51.156895"><ele>18.4</ele><time>2022-05-22T09:19:54.000Z</time></trkpt><trkpt lon="5.931827" lat="51.15688"><ele>18.4</ele><time>2022-05-22T09:19:55.000Z</time></trkpt><trkpt lon="5.931718" lat="51.156865"><ele>18.4</ele><time>2022-05-22T09:19:56.000Z</time></trkpt><trkpt lon="5.93161" lat="51.156849"><ele>18.4</ele><time>2022-05-22T09:19:57.000Z</time></trkpt><trkpt lon="5.931506" lat="51.15683"><ele>18.4</ele><time>2022-05-22T09:19:58.000Z</time></trkpt><trkpt lon="5.931399" lat="51.156808"><ele>18.4</ele><time>2022-05-22T09:19:59.000Z</time></trkpt><trkpt lon="5.931286" lat="51.156789"><ele>18.2</ele><time>2022-05-22T09:20:00.000Z</time></trkpt><trkpt lon="5.931169" lat="51.156766"><ele>18</ele><time>2022-05-22T09:20:01.000Z</time></trkpt><trkpt lon="5.93105" lat="51.156743"><ele>18</ele><time>2022-05-22T09:20:02.000Z</time></trkpt><trkpt lon="5.930932" lat="51.15672"><ele>17.8</ele><time>2022-05-22T09:20:03.000Z</time></trkpt><trkpt lon="5.930816" lat="51.156697"><ele>18</ele><time>2022-05-22T09:20:04.000Z</time></trkpt><trkpt lon="5.930708" lat="51.156674"><ele>18</ele><time>2022-05-22T09:20:05.000Z</time></trkpt><trkpt lon="5.930592" lat="51.156655"><ele>18</ele><time>2022-05-22T09:20:06.000Z</time></trkpt><trkpt lon="5.930475" lat="51.156632"><ele>18</ele><time>2022-05-22T09:20:07.000Z</time></trkpt><trkpt lon="5.93036" lat="51.156609"><ele>18</ele><time>2022-05-22T09:20:08.000Z</time></trkpt><trkpt lon="5.930246" lat="51.156586"><ele>17.8</ele><time>2022-05-22T09:20:09.000Z</time></trkpt><trkpt lon="5.930139" lat="51.156567"><ele>17.6</ele><time>2022-05-22T09:20:10.000Z</time></trkpt><trkpt lon="5.930039" lat="51.156548"><ele>17.4</ele><time>2022-05-22T09:20:11.000Z</time></trkpt><trkpt lon="5.929938" lat="51.156529"><ele>17.6</ele><time>2022-05-22T09:20:12.000Z</time></trkpt><trkpt lon="5.929831" lat="51.15651"><ele>17.4</ele><time>2022-05-22T09:20:13.000Z</time></trkpt><trkpt lon="5.929725" lat="51.156488"><ele>17.4</ele><time>2022-05-22T09:20:14.000Z</time></trkpt><trkpt lon="5.929608" lat="51.156468"><ele>17.4</ele><time>2022-05-22T09:20:15.000Z</time></trkpt><trkpt lon="5.9295" lat="51.156449"><ele>17.4</ele><time>2022-05-22T09:20:16.000Z</time></trkpt><trkpt lon="5.929395" lat="51.156434"><ele>17.6</ele><time>2022-05-22T09:20:17.000Z</time></trkpt><trkpt lon="5.929288" lat="51.156415"><ele>17.6</ele><time>2022-05-22T09:20:18.000Z</time></trkpt><trkpt lon="5.929182" lat="51.156399"><ele>17.6</ele><time>2022-05-22T09:20:19.000Z</time></trkpt><trkpt lon="5.929071" lat="51.156388"><ele>17.8</ele><time>2022-05-22T09:20:20.000Z</time></trkpt><trkpt lon="5.928965" lat="51.156377"><ele>17.8</ele><time>2022-05-22T09:20:21.000Z</time></trkpt><trkpt lon="5.928855" lat="51.156365"><ele>17.8</ele><time>2022-05-22T09:20:22.000Z</time></trkpt><trkpt lon="5.928751" lat="51.156358"><ele>17.8</ele><time>2022-05-22T09:20:23.000Z</time></trkpt><trkpt lon="5.928633" lat="51.156349"><ele>17.8</ele><time>2022-05-22T09:20:24.000Z</time></trkpt><trkpt lon="5.928512" lat="51.156346"><ele>18</ele><time>2022-05-22T09:20:25.000Z</time></trkpt><trkpt lon="5.928387" lat="51.156342"><ele>18</ele><time>2022-05-22T09:20:26.000Z</time></trkpt><trkpt lon="5.928259" lat="51.156342"><ele>18</ele><time>2022-05-22T09:20:27.000Z</time></trkpt><trkpt lon="5.928141" lat="51.156338"><ele>18</ele><time>2022-05-22T09:20:28.000Z</time></trkpt><trkpt lon="5.928024" lat="51.156338"><ele>18</ele><time>2022-05-22T09:20:29.000Z</time></trkpt><trkpt lon="5.927912" lat="51.156338"><ele>18</ele><time>2022-05-22T09:20:30.000Z</time></trkpt><trkpt lon="5.927797" lat="51.156338"><ele>18</ele><time>2022-05-22T09:20:31.000Z</time></trkpt><trkpt lon="5.927682" lat="51.156338"><ele>17.8</ele><time>2022-05-22T09:20:32.000Z</time></trkpt><trkpt lon="5.927569" lat="51.156338"><ele>17.8</ele><time>2022-05-22T09:20:33.000Z</time></trkpt><trkpt lon="5.927461" lat="51.156341"><ele>17.8</ele><time>2022-05-22T09:20:34.000Z</time></trkpt><trkpt lon="5.927349" lat="51.156342"><ele>18</ele><time>2022-05-22T09:20:35.000Z</time></trkpt><trkpt lon="5.927241" lat="51.156345"><ele>18</ele><time>2022-05-22T09:20:36.000Z</time></trkpt><trkpt lon="5.927128" lat="51.156349"><ele>18</ele><time>2022-05-22T09:20:37.000Z</time></trkpt><trkpt lon="5.927014" lat="51.156353"><ele>18.2</ele><time>2022-05-22T09:20:38.000Z</time></trkpt><trkpt lon="5.926907" lat="51.156357"><ele>18.2</ele><time>2022-05-22T09:20:39.000Z</time></trkpt><trkpt lon="5.926804" lat="51.15636"><ele>18.2</ele><time>2022-05-22T09:20:40.000Z</time></trkpt><trkpt lon="5.926695" lat="51.156364"><ele>18.2</ele><time>2022-05-22T09:20:41.000Z</time></trkpt><trkpt lon="5.926593" lat="51.156372"><ele>18.2</ele><time>2022-05-22T09:20:42.000Z</time></trkpt><trkpt lon="5.926488" lat="51.156383"><ele>18.2</ele><time>2022-05-22T09:20:43.000Z</time></trkpt><trkpt lon="5.92638" lat="51.156387"><ele>18.2</ele><time>2022-05-22T09:20:44.000Z</time></trkpt><trkpt lon="5.926268" lat="51.156395"><ele>18.4</ele><time>2022-05-22T09:20:45.000Z</time></trkpt><trkpt lon="5.926156" lat="51.156406"><ele>18.2</ele><time>2022-05-22T09:20:46.000Z</time></trkpt><trkpt lon="5.926054" lat="51.156414"><ele>18.4</ele><time>2022-05-22T09:20:47.000Z</time></trkpt><trkpt lon="5.92595" lat="51.156421"><ele>18.4</ele><time>2022-05-22T09:20:48.000Z</time></trkpt><trkpt lon="5.925846" lat="51.156433"><ele>18.4</ele><time>2022-05-22T09:20:49.000Z</time></trkpt><trkpt lon="5.925736" lat="51.156437"><ele>18.4</ele><time>2022-05-22T09:20:50.000Z</time></trkpt><trkpt lon="5.925626" lat="51.156444"><ele>18.4</ele><time>2022-05-22T09:20:51.000Z</time></trkpt><trkpt lon="5.925511" lat="51.156452"><ele>18.4</ele><time>2022-05-22T09:20:52.000Z</time></trkpt><trkpt lon="5.925401" lat="51.156463"><ele>18.4</ele><time>2022-05-22T09:20:53.000Z</time></trkpt><trkpt lon="5.925294" lat="51.156474"><ele>18.2</ele><time>2022-05-22T09:20:54.000Z</time></trkpt><trkpt lon="5.925186" lat="51.15649"><ele>18</ele><time>2022-05-22T09:20:55.000Z</time></trkpt><trkpt lon="5.925081" lat="51.156502"><ele>18</ele><time>2022-05-22T09:20:56.000Z</time></trkpt><trkpt lon="5.924976" lat="51.156513"><ele>18</ele><time>2022-05-22T09:20:57.000Z</time></trkpt><trkpt lon="5.92487" lat="51.156521"><ele>18.2</ele><time>2022-05-22T09:20:58.000Z</time></trkpt><trkpt lon="5.924763" lat="51.156539"><ele>18.2</ele><time>2022-05-22T09:20:59.000Z</time></trkpt><trkpt lon="5.924657" lat="51.156554"><ele>18.2</ele><time>2022-05-22T09:21:00.000Z</time></trkpt><trkpt lon="5.924542" lat="51.156566"><ele>18.2</ele><time>2022-05-22T09:21:01.000Z</time></trkpt><trkpt lon="5.924432" lat="51.156581"><ele>18</ele><time>2022-05-22T09:21:02.000Z</time></trkpt><trkpt lon="5.924326" lat="51.156593"><ele>18.2</ele><time>2022-05-22T09:21:03.000Z</time></trkpt><trkpt lon="5.924225" lat="51.156607"><ele>18.2</ele><time>2022-05-22T09:21:04.000Z</time></trkpt><trkpt lon="5.924116" lat="51.156627"><ele>18.2</ele><time>2022-05-22T09:21:05.000Z</time></trkpt><trkpt lon="5.924009" lat="51.156642"><ele>18.2</ele><time>2022-05-22T09:21:06.000Z</time></trkpt><trkpt lon="5.923916" lat="51.156656"><ele>18.2</ele><time>2022-05-22T09:21:07.000Z</time></trkpt><trkpt lon="5.923793" lat="51.156677"><ele>18.4</ele><time>2022-05-22T09:21:08.000Z</time></trkpt><trkpt lon="5.923688" lat="51.156696"><ele>18.4</ele><time>2022-05-22T09:21:09.000Z</time></trkpt><trkpt lon="5.923579" lat="51.156711"><ele>18.4</ele><time>2022-05-22T09:21:10.000Z</time></trkpt><trkpt lon="5.923475" lat="51.15673"><ele>18.4</ele><time>2022-05-22T09:21:11.000Z</time></trkpt><trkpt lon="5.92338" lat="51.156748"><ele>18.4</ele><time>2022-05-22T09:21:12.000Z</time></trkpt><trkpt lon="5.923276" lat="51.156775"><ele>18.6</ele><time>2022-05-22T09:21:13.000Z</time></trkpt><trkpt lon="5.923175" lat="51.156802"><ele>18.6</ele><time>2022-05-22T09:21:14.000Z</time></trkpt><trkpt lon="5.923079" lat="51.156825"><ele>18.4</ele><time>2022-05-22T09:21:15.000Z</time></trkpt><trkpt lon="5.922979" lat="51.156856"><ele>18.2</ele><time>2022-05-22T09:21:16.000Z</time></trkpt><trkpt lon="5.922878" lat="51.156889"><ele>18</ele><time>2022-05-22T09:21:17.000Z</time></trkpt><trkpt lon="5.922773" lat="51.156928"><ele>18</ele><time>2022-05-22T09:21:18.000Z</time></trkpt><trkpt lon="5.922678" lat="51.156973"><ele>17.8</ele><time>2022-05-22T09:21:19.000Z</time></trkpt><trkpt lon="5.92259" lat="51.157016"><ele>17.8</ele><time>2022-05-22T09:21:20.000Z</time></trkpt><trkpt lon="5.922509" lat="51.157061"><ele>17.6</ele><time>2022-05-22T09:21:21.000Z</time></trkpt><trkpt lon="5.922424" lat="51.157118"><ele>17.6</ele><time>2022-05-22T09:21:22.000Z</time></trkpt><trkpt lon="5.922359" lat="51.157168"><ele>17.8</ele><time>2022-05-22T09:21:23.000Z</time></trkpt><trkpt lon="5.92227" lat="51.157238"><ele>17.8</ele><time>2022-05-22T09:21:24.000Z</time></trkpt><trkpt lon="5.922199" lat="51.1573"><ele>18</ele><time>2022-05-22T09:21:25.000Z</time></trkpt><trkpt lon="5.922127" lat="51.157362"><ele>18.2</ele><time>2022-05-22T09:21:26.000Z</time></trkpt><trkpt lon="5.922053" lat="51.157431"><ele>18</ele><time>2022-05-22T09:21:27.000Z</time></trkpt><trkpt lon="5.921981" lat="51.157503"><ele>17.8</ele><time>2022-05-22T09:21:28.000Z</time></trkpt><trkpt lon="5.921908" lat="51.157571"><ele>17.6</ele><time>2022-05-22T09:21:29.000Z</time></trkpt><trkpt lon="5.921835" lat="51.157639"><ele>17.6</ele><time>2022-05-22T09:21:30.000Z</time></trkpt><trkpt lon="5.921774" lat="51.157712"><ele>17.4</ele><time>2022-05-22T09:21:31.000Z</time></trkpt><trkpt lon="5.921716" lat="51.157778"><ele>17.6</ele><time>2022-05-22T09:21:32.000Z</time></trkpt><trkpt lon="5.921672" lat="51.157845"><ele>17.6</ele><time>2022-05-22T09:21:33.000Z</time></trkpt><trkpt lon="5.921636" lat="51.157915"><ele>17.6</ele><time>2022-05-22T09:21:34.000Z</time></trkpt><trkpt lon="5.921611" lat="51.157993"><ele>17.6</ele><time>2022-05-22T09:21:35.000Z</time></trkpt><trkpt lon="5.921603" lat="51.15807"><ele>17.6</ele><time>2022-05-22T09:21:36.000Z</time></trkpt><trkpt lon="5.9216" lat="51.158147"><ele>17.6</ele><time>2022-05-22T09:21:37.000Z</time></trkpt><trkpt lon="5.9216" lat="51.158223"><ele>17.6</ele><time>2022-05-22T09:21:38.000Z</time></trkpt><trkpt lon="5.921597" lat="51.158299"><ele>17.6</ele><time>2022-05-22T09:21:39.000Z</time></trkpt><trkpt lon="5.921595" lat="51.158373"><ele>17.8</ele><time>2022-05-22T09:21:40.000Z</time></trkpt><trkpt lon="5.9216" lat="51.158452"><ele>17.8</ele><time>2022-05-22T09:21:41.000Z</time></trkpt><trkpt lon="5.921603" lat="51.158532"><ele>17.6</ele><time>2022-05-22T09:21:42.000Z</time></trkpt><trkpt lon="5.921605" lat="51.158605"><ele>17.6</ele><time>2022-05-22T09:21:43.000Z</time></trkpt><trkpt lon="5.92161" lat="51.158677"><ele>17.6</ele><time>2022-05-22T09:21:44.000Z</time></trkpt><trkpt lon="5.921621" lat="51.15875"><ele>17.6</ele><time>2022-05-22T09:21:45.000Z</time></trkpt><trkpt lon="5.921638" lat="51.158822"><ele>17.6</ele><time>2022-05-22T09:21:46.000Z</time></trkpt><trkpt lon="5.921659" lat="51.158891"><ele>17.6</ele><time>2022-05-22T09:21:47.000Z</time></trkpt><trkpt lon="5.921689" lat="51.158967"><ele>17.4</ele><time>2022-05-22T09:21:48.000Z</time></trkpt><trkpt lon="5.921725" lat="51.15904"><ele>17.6</ele><time>2022-05-22T09:21:49.000Z</time></trkpt><trkpt lon="5.921769" lat="51.159107"><ele>17.6</ele><time>2022-05-22T09:21:50.000Z</time></trkpt><trkpt lon="5.92182" lat="51.159171"><ele>17.6</ele><time>2022-05-22T09:21:51.000Z</time></trkpt><trkpt lon="5.921871" lat="51.159243"><ele>17.8</ele><time>2022-05-22T09:21:52.000Z</time></trkpt><trkpt lon="5.921911" lat="51.159311"><ele>17.8</ele><time>2022-05-22T09:21:53.000Z</time></trkpt><trkpt lon="5.921935" lat="51.159364"><ele>17.8</ele><time>2022-05-22T09:21:54.000Z</time></trkpt><trkpt lon="5.921964" lat="51.159455"><ele>17.6</ele><time>2022-05-22T09:21:55.000Z</time></trkpt><trkpt lon="5.921968" lat="51.159531"><ele>17.6</ele><time>2022-05-22T09:21:56.000Z</time></trkpt><trkpt lon="5.921962" lat="51.159604"><ele>17.4</ele><time>2022-05-22T09:21:57.000Z</time></trkpt><trkpt lon="5.921947" lat="51.15968"><ele>17.4</ele><time>2022-05-22T09:21:58.000Z</time></trkpt><trkpt lon="5.921923" lat="51.159753"><ele>17.4</ele><time>2022-05-22T09:21:59.000Z</time></trkpt><trkpt lon="5.921899" lat="51.159826"><ele>17.4</ele><time>2022-05-22T09:22:00.000Z</time></trkpt><trkpt lon="5.921877" lat="51.159894"><ele>17.6</ele><time>2022-05-22T09:22:01.000Z</time></trkpt><trkpt lon="5.921856" lat="51.159967"><ele>17.6</ele><time>2022-05-22T09:22:02.000Z</time></trkpt><trkpt lon="5.921838" lat="51.160039"><ele>17.6</ele><time>2022-05-22T09:22:03.000Z</time></trkpt><trkpt lon="5.921822" lat="51.160113"><ele>17.6</ele><time>2022-05-22T09:22:04.000Z</time></trkpt><trkpt lon="5.921814" lat="51.160184"><ele>17.4</ele><time>2022-05-22T09:22:05.000Z</time></trkpt><trkpt lon="5.921808" lat="51.160252"><ele>17.4</ele><time>2022-05-22T09:22:06.000Z</time></trkpt><trkpt lon="5.921805" lat="51.160322"><ele>17.6</ele><time>2022-05-22T09:22:07.000Z</time></trkpt><trkpt lon="5.921805" lat="51.160394"><ele>17.6</ele><time>2022-05-22T09:22:08.000Z</time></trkpt><trkpt lon="5.92181" lat="51.160462"><ele>17.6</ele><time>2022-05-22T09:22:09.000Z</time></trkpt><trkpt lon="5.921813" lat="51.160536"><ele>17.6</ele><time>2022-05-22T09:22:10.000Z</time></trkpt><trkpt lon="5.921817" lat="51.160607"><ele>17.6</ele><time>2022-05-22T09:22:11.000Z</time></trkpt><trkpt lon="5.921817" lat="51.160676"><ele>17.6</ele><time>2022-05-22T09:22:12.000Z</time></trkpt><trkpt lon="5.921817" lat="51.160745"><ele>17.4</ele><time>2022-05-22T09:22:13.000Z</time></trkpt><trkpt lon="5.921815" lat="51.160814"><ele>17.4</ele><time>2022-05-22T09:22:14.000Z</time></trkpt><trkpt lon="5.92181" lat="51.160879"><ele>17.2</ele><time>2022-05-22T09:22:15.000Z</time></trkpt><trkpt lon="5.921799" lat="51.16094"><ele>17.2</ele><time>2022-05-22T09:22:16.000Z</time></trkpt><trkpt lon="5.921782" lat="51.161005"><ele>17.4</ele><time>2022-05-22T09:22:17.000Z</time></trkpt><trkpt lon="5.921762" lat="51.16107"><ele>17.4</ele><time>2022-05-22T09:22:18.000Z</time></trkpt><trkpt lon="5.921749" lat="51.161138"><ele>17.4</ele><time>2022-05-22T09:22:19.000Z</time></trkpt><trkpt lon="5.92174" lat="51.16121"><ele>17.4</ele><time>2022-05-22T09:22:20.000Z</time></trkpt><trkpt lon="5.921735" lat="51.161279"><ele>17.4</ele><time>2022-05-22T09:22:21.000Z</time></trkpt><trkpt lon="5.921732" lat="51.161356"><ele>17.4</ele><time>2022-05-22T09:22:22.000Z</time></trkpt><trkpt lon="5.921733" lat="51.161429"><ele>17.4</ele><time>2022-05-22T09:22:23.000Z</time></trkpt><trkpt lon="5.921737" lat="51.161496"><ele>17.2</ele><time>2022-05-22T09:22:24.000Z</time></trkpt><trkpt lon="5.921743" lat="51.161561"><ele>17.4</ele><time>2022-05-22T09:22:25.000Z</time></trkpt><trkpt lon="5.921745" lat="51.161632"><ele>17.4</ele><time>2022-05-22T09:22:26.000Z</time></trkpt><trkpt lon="5.921747" lat="51.161706"><ele>17.4</ele><time>2022-05-22T09:22:27.000Z</time></trkpt><trkpt lon="5.921748" lat="51.161781"><ele>17.4</ele><time>2022-05-22T09:22:28.000Z</time></trkpt><trkpt lon="5.92175" lat="51.161851"><ele>17.2</ele><time>2022-05-22T09:22:29.000Z</time></trkpt><trkpt lon="5.921755" lat="51.161928"><ele>17</ele><time>2022-05-22T09:22:30.000Z</time></trkpt><trkpt lon="5.921758" lat="51.161996"><ele>17</ele><time>2022-05-22T09:22:31.000Z</time></trkpt><trkpt lon="5.92176" lat="51.162064"><ele>17</ele><time>2022-05-22T09:22:32.000Z</time></trkpt><trkpt lon="5.921761" lat="51.16213"><ele>17</ele><time>2022-05-22T09:22:33.000Z</time></trkpt><trkpt lon="5.921763" lat="51.162203"><ele>17.2</ele><time>2022-05-22T09:22:34.000Z</time></trkpt><trkpt lon="5.921771" lat="51.162267"><ele>17.4</ele><time>2022-05-22T09:22:35.000Z</time></trkpt><trkpt lon="5.921777" lat="51.162332"><ele>17.4</ele><time>2022-05-22T09:22:36.000Z</time></trkpt><trkpt lon="5.921778" lat="51.162397"><ele>17.2</ele><time>2022-05-22T09:22:37.000Z</time></trkpt><trkpt lon="5.921778" lat="51.162466"><ele>17.2</ele><time>2022-05-22T09:22:38.000Z</time></trkpt><trkpt lon="5.92178" lat="51.162533"><ele>17</ele><time>2022-05-22T09:22:39.000Z</time></trkpt><trkpt lon="5.921775" lat="51.162603"><ele>17</ele><time>2022-05-22T09:22:40.000Z</time></trkpt><trkpt lon="5.921768" lat="51.162668"><ele>17.2</ele><time>2022-05-22T09:22:41.000Z</time></trkpt><trkpt lon="5.921762" lat="51.16274"><ele>17.2</ele><time>2022-05-22T09:22:42.000Z</time></trkpt><trkpt lon="5.92175" lat="51.162821"><ele>17.2</ele><time>2022-05-22T09:22:43.000Z</time></trkpt><trkpt lon="5.921745" lat="51.162901"><ele>17.2</ele><time>2022-05-22T09:22:44.000Z</time></trkpt><trkpt lon="5.921745" lat="51.16298"><ele>17.4</ele><time>2022-05-22T09:22:45.000Z</time></trkpt><trkpt lon="5.921743" lat="51.163064"><ele>17.4</ele><time>2022-05-22T09:22:46.000Z</time></trkpt><trkpt lon="5.92174" lat="51.16314"><ele>17.4</ele><time>2022-05-22T09:22:47.000Z</time></trkpt><trkpt lon="5.92174" lat="51.16322"><ele>17.6</ele><time>2022-05-22T09:22:48.000Z</time></trkpt><trkpt lon="5.92174" lat="51.1633"><ele>17.4</ele><time>2022-05-22T09:22:49.000Z</time></trkpt><trkpt lon="5.921745" lat="51.163379"><ele>17.2</ele><time>2022-05-22T09:22:50.000Z</time></trkpt><trkpt lon="5.921754" lat="51.163461"><ele>17.2</ele><time>2022-05-22T09:22:51.000Z</time></trkpt><trkpt lon="5.921768" lat="51.163541"><ele>17</ele><time>2022-05-22T09:22:52.000Z</time></trkpt><trkpt lon="5.921781" lat="51.163614"><ele>17</ele><time>2022-05-22T09:22:53.000Z</time></trkpt><trkpt lon="5.921797" lat="51.163693"><ele>17</ele><time>2022-05-22T09:22:54.000Z</time></trkpt><trkpt lon="5.921818" lat="51.163762"><ele>17.2</ele><time>2022-05-22T09:22:55.000Z</time></trkpt><trkpt lon="5.921839" lat="51.163831"><ele>17.2</ele><time>2022-05-22T09:22:56.000Z</time></trkpt><trkpt lon="5.921864" lat="51.163896"><ele>17.4</ele><time>2022-05-22T09:22:57.000Z</time></trkpt><trkpt lon="5.921892" lat="51.163961"><ele>17.4</ele><time>2022-05-22T09:22:58.000Z</time></trkpt><trkpt lon="5.921922" lat="51.164033"><ele>17.4</ele><time>2022-05-22T09:22:59.000Z</time></trkpt><trkpt lon="5.921952" lat="51.164105"><ele>17.6</ele><time>2022-05-22T09:23:00.000Z</time></trkpt><trkpt lon="5.921982" lat="51.164182"><ele>17.6</ele><time>2022-05-22T09:23:01.000Z</time></trkpt><trkpt lon="5.922014" lat="51.164258"><ele>17.4</ele><time>2022-05-22T09:23:02.000Z</time></trkpt><trkpt lon="5.922047" lat="51.16433"><ele>17.4</ele><time>2022-05-22T09:23:03.000Z</time></trkpt><trkpt lon="5.92208" lat="51.164407"><ele>17.4</ele><time>2022-05-22T09:23:04.000Z</time></trkpt><trkpt lon="5.922113" lat="51.164478"><ele>17.6</ele><time>2022-05-22T09:23:05.000Z</time></trkpt><trkpt lon="5.922149" lat="51.164552"><ele>17.6</ele><time>2022-05-22T09:23:06.000Z</time></trkpt><trkpt lon="5.922185" lat="51.164624"><ele>17.6</ele><time>2022-05-22T09:23:07.000Z</time></trkpt><trkpt lon="5.92222" lat="51.164697"><ele>17.6</ele><time>2022-05-22T09:23:08.000Z</time></trkpt><trkpt lon="5.922257" lat="51.164766"><ele>17.6</ele><time>2022-05-22T09:23:09.000Z</time></trkpt><trkpt lon="5.922294" lat="51.164834"><ele>17.6</ele><time>2022-05-22T09:23:10.000Z</time></trkpt><trkpt lon="5.922327" lat="51.164907"><ele>17.6</ele><time>2022-05-22T09:23:11.000Z</time></trkpt><trkpt lon="5.922362" lat="51.164972"><ele>17.6</ele><time>2022-05-22T09:23:12.000Z</time></trkpt><trkpt lon="5.922398" lat="51.165036"><ele>17.6</ele><time>2022-05-22T09:23:13.000Z</time></trkpt><trkpt lon="5.922432" lat="51.165102"><ele>17.6</ele><time>2022-05-22T09:23:14.000Z</time></trkpt><trkpt lon="5.922467" lat="51.165166"><ele>17.6</ele><time>2022-05-22T09:23:15.000Z</time></trkpt><trkpt lon="5.922499" lat="51.165231"><ele>17.6</ele><time>2022-05-22T09:23:16.000Z</time></trkpt><trkpt lon="5.922525" lat="51.165295"><ele>17.4</ele><time>2022-05-22T09:23:17.000Z</time></trkpt><trkpt lon="5.922543" lat="51.165364"><ele>17.4</ele><time>2022-05-22T09:23:18.000Z</time></trkpt><trkpt lon="5.922547" lat="51.165436"><ele>17.4</ele><time>2022-05-22T09:23:19.000Z</time></trkpt><trkpt lon="5.922531" lat="51.165505"><ele>17.4</ele><time>2022-05-22T09:23:20.000Z</time></trkpt><trkpt lon="5.922499" lat="51.165573"><ele>17.2</ele><time>2022-05-22T09:23:21.000Z</time></trkpt><trkpt lon="5.922455" lat="51.165647"><ele>17</ele><time>2022-05-22T09:23:22.000Z</time></trkpt><trkpt lon="5.922413" lat="51.165714"><ele>17</ele><time>2022-05-22T09:23:23.000Z</time></trkpt><trkpt lon="5.92237" lat="51.165784"><ele>17</ele><time>2022-05-22T09:23:24.000Z</time></trkpt><trkpt lon="5.922338" lat="51.165849"><ele>17</ele><time>2022-05-22T09:23:25.000Z</time></trkpt><trkpt lon="5.922316" lat="51.165921"><ele>17</ele><time>2022-05-22T09:23:26.000Z</time></trkpt><trkpt lon="5.922304" lat="51.165994"><ele>17.2</ele><time>2022-05-22T09:23:27.000Z</time></trkpt><trkpt lon="5.922299" lat="51.166063"><ele>17.2</ele><time>2022-05-22T09:23:28.000Z</time></trkpt><trkpt lon="5.922297" lat="51.166128"><ele>17.2</ele><time>2022-05-22T09:23:29.000Z</time></trkpt><trkpt lon="5.922303" lat="51.166192"><ele>17.2</ele><time>2022-05-22T09:23:30.000Z</time></trkpt><trkpt lon="5.922312" lat="51.166254"><ele>17.2</ele><time>2022-05-22T09:23:31.000Z</time></trkpt><trkpt lon="5.922323" lat="51.166307"><ele>17.2</ele><time>2022-05-22T09:23:32.000Z</time></trkpt><trkpt lon="5.922338" lat="51.166354"><ele>17.4</ele><time>2022-05-22T09:23:33.000Z</time></trkpt><trkpt lon="5.922351" lat="51.166395"><ele>17.4</ele><time>2022-05-22T09:23:34.000Z</time></trkpt><trkpt lon="5.922358" lat="51.166434"><ele>17.4</ele><time>2022-05-22T09:23:35.000Z</time></trkpt><trkpt lon="5.922349" lat="51.16647"><ele>17.4</ele><time>2022-05-22T09:23:36.000Z</time></trkpt><trkpt lon="5.922318" lat="51.166503"><ele>17.6</ele><time>2022-05-22T09:23:37.000Z</time></trkpt><trkpt lon="5.922276" lat="51.166529"><ele>17.6</ele><time>2022-05-22T09:23:38.000Z</time></trkpt><trkpt lon="5.922221" lat="51.166549"><ele>17.6</ele><time>2022-05-22T09:23:39.000Z</time></trkpt><trkpt lon="5.922163" lat="51.166564"><ele>17.6</ele><time>2022-05-22T09:23:40.000Z</time></trkpt><trkpt lon="5.922109" lat="51.16658"><ele>17.6</ele><time>2022-05-22T09:23:41.000Z</time></trkpt><trkpt lon="5.922068" lat="51.16661"><ele>17.6</ele><time>2022-05-22T09:23:42.000Z</time></trkpt><trkpt lon="5.922048" lat="51.166647"><ele>17.6</ele><time>2022-05-22T09:23:43.000Z</time></trkpt><trkpt lon="5.922042" lat="51.166682"><ele>17.6</ele><time>2022-05-22T09:23:44.000Z</time></trkpt><trkpt lon="5.92205" lat="51.166716"><ele>17.6</ele><time>2022-05-22T09:23:45.000Z</time></trkpt><trkpt lon="5.922061" lat="51.166751"><ele>17.8</ele><time>2022-05-22T09:23:46.000Z</time></trkpt><trkpt lon="5.922082" lat="51.166792"><ele>17.6</ele><time>2022-05-22T09:23:47.000Z</time></trkpt><trkpt lon="5.922124" lat="51.166826"><ele>17.6</ele><time>2022-05-22T09:23:48.000Z</time></trkpt><trkpt lon="5.922184" lat="51.166854"><ele>17.8</ele><time>2022-05-22T09:23:49.000Z</time></trkpt><trkpt lon="5.922261" lat="51.16687"><ele>17.8</ele><time>2022-05-22T09:23:50.000Z</time></trkpt><trkpt lon="5.922345" lat="51.166874"><ele>17.8</ele><time>2022-05-22T09:23:51.000Z</time></trkpt><trkpt lon="5.922439" lat="51.16687"><ele>18</ele><time>2022-05-22T09:23:52.000Z</time></trkpt><trkpt lon="5.922538" lat="51.16687"><ele>18.2</ele><time>2022-05-22T09:23:53.000Z</time></trkpt><trkpt lon="5.922633" lat="51.16687"><ele>18.4</ele><time>2022-05-22T09:23:54.000Z</time></trkpt><trkpt lon="5.922739" lat="51.166874"><ele>18.6</ele><time>2022-05-22T09:23:55.000Z</time></trkpt><trkpt lon="5.922828" lat="51.166885"><ele>18.8</ele><time>2022-05-22T09:23:56.000Z</time></trkpt><trkpt lon="5.922904" lat="51.166907"><ele>19</ele><time>2022-05-22T09:23:57.000Z</time></trkpt><trkpt lon="5.922964" lat="51.166941"><ele>19.2</ele><time>2022-05-22T09:23:58.000Z</time></trkpt><trkpt lon="5.923002" lat="51.166987"><ele>19.4</ele><time>2022-05-22T09:23:59.000Z</time></trkpt><trkpt lon="5.923018" lat="51.167039"><ele>19.8</ele><time>2022-05-22T09:24:00.000Z</time></trkpt><trkpt lon="5.923026" lat="51.167097"><ele>20</ele><time>2022-05-22T09:24:01.000Z</time></trkpt><trkpt lon="5.92303" lat="51.167154"><ele>20</ele><time>2022-05-22T09:24:02.000Z</time></trkpt><trkpt lon="5.923033" lat="51.167209"><ele>20.2</ele><time>2022-05-22T09:24:03.000Z</time></trkpt><trkpt lon="5.923038" lat="51.167265"><ele>20.2</ele><time>2022-05-22T09:24:04.000Z</time></trkpt><trkpt lon="5.923045" lat="51.167314"><ele>20.2</ele><time>2022-05-22T09:24:05.000Z</time></trkpt><trkpt lon="5.923047" lat="51.167364"><ele>20.4</ele><time>2022-05-22T09:24:06.000Z</time></trkpt><trkpt lon="5.923037" lat="51.16741"><ele>20.4</ele><time>2022-05-22T09:24:07.000Z</time></trkpt><trkpt lon="5.923011" lat="51.167449"><ele>20.4</ele><time>2022-05-22T09:24:08.000Z</time></trkpt><trkpt lon="5.922974" lat="51.167479"><ele>20.4</ele><time>2022-05-22T09:24:09.000Z</time></trkpt><trkpt lon="5.922925" lat="51.167499"><ele>20.4</ele><time>2022-05-22T09:24:10.000Z</time></trkpt><trkpt lon="5.922867" lat="51.167511"><ele>20.4</ele><time>2022-05-22T09:24:11.000Z</time></trkpt><trkpt lon="5.922804" lat="51.167518"><ele>20.4</ele><time>2022-05-22T09:24:12.000Z</time></trkpt><trkpt lon="5.922738" lat="51.167522"><ele>20.4</ele><time>2022-05-22T09:24:13.000Z</time></trkpt><trkpt lon="5.922673" lat="51.167529"><ele>20.6</ele><time>2022-05-22T09:24:14.000Z</time></trkpt><trkpt lon="5.922615" lat="51.167541"><ele>20.6</ele><time>2022-05-22T09:24:15.000Z</time></trkpt><trkpt lon="5.922573" lat="51.167556"><ele>20.6</ele><time>2022-05-22T09:24:16.000Z</time></trkpt><trkpt lon="5.922551" lat="51.167575"><ele>20.6</ele><time>2022-05-22T09:24:17.000Z</time></trkpt><trkpt lon="5.922544" lat="51.167602"><ele>20.8</ele><time>2022-05-22T09:24:18.000Z</time></trkpt><trkpt lon="5.922542" lat="51.167632"><ele>20.8</ele><time>2022-05-22T09:24:19.000Z</time></trkpt><trkpt lon="5.922534" lat="51.167651"><ele>21</ele><time>2022-05-22T09:24:20.000Z</time></trkpt><trkpt lon="5.922524" lat="51.167692"><ele>21</ele><time>2022-05-22T09:24:21.000Z</time></trkpt><trkpt lon="5.922514" lat="51.167743"><ele>21.2</ele><time>2022-05-22T09:24:22.000Z</time></trkpt><trkpt lon="5.922507" lat="51.167788"><ele>21.2</ele><time>2022-05-22T09:24:23.000Z</time></trkpt><trkpt lon="5.922502" lat="51.167836"><ele>21.2</ele><time>2022-05-22T09:24:24.000Z</time></trkpt><trkpt lon="5.922505" lat="51.167887"><ele>21.2</ele><time>2022-05-22T09:24:25.000Z</time></trkpt><trkpt lon="5.922513" lat="51.167933"><ele>21.2</ele><time>2022-05-22T09:24:26.000Z</time></trkpt><trkpt lon="5.92251" lat="51.167971"><ele>21.2</ele><time>2022-05-22T09:24:27.000Z</time></trkpt><trkpt lon="5.922504" lat="51.168016"><ele>21.2</ele><time>2022-05-22T09:24:28.000Z</time></trkpt><trkpt lon="5.922503" lat="51.168055"><ele>21.2</ele><time>2022-05-22T09:24:29.000Z</time></trkpt><trkpt lon="5.9225" lat="51.168101"><ele>21.2</ele><time>2022-05-22T09:24:30.000Z</time></trkpt><trkpt lon="5.922497" lat="51.168161"><ele>21.2</ele><time>2022-05-22T09:24:31.000Z</time></trkpt><trkpt lon="5.9225" lat="51.168222"><ele>21.4</ele><time>2022-05-22T09:24:32.000Z</time></trkpt><trkpt lon="5.922506" lat="51.168285"><ele>21.4</ele><time>2022-05-22T09:24:33.000Z</time></trkpt><trkpt lon="5.922511" lat="51.168351"><ele>21.4</ele><time>2022-05-22T09:24:34.000Z</time></trkpt><trkpt lon="5.922518" lat="51.168413"><ele>21.4</ele><time>2022-05-22T09:24:35.000Z</time></trkpt><trkpt lon="5.922522" lat="51.168475"><ele>21.4</ele><time>2022-05-22T09:24:36.000Z</time></trkpt><trkpt lon="5.922522" lat="51.168532"><ele>21.4</ele><time>2022-05-22T09:24:37.000Z</time></trkpt><trkpt lon="5.922527" lat="51.168588"><ele>21.4</ele><time>2022-05-22T09:24:38.000Z</time></trkpt><trkpt lon="5.922533" lat="51.168638"><ele>21.4</ele><time>2022-05-22T09:24:39.000Z</time></trkpt><trkpt lon="5.92254" lat="51.168679"><ele>21.4</ele><time>2022-05-22T09:24:40.000Z</time></trkpt><trkpt lon="5.922546" lat="51.168721"><ele>21.4</ele><time>2022-05-22T09:24:41.000Z</time></trkpt><trkpt lon="5.922548" lat="51.168755"><ele>21.4</ele><time>2022-05-22T09:24:42.000Z</time></trkpt><trkpt lon="5.922531" lat="51.168795"><ele>21.2</ele><time>2022-05-22T09:24:43.000Z</time></trkpt><trkpt lon="5.922493" lat="51.168826"><ele>21.2</ele><time>2022-05-22T09:24:44.000Z</time></trkpt><trkpt lon="5.922453" lat="51.168857"><ele>21</ele><time>2022-05-22T09:24:45.000Z</time></trkpt><trkpt lon="5.922426" lat="51.16889"><ele>21</ele><time>2022-05-22T09:24:46.000Z</time></trkpt><trkpt lon="5.922419" lat="51.168941"><ele>20.8</ele><time>2022-05-22T09:24:47.000Z</time></trkpt><trkpt lon="5.922426" lat="51.169003"><ele>20.6</ele><time>2022-05-22T09:24:48.000Z</time></trkpt><trkpt lon="5.922449" lat="51.169061"><ele>20.4</ele><time>2022-05-22T09:24:49.000Z</time></trkpt><trkpt lon="5.922495" lat="51.169115"><ele>20.2</ele><time>2022-05-22T09:24:50.000Z</time></trkpt><trkpt lon="5.922559" lat="51.169159"><ele>20.2</ele><time>2022-05-22T09:24:51.000Z</time></trkpt><trkpt lon="5.922639" lat="51.169196"><ele>20.2</ele><time>2022-05-22T09:24:52.000Z</time></trkpt><trkpt lon="5.922726" lat="51.169219"><ele>20.2</ele><time>2022-05-22T09:24:53.000Z</time></trkpt><trkpt lon="5.922812" lat="51.169231"><ele>20.2</ele><time>2022-05-22T09:24:54.000Z</time></trkpt><trkpt lon="5.922904" lat="51.169228"><ele>20.2</ele><time>2022-05-22T09:24:55.000Z</time></trkpt><trkpt lon="5.922991" lat="51.16922"><ele>20.2</ele><time>2022-05-22T09:24:56.000Z</time></trkpt><trkpt lon="5.923072" lat="51.169209"><ele>20.2</ele><time>2022-05-22T09:24:57.000Z</time></trkpt><trkpt lon="5.923151" lat="51.169198"><ele>20.2</ele><time>2022-05-22T09:24:58.000Z</time></trkpt><trkpt lon="5.923234" lat="51.169193"><ele>20.2</ele><time>2022-05-22T09:24:59.000Z</time></trkpt><trkpt lon="5.923311" lat="51.169182"><ele>20.2</ele><time>2022-05-22T09:25:00.000Z</time></trkpt><trkpt lon="5.923383" lat="51.169175"><ele>20.2</ele><time>2022-05-22T09:25:01.000Z</time></trkpt><trkpt lon="5.923448" lat="51.169167"><ele>20.2</ele><time>2022-05-22T09:25:02.000Z</time></trkpt><trkpt lon="5.923504" lat="51.169159"><ele>20.2</ele><time>2022-05-22T09:25:03.000Z</time></trkpt><trkpt lon="5.923565" lat="51.169155"><ele>20.2</ele><time>2022-05-22T09:25:04.000Z</time></trkpt><trkpt lon="5.923619" lat="51.169148"><ele>20.2</ele><time>2022-05-22T09:25:05.000Z</time></trkpt><trkpt lon="5.923674" lat="51.169144"><ele>20.2</ele><time>2022-05-22T09:25:06.000Z</time></trkpt><trkpt lon="5.923732" lat="51.169147"><ele>20.2</ele><time>2022-05-22T09:25:07.000Z</time></trkpt><trkpt lon="5.923791" lat="51.169162"><ele>20.2</ele><time>2022-05-22T09:25:08.000Z</time></trkpt><trkpt lon="5.923849" lat="51.16918"><ele>20.2</ele><time>2022-05-22T09:25:09.000Z</time></trkpt><trkpt lon="5.923898" lat="51.169214"><ele>20.2</ele><time>2022-05-22T09:25:10.000Z</time></trkpt><trkpt lon="5.923935" lat="51.169254"><ele>20</ele><time>2022-05-22T09:25:11.000Z</time></trkpt><trkpt lon="5.923958" lat="51.169306"><ele>19.8</ele><time>2022-05-22T09:25:12.000Z</time></trkpt><trkpt lon="5.923976" lat="51.16937"><ele>19.6</ele><time>2022-05-22T09:25:13.000Z</time></trkpt><trkpt lon="5.924001" lat="51.169442"><ele>19.2</ele><time>2022-05-22T09:25:14.000Z</time></trkpt><trkpt lon="5.924036" lat="51.169517"><ele>18.8</ele><time>2022-05-22T09:25:15.000Z</time></trkpt><trkpt lon="5.924084" lat="51.169598"><ele>18.4</ele><time>2022-05-22T09:25:16.000Z</time></trkpt><trkpt lon="5.924142" lat="51.169683"><ele>18.2</ele><time>2022-05-22T09:25:17.000Z</time></trkpt><trkpt lon="5.9242" lat="51.169761"><ele>18</ele><time>2022-05-22T09:25:18.000Z</time></trkpt><trkpt lon="5.924261" lat="51.169843"><ele>17.8</ele><time>2022-05-22T09:25:19.000Z</time></trkpt><trkpt lon="5.924323" lat="51.169923"><ele>17.6</ele><time>2022-05-22T09:25:20.000Z</time></trkpt><trkpt lon="5.92438" lat="51.169999"><ele>17.6</ele><time>2022-05-22T09:25:21.000Z</time></trkpt><trkpt lon="5.924448" lat="51.170083"><ele>17.4</ele><time>2022-05-22T09:25:22.000Z</time></trkpt><trkpt lon="5.92451" lat="51.17016"><ele>17.2</ele><time>2022-05-22T09:25:23.000Z</time></trkpt><trkpt lon="5.924569" lat="51.170235"><ele>17.2</ele><time>2022-05-22T09:25:24.000Z</time></trkpt><trkpt lon="5.924628" lat="51.170312"><ele>17</ele><time>2022-05-22T09:25:25.000Z</time></trkpt><trkpt lon="5.924685" lat="51.170385"><ele>17</ele><time>2022-05-22T09:25:26.000Z</time></trkpt><trkpt lon="5.924743" lat="51.17046"><ele>17</ele><time>2022-05-22T09:25:27.000Z</time></trkpt><trkpt lon="5.9248" lat="51.170537"><ele>16.8</ele><time>2022-05-22T09:25:28.000Z</time></trkpt><trkpt lon="5.924859" lat="51.170617"><ele>16.6</ele><time>2022-05-22T09:25:29.000Z</time></trkpt><trkpt lon="5.924921" lat="51.170693"><ele>16.4</ele><time>2022-05-22T09:25:30.000Z</time></trkpt><trkpt lon="5.924981" lat="51.17076"><ele>16</ele><time>2022-05-22T09:25:31.000Z</time></trkpt><trkpt lon="5.92504" lat="51.170836"><ele>15.8</ele><time>2022-05-22T09:25:32.000Z</time></trkpt><trkpt lon="5.925092" lat="51.170904"><ele>15.8</ele><time>2022-05-22T09:25:33.000Z</time></trkpt><trkpt lon="5.925141" lat="51.170972"><ele>16</ele><time>2022-05-22T09:25:34.000Z</time></trkpt><trkpt lon="5.925188" lat="51.171037"><ele>16.2</ele><time>2022-05-22T09:25:35.000Z</time></trkpt><trkpt lon="5.925232" lat="51.171097"><ele>16.2</ele><time>2022-05-22T09:25:36.000Z</time></trkpt><trkpt lon="5.925278" lat="51.171164"><ele>16.2</ele><time>2022-05-22T09:25:37.000Z</time></trkpt><trkpt lon="5.925317" lat="51.171225"><ele>16.4</ele><time>2022-05-22T09:25:38.000Z</time></trkpt><trkpt lon="5.92535" lat="51.171288"><ele>16.6</ele><time>2022-05-22T09:25:39.000Z</time></trkpt><trkpt lon="5.925364" lat="51.171354"><ele>17</ele><time>2022-05-22T09:25:40.000Z</time></trkpt><trkpt lon="5.925343" lat="51.171407"><ele>17.4</ele><time>2022-05-22T09:25:41.000Z</time></trkpt><trkpt lon="5.925289" lat="51.17145"><ele>17.6</ele><time>2022-05-22T09:25:42.000Z</time></trkpt><trkpt lon="5.925216" lat="51.17148"><ele>17.8</ele><time>2022-05-22T09:25:43.000Z</time></trkpt><trkpt lon="5.925129" lat="51.171508"><ele>18</ele><time>2022-05-22T09:25:44.000Z</time></trkpt><trkpt lon="5.925032" lat="51.171531"><ele>18</ele><time>2022-05-22T09:25:45.000Z</time></trkpt><trkpt lon="5.92493" lat="51.171554"><ele>18</ele><time>2022-05-22T09:25:46.000Z</time></trkpt><trkpt lon="5.924831" lat="51.17158"><ele>18</ele><time>2022-05-22T09:25:47.000Z</time></trkpt><trkpt lon="5.924729" lat="51.171603"><ele>17.8</ele><time>2022-05-22T09:25:48.000Z</time></trkpt><trkpt lon="5.924627" lat="51.17163"><ele>17.8</ele><time>2022-05-22T09:25:49.000Z</time></trkpt><trkpt lon="5.924529" lat="51.171656"><ele>17.8</ele><time>2022-05-22T09:25:50.000Z</time></trkpt><trkpt lon="5.924436" lat="51.171686"><ele>17.8</ele><time>2022-05-22T09:25:51.000Z</time></trkpt><trkpt lon="5.924339" lat="51.171714"><ele>18</ele><time>2022-05-22T09:25:52.000Z</time></trkpt><trkpt lon="5.924253" lat="51.171744"><ele>18.2</ele><time>2022-05-22T09:25:53.000Z</time></trkpt><trkpt lon="5.924164" lat="51.171771"><ele>18.4</ele><time>2022-05-22T09:25:54.000Z</time></trkpt><trkpt lon="5.92408" lat="51.171797"><ele>18.6</ele><time>2022-05-22T09:25:55.000Z</time></trkpt><trkpt lon="5.924" lat="51.17182"><ele>18.6</ele><time>2022-05-22T09:25:56.000Z</time></trkpt><trkpt lon="5.923917" lat="51.171843"><ele>18.8</ele><time>2022-05-22T09:25:57.000Z</time></trkpt><trkpt lon="5.92384" lat="51.171869"><ele>18.8</ele><time>2022-05-22T09:25:58.000Z</time></trkpt><trkpt lon="5.923761" lat="51.171904"><ele>18.6</ele><time>2022-05-22T09:25:59.000Z</time></trkpt><trkpt lon="5.923685" lat="51.171948"><ele>18.4</ele><time>2022-05-22T09:26:00.000Z</time></trkpt><trkpt lon="5.923611" lat="51.172003"><ele>18</ele><time>2022-05-22T09:26:01.000Z</time></trkpt><trkpt lon="5.923541" lat="51.172056"><ele>17.6</ele><time>2022-05-22T09:26:02.000Z</time></trkpt><trkpt lon="5.923475" lat="51.172115"><ele>17.2</ele><time>2022-05-22T09:26:03.000Z</time></trkpt><trkpt lon="5.923409" lat="51.172185"><ele>16.8</ele><time>2022-05-22T09:26:04.000Z</time></trkpt><trkpt lon="5.923355" lat="51.172251"><ele>16.2</ele><time>2022-05-22T09:26:05.000Z</time></trkpt><trkpt lon="5.9233" lat="51.172322"><ele>15.8</ele><time>2022-05-22T09:26:06.000Z</time></trkpt><trkpt lon="5.923247" lat="51.172399"><ele>15.6</ele><time>2022-05-22T09:26:07.000Z</time></trkpt><trkpt lon="5.923197" lat="51.172468"><ele>15.4</ele><time>2022-05-22T09:26:08.000Z</time></trkpt><trkpt lon="5.923146" lat="51.172532"><ele>15.4</ele><time>2022-05-22T09:26:09.000Z</time></trkpt><trkpt lon="5.923087" lat="51.172594"><ele>15.4</ele><time>2022-05-22T09:26:10.000Z</time></trkpt><trkpt lon="5.92302" lat="51.172643"><ele>15.4</ele><time>2022-05-22T09:26:11.000Z</time></trkpt><trkpt lon="5.922943" lat="51.17269"><ele>15.4</ele><time>2022-05-22T09:26:12.000Z</time></trkpt><trkpt lon="5.922882" lat="51.172739"><ele>15.4</ele><time>2022-05-22T09:26:13.000Z</time></trkpt><trkpt lon="5.922856" lat="51.172796"><ele>15.6</ele><time>2022-05-22T09:26:14.000Z</time></trkpt><trkpt lon="5.92285" lat="51.172861"><ele>15.8</ele><time>2022-05-22T09:26:15.000Z</time></trkpt><trkpt lon="5.922867" lat="51.172927"><ele>15.8</ele><time>2022-05-22T09:26:16.000Z</time></trkpt><trkpt lon="5.922895" lat="51.172995"><ele>16</ele><time>2022-05-22T09:26:17.000Z</time></trkpt><trkpt lon="5.92293" lat="51.173062"><ele>16.2</ele><time>2022-05-22T09:26:18.000Z</time></trkpt><trkpt lon="5.922965" lat="51.173125"><ele>16.4</ele><time>2022-05-22T09:26:19.000Z</time></trkpt><trkpt lon="5.923002" lat="51.17319"><ele>16.6</ele><time>2022-05-22T09:26:20.000Z</time></trkpt><trkpt lon="5.923035" lat="51.173252"><ele>16.8</ele><time>2022-05-22T09:26:21.000Z</time></trkpt><trkpt lon="5.923074" lat="51.173323"><ele>17</ele><time>2022-05-22T09:26:22.000Z</time></trkpt><trkpt lon="5.923105" lat="51.173387"><ele>17.2</ele><time>2022-05-22T09:26:23.000Z</time></trkpt><trkpt lon="5.92314" lat="51.173452"><ele>17.6</ele><time>2022-05-22T09:26:24.000Z</time></trkpt><trkpt lon="5.923179" lat="51.173513"><ele>17.8</ele><time>2022-05-22T09:26:25.000Z</time></trkpt><trkpt lon="5.923215" lat="51.173577"><ele>18</ele><time>2022-05-22T09:26:26.000Z</time></trkpt><trkpt lon="5.923252" lat="51.173643"><ele>18</ele><time>2022-05-22T09:26:27.000Z</time></trkpt><trkpt lon="5.923286" lat="51.173702"><ele>18.4</ele><time>2022-05-22T09:26:28.000Z</time></trkpt><trkpt lon="5.923322" lat="51.173768"><ele>18.6</ele><time>2022-05-22T09:26:29.000Z</time></trkpt><trkpt lon="5.923359" lat="51.17383"><ele>18.8</ele><time>2022-05-22T09:26:30.000Z</time></trkpt><trkpt lon="5.923393" lat="51.173891"><ele>19</ele><time>2022-05-22T09:26:31.000Z</time></trkpt><trkpt lon="5.92343" lat="51.173952"><ele>19.2</ele><time>2022-05-22T09:26:32.000Z</time></trkpt><trkpt lon="5.92347" lat="51.174013"><ele>19.2</ele><time>2022-05-22T09:26:33.000Z</time></trkpt><trkpt lon="5.92351" lat="51.174077"><ele>19</ele><time>2022-05-22T09:26:34.000Z</time></trkpt><trkpt lon="5.92355" lat="51.174142"><ele>19</ele><time>2022-05-22T09:26:35.000Z</time></trkpt><trkpt lon="5.923588" lat="51.174206"><ele>19</ele><time>2022-05-22T09:26:36.000Z</time></trkpt><trkpt lon="5.92363" lat="51.174272"><ele>19</ele><time>2022-05-22T09:26:37.000Z</time></trkpt><trkpt lon="5.923669" lat="51.174335"><ele>19</ele><time>2022-05-22T09:26:38.000Z</time></trkpt><trkpt lon="5.923711" lat="51.174401"><ele>19</ele><time>2022-05-22T09:26:39.000Z</time></trkpt><trkpt lon="5.923751" lat="51.174469"><ele>18.8</ele><time>2022-05-22T09:26:40.000Z</time></trkpt><trkpt lon="5.923791" lat="51.174534"><ele>18.8</ele><time>2022-05-22T09:26:41.000Z</time></trkpt><trkpt lon="5.923833" lat="51.174603"><ele>19</ele><time>2022-05-22T09:26:42.000Z</time></trkpt><trkpt lon="5.923876" lat="51.174671"><ele>18.8</ele><time>2022-05-22T09:26:43.000Z</time></trkpt><trkpt lon="5.92392" lat="51.174741"><ele>18.8</ele><time>2022-05-22T09:26:44.000Z</time></trkpt><trkpt lon="5.923964" lat="51.174811"><ele>18.8</ele><time>2022-05-22T09:26:45.000Z</time></trkpt><trkpt lon="5.92401" lat="51.174878"><ele>18.6</ele><time>2022-05-22T09:26:46.000Z</time></trkpt><trkpt lon="5.924057" lat="51.174951"><ele>18.4</ele><time>2022-05-22T09:26:47.000Z</time></trkpt><trkpt lon="5.924103" lat="51.175019"><ele>18.4</ele><time>2022-05-22T09:26:48.000Z</time></trkpt><trkpt lon="5.924147" lat="51.175092"><ele>18.2</ele><time>2022-05-22T09:26:49.000Z</time></trkpt><trkpt lon="5.924192" lat="51.175161"><ele>18.4</ele><time>2022-05-22T09:26:50.000Z</time></trkpt><trkpt lon="5.924235" lat="51.175225"><ele>18.2</ele><time>2022-05-22T09:26:51.000Z</time></trkpt><trkpt lon="5.924282" lat="51.175299"><ele>18.2</ele><time>2022-05-22T09:26:52.000Z</time></trkpt><trkpt lon="5.924325" lat="51.175367"><ele>18.2</ele><time>2022-05-22T09:26:53.000Z</time></trkpt><trkpt lon="5.92437" lat="51.175435"><ele>18.2</ele><time>2022-05-22T09:26:54.000Z</time></trkpt><trkpt lon="5.924413" lat="51.175498"><ele>18.4</ele><time>2022-05-22T09:26:55.000Z</time></trkpt><trkpt lon="5.924458" lat="51.175562"><ele>18.4</ele><time>2022-05-22T09:26:56.000Z</time></trkpt><trkpt lon="5.924497" lat="51.175628"><ele>18.4</ele><time>2022-05-22T09:26:57.000Z</time></trkpt><trkpt lon="5.924536" lat="51.175694"><ele>18.4</ele><time>2022-05-22T09:26:58.000Z</time></trkpt><trkpt lon="5.924576" lat="51.175758"><ele>18.6</ele><time>2022-05-22T09:26:59.000Z</time></trkpt><trkpt lon="5.924618" lat="51.175821"><ele>18.4</ele><time>2022-05-22T09:27:00.000Z</time></trkpt><trkpt lon="5.924668" lat="51.175894"><ele>18.4</ele><time>2022-05-22T09:27:01.000Z</time></trkpt><trkpt lon="5.924713" lat="51.175962"><ele>18.8</ele><time>2022-05-22T09:27:02.000Z</time></trkpt><trkpt lon="5.924757" lat="51.176022"><ele>19</ele><time>2022-05-22T09:27:03.000Z</time></trkpt><trkpt lon="5.924798" lat="51.176081"><ele>19</ele><time>2022-05-22T09:27:04.000Z</time></trkpt><trkpt lon="5.924847" lat="51.176152"><ele>19</ele><time>2022-05-22T09:27:05.000Z</time></trkpt><trkpt lon="5.924892" lat="51.176221"><ele>19</ele><time>2022-05-22T09:27:06.000Z</time></trkpt><trkpt lon="5.924938" lat="51.17629"><ele>19</ele><time>2022-05-22T09:27:07.000Z</time></trkpt><trkpt lon="5.92498" lat="51.176355"><ele>19</ele><time>2022-05-22T09:27:08.000Z</time></trkpt><trkpt lon="5.925027" lat="51.176423"><ele>19</ele><time>2022-05-22T09:27:09.000Z</time></trkpt><trkpt lon="5.925068" lat="51.176484"><ele>18.8</ele><time>2022-05-22T09:27:10.000Z</time></trkpt><trkpt lon="5.925117" lat="51.176557"><ele>18.8</ele><time>2022-05-22T09:27:11.000Z</time></trkpt><trkpt lon="5.925157" lat="51.176616"><ele>18.8</ele><time>2022-05-22T09:27:12.000Z</time></trkpt><trkpt lon="5.925201" lat="51.176686"><ele>18.8</ele><time>2022-05-22T09:27:13.000Z</time></trkpt><trkpt lon="5.925243" lat="51.176749"><ele>19</ele><time>2022-05-22T09:27:14.000Z</time></trkpt><trkpt lon="5.925289" lat="51.176815"><ele>19.2</ele><time>2022-05-22T09:27:15.000Z</time></trkpt><trkpt lon="5.92533" lat="51.176873"><ele>19.4</ele><time>2022-05-22T09:27:16.000Z</time></trkpt><trkpt lon="5.925374" lat="51.176937"><ele>19.6</ele><time>2022-05-22T09:27:17.000Z</time></trkpt><trkpt lon="5.925412" lat="51.176995"><ele>20</ele><time>2022-05-22T09:27:18.000Z</time></trkpt><trkpt lon="5.925455" lat="51.17706"><ele>20.4</ele><time>2022-05-22T09:27:19.000Z</time></trkpt><trkpt lon="5.92549" lat="51.177112"><ele>20.6</ele><time>2022-05-22T09:27:20.000Z</time></trkpt><trkpt lon="5.925526" lat="51.177166"><ele>20.8</ele><time>2022-05-22T09:27:21.000Z</time></trkpt><trkpt lon="5.925555" lat="51.177215"><ele>21.2</ele><time>2022-05-22T09:27:22.000Z</time></trkpt><trkpt lon="5.925582" lat="51.177264"><ele>21.6</ele><time>2022-05-22T09:27:23.000Z</time></trkpt><trkpt lon="5.925579" lat="51.177314"><ele>21.8</ele><time>2022-05-22T09:27:24.000Z</time></trkpt><trkpt lon="5.925572" lat="51.177363"><ele>22</ele><time>2022-05-22T09:27:25.000Z</time></trkpt><trkpt lon="5.925523" lat="51.177398"><ele>22.2</ele><time>2022-05-22T09:27:26.000Z</time></trkpt><trkpt lon="5.925442" lat="51.177423"><ele>22.4</ele><time>2022-05-22T09:27:27.000Z</time></trkpt><trkpt lon="5.92536" lat="51.177448"><ele>22.6</ele><time>2022-05-22T09:27:28.000Z</time></trkpt><trkpt lon="5.925271" lat="51.177471"><ele>22.6</ele><time>2022-05-22T09:27:29.000Z</time></trkpt><trkpt lon="5.925184" lat="51.17749"><ele>22.6</ele><time>2022-05-22T09:27:30.000Z</time></trkpt><trkpt lon="5.925098" lat="51.177512"><ele>22.6</ele><time>2022-05-22T09:27:31.000Z</time></trkpt><trkpt lon="5.925006" lat="51.177535"><ele>22.6</ele><time>2022-05-22T09:27:32.000Z</time></trkpt><trkpt lon="5.924914" lat="51.177555"><ele>22.6</ele><time>2022-05-22T09:27:33.000Z</time></trkpt><trkpt lon="5.924818" lat="51.177577"><ele>22.6</ele><time>2022-05-22T09:27:34.000Z</time></trkpt><trkpt lon="5.924719" lat="51.1776"><ele>22.4</ele><time>2022-05-22T09:27:35.000Z</time></trkpt><trkpt lon="5.92462" lat="51.177624"><ele>22.2</ele><time>2022-05-22T09:27:36.000Z</time></trkpt><trkpt lon="5.924522" lat="51.177649"><ele>22</ele><time>2022-05-22T09:27:37.000Z</time></trkpt><trkpt lon="5.924427" lat="51.177672"><ele>21.8</ele><time>2022-05-22T09:27:38.000Z</time></trkpt><trkpt lon="5.924337" lat="51.177699"><ele>21.6</ele><time>2022-05-22T09:27:39.000Z</time></trkpt><trkpt lon="5.924262" lat="51.177715"><ele>21.4</ele><time>2022-05-22T09:27:40.000Z</time></trkpt><trkpt lon="5.9242" lat="51.177726"><ele>21.2</ele><time>2022-05-22T09:27:41.000Z</time></trkpt><trkpt lon="5.924155" lat="51.17773"><ele>21.2</ele><time>2022-05-22T09:27:42.000Z</time></trkpt><trkpt lon="5.924114" lat="51.177727"><ele>21.2</ele><time>2022-05-22T09:27:43.000Z</time></trkpt><trkpt lon="5.924074" lat="51.177708"><ele>21.2</ele><time>2022-05-22T09:27:44.000Z</time></trkpt><trkpt lon="5.924038" lat="51.177673"><ele>21</ele><time>2022-05-22T09:27:45.000Z</time></trkpt><trkpt lon="5.924001" lat="51.177636"><ele>20.8</ele><time>2022-05-22T09:27:46.000Z</time></trkpt><trkpt lon="5.923967" lat="51.177587"><ele>20.6</ele><time>2022-05-22T09:27:47.000Z</time></trkpt><trkpt lon="5.923928" lat="51.177526"><ele>20.4</ele><time>2022-05-22T09:27:48.000Z</time></trkpt><trkpt lon="5.923893" lat="51.177465"><ele>20.2</ele><time>2022-05-22T09:27:49.000Z</time></trkpt><trkpt lon="5.92386" lat="51.177406"><ele>20</ele><time>2022-05-22T09:27:50.000Z</time></trkpt><trkpt lon="5.92383" lat="51.177348"><ele>19.8</ele><time>2022-05-22T09:27:51.000Z</time></trkpt><trkpt lon="5.923792" lat="51.17728"><ele>19.8</ele><time>2022-05-22T09:27:52.000Z</time></trkpt><trkpt lon="5.923751" lat="51.17721"><ele>19.6</ele><time>2022-05-22T09:27:53.000Z</time></trkpt><trkpt lon="5.923707" lat="51.177146"><ele>19.4</ele><time>2022-05-22T09:27:54.000Z</time></trkpt><trkpt lon="5.923654" lat="51.17708"><ele>19.2</ele><time>2022-05-22T09:27:55.000Z</time></trkpt><trkpt lon="5.923608" lat="51.177015"><ele>19.2</ele><time>2022-05-22T09:27:56.000Z</time></trkpt><trkpt lon="5.923563" lat="51.17695"><ele>19.2</ele><time>2022-05-22T09:27:57.000Z</time></trkpt><trkpt lon="5.923518" lat="51.176882"><ele>19.2</ele><time>2022-05-22T09:27:58.000Z</time></trkpt><trkpt lon="5.923475" lat="51.176818"><ele>19</ele><time>2022-05-22T09:27:59.000Z</time></trkpt><trkpt lon="5.923431" lat="51.176757"><ele>19</ele><time>2022-05-22T09:28:00.000Z</time></trkpt><trkpt lon="5.923384" lat="51.176687"><ele>19</ele><time>2022-05-22T09:28:01.000Z</time></trkpt><trkpt lon="5.923337" lat="51.176622"><ele>19</ele><time>2022-05-22T09:28:02.000Z</time></trkpt><trkpt lon="5.92329" lat="51.176554"><ele>19</ele><time>2022-05-22T09:28:03.000Z</time></trkpt><trkpt lon="5.923241" lat="51.176485"><ele>19</ele><time>2022-05-22T09:28:04.000Z</time></trkpt><trkpt lon="5.923196" lat="51.17642"><ele>18.8</ele><time>2022-05-22T09:28:05.000Z</time></trkpt><trkpt lon="5.923149" lat="51.176355"><ele>18.8</ele><time>2022-05-22T09:28:06.000Z</time></trkpt><trkpt lon="5.92311" lat="51.176288"><ele>18.8</ele><time>2022-05-22T09:28:07.000Z</time></trkpt><trkpt lon="5.923068" lat="51.176222"><ele>18.8</ele><time>2022-05-22T09:28:08.000Z</time></trkpt><trkpt lon="5.923025" lat="51.176153"><ele>18.8</ele><time>2022-05-22T09:28:09.000Z</time></trkpt><trkpt lon="5.922979" lat="51.176087"><ele>18.8</ele><time>2022-05-22T09:28:10.000Z</time></trkpt><trkpt lon="5.922932" lat="51.176017"><ele>18.8</ele><time>2022-05-22T09:28:11.000Z</time></trkpt><trkpt lon="5.922885" lat="51.175947"><ele>18.8</ele><time>2022-05-22T09:28:12.000Z</time></trkpt><trkpt lon="5.92284" lat="51.175883"><ele>18.6</ele><time>2022-05-22T09:28:13.000Z</time></trkpt><trkpt lon="5.922801" lat="51.175817"><ele>18.6</ele><time>2022-05-22T09:28:14.000Z</time></trkpt><trkpt lon="5.922756" lat="51.175753"><ele>18.6</ele><time>2022-05-22T09:28:15.000Z</time></trkpt><trkpt lon="5.922713" lat="51.175688"><ele>18.6</ele><time>2022-05-22T09:28:16.000Z</time></trkpt><trkpt lon="5.922673" lat="51.175627"><ele>18.6</ele><time>2022-05-22T09:28:17.000Z</time></trkpt><trkpt lon="5.922634" lat="51.175562"><ele>18.8</ele><time>2022-05-22T09:28:18.000Z</time></trkpt><trkpt lon="5.922594" lat="51.175504"><ele>19</ele><time>2022-05-22T09:28:19.000Z</time></trkpt><trkpt lon="5.922553" lat="51.175451"><ele>19</ele><time>2022-05-22T09:28:20.000Z</time></trkpt><trkpt lon="5.922512" lat="51.175398"><ele>19</ele><time>2022-05-22T09:28:21.000Z</time></trkpt><trkpt lon="5.92246" lat="51.175356"><ele>19</ele><time>2022-05-22T09:28:22.000Z</time></trkpt><trkpt lon="5.922397" lat="51.175324"><ele>19</ele><time>2022-05-22T09:28:23.000Z</time></trkpt><trkpt lon="5.922331" lat="51.175309"><ele>19.2</ele><time>2022-05-22T09:28:24.000Z</time></trkpt><trkpt lon="5.922257" lat="51.175308"><ele>19</ele><time>2022-05-22T09:28:25.000Z</time></trkpt><trkpt lon="5.922178" lat="51.175316"><ele>19</ele><time>2022-05-22T09:28:26.000Z</time></trkpt><trkpt lon="5.92209" lat="51.175331"><ele>18.8</ele><time>2022-05-22T09:28:27.000Z</time></trkpt><trkpt lon="5.921998" lat="51.175353"><ele>18.8</ele><time>2022-05-22T09:28:28.000Z</time></trkpt><trkpt lon="5.921902" lat="51.17538"><ele>18.8</ele><time>2022-05-22T09:28:29.000Z</time></trkpt><trkpt lon="5.921811" lat="51.175407"><ele>18.8</ele><time>2022-05-22T09:28:30.000Z</time></trkpt><trkpt lon="5.921717" lat="51.175433"><ele>18.8</ele><time>2022-05-22T09:28:31.000Z</time></trkpt><trkpt lon="5.921624" lat="51.17546"><ele>18.8</ele><time>2022-05-22T09:28:32.000Z</time></trkpt><trkpt lon="5.921529" lat="51.175487"><ele>18.8</ele><time>2022-05-22T09:28:33.000Z</time></trkpt><trkpt lon="5.921438" lat="51.175508"><ele>18.8</ele><time>2022-05-22T09:28:34.000Z</time></trkpt><trkpt lon="5.921334" lat="51.17554"><ele>19</ele><time>2022-05-22T09:28:35.000Z</time></trkpt><trkpt lon="5.921234" lat="51.175581"><ele>19</ele><time>2022-05-22T09:28:36.000Z</time></trkpt><trkpt lon="5.921133" lat="51.175613"><ele>19</ele><time>2022-05-22T09:28:37.000Z</time></trkpt><trkpt lon="5.921031" lat="51.175639"><ele>19.2</ele><time>2022-05-22T09:28:38.000Z</time></trkpt><trkpt lon="5.920929" lat="51.175662"><ele>19.4</ele><time>2022-05-22T09:28:39.000Z</time></trkpt><trkpt lon="5.920827" lat="51.175685"><ele>19.4</ele><time>2022-05-22T09:28:40.000Z</time></trkpt><trkpt lon="5.920732" lat="51.175712"><ele>19.6</ele><time>2022-05-22T09:28:41.000Z</time></trkpt><trkpt lon="5.92063" lat="51.175746"><ele>19.8</ele><time>2022-05-22T09:28:42.000Z</time></trkpt><trkpt lon="5.920528" lat="51.175776"><ele>20</ele><time>2022-05-22T09:28:43.000Z</time></trkpt><trkpt lon="5.920425" lat="51.1758"><ele>20</ele><time>2022-05-22T09:28:44.000Z</time></trkpt><trkpt lon="5.920325" lat="51.175826"><ele>20</ele><time>2022-05-22T09:28:45.000Z</time></trkpt><trkpt lon="5.920219" lat="51.175857"><ele>20</ele><time>2022-05-22T09:28:46.000Z</time></trkpt><trkpt lon="5.920112" lat="51.175887"><ele>20.2</ele><time>2022-05-22T09:28:47.000Z</time></trkpt><trkpt lon="5.919998" lat="51.175918"><ele>20.2</ele><time>2022-05-22T09:28:48.000Z</time></trkpt><trkpt lon="5.919891" lat="51.175945"><ele>20.2</ele><time>2022-05-22T09:28:49.000Z</time></trkpt><trkpt lon="5.91979" lat="51.175971"><ele>20.4</ele><time>2022-05-22T09:28:50.000Z</time></trkpt><trkpt lon="5.919694" lat="51.175999"><ele>20.2</ele><time>2022-05-22T09:28:51.000Z</time></trkpt><trkpt lon="5.91959" lat="51.176028"><ele>20.4</ele><time>2022-05-22T09:28:52.000Z</time></trkpt><trkpt lon="5.919492" lat="51.176054"><ele>20.6</ele><time>2022-05-22T09:28:53.000Z</time></trkpt><trkpt lon="5.919397" lat="51.176073"><ele>20.6</ele><time>2022-05-22T09:28:54.000Z</time></trkpt><trkpt lon="5.919292" lat="51.176101"><ele>20.6</ele><time>2022-05-22T09:28:55.000Z</time></trkpt><trkpt lon="5.9192" lat="51.176127"><ele>20.6</ele><time>2022-05-22T09:28:56.000Z</time></trkpt><trkpt lon="5.919109" lat="51.176154"><ele>20.6</ele><time>2022-05-22T09:28:57.000Z</time></trkpt><trkpt lon="5.919023" lat="51.176177"><ele>20.6</ele><time>2022-05-22T09:28:58.000Z</time></trkpt><trkpt lon="5.918933" lat="51.176204"><ele>20.6</ele><time>2022-05-22T09:28:59.000Z</time></trkpt><trkpt lon="5.918844" lat="51.176227"><ele>20.6</ele><time>2022-05-22T09:29:00.000Z</time></trkpt><trkpt lon="5.918766" lat="51.176247"><ele>20.6</ele><time>2022-05-22T09:29:01.000Z</time></trkpt><trkpt lon="5.91867" lat="51.176273"><ele>20.6</ele><time>2022-05-22T09:29:02.000Z</time></trkpt><trkpt lon="5.918588" lat="51.176295"><ele>20.6</ele><time>2022-05-22T09:29:03.000Z</time></trkpt><trkpt lon="5.918504" lat="51.176315"><ele>20.6</ele><time>2022-05-22T09:29:04.000Z</time></trkpt><trkpt lon="5.918419" lat="51.176323"><ele>20.8</ele><time>2022-05-22T09:29:05.000Z</time></trkpt><trkpt lon="5.918336" lat="51.176315"><ele>20.8</ele><time>2022-05-22T09:29:06.000Z</time></trkpt><trkpt lon="5.918265" lat="51.176293"><ele>20.6</ele><time>2022-05-22T09:29:07.000Z</time></trkpt><trkpt lon="5.918211" lat="51.176257"><ele>20.4</ele><time>2022-05-22T09:29:08.000Z</time></trkpt><trkpt lon="5.918155" lat="51.176203"><ele>20.4</ele><time>2022-05-22T09:29:09.000Z</time></trkpt><trkpt lon="5.918103" lat="51.176149"><ele>20.4</ele><time>2022-05-22T09:29:10.000Z</time></trkpt><trkpt lon="5.918058" lat="51.176089"><ele>20.2</ele><time>2022-05-22T09:29:11.000Z</time></trkpt><trkpt lon="5.918013" lat="51.176027"><ele>20.2</ele><time>2022-05-22T09:29:12.000Z</time></trkpt><trkpt lon="5.917968" lat="51.175966"><ele>20</ele><time>2022-05-22T09:29:13.000Z</time></trkpt><trkpt lon="5.917926" lat="51.175901"><ele>19.8</ele><time>2022-05-22T09:29:14.000Z</time></trkpt><trkpt lon="5.917884" lat="51.175839"><ele>19.6</ele><time>2022-05-22T09:29:15.000Z</time></trkpt><trkpt lon="5.917834" lat="51.175769"><ele>19.4</ele><time>2022-05-22T09:29:16.000Z</time></trkpt><trkpt lon="5.917782" lat="51.1757"><ele>19.2</ele><time>2022-05-22T09:29:17.000Z</time></trkpt><trkpt lon="5.917729" lat="51.175632"><ele>19</ele><time>2022-05-22T09:29:18.000Z</time></trkpt><trkpt lon="5.917677" lat="51.175563"><ele>19</ele><time>2022-05-22T09:29:19.000Z</time></trkpt><trkpt lon="5.917625" lat="51.17549"><ele>18.6</ele><time>2022-05-22T09:29:20.000Z</time></trkpt><trkpt lon="5.917577" lat="51.175421"><ele>18.6</ele><time>2022-05-22T09:29:21.000Z</time></trkpt><trkpt lon="5.917534" lat="51.175354"><ele>18.4</ele><time>2022-05-22T09:29:22.000Z</time></trkpt><trkpt lon="5.917484" lat="51.175284"><ele>18</ele><time>2022-05-22T09:29:23.000Z</time></trkpt><trkpt lon="5.917436" lat="51.175213"><ele>17.8</ele><time>2022-05-22T09:29:24.000Z</time></trkpt><trkpt lon="5.917388" lat="51.175138"><ele>17.6</ele><time>2022-05-22T09:29:25.000Z</time></trkpt><trkpt lon="5.917342" lat="51.175067"><ele>17.4</ele><time>2022-05-22T09:29:26.000Z</time></trkpt><trkpt lon="5.9173" lat="51.174998"><ele>17.2</ele><time>2022-05-22T09:29:27.000Z</time></trkpt><trkpt lon="5.917255" lat="51.174925"><ele>16.8</ele><time>2022-05-22T09:29:28.000Z</time></trkpt><trkpt lon="5.917213" lat="51.174853"><ele>16.6</ele><time>2022-05-22T09:29:29.000Z</time></trkpt><trkpt lon="5.917169" lat="51.17478"><ele>16.4</ele><time>2022-05-22T09:29:30.000Z</time></trkpt><trkpt lon="5.917128" lat="51.174708"><ele>16.2</ele><time>2022-05-22T09:29:31.000Z</time></trkpt><trkpt lon="5.917087" lat="51.174639"><ele>16.2</ele><time>2022-05-22T09:29:32.000Z</time></trkpt><trkpt lon="5.917044" lat="51.174574"><ele>16.2</ele><time>2022-05-22T09:29:33.000Z</time></trkpt><trkpt lon="5.917008" lat="51.174509"><ele>16</ele><time>2022-05-22T09:29:34.000Z</time></trkpt><trkpt lon="5.916967" lat="51.174442"><ele>16</ele><time>2022-05-22T09:29:35.000Z</time></trkpt><trkpt lon="5.916908" lat="51.174383"><ele>16</ele><time>2022-05-22T09:29:36.000Z</time></trkpt><trkpt lon="5.916836" lat="51.174336"><ele>16</ele><time>2022-05-22T09:29:37.000Z</time></trkpt><trkpt lon="5.91674" lat="51.174295"><ele>16</ele><time>2022-05-22T09:29:38.000Z</time></trkpt><trkpt lon="5.91663" lat="51.174268"><ele>16</ele><time>2022-05-22T09:29:39.000Z</time></trkpt><trkpt lon="5.916511" lat="51.174248"><ele>16.2</ele><time>2022-05-22T09:29:40.000Z</time></trkpt><trkpt lon="5.916393" lat="51.174244"><ele>16</ele><time>2022-05-22T09:29:41.000Z</time></trkpt><trkpt lon="5.916279" lat="51.174255"><ele>16</ele><time>2022-05-22T09:29:42.000Z</time></trkpt><trkpt lon="5.916176" lat="51.174277"><ele>16</ele><time>2022-05-22T09:29:43.000Z</time></trkpt><trkpt lon="5.916066" lat="51.1743"><ele>15.8</ele><time>2022-05-22T09:29:44.000Z</time></trkpt><trkpt lon="5.915964" lat="51.174327"><ele>15.8</ele><time>2022-05-22T09:29:45.000Z</time></trkpt><trkpt lon="5.915856" lat="51.17435"><ele>15.8</ele><time>2022-05-22T09:29:46.000Z</time></trkpt><trkpt lon="5.915745" lat="51.174373"><ele>15.8</ele><time>2022-05-22T09:29:47.000Z</time></trkpt><trkpt lon="5.915634" lat="51.174396"><ele>15.8</ele><time>2022-05-22T09:29:48.000Z</time></trkpt><trkpt lon="5.915526" lat="51.174419"><ele>15.8</ele><time>2022-05-22T09:29:49.000Z</time></trkpt><trkpt lon="5.915418" lat="51.174445"><ele>15.8</ele><time>2022-05-22T09:29:50.000Z</time></trkpt><trkpt lon="5.915311" lat="51.174468"><ele>15.6</ele><time>2022-05-22T09:29:51.000Z</time></trkpt><trkpt lon="5.915203" lat="51.174491"><ele>15.6</ele><time>2022-05-22T09:29:52.000Z</time></trkpt><trkpt lon="5.9151" lat="51.17451"><ele>15.6</ele><time>2022-05-22T09:29:53.000Z</time></trkpt><trkpt lon="5.915" lat="51.174532"><ele>15.6</ele><time>2022-05-22T09:29:54.000Z</time></trkpt><trkpt lon="5.914887" lat="51.17456"><ele>15.6</ele><time>2022-05-22T09:29:55.000Z</time></trkpt><trkpt lon="5.914783" lat="51.174583"><ele>15.6</ele><time>2022-05-22T09:29:56.000Z</time></trkpt><trkpt lon="5.914678" lat="51.174609"><ele>15.6</ele><time>2022-05-22T09:29:57.000Z</time></trkpt><trkpt lon="5.914572" lat="51.174636"><ele>15.6</ele><time>2022-05-22T09:29:58.000Z</time></trkpt><trkpt lon="5.914467" lat="51.174659"><ele>15.6</ele><time>2022-05-22T09:29:59.000Z</time></trkpt><trkpt lon="5.91436" lat="51.174682"><ele>15.6</ele><time>2022-05-22T09:30:00.000Z</time></trkpt><trkpt lon="5.914256" lat="51.174712"><ele>15.6</ele><time>2022-05-22T09:30:01.000Z</time></trkpt><trkpt lon="5.914152" lat="51.174735"><ele>15.8</ele><time>2022-05-22T09:30:02.000Z</time></trkpt><trkpt lon="5.914051" lat="51.174757"><ele>15.8</ele><time>2022-05-22T09:30:03.000Z</time></trkpt><trkpt lon="5.913943" lat="51.17478"><ele>15.8</ele><time>2022-05-22T09:30:04.000Z</time></trkpt><trkpt lon="5.913829" lat="51.174807"><ele>15.8</ele><time>2022-05-22T09:30:05.000Z</time></trkpt><trkpt lon="5.913718" lat="51.174834"><ele>15.8</ele><time>2022-05-22T09:30:06.000Z</time></trkpt><trkpt lon="5.913611" lat="51.174857"><ele>15.8</ele><time>2022-05-22T09:30:07.000Z</time></trkpt><trkpt lon="5.913498" lat="51.17488"><ele>15.6</ele><time>2022-05-22T09:30:08.000Z</time></trkpt><trkpt lon="5.913388" lat="51.174903"><ele>15.6</ele><time>2022-05-22T09:30:09.000Z</time></trkpt><trkpt lon="5.913281" lat="51.17493"><ele>15.6</ele><time>2022-05-22T09:30:10.000Z</time></trkpt><trkpt lon="5.913175" lat="51.174953"><ele>15.6</ele><time>2022-05-22T09:30:11.000Z</time></trkpt><trkpt lon="5.913071" lat="51.174975"><ele>15.6</ele><time>2022-05-22T09:30:12.000Z</time></trkpt><trkpt lon="5.912965" lat="51.174999"><ele>15.6</ele><time>2022-05-22T09:30:13.000Z</time></trkpt><trkpt lon="5.912868" lat="51.175021"><ele>15.6</ele><time>2022-05-22T09:30:14.000Z</time></trkpt><trkpt lon="5.912765" lat="51.175045"><ele>15.6</ele><time>2022-05-22T09:30:15.000Z</time></trkpt><trkpt lon="5.912676" lat="51.175067"><ele>15.8</ele><time>2022-05-22T09:30:16.000Z</time></trkpt><trkpt lon="5.912594" lat="51.17509"><ele>16</ele><time>2022-05-22T09:30:17.000Z</time></trkpt><trkpt lon="5.912517" lat="51.175109"><ele>16</ele><time>2022-05-22T09:30:18.000Z</time></trkpt><trkpt lon="5.912441" lat="51.175132"><ele>16</ele><time>2022-05-22T09:30:19.000Z</time></trkpt><trkpt lon="5.912374" lat="51.175151"><ele>16.2</ele><time>2022-05-22T09:30:20.000Z</time></trkpt><trkpt lon="5.912275" lat="51.175178"><ele>16</ele><time>2022-05-22T09:30:21.000Z</time></trkpt><trkpt lon="5.912188" lat="51.175192"><ele>16</ele><time>2022-05-22T09:30:22.000Z</time></trkpt><trkpt lon="5.912084" lat="51.175212"><ele>16</ele><time>2022-05-22T09:30:23.000Z</time></trkpt><trkpt lon="5.911988" lat="51.175242"><ele>16</ele><time>2022-05-22T09:30:24.000Z</time></trkpt><trkpt lon="5.911885" lat="51.175269"><ele>15.8</ele><time>2022-05-22T09:30:25.000Z</time></trkpt><trkpt lon="5.911781" lat="51.175296"><ele>15.8</ele><time>2022-05-22T09:30:26.000Z</time></trkpt><trkpt lon="5.911675" lat="51.175323"><ele>15.6</ele><time>2022-05-22T09:30:27.000Z</time></trkpt><trkpt lon="5.911568" lat="51.175349"><ele>15.8</ele><time>2022-05-22T09:30:28.000Z</time></trkpt><trkpt lon="5.911459" lat="51.175372"><ele>15.8</ele><time>2022-05-22T09:30:29.000Z</time></trkpt><trkpt lon="5.91136" lat="51.175395"><ele>15.6</ele><time>2022-05-22T09:30:30.000Z</time></trkpt><trkpt lon="5.911261" lat="51.175415"><ele>15.6</ele><time>2022-05-22T09:30:31.000Z</time></trkpt><trkpt lon="5.911162" lat="51.175434"><ele>15.6</ele><time>2022-05-22T09:30:32.000Z</time></trkpt><trkpt lon="5.911064" lat="51.175453"><ele>15.4</ele><time>2022-05-22T09:30:33.000Z</time></trkpt><trkpt lon="5.910967" lat="51.175468"><ele>15.4</ele><time>2022-05-22T09:30:34.000Z</time></trkpt><trkpt lon="5.910869" lat="51.175487"><ele>15.4</ele><time>2022-05-22T09:30:35.000Z</time></trkpt><trkpt lon="5.910775" lat="51.175506"><ele>15.4</ele><time>2022-05-22T09:30:36.000Z</time></trkpt><trkpt lon="5.910692" lat="51.175521"><ele>15.2</ele><time>2022-05-22T09:30:37.000Z</time></trkpt><trkpt lon="5.910611" lat="51.175536"><ele>15.2</ele><time>2022-05-22T09:30:38.000Z</time></trkpt><trkpt lon="5.910532" lat="51.175552"><ele>15.2</ele><time>2022-05-22T09:30:39.000Z</time></trkpt><trkpt lon="5.910442" lat="51.175571"><ele>15.2</ele><time>2022-05-22T09:30:40.000Z</time></trkpt><trkpt lon="5.91035" lat="51.175598"><ele>15.2</ele><time>2022-05-22T09:30:41.000Z</time></trkpt><trkpt lon="5.910254" lat="51.17562"><ele>15.2</ele><time>2022-05-22T09:30:42.000Z</time></trkpt><trkpt lon="5.910166" lat="51.17565"><ele>15.2</ele><time>2022-05-22T09:30:43.000Z</time></trkpt><trkpt lon="5.910059" lat="51.175677"><ele>15.4</ele><time>2022-05-22T09:30:44.000Z</time></trkpt><trkpt lon="5.90994" lat="51.175704"><ele>15.4</ele><time>2022-05-22T09:30:45.000Z</time></trkpt><trkpt lon="5.909832" lat="51.17572"><ele>15.6</ele><time>2022-05-22T09:30:46.000Z</time></trkpt><trkpt lon="5.909713" lat="51.175739"><ele>15.8</ele><time>2022-05-22T09:30:47.000Z</time></trkpt><trkpt lon="5.909604" lat="51.175758"><ele>15.8</ele><time>2022-05-22T09:30:48.000Z</time></trkpt><trkpt lon="5.909491" lat="51.175773"><ele>15.8</ele><time>2022-05-22T09:30:49.000Z</time></trkpt><trkpt lon="5.909366" lat="51.175792"><ele>16</ele><time>2022-05-22T09:30:50.000Z</time></trkpt><trkpt lon="5.909241" lat="51.175804"><ele>16</ele><time>2022-05-22T09:30:51.000Z</time></trkpt><trkpt lon="5.909128" lat="51.175811"><ele>16.2</ele><time>2022-05-22T09:30:52.000Z</time></trkpt><trkpt lon="5.908994" lat="51.175823"><ele>16.4</ele><time>2022-05-22T09:30:53.000Z</time></trkpt><trkpt lon="5.908876" lat="51.175827"><ele>16.4</ele><time>2022-05-22T09:30:54.000Z</time></trkpt><trkpt lon="5.90876" lat="51.175831"><ele>16.4</ele><time>2022-05-22T09:30:55.000Z</time></trkpt><trkpt lon="5.908647" lat="51.175831"><ele>16.4</ele><time>2022-05-22T09:30:56.000Z</time></trkpt><trkpt lon="5.908536" lat="51.175823"><ele>16.4</ele><time>2022-05-22T09:30:57.000Z</time></trkpt><trkpt lon="5.908427" lat="51.17582"><ele>16.4</ele><time>2022-05-22T09:30:58.000Z</time></trkpt><trkpt lon="5.908315" lat="51.175819"><ele>16.4</ele><time>2022-05-22T09:30:59.000Z</time></trkpt><trkpt lon="5.908203" lat="51.175816"><ele>16.4</ele><time>2022-05-22T09:31:00.000Z</time></trkpt><trkpt lon="5.908096" lat="51.175816"><ele>16.6</ele><time>2022-05-22T09:31:01.000Z</time></trkpt><trkpt lon="5.907991" lat="51.175816"><ele>16.8</ele><time>2022-05-22T09:31:02.000Z</time></trkpt><trkpt lon="5.907894" lat="51.175816"><ele>17</ele><time>2022-05-22T09:31:03.000Z</time></trkpt><trkpt lon="5.907783" lat="51.175816"><ele>17.2</ele><time>2022-05-22T09:31:04.000Z</time></trkpt><trkpt lon="5.907688" lat="51.175816"><ele>17.6</ele><time>2022-05-22T09:31:05.000Z</time></trkpt><trkpt lon="5.907591" lat="51.175816"><ele>17.8</ele><time>2022-05-22T09:31:06.000Z</time></trkpt><trkpt lon="5.907499" lat="51.175819"><ele>18</ele><time>2022-05-22T09:31:07.000Z</time></trkpt><trkpt lon="5.907412" lat="51.175827"><ele>18.2</ele><time>2022-05-22T09:31:08.000Z</time></trkpt><trkpt lon="5.907321" lat="51.175846"><ele>18</ele><time>2022-05-22T09:31:09.000Z</time></trkpt><trkpt lon="5.907239" lat="51.175871"><ele>18</ele><time>2022-05-22T09:31:10.000Z</time></trkpt><trkpt lon="5.907157" lat="51.175905"><ele>18</ele><time>2022-05-22T09:31:11.000Z</time></trkpt><trkpt lon="5.907076" lat="51.175944"><ele>17.8</ele><time>2022-05-22T09:31:12.000Z</time></trkpt><trkpt lon="5.907004" lat="51.175985"><ele>17.8</ele><time>2022-05-22T09:31:13.000Z</time></trkpt><trkpt lon="5.906925" lat="51.17602"><ele>17.8</ele><time>2022-05-22T09:31:14.000Z</time></trkpt><trkpt lon="5.906838" lat="51.176044"><ele>17.8</ele><time>2022-05-22T09:31:15.000Z</time></trkpt><trkpt lon="5.906751" lat="51.176037"><ele>17.6</ele><time>2022-05-22T09:31:16.000Z</time></trkpt><trkpt lon="5.906676" lat="51.176007"><ele>17.4</ele><time>2022-05-22T09:31:17.000Z</time></trkpt><trkpt lon="5.906599" lat="51.175958"><ele>17.2</ele><time>2022-05-22T09:31:18.000Z</time></trkpt><trkpt lon="5.906528" lat="51.175915"><ele>17.2</ele><time>2022-05-22T09:31:19.000Z</time></trkpt><trkpt lon="5.906448" lat="51.175863"><ele>17.2</ele><time>2022-05-22T09:31:20.000Z</time></trkpt><trkpt lon="5.906372" lat="51.175814"><ele>17.2</ele><time>2022-05-22T09:31:21.000Z</time></trkpt><trkpt lon="5.906289" lat="51.175772"><ele>17.2</ele><time>2022-05-22T09:31:22.000Z</time></trkpt><trkpt lon="5.90619" lat="51.175744"><ele>17.2</ele><time>2022-05-22T09:31:23.000Z</time></trkpt><trkpt lon="5.906086" lat="51.175728"><ele>17.2</ele><time>2022-05-22T09:31:24.000Z</time></trkpt><trkpt lon="5.905974" lat="51.17572"><ele>17.2</ele><time>2022-05-22T09:31:25.000Z</time></trkpt><trkpt lon="5.905865" lat="51.17572"><ele>17.2</ele><time>2022-05-22T09:31:26.000Z</time></trkpt><trkpt lon="5.905753" lat="51.17572"><ele>17.2</ele><time>2022-05-22T09:31:27.000Z</time></trkpt><trkpt lon="5.905641" lat="51.175724"><ele>17</ele><time>2022-05-22T09:31:28.000Z</time></trkpt><trkpt lon="5.905533" lat="51.175728"><ele>17</ele><time>2022-05-22T09:31:29.000Z</time></trkpt><trkpt lon="5.90542" lat="51.175728"><ele>17</ele><time>2022-05-22T09:31:30.000Z</time></trkpt><trkpt lon="5.905308" lat="51.175732"><ele>17</ele><time>2022-05-22T09:31:31.000Z</time></trkpt><trkpt lon="5.905198" lat="51.175732"><ele>17</ele><time>2022-05-22T09:31:32.000Z</time></trkpt><trkpt lon="5.905086" lat="51.175735"><ele>17</ele><time>2022-05-22T09:31:33.000Z</time></trkpt><trkpt lon="5.90498" lat="51.175735"><ele>17</ele><time>2022-05-22T09:31:34.000Z</time></trkpt><trkpt lon="5.904868" lat="51.175739"><ele>17</ele><time>2022-05-22T09:31:35.000Z</time></trkpt><trkpt lon="5.904765" lat="51.175739"><ele>17</ele><time>2022-05-22T09:31:36.000Z</time></trkpt><trkpt lon="5.90465" lat="51.175743"><ele>17.2</ele><time>2022-05-22T09:31:37.000Z</time></trkpt><trkpt lon="5.904536" lat="51.175747"><ele>17.2</ele><time>2022-05-22T09:31:38.000Z</time></trkpt><trkpt lon="5.904418" lat="51.175751"><ele>17.2</ele><time>2022-05-22T09:31:39.000Z</time></trkpt><trkpt lon="5.904308" lat="51.175751"><ele>17.2</ele><time>2022-05-22T09:31:40.000Z</time></trkpt><trkpt lon="5.9042" lat="51.175758"><ele>17</ele><time>2022-05-22T09:31:41.000Z</time></trkpt><trkpt lon="5.904099" lat="51.175773"><ele>16.8</ele><time>2022-05-22T09:31:42.000Z</time></trkpt><trkpt lon="5.904006" lat="51.1758"><ele>16.8</ele><time>2022-05-22T09:31:43.000Z</time></trkpt><trkpt lon="5.903923" lat="51.175837"><ele>17</ele><time>2022-05-22T09:31:44.000Z</time></trkpt><trkpt lon="5.90386" lat="51.175893"><ele>17</ele><time>2022-05-22T09:31:45.000Z</time></trkpt><trkpt lon="5.903813" lat="51.175955"><ele>17</ele><time>2022-05-22T09:31:46.000Z</time></trkpt><trkpt lon="5.903773" lat="51.17602"><ele>17</ele><time>2022-05-22T09:31:47.000Z</time></trkpt><trkpt lon="5.903731" lat="51.176084"><ele>16.8</ele><time>2022-05-22T09:31:48.000Z</time></trkpt><trkpt lon="5.90369" lat="51.17615"><ele>16.6</ele><time>2022-05-22T09:31:49.000Z</time></trkpt><trkpt lon="5.903646" lat="51.176211"><ele>16.4</ele><time>2022-05-22T09:31:50.000Z</time></trkpt><trkpt lon="5.903606" lat="51.176272"><ele>16.2</ele><time>2022-05-22T09:31:51.000Z</time></trkpt><trkpt lon="5.903569" lat="51.176328"><ele>16.4</ele><time>2022-05-22T09:31:52.000Z</time></trkpt><trkpt lon="5.903529" lat="51.17639"><ele>16.2</ele><time>2022-05-22T09:31:53.000Z</time></trkpt><trkpt lon="5.90349" lat="51.176454"><ele>16.2</ele><time>2022-05-22T09:31:54.000Z</time></trkpt><trkpt lon="5.903447" lat="51.176519"><ele>16.2</ele><time>2022-05-22T09:31:55.000Z</time></trkpt><trkpt lon="5.903405" lat="51.176584"><ele>16.2</ele><time>2022-05-22T09:31:56.000Z</time></trkpt><trkpt lon="5.903361" lat="51.176646"><ele>16.4</ele><time>2022-05-22T09:31:57.000Z</time></trkpt><trkpt lon="5.90332" lat="51.176714"><ele>16.4</ele><time>2022-05-22T09:31:58.000Z</time></trkpt><trkpt lon="5.903279" lat="51.176783"><ele>16.2</ele><time>2022-05-22T09:31:59.000Z</time></trkpt><trkpt lon="5.903242" lat="51.176847"><ele>16.2</ele><time>2022-05-22T09:32:00.000Z</time></trkpt><trkpt lon="5.903203" lat="51.176906"><ele>16.2</ele><time>2022-05-22T09:32:01.000Z</time></trkpt><trkpt lon="5.903161" lat="51.176974"><ele>16.4</ele><time>2022-05-22T09:32:02.000Z</time></trkpt><trkpt lon="5.903123" lat="51.177038"><ele>16.4</ele><time>2022-05-22T09:32:03.000Z</time></trkpt><trkpt lon="5.903085" lat="51.177094"><ele>16.4</ele><time>2022-05-22T09:32:04.000Z</time></trkpt><trkpt lon="5.90305" lat="51.177153"><ele>16.4</ele><time>2022-05-22T09:32:05.000Z</time></trkpt><trkpt lon="5.903016" lat="51.17721"><ele>16.4</ele><time>2022-05-22T09:32:06.000Z</time></trkpt><trkpt lon="5.902979" lat="51.177256"><ele>16.6</ele><time>2022-05-22T09:32:07.000Z</time></trkpt><trkpt lon="5.902921" lat="51.177291"><ele>16.6</ele><time>2022-05-22T09:32:08.000Z</time></trkpt><trkpt lon="5.902843" lat="51.177303"><ele>16.8</ele><time>2022-05-22T09:32:09.000Z</time></trkpt><trkpt lon="5.90276" lat="51.177296"><ele>16.6</ele><time>2022-05-22T09:32:10.000Z</time></trkpt><trkpt lon="5.902671" lat="51.177277"><ele>16.6</ele><time>2022-05-22T09:32:11.000Z</time></trkpt><trkpt lon="5.902572" lat="51.177254"><ele>16.4</ele><time>2022-05-22T09:32:12.000Z</time></trkpt><trkpt lon="5.902477" lat="51.177232"><ele>16.4</ele><time>2022-05-22T09:32:13.000Z</time></trkpt><trkpt lon="5.902379" lat="51.177206"><ele>16.2</ele><time>2022-05-22T09:32:14.000Z</time></trkpt><trkpt lon="5.902282" lat="51.177186"><ele>16.2</ele><time>2022-05-22T09:32:15.000Z</time></trkpt><trkpt lon="5.902186" lat="51.17716"><ele>16.2</ele><time>2022-05-22T09:32:16.000Z</time></trkpt><trkpt lon="5.902088" lat="51.177136"><ele>16</ele><time>2022-05-22T09:32:17.000Z</time></trkpt><trkpt lon="5.901992" lat="51.177117"><ele>16.2</ele><time>2022-05-22T09:32:18.000Z</time></trkpt><trkpt lon="5.901894" lat="51.177095"><ele>16.2</ele><time>2022-05-22T09:32:19.000Z</time></trkpt><trkpt lon="5.901798" lat="51.177068"><ele>16.4</ele><time>2022-05-22T09:32:20.000Z</time></trkpt><trkpt lon="5.901705" lat="51.177041"><ele>16.4</ele><time>2022-05-22T09:32:21.000Z</time></trkpt><trkpt lon="5.901612" lat="51.177014"><ele>16.4</ele><time>2022-05-22T09:32:22.000Z</time></trkpt><trkpt lon="5.901521" lat="51.176995"><ele>16.4</ele><time>2022-05-22T09:32:23.000Z</time></trkpt><trkpt lon="5.901427" lat="51.17698"><ele>16.4</ele><time>2022-05-22T09:32:24.000Z</time></trkpt><trkpt lon="5.901326" lat="51.176975"><ele>16.4</ele><time>2022-05-22T09:32:25.000Z</time></trkpt><trkpt lon="5.90123" lat="51.176997"><ele>16.4</ele><time>2022-05-22T09:32:26.000Z</time></trkpt><trkpt lon="5.901134" lat="51.177032"><ele>16.2</ele><time>2022-05-22T09:32:27.000Z</time></trkpt><trkpt lon="5.901044" lat="51.177073"><ele>16.4</ele><time>2022-05-22T09:32:28.000Z</time></trkpt><trkpt lon="5.900955" lat="51.177111"><ele>16.4</ele><time>2022-05-22T09:32:29.000Z</time></trkpt><trkpt lon="5.90087" lat="51.17715"><ele>16.4</ele><time>2022-05-22T09:32:30.000Z</time></trkpt><trkpt lon="5.900776" lat="51.177194"><ele>16.6</ele><time>2022-05-22T09:32:31.000Z</time></trkpt><trkpt lon="5.900684" lat="51.177237"><ele>16.6</ele><time>2022-05-22T09:32:32.000Z</time></trkpt><trkpt lon="5.900596" lat="51.177275"><ele>16.6</ele><time>2022-05-22T09:32:33.000Z</time></trkpt><trkpt lon="5.900504" lat="51.177314"><ele>16.6</ele><time>2022-05-22T09:32:34.000Z</time></trkpt><trkpt lon="5.900416" lat="51.177352"><ele>16.6</ele><time>2022-05-22T09:32:35.000Z</time></trkpt><trkpt lon="5.900331" lat="51.17739"><ele>16.6</ele><time>2022-05-22T09:32:36.000Z</time></trkpt><trkpt lon="5.900242" lat="51.177424"><ele>16.6</ele><time>2022-05-22T09:32:37.000Z</time></trkpt><trkpt lon="5.900151" lat="51.177455"><ele>16.6</ele><time>2022-05-22T09:32:38.000Z</time></trkpt><trkpt lon="5.900058" lat="51.177474"><ele>16.6</ele><time>2022-05-22T09:32:39.000Z</time></trkpt><trkpt lon="5.899962" lat="51.177486"><ele>16.6</ele><time>2022-05-22T09:32:40.000Z</time></trkpt><trkpt lon="5.899858" lat="51.177486"><ele>16.6</ele><time>2022-05-22T09:32:41.000Z</time></trkpt><trkpt lon="5.899756" lat="51.177483"><ele>16.6</ele><time>2022-05-22T09:32:42.000Z</time></trkpt><trkpt lon="5.899656" lat="51.177479"><ele>16.6</ele><time>2022-05-22T09:32:43.000Z</time></trkpt><trkpt lon="5.899558" lat="51.177475"><ele>16.6</ele><time>2022-05-22T09:32:44.000Z</time></trkpt><trkpt lon="5.89946" lat="51.177471"><ele>16.6</ele><time>2022-05-22T09:32:45.000Z</time></trkpt><trkpt lon="5.899364" lat="51.177456"><ele>16.6</ele><time>2022-05-22T09:32:46.000Z</time></trkpt><trkpt lon="5.899268" lat="51.177437"><ele>16.6</ele><time>2022-05-22T09:32:47.000Z</time></trkpt><trkpt lon="5.899182" lat="51.177415"><ele>16.6</ele><time>2022-05-22T09:32:48.000Z</time></trkpt><trkpt lon="5.899102" lat="51.177381"><ele>16.6</ele><time>2022-05-22T09:32:49.000Z</time></trkpt><trkpt lon="5.899025" lat="51.177336"><ele>16.6</ele><time>2022-05-22T09:32:50.000Z</time></trkpt><trkpt lon="5.898947" lat="51.177289"><ele>16.6</ele><time>2022-05-22T09:32:51.000Z</time></trkpt><trkpt lon="5.898867" lat="51.177236"><ele>16.6</ele><time>2022-05-22T09:32:52.000Z</time></trkpt><trkpt lon="5.898786" lat="51.177183"><ele>16.4</ele><time>2022-05-22T09:32:53.000Z</time></trkpt><trkpt lon="5.898722" lat="51.177144"><ele>16.4</ele><time>2022-05-22T09:32:54.000Z</time></trkpt><trkpt lon="5.898623" lat="51.17708"><ele>16.4</ele><time>2022-05-22T09:32:55.000Z</time></trkpt><trkpt lon="5.898541" lat="51.177034"><ele>16.4</ele><time>2022-05-22T09:32:56.000Z</time></trkpt><trkpt lon="5.898461" lat="51.176985"><ele>16.4</ele><time>2022-05-22T09:32:57.000Z</time></trkpt><trkpt lon="5.898382" lat="51.176942"><ele>16.4</ele><time>2022-05-22T09:32:58.000Z</time></trkpt><trkpt lon="5.898314" lat="51.176904"><ele>16.4</ele><time>2022-05-22T09:32:59.000Z</time></trkpt><trkpt lon="5.898247" lat="51.17687"><ele>16.4</ele><time>2022-05-22T09:33:00.000Z</time></trkpt><trkpt lon="5.898177" lat="51.176836"><ele>16.6</ele><time>2022-05-22T09:33:01.000Z</time></trkpt><trkpt lon="5.898109" lat="51.176801"><ele>16.6</ele><time>2022-05-22T09:33:02.000Z</time></trkpt><trkpt lon="5.898058" lat="51.176756"><ele>16.8</ele><time>2022-05-22T09:33:03.000Z</time></trkpt><trkpt lon="5.898023" lat="51.176713"><ele>16.8</ele><time>2022-05-22T09:33:04.000Z</time></trkpt><trkpt lon="5.898007" lat="51.17666"><ele>16.8</ele><time>2022-05-22T09:33:05.000Z</time></trkpt><trkpt lon="5.898" lat="51.176596"><ele>16.4</ele><time>2022-05-22T09:33:06.000Z</time></trkpt><trkpt lon="5.897994" lat="51.176535"><ele>16.2</ele><time>2022-05-22T09:33:07.000Z</time></trkpt><trkpt lon="5.897971" lat="51.176471"><ele>16</ele><time>2022-05-22T09:33:08.000Z</time></trkpt><trkpt lon="5.897918" lat="51.176408"><ele>15.8</ele><time>2022-05-22T09:33:09.000Z</time></trkpt><trkpt lon="5.897857" lat="51.176351"><ele>15.8</ele><time>2022-05-22T09:33:10.000Z</time></trkpt><trkpt lon="5.897794" lat="51.176295"><ele>15.8</ele><time>2022-05-22T09:33:11.000Z</time></trkpt><trkpt lon="5.897733" lat="51.176246"><ele>15.8</ele><time>2022-05-22T09:33:12.000Z</time></trkpt><trkpt lon="5.897672" lat="51.176184"><ele>15.8</ele><time>2022-05-22T09:33:13.000Z</time></trkpt><trkpt lon="5.897631" lat="51.176122"><ele>15.8</ele><time>2022-05-22T09:33:14.000Z</time></trkpt><trkpt lon="5.897611" lat="51.176058"><ele>16</ele><time>2022-05-22T09:33:15.000Z</time></trkpt><trkpt lon="5.897607" lat="51.175992"><ele>16.2</ele><time>2022-05-22T09:33:16.000Z</time></trkpt><trkpt lon="5.897618" lat="51.175926"><ele>16</ele><time>2022-05-22T09:33:17.000Z</time></trkpt><trkpt lon="5.897638" lat="51.175859"><ele>15.8</ele><time>2022-05-22T09:33:18.000Z</time></trkpt><trkpt lon="5.897664" lat="51.175794"><ele>15.6</ele><time>2022-05-22T09:33:19.000Z</time></trkpt><trkpt lon="5.897688" lat="51.175733"><ele>15.8</ele><time>2022-05-22T09:33:20.000Z</time></trkpt><trkpt lon="5.897707" lat="51.175676"><ele>15.8</ele><time>2022-05-22T09:33:21.000Z</time></trkpt><trkpt lon="5.897726" lat="51.175615"><ele>15.8</ele><time>2022-05-22T09:33:22.000Z</time></trkpt><trkpt lon="5.897742" lat="51.175559"><ele>15.8</ele><time>2022-05-22T09:33:23.000Z</time></trkpt><trkpt lon="5.897757" lat="51.175503"><ele>15.8</ele><time>2022-05-22T09:33:24.000Z</time></trkpt><trkpt lon="5.897771" lat="51.175444"><ele>15.6</ele><time>2022-05-22T09:33:25.000Z</time></trkpt><trkpt lon="5.897789" lat="51.175387"><ele>15.6</ele><time>2022-05-22T09:33:26.000Z</time></trkpt><trkpt lon="5.897814" lat="51.17533"><ele>15.6</ele><time>2022-05-22T09:33:27.000Z</time></trkpt><trkpt lon="5.897843" lat="51.175272"><ele>15.6</ele><time>2022-05-22T09:33:28.000Z</time></trkpt><trkpt lon="5.897877" lat="51.175218"><ele>15.6</ele><time>2022-05-22T09:33:29.000Z</time></trkpt><trkpt lon="5.897906" lat="51.175154"><ele>15.4</ele><time>2022-05-22T09:33:30.000Z</time></trkpt><trkpt lon="5.89793" lat="51.175083"><ele>15.4</ele><time>2022-05-22T09:33:31.000Z</time></trkpt><trkpt lon="5.897963" lat="51.175002"><ele>15.2</ele><time>2022-05-22T09:33:32.000Z</time></trkpt><trkpt lon="5.897984" lat="51.174926"><ele>15.2</ele><time>2022-05-22T09:33:33.000Z</time></trkpt><trkpt lon="5.89799" lat="51.174859"><ele>15.2</ele><time>2022-05-22T09:33:34.000Z</time></trkpt><trkpt lon="5.897982" lat="51.174791"><ele>15.2</ele><time>2022-05-22T09:33:35.000Z</time></trkpt><trkpt lon="5.897974" lat="51.174723"><ele>15.2</ele><time>2022-05-22T09:33:36.000Z</time></trkpt><trkpt lon="5.897959" lat="51.174658"><ele>15.2</ele><time>2022-05-22T09:33:37.000Z</time></trkpt><trkpt lon="5.897936" lat="51.17459"><ele>15.4</ele><time>2022-05-22T09:33:38.000Z</time></trkpt><trkpt lon="5.897912" lat="51.17452"><ele>15.6</ele><time>2022-05-22T09:33:39.000Z</time></trkpt><trkpt lon="5.897891" lat="51.174451"><ele>15.8</ele><time>2022-05-22T09:33:40.000Z</time></trkpt><trkpt lon="5.897869" lat="51.174376"><ele>16</ele><time>2022-05-22T09:33:41.000Z</time></trkpt><trkpt lon="5.897854" lat="51.174314"><ele>16</ele><time>2022-05-22T09:33:42.000Z</time></trkpt><trkpt lon="5.897837" lat="51.174242"><ele>16.2</ele><time>2022-05-22T09:33:43.000Z</time></trkpt><trkpt lon="5.897825" lat="51.174175"><ele>16.2</ele><time>2022-05-22T09:33:44.000Z</time></trkpt><trkpt lon="5.897817" lat="51.174098"><ele>16.2</ele><time>2022-05-22T09:33:45.000Z</time></trkpt><trkpt lon="5.89781" lat="51.174029"><ele>16.4</ele><time>2022-05-22T09:33:46.000Z</time></trkpt><trkpt lon="5.897802" lat="51.173961"><ele>16.4</ele><time>2022-05-22T09:33:47.000Z</time></trkpt><trkpt lon="5.897794" lat="51.173888"><ele>16.4</ele><time>2022-05-22T09:33:48.000Z</time></trkpt><trkpt lon="5.897779" lat="51.173815"><ele>16.6</ele><time>2022-05-22T09:33:49.000Z</time></trkpt><trkpt lon="5.897762" lat="51.173743"><ele>16.4</ele><time>2022-05-22T09:33:50.000Z</time></trkpt><trkpt lon="5.897749" lat="51.173674"><ele>16.6</ele><time>2022-05-22T09:33:51.000Z</time></trkpt><trkpt lon="5.897734" lat="51.17361"><ele>16.6</ele><time>2022-05-22T09:33:52.000Z</time></trkpt><trkpt lon="5.897719" lat="51.17354"><ele>16.6</ele><time>2022-05-22T09:33:53.000Z</time></trkpt><trkpt lon="5.8977" lat="51.173475"><ele>16.6</ele><time>2022-05-22T09:33:54.000Z</time></trkpt><trkpt lon="5.897686" lat="51.173411"><ele>16.6</ele><time>2022-05-22T09:33:55.000Z</time></trkpt><trkpt lon="5.897666" lat="51.173342"><ele>16.6</ele><time>2022-05-22T09:33:56.000Z</time></trkpt><trkpt lon="5.897648" lat="51.173279"><ele>16.8</ele><time>2022-05-22T09:33:57.000Z</time></trkpt><trkpt lon="5.897627" lat="51.173208"><ele>16.8</ele><time>2022-05-22T09:33:58.000Z</time></trkpt><trkpt lon="5.897611" lat="51.17314"><ele>16.8</ele><time>2022-05-22T09:33:59.000Z</time></trkpt><trkpt lon="5.897599" lat="51.173068"><ele>16.8</ele><time>2022-05-22T09:34:00.000Z</time></trkpt><trkpt lon="5.897585" lat="51.172998"><ele>16.8</ele><time>2022-05-22T09:34:01.000Z</time></trkpt><trkpt lon="5.897564" lat="51.172926"><ele>16.8</ele><time>2022-05-22T09:34:02.000Z</time></trkpt><trkpt lon="5.897529" lat="51.172846"><ele>16.6</ele><time>2022-05-22T09:34:03.000Z</time></trkpt><trkpt lon="5.897498" lat="51.17277"><ele>16.6</ele><time>2022-05-22T09:34:04.000Z</time></trkpt><trkpt lon="5.897477" lat="51.172694"><ele>16.6</ele><time>2022-05-22T09:34:05.000Z</time></trkpt><trkpt lon="5.89746" lat="51.17262"><ele>16.6</ele><time>2022-05-22T09:34:06.000Z</time></trkpt><trkpt lon="5.897442" lat="51.172545"><ele>16.6</ele><time>2022-05-22T09:34:07.000Z</time></trkpt><trkpt lon="5.897427" lat="51.17247"><ele>16.6</ele><time>2022-05-22T09:34:08.000Z</time></trkpt><trkpt lon="5.897414" lat="51.172392"><ele>16.6</ele><time>2022-05-22T09:34:09.000Z</time></trkpt><trkpt lon="5.897397" lat="51.172321"><ele>16.6</ele><time>2022-05-22T09:34:10.000Z</time></trkpt><trkpt lon="5.897381" lat="51.172253"><ele>16.6</ele><time>2022-05-22T09:34:11.000Z</time></trkpt><trkpt lon="5.897364" lat="51.172182"><ele>16.6</ele><time>2022-05-22T09:34:12.000Z</time></trkpt><trkpt lon="5.897344" lat="51.172104"><ele>16.6</ele><time>2022-05-22T09:34:13.000Z</time></trkpt><trkpt lon="5.897326" lat="51.172026"><ele>16.8</ele><time>2022-05-22T09:34:14.000Z</time></trkpt><trkpt lon="5.897307" lat="51.171953"><ele>16.8</ele><time>2022-05-22T09:34:15.000Z</time></trkpt><trkpt lon="5.897292" lat="51.171877"><ele>16.8</ele><time>2022-05-22T09:34:16.000Z</time></trkpt><trkpt lon="5.897272" lat="51.171812"><ele>16.8</ele><time>2022-05-22T09:34:17.000Z</time></trkpt><trkpt lon="5.897252" lat="51.171736"><ele>17</ele><time>2022-05-22T09:34:18.000Z</time></trkpt><trkpt lon="5.897232" lat="51.171661"><ele>16.8</ele><time>2022-05-22T09:34:19.000Z</time></trkpt><trkpt lon="5.897214" lat="51.171587"><ele>16.8</ele><time>2022-05-22T09:34:20.000Z</time></trkpt><trkpt lon="5.897193" lat="51.171517"><ele>16.6</ele><time>2022-05-22T09:34:21.000Z</time></trkpt><trkpt lon="5.897174" lat="51.171442"><ele>16.6</ele><time>2022-05-22T09:34:22.000Z</time></trkpt><trkpt lon="5.897157" lat="51.171381"><ele>16.6</ele><time>2022-05-22T09:34:23.000Z</time></trkpt><trkpt lon="5.897137" lat="51.171306"><ele>16.6</ele><time>2022-05-22T09:34:24.000Z</time></trkpt><trkpt lon="5.897116" lat="51.171229"><ele>16.8</ele><time>2022-05-22T09:34:25.000Z</time></trkpt><trkpt lon="5.897097" lat="51.171157"><ele>16.8</ele><time>2022-05-22T09:34:26.000Z</time></trkpt><trkpt lon="5.897073" lat="51.171087"><ele>16.8</ele><time>2022-05-22T09:34:27.000Z</time></trkpt><trkpt lon="5.897052" lat="51.171018"><ele>16.8</ele><time>2022-05-22T09:34:28.000Z</time></trkpt><trkpt lon="5.89703" lat="51.170954"><ele>16.8</ele><time>2022-05-22T09:34:29.000Z</time></trkpt><trkpt lon="5.89701" lat="51.170878"><ele>16.8</ele><time>2022-05-22T09:34:30.000Z</time></trkpt><trkpt lon="5.896992" lat="51.17081"><ele>16.8</ele><time>2022-05-22T09:34:31.000Z</time></trkpt><trkpt lon="5.896974" lat="51.170737"><ele>16.8</ele><time>2022-05-22T09:34:32.000Z</time></trkpt><trkpt lon="5.896954" lat="51.170668"><ele>16.8</ele><time>2022-05-22T09:34:33.000Z</time></trkpt><trkpt lon="5.896934" lat="51.170599"><ele>17</ele><time>2022-05-22T09:34:34.000Z</time></trkpt><trkpt lon="5.896914" lat="51.17053"><ele>17</ele><time>2022-05-22T09:34:35.000Z</time></trkpt><trkpt lon="5.896896" lat="51.170463"><ele>17</ele><time>2022-05-22T09:34:36.000Z</time></trkpt><trkpt lon="5.896876" lat="51.170396"><ele>17</ele><time>2022-05-22T09:34:37.000Z</time></trkpt><trkpt lon="5.896856" lat="51.170321"><ele>16.8</ele><time>2022-05-22T09:34:38.000Z</time></trkpt><trkpt lon="5.896835" lat="51.170252"><ele>16.8</ele><time>2022-05-22T09:34:39.000Z</time></trkpt><trkpt lon="5.896814" lat="51.170183"><ele>16.8</ele><time>2022-05-22T09:34:40.000Z</time></trkpt><trkpt lon="5.896794" lat="51.170111"><ele>17</ele><time>2022-05-22T09:34:41.000Z</time></trkpt><trkpt lon="5.896777" lat="51.170038"><ele>16.8</ele><time>2022-05-22T09:34:42.000Z</time></trkpt><trkpt lon="5.896759" lat="51.169964"><ele>16.8</ele><time>2022-05-22T09:34:43.000Z</time></trkpt><trkpt lon="5.896737" lat="51.16989"><ele>16.8</ele><time>2022-05-22T09:34:44.000Z</time></trkpt><trkpt lon="5.896713" lat="51.169819"><ele>16.8</ele><time>2022-05-22T09:34:45.000Z</time></trkpt><trkpt lon="5.896689" lat="51.169752"><ele>17</ele><time>2022-05-22T09:34:46.000Z</time></trkpt><trkpt lon="5.896671" lat="51.169677"><ele>17</ele><time>2022-05-22T09:34:47.000Z</time></trkpt><trkpt lon="5.896653" lat="51.169605"><ele>16.8</ele><time>2022-05-22T09:34:48.000Z</time></trkpt><trkpt lon="5.896637" lat="51.169527"><ele>16.8</ele><time>2022-05-22T09:34:49.000Z</time></trkpt><trkpt lon="5.896619" lat="51.169458"><ele>16.8</ele><time>2022-05-22T09:34:50.000Z</time></trkpt><trkpt lon="5.896598" lat="51.169389"><ele>16.8</ele><time>2022-05-22T09:34:51.000Z</time></trkpt><trkpt lon="5.896583" lat="51.169324"><ele>17</ele><time>2022-05-22T09:34:52.000Z</time></trkpt><trkpt lon="5.896562" lat="51.169245"><ele>16.8</ele><time>2022-05-22T09:34:53.000Z</time></trkpt><trkpt lon="5.896549" lat="51.169191"><ele>16.8</ele><time>2022-05-22T09:34:54.000Z</time></trkpt><trkpt lon="5.896525" lat="51.169098"><ele>17</ele><time>2022-05-22T09:34:55.000Z</time></trkpt><trkpt lon="5.896502" lat="51.169024"><ele>17</ele><time>2022-05-22T09:34:56.000Z</time></trkpt><trkpt lon="5.896485" lat="51.168951"><ele>17</ele><time>2022-05-22T09:34:57.000Z</time></trkpt><trkpt lon="5.896471" lat="51.168883"><ele>17</ele><time>2022-05-22T09:34:58.000Z</time></trkpt><trkpt lon="5.896456" lat="51.168812"><ele>17</ele><time>2022-05-22T09:34:59.000Z</time></trkpt><trkpt lon="5.896438" lat="51.168742"><ele>17</ele><time>2022-05-22T09:35:00.000Z</time></trkpt><trkpt lon="5.896422" lat="51.168675"><ele>17</ele><time>2022-05-22T09:35:01.000Z</time></trkpt><trkpt lon="5.896403" lat="51.168593"><ele>17</ele><time>2022-05-22T09:35:02.000Z</time></trkpt><trkpt lon="5.896382" lat="51.168524"><ele>17</ele><time>2022-05-22T09:35:03.000Z</time></trkpt><trkpt lon="5.896366" lat="51.168457"><ele>17</ele><time>2022-05-22T09:35:04.000Z</time></trkpt><trkpt lon="5.89635" lat="51.168393"><ele>17</ele><time>2022-05-22T09:35:05.000Z</time></trkpt><trkpt lon="5.896334" lat="51.168324"><ele>17.2</ele><time>2022-05-22T09:35:06.000Z</time></trkpt><trkpt lon="5.896319" lat="51.168257"><ele>17.2</ele><time>2022-05-22T09:35:07.000Z</time></trkpt><trkpt lon="5.896304" lat="51.168192"><ele>17.2</ele><time>2022-05-22T09:35:08.000Z</time></trkpt><trkpt lon="5.896277" lat="51.168135"><ele>17</ele><time>2022-05-22T09:35:09.000Z</time></trkpt><trkpt lon="5.896236" lat="51.168086"><ele>17</ele><time>2022-05-22T09:35:10.000Z</time></trkpt><trkpt lon="5.896174" lat="51.168043"><ele>17</ele><time>2022-05-22T09:35:11.000Z</time></trkpt><trkpt lon="5.896098" lat="51.168019"><ele>17</ele><time>2022-05-22T09:35:12.000Z</time></trkpt><trkpt lon="5.896011" lat="51.168011"><ele>17</ele><time>2022-05-22T09:35:13.000Z</time></trkpt><trkpt lon="5.89591" lat="51.168014"><ele>16.8</ele><time>2022-05-22T09:35:14.000Z</time></trkpt><trkpt lon="5.895797" lat="51.168022"><ele>16.8</ele><time>2022-05-22T09:35:15.000Z</time></trkpt><trkpt lon="5.895683" lat="51.168029"><ele>17</ele><time>2022-05-22T09:35:16.000Z</time></trkpt><trkpt lon="5.895559" lat="51.168041"><ele>17.2</ele><time>2022-05-22T09:35:17.000Z</time></trkpt><trkpt lon="5.895442" lat="51.168052"><ele>17.4</ele><time>2022-05-22T09:35:18.000Z</time></trkpt><trkpt lon="5.895333" lat="51.168064"><ele>17.6</ele><time>2022-05-22T09:35:19.000Z</time></trkpt><trkpt lon="5.895236" lat="51.168071"><ele>17.8</ele><time>2022-05-22T09:35:20.000Z</time></trkpt><trkpt lon="5.895143" lat="51.168079"><ele>18</ele><time>2022-05-22T09:35:21.000Z</time></trkpt><trkpt lon="5.895046" lat="51.168087"><ele>18</ele><time>2022-05-22T09:35:22.000Z</time></trkpt><trkpt lon="5.89495" lat="51.168098"><ele>18.2</ele><time>2022-05-22T09:35:23.000Z</time></trkpt><trkpt lon="5.894856" lat="51.168108"><ele>18.4</ele><time>2022-05-22T09:35:24.000Z</time></trkpt><trkpt lon="5.89474" lat="51.168124"><ele>18.4</ele><time>2022-05-22T09:35:25.000Z</time></trkpt><trkpt lon="5.894633" lat="51.16814"><ele>18.4</ele><time>2022-05-22T09:35:26.000Z</time></trkpt><trkpt lon="5.894522" lat="51.168155"><ele>18.6</ele><time>2022-05-22T09:35:27.000Z</time></trkpt><trkpt lon="5.894411" lat="51.168174"><ele>18.8</ele><time>2022-05-22T09:35:28.000Z</time></trkpt><trkpt lon="5.894302" lat="51.16819"><ele>19</ele><time>2022-05-22T09:35:29.000Z</time></trkpt><trkpt lon="5.894193" lat="51.168205"><ele>19</ele><time>2022-05-22T09:35:30.000Z</time></trkpt><trkpt lon="5.894086" lat="51.168227"><ele>19.2</ele><time>2022-05-22T09:35:31.000Z</time></trkpt><trkpt lon="5.893975" lat="51.168254"><ele>19.4</ele><time>2022-05-22T09:35:32.000Z</time></trkpt><trkpt lon="5.893868" lat="51.168281"><ele>19.4</ele><time>2022-05-22T09:35:33.000Z</time></trkpt><trkpt lon="5.893763" lat="51.168303"><ele>19.4</ele><time>2022-05-22T09:35:34.000Z</time></trkpt><trkpt lon="5.893654" lat="51.168327"><ele>19.6</ele><time>2022-05-22T09:35:35.000Z</time></trkpt><trkpt lon="5.89355" lat="51.168353"><ele>19.4</ele><time>2022-05-22T09:35:36.000Z</time></trkpt><trkpt lon="5.89344" lat="51.168376"><ele>19.4</ele><time>2022-05-22T09:35:37.000Z</time></trkpt><trkpt lon="5.893334" lat="51.168399"><ele>19.2</ele><time>2022-05-22T09:35:38.000Z</time></trkpt><trkpt lon="5.89323" lat="51.168422"><ele>19.4</ele><time>2022-05-22T09:35:39.000Z</time></trkpt><trkpt lon="5.893121" lat="51.168441"><ele>19.4</ele><time>2022-05-22T09:35:40.000Z</time></trkpt><trkpt lon="5.893015" lat="51.168464"><ele>19.4</ele><time>2022-05-22T09:35:41.000Z</time></trkpt><trkpt lon="5.892908" lat="51.168487"><ele>19.4</ele><time>2022-05-22T09:35:42.000Z</time></trkpt><trkpt lon="5.8928" lat="51.16851"><ele>19.4</ele><time>2022-05-22T09:35:43.000Z</time></trkpt><trkpt lon="5.892693" lat="51.168532"><ele>19.4</ele><time>2022-05-22T09:35:44.000Z</time></trkpt><trkpt lon="5.892583" lat="51.168556"><ele>19.4</ele><time>2022-05-22T09:35:45.000Z</time></trkpt><trkpt lon="5.892476" lat="51.168575"><ele>19.6</ele><time>2022-05-22T09:35:46.000Z</time></trkpt><trkpt lon="5.892371" lat="51.168597"><ele>19.6</ele><time>2022-05-22T09:35:47.000Z</time></trkpt><trkpt lon="5.892265" lat="51.16862"><ele>19.6</ele><time>2022-05-22T09:35:48.000Z</time></trkpt><trkpt lon="5.892161" lat="51.168639"><ele>19.6</ele><time>2022-05-22T09:35:49.000Z</time></trkpt><trkpt lon="5.892058" lat="51.168662"><ele>19.6</ele><time>2022-05-22T09:35:50.000Z</time></trkpt><trkpt lon="5.891956" lat="51.168685"><ele>19.6</ele><time>2022-05-22T09:35:51.000Z</time></trkpt><trkpt lon="5.891854" lat="51.168704"><ele>19.8</ele><time>2022-05-22T09:35:52.000Z</time></trkpt><trkpt lon="5.891753" lat="51.168729"><ele>19.6</ele><time>2022-05-22T09:35:53.000Z</time></trkpt><trkpt lon="5.891641" lat="51.168757"><ele>19.6</ele><time>2022-05-22T09:35:54.000Z</time></trkpt><trkpt lon="5.891532" lat="51.16878"><ele>19.6</ele><time>2022-05-22T09:35:55.000Z</time></trkpt><trkpt lon="5.891423" lat="51.168804"><ele>19.8</ele><time>2022-05-22T09:35:56.000Z</time></trkpt><trkpt lon="5.891317" lat="51.168826"><ele>19.8</ele><time>2022-05-22T09:35:57.000Z</time></trkpt><trkpt lon="5.891211" lat="51.168853"><ele>19.8</ele><time>2022-05-22T09:35:58.000Z</time></trkpt><trkpt lon="5.89111" lat="51.168876"><ele>19.8</ele><time>2022-05-22T09:35:59.000Z</time></trkpt><trkpt lon="5.891006" lat="51.168899"><ele>19.8</ele><time>2022-05-22T09:36:00.000Z</time></trkpt><trkpt lon="5.890901" lat="51.168925"><ele>19.8</ele><time>2022-05-22T09:36:01.000Z</time></trkpt><trkpt lon="5.890803" lat="51.168948"><ele>19.8</ele><time>2022-05-22T09:36:02.000Z</time></trkpt><trkpt lon="5.890701" lat="51.168975"><ele>20</ele><time>2022-05-22T09:36:03.000Z</time></trkpt><trkpt lon="5.8906" lat="51.169002"><ele>20</ele><time>2022-05-22T09:36:04.000Z</time></trkpt><trkpt lon="5.890493" lat="51.169028"><ele>20.2</ele><time>2022-05-22T09:36:05.000Z</time></trkpt><trkpt lon="5.89039" lat="51.169048"><ele>20.4</ele><time>2022-05-22T09:36:06.000Z</time></trkpt><trkpt lon="5.890285" lat="51.169067"><ele>20.6</ele><time>2022-05-22T09:36:07.000Z</time></trkpt><trkpt lon="5.890179" lat="51.169086"><ele>20.8</ele><time>2022-05-22T09:36:08.000Z</time></trkpt><trkpt lon="5.890073" lat="51.169097"><ele>21</ele><time>2022-05-22T09:36:09.000Z</time></trkpt><trkpt lon="5.889971" lat="51.169102"><ele>21.4</ele><time>2022-05-22T09:36:10.000Z</time></trkpt><trkpt lon="5.889874" lat="51.169102"><ele>21.4</ele><time>2022-05-22T09:36:11.000Z</time></trkpt><trkpt lon="5.889772" lat="51.169098"><ele>21.6</ele><time>2022-05-22T09:36:12.000Z</time></trkpt><trkpt lon="5.889664" lat="51.169094"><ele>21.6</ele><time>2022-05-22T09:36:13.000Z</time></trkpt><trkpt lon="5.889567" lat="51.16908"><ele>21.8</ele><time>2022-05-22T09:36:14.000Z</time></trkpt><trkpt lon="5.889474" lat="51.169064"><ele>21.8</ele><time>2022-05-22T09:36:15.000Z</time></trkpt><trkpt lon="5.88938" lat="51.169049"><ele>22</ele><time>2022-05-22T09:36:16.000Z</time></trkpt><trkpt lon="5.889285" lat="51.16903"><ele>22.2</ele><time>2022-05-22T09:36:17.000Z</time></trkpt><trkpt lon="5.889197" lat="51.169007"><ele>22.4</ele><time>2022-05-22T09:36:18.000Z</time></trkpt><trkpt lon="5.889112" lat="51.168981"><ele>22.8</ele><time>2022-05-22T09:36:19.000Z</time></trkpt><trkpt lon="5.889031" lat="51.168954"><ele>23.2</ele><time>2022-05-22T09:36:20.000Z</time></trkpt><trkpt lon="5.888948" lat="51.168923"><ele>23.4</ele><time>2022-05-22T09:36:21.000Z</time></trkpt><trkpt lon="5.888869" lat="51.16889"><ele>23.6</ele><time>2022-05-22T09:36:22.000Z</time></trkpt><trkpt lon="5.888784" lat="51.168851"><ele>23.8</ele><time>2022-05-22T09:36:23.000Z</time></trkpt><trkpt lon="5.88871" lat="51.168813"><ele>24</ele><time>2022-05-22T09:36:24.000Z</time></trkpt><trkpt lon="5.888632" lat="51.168775"><ele>24</ele><time>2022-05-22T09:36:25.000Z</time></trkpt><trkpt lon="5.888553" lat="51.168741"><ele>24.2</ele><time>2022-05-22T09:36:26.000Z</time></trkpt><trkpt lon="5.888471" lat="51.168702"><ele>24.4</ele><time>2022-05-22T09:36:27.000Z</time></trkpt><trkpt lon="5.888391" lat="51.168668"><ele>24.4</ele><time>2022-05-22T09:36:28.000Z</time></trkpt><trkpt lon="5.888311" lat="51.168633"><ele>24.6</ele><time>2022-05-22T09:36:29.000Z</time></trkpt><trkpt lon="5.888232" lat="51.168596"><ele>24.6</ele><time>2022-05-22T09:36:30.000Z</time></trkpt><trkpt lon="5.888151" lat="51.168557"><ele>24.8</ele><time>2022-05-22T09:36:31.000Z</time></trkpt><trkpt lon="5.888068" lat="51.168523"><ele>24.8</ele><time>2022-05-22T09:36:32.000Z</time></trkpt><trkpt lon="5.887983" lat="51.168481"><ele>24.6</ele><time>2022-05-22T09:36:33.000Z</time></trkpt><trkpt lon="5.887896" lat="51.168447"><ele>24.6</ele><time>2022-05-22T09:36:34.000Z</time></trkpt><trkpt lon="5.887806" lat="51.168409"><ele>24.6</ele><time>2022-05-22T09:36:35.000Z</time></trkpt><trkpt lon="5.887717" lat="51.168371"><ele>24.4</ele><time>2022-05-22T09:36:36.000Z</time></trkpt><trkpt lon="5.887629" lat="51.168329"><ele>24.4</ele><time>2022-05-22T09:36:37.000Z</time></trkpt><trkpt lon="5.887543" lat="51.168287"><ele>24.2</ele><time>2022-05-22T09:36:38.000Z</time></trkpt><trkpt lon="5.887453" lat="51.168245"><ele>24.2</ele><time>2022-05-22T09:36:39.000Z</time></trkpt><trkpt lon="5.887363" lat="51.168203"><ele>24</ele><time>2022-05-22T09:36:40.000Z</time></trkpt><trkpt lon="5.887275" lat="51.168161"><ele>24</ele><time>2022-05-22T09:36:41.000Z</time></trkpt><trkpt lon="5.887183" lat="51.168119"><ele>23.8</ele><time>2022-05-22T09:36:42.000Z</time></trkpt><trkpt lon="5.887092" lat="51.168077"><ele>23.8</ele><time>2022-05-22T09:36:43.000Z</time></trkpt><trkpt lon="5.887003" lat="51.168031"><ele>23.8</ele><time>2022-05-22T09:36:44.000Z</time></trkpt><trkpt lon="5.886918" lat="51.167989"><ele>23.6</ele><time>2022-05-22T09:36:45.000Z</time></trkpt><trkpt lon="5.886839" lat="51.16794"><ele>23.6</ele><time>2022-05-22T09:36:46.000Z</time></trkpt><trkpt lon="5.886768" lat="51.167887"><ele>23.6</ele><time>2022-05-22T09:36:47.000Z</time></trkpt><trkpt lon="5.886697" lat="51.167833"><ele>23.6</ele><time>2022-05-22T09:36:48.000Z</time></trkpt><trkpt lon="5.88663" lat="51.167776"><ele>23.6</ele><time>2022-05-22T09:36:49.000Z</time></trkpt><trkpt lon="5.886569" lat="51.167715"><ele>23.6</ele><time>2022-05-22T09:36:50.000Z</time></trkpt><trkpt lon="5.886507" lat="51.167654"><ele>23.4</ele><time>2022-05-22T09:36:51.000Z</time></trkpt><trkpt lon="5.886448" lat="51.167589"><ele>23.4</ele><time>2022-05-22T09:36:52.000Z</time></trkpt><trkpt lon="5.886397" lat="51.167528"><ele>23.4</ele><time>2022-05-22T09:36:53.000Z</time></trkpt><trkpt lon="5.886353" lat="51.16747"><ele>23.4</ele><time>2022-05-22T09:36:54.000Z</time></trkpt><trkpt lon="5.886296" lat="51.167398"><ele>23.4</ele><time>2022-05-22T09:36:55.000Z</time></trkpt><trkpt lon="5.886248" lat="51.167334"><ele>23.6</ele><time>2022-05-22T09:36:56.000Z</time></trkpt><trkpt lon="5.886197" lat="51.167269"><ele>23.6</ele><time>2022-05-22T09:36:57.000Z</time></trkpt><trkpt lon="5.886142" lat="51.167204"><ele>23.6</ele><time>2022-05-22T09:36:58.000Z</time></trkpt><trkpt lon="5.88609" lat="51.167143"><ele>23.6</ele><time>2022-05-22T09:36:59.000Z</time></trkpt><trkpt lon="5.886039" lat="51.167078"><ele>23.8</ele><time>2022-05-22T09:37:00.000Z</time></trkpt><trkpt lon="5.88599" lat="51.167013"><ele>23.8</ele><time>2022-05-22T09:37:01.000Z</time></trkpt><trkpt lon="5.885943" lat="51.166949"><ele>24</ele><time>2022-05-22T09:37:02.000Z</time></trkpt><trkpt lon="5.885895" lat="51.166884"><ele>24.2</ele><time>2022-05-22T09:37:03.000Z</time></trkpt><trkpt lon="5.88584" lat="51.166818"><ele>24.2</ele><time>2022-05-22T09:37:04.000Z</time></trkpt><trkpt lon="5.885787" lat="51.166754"><ele>23.8</ele><time>2022-05-22T09:37:05.000Z</time></trkpt><trkpt lon="5.885732" lat="51.166685"><ele>23.6</ele><time>2022-05-22T09:37:06.000Z</time></trkpt><trkpt lon="5.885678" lat="51.166616"><ele>23.2</ele><time>2022-05-22T09:37:07.000Z</time></trkpt><trkpt lon="5.885626" lat="51.166546"><ele>23</ele><time>2022-05-22T09:37:08.000Z</time></trkpt><trkpt lon="5.88557" lat="51.166475"><ele>22.8</ele><time>2022-05-22T09:37:09.000Z</time></trkpt><trkpt lon="5.885514" lat="51.16641"><ele>22.6</ele><time>2022-05-22T09:37:10.000Z</time></trkpt><trkpt lon="5.885454" lat="51.166339"><ele>22.4</ele><time>2022-05-22T09:37:11.000Z</time></trkpt><trkpt lon="5.885397" lat="51.166273"><ele>22.2</ele><time>2022-05-22T09:37:12.000Z</time></trkpt><trkpt lon="5.885345" lat="51.166209"><ele>22</ele><time>2022-05-22T09:37:13.000Z</time></trkpt><trkpt lon="5.885293" lat="51.166143"><ele>22</ele><time>2022-05-22T09:37:14.000Z</time></trkpt><trkpt lon="5.885233" lat="51.166082"><ele>21.8</ele><time>2022-05-22T09:37:15.000Z</time></trkpt><trkpt lon="5.885164" lat="51.166029"><ele>21.6</ele><time>2022-05-22T09:37:16.000Z</time></trkpt><trkpt lon="5.885082" lat="51.165975"><ele>21.4</ele><time>2022-05-22T09:37:17.000Z</time></trkpt><trkpt lon="5.884989" lat="51.165925"><ele>21.2</ele><time>2022-05-22T09:37:18.000Z</time></trkpt><trkpt lon="5.884891" lat="51.165883"><ele>21</ele><time>2022-05-22T09:37:19.000Z</time></trkpt><trkpt lon="5.884794" lat="51.16585"><ele>20.8</ele><time>2022-05-22T09:37:20.000Z</time></trkpt><trkpt lon="5.884685" lat="51.165822"><ele>20.4</ele><time>2022-05-22T09:37:21.000Z</time></trkpt><trkpt lon="5.884577" lat="51.165799"><ele>20.2</ele><time>2022-05-22T09:37:22.000Z</time></trkpt><trkpt lon="5.884485" lat="51.165788"><ele>20.2</ele><time>2022-05-22T09:37:23.000Z</time></trkpt><trkpt lon="5.884391" lat="51.16578"><ele>20</ele><time>2022-05-22T09:37:24.000Z</time></trkpt><trkpt lon="5.884298" lat="51.165772"><ele>20</ele><time>2022-05-22T09:37:25.000Z</time></trkpt><trkpt lon="5.884234" lat="51.165764"><ele>20</ele><time>2022-05-22T09:37:26.000Z</time></trkpt><trkpt lon="5.884176" lat="51.165756"><ele>20</ele><time>2022-05-22T09:37:27.000Z</time></trkpt><trkpt lon="5.884133" lat="51.165756"><ele>20</ele><time>2022-05-22T09:37:28.000Z</time></trkpt><trkpt lon="5.884094" lat="51.165771"><ele>20</ele><time>2022-05-22T09:37:29.000Z</time></trkpt><trkpt lon="5.884068" lat="51.165797"><ele>19.8</ele><time>2022-05-22T09:37:30.000Z</time></trkpt><trkpt lon="5.884054" lat="51.16585"><ele>19.6</ele><time>2022-05-22T09:37:31.000Z</time></trkpt><trkpt lon="5.884043" lat="51.165909"><ele>19.6</ele><time>2022-05-22T09:37:32.000Z</time></trkpt><trkpt lon="5.884026" lat="51.16598"><ele>19.6</ele><time>2022-05-22T09:37:33.000Z</time></trkpt><trkpt lon="5.884006" lat="51.166044"><ele>19.6</ele><time>2022-05-22T09:37:34.000Z</time></trkpt><trkpt lon="5.883977" lat="51.166105"><ele>19.4</ele><time>2022-05-22T09:37:35.000Z</time></trkpt><trkpt lon="5.883951" lat="51.166155"><ele>19.4</ele><time>2022-05-22T09:37:36.000Z</time></trkpt><trkpt lon="5.883906" lat="51.166227"><ele>19.4</ele><time>2022-05-22T09:37:37.000Z</time></trkpt><trkpt lon="5.883865" lat="51.166273"><ele>19.4</ele><time>2022-05-22T09:37:38.000Z</time></trkpt><trkpt lon="5.883813" lat="51.166323"><ele>19.4</ele><time>2022-05-22T09:37:39.000Z</time></trkpt><trkpt lon="5.883754" lat="51.166376"><ele>19.4</ele><time>2022-05-22T09:37:40.000Z</time></trkpt><trkpt lon="5.883687" lat="51.16643"><ele>19.4</ele><time>2022-05-22T09:37:41.000Z</time></trkpt><trkpt lon="5.883608" lat="51.166479"><ele>19.4</ele><time>2022-05-22T09:37:42.000Z</time></trkpt><trkpt lon="5.883519" lat="51.166526"><ele>19.4</ele><time>2022-05-22T09:37:43.000Z</time></trkpt><trkpt lon="5.883428" lat="51.166571"><ele>19.4</ele><time>2022-05-22T09:37:44.000Z</time></trkpt><trkpt lon="5.883333" lat="51.166617"><ele>19.4</ele><time>2022-05-22T09:37:45.000Z</time></trkpt><trkpt lon="5.883232" lat="51.166656"><ele>19.4</ele><time>2022-05-22T09:37:46.000Z</time></trkpt><trkpt lon="5.883131" lat="51.16669"><ele>19.6</ele><time>2022-05-22T09:37:47.000Z</time></trkpt><trkpt lon="5.883035" lat="51.16672"><ele>19.6</ele><time>2022-05-22T09:37:48.000Z</time></trkpt><trkpt lon="5.882938" lat="51.166751"><ele>19.6</ele><time>2022-05-22T09:37:49.000Z</time></trkpt><trkpt lon="5.88284" lat="51.166778"><ele>19.4</ele><time>2022-05-22T09:37:50.000Z</time></trkpt><trkpt lon="5.882739" lat="51.166804"><ele>19.4</ele><time>2022-05-22T09:37:51.000Z</time></trkpt><trkpt lon="5.882638" lat="51.166833"><ele>19.4</ele><time>2022-05-22T09:37:52.000Z</time></trkpt><trkpt lon="5.882532" lat="51.166865"><ele>19.4</ele><time>2022-05-22T09:37:53.000Z</time></trkpt><trkpt lon="5.882433" lat="51.166895"><ele>19.4</ele><time>2022-05-22T09:37:54.000Z</time></trkpt><trkpt lon="5.882343" lat="51.166922"><ele>19.4</ele><time>2022-05-22T09:37:55.000Z</time></trkpt><trkpt lon="5.882232" lat="51.166956"><ele>19.4</ele><time>2022-05-22T09:37:56.000Z</time></trkpt><trkpt lon="5.882133" lat="51.166991"><ele>19.4</ele><time>2022-05-22T09:37:57.000Z</time></trkpt><trkpt lon="5.882038" lat="51.167022"><ele>19.4</ele><time>2022-05-22T09:37:58.000Z</time></trkpt><trkpt lon="5.881942" lat="51.167049"><ele>19.4</ele><time>2022-05-22T09:37:59.000Z</time></trkpt><trkpt lon="5.881846" lat="51.167079"><ele>19.4</ele><time>2022-05-22T09:38:00.000Z</time></trkpt><trkpt lon="5.881751" lat="51.167113"><ele>19.2</ele><time>2022-05-22T09:38:01.000Z</time></trkpt><trkpt lon="5.881656" lat="51.167144"><ele>19.2</ele><time>2022-05-22T09:38:02.000Z</time></trkpt><trkpt lon="5.881563" lat="51.167171"><ele>19.2</ele><time>2022-05-22T09:38:03.000Z</time></trkpt><trkpt lon="5.881461" lat="51.167201"><ele>19.2</ele><time>2022-05-22T09:38:04.000Z</time></trkpt><trkpt lon="5.881359" lat="51.167236"><ele>19.2</ele><time>2022-05-22T09:38:05.000Z</time></trkpt><trkpt lon="5.881258" lat="51.167266"><ele>19.2</ele><time>2022-05-22T09:38:06.000Z</time></trkpt><trkpt lon="5.881149" lat="51.1673"><ele>19.2</ele><time>2022-05-22T09:38:07.000Z</time></trkpt><trkpt lon="5.881046" lat="51.167334"><ele>19.2</ele><time>2022-05-22T09:38:08.000Z</time></trkpt><trkpt lon="5.880941" lat="51.167365"><ele>19.2</ele><time>2022-05-22T09:38:09.000Z</time></trkpt><trkpt lon="5.880843" lat="51.167395"><ele>19.2</ele><time>2022-05-22T09:38:10.000Z</time></trkpt><trkpt lon="5.88074" lat="51.16743"><ele>19</ele><time>2022-05-22T09:38:11.000Z</time></trkpt><trkpt lon="5.880635" lat="51.16746"><ele>19</ele><time>2022-05-22T09:38:12.000Z</time></trkpt><trkpt lon="5.880531" lat="51.167495"><ele>18.8</ele><time>2022-05-22T09:38:13.000Z</time></trkpt><trkpt lon="5.880424" lat="51.167529"><ele>18.8</ele><time>2022-05-22T09:38:14.000Z</time></trkpt><trkpt lon="5.880321" lat="51.16756"><ele>18.8</ele><time>2022-05-22T09:38:15.000Z</time></trkpt><trkpt lon="5.880227" lat="51.167589"><ele>18.8</ele><time>2022-05-22T09:38:16.000Z</time></trkpt><trkpt lon="5.880124" lat="51.167624"><ele>19</ele><time>2022-05-22T09:38:17.000Z</time></trkpt><trkpt lon="5.880019" lat="51.167659"><ele>19</ele><time>2022-05-22T09:38:18.000Z</time></trkpt><trkpt lon="5.879916" lat="51.167689"><ele>19</ele><time>2022-05-22T09:38:19.000Z</time></trkpt><trkpt lon="5.879812" lat="51.167723"><ele>19</ele><time>2022-05-22T09:38:20.000Z</time></trkpt><trkpt lon="5.879703" lat="51.167754"><ele>19</ele><time>2022-05-22T09:38:21.000Z</time></trkpt><trkpt lon="5.879595" lat="51.167781"><ele>19.2</ele><time>2022-05-22T09:38:22.000Z</time></trkpt><trkpt lon="5.879492" lat="51.167814"><ele>19.2</ele><time>2022-05-22T09:38:23.000Z</time></trkpt><trkpt lon="5.879396" lat="51.167843"><ele>19.2</ele><time>2022-05-22T09:38:24.000Z</time></trkpt><trkpt lon="5.879287" lat="51.167873"><ele>19.2</ele><time>2022-05-22T09:38:25.000Z</time></trkpt><trkpt lon="5.879183" lat="51.167903"><ele>19.2</ele><time>2022-05-22T09:38:26.000Z</time></trkpt><trkpt lon="5.879082" lat="51.167936"><ele>19.2</ele><time>2022-05-22T09:38:27.000Z</time></trkpt><trkpt lon="5.878976" lat="51.167964"><ele>19.2</ele><time>2022-05-22T09:38:28.000Z</time></trkpt><trkpt lon="5.878874" lat="51.167994"><ele>19.2</ele><time>2022-05-22T09:38:29.000Z</time></trkpt><trkpt lon="5.878773" lat="51.168029"><ele>19.2</ele><time>2022-05-22T09:38:30.000Z</time></trkpt><trkpt lon="5.878675" lat="51.168059"><ele>19.2</ele><time>2022-05-22T09:38:31.000Z</time></trkpt><trkpt lon="5.878567" lat="51.168083"><ele>19</ele><time>2022-05-22T09:38:32.000Z</time></trkpt><trkpt lon="5.878454" lat="51.168113"><ele>19</ele><time>2022-05-22T09:38:33.000Z</time></trkpt><trkpt lon="5.878347" lat="51.168144"><ele>19</ele><time>2022-05-22T09:38:34.000Z</time></trkpt><trkpt lon="5.878243" lat="51.168181"><ele>19</ele><time>2022-05-22T09:38:35.000Z</time></trkpt><trkpt lon="5.87813" lat="51.168216"><ele>19</ele><time>2022-05-22T09:38:36.000Z</time></trkpt><trkpt lon="5.878011" lat="51.168246"><ele>19</ele><time>2022-05-22T09:38:37.000Z</time></trkpt><trkpt lon="5.877898" lat="51.168281"><ele>18.8</ele><time>2022-05-22T09:38:38.000Z</time></trkpt><trkpt lon="5.877784" lat="51.168315"><ele>18.8</ele><time>2022-05-22T09:38:39.000Z</time></trkpt><trkpt lon="5.87767" lat="51.168353"><ele>18.4</ele><time>2022-05-22T09:38:40.000Z</time></trkpt><trkpt lon="5.877561" lat="51.168387"><ele>18.2</ele><time>2022-05-22T09:38:41.000Z</time></trkpt><trkpt lon="5.87746" lat="51.168424"><ele>18</ele><time>2022-05-22T09:38:42.000Z</time></trkpt><trkpt lon="5.877348" lat="51.168463"><ele>17.8</ele><time>2022-05-22T09:38:43.000Z</time></trkpt><trkpt lon="5.877239" lat="51.168501"><ele>17.8</ele><time>2022-05-22T09:38:44.000Z</time></trkpt><trkpt lon="5.877129" lat="51.168544"><ele>17.8</ele><time>2022-05-22T09:38:45.000Z</time></trkpt><trkpt lon="5.877022" lat="51.168582"><ele>17.8</ele><time>2022-05-22T09:38:46.000Z</time></trkpt><trkpt lon="5.876917" lat="51.16862"><ele>18</ele><time>2022-05-22T09:38:47.000Z</time></trkpt><trkpt lon="5.876815" lat="51.168662"><ele>18</ele><time>2022-05-22T09:38:48.000Z</time></trkpt><trkpt lon="5.876716" lat="51.168704"><ele>18</ele><time>2022-05-22T09:38:49.000Z</time></trkpt><trkpt lon="5.876619" lat="51.168746"><ele>18.2</ele><time>2022-05-22T09:38:50.000Z</time></trkpt><trkpt lon="5.876533" lat="51.168785"><ele>18.4</ele><time>2022-05-22T09:38:51.000Z</time></trkpt><trkpt lon="5.876432" lat="51.168829"><ele>18.6</ele><time>2022-05-22T09:38:52.000Z</time></trkpt><trkpt lon="5.876347" lat="51.168871"><ele>18.8</ele><time>2022-05-22T09:38:53.000Z</time></trkpt><trkpt lon="5.876248" lat="51.168916"><ele>19</ele><time>2022-05-22T09:38:54.000Z</time></trkpt><trkpt lon="5.876152" lat="51.168958"><ele>19.2</ele><time>2022-05-22T09:38:55.000Z</time></trkpt><trkpt lon="5.876053" lat="51.168998"><ele>19.2</ele><time>2022-05-22T09:38:56.000Z</time></trkpt><trkpt lon="5.875957" lat="51.16904"><ele>19.4</ele><time>2022-05-22T09:38:57.000Z</time></trkpt><trkpt lon="5.875866" lat="51.169077"><ele>19.6</ele><time>2022-05-22T09:38:58.000Z</time></trkpt><trkpt lon="5.875771" lat="51.169116"><ele>19.8</ele><time>2022-05-22T09:38:59.000Z</time></trkpt><trkpt lon="5.87568" lat="51.169158"><ele>20</ele><time>2022-05-22T09:39:00.000Z</time></trkpt><trkpt lon="5.87559" lat="51.169196"><ele>20</ele><time>2022-05-22T09:39:01.000Z</time></trkpt><trkpt lon="5.875507" lat="51.16923"><ele>20</ele><time>2022-05-22T09:39:02.000Z</time></trkpt><trkpt lon="5.875421" lat="51.169268"><ele>20.2</ele><time>2022-05-22T09:39:03.000Z</time></trkpt><trkpt lon="5.875336" lat="51.16931"><ele>20.2</ele><time>2022-05-22T09:39:04.000Z</time></trkpt><trkpt lon="5.875251" lat="51.169349"><ele>20.4</ele><time>2022-05-22T09:39:05.000Z</time></trkpt><trkpt lon="5.875166" lat="51.169382"><ele>20.6</ele><time>2022-05-22T09:39:06.000Z</time></trkpt><trkpt lon="5.875079" lat="51.169417"><ele>20.6</ele><time>2022-05-22T09:39:07.000Z</time></trkpt><trkpt lon="5.874998" lat="51.169451"><ele>20.8</ele><time>2022-05-22T09:39:08.000Z</time></trkpt><trkpt lon="5.874915" lat="51.169485"><ele>21</ele><time>2022-05-22T09:39:09.000Z</time></trkpt><trkpt lon="5.874833" lat="51.169524"><ele>21</ele><time>2022-05-22T09:39:10.000Z</time></trkpt><trkpt lon="5.874755" lat="51.169559"><ele>21.2</ele><time>2022-05-22T09:39:11.000Z</time></trkpt><trkpt lon="5.874674" lat="51.169592"><ele>21.4</ele><time>2022-05-22T09:39:12.000Z</time></trkpt><trkpt lon="5.874589" lat="51.16963"><ele>21.4</ele><time>2022-05-22T09:39:13.000Z</time></trkpt><trkpt lon="5.874511" lat="51.169668"><ele>21.6</ele><time>2022-05-22T09:39:14.000Z</time></trkpt><trkpt lon="5.874437" lat="51.169707"><ele>21.8</ele><time>2022-05-22T09:39:15.000Z</time></trkpt><trkpt lon="5.874374" lat="51.169741"><ele>21.8</ele><time>2022-05-22T09:39:16.000Z</time></trkpt><trkpt lon="5.874324" lat="51.169774"><ele>22</ele><time>2022-05-22T09:39:17.000Z</time></trkpt><trkpt lon="5.874272" lat="51.169818"><ele>22</ele><time>2022-05-22T09:39:18.000Z</time></trkpt><trkpt lon="5.87423" lat="51.16986"><ele>22.2</ele><time>2022-05-22T09:39:19.000Z</time></trkpt><trkpt lon="5.874194" lat="51.169905"><ele>22.4</ele><time>2022-05-22T09:39:20.000Z</time></trkpt><trkpt lon="5.874164" lat="51.169955"><ele>22.6</ele><time>2022-05-22T09:39:21.000Z</time></trkpt><trkpt lon="5.87414" lat="51.169997"><ele>22.6</ele><time>2022-05-22T09:39:22.000Z</time></trkpt><trkpt lon="5.874123" lat="51.170038"><ele>22.8</ele><time>2022-05-22T09:39:23.000Z</time></trkpt><trkpt lon="5.874109" lat="51.170073"><ele>22.8</ele><time>2022-05-22T09:39:24.000Z</time></trkpt><trkpt lon="5.8741" lat="51.170104"><ele>23</ele><time>2022-05-22T09:39:25.000Z</time></trkpt><trkpt lon="5.874094" lat="51.170135"><ele>23</ele><time>2022-05-22T09:39:26.000Z</time></trkpt><trkpt lon="5.874085" lat="51.170157"><ele>23.2</ele><time>2022-05-22T09:39:27.000Z</time></trkpt><trkpt lon="5.874067" lat="51.170181"><ele>23.2</ele><time>2022-05-22T09:39:28.000Z</time></trkpt><trkpt lon="5.874046" lat="51.170189"><ele>23.4</ele><time>2022-05-22T09:39:29.000Z</time></trkpt><trkpt lon="5.874" lat="51.1702"><ele>23.6</ele><time>2022-05-22T09:39:36.000Z</time></trkpt><trkpt lon="5.873968" lat="51.170207"><ele>23.6</ele><time>2022-05-22T09:39:37.000Z</time></trkpt><trkpt lon="5.873934" lat="51.170215"><ele>23.6</ele><time>2022-05-22T09:39:38.000Z</time></trkpt><trkpt lon="5.8739" lat="51.170226"><ele>23.8</ele><time>2022-05-22T09:39:39.000Z</time></trkpt><trkpt lon="5.873857" lat="51.170234"><ele>23.8</ele><time>2022-05-22T09:39:40.000Z</time></trkpt><trkpt lon="5.873807" lat="51.170238"><ele>23.8</ele><time>2022-05-22T09:39:41.000Z</time></trkpt><trkpt lon="5.873748" lat="51.170239"><ele>23.8</ele><time>2022-05-22T09:39:42.000Z</time></trkpt><trkpt lon="5.873682" lat="51.170239"><ele>24</ele><time>2022-05-22T09:39:43.000Z</time></trkpt><trkpt lon="5.873618" lat="51.170249"><ele>24</ele><time>2022-05-22T09:39:44.000Z</time></trkpt><trkpt lon="5.87356" lat="51.170271"><ele>24</ele><time>2022-05-22T09:39:45.000Z</time></trkpt><trkpt lon="5.873504" lat="51.170305"><ele>23.8</ele><time>2022-05-22T09:39:46.000Z</time></trkpt><trkpt lon="5.873449" lat="51.17034"><ele>23.8</ele><time>2022-05-22T09:39:47.000Z</time></trkpt><trkpt lon="5.873395" lat="51.170382"><ele>23.6</ele><time>2022-05-22T09:39:48.000Z</time></trkpt><trkpt lon="5.873337" lat="51.170424"><ele>23.4</ele><time>2022-05-22T09:39:49.000Z</time></trkpt><trkpt lon="5.87327" lat="51.17047"><ele>23.2</ele><time>2022-05-22T09:39:50.000Z</time></trkpt><trkpt lon="5.873195" lat="51.170508"><ele>23</ele><time>2022-05-22T09:39:51.000Z</time></trkpt><trkpt lon="5.873112" lat="51.170546"><ele>22.8</ele><time>2022-05-22T09:39:52.000Z</time></trkpt><trkpt lon="5.873021" lat="51.17058"><ele>22.6</ele><time>2022-05-22T09:39:53.000Z</time></trkpt><trkpt lon="5.872937" lat="51.17061"><ele>22.4</ele><time>2022-05-22T09:39:54.000Z</time></trkpt><trkpt lon="5.872826" lat="51.170646"><ele>22.2</ele><time>2022-05-22T09:39:55.000Z</time></trkpt><trkpt lon="5.872724" lat="51.17068"><ele>22</ele><time>2022-05-22T09:39:56.000Z</time></trkpt><trkpt lon="5.87262" lat="51.170714"><ele>21.8</ele><time>2022-05-22T09:39:57.000Z</time></trkpt><trkpt lon="5.872515" lat="51.170752"><ele>21.6</ele><time>2022-05-22T09:39:58.000Z</time></trkpt><trkpt lon="5.872409" lat="51.170787"><ele>21.4</ele><time>2022-05-22T09:39:59.000Z</time></trkpt><trkpt lon="5.872306" lat="51.170818"><ele>21.4</ele><time>2022-05-22T09:40:00.000Z</time></trkpt><trkpt lon="5.872206" lat="51.170844"><ele>21.2</ele><time>2022-05-22T09:40:01.000Z</time></trkpt><trkpt lon="5.872111" lat="51.170867"><ele>21</ele><time>2022-05-22T09:40:02.000Z</time></trkpt><trkpt lon="5.872014" lat="51.170894"><ele>21</ele><time>2022-05-22T09:40:03.000Z</time></trkpt><trkpt lon="5.871918" lat="51.170913"><ele>20.8</ele><time>2022-05-22T09:40:04.000Z</time></trkpt><trkpt lon="5.871827" lat="51.170936"><ele>20.6</ele><time>2022-05-22T09:40:05.000Z</time></trkpt><trkpt lon="5.871734" lat="51.170959"><ele>20.6</ele><time>2022-05-22T09:40:06.000Z</time></trkpt><trkpt lon="5.871641" lat="51.170978"><ele>20.6</ele><time>2022-05-22T09:40:07.000Z</time></trkpt><trkpt lon="5.871543" lat="51.171001"><ele>20.6</ele><time>2022-05-22T09:40:08.000Z</time></trkpt><trkpt lon="5.871445" lat="51.17102"><ele>20.4</ele><time>2022-05-22T09:40:09.000Z</time></trkpt><trkpt lon="5.871343" lat="51.171039"><ele>20.4</ele><time>2022-05-22T09:40:10.000Z</time></trkpt><trkpt lon="5.871239" lat="51.171055"><ele>20.4</ele><time>2022-05-22T09:40:11.000Z</time></trkpt><trkpt lon="5.871137" lat="51.171077"><ele>20.2</ele><time>2022-05-22T09:40:12.000Z</time></trkpt><trkpt lon="5.871032" lat="51.171096"><ele>20.2</ele><time>2022-05-22T09:40:13.000Z</time></trkpt><trkpt lon="5.870934" lat="51.171119"><ele>20.2</ele><time>2022-05-22T09:40:14.000Z</time></trkpt><trkpt lon="5.870833" lat="51.171146"><ele>20.2</ele><time>2022-05-22T09:40:15.000Z</time></trkpt><trkpt lon="5.870734" lat="51.171165"><ele>20.2</ele><time>2022-05-22T09:40:16.000Z</time></trkpt><trkpt lon="5.870639" lat="51.171184"><ele>20.2</ele><time>2022-05-22T09:40:17.000Z</time></trkpt><trkpt lon="5.870546" lat="51.171203"><ele>20.2</ele><time>2022-05-22T09:40:18.000Z</time></trkpt><trkpt lon="5.870453" lat="51.171222"><ele>20.2</ele><time>2022-05-22T09:40:19.000Z</time></trkpt><trkpt lon="5.870362" lat="51.171234"><ele>20.2</ele><time>2022-05-22T09:40:20.000Z</time></trkpt><trkpt lon="5.870276" lat="51.171242"><ele>20.2</ele><time>2022-05-22T09:40:21.000Z</time></trkpt><trkpt lon="5.870191" lat="51.171238"><ele>20.2</ele><time>2022-05-22T09:40:22.000Z</time></trkpt><trkpt lon="5.870127" lat="51.171217"><ele>20</ele><time>2022-05-22T09:40:23.000Z</time></trkpt><trkpt lon="5.870065" lat="51.171174"><ele>20</ele><time>2022-05-22T09:40:24.000Z</time></trkpt><trkpt lon="5.870016" lat="51.171121"><ele>19.6</ele><time>2022-05-22T09:40:25.000Z</time></trkpt><trkpt lon="5.869955" lat="51.171072"><ele>19.2</ele><time>2022-05-22T09:40:26.000Z</time></trkpt><trkpt lon="5.869869" lat="51.171026"><ele>19</ele><time>2022-05-22T09:40:27.000Z</time></trkpt><trkpt lon="5.869761" lat="51.170995"><ele>18.8</ele><time>2022-05-22T09:40:28.000Z</time></trkpt><trkpt lon="5.869642" lat="51.170968"><ele>18.6</ele><time>2022-05-22T09:40:29.000Z</time></trkpt><trkpt lon="5.869523" lat="51.170937"><ele>18.6</ele><time>2022-05-22T09:40:30.000Z</time></trkpt><trkpt lon="5.869406" lat="51.170907"><ele>18.6</ele><time>2022-05-22T09:40:31.000Z</time></trkpt><trkpt lon="5.869286" lat="51.170876"><ele>18.4</ele><time>2022-05-22T09:40:32.000Z</time></trkpt><trkpt lon="5.86917" lat="51.17085"><ele>18.4</ele><time>2022-05-22T09:40:33.000Z</time></trkpt><trkpt lon="5.869059" lat="51.17082"><ele>18.4</ele><time>2022-05-22T09:40:34.000Z</time></trkpt><trkpt lon="5.868946" lat="51.170789"><ele>18.4</ele><time>2022-05-22T09:40:35.000Z</time></trkpt><trkpt lon="5.868841" lat="51.170758"><ele>18.4</ele><time>2022-05-22T09:40:36.000Z</time></trkpt><trkpt lon="5.868742" lat="51.170731"><ele>18.4</ele><time>2022-05-22T09:40:37.000Z</time></trkpt><trkpt lon="5.86865" lat="51.170701"><ele>18.4</ele><time>2022-05-22T09:40:38.000Z</time></trkpt><trkpt lon="5.868556" lat="51.170674"><ele>18.4</ele><time>2022-05-22T09:40:39.000Z</time></trkpt><trkpt lon="5.868468" lat="51.170647"><ele>18.4</ele><time>2022-05-22T09:40:40.000Z</time></trkpt><trkpt lon="5.86839" lat="51.170621"><ele>18.4</ele><time>2022-05-22T09:40:41.000Z</time></trkpt><trkpt lon="5.86832" lat="51.170598"><ele>18.4</ele><time>2022-05-22T09:40:42.000Z</time></trkpt><trkpt lon="5.868266" lat="51.170571"><ele>18.4</ele><time>2022-05-22T09:40:43.000Z</time></trkpt><trkpt lon="5.868233" lat="51.170541"><ele>18.6</ele><time>2022-05-22T09:40:44.000Z</time></trkpt><trkpt lon="5.868219" lat="51.17051"><ele>18.4</ele><time>2022-05-22T09:40:45.000Z</time></trkpt><trkpt lon="5.868228" lat="51.170476"><ele>18.4</ele><time>2022-05-22T09:40:46.000Z</time></trkpt><trkpt lon="5.868252" lat="51.170434"><ele>18.2</ele><time>2022-05-22T09:40:47.000Z</time></trkpt><trkpt lon="5.868279" lat="51.170385"><ele>18.2</ele><time>2022-05-22T09:40:48.000Z</time></trkpt><trkpt lon="5.868309" lat="51.170332"><ele>18</ele><time>2022-05-22T09:40:49.000Z</time></trkpt><trkpt lon="5.868341" lat="51.170278"><ele>18</ele><time>2022-05-22T09:40:50.000Z</time></trkpt><trkpt lon="5.868381" lat="51.170226"><ele>17.8</ele><time>2022-05-22T09:40:51.000Z</time></trkpt><trkpt lon="5.868442" lat="51.170175"><ele>17.8</ele><time>2022-05-22T09:40:52.000Z</time></trkpt><trkpt lon="5.868525" lat="51.170133"><ele>17.6</ele><time>2022-05-22T09:40:53.000Z</time></trkpt><trkpt lon="5.86862" lat="51.170099"><ele>17.6</ele><time>2022-05-22T09:40:54.000Z</time></trkpt><trkpt lon="5.868721" lat="51.170064"><ele>17.4</ele><time>2022-05-22T09:40:55.000Z</time></trkpt><trkpt lon="5.868822" lat="51.17003"><ele>17.4</ele><time>2022-05-22T09:40:56.000Z</time></trkpt><trkpt lon="5.868914" lat="51.170003"><ele>17.4</ele><time>2022-05-22T09:40:57.000Z</time></trkpt><trkpt lon="5.869021" lat="51.169968"><ele>17.4</ele><time>2022-05-22T09:40:58.000Z</time></trkpt><trkpt lon="5.869127" lat="51.169934"><ele>17.4</ele><time>2022-05-22T09:40:59.000Z</time></trkpt><trkpt lon="5.869233" lat="51.169896"><ele>17.4</ele><time>2022-05-22T09:41:00.000Z</time></trkpt><trkpt lon="5.869334" lat="51.16987"><ele>17.4</ele><time>2022-05-22T09:41:01.000Z</time></trkpt><trkpt lon="5.86944" lat="51.169836"><ele>17.2</ele><time>2022-05-22T09:41:02.000Z</time></trkpt><trkpt lon="5.869551" lat="51.1698"><ele>17.2</ele><time>2022-05-22T09:41:03.000Z</time></trkpt><trkpt lon="5.869659" lat="51.16977"><ele>17.2</ele><time>2022-05-22T09:41:04.000Z</time></trkpt><trkpt lon="5.869765" lat="51.16974"><ele>17</ele><time>2022-05-22T09:41:05.000Z</time></trkpt><trkpt lon="5.869867" lat="51.169709"><ele>17</ele><time>2022-05-22T09:41:06.000Z</time></trkpt><trkpt lon="5.869964" lat="51.169682"><ele>17</ele><time>2022-05-22T09:41:07.000Z</time></trkpt><trkpt lon="5.870057" lat="51.169656"><ele>17</ele><time>2022-05-22T09:41:08.000Z</time></trkpt><trkpt lon="5.870149" lat="51.169629"><ele>17</ele><time>2022-05-22T09:41:09.000Z</time></trkpt><trkpt lon="5.870238" lat="51.169602"><ele>17</ele><time>2022-05-22T09:41:10.000Z</time></trkpt><trkpt lon="5.870326" lat="51.169579"><ele>17</ele><time>2022-05-22T09:41:11.000Z</time></trkpt><trkpt lon="5.870411" lat="51.169553"><ele>17</ele><time>2022-05-22T09:41:12.000Z</time></trkpt><trkpt lon="5.870493" lat="51.169533"><ele>17</ele><time>2022-05-22T09:41:13.000Z</time></trkpt><trkpt lon="5.870568" lat="51.16951"><ele>16.8</ele><time>2022-05-22T09:41:14.000Z</time></trkpt><trkpt lon="5.870637" lat="51.169488"><ele>16.8</ele><time>2022-05-22T09:41:15.000Z</time></trkpt><trkpt lon="5.870691" lat="51.169457"><ele>16.6</ele><time>2022-05-22T09:41:16.000Z</time></trkpt><trkpt lon="5.87073" lat="51.16942"><ele>16.6</ele><time>2022-05-22T09:41:17.000Z</time></trkpt><trkpt lon="5.870748" lat="51.169381"><ele>16.4</ele><time>2022-05-22T09:41:18.000Z</time></trkpt><trkpt lon="5.87074" lat="51.169337"><ele>16.4</ele><time>2022-05-22T09:41:19.000Z</time></trkpt><trkpt lon="5.870719" lat="51.16929"><ele>16.4</ele><time>2022-05-22T09:41:20.000Z</time></trkpt><trkpt lon="5.870692" lat="51.169244"><ele>16.4</ele><time>2022-05-22T09:41:21.000Z</time></trkpt><trkpt lon="5.870664" lat="51.169198"><ele>16.4</ele><time>2022-05-22T09:41:22.000Z</time></trkpt><trkpt lon="5.870634" lat="51.169138"><ele>16.4</ele><time>2022-05-22T09:41:23.000Z</time></trkpt><trkpt lon="5.87059" lat="51.169088"><ele>16.4</ele><time>2022-05-22T09:41:24.000Z</time></trkpt><trkpt lon="5.870524" lat="51.169053"><ele>16.4</ele><time>2022-05-22T09:41:25.000Z</time></trkpt><trkpt lon="5.870436" lat="51.169028"><ele>16.4</ele><time>2022-05-22T09:41:26.000Z</time></trkpt><trkpt lon="5.870333" lat="51.169025"><ele>16.6</ele><time>2022-05-22T09:41:27.000Z</time></trkpt><trkpt lon="5.870225" lat="51.169044"><ele>16.4</ele><time>2022-05-22T09:41:28.000Z</time></trkpt><trkpt lon="5.870115" lat="51.169074"><ele>16.4</ele><time>2022-05-22T09:41:29.000Z</time></trkpt><trkpt lon="5.870003" lat="51.169108"><ele>16.4</ele><time>2022-05-22T09:41:30.000Z</time></trkpt><trkpt lon="5.869893" lat="51.169146"><ele>16.4</ele><time>2022-05-22T09:41:31.000Z</time></trkpt><trkpt lon="5.869785" lat="51.169177"><ele>16.4</ele><time>2022-05-22T09:41:32.000Z</time></trkpt><trkpt lon="5.869673" lat="51.169208"><ele>16.4</ele><time>2022-05-22T09:41:33.000Z</time></trkpt><trkpt lon="5.869564" lat="51.169238"><ele>16.4</ele><time>2022-05-22T09:41:34.000Z</time></trkpt><trkpt lon="5.869454" lat="51.169273"><ele>16.2</ele><time>2022-05-22T09:41:35.000Z</time></trkpt><trkpt lon="5.869346" lat="51.169299"><ele>16.2</ele><time>2022-05-22T09:41:36.000Z</time></trkpt><trkpt lon="5.86924" lat="51.169333"><ele>16.2</ele><time>2022-05-22T09:41:37.000Z</time></trkpt><trkpt lon="5.869135" lat="51.169364"><ele>16.2</ele><time>2022-05-22T09:41:38.000Z</time></trkpt><trkpt lon="5.869027" lat="51.169391"><ele>16.4</ele><time>2022-05-22T09:41:39.000Z</time></trkpt><trkpt lon="5.868921" lat="51.169417"><ele>16.4</ele><time>2022-05-22T09:41:40.000Z</time></trkpt><trkpt lon="5.868815" lat="51.169448"><ele>16.4</ele><time>2022-05-22T09:41:41.000Z</time></trkpt><trkpt lon="5.868711" lat="51.169482"><ele>16.6</ele><time>2022-05-22T09:41:42.000Z</time></trkpt><trkpt lon="5.868608" lat="51.169509"><ele>16.6</ele><time>2022-05-22T09:41:43.000Z</time></trkpt><trkpt lon="5.868507" lat="51.169543"><ele>16.8</ele><time>2022-05-22T09:41:44.000Z</time></trkpt><trkpt lon="5.868404" lat="51.169574"><ele>16.8</ele><time>2022-05-22T09:41:45.000Z</time></trkpt><trkpt lon="5.868305" lat="51.169601"><ele>17</ele><time>2022-05-22T09:41:46.000Z</time></trkpt><trkpt lon="5.868214" lat="51.169627"><ele>17.2</ele><time>2022-05-22T09:41:47.000Z</time></trkpt><trkpt lon="5.868123" lat="51.16965"><ele>17.2</ele><time>2022-05-22T09:41:48.000Z</time></trkpt><trkpt lon="5.868031" lat="51.169673"><ele>17.4</ele><time>2022-05-22T09:41:49.000Z</time></trkpt><trkpt lon="5.867943" lat="51.169699"><ele>17.6</ele><time>2022-05-22T09:41:50.000Z</time></trkpt><trkpt lon="5.867852" lat="51.169723"><ele>17.8</ele><time>2022-05-22T09:41:51.000Z</time></trkpt><trkpt lon="5.867768" lat="51.169749"><ele>17.8</ele><time>2022-05-22T09:41:52.000Z</time></trkpt><trkpt lon="5.867678" lat="51.169772"><ele>18</ele><time>2022-05-22T09:41:53.000Z</time></trkpt><trkpt lon="5.867604" lat="51.169794"><ele>18</ele><time>2022-05-22T09:41:54.000Z</time></trkpt><trkpt lon="5.867486" lat="51.169822"><ele>18</ele><time>2022-05-22T09:41:55.000Z</time></trkpt><trkpt lon="5.867381" lat="51.169849"><ele>18</ele><time>2022-05-22T09:41:56.000Z</time></trkpt><trkpt lon="5.867278" lat="51.169874"><ele>18</ele><time>2022-05-22T09:41:57.000Z</time></trkpt><trkpt lon="5.867162" lat="51.169902"><ele>17.8</ele><time>2022-05-22T09:41:58.000Z</time></trkpt><trkpt lon="5.867045" lat="51.169932"><ele>17.8</ele><time>2022-05-22T09:41:59.000Z</time></trkpt><trkpt lon="5.866931" lat="51.169959"><ele>17.6</ele><time>2022-05-22T09:42:00.000Z</time></trkpt><trkpt lon="5.866817" lat="51.169986"><ele>17.6</ele><time>2022-05-22T09:42:01.000Z</time></trkpt><trkpt lon="5.866708" lat="51.170009"><ele>17.4</ele><time>2022-05-22T09:42:02.000Z</time></trkpt><trkpt lon="5.866602" lat="51.170024"><ele>17.4</ele><time>2022-05-22T09:42:03.000Z</time></trkpt><trkpt lon="5.866494" lat="51.170029"><ele>17.4</ele><time>2022-05-22T09:42:04.000Z</time></trkpt><trkpt lon="5.866385" lat="51.170025"><ele>17.6</ele><time>2022-05-22T09:42:05.000Z</time></trkpt><trkpt lon="5.86628" lat="51.170017"><ele>17.6</ele><time>2022-05-22T09:42:06.000Z</time></trkpt><trkpt lon="5.866175" lat="51.170006"><ele>17.4</ele><time>2022-05-22T09:42:07.000Z</time></trkpt><trkpt lon="5.866068" lat="51.169987"><ele>17.4</ele><time>2022-05-22T09:42:08.000Z</time></trkpt><trkpt lon="5.865953" lat="51.169972"><ele>17.4</ele><time>2022-05-22T09:42:09.000Z</time></trkpt><trkpt lon="5.865839" lat="51.169949"><ele>17.4</ele><time>2022-05-22T09:42:10.000Z</time></trkpt><trkpt lon="5.865727" lat="51.16993"><ele>17.4</ele><time>2022-05-22T09:42:11.000Z</time></trkpt><trkpt lon="5.865615" lat="51.169907"><ele>17.6</ele><time>2022-05-22T09:42:12.000Z</time></trkpt><trkpt lon="5.865505" lat="51.169892"><ele>17.6</ele><time>2022-05-22T09:42:13.000Z</time></trkpt><trkpt lon="5.865412" lat="51.169875"><ele>17.6</ele><time>2022-05-22T09:42:14.000Z</time></trkpt><trkpt lon="5.865294" lat="51.169854"><ele>17.6</ele><time>2022-05-22T09:42:15.000Z</time></trkpt><trkpt lon="5.865191" lat="51.169827"><ele>17.6</ele><time>2022-05-22T09:42:16.000Z</time></trkpt><trkpt lon="5.865089" lat="51.169802"><ele>17.6</ele><time>2022-05-22T09:42:17.000Z</time></trkpt><trkpt lon="5.86498" lat="51.169778"><ele>17.6</ele><time>2022-05-22T09:42:18.000Z</time></trkpt><trkpt lon="5.864878" lat="51.169758"><ele>17.6</ele><time>2022-05-22T09:42:19.000Z</time></trkpt><trkpt lon="5.864781" lat="51.169736"><ele>17.6</ele><time>2022-05-22T09:42:20.000Z</time></trkpt><trkpt lon="5.864684" lat="51.169716"><ele>17.6</ele><time>2022-05-22T09:42:21.000Z</time></trkpt><trkpt lon="5.864596" lat="51.169694"><ele>17.6</ele><time>2022-05-22T09:42:22.000Z</time></trkpt><trkpt lon="5.864504" lat="51.169675"><ele>17.6</ele><time>2022-05-22T09:42:23.000Z</time></trkpt><trkpt lon="5.864406" lat="51.169656"><ele>17.6</ele><time>2022-05-22T09:42:24.000Z</time></trkpt><trkpt lon="5.864295" lat="51.16964"><ele>17.6</ele><time>2022-05-22T09:42:25.000Z</time></trkpt><trkpt lon="5.864191" lat="51.169625"><ele>17.6</ele><time>2022-05-22T09:42:26.000Z</time></trkpt><trkpt lon="5.864091" lat="51.169613"><ele>17.6</ele><time>2022-05-22T09:42:27.000Z</time></trkpt><trkpt lon="5.863992" lat="51.169602"><ele>17.6</ele><time>2022-05-22T09:42:28.000Z</time></trkpt><trkpt lon="5.863888" lat="51.16959"><ele>17.6</ele><time>2022-05-22T09:42:29.000Z</time></trkpt><trkpt lon="5.86378" lat="51.169583"><ele>17.6</ele><time>2022-05-22T09:42:30.000Z</time></trkpt><trkpt lon="5.863677" lat="51.169575"><ele>17.6</ele><time>2022-05-22T09:42:31.000Z</time></trkpt><trkpt lon="5.863568" lat="51.169564"><ele>17.6</ele><time>2022-05-22T09:42:32.000Z</time></trkpt><trkpt lon="5.86346" lat="51.169549"><ele>17.6</ele><time>2022-05-22T09:42:33.000Z</time></trkpt><trkpt lon="5.863366" lat="51.169531"><ele>17.6</ele><time>2022-05-22T09:42:34.000Z</time></trkpt><trkpt lon="5.863264" lat="51.169511"><ele>17.6</ele><time>2022-05-22T09:42:35.000Z</time></trkpt><trkpt lon="5.863159" lat="51.169499"><ele>17.6</ele><time>2022-05-22T09:42:36.000Z</time></trkpt><trkpt lon="5.863053" lat="51.169484"><ele>17.6</ele><time>2022-05-22T09:42:37.000Z</time></trkpt><trkpt lon="5.862947" lat="51.169473"><ele>17.6</ele><time>2022-05-22T09:42:38.000Z</time></trkpt><trkpt lon="5.862838" lat="51.169457"><ele>17.6</ele><time>2022-05-22T09:42:39.000Z</time></trkpt><trkpt lon="5.862727" lat="51.169445"><ele>17.6</ele><time>2022-05-22T09:42:40.000Z</time></trkpt><trkpt lon="5.862632" lat="51.169434"><ele>17.6</ele><time>2022-05-22T09:42:41.000Z</time></trkpt><trkpt lon="5.862525" lat="51.169423"><ele>17.6</ele><time>2022-05-22T09:42:42.000Z</time></trkpt><trkpt lon="5.862427" lat="51.169407"><ele>17.4</ele><time>2022-05-22T09:42:43.000Z</time></trkpt><trkpt lon="5.862344" lat="51.169394"><ele>17.6</ele><time>2022-05-22T09:42:44.000Z</time></trkpt><trkpt lon="5.862232" lat="51.169381"><ele>17.4</ele><time>2022-05-22T09:42:45.000Z</time></trkpt><trkpt lon="5.862123" lat="51.169365"><ele>17.4</ele><time>2022-05-22T09:42:46.000Z</time></trkpt><trkpt lon="5.86202" lat="51.169347"><ele>17.4</ele><time>2022-05-22T09:42:47.000Z</time></trkpt><trkpt lon="5.861921" lat="51.169327"><ele>17.4</ele><time>2022-05-22T09:42:48.000Z</time></trkpt><trkpt lon="5.861824" lat="51.169308"><ele>17.4</ele><time>2022-05-22T09:42:49.000Z</time></trkpt><trkpt lon="5.861732" lat="51.169289"><ele>17.4</ele><time>2022-05-22T09:42:50.000Z</time></trkpt><trkpt lon="5.8616" lat="51.169278"><ele>17.4</ele><time>2022-05-22T09:42:51.000Z</time></trkpt><trkpt lon="5.861478" lat="51.169259"><ele>17.4</ele><time>2022-05-22T09:42:52.000Z</time></trkpt><trkpt lon="5.861376" lat="51.169239"><ele>17.2</ele><time>2022-05-22T09:42:53.000Z</time></trkpt><trkpt lon="5.861255" lat="51.169224"><ele>17.2</ele><time>2022-05-22T09:42:54.000Z</time></trkpt><trkpt lon="5.861151" lat="51.169202"><ele>17.2</ele><time>2022-05-22T09:42:55.000Z</time></trkpt><trkpt lon="5.861043" lat="51.169179"><ele>17.2</ele><time>2022-05-22T09:42:56.000Z</time></trkpt><trkpt lon="5.860943" lat="51.169156"><ele>17</ele><time>2022-05-22T09:42:57.000Z</time></trkpt><trkpt lon="5.860843" lat="51.169137"><ele>17</ele><time>2022-05-22T09:42:58.000Z</time></trkpt><trkpt lon="5.860747" lat="51.169118"><ele>16.8</ele><time>2022-05-22T09:42:59.000Z</time></trkpt><trkpt lon="5.860651" lat="51.169099"><ele>16.8</ele><time>2022-05-22T09:43:00.000Z</time></trkpt><trkpt lon="5.860552" lat="51.169083"><ele>16.8</ele><time>2022-05-22T09:43:01.000Z</time></trkpt><trkpt lon="5.860464" lat="51.169064"><ele>16.8</ele><time>2022-05-22T09:43:02.000Z</time></trkpt><trkpt lon="5.860367" lat="51.169045"><ele>17</ele><time>2022-05-22T09:43:03.000Z</time></trkpt><trkpt lon="5.860276" lat="51.169026"><ele>17</ele><time>2022-05-22T09:43:04.000Z</time></trkpt><trkpt lon="5.860182" lat="51.169007"><ele>17</ele><time>2022-05-22T09:43:05.000Z</time></trkpt><trkpt lon="5.860091" lat="51.168984"><ele>17</ele><time>2022-05-22T09:43:06.000Z</time></trkpt><trkpt lon="5.859991" lat="51.168958"><ele>17</ele><time>2022-05-22T09:43:07.000Z</time></trkpt><trkpt lon="5.859908" lat="51.168931"><ele>17</ele><time>2022-05-22T09:43:08.000Z</time></trkpt><trkpt lon="5.85984" lat="51.168912"><ele>17.2</ele><time>2022-05-22T09:43:09.000Z</time></trkpt><trkpt lon="5.859773" lat="51.168904"><ele>17.2</ele><time>2022-05-22T09:43:10.000Z</time></trkpt><trkpt lon="5.859708" lat="51.168885"><ele>17.2</ele><time>2022-05-22T09:43:11.000Z</time></trkpt><trkpt lon="5.859648" lat="51.168866"><ele>17.2</ele><time>2022-05-22T09:43:12.000Z</time></trkpt><trkpt lon="5.85959" lat="51.168847"><ele>17.2</ele><time>2022-05-22T09:43:13.000Z</time></trkpt><trkpt lon="5.859525" lat="51.168824"><ele>17.2</ele><time>2022-05-22T09:43:14.000Z</time></trkpt><trkpt lon="5.859453" lat="51.168798"><ele>17.2</ele><time>2022-05-22T09:43:15.000Z</time></trkpt><trkpt lon="5.859363" lat="51.168763"><ele>17.2</ele><time>2022-05-22T09:43:16.000Z</time></trkpt><trkpt lon="5.859282" lat="51.168733"><ele>17.2</ele><time>2022-05-22T09:43:17.000Z</time></trkpt><trkpt lon="5.859207" lat="51.168706"><ele>17.2</ele><time>2022-05-22T09:43:18.000Z</time></trkpt><trkpt lon="5.859123" lat="51.168675"><ele>17.2</ele><time>2022-05-22T09:43:19.000Z</time></trkpt><trkpt lon="5.859015" lat="51.168641"><ele>17.2</ele><time>2022-05-22T09:43:20.000Z</time></trkpt><trkpt lon="5.858942" lat="51.168608"><ele>17.2</ele><time>2022-05-22T09:43:21.000Z</time></trkpt><trkpt lon="5.858826" lat="51.168566"><ele>17.2</ele><time>2022-05-22T09:43:22.000Z</time></trkpt><trkpt lon="5.858737" lat="51.168536"><ele>17.2</ele><time>2022-05-22T09:43:23.000Z</time></trkpt><trkpt lon="5.858666" lat="51.168504"><ele>17.2</ele><time>2022-05-22T09:43:24.000Z</time></trkpt><trkpt lon="5.858587" lat="51.16847"><ele>17.2</ele><time>2022-05-22T09:43:25.000Z</time></trkpt><trkpt lon="5.858523" lat="51.16845"><ele>17.4</ele><time>2022-05-22T09:43:26.000Z</time></trkpt><trkpt lon="5.858471" lat="51.168431"><ele>17.4</ele><time>2022-05-22T09:43:27.000Z</time></trkpt><trkpt lon="5.85843" lat="51.168416"><ele>17.4</ele><time>2022-05-22T09:43:28.000Z</time></trkpt><trkpt lon="5.858391" lat="51.1684"><ele>17.4</ele><time>2022-05-22T09:43:29.000Z</time></trkpt><trkpt lon="5.858301" lat="51.168361"><ele>17.4</ele><time>2022-05-22T09:43:30.000Z</time></trkpt><trkpt lon="5.858249" lat="51.168329"><ele>17.4</ele><time>2022-05-22T09:43:31.000Z</time></trkpt><trkpt lon="5.858186" lat="51.168287"><ele>17.2</ele><time>2022-05-22T09:43:32.000Z</time></trkpt><trkpt lon="5.858092" lat="51.168241"><ele>17.2</ele><time>2022-05-22T09:43:33.000Z</time></trkpt><trkpt lon="5.858006" lat="51.168196"><ele>17.2</ele><time>2022-05-22T09:43:34.000Z</time></trkpt><trkpt lon="5.857919" lat="51.16815"><ele>16.8</ele><time>2022-05-22T09:43:35.000Z</time></trkpt><trkpt lon="5.857804" lat="51.168093"><ele>16.6</ele><time>2022-05-22T09:43:36.000Z</time></trkpt><trkpt lon="5.857699" lat="51.168037"><ele>16.6</ele><time>2022-05-22T09:43:37.000Z</time></trkpt><trkpt lon="5.857532" lat="51.167967"><ele>16.6</ele><time>2022-05-22T09:43:38.000Z</time></trkpt><trkpt lon="5.857392" lat="51.167909"><ele>16.6</ele><time>2022-05-22T09:43:39.000Z</time></trkpt><trkpt lon="5.857223" lat="51.167834"><ele>16.6</ele><time>2022-05-22T09:43:40.000Z</time></trkpt><trkpt lon="5.85711" lat="51.167783"><ele>16.6</ele><time>2022-05-22T09:43:41.000Z</time></trkpt><trkpt lon="5.857" lat="51.167731"><ele>16.6</ele><time>2022-05-22T09:43:42.000Z</time></trkpt><trkpt lon="5.85689" lat="51.167684"><ele>16.8</ele><time>2022-05-22T09:43:43.000Z</time></trkpt><trkpt lon="5.856779" lat="51.167628"><ele>16.8</ele><time>2022-05-22T09:43:44.000Z</time></trkpt><trkpt lon="5.856672" lat="51.167577"><ele>16.8</ele><time>2022-05-22T09:43:45.000Z</time></trkpt><trkpt lon="5.856569" lat="51.167527"><ele>16.8</ele><time>2022-05-22T09:43:46.000Z</time></trkpt><trkpt lon="5.856441" lat="51.167459"><ele>16.6</ele><time>2022-05-22T09:43:47.000Z</time></trkpt><trkpt lon="5.856344" lat="51.167409"><ele>16.6</ele><time>2022-05-22T09:43:48.000Z</time></trkpt><trkpt lon="5.856247" lat="51.167356"><ele>16.6</ele><time>2022-05-22T09:43:49.000Z</time></trkpt><trkpt lon="5.856151" lat="51.167303"><ele>16.6</ele><time>2022-05-22T09:43:50.000Z</time></trkpt><trkpt lon="5.856054" lat="51.167249"><ele>16.6</ele><time>2022-05-22T09:43:51.000Z</time></trkpt><trkpt lon="5.855958" lat="51.1672"><ele>16.6</ele><time>2022-05-22T09:43:52.000Z</time></trkpt><trkpt lon="5.855861" lat="51.167146"><ele>16.6</ele><time>2022-05-22T09:43:53.000Z</time></trkpt><trkpt lon="5.855796" lat="51.167112"><ele>16.6</ele><time>2022-05-22T09:43:54.000Z</time></trkpt><trkpt lon="5.855674" lat="51.167044"><ele>16.4</ele><time>2022-05-22T09:43:55.000Z</time></trkpt><trkpt lon="5.855574" lat="51.166986"><ele>16.4</ele><time>2022-05-22T09:43:56.000Z</time></trkpt><trkpt lon="5.855474" lat="51.166929"><ele>16.2</ele><time>2022-05-22T09:43:57.000Z</time></trkpt><trkpt lon="5.855364" lat="51.166868"><ele>16.2</ele><time>2022-05-22T09:43:58.000Z</time></trkpt><trkpt lon="5.855261" lat="51.166814"><ele>16.2</ele><time>2022-05-22T09:43:59.000Z</time></trkpt><trkpt lon="5.855165" lat="51.166765"><ele>16.4</ele><time>2022-05-22T09:44:00.000Z</time></trkpt><trkpt lon="5.855069" lat="51.166715"><ele>16.4</ele><time>2022-05-22T09:44:01.000Z</time></trkpt><trkpt lon="5.854976" lat="51.166669"><ele>16.4</ele><time>2022-05-22T09:44:02.000Z</time></trkpt><trkpt lon="5.854881" lat="51.166623"><ele>16.4</ele><time>2022-05-22T09:44:03.000Z</time></trkpt><trkpt lon="5.854792" lat="51.166581"><ele>16.4</ele><time>2022-05-22T09:44:04.000Z</time></trkpt><trkpt lon="5.854687" lat="51.166532"><ele>16.4</ele><time>2022-05-22T09:44:05.000Z</time></trkpt><trkpt lon="5.854588" lat="51.166486"><ele>16.6</ele><time>2022-05-22T09:44:06.000Z</time></trkpt><trkpt lon="5.854497" lat="51.166441"><ele>16.6</ele><time>2022-05-22T09:44:07.000Z</time></trkpt><trkpt lon="5.854401" lat="51.166391"><ele>16.6</ele><time>2022-05-22T09:44:08.000Z</time></trkpt><trkpt lon="5.854309" lat="51.166341"><ele>16.6</ele><time>2022-05-22T09:44:09.000Z</time></trkpt><trkpt lon="5.854223" lat="51.166292"><ele>16.6</ele><time>2022-05-22T09:44:10.000Z</time></trkpt><trkpt lon="5.854132" lat="51.166246"><ele>16.6</ele><time>2022-05-22T09:44:11.000Z</time></trkpt><trkpt lon="5.854043" lat="51.1662"><ele>16.6</ele><time>2022-05-22T09:44:12.000Z</time></trkpt><trkpt lon="5.853954" lat="51.166158"><ele>16.6</ele><time>2022-05-22T09:44:13.000Z</time></trkpt><trkpt lon="5.853864" lat="51.16611"><ele>16.4</ele><time>2022-05-22T09:44:14.000Z</time></trkpt><trkpt lon="5.853771" lat="51.16606"><ele>16.6</ele><time>2022-05-22T09:44:15.000Z</time></trkpt><trkpt lon="5.853677" lat="51.166013"><ele>16.6</ele><time>2022-05-22T09:44:16.000Z</time></trkpt><trkpt lon="5.853585" lat="51.165972"><ele>16.6</ele><time>2022-05-22T09:44:17.000Z</time></trkpt><trkpt lon="5.853489" lat="51.165929"><ele>16.8</ele><time>2022-05-22T09:44:18.000Z</time></trkpt><trkpt lon="5.853389" lat="51.165883"><ele>16.8</ele><time>2022-05-22T09:44:19.000Z</time></trkpt><trkpt lon="5.853291" lat="51.165841"><ele>16.8</ele><time>2022-05-22T09:44:20.000Z</time></trkpt><trkpt lon="5.853194" lat="51.165803"><ele>16.8</ele><time>2022-05-22T09:44:21.000Z</time></trkpt><trkpt lon="5.853097" lat="51.165772"><ele>16.8</ele><time>2022-05-22T09:44:22.000Z</time></trkpt><trkpt lon="5.853005" lat="51.165744"><ele>16.8</ele><time>2022-05-22T09:44:23.000Z</time></trkpt><trkpt lon="5.852897" lat="51.165717"><ele>16.8</ele><time>2022-05-22T09:44:24.000Z</time></trkpt><trkpt lon="5.852788" lat="51.165693"><ele>16.8</ele><time>2022-05-22T09:44:25.000Z</time></trkpt><trkpt lon="5.852672" lat="51.165666"><ele>16.8</ele><time>2022-05-22T09:44:26.000Z</time></trkpt><trkpt lon="5.852563" lat="51.165642"><ele>16.8</ele><time>2022-05-22T09:44:27.000Z</time></trkpt><trkpt lon="5.85245" lat="51.165612"><ele>16.8</ele><time>2022-05-22T09:44:28.000Z</time></trkpt><trkpt lon="5.852333" lat="51.165582"><ele>16.8</ele><time>2022-05-22T09:44:29.000Z</time></trkpt><trkpt lon="5.852214" lat="51.165548"><ele>16.8</ele><time>2022-05-22T09:44:30.000Z</time></trkpt><trkpt lon="5.852096" lat="51.165517"><ele>16.8</ele><time>2022-05-22T09:44:31.000Z</time></trkpt><trkpt lon="5.85198" lat="51.165494"><ele>16.8</ele><time>2022-05-22T09:44:32.000Z</time></trkpt><trkpt lon="5.851861" lat="51.165467"><ele>16.8</ele><time>2022-05-22T09:44:33.000Z</time></trkpt><trkpt lon="5.85175" lat="51.165442"><ele>16.8</ele><time>2022-05-22T09:44:34.000Z</time></trkpt><trkpt lon="5.851629" lat="51.165411"><ele>16.8</ele><time>2022-05-22T09:44:35.000Z</time></trkpt><trkpt lon="5.851514" lat="51.165384"><ele>16.8</ele><time>2022-05-22T09:44:36.000Z</time></trkpt><trkpt lon="5.851398" lat="51.165356"><ele>16.8</ele><time>2022-05-22T09:44:37.000Z</time></trkpt><trkpt lon="5.851289" lat="51.165334"><ele>16.8</ele><time>2022-05-22T09:44:38.000Z</time></trkpt><trkpt lon="5.851177" lat="51.165311"><ele>16.8</ele><time>2022-05-22T09:44:39.000Z</time></trkpt><trkpt lon="5.851061" lat="51.165284"><ele>16.8</ele><time>2022-05-22T09:44:40.000Z</time></trkpt><trkpt lon="5.850954" lat="51.165262"><ele>17</ele><time>2022-05-22T09:44:41.000Z</time></trkpt><trkpt lon="5.850844" lat="51.165238"><ele>17</ele><time>2022-05-22T09:44:42.000Z</time></trkpt><trkpt lon="5.85074" lat="51.165219"><ele>17</ele><time>2022-05-22T09:44:43.000Z</time></trkpt><trkpt lon="5.850636" lat="51.165189"><ele>17</ele><time>2022-05-22T09:44:44.000Z</time></trkpt><trkpt lon="5.850535" lat="51.165162"><ele>17</ele><time>2022-05-22T09:44:45.000Z</time></trkpt><trkpt lon="5.850431" lat="51.165132"><ele>17</ele><time>2022-05-22T09:44:46.000Z</time></trkpt><trkpt lon="5.850324" lat="51.165101"><ele>17</ele><time>2022-05-22T09:44:47.000Z</time></trkpt><trkpt lon="5.850215" lat="51.165063"><ele>17</ele><time>2022-05-22T09:44:48.000Z</time></trkpt><trkpt lon="5.850107" lat="51.165029"><ele>17</ele><time>2022-05-22T09:44:49.000Z</time></trkpt><trkpt lon="5.849997" lat="51.165002"><ele>17.2</ele><time>2022-05-22T09:44:50.000Z</time></trkpt><trkpt lon="5.849887" lat="51.164975"><ele>17.2</ele><time>2022-05-22T09:44:51.000Z</time></trkpt><trkpt lon="5.849774" lat="51.164952"><ele>17.2</ele><time>2022-05-22T09:44:52.000Z</time></trkpt><trkpt lon="5.849662" lat="51.164926"><ele>17.4</ele><time>2022-05-22T09:44:53.000Z</time></trkpt><trkpt lon="5.849552" lat="51.164903"><ele>17.4</ele><time>2022-05-22T09:44:54.000Z</time></trkpt><trkpt lon="5.849445" lat="51.164876"><ele>17.6</ele><time>2022-05-22T09:44:55.000Z</time></trkpt><trkpt lon="5.849342" lat="51.164849"><ele>17.6</ele><time>2022-05-22T09:44:56.000Z</time></trkpt><trkpt lon="5.849236" lat="51.164822"><ele>17.6</ele><time>2022-05-22T09:44:57.000Z</time></trkpt><trkpt lon="5.849131" lat="51.164799"><ele>17.8</ele><time>2022-05-22T09:44:58.000Z</time></trkpt><trkpt lon="5.849028" lat="51.16478"><ele>17.8</ele><time>2022-05-22T09:44:59.000Z</time></trkpt><trkpt lon="5.848924" lat="51.164761"><ele>17.8</ele><time>2022-05-22T09:45:00.000Z</time></trkpt><trkpt lon="5.848822" lat="51.164742"><ele>17.8</ele><time>2022-05-22T09:45:01.000Z</time></trkpt><trkpt lon="5.848718" lat="51.164723"><ele>18</ele><time>2022-05-22T09:45:02.000Z</time></trkpt><trkpt lon="5.848619" lat="51.164697"><ele>18</ele><time>2022-05-22T09:45:03.000Z</time></trkpt><trkpt lon="5.848513" lat="51.16467"><ele>18</ele><time>2022-05-22T09:45:04.000Z</time></trkpt><trkpt lon="5.848411" lat="51.164647"><ele>18.2</ele><time>2022-05-22T09:45:05.000Z</time></trkpt><trkpt lon="5.848309" lat="51.164624"><ele>18.2</ele><time>2022-05-22T09:45:06.000Z</time></trkpt><trkpt lon="5.848208" lat="51.164601"><ele>18.4</ele><time>2022-05-22T09:45:07.000Z</time></trkpt><trkpt lon="5.848111" lat="51.164578"><ele>18.4</ele><time>2022-05-22T09:45:08.000Z</time></trkpt><trkpt lon="5.848014" lat="51.164556"><ele>18.4</ele><time>2022-05-22T09:45:09.000Z</time></trkpt><trkpt lon="5.847914" lat="51.164536"><ele>18.4</ele><time>2022-05-22T09:45:10.000Z</time></trkpt><trkpt lon="5.847811" lat="51.164513"><ele>18.4</ele><time>2022-05-22T09:45:11.000Z</time></trkpt><trkpt lon="5.847708" lat="51.164494"><ele>18.6</ele><time>2022-05-22T09:45:12.000Z</time></trkpt><trkpt lon="5.847606" lat="51.164475"><ele>18.6</ele><time>2022-05-22T09:45:13.000Z</time></trkpt><trkpt lon="5.847505" lat="51.164456"><ele>18.8</ele><time>2022-05-22T09:45:14.000Z</time></trkpt><trkpt lon="5.847404" lat="51.164441"><ele>18.8</ele><time>2022-05-22T09:45:15.000Z</time></trkpt><trkpt lon="5.847306" lat="51.164429"><ele>19</ele><time>2022-05-22T09:45:16.000Z</time></trkpt><trkpt lon="5.847206" lat="51.164414"><ele>19</ele><time>2022-05-22T09:45:17.000Z</time></trkpt><trkpt lon="5.847105" lat="51.164402"><ele>19.2</ele><time>2022-05-22T09:45:18.000Z</time></trkpt><trkpt lon="5.847003" lat="51.164388"><ele>19.2</ele><time>2022-05-22T09:45:19.000Z</time></trkpt><trkpt lon="5.846895" lat="51.164376"><ele>19.4</ele><time>2022-05-22T09:45:20.000Z</time></trkpt><trkpt lon="5.846784" lat="51.164364"><ele>19.6</ele><time>2022-05-22T09:45:21.000Z</time></trkpt><trkpt lon="5.846664" lat="51.164353"><ele>19.6</ele><time>2022-05-22T09:45:22.000Z</time></trkpt><trkpt lon="5.846575" lat="51.164346"><ele>19.8</ele><time>2022-05-22T09:45:23.000Z</time></trkpt><trkpt lon="5.846462" lat="51.164337"><ele>20</ele><time>2022-05-22T09:45:24.000Z</time></trkpt><trkpt lon="5.846342" lat="51.164326"><ele>20.2</ele><time>2022-05-22T09:45:25.000Z</time></trkpt><trkpt lon="5.846233" lat="51.164311"><ele>20.2</ele><time>2022-05-22T09:45:26.000Z</time></trkpt><trkpt lon="5.84613" lat="51.164299"><ele>20.4</ele><time>2022-05-22T09:45:27.000Z</time></trkpt><trkpt lon="5.846022" lat="51.164295"><ele>20.4</ele><time>2022-05-22T09:45:28.000Z</time></trkpt><trkpt lon="5.845916" lat="51.164291"><ele>20.6</ele><time>2022-05-22T09:45:29.000Z</time></trkpt><trkpt lon="5.845812" lat="51.164284"><ele>20.8</ele><time>2022-05-22T09:45:30.000Z</time></trkpt><trkpt lon="5.845704" lat="51.164273"><ele>20.8</ele><time>2022-05-22T09:45:31.000Z</time></trkpt><trkpt lon="5.845593" lat="51.164265"><ele>21</ele><time>2022-05-22T09:45:32.000Z</time></trkpt><trkpt lon="5.845492" lat="51.164258"><ele>21</ele><time>2022-05-22T09:45:33.000Z</time></trkpt><trkpt lon="5.845389" lat="51.164254"><ele>21.2</ele><time>2022-05-22T09:45:34.000Z</time></trkpt><trkpt lon="5.84527" lat="51.164242"><ele>21.4</ele><time>2022-05-22T09:45:35.000Z</time></trkpt><trkpt lon="5.845161" lat="51.164234"><ele>21.6</ele><time>2022-05-22T09:45:36.000Z</time></trkpt><trkpt lon="5.845055" lat="51.164227"><ele>21.6</ele><time>2022-05-22T09:45:37.000Z</time></trkpt><trkpt lon="5.844941" lat="51.164219"><ele>21.8</ele><time>2022-05-22T09:45:38.000Z</time></trkpt><trkpt lon="5.844829" lat="51.164212"><ele>21.8</ele><time>2022-05-22T09:45:39.000Z</time></trkpt><trkpt lon="5.844718" lat="51.164204"><ele>21.8</ele><time>2022-05-22T09:45:40.000Z</time></trkpt><trkpt lon="5.844604" lat="51.164196"><ele>22</ele><time>2022-05-22T09:45:41.000Z</time></trkpt><trkpt lon="5.84449" lat="51.164189"><ele>22.2</ele><time>2022-05-22T09:45:42.000Z</time></trkpt><trkpt lon="5.844381" lat="51.164185"><ele>22.2</ele><time>2022-05-22T09:45:43.000Z</time></trkpt><trkpt lon="5.84427" lat="51.164181"><ele>22.2</ele><time>2022-05-22T09:45:44.000Z</time></trkpt><trkpt lon="5.84416" lat="51.164174"><ele>22.4</ele><time>2022-05-22T09:45:45.000Z</time></trkpt><trkpt lon="5.844046" lat="51.164162"><ele>22.2</ele><time>2022-05-22T09:45:46.000Z</time></trkpt><trkpt lon="5.843935" lat="51.164154"><ele>22.4</ele><time>2022-05-22T09:45:47.000Z</time></trkpt><trkpt lon="5.84383" lat="51.164143"><ele>22.4</ele><time>2022-05-22T09:45:48.000Z</time></trkpt><trkpt lon="5.843728" lat="51.164135"><ele>22.6</ele><time>2022-05-22T09:45:49.000Z</time></trkpt><trkpt lon="5.843629" lat="51.164124"><ele>22.6</ele><time>2022-05-22T09:45:50.000Z</time></trkpt><trkpt lon="5.843525" lat="51.16412"><ele>22.6</ele><time>2022-05-22T09:45:51.000Z</time></trkpt><trkpt lon="5.84342" lat="51.164109"><ele>22.6</ele><time>2022-05-22T09:45:52.000Z</time></trkpt><trkpt lon="5.843312" lat="51.164097"><ele>22.8</ele><time>2022-05-22T09:45:53.000Z</time></trkpt><trkpt lon="5.843216" lat="51.164087"><ele>22.8</ele><time>2022-05-22T09:45:54.000Z</time></trkpt><trkpt lon="5.843103" lat="51.164075"><ele>23</ele><time>2022-05-22T09:45:55.000Z</time></trkpt><trkpt lon="5.843001" lat="51.164067"><ele>23.2</ele><time>2022-05-22T09:45:56.000Z</time></trkpt><trkpt lon="5.842895" lat="51.164055"><ele>23.2</ele><time>2022-05-22T09:45:57.000Z</time></trkpt><trkpt lon="5.84279" lat="51.164047"><ele>23.2</ele><time>2022-05-22T09:45:58.000Z</time></trkpt><trkpt lon="5.842683" lat="51.16404"><ele>23.4</ele><time>2022-05-22T09:45:59.000Z</time></trkpt><trkpt lon="5.842578" lat="51.164036"><ele>23.4</ele><time>2022-05-22T09:46:00.000Z</time></trkpt><trkpt lon="5.842472" lat="51.164032"><ele>23.6</ele><time>2022-05-22T09:46:01.000Z</time></trkpt><trkpt lon="5.842366" lat="51.164028"><ele>23.6</ele><time>2022-05-22T09:46:02.000Z</time></trkpt><trkpt lon="5.842266" lat="51.164025"><ele>23.6</ele><time>2022-05-22T09:46:03.000Z</time></trkpt><trkpt lon="5.842165" lat="51.164024"><ele>23.6</ele><time>2022-05-22T09:46:04.000Z</time></trkpt><trkpt lon="5.842068" lat="51.164024"><ele>23.8</ele><time>2022-05-22T09:46:05.000Z</time></trkpt><trkpt lon="5.841972" lat="51.164024"><ele>23.8</ele><time>2022-05-22T09:46:06.000Z</time></trkpt><trkpt lon="5.841881" lat="51.164024"><ele>23.8</ele><time>2022-05-22T09:46:07.000Z</time></trkpt><trkpt lon="5.841793" lat="51.164024"><ele>24</ele><time>2022-05-22T09:46:08.000Z</time></trkpt><trkpt lon="5.841703" lat="51.164024"><ele>24</ele><time>2022-05-22T09:46:09.000Z</time></trkpt><trkpt lon="5.84162" lat="51.164021"><ele>24</ele><time>2022-05-22T09:46:10.000Z</time></trkpt><trkpt lon="5.841535" lat="51.164021"><ele>24.2</ele><time>2022-05-22T09:46:11.000Z</time></trkpt><trkpt lon="5.841454" lat="51.164021"><ele>24.2</ele><time>2022-05-22T09:46:12.000Z</time></trkpt><trkpt lon="5.841381" lat="51.164017"><ele>24.2</ele><time>2022-05-22T09:46:13.000Z</time></trkpt><trkpt lon="5.841309" lat="51.164017"><ele>24.2</ele><time>2022-05-22T09:46:14.000Z</time></trkpt><trkpt lon="5.841248" lat="51.164024"><ele>24.4</ele><time>2022-05-22T09:46:15.000Z</time></trkpt><trkpt lon="5.841201" lat="51.164035"><ele>24.4</ele><time>2022-05-22T09:46:16.000Z</time></trkpt><trkpt lon="5.841176" lat="51.164069"><ele>24.4</ele><time>2022-05-22T09:46:17.000Z</time></trkpt><trkpt lon="5.84116" lat="51.164111"><ele>24.4</ele><time>2022-05-22T09:46:18.000Z</time></trkpt><trkpt lon="5.841153" lat="51.16416"><ele>24.4</ele><time>2022-05-22T09:46:19.000Z</time></trkpt><trkpt lon="5.841152" lat="51.16422"><ele>24.4</ele><time>2022-05-22T09:46:20.000Z</time></trkpt><trkpt lon="5.841152" lat="51.16429"><ele>24.4</ele><time>2022-05-22T09:46:21.000Z</time></trkpt><trkpt lon="5.84115" lat="51.164356"><ele>24.4</ele><time>2022-05-22T09:46:22.000Z</time></trkpt><trkpt lon="5.841142" lat="51.164434"><ele>24.4</ele><time>2022-05-22T09:46:23.000Z</time></trkpt><trkpt lon="5.84113" lat="51.164503"><ele>24.4</ele><time>2022-05-22T09:46:24.000Z</time></trkpt><trkpt lon="5.841117" lat="51.164569"><ele>24.4</ele><time>2022-05-22T09:46:25.000Z</time></trkpt><trkpt lon="5.841105" lat="51.164636"><ele>24.4</ele><time>2022-05-22T09:46:26.000Z</time></trkpt><trkpt lon="5.841094" lat="51.164713"><ele>24.4</ele><time>2022-05-22T09:46:27.000Z</time></trkpt><trkpt lon="5.841092" lat="51.164781"><ele>24.4</ele><time>2022-05-22T09:46:28.000Z</time></trkpt><trkpt lon="5.841092" lat="51.164854"><ele>24.6</ele><time>2022-05-22T09:46:29.000Z</time></trkpt><trkpt lon="5.841088" lat="51.164922"><ele>24.6</ele><time>2022-05-22T09:46:30.000Z</time></trkpt><trkpt lon="5.841082" lat="51.164991"><ele>24.6</ele><time>2022-05-22T09:46:31.000Z</time></trkpt><trkpt lon="5.841074" lat="51.165051"><ele>24.6</ele><time>2022-05-22T09:46:32.000Z</time></trkpt><trkpt lon="5.841064" lat="51.165124"><ele>24.6</ele><time>2022-05-22T09:46:33.000Z</time></trkpt><trkpt lon="5.841054" lat="51.165188"><ele>24.6</ele><time>2022-05-22T09:46:34.000Z</time></trkpt><trkpt lon="5.841044" lat="51.165255"><ele>24.6</ele><time>2022-05-22T09:46:35.000Z</time></trkpt><trkpt lon="5.841035" lat="51.165323"><ele>24.8</ele><time>2022-05-22T09:46:36.000Z</time></trkpt><trkpt lon="5.841025" lat="51.165392"><ele>24.8</ele><time>2022-05-22T09:46:37.000Z</time></trkpt><trkpt lon="5.841017" lat="51.165466"><ele>24.6</ele><time>2022-05-22T09:46:38.000Z</time></trkpt><trkpt lon="5.84101" lat="51.16554"><ele>24.6</ele><time>2022-05-22T09:46:39.000Z</time></trkpt><trkpt lon="5.841002" lat="51.165609"><ele>24.6</ele><time>2022-05-22T09:46:40.000Z</time></trkpt><trkpt lon="5.840992" lat="51.165682"><ele>24.6</ele><time>2022-05-22T09:46:41.000Z</time></trkpt><trkpt lon="5.84098" lat="51.165754"><ele>24.6</ele><time>2022-05-22T09:46:42.000Z</time></trkpt><trkpt lon="5.84097" lat="51.165823"><ele>24.4</ele><time>2022-05-22T09:46:43.000Z</time></trkpt><trkpt lon="5.840965" lat="51.165888"><ele>24.4</ele><time>2022-05-22T09:46:44.000Z</time></trkpt><trkpt lon="5.840963" lat="51.165958"><ele>24.4</ele><time>2022-05-22T09:46:45.000Z</time></trkpt><trkpt lon="5.840962" lat="51.166028"><ele>24.4</ele><time>2022-05-22T09:46:46.000Z</time></trkpt><trkpt lon="5.840961" lat="51.166101"><ele>24.6</ele><time>2022-05-22T09:46:47.000Z</time></trkpt><trkpt lon="5.840961" lat="51.166169"><ele>24.6</ele><time>2022-05-22T09:46:48.000Z</time></trkpt><trkpt lon="5.840961" lat="51.166239"><ele>24.4</ele><time>2022-05-22T09:46:49.000Z</time></trkpt><trkpt lon="5.840961" lat="51.166307"><ele>24.4</ele><time>2022-05-22T09:46:50.000Z</time></trkpt><trkpt lon="5.840958" lat="51.166376"><ele>24.4</ele><time>2022-05-22T09:46:51.000Z</time></trkpt><trkpt lon="5.840957" lat="51.166443"><ele>24.4</ele><time>2022-05-22T09:46:52.000Z</time></trkpt><trkpt lon="5.840955" lat="51.166513"><ele>24.4</ele><time>2022-05-22T09:46:53.000Z</time></trkpt><trkpt lon="5.840957" lat="51.16658"><ele>24.4</ele><time>2022-05-22T09:46:54.000Z</time></trkpt><trkpt lon="5.84096" lat="51.166649"><ele>24.4</ele><time>2022-05-22T09:46:55.000Z</time></trkpt><trkpt lon="5.840967" lat="51.16672"><ele>24.4</ele><time>2022-05-22T09:46:56.000Z</time></trkpt><trkpt lon="5.840975" lat="51.166788"><ele>24.4</ele><time>2022-05-22T09:46:57.000Z</time></trkpt><trkpt lon="5.84098" lat="51.166852"><ele>24.4</ele><time>2022-05-22T09:46:58.000Z</time></trkpt><trkpt lon="5.840987" lat="51.166922"><ele>24.2</ele><time>2022-05-22T09:46:59.000Z</time></trkpt><trkpt lon="5.841" lat="51.166987"><ele>24.2</ele><time>2022-05-22T09:47:00.000Z</time></trkpt><trkpt lon="5.841018" lat="51.167055"><ele>24</ele><time>2022-05-22T09:47:01.000Z</time></trkpt><trkpt lon="5.841039" lat="51.167124"><ele>24</ele><time>2022-05-22T09:47:02.000Z</time></trkpt><trkpt lon="5.841058" lat="51.167196"><ele>24</ele><time>2022-05-22T09:47:03.000Z</time></trkpt><trkpt lon="5.841076" lat="51.167264"><ele>24</ele><time>2022-05-22T09:47:04.000Z</time></trkpt><trkpt lon="5.841101" lat="51.16734"><ele>24</ele><time>2022-05-22T09:47:05.000Z</time></trkpt><trkpt lon="5.841125" lat="51.167408"><ele>24</ele><time>2022-05-22T09:47:06.000Z</time></trkpt><trkpt lon="5.841152" lat="51.167475"><ele>24</ele><time>2022-05-22T09:47:07.000Z</time></trkpt><trkpt lon="5.841181" lat="51.167547"><ele>24</ele><time>2022-05-22T09:47:08.000Z</time></trkpt><trkpt lon="5.841206" lat="51.167615"><ele>24.2</ele><time>2022-05-22T09:47:09.000Z</time></trkpt><trkpt lon="5.841229" lat="51.167689"><ele>24.2</ele><time>2022-05-22T09:47:10.000Z</time></trkpt><trkpt lon="5.841258" lat="51.167761"><ele>24.2</ele><time>2022-05-22T09:47:11.000Z</time></trkpt><trkpt lon="5.841284" lat="51.167833"><ele>24</ele><time>2022-05-22T09:47:12.000Z</time></trkpt><trkpt lon="5.841309" lat="51.167897"><ele>23.8</ele><time>2022-05-22T09:47:13.000Z</time></trkpt><trkpt lon="5.841336" lat="51.167968"><ele>23.8</ele><time>2022-05-22T09:47:14.000Z</time></trkpt><trkpt lon="5.841363" lat="51.168041"><ele>23.8</ele><time>2022-05-22T09:47:15.000Z</time></trkpt><trkpt lon="5.841394" lat="51.168108"><ele>23.8</ele><time>2022-05-22T09:47:16.000Z</time></trkpt><trkpt lon="5.841427" lat="51.168176"><ele>23.6</ele><time>2022-05-22T09:47:17.000Z</time></trkpt><trkpt lon="5.841463" lat="51.168246"><ele>23.6</ele><time>2022-05-22T09:47:18.000Z</time></trkpt><trkpt lon="5.841501" lat="51.168321"><ele>23.6</ele><time>2022-05-22T09:47:19.000Z</time></trkpt><trkpt lon="5.84154" lat="51.168393"><ele>23.6</ele><time>2022-05-22T09:47:20.000Z</time></trkpt><trkpt lon="5.841579" lat="51.168466"><ele>23.6</ele><time>2022-05-22T09:47:21.000Z</time></trkpt><trkpt lon="5.841613" lat="51.168532"><ele>23.6</ele><time>2022-05-22T09:47:22.000Z</time></trkpt><trkpt lon="5.841647" lat="51.168604"><ele>23.6</ele><time>2022-05-22T09:47:23.000Z</time></trkpt><trkpt lon="5.841676" lat="51.16867"><ele>23.6</ele><time>2022-05-22T09:47:24.000Z</time></trkpt><trkpt lon="5.841709" lat="51.168741"><ele>23.6</ele><time>2022-05-22T09:47:25.000Z</time></trkpt><trkpt lon="5.841737" lat="51.168809"><ele>23.6</ele><time>2022-05-22T09:47:26.000Z</time></trkpt><trkpt lon="5.841763" lat="51.168878"><ele>23.6</ele><time>2022-05-22T09:47:27.000Z</time></trkpt><trkpt lon="5.84179" lat="51.168945"><ele>23.6</ele><time>2022-05-22T09:47:28.000Z</time></trkpt><trkpt lon="5.841822" lat="51.169016"><ele>23.4</ele><time>2022-05-22T09:47:29.000Z</time></trkpt><trkpt lon="5.84185" lat="51.16908"><ele>23.4</ele><time>2022-05-22T09:47:30.000Z</time></trkpt><trkpt lon="5.841882" lat="51.169153"><ele>23.4</ele><time>2022-05-22T09:47:31.000Z</time></trkpt><trkpt lon="5.841911" lat="51.169218"><ele>23.4</ele><time>2022-05-22T09:47:32.000Z</time></trkpt><trkpt lon="5.841941" lat="51.169286"><ele>23.4</ele><time>2022-05-22T09:47:33.000Z</time></trkpt><trkpt lon="5.841968" lat="51.169357"><ele>23.4</ele><time>2022-05-22T09:47:34.000Z</time></trkpt><trkpt lon="5.841999" lat="51.169427"><ele>23.4</ele><time>2022-05-22T09:47:35.000Z</time></trkpt><trkpt lon="5.842029" lat="51.169498"><ele>23.4</ele><time>2022-05-22T09:47:36.000Z</time></trkpt><trkpt lon="5.842059" lat="51.169573"><ele>23.4</ele><time>2022-05-22T09:47:37.000Z</time></trkpt><trkpt lon="5.842081" lat="51.169637"><ele>23.4</ele><time>2022-05-22T09:47:38.000Z</time></trkpt><trkpt lon="5.842104" lat="51.169717"><ele>23.4</ele><time>2022-05-22T09:47:39.000Z</time></trkpt><trkpt lon="5.842123" lat="51.16979"><ele>23</ele><time>2022-05-22T09:47:40.000Z</time></trkpt><trkpt lon="5.84214" lat="51.169867"><ele>23</ele><time>2022-05-22T09:47:41.000Z</time></trkpt><trkpt lon="5.842153" lat="51.16994"><ele>23</ele><time>2022-05-22T09:47:42.000Z</time></trkpt><trkpt lon="5.842169" lat="51.170014"><ele>23.2</ele><time>2022-05-22T09:47:43.000Z</time></trkpt><trkpt lon="5.842183" lat="51.170091"><ele>22.8</ele><time>2022-05-22T09:47:44.000Z</time></trkpt><trkpt lon="5.842188" lat="51.170165"><ele>22.8</ele><time>2022-05-22T09:47:45.000Z</time></trkpt><trkpt lon="5.842196" lat="51.170237"><ele>22.6</ele><time>2022-05-22T09:47:46.000Z</time></trkpt><trkpt lon="5.842205" lat="51.170309"><ele>22.6</ele><time>2022-05-22T09:47:47.000Z</time></trkpt><trkpt lon="5.84221" lat="51.17037"><ele>22.6</ele><time>2022-05-22T09:47:48.000Z</time></trkpt><trkpt lon="5.842212" lat="51.170454"><ele>22.6</ele><time>2022-05-22T09:47:49.000Z</time></trkpt><trkpt lon="5.84221" lat="51.170519"><ele>22.8</ele><time>2022-05-22T09:47:50.000Z</time></trkpt><trkpt lon="5.842207" lat="51.170595"><ele>22.8</ele><time>2022-05-22T09:47:51.000Z</time></trkpt><trkpt lon="5.842205" lat="51.170664"><ele>23</ele><time>2022-05-22T09:47:52.000Z</time></trkpt><trkpt lon="5.842203" lat="51.170736"><ele>23</ele><time>2022-05-22T09:47:53.000Z</time></trkpt><trkpt lon="5.842197" lat="51.170793"><ele>23</ele><time>2022-05-22T09:47:54.000Z</time></trkpt><trkpt lon="5.842174" lat="51.170868"><ele>22.8</ele><time>2022-05-22T09:47:55.000Z</time></trkpt><trkpt lon="5.842149" lat="51.170931"><ele>22.8</ele><time>2022-05-22T09:47:56.000Z</time></trkpt><trkpt lon="5.842109" lat="51.171003"><ele>22.6</ele><time>2022-05-22T09:47:57.000Z</time></trkpt><trkpt lon="5.84206" lat="51.171063"><ele>22.6</ele><time>2022-05-22T09:47:58.000Z</time></trkpt><trkpt lon="5.842006" lat="51.171126"><ele>22.4</ele><time>2022-05-22T09:47:59.000Z</time></trkpt><trkpt lon="5.841959" lat="51.171169"><ele>22.4</ele><time>2022-05-22T09:48:00.000Z</time></trkpt><trkpt lon="5.841904" lat="51.17122"><ele>22.2</ele><time>2022-05-22T09:48:01.000Z</time></trkpt><trkpt lon="5.841867" lat="51.171261"><ele>22.2</ele><time>2022-05-22T09:48:02.000Z</time></trkpt><trkpt lon="5.841829" lat="51.171309"><ele>22.4</ele><time>2022-05-22T09:48:03.000Z</time></trkpt><trkpt lon="5.841808" lat="51.171341"><ele>22.4</ele><time>2022-05-22T09:48:04.000Z</time></trkpt><trkpt lon="5.841786" lat="51.171382"><ele>22.4</ele><time>2022-05-22T09:48:05.000Z</time></trkpt><trkpt lon="5.841764" lat="51.171409"><ele>22.4</ele><time>2022-05-22T09:48:06.000Z</time></trkpt><trkpt lon="5.841741" lat="51.171432"><ele>22.6</ele><time>2022-05-22T09:48:07.000Z</time></trkpt><trkpt lon="5.841717" lat="51.171451"><ele>22.6</ele><time>2022-05-22T09:48:08.000Z</time></trkpt><trkpt lon="5.841695" lat="51.171466"><ele>22.6</ele><time>2022-05-22T09:48:09.000Z</time></trkpt><trkpt lon="5.841679" lat="51.171478"><ele>22.6</ele><time>2022-05-22T09:48:10.000Z</time></trkpt><trkpt lon="5.841664" lat="51.171497"><ele>22.6</ele><time>2022-05-22T09:48:11.000Z</time></trkpt><trkpt lon="5.841647" lat="51.171523"><ele>22.6</ele><time>2022-05-22T09:48:12.000Z</time></trkpt><trkpt lon="5.841632" lat="51.171558"><ele>22.6</ele><time>2022-05-22T09:48:13.000Z</time></trkpt><trkpt lon="5.841617" lat="51.171603"><ele>22.4</ele><time>2022-05-22T09:48:14.000Z</time></trkpt><trkpt lon="5.841599" lat="51.171645"><ele>22.4</ele><time>2022-05-22T09:48:15.000Z</time></trkpt><trkpt lon="5.841571" lat="51.171691"><ele>22.4</ele><time>2022-05-22T09:48:16.000Z</time></trkpt><trkpt lon="5.841543" lat="51.171735"><ele>22.4</ele><time>2022-05-22T09:48:17.000Z</time></trkpt><trkpt lon="5.841511" lat="51.171786"><ele>22.6</ele><time>2022-05-22T09:48:18.000Z</time></trkpt><trkpt lon="5.841479" lat="51.171834"><ele>22.6</ele><time>2022-05-22T09:48:19.000Z</time></trkpt><trkpt lon="5.841446" lat="51.171889"><ele>22.6</ele><time>2022-05-22T09:48:20.000Z</time></trkpt><trkpt lon="5.841413" lat="51.171946"><ele>22.6</ele><time>2022-05-22T09:48:21.000Z</time></trkpt><trkpt lon="5.841372" lat="51.172006"><ele>22.6</ele><time>2022-05-22T09:48:22.000Z</time></trkpt><trkpt lon="5.841334" lat="51.172066"><ele>22.4</ele><time>2022-05-22T09:48:23.000Z</time></trkpt><trkpt lon="5.841289" lat="51.172154"><ele>22.4</ele><time>2022-05-22T09:48:24.000Z</time></trkpt><trkpt lon="5.841244" lat="51.172244"><ele>22.2</ele><time>2022-05-22T09:48:25.000Z</time></trkpt><trkpt lon="5.841199" lat="51.172334"><ele>22</ele><time>2022-05-22T09:48:26.000Z</time></trkpt><trkpt lon="5.841167" lat="51.172408"><ele>22</ele><time>2022-05-22T09:48:27.000Z</time></trkpt><trkpt lon="5.841151" lat="51.172454"><ele>22</ele><time>2022-05-22T09:48:28.000Z</time></trkpt><trkpt lon="5.841129" lat="51.1725"><ele>22</ele><time>2022-05-22T09:48:29.000Z</time></trkpt><trkpt lon="5.841114" lat="51.172555"><ele>22</ele><time>2022-05-22T09:48:30.000Z</time></trkpt><trkpt lon="5.841097" lat="51.172618"><ele>22</ele><time>2022-05-22T09:48:31.000Z</time></trkpt><trkpt lon="5.841072" lat="51.172678"><ele>22.2</ele><time>2022-05-22T09:48:32.000Z</time></trkpt><trkpt lon="5.841052" lat="51.172743"><ele>22.2</ele><time>2022-05-22T09:48:33.000Z</time></trkpt><trkpt lon="5.841039" lat="51.172798"><ele>22.2</ele><time>2022-05-22T09:48:34.000Z</time></trkpt><trkpt lon="5.841019" lat="51.172865"><ele>22.2</ele><time>2022-05-22T09:48:35.000Z</time></trkpt><trkpt lon="5.841002" lat="51.172928"><ele>22.2</ele><time>2022-05-22T09:48:36.000Z</time></trkpt><trkpt lon="5.840981" lat="51.172995"><ele>22.4</ele><time>2022-05-22T09:48:37.000Z</time></trkpt><trkpt lon="5.84096" lat="51.173053"><ele>22.4</ele><time>2022-05-22T09:48:38.000Z</time></trkpt><trkpt lon="5.840936" lat="51.173121"><ele>22.4</ele><time>2022-05-22T09:48:39.000Z</time></trkpt><trkpt lon="5.840914" lat="51.173178"><ele>22.6</ele><time>2022-05-22T09:48:40.000Z</time></trkpt><trkpt lon="5.840893" lat="51.173245"><ele>22.6</ele><time>2022-05-22T09:48:41.000Z</time></trkpt><trkpt lon="5.840871" lat="51.173306"><ele>22.6</ele><time>2022-05-22T09:48:42.000Z</time></trkpt><trkpt lon="5.840846" lat="51.173368"><ele>22.6</ele><time>2022-05-22T09:48:43.000Z</time></trkpt><trkpt lon="5.840818" lat="51.173426"><ele>22.6</ele><time>2022-05-22T09:48:44.000Z</time></trkpt><trkpt lon="5.840784" lat="51.17349"><ele>22.4</ele><time>2022-05-22T09:48:45.000Z</time></trkpt><trkpt lon="5.840751" lat="51.17355"><ele>22.6</ele><time>2022-05-22T09:48:46.000Z</time></trkpt><trkpt lon="5.840708" lat="51.173609"><ele>22.6</ele><time>2022-05-22T09:48:47.000Z</time></trkpt><trkpt lon="5.840666" lat="51.173664"><ele>22.6</ele><time>2022-05-22T09:48:48.000Z</time></trkpt><trkpt lon="5.840616" lat="51.173723"><ele>22.6</ele><time>2022-05-22T09:48:49.000Z</time></trkpt><trkpt lon="5.840563" lat="51.173775"><ele>22.6</ele><time>2022-05-22T09:48:50.000Z</time></trkpt><trkpt lon="5.8405" lat="51.173831"><ele>22.8</ele><time>2022-05-22T09:48:51.000Z</time></trkpt><trkpt lon="5.840436" lat="51.173888"><ele>23</ele><time>2022-05-22T09:48:52.000Z</time></trkpt><trkpt lon="5.84037" lat="51.173938"><ele>23</ele><time>2022-05-22T09:48:53.000Z</time></trkpt><trkpt lon="5.840297" lat="51.173991"><ele>22.6</ele><time>2022-05-22T09:48:54.000Z</time></trkpt><trkpt lon="5.840222" lat="51.17404"><ele>22.4</ele><time>2022-05-22T09:48:55.000Z</time></trkpt><trkpt lon="5.840144" lat="51.17409"><ele>22.4</ele><time>2022-05-22T09:48:56.000Z</time></trkpt><trkpt lon="5.840068" lat="51.174127"><ele>22.4</ele><time>2022-05-22T09:48:57.000Z</time></trkpt><trkpt lon="5.839968" lat="51.174174"><ele>22.4</ele><time>2022-05-22T09:48:58.000Z</time></trkpt><trkpt lon="5.839874" lat="51.174212"><ele>22.2</ele><time>2022-05-22T09:48:59.000Z</time></trkpt><trkpt lon="5.839775" lat="51.17425"><ele>22.2</ele><time>2022-05-22T09:49:00.000Z</time></trkpt><trkpt lon="5.839674" lat="51.174293"><ele>22.2</ele><time>2022-05-22T09:49:01.000Z</time></trkpt><trkpt lon="5.839575" lat="51.174326"><ele>22</ele><time>2022-05-22T09:49:02.000Z</time></trkpt><trkpt lon="5.839468" lat="51.174357"><ele>22.2</ele><time>2022-05-22T09:49:03.000Z</time></trkpt><trkpt lon="5.839361" lat="51.174391"><ele>22.2</ele><time>2022-05-22T09:49:04.000Z</time></trkpt><trkpt lon="5.839254" lat="51.174422"><ele>22</ele><time>2022-05-22T09:49:05.000Z</time></trkpt><trkpt lon="5.839151" lat="51.174457"><ele>21.8</ele><time>2022-05-22T09:49:06.000Z</time></trkpt><trkpt lon="5.839052" lat="51.174491"><ele>21.8</ele><time>2022-05-22T09:49:07.000Z</time></trkpt><trkpt lon="5.838961" lat="51.174523"><ele>21.8</ele><time>2022-05-22T09:49:08.000Z</time></trkpt><trkpt lon="5.838853" lat="51.174563"><ele>21.6</ele><time>2022-05-22T09:49:09.000Z</time></trkpt><trkpt lon="5.838758" lat="51.174598"><ele>21.6</ele><time>2022-05-22T09:49:10.000Z</time></trkpt><trkpt lon="5.838669" lat="51.174638"><ele>21.4</ele><time>2022-05-22T09:49:11.000Z</time></trkpt><trkpt lon="5.838578" lat="51.174685"><ele>21.4</ele><time>2022-05-22T09:49:12.000Z</time></trkpt><trkpt lon="5.83849" lat="51.174731"><ele>21.2</ele><time>2022-05-22T09:49:13.000Z</time></trkpt><trkpt lon="5.838405" lat="51.174784"><ele>21.2</ele><time>2022-05-22T09:49:14.000Z</time></trkpt><trkpt lon="5.838322" lat="51.174833"><ele>21.2</ele><time>2022-05-22T09:49:15.000Z</time></trkpt><trkpt lon="5.838235" lat="51.174887"><ele>21.2</ele><time>2022-05-22T09:49:16.000Z</time></trkpt><trkpt lon="5.838152" lat="51.174937"><ele>21.2</ele><time>2022-05-22T09:49:17.000Z</time></trkpt><trkpt lon="5.83807" lat="51.174989"><ele>21.4</ele><time>2022-05-22T09:49:18.000Z</time></trkpt><trkpt lon="5.837992" lat="51.175036"><ele>21.4</ele><time>2022-05-22T09:49:19.000Z</time></trkpt><trkpt lon="5.837919" lat="51.175078"><ele>21.4</ele><time>2022-05-22T09:49:20.000Z</time></trkpt><trkpt lon="5.837855" lat="51.175116"><ele>21.6</ele><time>2022-05-22T09:49:21.000Z</time></trkpt><trkpt lon="5.837798" lat="51.175151"><ele>21.6</ele><time>2022-05-22T09:49:22.000Z</time></trkpt><trkpt lon="5.837756" lat="51.175175"><ele>21.8</ele><time>2022-05-22T09:49:23.000Z</time></trkpt><trkpt lon="5.837716" lat="51.175205"><ele>22</ele><time>2022-05-22T09:49:24.000Z</time></trkpt><trkpt lon="5.837694" lat="51.175231"><ele>22</ele><time>2022-05-22T09:49:25.000Z</time></trkpt><trkpt lon="5.837689" lat="51.175265"><ele>22.2</ele><time>2022-05-22T09:49:26.000Z</time></trkpt><trkpt lon="5.837708" lat="51.175292"><ele>22.2</ele><time>2022-05-22T09:49:27.000Z</time></trkpt><trkpt lon="5.837745" lat="51.175319"><ele>22.2</ele><time>2022-05-22T09:49:28.000Z</time></trkpt><trkpt lon="5.837789" lat="51.175342"><ele>22.2</ele><time>2022-05-22T09:49:29.000Z</time></trkpt><trkpt lon="5.837829" lat="51.175365"><ele>22.2</ele><time>2022-05-22T09:49:30.000Z</time></trkpt><trkpt lon="5.837862" lat="51.175388"><ele>22.2</ele><time>2022-05-22T09:49:31.000Z</time></trkpt><trkpt lon="5.837884" lat="51.175414"><ele>22.2</ele><time>2022-05-22T09:49:32.000Z</time></trkpt><trkpt lon="5.837883" lat="51.175441"><ele>22.2</ele><time>2022-05-22T09:49:33.000Z</time></trkpt><trkpt lon="5.837864" lat="51.175464"><ele>22.2</ele><time>2022-05-22T09:49:34.000Z</time></trkpt><trkpt lon="5.837835" lat="51.175493"><ele>22.2</ele><time>2022-05-22T09:49:35.000Z</time></trkpt><trkpt lon="5.837801" lat="51.175521"><ele>22.4</ele><time>2022-05-22T09:49:36.000Z</time></trkpt><trkpt lon="5.837766" lat="51.175554"><ele>22.4</ele><time>2022-05-22T09:49:37.000Z</time></trkpt><trkpt lon="5.837723" lat="51.175582"><ele>22.4</ele><time>2022-05-22T09:49:38.000Z</time></trkpt><trkpt lon="5.837679" lat="51.175587"><ele>22.4</ele><time>2022-05-22T09:49:39.000Z</time></trkpt><trkpt lon="5.837616" lat="51.175572"><ele>22.2</ele><time>2022-05-22T09:49:40.000Z</time></trkpt><trkpt lon="5.837545" lat="51.175571"><ele>22.2</ele><time>2022-05-22T09:49:41.000Z</time></trkpt><trkpt lon="5.837467" lat="51.175583"><ele>22</ele><time>2022-05-22T09:49:42.000Z</time></trkpt><trkpt lon="5.837395" lat="51.175609"><ele>22</ele><time>2022-05-22T09:49:43.000Z</time></trkpt><trkpt lon="5.83734" lat="51.175646"><ele>22.2</ele><time>2022-05-22T09:49:44.000Z</time></trkpt><trkpt lon="5.837293" lat="51.175687"><ele>22.2</ele><time>2022-05-22T09:49:45.000Z</time></trkpt><trkpt lon="5.837232" lat="51.175719"><ele>22.2</ele><time>2022-05-22T09:49:46.000Z</time></trkpt><trkpt lon="5.837155" lat="51.175735"><ele>22.2</ele><time>2022-05-22T09:49:47.000Z</time></trkpt><trkpt lon="5.837073" lat="51.175724"><ele>22.2</ele><time>2022-05-22T09:49:48.000Z</time></trkpt><trkpt lon="5.836989" lat="51.175698"><ele>22.2</ele><time>2022-05-22T09:49:49.000Z</time></trkpt><trkpt lon="5.836903" lat="51.175664"><ele>22</ele><time>2022-05-22T09:49:50.000Z</time></trkpt><trkpt lon="5.836808" lat="51.175626"><ele>22</ele><time>2022-05-22T09:49:51.000Z</time></trkpt><trkpt lon="5.836708" lat="51.175588"><ele>22.2</ele><time>2022-05-22T09:49:52.000Z</time></trkpt><trkpt lon="5.836612" lat="51.175544"><ele>22.2</ele><time>2022-05-22T09:49:53.000Z</time></trkpt><trkpt lon="5.836515" lat="51.175498"><ele>22.2</ele><time>2022-05-22T09:49:54.000Z</time></trkpt><trkpt lon="5.836417" lat="51.175456"><ele>22.2</ele><time>2022-05-22T09:49:55.000Z</time></trkpt><trkpt lon="5.836319" lat="51.175416"><ele>22.2</ele><time>2022-05-22T09:49:56.000Z</time></trkpt><trkpt lon="5.836225" lat="51.175376"><ele>22.2</ele><time>2022-05-22T09:49:57.000Z</time></trkpt><trkpt lon="5.836121" lat="51.175329"><ele>22.2</ele><time>2022-05-22T09:49:58.000Z</time></trkpt><trkpt lon="5.836023" lat="51.175279"><ele>22.2</ele><time>2022-05-22T09:49:59.000Z</time></trkpt><trkpt lon="5.835921" lat="51.17523"><ele>22.2</ele><time>2022-05-22T09:50:00.000Z</time></trkpt><trkpt lon="5.835818" lat="51.175187"><ele>22.2</ele><time>2022-05-22T09:50:01.000Z</time></trkpt><trkpt lon="5.835716" lat="51.175142"><ele>22.2</ele><time>2022-05-22T09:50:02.000Z</time></trkpt><trkpt lon="5.835615" lat="51.175099"><ele>22.2</ele><time>2022-05-22T09:50:03.000Z</time></trkpt><trkpt lon="5.835515" lat="51.175051"><ele>22.2</ele><time>2022-05-22T09:50:04.000Z</time></trkpt><trkpt lon="5.835414" lat="51.175008"><ele>22.2</ele><time>2022-05-22T09:50:05.000Z</time></trkpt><trkpt lon="5.835318" lat="51.174966"><ele>22.2</ele><time>2022-05-22T09:50:06.000Z</time></trkpt><trkpt lon="5.835226" lat="51.174921"><ele>22</ele><time>2022-05-22T09:50:07.000Z</time></trkpt><trkpt lon="5.835136" lat="51.174878"><ele>22</ele><time>2022-05-22T09:50:08.000Z</time></trkpt><trkpt lon="5.835049" lat="51.174833"><ele>22</ele><time>2022-05-22T09:50:09.000Z</time></trkpt><trkpt lon="5.834966" lat="51.174783"><ele>22.2</ele><time>2022-05-22T09:50:10.000Z</time></trkpt><trkpt lon="5.834888" lat="51.174727"><ele>22.2</ele><time>2022-05-22T09:50:11.000Z</time></trkpt><trkpt lon="5.834813" lat="51.174669"><ele>22.4</ele><time>2022-05-22T09:50:12.000Z</time></trkpt><trkpt lon="5.834742" lat="51.174612"><ele>22.4</ele><time>2022-05-22T09:50:13.000Z</time></trkpt><trkpt lon="5.834666" lat="51.17456"><ele>22.4</ele><time>2022-05-22T09:50:14.000Z</time></trkpt><trkpt lon="5.834584" lat="51.174518"><ele>22.4</ele><time>2022-05-22T09:50:15.000Z</time></trkpt><trkpt lon="5.834486" lat="51.17447"><ele>22.4</ele><time>2022-05-22T09:50:16.000Z</time></trkpt><trkpt lon="5.834396" lat="51.17443"><ele>22.4</ele><time>2022-05-22T09:50:17.000Z</time></trkpt><trkpt lon="5.834292" lat="51.174386"><ele>22.2</ele><time>2022-05-22T09:50:18.000Z</time></trkpt><trkpt lon="5.834197" lat="51.174345"><ele>22.2</ele><time>2022-05-22T09:50:19.000Z</time></trkpt><trkpt lon="5.834099" lat="51.174302"><ele>22.2</ele><time>2022-05-22T09:50:20.000Z</time></trkpt><trkpt lon="5.834002" lat="51.17426"><ele>22.2</ele><time>2022-05-22T09:50:21.000Z</time></trkpt><trkpt lon="5.833905" lat="51.174215"><ele>22.2</ele><time>2022-05-22T09:50:22.000Z</time></trkpt><trkpt lon="5.833812" lat="51.174173"><ele>22.2</ele><time>2022-05-22T09:50:23.000Z</time></trkpt><trkpt lon="5.833726" lat="51.174137"><ele>22.2</ele><time>2022-05-22T09:50:24.000Z</time></trkpt><trkpt lon="5.833629" lat="51.174097"><ele>22.2</ele><time>2022-05-22T09:50:25.000Z</time></trkpt><trkpt lon="5.833537" lat="51.174058"><ele>22.2</ele><time>2022-05-22T09:50:26.000Z</time></trkpt><trkpt lon="5.833449" lat="51.174017"><ele>22.2</ele><time>2022-05-22T09:50:27.000Z</time></trkpt><trkpt lon="5.833359" lat="51.173978"><ele>22.4</ele><time>2022-05-22T09:50:28.000Z</time></trkpt><trkpt lon="5.833272" lat="51.17394"><ele>22.4</ele><time>2022-05-22T09:50:29.000Z</time></trkpt><trkpt lon="5.833184" lat="51.173902"><ele>22.4</ele><time>2022-05-22T09:50:30.000Z</time></trkpt><trkpt lon="5.8331" lat="51.173865"><ele>22.4</ele><time>2022-05-22T09:50:31.000Z</time></trkpt><trkpt lon="5.833006" lat="51.173825"><ele>22.4</ele><time>2022-05-22T09:50:32.000Z</time></trkpt><trkpt lon="5.832913" lat="51.173788"><ele>22.4</ele><time>2022-05-22T09:50:33.000Z</time></trkpt><trkpt lon="5.832823" lat="51.17375"><ele>22.4</ele><time>2022-05-22T09:50:34.000Z</time></trkpt><trkpt lon="5.832734" lat="51.173709"><ele>22.4</ele><time>2022-05-22T09:50:35.000Z</time></trkpt><trkpt lon="5.832639" lat="51.173669"><ele>22.4</ele><time>2022-05-22T09:50:36.000Z</time></trkpt><trkpt lon="5.832551" lat="51.173627"><ele>22.4</ele><time>2022-05-22T09:50:37.000Z</time></trkpt><trkpt lon="5.83246" lat="51.173588"><ele>22.2</ele><time>2022-05-22T09:50:38.000Z</time></trkpt><trkpt lon="5.832372" lat="51.173552"><ele>22.2</ele><time>2022-05-22T09:50:39.000Z</time></trkpt><trkpt lon="5.832281" lat="51.173513"><ele>22</ele><time>2022-05-22T09:50:40.000Z</time></trkpt><trkpt lon="5.832188" lat="51.173475"><ele>22</ele><time>2022-05-22T09:50:41.000Z</time></trkpt><trkpt lon="5.832097" lat="51.173436"><ele>22.2</ele><time>2022-05-22T09:50:42.000Z</time></trkpt><trkpt lon="5.832011" lat="51.173394"><ele>22.2</ele><time>2022-05-22T09:50:43.000Z</time></trkpt><trkpt lon="5.831926" lat="51.173356"><ele>22.2</ele><time>2022-05-22T09:50:44.000Z</time></trkpt><trkpt lon="5.831844" lat="51.173319"><ele>22.2</ele><time>2022-05-22T09:50:45.000Z</time></trkpt><trkpt lon="5.831754" lat="51.17328"><ele>22.2</ele><time>2022-05-22T09:50:46.000Z</time></trkpt><trkpt lon="5.831663" lat="51.173246"><ele>22.2</ele><time>2022-05-22T09:50:47.000Z</time></trkpt><trkpt lon="5.831569" lat="51.173207"><ele>22</ele><time>2022-05-22T09:50:48.000Z</time></trkpt><trkpt lon="5.831481" lat="51.173166"><ele>22</ele><time>2022-05-22T09:50:49.000Z</time></trkpt><trkpt lon="5.831393" lat="51.173128"><ele>22</ele><time>2022-05-22T09:50:50.000Z</time></trkpt><trkpt lon="5.831306" lat="51.173086"><ele>22.2</ele><time>2022-05-22T09:50:51.000Z</time></trkpt><trkpt lon="5.83122" lat="51.173048"><ele>22.2</ele><time>2022-05-22T09:50:52.000Z</time></trkpt><trkpt lon="5.831133" lat="51.173009"><ele>22.2</ele><time>2022-05-22T09:50:53.000Z</time></trkpt><trkpt lon="5.83105" lat="51.172971"><ele>22</ele><time>2022-05-22T09:50:54.000Z</time></trkpt><trkpt lon="5.830967" lat="51.172933"><ele>22</ele><time>2022-05-22T09:50:55.000Z</time></trkpt><trkpt lon="5.830885" lat="51.172899"><ele>21.8</ele><time>2022-05-22T09:50:56.000Z</time></trkpt><trkpt lon="5.830798" lat="51.172875"><ele>21.8</ele><time>2022-05-22T09:50:57.000Z</time></trkpt><trkpt lon="5.830703" lat="51.172867"><ele>21.8</ele><time>2022-05-22T09:50:58.000Z</time></trkpt><trkpt lon="5.830619" lat="51.172893"><ele>21.8</ele><time>2022-05-22T09:50:59.000Z</time></trkpt><trkpt lon="5.830547" lat="51.172942"><ele>21.6</ele><time>2022-05-22T09:51:00.000Z</time></trkpt><trkpt lon="5.830483" lat="51.172994"><ele>21.4</ele><time>2022-05-22T09:51:01.000Z</time></trkpt><trkpt lon="5.830422" lat="51.173056"><ele>21.4</ele><time>2022-05-22T09:51:02.000Z</time></trkpt><trkpt lon="5.830366" lat="51.173119"><ele>21.4</ele><time>2022-05-22T09:51:03.000Z</time></trkpt><trkpt lon="5.830309" lat="51.173189"><ele>21.6</ele><time>2022-05-22T09:51:04.000Z</time></trkpt><trkpt lon="5.830254" lat="51.173253"><ele>21.6</ele><time>2022-05-22T09:51:05.000Z</time></trkpt><trkpt lon="5.830198" lat="51.173314"><ele>21.6</ele><time>2022-05-22T09:51:06.000Z</time></trkpt><trkpt lon="5.830138" lat="51.173371"><ele>21.6</ele><time>2022-05-22T09:51:07.000Z</time></trkpt><trkpt lon="5.83008" lat="51.173433"><ele>21.8</ele><time>2022-05-22T09:51:08.000Z</time></trkpt><trkpt lon="5.830028" lat="51.173494"><ele>22</ele><time>2022-05-22T09:51:09.000Z</time></trkpt><trkpt lon="5.829981" lat="51.173551"><ele>22</ele><time>2022-05-22T09:51:10.000Z</time></trkpt><trkpt lon="5.829937" lat="51.173612"><ele>22</ele><time>2022-05-22T09:51:11.000Z</time></trkpt><trkpt lon="5.829896" lat="51.173666"><ele>22.2</ele><time>2022-05-22T09:51:12.000Z</time></trkpt><trkpt lon="5.829858" lat="51.17372"><ele>22.2</ele><time>2022-05-22T09:51:13.000Z</time></trkpt><trkpt lon="5.829819" lat="51.173766"><ele>22</ele><time>2022-05-22T09:51:14.000Z</time></trkpt><trkpt lon="5.829779" lat="51.173812"><ele>22</ele><time>2022-05-22T09:51:15.000Z</time></trkpt><trkpt lon="5.829725" lat="51.173846"><ele>22.2</ele><time>2022-05-22T09:51:16.000Z</time></trkpt><trkpt lon="5.829656" lat="51.173869"><ele>22.2</ele><time>2022-05-22T09:51:17.000Z</time></trkpt><trkpt lon="5.82957" lat="51.173881"><ele>22.2</ele><time>2022-05-22T09:51:18.000Z</time></trkpt><trkpt lon="5.829478" lat="51.173882"><ele>22.2</ele><time>2022-05-22T09:51:19.000Z</time></trkpt><trkpt lon="5.829376" lat="51.17387"><ele>22.2</ele><time>2022-05-22T09:51:20.000Z</time></trkpt><trkpt lon="5.829267" lat="51.173852"><ele>22.2</ele><time>2022-05-22T09:51:21.000Z</time></trkpt><trkpt lon="5.829154" lat="51.173833"><ele>22.2</ele><time>2022-05-22T09:51:22.000Z</time></trkpt><trkpt lon="5.829043" lat="51.173814"><ele>22.2</ele><time>2022-05-22T09:51:23.000Z</time></trkpt><trkpt lon="5.828938" lat="51.173792"><ele>22.2</ele><time>2022-05-22T09:51:24.000Z</time></trkpt><trkpt lon="5.828836" lat="51.173771"><ele>22.4</ele><time>2022-05-22T09:51:25.000Z</time></trkpt><trkpt lon="5.828715" lat="51.173747"><ele>22.4</ele><time>2022-05-22T09:51:26.000Z</time></trkpt><trkpt lon="5.828589" lat="51.173722"><ele>22.4</ele><time>2022-05-22T09:51:27.000Z</time></trkpt><trkpt lon="5.828477" lat="51.173695"><ele>22.4</ele><time>2022-05-22T09:51:28.000Z</time></trkpt><trkpt lon="5.828372" lat="51.173674"><ele>22.2</ele><time>2022-05-22T09:51:29.000Z</time></trkpt><trkpt lon="5.82825" lat="51.173646"><ele>22.2</ele><time>2022-05-22T09:51:30.000Z</time></trkpt><trkpt lon="5.828135" lat="51.173619"><ele>22.2</ele><time>2022-05-22T09:51:31.000Z</time></trkpt><trkpt lon="5.828022" lat="51.173596"><ele>22.2</ele><time>2022-05-22T09:51:32.000Z</time></trkpt><trkpt lon="5.82792" lat="51.17357"><ele>22.2</ele><time>2022-05-22T09:51:33.000Z</time></trkpt><trkpt lon="5.827817" lat="51.173543"><ele>22.2</ele><time>2022-05-22T09:51:34.000Z</time></trkpt><trkpt lon="5.827719" lat="51.173517"><ele>22.2</ele><time>2022-05-22T09:51:35.000Z</time></trkpt><trkpt lon="5.827617" lat="51.17349"><ele>22.2</ele><time>2022-05-22T09:51:36.000Z</time></trkpt><trkpt lon="5.827516" lat="51.173459"><ele>22.2</ele><time>2022-05-22T09:51:37.000Z</time></trkpt><trkpt lon="5.827412" lat="51.173429"><ele>22</ele><time>2022-05-22T09:51:38.000Z</time></trkpt><trkpt lon="5.827306" lat="51.173402"><ele>22</ele><time>2022-05-22T09:51:39.000Z</time></trkpt><trkpt lon="5.827204" lat="51.173375"><ele>22</ele><time>2022-05-22T09:51:40.000Z</time></trkpt><trkpt lon="5.827101" lat="51.173349"><ele>22</ele><time>2022-05-22T09:51:41.000Z</time></trkpt><trkpt lon="5.82699" lat="51.173322"><ele>22</ele><time>2022-05-22T09:51:42.000Z</time></trkpt><trkpt lon="5.826881" lat="51.173295"><ele>22</ele><time>2022-05-22T09:51:43.000Z</time></trkpt><trkpt lon="5.826774" lat="51.173268"><ele>22</ele><time>2022-05-22T09:51:44.000Z</time></trkpt><trkpt lon="5.826674" lat="51.173242"><ele>22</ele><time>2022-05-22T09:51:45.000Z</time></trkpt><trkpt lon="5.826571" lat="51.173216"><ele>22.2</ele><time>2022-05-22T09:51:46.000Z</time></trkpt><trkpt lon="5.826464" lat="51.173185"><ele>22.4</ele><time>2022-05-22T09:51:47.000Z</time></trkpt><trkpt lon="5.826371" lat="51.173161"><ele>22.4</ele><time>2022-05-22T09:51:48.000Z</time></trkpt><trkpt lon="5.826255" lat="51.173131"><ele>22.4</ele><time>2022-05-22T09:51:49.000Z</time></trkpt><trkpt lon="5.826149" lat="51.173104"><ele>22.4</ele><time>2022-05-22T09:51:50.000Z</time></trkpt><trkpt lon="5.826049" lat="51.173075"><ele>22.4</ele><time>2022-05-22T09:51:51.000Z</time></trkpt><trkpt lon="5.825942" lat="51.173043"><ele>22.2</ele><time>2022-05-22T09:51:52.000Z</time></trkpt><trkpt lon="5.825846" lat="51.173019"><ele>22.2</ele><time>2022-05-22T09:51:53.000Z</time></trkpt><trkpt lon="5.825747" lat="51.172996"><ele>22.2</ele><time>2022-05-22T09:51:54.000Z</time></trkpt><trkpt lon="5.825643" lat="51.172973"><ele>22.2</ele><time>2022-05-22T09:51:55.000Z</time></trkpt><trkpt lon="5.825539" lat="51.172948"><ele>22</ele><time>2022-05-22T09:51:56.000Z</time></trkpt><trkpt lon="5.825419" lat="51.172922"><ele>22</ele><time>2022-05-22T09:51:57.000Z</time></trkpt><trkpt lon="5.825302" lat="51.172905"><ele>22</ele><time>2022-05-22T09:51:58.000Z</time></trkpt><trkpt lon="5.825188" lat="51.17289"><ele>22</ele><time>2022-05-22T09:51:59.000Z</time></trkpt><trkpt lon="5.825075" lat="51.172882"><ele>22</ele><time>2022-05-22T09:52:00.000Z</time></trkpt><trkpt lon="5.824962" lat="51.172878"><ele>22.2</ele><time>2022-05-22T09:52:01.000Z</time></trkpt><trkpt lon="5.824845" lat="51.172871"><ele>22.2</ele><time>2022-05-22T09:52:02.000Z</time></trkpt><trkpt lon="5.824729" lat="51.172863"><ele>22.2</ele><time>2022-05-22T09:52:03.000Z</time></trkpt><trkpt lon="5.824616" lat="51.172852"><ele>22.4</ele><time>2022-05-22T09:52:04.000Z</time></trkpt><trkpt lon="5.824504" lat="51.172844"><ele>22.4</ele><time>2022-05-22T09:52:05.000Z</time></trkpt><trkpt lon="5.82439" lat="51.17284"><ele>22.4</ele><time>2022-05-22T09:52:06.000Z</time></trkpt><trkpt lon="5.824277" lat="51.17284"><ele>22.4</ele><time>2022-05-22T09:52:07.000Z</time></trkpt><trkpt lon="5.824169" lat="51.17284"><ele>22.4</ele><time>2022-05-22T09:52:08.000Z</time></trkpt><trkpt lon="5.824061" lat="51.17284"><ele>22.2</ele><time>2022-05-22T09:52:09.000Z</time></trkpt><trkpt lon="5.823952" lat="51.172851"><ele>22.2</ele><time>2022-05-22T09:52:10.000Z</time></trkpt><trkpt lon="5.823852" lat="51.172862"><ele>22.2</ele><time>2022-05-22T09:52:11.000Z</time></trkpt><trkpt lon="5.823748" lat="51.172878"><ele>22.4</ele><time>2022-05-22T09:52:12.000Z</time></trkpt><trkpt lon="5.823653" lat="51.172889"><ele>22.4</ele><time>2022-05-22T09:52:13.000Z</time></trkpt><trkpt lon="5.823568" lat="51.172893"><ele>22.6</ele><time>2022-05-22T09:52:14.000Z</time></trkpt><trkpt lon="5.823501" lat="51.172893"><ele>22.6</ele><time>2022-05-22T09:52:15.000Z</time></trkpt><trkpt lon="5.82344" lat="51.172886"><ele>22.8</ele><time>2022-05-22T09:52:16.000Z</time></trkpt><trkpt lon="5.823391" lat="51.172867"><ele>23</ele><time>2022-05-22T09:52:17.000Z</time></trkpt><trkpt lon="5.823357" lat="51.172837"><ele>23</ele><time>2022-05-22T09:52:18.000Z</time></trkpt><trkpt lon="5.823326" lat="51.172788"><ele>23.2</ele><time>2022-05-22T09:52:19.000Z</time></trkpt><trkpt lon="5.82331" lat="51.172731"><ele>23.2</ele><time>2022-05-22T09:52:20.000Z</time></trkpt><trkpt lon="5.8233" lat="51.172671"><ele>23.2</ele><time>2022-05-22T09:52:21.000Z</time></trkpt><trkpt lon="5.82329" lat="51.172603"><ele>23.2</ele><time>2022-05-22T09:52:22.000Z</time></trkpt><trkpt lon="5.823276" lat="51.172529"><ele>23</ele><time>2022-05-22T09:52:23.000Z</time></trkpt><trkpt lon="5.823255" lat="51.172465"><ele>22.8</ele><time>2022-05-22T09:52:24.000Z</time></trkpt><trkpt lon="5.823229" lat="51.172401"><ele>22.6</ele><time>2022-05-22T09:52:25.000Z</time></trkpt><trkpt lon="5.823199" lat="51.172323"><ele>22.4</ele><time>2022-05-22T09:52:26.000Z</time></trkpt><trkpt lon="5.823166" lat="51.172251"><ele>22.2</ele><time>2022-05-22T09:52:27.000Z</time></trkpt><trkpt lon="5.823137" lat="51.172182"><ele>22</ele><time>2022-05-22T09:52:28.000Z</time></trkpt><trkpt lon="5.823112" lat="51.172114"><ele>21.8</ele><time>2022-05-22T09:52:29.000Z</time></trkpt><trkpt lon="5.823088" lat="51.172045"><ele>21.6</ele><time>2022-05-22T09:52:30.000Z</time></trkpt><trkpt lon="5.823062" lat="51.171976"><ele>21.6</ele><time>2022-05-22T09:52:31.000Z</time></trkpt><trkpt lon="5.823039" lat="51.171912"><ele>21.6</ele><time>2022-05-22T09:52:32.000Z</time></trkpt><trkpt lon="5.823019" lat="51.171843"><ele>21.6</ele><time>2022-05-22T09:52:33.000Z</time></trkpt><trkpt lon="5.823001" lat="51.171774"><ele>21.4</ele><time>2022-05-22T09:52:34.000Z</time></trkpt><trkpt lon="5.822984" lat="51.171706"><ele>21.6</ele><time>2022-05-22T09:52:35.000Z</time></trkpt><trkpt lon="5.822967" lat="51.171636"><ele>21.4</ele><time>2022-05-22T09:52:36.000Z</time></trkpt><trkpt lon="5.822954" lat="51.171564"><ele>21.2</ele><time>2022-05-22T09:52:37.000Z</time></trkpt><trkpt lon="5.82294" lat="51.1715"><ele>21.2</ele><time>2022-05-22T09:52:38.000Z</time></trkpt><trkpt lon="5.822924" lat="51.171427"><ele>21.2</ele><time>2022-05-22T09:52:39.000Z</time></trkpt><trkpt lon="5.822911" lat="51.17136"><ele>21</ele><time>2022-05-22T09:52:40.000Z</time></trkpt><trkpt lon="5.822897" lat="51.17129"><ele>20.8</ele><time>2022-05-22T09:52:41.000Z</time></trkpt><trkpt lon="5.822881" lat="51.171223"><ele>20.8</ele><time>2022-05-22T09:52:42.000Z</time></trkpt><trkpt lon="5.822865" lat="51.171157"><ele>20.8</ele><time>2022-05-22T09:52:43.000Z</time></trkpt><trkpt lon="5.822849" lat="51.171089"><ele>21</ele><time>2022-05-22T09:52:44.000Z</time></trkpt><trkpt lon="5.822836" lat="51.171022"><ele>21.2</ele><time>2022-05-22T09:52:45.000Z</time></trkpt><trkpt lon="5.822821" lat="51.17095"><ele>21</ele><time>2022-05-22T09:52:46.000Z</time></trkpt><trkpt lon="5.822802" lat="51.170881"><ele>21</ele><time>2022-05-22T09:52:47.000Z</time></trkpt><trkpt lon="5.822784" lat="51.170813"><ele>21</ele><time>2022-05-22T09:52:48.000Z</time></trkpt><trkpt lon="5.822766" lat="51.170748"><ele>21</ele><time>2022-05-22T09:52:49.000Z</time></trkpt><trkpt lon="5.822749" lat="51.170681"><ele>21.2</ele><time>2022-05-22T09:52:50.000Z</time></trkpt><trkpt lon="5.822735" lat="51.170614"><ele>21.2</ele><time>2022-05-22T09:52:51.000Z</time></trkpt><trkpt lon="5.822721" lat="51.170552"><ele>21.4</ele><time>2022-05-22T09:52:52.000Z</time></trkpt><trkpt lon="5.822704" lat="51.170489"><ele>21.4</ele><time>2022-05-22T09:52:53.000Z</time></trkpt><trkpt lon="5.822692" lat="51.170434"><ele>21.2</ele><time>2022-05-22T09:52:54.000Z</time></trkpt><trkpt lon="5.82268" lat="51.170379"><ele>21.2</ele><time>2022-05-22T09:52:55.000Z</time></trkpt><trkpt lon="5.822669" lat="51.170308"><ele>21.2</ele><time>2022-05-22T09:52:56.000Z</time></trkpt><trkpt lon="5.822649" lat="51.170244"><ele>21.2</ele><time>2022-05-22T09:52:57.000Z</time></trkpt><trkpt lon="5.822603" lat="51.170191"><ele>21</ele><time>2022-05-22T09:52:58.000Z</time></trkpt><trkpt lon="5.822525" lat="51.170148"><ele>20.8</ele><time>2022-05-22T09:52:59.000Z</time></trkpt><trkpt lon="5.822422" lat="51.170117"><ele>20.8</ele><time>2022-05-22T09:53:00.000Z</time></trkpt><trkpt lon="5.822315" lat="51.170091"><ele>20.8</ele><time>2022-05-22T09:53:01.000Z</time></trkpt><trkpt lon="5.822204" lat="51.170061"><ele>20.6</ele><time>2022-05-22T09:53:02.000Z</time></trkpt><trkpt lon="5.822088" lat="51.170034"><ele>20.6</ele><time>2022-05-22T09:53:03.000Z</time></trkpt><trkpt lon="5.821971" lat="51.170008"><ele>20.4</ele><time>2022-05-22T09:53:04.000Z</time></trkpt><trkpt lon="5.821846" lat="51.169981"><ele>20.2</ele><time>2022-05-22T09:53:05.000Z</time></trkpt><trkpt lon="5.821723" lat="51.169957"><ele>20.2</ele><time>2022-05-22T09:53:06.000Z</time></trkpt><trkpt lon="5.8216" lat="51.169941"><ele>20</ele><time>2022-05-22T09:53:07.000Z</time></trkpt><trkpt lon="5.821483" lat="51.169934"><ele>20</ele><time>2022-05-22T09:53:08.000Z</time></trkpt><trkpt lon="5.821374" lat="51.16993"><ele>20.2</ele><time>2022-05-22T09:53:09.000Z</time></trkpt><trkpt lon="5.821238" lat="51.169933"><ele>20.2</ele><time>2022-05-22T09:53:10.000Z</time></trkpt><trkpt lon="5.821114" lat="51.169941"><ele>20.4</ele><time>2022-05-22T09:53:11.000Z</time></trkpt><trkpt lon="5.820988" lat="51.169945"><ele>20.4</ele><time>2022-05-22T09:53:12.000Z</time></trkpt><trkpt lon="5.820869" lat="51.169941"><ele>20.4</ele><time>2022-05-22T09:53:13.000Z</time></trkpt><trkpt lon="5.820747" lat="51.169934"><ele>20.4</ele><time>2022-05-22T09:53:14.000Z</time></trkpt><trkpt lon="5.820632" lat="51.169922"><ele>20.4</ele><time>2022-05-22T09:53:15.000Z</time></trkpt><trkpt lon="5.820517" lat="51.1699"><ele>20.4</ele><time>2022-05-22T09:53:16.000Z</time></trkpt><trkpt lon="5.820409" lat="51.169878"><ele>20.4</ele><time>2022-05-22T09:53:17.000Z</time></trkpt><trkpt lon="5.820299" lat="51.169851"><ele>20.4</ele><time>2022-05-22T09:53:18.000Z</time></trkpt><trkpt lon="5.820194" lat="51.169816"><ele>20.4</ele><time>2022-05-22T09:53:19.000Z</time></trkpt><trkpt lon="5.820094" lat="51.169775"><ele>20.6</ele><time>2022-05-22T09:53:20.000Z</time></trkpt><trkpt lon="5.819994" lat="51.169736"><ele>20.8</ele><time>2022-05-22T09:53:21.000Z</time></trkpt><trkpt lon="5.819898" lat="51.169694"><ele>21</ele><time>2022-05-22T09:53:22.000Z</time></trkpt><trkpt lon="5.819804" lat="51.169653"><ele>21</ele><time>2022-05-22T09:53:23.000Z</time></trkpt><trkpt lon="5.819709" lat="51.169614"><ele>21.2</ele><time>2022-05-22T09:53:24.000Z</time></trkpt><trkpt lon="5.819617" lat="51.169578"><ele>21.2</ele><time>2022-05-22T09:53:25.000Z</time></trkpt><trkpt lon="5.819521" lat="51.16954"><ele>21.2</ele><time>2022-05-22T09:53:26.000Z</time></trkpt><trkpt lon="5.81943" lat="51.169499"><ele>21.2</ele><time>2022-05-22T09:53:27.000Z</time></trkpt><trkpt lon="5.819331" lat="51.169458"><ele>21.2</ele><time>2022-05-22T09:53:28.000Z</time></trkpt><trkpt lon="5.819233" lat="51.169416"><ele>21.2</ele><time>2022-05-22T09:53:29.000Z</time></trkpt><trkpt lon="5.819133" lat="51.169374"><ele>21.2</ele><time>2022-05-22T09:53:30.000Z</time></trkpt><trkpt lon="5.819033" lat="51.169332"><ele>21.2</ele><time>2022-05-22T09:53:31.000Z</time></trkpt><trkpt lon="5.818931" lat="51.169293"><ele>21.2</ele><time>2022-05-22T09:53:32.000Z</time></trkpt><trkpt lon="5.818831" lat="51.169252"><ele>21.4</ele><time>2022-05-22T09:53:33.000Z</time></trkpt><trkpt lon="5.81874" lat="51.169215"><ele>21.4</ele><time>2022-05-22T09:53:34.000Z</time></trkpt><trkpt lon="5.818635" lat="51.169175"><ele>21.6</ele><time>2022-05-22T09:53:35.000Z</time></trkpt><trkpt lon="5.81852" lat="51.169137"><ele>21.6</ele><time>2022-05-22T09:53:36.000Z</time></trkpt><trkpt lon="5.818413" lat="51.169107"><ele>21.4</ele><time>2022-05-22T09:53:37.000Z</time></trkpt><trkpt lon="5.818299" lat="51.169076"><ele>21.4</ele><time>2022-05-22T09:53:38.000Z</time></trkpt><trkpt lon="5.818183" lat="51.169049"><ele>21.6</ele><time>2022-05-22T09:53:39.000Z</time></trkpt><trkpt lon="5.818071" lat="51.169023"><ele>21.4</ele><time>2022-05-22T09:53:40.000Z</time></trkpt><trkpt lon="5.81795" lat="51.169003"><ele>21.4</ele><time>2022-05-22T09:53:41.000Z</time></trkpt><trkpt lon="5.817835" lat="51.168984"><ele>21.6</ele><time>2022-05-22T09:53:42.000Z</time></trkpt><trkpt lon="5.817716" lat="51.168969"><ele>21.8</ele><time>2022-05-22T09:53:43.000Z</time></trkpt><trkpt lon="5.8176" lat="51.168957"><ele>22</ele><time>2022-05-22T09:53:44.000Z</time></trkpt><trkpt lon="5.817486" lat="51.168946"><ele>22.2</ele><time>2022-05-22T09:53:45.000Z</time></trkpt><trkpt lon="5.817369" lat="51.168934"><ele>22.4</ele><time>2022-05-22T09:53:46.000Z</time></trkpt><trkpt lon="5.817254" lat="51.168927"><ele>22.6</ele><time>2022-05-22T09:53:47.000Z</time></trkpt><trkpt lon="5.817132" lat="51.168915"><ele>22.6</ele><time>2022-05-22T09:53:48.000Z</time></trkpt><trkpt lon="5.817009" lat="51.168907"><ele>22.8</ele><time>2022-05-22T09:53:49.000Z</time></trkpt><trkpt lon="5.816891" lat="51.1689"><ele>22.8</ele><time>2022-05-22T09:53:50.000Z</time></trkpt><trkpt lon="5.816774" lat="51.168888"><ele>22.6</ele><time>2022-05-22T09:53:51.000Z</time></trkpt><trkpt lon="5.816657" lat="51.168877"><ele>22.4</ele><time>2022-05-22T09:53:52.000Z</time></trkpt><trkpt lon="5.816538" lat="51.168869"><ele>22.4</ele><time>2022-05-22T09:53:53.000Z</time></trkpt><trkpt lon="5.81642" lat="51.168865"><ele>22.4</ele><time>2022-05-22T09:53:54.000Z</time></trkpt><trkpt lon="5.81632" lat="51.168862"><ele>22.4</ele><time>2022-05-22T09:53:55.000Z</time></trkpt><trkpt lon="5.816193" lat="51.168857"><ele>22.6</ele><time>2022-05-22T09:53:56.000Z</time></trkpt><trkpt lon="5.816056" lat="51.16885"><ele>22.4</ele><time>2022-05-22T09:53:57.000Z</time></trkpt><trkpt lon="5.815937" lat="51.168839"><ele>22.2</ele><time>2022-05-22T09:53:58.000Z</time></trkpt><trkpt lon="5.815816" lat="51.168828"><ele>22</ele><time>2022-05-22T09:53:59.000Z</time></trkpt><trkpt lon="5.815693" lat="51.168823"><ele>22</ele><time>2022-05-22T09:54:00.000Z</time></trkpt><trkpt lon="5.815572" lat="51.168816"><ele>21.8</ele><time>2022-05-22T09:54:01.000Z</time></trkpt><trkpt lon="5.81546" lat="51.168809"><ele>21.8</ele><time>2022-05-22T09:54:02.000Z</time></trkpt><trkpt lon="5.815333" lat="51.168797"><ele>21.8</ele><time>2022-05-22T09:54:03.000Z</time></trkpt><trkpt lon="5.81521" lat="51.168789"><ele>22</ele><time>2022-05-22T09:54:04.000Z</time></trkpt><trkpt lon="5.815092" lat="51.168782"><ele>22</ele><time>2022-05-22T09:54:05.000Z</time></trkpt><trkpt lon="5.814971" lat="51.16877"><ele>22.2</ele><time>2022-05-22T09:54:06.000Z</time></trkpt><trkpt lon="5.814851" lat="51.168762"><ele>22.2</ele><time>2022-05-22T09:54:07.000Z</time></trkpt><trkpt lon="5.814737" lat="51.168755"><ele>22.2</ele><time>2022-05-22T09:54:08.000Z</time></trkpt><trkpt lon="5.814618" lat="51.168743"><ele>22</ele><time>2022-05-22T09:54:09.000Z</time></trkpt><trkpt lon="5.814502" lat="51.168732"><ele>21.8</ele><time>2022-05-22T09:54:10.000Z</time></trkpt><trkpt lon="5.814384" lat="51.168717"><ele>21.8</ele><time>2022-05-22T09:54:11.000Z</time></trkpt><trkpt lon="5.814261" lat="51.168698"><ele>21.6</ele><time>2022-05-22T09:54:12.000Z</time></trkpt><trkpt lon="5.81414" lat="51.168679"><ele>21.6</ele><time>2022-05-22T09:54:13.000Z</time></trkpt><trkpt lon="5.814021" lat="51.168652"><ele>21.4</ele><time>2022-05-22T09:54:14.000Z</time></trkpt><trkpt lon="5.813906" lat="51.168622"><ele>21.2</ele><time>2022-05-22T09:54:15.000Z</time></trkpt><trkpt lon="5.813794" lat="51.168588"><ele>21</ele><time>2022-05-22T09:54:16.000Z</time></trkpt><trkpt lon="5.813683" lat="51.16855"><ele>20.8</ele><time>2022-05-22T09:54:17.000Z</time></trkpt><trkpt lon="5.813571" lat="51.168515"><ele>20.8</ele><time>2022-05-22T09:54:18.000Z</time></trkpt><trkpt lon="5.813464" lat="51.168481"><ele>20.8</ele><time>2022-05-22T09:54:19.000Z</time></trkpt><trkpt lon="5.813357" lat="51.168447"><ele>20.8</ele><time>2022-05-22T09:54:20.000Z</time></trkpt><trkpt lon="5.813248" lat="51.168416"><ele>20.8</ele><time>2022-05-22T09:54:21.000Z</time></trkpt><trkpt lon="5.813155" lat="51.168389"><ele>20.6</ele><time>2022-05-22T09:54:22.000Z</time></trkpt><trkpt lon="5.813043" lat="51.168359"><ele>20.6</ele><time>2022-05-22T09:54:23.000Z</time></trkpt><trkpt lon="5.812965" lat="51.168332"><ele>20.6</ele><time>2022-05-22T09:54:24.000Z</time></trkpt><trkpt lon="5.81288" lat="51.168306"><ele>20.8</ele><time>2022-05-22T09:54:25.000Z</time></trkpt><trkpt lon="5.812806" lat="51.168283"><ele>21</ele><time>2022-05-22T09:54:26.000Z</time></trkpt><trkpt lon="5.812725" lat="51.168256"><ele>21.2</ele><time>2022-05-22T09:54:27.000Z</time></trkpt><trkpt lon="5.812642" lat="51.168229"><ele>21.2</ele><time>2022-05-22T09:54:28.000Z</time></trkpt><trkpt lon="5.812549" lat="51.168202"><ele>21.4</ele><time>2022-05-22T09:54:29.000Z</time></trkpt><trkpt lon="5.812445" lat="51.168173"><ele>21.4</ele><time>2022-05-22T09:54:30.000Z</time></trkpt><trkpt lon="5.812328" lat="51.168145"><ele>21.4</ele><time>2022-05-22T09:54:31.000Z</time></trkpt><trkpt lon="5.812214" lat="51.168118"><ele>21.4</ele><time>2022-05-22T09:54:32.000Z</time></trkpt><trkpt lon="5.812105" lat="51.168096"><ele>21.6</ele><time>2022-05-22T09:54:33.000Z</time></trkpt><trkpt lon="5.811995" lat="51.168076"><ele>21.4</ele><time>2022-05-22T09:54:34.000Z</time></trkpt><trkpt lon="5.811896" lat="51.168061"><ele>21.6</ele><time>2022-05-22T09:54:35.000Z</time></trkpt><trkpt lon="5.811793" lat="51.168042"><ele>21.6</ele><time>2022-05-22T09:54:36.000Z</time></trkpt><trkpt lon="5.811684" lat="51.168019"><ele>21.8</ele><time>2022-05-22T09:54:37.000Z</time></trkpt><trkpt lon="5.811573" lat="51.167996"><ele>21.8</ele><time>2022-05-22T09:54:38.000Z</time></trkpt><trkpt lon="5.811462" lat="51.167973"><ele>21.8</ele><time>2022-05-22T09:54:39.000Z</time></trkpt><trkpt lon="5.811353" lat="51.167951"><ele>21.8</ele><time>2022-05-22T09:54:40.000Z</time></trkpt><trkpt lon="5.81124" lat="51.167927"><ele>21.8</ele><time>2022-05-22T09:54:41.000Z</time></trkpt><trkpt lon="5.811126" lat="51.167901"><ele>21.8</ele><time>2022-05-22T09:54:42.000Z</time></trkpt><trkpt lon="5.81101" lat="51.167878"><ele>21.8</ele><time>2022-05-22T09:54:43.000Z</time></trkpt><trkpt lon="5.810901" lat="51.167852"><ele>21.6</ele><time>2022-05-22T09:54:44.000Z</time></trkpt><trkpt lon="5.810789" lat="51.167832"><ele>21.6</ele><time>2022-05-22T09:54:45.000Z</time></trkpt><trkpt lon="5.81068" lat="51.167809"><ele>21.8</ele><time>2022-05-22T09:54:46.000Z</time></trkpt><trkpt lon="5.810574" lat="51.167787"><ele>21.8</ele><time>2022-05-22T09:54:47.000Z</time></trkpt><trkpt lon="5.810461" lat="51.167764"><ele>21.8</ele><time>2022-05-22T09:54:48.000Z</time></trkpt><trkpt lon="5.810351" lat="51.167741"><ele>21.8</ele><time>2022-05-22T09:54:49.000Z</time></trkpt><trkpt lon="5.810243" lat="51.167722"><ele>21.8</ele><time>2022-05-22T09:54:50.000Z</time></trkpt><trkpt lon="5.810128" lat="51.167699"><ele>22</ele><time>2022-05-22T09:54:51.000Z</time></trkpt><trkpt lon="5.810021" lat="51.167679"><ele>22</ele><time>2022-05-22T09:54:52.000Z</time></trkpt><trkpt lon="5.809918" lat="51.16766"><ele>22.2</ele><time>2022-05-22T09:54:53.000Z</time></trkpt><trkpt lon="5.809816" lat="51.167637"><ele>22.2</ele><time>2022-05-22T09:54:54.000Z</time></trkpt><trkpt lon="5.809719" lat="51.167611"><ele>22.2</ele><time>2022-05-22T09:54:55.000Z</time></trkpt><trkpt lon="5.809619" lat="51.167589"><ele>22.4</ele><time>2022-05-22T09:54:56.000Z</time></trkpt><trkpt lon="5.809516" lat="51.167561"><ele>22.4</ele><time>2022-05-22T09:54:57.000Z</time></trkpt><trkpt lon="5.809416" lat="51.167531"><ele>22.4</ele><time>2022-05-22T09:54:58.000Z</time></trkpt><trkpt lon="5.809315" lat="51.167493"><ele>22.4</ele><time>2022-05-22T09:54:59.000Z</time></trkpt><trkpt lon="5.809212" lat="51.167451"><ele>22.2</ele><time>2022-05-22T09:55:00.000Z</time></trkpt><trkpt lon="5.809113" lat="51.167413"><ele>22.4</ele><time>2022-05-22T09:55:01.000Z</time></trkpt><trkpt lon="5.80902" lat="51.167371"><ele>22.4</ele><time>2022-05-22T09:55:02.000Z</time></trkpt><trkpt lon="5.808929" lat="51.167329"><ele>22.4</ele><time>2022-05-22T09:55:03.000Z</time></trkpt><trkpt lon="5.808839" lat="51.167283"><ele>22.6</ele><time>2022-05-22T09:55:04.000Z</time></trkpt><trkpt lon="5.808753" lat="51.167238"><ele>22.6</ele><time>2022-05-22T09:55:05.000Z</time></trkpt><trkpt lon="5.808667" lat="51.167192"><ele>22.6</ele><time>2022-05-22T09:55:06.000Z</time></trkpt><trkpt lon="5.808579" lat="51.167146"><ele>22.6</ele><time>2022-05-22T09:55:07.000Z</time></trkpt><trkpt lon="5.808494" lat="51.167105"><ele>22.6</ele><time>2022-05-22T09:55:08.000Z</time></trkpt><trkpt lon="5.808406" lat="51.167059"><ele>22.6</ele><time>2022-05-22T09:55:09.000Z</time></trkpt><trkpt lon="5.808321" lat="51.167009"><ele>22.6</ele><time>2022-05-22T09:55:10.000Z</time></trkpt><trkpt lon="5.808238" lat="51.166959"><ele>22.6</ele><time>2022-05-22T09:55:11.000Z</time></trkpt><trkpt lon="5.808158" lat="51.166908"><ele>22.6</ele><time>2022-05-22T09:55:12.000Z</time></trkpt><trkpt lon="5.808072" lat="51.166853"><ele>22.6</ele><time>2022-05-22T09:55:13.000Z</time></trkpt><trkpt lon="5.807992" lat="51.1668"><ele>22.6</ele><time>2022-05-22T09:55:14.000Z</time></trkpt><trkpt lon="5.80791" lat="51.166742"><ele>22.4</ele><time>2022-05-22T09:55:15.000Z</time></trkpt><trkpt lon="5.807832" lat="51.166689"><ele>22.4</ele><time>2022-05-22T09:55:16.000Z</time></trkpt><trkpt lon="5.807753" lat="51.166636"><ele>22.4</ele><time>2022-05-22T09:55:17.000Z</time></trkpt><trkpt lon="5.807679" lat="51.166586"><ele>22.4</ele><time>2022-05-22T09:55:18.000Z</time></trkpt><trkpt lon="5.807609" lat="51.16654"><ele>22.4</ele><time>2022-05-22T09:55:19.000Z</time></trkpt><trkpt lon="5.807542" lat="51.166497"><ele>22.4</ele><time>2022-05-22T09:55:20.000Z</time></trkpt><trkpt lon="5.807473" lat="51.166453"><ele>22.4</ele><time>2022-05-22T09:55:21.000Z</time></trkpt><trkpt lon="5.807401" lat="51.166407"><ele>22.4</ele><time>2022-05-22T09:55:22.000Z</time></trkpt><trkpt lon="5.807322" lat="51.166356"><ele>22.2</ele><time>2022-05-22T09:55:23.000Z</time></trkpt><trkpt lon="5.807248" lat="51.166304"><ele>22.2</ele><time>2022-05-22T09:55:24.000Z</time></trkpt><trkpt lon="5.807171" lat="51.166255"><ele>22.2</ele><time>2022-05-22T09:55:25.000Z</time></trkpt><trkpt lon="5.807101" lat="51.166204"><ele>22.2</ele><time>2022-05-22T09:55:26.000Z</time></trkpt><trkpt lon="5.807014" lat="51.16614"><ele>22</ele><time>2022-05-22T09:55:27.000Z</time></trkpt><trkpt lon="5.806936" lat="51.166079"><ele>22</ele><time>2022-05-22T09:55:28.000Z</time></trkpt><trkpt lon="5.806859" lat="51.166025"><ele>22</ele><time>2022-05-22T09:55:29.000Z</time></trkpt><trkpt lon="5.806788" lat="51.165969"><ele>22</ele><time>2022-05-22T09:55:30.000Z</time></trkpt><trkpt lon="5.806717" lat="51.165911"><ele>21.8</ele><time>2022-05-22T09:55:31.000Z</time></trkpt><trkpt lon="5.806648" lat="51.165858"><ele>21.8</ele><time>2022-05-22T09:55:32.000Z</time></trkpt><trkpt lon="5.806581" lat="51.165809"><ele>21.6</ele><time>2022-05-22T09:55:33.000Z</time></trkpt><trkpt lon="5.806513" lat="51.165762"><ele>21.6</ele><time>2022-05-22T09:55:34.000Z</time></trkpt><trkpt lon="5.806459" lat="51.165717"><ele>21.6</ele><time>2022-05-22T09:55:35.000Z</time></trkpt><trkpt lon="5.8064" lat="51.165674"><ele>21.8</ele><time>2022-05-22T09:55:36.000Z</time></trkpt><trkpt lon="5.806343" lat="51.165628"><ele>21.8</ele><time>2022-05-22T09:55:37.000Z</time></trkpt><trkpt lon="5.806287" lat="51.165585"><ele>22</ele><time>2022-05-22T09:55:38.000Z</time></trkpt><trkpt lon="5.806222" lat="51.165529"><ele>22</ele><time>2022-05-22T09:55:39.000Z</time></trkpt><trkpt lon="5.806165" lat="51.165472"><ele>22</ele><time>2022-05-22T09:55:40.000Z</time></trkpt><trkpt lon="5.80611" lat="51.165415"><ele>22</ele><time>2022-05-22T09:55:41.000Z</time></trkpt><trkpt lon="5.806056" lat="51.165354"><ele>21.8</ele><time>2022-05-22T09:55:42.000Z</time></trkpt><trkpt lon="5.80599" lat="51.165285"><ele>21.6</ele><time>2022-05-22T09:55:43.000Z</time></trkpt><trkpt lon="5.805933" lat="51.165217"><ele>21.6</ele><time>2022-05-22T09:55:44.000Z</time></trkpt><trkpt lon="5.805875" lat="51.165154"><ele>21.8</ele><time>2022-05-22T09:55:45.000Z</time></trkpt><trkpt lon="5.80581" lat="51.165086"><ele>21.8</ele><time>2022-05-22T09:55:46.000Z</time></trkpt><trkpt lon="5.805745" lat="51.165026"><ele>21.8</ele><time>2022-05-22T09:55:47.000Z</time></trkpt><trkpt lon="5.805681" lat="51.164969"><ele>21.6</ele><time>2022-05-22T09:55:48.000Z</time></trkpt><trkpt lon="5.805617" lat="51.164908"><ele>21.6</ele><time>2022-05-22T09:55:49.000Z</time></trkpt><trkpt lon="5.805555" lat="51.16485"><ele>21.4</ele><time>2022-05-22T09:55:50.000Z</time></trkpt><trkpt lon="5.805497" lat="51.164793"><ele>21.6</ele><time>2022-05-22T09:55:51.000Z</time></trkpt><trkpt lon="5.805435" lat="51.164739"><ele>21.6</ele><time>2022-05-22T09:55:52.000Z</time></trkpt><trkpt lon="5.805376" lat="51.16469"><ele>21.6</ele><time>2022-05-22T09:55:53.000Z</time></trkpt><trkpt lon="5.805319" lat="51.16464"><ele>21.8</ele><time>2022-05-22T09:55:54.000Z</time></trkpt><trkpt lon="5.805262" lat="51.164595"><ele>21.8</ele><time>2022-05-22T09:55:55.000Z</time></trkpt><trkpt lon="5.805202" lat="51.16455"><ele>22</ele><time>2022-05-22T09:55:56.000Z</time></trkpt><trkpt lon="5.805127" lat="51.164506"><ele>22</ele><time>2022-05-22T09:55:57.000Z</time></trkpt><trkpt lon="5.805063" lat="51.164465"><ele>22.2</ele><time>2022-05-22T09:55:58.000Z</time></trkpt><trkpt lon="5.804995" lat="51.164426"><ele>22.2</ele><time>2022-05-22T09:55:59.000Z</time></trkpt><trkpt lon="5.804931" lat="51.164385"><ele>22.2</ele><time>2022-05-22T09:56:00.000Z</time></trkpt><trkpt lon="5.804866" lat="51.164346"><ele>22.2</ele><time>2022-05-22T09:56:01.000Z</time></trkpt><trkpt lon="5.804805" lat="51.164309"><ele>22.4</ele><time>2022-05-22T09:56:02.000Z</time></trkpt><trkpt lon="5.804744" lat="51.164273"><ele>22.6</ele><time>2022-05-22T09:56:03.000Z</time></trkpt><trkpt lon="5.804683" lat="51.164235"><ele>22.6</ele><time>2022-05-22T09:56:04.000Z</time></trkpt><trkpt lon="5.804623" lat="51.164195"><ele>22.6</ele><time>2022-05-22T09:56:05.000Z</time></trkpt><trkpt lon="5.804562" lat="51.164155"><ele>22.6</ele><time>2022-05-22T09:56:06.000Z</time></trkpt><trkpt lon="5.8045" lat="51.164117"><ele>22.6</ele><time>2022-05-22T09:56:07.000Z</time></trkpt><trkpt lon="5.804436" lat="51.164075"><ele>22.4</ele><time>2022-05-22T09:56:08.000Z</time></trkpt><trkpt lon="5.804374" lat="51.164037"><ele>22.4</ele><time>2022-05-22T09:56:09.000Z</time></trkpt><trkpt lon="5.804311" lat="51.163999"><ele>22.4</ele><time>2022-05-22T09:56:10.000Z</time></trkpt><trkpt lon="5.804251" lat="51.163964"><ele>22.4</ele><time>2022-05-22T09:56:11.000Z</time></trkpt><trkpt lon="5.80419" lat="51.163926"><ele>22.6</ele><time>2022-05-22T09:56:12.000Z</time></trkpt><trkpt lon="5.804133" lat="51.163892"><ele>22.6</ele><time>2022-05-22T09:56:13.000Z</time></trkpt><trkpt lon="5.804082" lat="51.163858"><ele>22.6</ele><time>2022-05-22T09:56:14.000Z</time></trkpt><trkpt lon="5.804028" lat="51.163825"><ele>22.4</ele><time>2022-05-22T09:56:15.000Z</time></trkpt><trkpt lon="5.803968" lat="51.163781"><ele>22.4</ele><time>2022-05-22T09:56:16.000Z</time></trkpt><trkpt lon="5.803913" lat="51.16374"><ele>22.4</ele><time>2022-05-22T09:56:17.000Z</time></trkpt><trkpt lon="5.803855" lat="51.163699"><ele>22.4</ele><time>2022-05-22T09:56:18.000Z</time></trkpt><trkpt lon="5.803796" lat="51.163659"><ele>22.4</ele><time>2022-05-22T09:56:19.000Z</time></trkpt><trkpt lon="5.803742" lat="51.163622"><ele>22.6</ele><time>2022-05-22T09:56:20.000Z</time></trkpt><trkpt lon="5.803685" lat="51.163583"><ele>22.6</ele><time>2022-05-22T09:56:21.000Z</time></trkpt><trkpt lon="5.803629" lat="51.163548"><ele>22.4</ele><time>2022-05-22T09:56:22.000Z</time></trkpt><trkpt lon="5.803581" lat="51.16351"><ele>22.4</ele><time>2022-05-22T09:56:23.000Z</time></trkpt><trkpt lon="5.803537" lat="51.163476"><ele>22.4</ele><time>2022-05-22T09:56:24.000Z</time></trkpt><trkpt lon="5.803488" lat="51.163435"><ele>22.6</ele><time>2022-05-22T09:56:25.000Z</time></trkpt><trkpt lon="5.803445" lat="51.163397"><ele>22.6</ele><time>2022-05-22T09:56:26.000Z</time></trkpt><trkpt lon="5.803396" lat="51.163347"><ele>22.6</ele><time>2022-05-22T09:56:27.000Z</time></trkpt><trkpt lon="5.803361" lat="51.163301"><ele>22.6</ele><time>2022-05-22T09:56:28.000Z</time></trkpt><trkpt lon="5.80334" lat="51.163254"><ele>22.6</ele><time>2022-05-22T09:56:29.000Z</time></trkpt><trkpt lon="5.803324" lat="51.163199"><ele>22.4</ele><time>2022-05-22T09:56:30.000Z</time></trkpt><trkpt lon="5.803309" lat="51.163141"><ele>22.4</ele><time>2022-05-22T09:56:31.000Z</time></trkpt><trkpt lon="5.803289" lat="51.163087"><ele>22.4</ele><time>2022-05-22T09:56:32.000Z</time></trkpt><trkpt lon="5.803259" lat="51.163034"><ele>22.4</ele><time>2022-05-22T09:56:33.000Z</time></trkpt><trkpt lon="5.803232" lat="51.162984"><ele>22.4</ele><time>2022-05-22T09:56:34.000Z</time></trkpt><trkpt lon="5.803209" lat="51.162935"><ele>22.4</ele><time>2022-05-22T09:56:35.000Z</time></trkpt><trkpt lon="5.803178" lat="51.162881"><ele>22.4</ele><time>2022-05-22T09:56:36.000Z</time></trkpt><trkpt lon="5.803146" lat="51.162825"><ele>22.2</ele><time>2022-05-22T09:56:37.000Z</time></trkpt><trkpt lon="5.80311" lat="51.162769"><ele>22.2</ele><time>2022-05-22T09:56:38.000Z</time></trkpt><trkpt lon="5.80307" lat="51.162707"><ele>22.2</ele><time>2022-05-22T09:56:39.000Z</time></trkpt><trkpt lon="5.80303" lat="51.162649"><ele>22.2</ele><time>2022-05-22T09:56:40.000Z</time></trkpt><trkpt lon="5.802994" lat="51.162592"><ele>22.2</ele><time>2022-05-22T09:56:41.000Z</time></trkpt><trkpt lon="5.802974" lat="51.162542"><ele>22.2</ele><time>2022-05-22T09:56:42.000Z</time></trkpt><trkpt lon="5.802973" lat="51.162492"><ele>22.2</ele><time>2022-05-22T09:56:43.000Z</time></trkpt><trkpt lon="5.802999" lat="51.162454"><ele>22.2</ele><time>2022-05-22T09:56:44.000Z</time></trkpt><trkpt lon="5.803051" lat="51.16242"><ele>22</ele><time>2022-05-22T09:56:45.000Z</time></trkpt><trkpt lon="5.803119" lat="51.162385"><ele>21.8</ele><time>2022-05-22T09:56:46.000Z</time></trkpt><trkpt lon="5.8032" lat="51.162343"><ele>21.6</ele><time>2022-05-22T09:56:47.000Z</time></trkpt><trkpt lon="5.80328" lat="51.162301"><ele>21</ele><time>2022-05-22T09:56:48.000Z</time></trkpt><trkpt lon="5.803362" lat="51.162251"><ele>20.6</ele><time>2022-05-22T09:56:49.000Z</time></trkpt><trkpt lon="5.803444" lat="51.162206"><ele>20.6</ele><time>2022-05-22T09:56:50.000Z</time></trkpt><trkpt lon="5.803526" lat="51.162156"><ele>20.6</ele><time>2022-05-22T09:56:51.000Z</time></trkpt><trkpt lon="5.80361" lat="51.162114"><ele>20.4</ele><time>2022-05-22T09:56:52.000Z</time></trkpt><trkpt lon="5.803705" lat="51.162069"><ele>20.2</ele><time>2022-05-22T09:56:53.000Z</time></trkpt><trkpt lon="5.803807" lat="51.162034"><ele>20.2</ele><time>2022-05-22T09:56:54.000Z</time></trkpt><trkpt lon="5.803906" lat="51.161997"><ele>20.2</ele><time>2022-05-22T09:56:55.000Z</time></trkpt><trkpt lon="5.804009" lat="51.161958"><ele>20.2</ele><time>2022-05-22T09:56:56.000Z</time></trkpt><trkpt lon="5.804104" lat="51.161916"><ele>20.2</ele><time>2022-05-22T09:56:57.000Z</time></trkpt><trkpt lon="5.804191" lat="51.161866"><ele>20.2</ele><time>2022-05-22T09:56:58.000Z</time></trkpt><trkpt lon="5.804269" lat="51.161814"><ele>20.2</ele><time>2022-05-22T09:56:59.000Z</time></trkpt><trkpt lon="5.804345" lat="51.16176"><ele>20.4</ele><time>2022-05-22T09:57:00.000Z</time></trkpt><trkpt lon="5.804414" lat="51.161711"><ele>20.6</ele><time>2022-05-22T09:57:01.000Z</time></trkpt><trkpt lon="5.804483" lat="51.161661"><ele>20.8</ele><time>2022-05-22T09:57:02.000Z</time></trkpt><trkpt lon="5.804553" lat="51.161611"><ele>20.8</ele><time>2022-05-22T09:57:03.000Z</time></trkpt><trkpt lon="5.804625" lat="51.161561"><ele>21</ele><time>2022-05-22T09:57:04.000Z</time></trkpt><trkpt lon="5.804695" lat="51.161513"><ele>21</ele><time>2022-05-22T09:57:05.000Z</time></trkpt><trkpt lon="5.804767" lat="51.161458"><ele>21</ele><time>2022-05-22T09:57:06.000Z</time></trkpt><trkpt lon="5.804827" lat="51.161414"><ele>20.8</ele><time>2022-05-22T09:57:07.000Z</time></trkpt><trkpt lon="5.80489" lat="51.161363"><ele>21</ele><time>2022-05-22T09:57:08.000Z</time></trkpt><trkpt lon="5.804953" lat="51.161314"><ele>20.8</ele><time>2022-05-22T09:57:09.000Z</time></trkpt><trkpt lon="5.805021" lat="51.161264"><ele>20.8</ele><time>2022-05-22T09:57:10.000Z</time></trkpt><trkpt lon="5.805088" lat="51.161214"><ele>20.8</ele><time>2022-05-22T09:57:11.000Z</time></trkpt><trkpt lon="5.805156" lat="51.161165"><ele>20.8</ele><time>2022-05-22T09:57:12.000Z</time></trkpt><trkpt lon="5.805222" lat="51.161115"><ele>21</ele><time>2022-05-22T09:57:13.000Z</time></trkpt><trkpt lon="5.805284" lat="51.161069"><ele>21.2</ele><time>2022-05-22T09:57:14.000Z</time></trkpt><trkpt lon="5.805343" lat="51.161025"><ele>21.4</ele><time>2022-05-22T09:57:15.000Z</time></trkpt><trkpt lon="5.805407" lat="51.160981"><ele>21.4</ele><time>2022-05-22T09:57:16.000Z</time></trkpt><trkpt lon="5.805462" lat="51.160936"><ele>21.6</ele><time>2022-05-22T09:57:17.000Z</time></trkpt><trkpt lon="5.805505" lat="51.160894"><ele>21.8</ele><time>2022-05-22T09:57:18.000Z</time></trkpt><trkpt lon="5.805505" lat="51.160848"><ele>21.8</ele><time>2022-05-22T09:57:19.000Z</time></trkpt><trkpt lon="5.805479" lat="51.160809"><ele>22</ele><time>2022-05-22T09:57:20.000Z</time></trkpt><trkpt lon="5.805441" lat="51.160781"><ele>21.8</ele><time>2022-05-22T09:57:21.000Z</time></trkpt><trkpt lon="5.805374" lat="51.160745"><ele>21.8</ele><time>2022-05-22T09:57:22.000Z</time></trkpt><trkpt lon="5.805307" lat="51.160716"><ele>21.8</ele><time>2022-05-22T09:57:23.000Z</time></trkpt><trkpt lon="5.805237" lat="51.160684"><ele>22</ele><time>2022-05-22T09:57:24.000Z</time></trkpt><trkpt lon="5.80517" lat="51.160654"><ele>22.2</ele><time>2022-05-22T09:57:25.000Z</time></trkpt><trkpt lon="5.805104" lat="51.160623"><ele>22.2</ele><time>2022-05-22T09:57:26.000Z</time></trkpt><trkpt lon="5.805042" lat="51.160588"><ele>22.2</ele><time>2022-05-22T09:57:27.000Z</time></trkpt><trkpt lon="5.804976" lat="51.160554"><ele>22</ele><time>2022-05-22T09:57:28.000Z</time></trkpt><trkpt lon="5.804909" lat="51.160516"><ele>22</ele><time>2022-05-22T09:57:29.000Z</time></trkpt><trkpt lon="5.804842" lat="51.160478"><ele>21.8</ele><time>2022-05-22T09:57:30.000Z</time></trkpt><trkpt lon="5.804774" lat="51.160436"><ele>21.8</ele><time>2022-05-22T09:57:31.000Z</time></trkpt><trkpt lon="5.804705" lat="51.160398"><ele>21.6</ele><time>2022-05-22T09:57:32.000Z</time></trkpt><trkpt lon="5.804631" lat="51.160371"><ele>21.6</ele><time>2022-05-22T09:57:33.000Z</time></trkpt><trkpt lon="5.804556" lat="51.160337"><ele>21.6</ele><time>2022-05-22T09:57:34.000Z</time></trkpt><trkpt lon="5.804481" lat="51.160306"><ele>21.4</ele><time>2022-05-22T09:57:35.000Z</time></trkpt><trkpt lon="5.804416" lat="51.160276"><ele>21.4</ele><time>2022-05-22T09:57:36.000Z</time></trkpt><trkpt lon="5.804357" lat="51.160245"><ele>21.2</ele><time>2022-05-22T09:57:37.000Z</time></trkpt><trkpt lon="5.804287" lat="51.160211"><ele>21.2</ele><time>2022-05-22T09:57:38.000Z</time></trkpt><trkpt lon="5.804191" lat="51.160166"><ele>21.2</ele><time>2022-05-22T09:57:39.000Z</time></trkpt><trkpt lon="5.804066" lat="51.160112"><ele>21.4</ele><time>2022-05-22T09:57:40.000Z</time></trkpt><trkpt lon="5.803946" lat="51.160059"><ele>21.4</ele><time>2022-05-22T09:57:41.000Z</time></trkpt><trkpt lon="5.803866" lat="51.160017"><ele>21.4</ele><time>2022-05-22T09:57:42.000Z</time></trkpt><trkpt lon="5.803774" lat="51.159971"><ele>21.4</ele><time>2022-05-22T09:57:43.000Z</time></trkpt><trkpt lon="5.803694" lat="51.159932"><ele>21.6</ele><time>2022-05-22T09:57:44.000Z</time></trkpt><trkpt lon="5.80361" lat="51.159891"><ele>21.4</ele><time>2022-05-22T09:57:45.000Z</time></trkpt><trkpt lon="5.803529" lat="51.159849"><ele>21.4</ele><time>2022-05-22T09:57:46.000Z</time></trkpt><trkpt lon="5.803444" lat="51.159803"><ele>21.6</ele><time>2022-05-22T09:57:47.000Z</time></trkpt><trkpt lon="5.803358" lat="51.159754"><ele>21.8</ele><time>2022-05-22T09:57:48.000Z</time></trkpt><trkpt lon="5.803263" lat="51.159704"><ele>21.6</ele><time>2022-05-22T09:57:49.000Z</time></trkpt><trkpt lon="5.803165" lat="51.159651"><ele>21.4</ele><time>2022-05-22T09:57:50.000Z</time></trkpt><trkpt lon="5.803065" lat="51.15959"><ele>21.6</ele><time>2022-05-22T09:57:51.000Z</time></trkpt><trkpt lon="5.802964" lat="51.159526"><ele>21.6</ele><time>2022-05-22T09:57:52.000Z</time></trkpt><trkpt lon="5.802852" lat="51.159449"><ele>21.6</ele><time>2022-05-22T09:57:53.000Z</time></trkpt><trkpt lon="5.802707" lat="51.159367"><ele>21.6</ele><time>2022-05-22T09:57:54.000Z</time></trkpt><trkpt lon="5.802587" lat="51.159293"><ele>21.6</ele><time>2022-05-22T09:57:55.000Z</time></trkpt><trkpt lon="5.802483" lat="51.159228"><ele>21.6</ele><time>2022-05-22T09:57:56.000Z</time></trkpt><trkpt lon="5.802379" lat="51.159162"><ele>21.6</ele><time>2022-05-22T09:57:57.000Z</time></trkpt><trkpt lon="5.802268" lat="51.159088"><ele>21.6</ele><time>2022-05-22T09:57:58.000Z</time></trkpt><trkpt lon="5.802165" lat="51.159018"><ele>21.6</ele><time>2022-05-22T09:57:59.000Z</time></trkpt><trkpt lon="5.802076" lat="51.15896"><ele>21.8</ele><time>2022-05-22T09:58:00.000Z</time></trkpt><trkpt lon="5.801989" lat="51.1589"><ele>22</ele><time>2022-05-22T09:58:01.000Z</time></trkpt><trkpt lon="5.801896" lat="51.158842"><ele>22</ele><time>2022-05-22T09:58:02.000Z</time></trkpt><trkpt lon="5.801814" lat="51.158788"><ele>22</ele><time>2022-05-22T09:58:03.000Z</time></trkpt><trkpt lon="5.801727" lat="51.158724"><ele>22</ele><time>2022-05-22T09:58:04.000Z</time></trkpt><trkpt lon="5.801644" lat="51.158666"><ele>22</ele><time>2022-05-22T09:58:05.000Z</time></trkpt><trkpt lon="5.801561" lat="51.158609"><ele>21.8</ele><time>2022-05-22T09:58:06.000Z</time></trkpt><trkpt lon="5.80148" lat="51.15855"><ele>21.6</ele><time>2022-05-22T09:58:07.000Z</time></trkpt><trkpt lon="5.801396" lat="51.158491"><ele>21.6</ele><time>2022-05-22T09:58:08.000Z</time></trkpt><trkpt lon="5.801316" lat="51.158435"><ele>21.6</ele><time>2022-05-22T09:58:09.000Z</time></trkpt><trkpt lon="5.801233" lat="51.158377"><ele>21.6</ele><time>2022-05-22T09:58:10.000Z</time></trkpt><trkpt lon="5.801152" lat="51.15832"><ele>21.8</ele><time>2022-05-22T09:58:11.000Z</time></trkpt><trkpt lon="5.801071" lat="51.158263"><ele>21.8</ele><time>2022-05-22T09:58:12.000Z</time></trkpt><trkpt lon="5.80099" lat="51.158205"><ele>21.8</ele><time>2022-05-22T09:58:13.000Z</time></trkpt><trkpt lon="5.800909" lat="51.158151"><ele>21.8</ele><time>2022-05-22T09:58:14.000Z</time></trkpt><trkpt lon="5.800829" lat="51.158098"><ele>21.8</ele><time>2022-05-22T09:58:15.000Z</time></trkpt><trkpt lon="5.800751" lat="51.158045"><ele>21.8</ele><time>2022-05-22T09:58:16.000Z</time></trkpt><trkpt lon="5.800673" lat="51.157991"><ele>22</ele><time>2022-05-22T09:58:17.000Z</time></trkpt><trkpt lon="5.800596" lat="51.157938"><ele>22</ele><time>2022-05-22T09:58:18.000Z</time></trkpt><trkpt lon="5.800518" lat="51.157881"><ele>22</ele><time>2022-05-22T09:58:19.000Z</time></trkpt><trkpt lon="5.800436" lat="51.157827"><ele>22</ele><time>2022-05-22T09:58:20.000Z</time></trkpt><trkpt lon="5.800357" lat="51.157774"><ele>21.8</ele><time>2022-05-22T09:58:21.000Z</time></trkpt><trkpt lon="5.80028" lat="51.157721"><ele>22</ele><time>2022-05-22T09:58:22.000Z</time></trkpt><trkpt lon="5.800204" lat="51.157671"><ele>22</ele><time>2022-05-22T09:58:23.000Z</time></trkpt><trkpt lon="5.800129" lat="51.157617"><ele>22</ele><time>2022-05-22T09:58:24.000Z</time></trkpt><trkpt lon="5.800055" lat="51.157565"><ele>22</ele><time>2022-05-22T09:58:25.000Z</time></trkpt><trkpt lon="5.799977" lat="51.157514"><ele>22</ele><time>2022-05-22T09:58:26.000Z</time></trkpt><trkpt lon="5.799899" lat="51.157461"><ele>22</ele><time>2022-05-22T09:58:27.000Z</time></trkpt><trkpt lon="5.799821" lat="51.157407"><ele>22</ele><time>2022-05-22T09:58:28.000Z</time></trkpt><trkpt lon="5.799745" lat="51.157351"><ele>22</ele><time>2022-05-22T09:58:29.000Z</time></trkpt><trkpt lon="5.799669" lat="51.157297"><ele>22</ele><time>2022-05-22T09:58:30.000Z</time></trkpt><trkpt lon="5.799595" lat="51.157244"><ele>22</ele><time>2022-05-22T09:58:31.000Z</time></trkpt><trkpt lon="5.799521" lat="51.15719"><ele>22</ele><time>2022-05-22T09:58:32.000Z</time></trkpt><trkpt lon="5.799448" lat="51.157137"><ele>21.8</ele><time>2022-05-22T09:58:33.000Z</time></trkpt><trkpt lon="5.799372" lat="51.15708"><ele>21.8</ele><time>2022-05-22T09:58:34.000Z</time></trkpt><trkpt lon="5.799298" lat="51.157026"><ele>21.8</ele><time>2022-05-22T09:58:35.000Z</time></trkpt><trkpt lon="5.799223" lat="51.156973"><ele>21.8</ele><time>2022-05-22T09:58:36.000Z</time></trkpt><trkpt lon="5.799149" lat="51.156919"><ele>21.6</ele><time>2022-05-22T09:58:37.000Z</time></trkpt><trkpt lon="5.799078" lat="51.156867"><ele>21.8</ele><time>2022-05-22T09:58:38.000Z</time></trkpt><trkpt lon="5.799002" lat="51.156813"><ele>21.8</ele><time>2022-05-22T09:58:39.000Z</time></trkpt><trkpt lon="5.798927" lat="51.156759"><ele>21.8</ele><time>2022-05-22T09:58:40.000Z</time></trkpt><trkpt lon="5.798852" lat="51.156706"><ele>21.8</ele><time>2022-05-22T09:58:41.000Z</time></trkpt><trkpt lon="5.798775" lat="51.156649"><ele>21.6</ele><time>2022-05-22T09:58:42.000Z</time></trkpt><trkpt lon="5.798694" lat="51.156595"><ele>21.4</ele><time>2022-05-22T09:58:43.000Z</time></trkpt><trkpt lon="5.79861" lat="51.156545"><ele>21.4</ele><time>2022-05-22T09:58:44.000Z</time></trkpt><trkpt lon="5.798523" lat="51.1565"><ele>21.2</ele><time>2022-05-22T09:58:45.000Z</time></trkpt><trkpt lon="5.798426" lat="51.156457"><ele>21.2</ele><time>2022-05-22T09:58:46.000Z</time></trkpt><trkpt lon="5.798334" lat="51.156416"><ele>21</ele><time>2022-05-22T09:58:47.000Z</time></trkpt><trkpt lon="5.79824" lat="51.156378"><ele>21</ele><time>2022-05-22T09:58:48.000Z</time></trkpt><trkpt lon="5.798145" lat="51.156343"><ele>21</ele><time>2022-05-22T09:58:49.000Z</time></trkpt><trkpt lon="5.798045" lat="51.156308"><ele>21</ele><time>2022-05-22T09:58:50.000Z</time></trkpt><trkpt lon="5.797937" lat="51.156278"><ele>21.2</ele><time>2022-05-22T09:58:51.000Z</time></trkpt><trkpt lon="5.797826" lat="51.156258"><ele>21.2</ele><time>2022-05-22T09:58:52.000Z</time></trkpt><trkpt lon="5.797714" lat="51.156239"><ele>21.2</ele><time>2022-05-22T09:58:53.000Z</time></trkpt><trkpt lon="5.7976" lat="51.156224"><ele>21.2</ele><time>2022-05-22T09:58:54.000Z</time></trkpt><trkpt lon="5.797488" lat="51.156208"><ele>21.2</ele><time>2022-05-22T09:58:55.000Z</time></trkpt><trkpt lon="5.797376" lat="51.156189"><ele>21.2</ele><time>2022-05-22T09:58:56.000Z</time></trkpt><trkpt lon="5.797265" lat="51.156174"><ele>21.2</ele><time>2022-05-22T09:58:57.000Z</time></trkpt><trkpt lon="5.797154" lat="51.156159"><ele>21.2</ele><time>2022-05-22T09:58:58.000Z</time></trkpt><trkpt lon="5.797045" lat="51.156144"><ele>21.2</ele><time>2022-05-22T09:58:59.000Z</time></trkpt><trkpt lon="5.796931" lat="51.156128"><ele>21.2</ele><time>2022-05-22T09:59:00.000Z</time></trkpt><trkpt lon="5.796818" lat="51.156113"><ele>21.2</ele><time>2022-05-22T09:59:01.000Z</time></trkpt><trkpt lon="5.796706" lat="51.156095"><ele>21.4</ele><time>2022-05-22T09:59:02.000Z</time></trkpt><trkpt lon="5.796591" lat="51.156079"><ele>21.4</ele><time>2022-05-22T09:59:03.000Z</time></trkpt><trkpt lon="5.796479" lat="51.15606"><ele>21.4</ele><time>2022-05-22T09:59:04.000Z</time></trkpt><trkpt lon="5.796367" lat="51.156041"><ele>21.4</ele><time>2022-05-22T09:59:05.000Z</time></trkpt><trkpt lon="5.796253" lat="51.156026"><ele>21.4</ele><time>2022-05-22T09:59:06.000Z</time></trkpt><trkpt lon="5.796137" lat="51.15601"><ele>21.4</ele><time>2022-05-22T09:59:07.000Z</time></trkpt><trkpt lon="5.796024" lat="51.155995"><ele>21.4</ele><time>2022-05-22T09:59:08.000Z</time></trkpt><trkpt lon="5.795912" lat="51.15598"><ele>21.4</ele><time>2022-05-22T09:59:09.000Z</time></trkpt><trkpt lon="5.795799" lat="51.155965"><ele>21.4</ele><time>2022-05-22T09:59:10.000Z</time></trkpt><trkpt lon="5.795681" lat="51.155953"><ele>21.4</ele><time>2022-05-22T09:59:11.000Z</time></trkpt><trkpt lon="5.795563" lat="51.155945"><ele>21.2</ele><time>2022-05-22T09:59:12.000Z</time></trkpt><trkpt lon="5.795447" lat="51.155941"><ele>21.2</ele><time>2022-05-22T09:59:13.000Z</time></trkpt><trkpt lon="5.795325" lat="51.155937"><ele>21.2</ele><time>2022-05-22T09:59:14.000Z</time></trkpt><trkpt lon="5.795209" lat="51.155937"><ele>21.2</ele><time>2022-05-22T09:59:15.000Z</time></trkpt><trkpt lon="5.795088" lat="51.155934"><ele>21.2</ele><time>2022-05-22T09:59:16.000Z</time></trkpt><trkpt lon="5.794966" lat="51.155933"><ele>21.2</ele><time>2022-05-22T09:59:17.000Z</time></trkpt><trkpt lon="5.794847" lat="51.155933"><ele>21.2</ele><time>2022-05-22T09:59:18.000Z</time></trkpt><trkpt lon="5.794733" lat="51.155933"><ele>21</ele><time>2022-05-22T09:59:19.000Z</time></trkpt><trkpt lon="5.794608" lat="51.15593"><ele>21</ele><time>2022-05-22T09:59:20.000Z</time></trkpt><trkpt lon="5.79449" lat="51.15593"><ele>21</ele><time>2022-05-22T09:59:21.000Z</time></trkpt><trkpt lon="5.794371" lat="51.15593"><ele>21</ele><time>2022-05-22T09:59:22.000Z</time></trkpt><trkpt lon="5.794254" lat="51.155926"><ele>21.2</ele><time>2022-05-22T09:59:23.000Z</time></trkpt><trkpt lon="5.794134" lat="51.155922"><ele>21.4</ele><time>2022-05-22T09:59:24.000Z</time></trkpt><trkpt lon="5.794023" lat="51.155919"><ele>21.4</ele><time>2022-05-22T09:59:25.000Z</time></trkpt><trkpt lon="5.793896" lat="51.155918"><ele>21.4</ele><time>2022-05-22T09:59:26.000Z</time></trkpt><trkpt lon="5.793781" lat="51.155914"><ele>21.4</ele><time>2022-05-22T09:59:27.000Z</time></trkpt><trkpt lon="5.793663" lat="51.155911"><ele>21.6</ele><time>2022-05-22T09:59:28.000Z</time></trkpt><trkpt lon="5.793546" lat="51.155907"><ele>21.4</ele><time>2022-05-22T09:59:29.000Z</time></trkpt><trkpt lon="5.79343" lat="51.155903"><ele>21.4</ele><time>2022-05-22T09:59:30.000Z</time></trkpt><trkpt lon="5.793311" lat="51.155895"><ele>21.4</ele><time>2022-05-22T09:59:31.000Z</time></trkpt><trkpt lon="5.793198" lat="51.155884"><ele>21.2</ele><time>2022-05-22T09:59:32.000Z</time></trkpt><trkpt lon="5.793082" lat="51.155873"><ele>21.4</ele><time>2022-05-22T09:59:33.000Z</time></trkpt><trkpt lon="5.792969" lat="51.155854"><ele>21.6</ele><time>2022-05-22T09:59:34.000Z</time></trkpt><trkpt lon="5.792859" lat="51.155828"><ele>21.8</ele><time>2022-05-22T09:59:35.000Z</time></trkpt><trkpt lon="5.79275" lat="51.155797"><ele>21.8</ele><time>2022-05-22T09:59:36.000Z</time></trkpt><trkpt lon="5.792646" lat="51.155763"><ele>21.8</ele><time>2022-05-22T09:59:37.000Z</time></trkpt><trkpt lon="5.792541" lat="51.155721"><ele>21.8</ele><time>2022-05-22T09:59:38.000Z</time></trkpt><trkpt lon="5.792437" lat="51.155676"><ele>21.6</ele><time>2022-05-22T09:59:39.000Z</time></trkpt><trkpt lon="5.792334" lat="51.15563"><ele>21.4</ele><time>2022-05-22T09:59:40.000Z</time></trkpt><trkpt lon="5.792235" lat="51.155585"><ele>21</ele><time>2022-05-22T09:59:41.000Z</time></trkpt><trkpt lon="5.792135" lat="51.155538"><ele>21</ele><time>2022-05-22T09:59:42.000Z</time></trkpt><trkpt lon="5.792036" lat="51.155493"><ele>20.8</ele><time>2022-05-22T09:59:43.000Z</time></trkpt><trkpt lon="5.791938" lat="51.155447"><ele>20.8</ele><time>2022-05-22T09:59:44.000Z</time></trkpt><trkpt lon="5.791843" lat="51.155405"><ele>20.8</ele><time>2022-05-22T09:59:45.000Z</time></trkpt><trkpt lon="5.791749" lat="51.155359"><ele>20.8</ele><time>2022-05-22T09:59:46.000Z</time></trkpt><trkpt lon="5.791655" lat="51.155313"><ele>20.8</ele><time>2022-05-22T09:59:47.000Z</time></trkpt><trkpt lon="5.791566" lat="51.155264"><ele>21</ele><time>2022-05-22T09:59:48.000Z</time></trkpt><trkpt lon="5.791473" lat="51.155218"><ele>21.2</ele><time>2022-05-22T09:59:49.000Z</time></trkpt><trkpt lon="5.791385" lat="51.155168"><ele>21.4</ele><time>2022-05-22T09:59:50.000Z</time></trkpt><trkpt lon="5.791299" lat="51.155116"><ele>21.4</ele><time>2022-05-22T09:59:51.000Z</time></trkpt><trkpt lon="5.791218" lat="51.155059"><ele>21.2</ele><time>2022-05-22T09:59:52.000Z</time></trkpt><trkpt lon="5.791143" lat="51.154997"><ele>21.2</ele><time>2022-05-22T09:59:53.000Z</time></trkpt><trkpt lon="5.791074" lat="51.15494"><ele>21.2</ele><time>2022-05-22T09:59:54.000Z</time></trkpt><trkpt lon="5.791011" lat="51.154882"><ele>21.2</ele><time>2022-05-22T09:59:55.000Z</time></trkpt><trkpt lon="5.790943" lat="51.154814"><ele>21.2</ele><time>2022-05-22T09:59:56.000Z</time></trkpt><trkpt lon="5.790879" lat="51.154749"><ele>21.2</ele><time>2022-05-22T09:59:57.000Z</time></trkpt><trkpt lon="5.790812" lat="51.154688"><ele>21.2</ele><time>2022-05-22T09:59:58.000Z</time></trkpt><trkpt lon="5.790743" lat="51.154631"><ele>21.2</ele><time>2022-05-22T09:59:59.000Z</time></trkpt><trkpt lon="5.79067" lat="51.154575"><ele>21.2</ele><time>2022-05-22T10:00:00.000Z</time></trkpt><trkpt lon="5.790593" lat="51.154513"><ele>21.2</ele><time>2022-05-22T10:00:01.000Z</time></trkpt><trkpt lon="5.790518" lat="51.154457"><ele>21.2</ele><time>2022-05-22T10:00:02.000Z</time></trkpt><trkpt lon="5.790439" lat="51.154403"><ele>21.4</ele><time>2022-05-22T10:00:03.000Z</time></trkpt><trkpt lon="5.790362" lat="51.154349"><ele>21.6</ele><time>2022-05-22T10:00:04.000Z</time></trkpt><trkpt lon="5.790285" lat="51.154293"><ele>21.6</ele><time>2022-05-22T10:00:05.000Z</time></trkpt><trkpt lon="5.790207" lat="51.154238"><ele>21.8</ele><time>2022-05-22T10:00:06.000Z</time></trkpt><trkpt lon="5.79013" lat="51.154181"><ele>21.8</ele><time>2022-05-22T10:00:07.000Z</time></trkpt><trkpt lon="5.790053" lat="51.154129"><ele>22</ele><time>2022-05-22T10:00:08.000Z</time></trkpt><trkpt lon="5.789973" lat="51.15407"><ele>22.2</ele><time>2022-05-22T10:00:09.000Z</time></trkpt><trkpt lon="5.789895" lat="51.154017"><ele>22</ele><time>2022-05-22T10:00:10.000Z</time></trkpt><trkpt lon="5.789816" lat="51.153959"><ele>22.2</ele><time>2022-05-22T10:00:11.000Z</time></trkpt><trkpt lon="5.789736" lat="51.153902"><ele>22</ele><time>2022-05-22T10:00:12.000Z</time></trkpt><trkpt lon="5.789657" lat="51.153849"><ele>22</ele><time>2022-05-22T10:00:13.000Z</time></trkpt><trkpt lon="5.789578" lat="51.153792"><ele>22</ele><time>2022-05-22T10:00:14.000Z</time></trkpt><trkpt lon="5.789498" lat="51.153738"><ele>21.8</ele><time>2022-05-22T10:00:15.000Z</time></trkpt><trkpt lon="5.78942" lat="51.153682"><ele>21.8</ele><time>2022-05-22T10:00:16.000Z</time></trkpt><trkpt lon="5.789339" lat="51.153627"><ele>21.8</ele><time>2022-05-22T10:00:17.000Z</time></trkpt><trkpt lon="5.789266" lat="51.153574"><ele>21.8</ele><time>2022-05-22T10:00:18.000Z</time></trkpt><trkpt lon="5.789192" lat="51.15352"><ele>21.8</ele><time>2022-05-22T10:00:19.000Z</time></trkpt><trkpt lon="5.789118" lat="51.153471"><ele>22</ele><time>2022-05-22T10:00:20.000Z</time></trkpt><trkpt lon="5.789039" lat="51.153418"><ele>22.2</ele><time>2022-05-22T10:00:21.000Z</time></trkpt><trkpt lon="5.788958" lat="51.153361"><ele>22.2</ele><time>2022-05-22T10:00:22.000Z</time></trkpt><trkpt lon="5.788878" lat="51.153307"><ele>22.4</ele><time>2022-05-22T10:00:23.000Z</time></trkpt><trkpt lon="5.7888" lat="51.153252"><ele>22.4</ele><time>2022-05-22T10:00:24.000Z</time></trkpt><trkpt lon="5.788726" lat="51.153201"><ele>22.6</ele><time>2022-05-22T10:00:25.000Z</time></trkpt><trkpt lon="5.78864" lat="51.153143"><ele>22.6</ele><time>2022-05-22T10:00:26.000Z</time></trkpt><trkpt lon="5.78856" lat="51.153089"><ele>22.8</ele><time>2022-05-22T10:00:27.000Z</time></trkpt><trkpt lon="5.78848" lat="51.153035"><ele>22.8</ele><time>2022-05-22T10:00:28.000Z</time></trkpt><trkpt lon="5.788403" lat="51.152982"><ele>22.8</ele><time>2022-05-22T10:00:29.000Z</time></trkpt><trkpt lon="5.788321" lat="51.152929"><ele>22.8</ele><time>2022-05-22T10:00:30.000Z</time></trkpt><trkpt lon="5.788238" lat="51.152879"><ele>22.6</ele><time>2022-05-22T10:00:31.000Z</time></trkpt><trkpt lon="5.788152" lat="51.152833"><ele>22.6</ele><time>2022-05-22T10:00:32.000Z</time></trkpt><trkpt lon="5.788061" lat="51.152784"><ele>22.6</ele><time>2022-05-22T10:00:33.000Z</time></trkpt><trkpt lon="5.787971" lat="51.152738"><ele>22.6</ele><time>2022-05-22T10:00:34.000Z</time></trkpt><trkpt lon="5.787878" lat="51.152696"><ele>22.6</ele><time>2022-05-22T10:00:35.000Z</time></trkpt><trkpt lon="5.787787" lat="51.152655"><ele>22.6</ele><time>2022-05-22T10:00:36.000Z</time></trkpt><trkpt lon="5.787694" lat="51.152614"><ele>22.6</ele><time>2022-05-22T10:00:37.000Z</time></trkpt><trkpt lon="5.787594" lat="51.15257"><ele>22.8</ele><time>2022-05-22T10:00:38.000Z</time></trkpt><trkpt lon="5.7875" lat="51.152532"><ele>22.6</ele><time>2022-05-22T10:00:39.000Z</time></trkpt><trkpt lon="5.787403" lat="51.15249"><ele>22.6</ele><time>2022-05-22T10:00:40.000Z</time></trkpt><trkpt lon="5.787311" lat="51.152449"><ele>22.8</ele><time>2022-05-22T10:00:41.000Z</time></trkpt><trkpt lon="5.787223" lat="51.152408"><ele>22.8</ele><time>2022-05-22T10:00:42.000Z</time></trkpt><trkpt lon="5.787131" lat="51.152361"><ele>22.8</ele><time>2022-05-22T10:00:43.000Z</time></trkpt><trkpt lon="5.787046" lat="51.152315"><ele>22.8</ele><time>2022-05-22T10:00:44.000Z</time></trkpt><trkpt lon="5.786968" lat="51.152266"><ele>23</ele><time>2022-05-22T10:00:45.000Z</time></trkpt><trkpt lon="5.786895" lat="51.152213"><ele>23.2</ele><time>2022-05-22T10:00:46.000Z</time></trkpt><trkpt lon="5.786829" lat="51.152159"><ele>23.2</ele><time>2022-05-22T10:00:47.000Z</time></trkpt><trkpt lon="5.786765" lat="51.152101"><ele>23.4</ele><time>2022-05-22T10:00:48.000Z</time></trkpt><trkpt lon="5.786705" lat="51.152041"><ele>23.4</ele><time>2022-05-22T10:00:49.000Z</time></trkpt><trkpt lon="5.786646" lat="51.151983"><ele>23.4</ele><time>2022-05-22T10:00:50.000Z</time></trkpt><trkpt lon="5.786589" lat="51.151919"><ele>23.4</ele><time>2022-05-22T10:00:51.000Z</time></trkpt><trkpt lon="5.786533" lat="51.151861"><ele>23.6</ele><time>2022-05-22T10:00:52.000Z</time></trkpt><trkpt lon="5.786474" lat="51.151797"><ele>23.6</ele><time>2022-05-22T10:00:53.000Z</time></trkpt><trkpt lon="5.786417" lat="51.151737"><ele>23.6</ele><time>2022-05-22T10:00:54.000Z</time></trkpt><trkpt lon="5.786366" lat="51.151678"><ele>23.8</ele><time>2022-05-22T10:00:55.000Z</time></trkpt><trkpt lon="5.786307" lat="51.151606"><ele>23.8</ele><time>2022-05-22T10:00:56.000Z</time></trkpt><trkpt lon="5.786252" lat="51.151541"><ele>23.8</ele><time>2022-05-22T10:00:57.000Z</time></trkpt><trkpt lon="5.786193" lat="51.15148"><ele>23.8</ele><time>2022-05-22T10:00:58.000Z</time></trkpt><trkpt lon="5.786134" lat="51.151415"><ele>24</ele><time>2022-05-22T10:00:59.000Z</time></trkpt><trkpt lon="5.786075" lat="51.15135"><ele>24</ele><time>2022-05-22T10:01:00.000Z</time></trkpt><trkpt lon="5.786015" lat="51.151286"><ele>24</ele><time>2022-05-22T10:01:01.000Z</time></trkpt><trkpt lon="5.785953" lat="51.151225"><ele>24</ele><time>2022-05-22T10:01:02.000Z</time></trkpt><trkpt lon="5.785883" lat="51.151169"><ele>24</ele><time>2022-05-22T10:01:03.000Z</time></trkpt><trkpt lon="5.785809" lat="51.15111"><ele>24</ele><time>2022-05-22T10:01:04.000Z</time></trkpt><trkpt lon="5.78574" lat="51.151054"><ele>24</ele><time>2022-05-22T10:01:05.000Z</time></trkpt><trkpt lon="5.785668" lat="51.150992"><ele>24.2</ele><time>2022-05-22T10:01:06.000Z</time></trkpt><trkpt lon="5.785598" lat="51.150931"><ele>24.2</ele><time>2022-05-22T10:01:07.000Z</time></trkpt><trkpt lon="5.785527" lat="51.150874"><ele>24.2</ele><time>2022-05-22T10:01:08.000Z</time></trkpt><trkpt lon="5.785453" lat="51.150813"><ele>24.2</ele><time>2022-05-22T10:01:09.000Z</time></trkpt><trkpt lon="5.785378" lat="51.150755"><ele>24.4</ele><time>2022-05-22T10:01:10.000Z</time></trkpt><trkpt lon="5.785305" lat="51.150695"><ele>24.4</ele><time>2022-05-22T10:01:11.000Z</time></trkpt><trkpt lon="5.785231" lat="51.150638"><ele>24.4</ele><time>2022-05-22T10:01:12.000Z</time></trkpt><trkpt lon="5.785157" lat="51.150581"><ele>24.4</ele><time>2022-05-22T10:01:13.000Z</time></trkpt><trkpt lon="5.785086" lat="51.150526"><ele>24.4</ele><time>2022-05-22T10:01:14.000Z</time></trkpt><trkpt lon="5.785003" lat="51.150465"><ele>24.4</ele><time>2022-05-22T10:01:15.000Z</time></trkpt><trkpt lon="5.784926" lat="51.150408"><ele>24.4</ele><time>2022-05-22T10:01:16.000Z</time></trkpt><trkpt lon="5.78485" lat="51.150351"><ele>24.4</ele><time>2022-05-22T10:01:17.000Z</time></trkpt><trkpt lon="5.784773" lat="51.15029"><ele>24.4</ele><time>2022-05-22T10:01:18.000Z</time></trkpt><trkpt lon="5.784697" lat="51.150234"><ele>24.4</ele><time>2022-05-22T10:01:19.000Z</time></trkpt><trkpt lon="5.78462" lat="51.150175"><ele>24.2</ele><time>2022-05-22T10:01:20.000Z</time></trkpt><trkpt lon="5.784544" lat="51.150118"><ele>24.2</ele><time>2022-05-22T10:01:21.000Z</time></trkpt><trkpt lon="5.78447" lat="51.150063"><ele>24.2</ele><time>2022-05-22T10:01:22.000Z</time></trkpt><trkpt lon="5.784388" lat="51.150004"><ele>24</ele><time>2022-05-22T10:01:23.000Z</time></trkpt><trkpt lon="5.784308" lat="51.149943"><ele>24</ele><time>2022-05-22T10:01:24.000Z</time></trkpt><trkpt lon="5.784237" lat="51.149887"><ele>24.2</ele><time>2022-05-22T10:01:25.000Z</time></trkpt><trkpt lon="5.784149" lat="51.149824"><ele>24.2</ele><time>2022-05-22T10:01:26.000Z</time></trkpt><trkpt lon="5.784072" lat="51.149767"><ele>24.2</ele><time>2022-05-22T10:01:27.000Z</time></trkpt><trkpt lon="5.783994" lat="51.149709"><ele>24.2</ele><time>2022-05-22T10:01:28.000Z</time></trkpt><trkpt lon="5.783916" lat="51.149653"><ele>24.2</ele><time>2022-05-22T10:01:29.000Z</time></trkpt><trkpt lon="5.78384" lat="51.149596"><ele>24.2</ele><time>2022-05-22T10:01:30.000Z</time></trkpt><trkpt lon="5.783763" lat="51.149538"><ele>24</ele><time>2022-05-22T10:01:31.000Z</time></trkpt><trkpt lon="5.783687" lat="51.149483"><ele>23.8</ele><time>2022-05-22T10:01:32.000Z</time></trkpt><trkpt lon="5.783604" lat="51.149423"><ele>23.8</ele><time>2022-05-22T10:01:33.000Z</time></trkpt><trkpt lon="5.783523" lat="51.14937"><ele>23.8</ele><time>2022-05-22T10:01:34.000Z</time></trkpt><trkpt lon="5.783438" lat="51.149314"><ele>23.8</ele><time>2022-05-22T10:01:35.000Z</time></trkpt><trkpt lon="5.783347" lat="51.14926"><ele>23.8</ele><time>2022-05-22T10:01:36.000Z</time></trkpt><trkpt lon="5.783257" lat="51.14921"><ele>23.8</ele><time>2022-05-22T10:01:37.000Z</time></trkpt><trkpt lon="5.783165" lat="51.149157"><ele>23.8</ele><time>2022-05-22T10:01:38.000Z</time></trkpt><trkpt lon="5.783074" lat="51.149107"><ele>24</ele><time>2022-05-22T10:01:39.000Z</time></trkpt><trkpt lon="5.782988" lat="51.149059"><ele>24</ele><time>2022-05-22T10:01:40.000Z</time></trkpt><trkpt lon="5.782896" lat="51.149008"><ele>24</ele><time>2022-05-22T10:01:41.000Z</time></trkpt><trkpt lon="5.782809" lat="51.148959"><ele>24</ele><time>2022-05-22T10:01:42.000Z</time></trkpt><trkpt lon="5.782723" lat="51.148909"><ele>24</ele><time>2022-05-22T10:01:43.000Z</time></trkpt><trkpt lon="5.782639" lat="51.148863"><ele>24.2</ele><time>2022-05-22T10:01:44.000Z</time></trkpt><trkpt lon="5.782552" lat="51.148814"><ele>24.2</ele><time>2022-05-22T10:01:45.000Z</time></trkpt><trkpt lon="5.782468" lat="51.148762"><ele>24.2</ele><time>2022-05-22T10:01:46.000Z</time></trkpt><trkpt lon="5.782381" lat="51.148712"><ele>24.4</ele><time>2022-05-22T10:01:47.000Z</time></trkpt><trkpt lon="5.782293" lat="51.148661"><ele>24.2</ele><time>2022-05-22T10:01:48.000Z</time></trkpt><trkpt lon="5.782205" lat="51.148608"><ele>24.2</ele><time>2022-05-22T10:01:49.000Z</time></trkpt><trkpt lon="5.78212" lat="51.148558"><ele>24.2</ele><time>2022-05-22T10:01:50.000Z</time></trkpt><trkpt lon="5.782034" lat="51.148505"><ele>24</ele><time>2022-05-22T10:01:51.000Z</time></trkpt><trkpt lon="5.781947" lat="51.148455"><ele>24</ele><time>2022-05-22T10:01:52.000Z</time></trkpt><trkpt lon="5.78186" lat="51.148405"><ele>24</ele><time>2022-05-22T10:01:53.000Z</time></trkpt><trkpt lon="5.781774" lat="51.148352"><ele>24</ele><time>2022-05-22T10:01:54.000Z</time></trkpt><trkpt lon="5.781709" lat="51.148314"><ele>24</ele><time>2022-05-22T10:01:55.000Z</time></trkpt><trkpt lon="5.781604" lat="51.14825"><ele>23.8</ele><time>2022-05-22T10:01:56.000Z</time></trkpt><trkpt lon="5.781518" lat="51.148199"><ele>23.8</ele><time>2022-05-22T10:01:57.000Z</time></trkpt><trkpt lon="5.781434" lat="51.148149"><ele>23.8</ele><time>2022-05-22T10:01:58.000Z</time></trkpt><trkpt lon="5.781352" lat="51.1481"><ele>23.8</ele><time>2022-05-22T10:01:59.000Z</time></trkpt><trkpt lon="5.781268" lat="51.14805"><ele>23.8</ele><time>2022-05-22T10:02:00.000Z</time></trkpt><trkpt lon="5.781186" lat="51.147997"><ele>24</ele><time>2022-05-22T10:02:01.000Z</time></trkpt><trkpt lon="5.781103" lat="51.147951"><ele>24</ele><time>2022-05-22T10:02:02.000Z</time></trkpt><trkpt lon="5.781024" lat="51.147902"><ele>24.2</ele><time>2022-05-22T10:02:03.000Z</time></trkpt><trkpt lon="5.780946" lat="51.147857"><ele>24.2</ele><time>2022-05-22T10:02:04.000Z</time></trkpt><trkpt lon="5.780872" lat="51.147815"><ele>24.4</ele><time>2022-05-22T10:02:05.000Z</time></trkpt><trkpt lon="5.780797" lat="51.147772"><ele>24.4</ele><time>2022-05-22T10:02:06.000Z</time></trkpt><trkpt lon="5.78072" lat="51.147726"><ele>24.6</ele><time>2022-05-22T10:02:07.000Z</time></trkpt><trkpt lon="5.780643" lat="51.14768"><ele>24.6</ele><time>2022-05-22T10:02:08.000Z</time></trkpt><trkpt lon="5.780568" lat="51.147635"><ele>24.6</ele><time>2022-05-22T10:02:09.000Z</time></trkpt><trkpt lon="5.780493" lat="51.14759"><ele>24.8</ele><time>2022-05-22T10:02:10.000Z</time></trkpt><trkpt lon="5.780416" lat="51.147547"><ele>24.8</ele><time>2022-05-22T10:02:11.000Z</time></trkpt><trkpt lon="5.780342" lat="51.147503"><ele>24.8</ele><time>2022-05-22T10:02:12.000Z</time></trkpt><trkpt lon="5.780259" lat="51.147456"><ele>24.8</ele><time>2022-05-22T10:02:13.000Z</time></trkpt><trkpt lon="5.780192" lat="51.147418"><ele>24.8</ele><time>2022-05-22T10:02:14.000Z</time></trkpt><trkpt lon="5.780099" lat="51.147369"><ele>24.8</ele><time>2022-05-22T10:02:15.000Z</time></trkpt><trkpt lon="5.780017" lat="51.147326"><ele>24.8</ele><time>2022-05-22T10:02:16.000Z</time></trkpt><trkpt lon="5.779935" lat="51.147284"><ele>24.8</ele><time>2022-05-22T10:02:17.000Z</time></trkpt><trkpt lon="5.77985" lat="51.147245"><ele>24.8</ele><time>2022-05-22T10:02:18.000Z</time></trkpt><trkpt lon="5.77977" lat="51.147204"><ele>24.8</ele><time>2022-05-22T10:02:19.000Z</time></trkpt><trkpt lon="5.779686" lat="51.147162"><ele>24.8</ele><time>2022-05-22T10:02:20.000Z</time></trkpt><trkpt lon="5.779599" lat="51.147115"><ele>24.8</ele><time>2022-05-22T10:02:21.000Z</time></trkpt><trkpt lon="5.779513" lat="51.147071"><ele>24.6</ele><time>2022-05-22T10:02:22.000Z</time></trkpt><trkpt lon="5.779419" lat="51.14702"><ele>24.6</ele><time>2022-05-22T10:02:23.000Z</time></trkpt><trkpt lon="5.779323" lat="51.146971"><ele>24.6</ele><time>2022-05-22T10:02:24.000Z</time></trkpt><trkpt lon="5.77923" lat="51.146924"><ele>24.6</ele><time>2022-05-22T10:02:25.000Z</time></trkpt><trkpt lon="5.779121" lat="51.146871"><ele>24.6</ele><time>2022-05-22T10:02:26.000Z</time></trkpt><trkpt lon="5.779012" lat="51.146825"><ele>24.4</ele><time>2022-05-22T10:02:27.000Z</time></trkpt><trkpt lon="5.778895" lat="51.146787"><ele>24.4</ele><time>2022-05-22T10:02:28.000Z</time></trkpt><trkpt lon="5.778769" lat="51.14676"><ele>24.2</ele><time>2022-05-22T10:02:29.000Z</time></trkpt><trkpt lon="5.778646" lat="51.146738"><ele>24.2</ele><time>2022-05-22T10:02:30.000Z</time></trkpt><trkpt lon="5.778513" lat="51.146714"><ele>24</ele><time>2022-05-22T10:02:31.000Z</time></trkpt><trkpt lon="5.778382" lat="51.146699"><ele>23.8</ele><time>2022-05-22T10:02:32.000Z</time></trkpt><trkpt lon="5.778254" lat="51.146676"><ele>23.6</ele><time>2022-05-22T10:02:33.000Z</time></trkpt><trkpt lon="5.778128" lat="51.146657"><ele>23.6</ele><time>2022-05-22T10:02:34.000Z</time></trkpt><trkpt lon="5.778004" lat="51.146638"><ele>23.6</ele><time>2022-05-22T10:02:35.000Z</time></trkpt><trkpt lon="5.777877" lat="51.146619"><ele>23.4</ele><time>2022-05-22T10:02:36.000Z</time></trkpt><trkpt lon="5.777748" lat="51.146596"><ele>23.4</ele><time>2022-05-22T10:02:37.000Z</time></trkpt><trkpt lon="5.777625" lat="51.146577"><ele>23.4</ele><time>2022-05-22T10:02:38.000Z</time></trkpt><trkpt lon="5.777502" lat="51.146554"><ele>23.4</ele><time>2022-05-22T10:02:39.000Z</time></trkpt><trkpt lon="5.777379" lat="51.146535"><ele>23.4</ele><time>2022-05-22T10:02:40.000Z</time></trkpt><trkpt lon="5.777257" lat="51.146516"><ele>23.2</ele><time>2022-05-22T10:02:41.000Z</time></trkpt><trkpt lon="5.777142" lat="51.146501"><ele>23.4</ele><time>2022-05-22T10:02:42.000Z</time></trkpt><trkpt lon="5.777021" lat="51.146478"><ele>23.4</ele><time>2022-05-22T10:02:43.000Z</time></trkpt><trkpt lon="5.776904" lat="51.146458"><ele>23.4</ele><time>2022-05-22T10:02:44.000Z</time></trkpt><trkpt lon="5.776788" lat="51.14644"><ele>23.4</ele><time>2022-05-22T10:02:45.000Z</time></trkpt><trkpt lon="5.776674" lat="51.146421"><ele>23.6</ele><time>2022-05-22T10:02:46.000Z</time></trkpt><trkpt lon="5.776561" lat="51.146401"><ele>23.6</ele><time>2022-05-22T10:02:47.000Z</time></trkpt><trkpt lon="5.776452" lat="51.146382"><ele>23.6</ele><time>2022-05-22T10:02:48.000Z</time></trkpt><trkpt lon="5.776341" lat="51.146363"><ele>23.6</ele><time>2022-05-22T10:02:49.000Z</time></trkpt><trkpt lon="5.776232" lat="51.146344"><ele>23.6</ele><time>2022-05-22T10:02:50.000Z</time></trkpt><trkpt lon="5.776124" lat="51.146328"><ele>23.6</ele><time>2022-05-22T10:02:51.000Z</time></trkpt><trkpt lon="5.776018" lat="51.146307"><ele>23.6</ele><time>2022-05-22T10:02:52.000Z</time></trkpt><trkpt lon="5.775902" lat="51.14629"><ele>23.6</ele><time>2022-05-22T10:02:53.000Z</time></trkpt><trkpt lon="5.775791" lat="51.146271"><ele>23.6</ele><time>2022-05-22T10:02:54.000Z</time></trkpt><trkpt lon="5.775682" lat="51.146253"><ele>23.8</ele><time>2022-05-22T10:02:55.000Z</time></trkpt><trkpt lon="5.775575" lat="51.146237"><ele>23.8</ele><time>2022-05-22T10:02:56.000Z</time></trkpt><trkpt lon="5.775462" lat="51.146218"><ele>24</ele><time>2022-05-22T10:02:57.000Z</time></trkpt><trkpt lon="5.775356" lat="51.146203"><ele>24</ele><time>2022-05-22T10:02:58.000Z</time></trkpt><trkpt lon="5.775247" lat="51.146184"><ele>24</ele><time>2022-05-22T10:02:59.000Z</time></trkpt><trkpt lon="5.775146" lat="51.146169"><ele>24</ele><time>2022-05-22T10:03:00.000Z</time></trkpt><trkpt lon="5.775032" lat="51.146149"><ele>24</ele><time>2022-05-22T10:03:01.000Z</time></trkpt><trkpt lon="5.774929" lat="51.146134"><ele>24</ele><time>2022-05-22T10:03:02.000Z</time></trkpt><trkpt lon="5.774817" lat="51.146119"><ele>23.8</ele><time>2022-05-22T10:03:03.000Z</time></trkpt><trkpt lon="5.774711" lat="51.146104"><ele>23.8</ele><time>2022-05-22T10:03:04.000Z</time></trkpt><trkpt lon="5.774599" lat="51.146085"><ele>23.8</ele><time>2022-05-22T10:03:05.000Z</time></trkpt><trkpt lon="5.774493" lat="51.146069"><ele>24</ele><time>2022-05-22T10:03:06.000Z</time></trkpt><trkpt lon="5.774384" lat="51.14605"><ele>24</ele><time>2022-05-22T10:03:07.000Z</time></trkpt><trkpt lon="5.774278" lat="51.146031"><ele>24</ele><time>2022-05-22T10:03:08.000Z</time></trkpt><trkpt lon="5.774178" lat="51.146015"><ele>24</ele><time>2022-05-22T10:03:09.000Z</time></trkpt><trkpt lon="5.774083" lat="51.145997"><ele>24</ele><time>2022-05-22T10:03:10.000Z</time></trkpt><trkpt lon="5.773983" lat="51.145978"><ele>23.8</ele><time>2022-05-22T10:03:11.000Z</time></trkpt><trkpt lon="5.773891" lat="51.145963"><ele>24</ele><time>2022-05-22T10:03:12.000Z</time></trkpt><trkpt lon="5.7738" lat="51.14594"><ele>24</ele><time>2022-05-22T10:03:13.000Z</time></trkpt><trkpt lon="5.77372" lat="51.145914"><ele>24</ele><time>2022-05-22T10:03:14.000Z</time></trkpt><trkpt lon="5.773641" lat="51.145879"><ele>24</ele><time>2022-05-22T10:03:15.000Z</time></trkpt><trkpt lon="5.773576" lat="51.14583"><ele>24</ele><time>2022-05-22T10:03:16.000Z</time></trkpt><trkpt lon="5.773518" lat="51.145777"><ele>24</ele><time>2022-05-22T10:03:17.000Z</time></trkpt><trkpt lon="5.773465" lat="51.145714"><ele>24</ele><time>2022-05-22T10:03:18.000Z</time></trkpt><trkpt lon="5.773415" lat="51.145647"><ele>24</ele><time>2022-05-22T10:03:19.000Z</time></trkpt><trkpt lon="5.773364" lat="51.14558"><ele>24.2</ele><time>2022-05-22T10:03:20.000Z</time></trkpt><trkpt lon="5.773313" lat="51.14551"><ele>24.2</ele><time>2022-05-22T10:03:21.000Z</time></trkpt><trkpt lon="5.773263" lat="51.145442"><ele>24.2</ele><time>2022-05-22T10:03:22.000Z</time></trkpt><trkpt lon="5.773214" lat="51.145377"><ele>24.2</ele><time>2022-05-22T10:03:23.000Z</time></trkpt><trkpt lon="5.773168" lat="51.145313"><ele>24.2</ele><time>2022-05-22T10:03:24.000Z</time></trkpt><trkpt lon="5.773121" lat="51.145249"><ele>24.2</ele><time>2022-05-22T10:03:25.000Z</time></trkpt><trkpt lon="5.773075" lat="51.145184"><ele>24.2</ele><time>2022-05-22T10:03:26.000Z</time></trkpt><trkpt lon="5.773029" lat="51.145118"><ele>24.2</ele><time>2022-05-22T10:03:27.000Z</time></trkpt><trkpt lon="5.772984" lat="51.145054"><ele>24</ele><time>2022-05-22T10:03:28.000Z</time></trkpt><trkpt lon="5.772937" lat="51.144991"><ele>24</ele><time>2022-05-22T10:03:29.000Z</time></trkpt><trkpt lon="5.77289" lat="51.144927"><ele>24</ele><time>2022-05-22T10:03:30.000Z</time></trkpt><trkpt lon="5.772846" lat="51.144862"><ele>24</ele><time>2022-05-22T10:03:31.000Z</time></trkpt><trkpt lon="5.7728" lat="51.144797"><ele>24</ele><time>2022-05-22T10:03:32.000Z</time></trkpt><trkpt lon="5.772751" lat="51.144728"><ele>24</ele><time>2022-05-22T10:03:33.000Z</time></trkpt><trkpt lon="5.772706" lat="51.144668"><ele>24</ele><time>2022-05-22T10:03:34.000Z</time></trkpt><trkpt lon="5.772661" lat="51.144602"><ele>24</ele><time>2022-05-22T10:03:35.000Z</time></trkpt><trkpt lon="5.772617" lat="51.144539"><ele>23.8</ele><time>2022-05-22T10:03:36.000Z</time></trkpt><trkpt lon="5.772573" lat="51.144477"><ele>23.8</ele><time>2022-05-22T10:03:37.000Z</time></trkpt><trkpt lon="5.772532" lat="51.144418"><ele>23.8</ele><time>2022-05-22T10:03:38.000Z</time></trkpt><trkpt lon="5.772488" lat="51.144358"><ele>23.8</ele><time>2022-05-22T10:03:39.000Z</time></trkpt><trkpt lon="5.772455" lat="51.144304"><ele>23.8</ele><time>2022-05-22T10:03:40.000Z</time></trkpt><trkpt lon="5.772418" lat="51.144248"><ele>23.6</ele><time>2022-05-22T10:03:41.000Z</time></trkpt><trkpt lon="5.772389" lat="51.144204"><ele>23.6</ele><time>2022-05-22T10:03:42.000Z</time></trkpt><trkpt lon="5.772363" lat="51.144163"><ele>23.6</ele><time>2022-05-22T10:03:43.000Z</time></trkpt><trkpt lon="5.772336" lat="51.144126"><ele>23.6</ele><time>2022-05-22T10:03:44.000Z</time></trkpt><trkpt lon="5.772309" lat="51.14409"><ele>23.6</ele><time>2022-05-22T10:03:45.000Z</time></trkpt><trkpt lon="5.772286" lat="51.144059"><ele>23.6</ele><time>2022-05-22T10:03:46.000Z</time></trkpt><trkpt lon="5.77226" lat="51.14403"><ele>23.6</ele><time>2022-05-22T10:03:47.000Z</time></trkpt><trkpt lon="5.772228" lat="51.144002"><ele>23.6</ele><time>2022-05-22T10:03:48.000Z</time></trkpt><trkpt lon="5.772186" lat="51.14399"><ele>23.8</ele><time>2022-05-22T10:03:49.000Z</time></trkpt><trkpt lon="5.772131" lat="51.14399"><ele>23.8</ele><time>2022-05-22T10:03:50.000Z</time></trkpt><trkpt lon="5.772055" lat="51.143993"><ele>23.8</ele><time>2022-05-22T10:03:51.000Z</time></trkpt><trkpt lon="5.771966" lat="51.143997"><ele>23.8</ele><time>2022-05-22T10:03:52.000Z</time></trkpt><trkpt lon="5.771871" lat="51.144004"><ele>23.8</ele><time>2022-05-22T10:03:53.000Z</time></trkpt><trkpt lon="5.771762" lat="51.144009"><ele>23.8</ele><time>2022-05-22T10:03:54.000Z</time></trkpt><trkpt lon="5.771651" lat="51.144012"><ele>23.8</ele><time>2022-05-22T10:03:55.000Z</time></trkpt><trkpt lon="5.771522" lat="51.14402"><ele>23.8</ele><time>2022-05-22T10:03:56.000Z</time></trkpt><trkpt lon="5.771398" lat="51.144024"><ele>23.8</ele><time>2022-05-22T10:03:57.000Z</time></trkpt><trkpt lon="5.771273" lat="51.144031"><ele>23.8</ele><time>2022-05-22T10:03:58.000Z</time></trkpt><trkpt lon="5.771157" lat="51.144042"><ele>23.8</ele><time>2022-05-22T10:03:59.000Z</time></trkpt><trkpt lon="5.771031" lat="51.14405"><ele>23.8</ele><time>2022-05-22T10:04:00.000Z</time></trkpt><trkpt lon="5.770914" lat="51.144058"><ele>23.8</ele><time>2022-05-22T10:04:01.000Z</time></trkpt><trkpt lon="5.770796" lat="51.144065"><ele>23.8</ele><time>2022-05-22T10:04:02.000Z</time></trkpt><trkpt lon="5.770681" lat="51.144073"><ele>23.8</ele><time>2022-05-22T10:04:03.000Z</time></trkpt><trkpt lon="5.770564" lat="51.144077"><ele>23.8</ele><time>2022-05-22T10:04:04.000Z</time></trkpt><trkpt lon="5.770452" lat="51.144084"><ele>23.8</ele><time>2022-05-22T10:04:05.000Z</time></trkpt><trkpt lon="5.770339" lat="51.144092"><ele>23.6</ele><time>2022-05-22T10:04:06.000Z</time></trkpt><trkpt lon="5.77023" lat="51.1441"><ele>23.6</ele><time>2022-05-22T10:04:07.000Z</time></trkpt><trkpt lon="5.770115" lat="51.144104"><ele>23.6</ele><time>2022-05-22T10:04:08.000Z</time></trkpt><trkpt lon="5.770007" lat="51.144111"><ele>23.6</ele><time>2022-05-22T10:04:09.000Z</time></trkpt><trkpt lon="5.769893" lat="51.144115"><ele>23.6</ele><time>2022-05-22T10:04:10.000Z</time></trkpt><trkpt lon="5.769789" lat="51.144122"><ele>23.6</ele><time>2022-05-22T10:04:11.000Z</time></trkpt><trkpt lon="5.769668" lat="51.14413"><ele>23.8</ele><time>2022-05-22T10:04:12.000Z</time></trkpt><trkpt lon="5.769549" lat="51.144138"><ele>23.8</ele><time>2022-05-22T10:04:13.000Z</time></trkpt><trkpt lon="5.76943" lat="51.144149"><ele>23.8</ele><time>2022-05-22T10:04:14.000Z</time></trkpt><trkpt lon="5.769315" lat="51.144153"><ele>23.8</ele><time>2022-05-22T10:04:15.000Z</time></trkpt><trkpt lon="5.769194" lat="51.144161"><ele>23.6</ele><time>2022-05-22T10:04:16.000Z</time></trkpt><trkpt lon="5.769074" lat="51.144165"><ele>23.6</ele><time>2022-05-22T10:04:17.000Z</time></trkpt><trkpt lon="5.768951" lat="51.144176"><ele>23.8</ele><time>2022-05-22T10:04:18.000Z</time></trkpt><trkpt lon="5.768841" lat="51.14418"><ele>23.8</ele><time>2022-05-22T10:04:19.000Z</time></trkpt><trkpt lon="5.768713" lat="51.144188"><ele>23.8</ele><time>2022-05-22T10:04:20.000Z</time></trkpt><trkpt lon="5.768594" lat="51.144195"><ele>23.8</ele><time>2022-05-22T10:04:21.000Z</time></trkpt><trkpt lon="5.768479" lat="51.144203"><ele>23.8</ele><time>2022-05-22T10:04:22.000Z</time></trkpt><trkpt lon="5.768364" lat="51.144207"><ele>23.8</ele><time>2022-05-22T10:04:23.000Z</time></trkpt><trkpt lon="5.768246" lat="51.144214"><ele>23.8</ele><time>2022-05-22T10:04:24.000Z</time></trkpt><trkpt lon="5.768132" lat="51.144222"><ele>23.8</ele><time>2022-05-22T10:04:25.000Z</time></trkpt><trkpt lon="5.768012" lat="51.14423"><ele>23.8</ele><time>2022-05-22T10:04:26.000Z</time></trkpt><trkpt lon="5.767895" lat="51.144234"><ele>23.8</ele><time>2022-05-22T10:04:27.000Z</time></trkpt><trkpt lon="5.767774" lat="51.144245"><ele>23.8</ele><time>2022-05-22T10:04:28.000Z</time></trkpt><trkpt lon="5.76766" lat="51.144249"><ele>23.8</ele><time>2022-05-22T10:04:29.000Z</time></trkpt><trkpt lon="5.767538" lat="51.144256"><ele>23.8</ele><time>2022-05-22T10:04:30.000Z</time></trkpt><trkpt lon="5.767419" lat="51.144264"><ele>23.8</ele><time>2022-05-22T10:04:31.000Z</time></trkpt><trkpt lon="5.7673" lat="51.144272"><ele>23.8</ele><time>2022-05-22T10:04:32.000Z</time></trkpt><trkpt lon="5.767188" lat="51.144275"><ele>23.8</ele><time>2022-05-22T10:04:33.000Z</time></trkpt><trkpt lon="5.767067" lat="51.144283"><ele>24</ele><time>2022-05-22T10:04:34.000Z</time></trkpt><trkpt lon="5.766956" lat="51.14429"><ele>24</ele><time>2022-05-22T10:04:35.000Z</time></trkpt><trkpt lon="5.766839" lat="51.144298"><ele>24</ele><time>2022-05-22T10:04:36.000Z</time></trkpt><trkpt lon="5.766729" lat="51.144302"><ele>24</ele><time>2022-05-22T10:04:37.000Z</time></trkpt><trkpt lon="5.76661" lat="51.14431"><ele>24</ele><time>2022-05-22T10:04:38.000Z</time></trkpt><trkpt lon="5.766498" lat="51.144317"><ele>24</ele><time>2022-05-22T10:04:39.000Z</time></trkpt><trkpt lon="5.766379" lat="51.144321"><ele>24</ele><time>2022-05-22T10:04:40.000Z</time></trkpt><trkpt lon="5.766265" lat="51.144328"><ele>24</ele><time>2022-05-22T10:04:41.000Z</time></trkpt><trkpt lon="5.766148" lat="51.144336"><ele>24</ele><time>2022-05-22T10:04:42.000Z</time></trkpt><trkpt lon="5.76604" lat="51.14434"><ele>24</ele><time>2022-05-22T10:04:43.000Z</time></trkpt><trkpt lon="5.765921" lat="51.144348"><ele>24</ele><time>2022-05-22T10:04:44.000Z</time></trkpt><trkpt lon="5.765818" lat="51.144355"><ele>24</ele><time>2022-05-22T10:04:45.000Z</time></trkpt><trkpt lon="5.765694" lat="51.144363"><ele>24</ele><time>2022-05-22T10:04:46.000Z</time></trkpt><trkpt lon="5.765581" lat="51.144371"><ele>24</ele><time>2022-05-22T10:04:47.000Z</time></trkpt><trkpt lon="5.765461" lat="51.144375"><ele>24</ele><time>2022-05-22T10:04:48.000Z</time></trkpt><trkpt lon="5.765352" lat="51.144382"><ele>24</ele><time>2022-05-22T10:04:49.000Z</time></trkpt><trkpt lon="5.765229" lat="51.14439"><ele>24</ele><time>2022-05-22T10:04:50.000Z</time></trkpt><trkpt lon="5.765116" lat="51.144394"><ele>24</ele><time>2022-05-22T10:04:51.000Z</time></trkpt><trkpt lon="5.765002" lat="51.144401"><ele>24</ele><time>2022-05-22T10:04:52.000Z</time></trkpt><trkpt lon="5.764893" lat="51.144408"><ele>24</ele><time>2022-05-22T10:04:53.000Z</time></trkpt><trkpt lon="5.764775" lat="51.144416"><ele>24.2</ele><time>2022-05-22T10:04:54.000Z</time></trkpt><trkpt lon="5.764664" lat="51.14442"><ele>24.2</ele><time>2022-05-22T10:04:55.000Z</time></trkpt><trkpt lon="5.764542" lat="51.144428"><ele>24</ele><time>2022-05-22T10:04:56.000Z</time></trkpt><trkpt lon="5.764433" lat="51.144432"><ele>24</ele><time>2022-05-22T10:04:57.000Z</time></trkpt><trkpt lon="5.764311" lat="51.144439"><ele>24</ele><time>2022-05-22T10:04:58.000Z</time></trkpt><trkpt lon="5.7642" lat="51.144443"><ele>24</ele><time>2022-05-22T10:04:59.000Z</time></trkpt><trkpt lon="5.764084" lat="51.144451"><ele>24</ele><time>2022-05-22T10:05:00.000Z</time></trkpt><trkpt lon="5.763965" lat="51.144459"><ele>24</ele><time>2022-05-22T10:05:01.000Z</time></trkpt><trkpt lon="5.763849" lat="51.144466"><ele>24</ele><time>2022-05-22T10:05:02.000Z</time></trkpt><trkpt lon="5.763735" lat="51.14447"><ele>24</ele><time>2022-05-22T10:05:03.000Z</time></trkpt><trkpt lon="5.763613" lat="51.144478"><ele>23.8</ele><time>2022-05-22T10:05:04.000Z</time></trkpt><trkpt lon="5.763501" lat="51.144485"><ele>23.8</ele><time>2022-05-22T10:05:05.000Z</time></trkpt><trkpt lon="5.763379" lat="51.144493"><ele>23.8</ele><time>2022-05-22T10:05:06.000Z</time></trkpt><trkpt lon="5.763269" lat="51.1445"><ele>23.8</ele><time>2022-05-22T10:05:07.000Z</time></trkpt><trkpt lon="5.763143" lat="51.144508"><ele>23.8</ele><time>2022-05-22T10:05:08.000Z</time></trkpt><trkpt lon="5.763029" lat="51.144515"><ele>23.8</ele><time>2022-05-22T10:05:09.000Z</time></trkpt><trkpt lon="5.762896" lat="51.14452"><ele>23.8</ele><time>2022-05-22T10:05:10.000Z</time></trkpt><trkpt lon="5.762781" lat="51.144527"><ele>23.6</ele><time>2022-05-22T10:05:11.000Z</time></trkpt><trkpt lon="5.762658" lat="51.144535"><ele>23.6</ele><time>2022-05-22T10:05:12.000Z</time></trkpt><trkpt lon="5.762542" lat="51.144542"><ele>23.6</ele><time>2022-05-22T10:05:13.000Z</time></trkpt><trkpt lon="5.762429" lat="51.14455"><ele>23.8</ele><time>2022-05-22T10:05:14.000Z</time></trkpt><trkpt lon="5.762323" lat="51.144557"><ele>23.8</ele><time>2022-05-22T10:05:15.000Z</time></trkpt><trkpt lon="5.762201" lat="51.144562"><ele>23.8</ele><time>2022-05-22T10:05:16.000Z</time></trkpt><trkpt lon="5.762092" lat="51.144569"><ele>23.8</ele><time>2022-05-22T10:05:17.000Z</time></trkpt><trkpt lon="5.761971" lat="51.144577"><ele>23.8</ele><time>2022-05-22T10:05:18.000Z</time></trkpt><trkpt lon="5.761859" lat="51.144588"><ele>23.6</ele><time>2022-05-22T10:05:19.000Z</time></trkpt><trkpt lon="5.761738" lat="51.144596"><ele>23.6</ele><time>2022-05-22T10:05:20.000Z</time></trkpt><trkpt lon="5.761626" lat="51.144603"><ele>23.6</ele><time>2022-05-22T10:05:21.000Z</time></trkpt><trkpt lon="5.761501" lat="51.144611"><ele>23.6</ele><time>2022-05-22T10:05:22.000Z</time></trkpt><trkpt lon="5.761381" lat="51.144618"><ele>23.6</ele><time>2022-05-22T10:05:23.000Z</time></trkpt><trkpt lon="5.761254" lat="51.144626"><ele>23.6</ele><time>2022-05-22T10:05:24.000Z</time></trkpt><trkpt lon="5.761144" lat="51.14463"><ele>23.4</ele><time>2022-05-22T10:05:25.000Z</time></trkpt><trkpt lon="5.761013" lat="51.144638"><ele>23.6</ele><time>2022-05-22T10:05:26.000Z</time></trkpt><trkpt lon="5.760899" lat="51.144642"><ele>23.6</ele><time>2022-05-22T10:05:27.000Z</time></trkpt><trkpt lon="5.760773" lat="51.144649"><ele>23.6</ele><time>2022-05-22T10:05:28.000Z</time></trkpt><trkpt lon="5.760659" lat="51.144657"><ele>23.6</ele><time>2022-05-22T10:05:29.000Z</time></trkpt><trkpt lon="5.760542" lat="51.144664"><ele>23.6</ele><time>2022-05-22T10:05:30.000Z</time></trkpt><trkpt lon="5.760435" lat="51.144672"><ele>23.6</ele><time>2022-05-22T10:05:31.000Z</time></trkpt><trkpt lon="5.760317" lat="51.14468"><ele>23.6</ele><time>2022-05-22T10:05:32.000Z</time></trkpt><trkpt lon="5.760207" lat="51.144684"><ele>23.8</ele><time>2022-05-22T10:05:33.000Z</time></trkpt><trkpt lon="5.760089" lat="51.144691"><ele>23.8</ele><time>2022-05-22T10:05:34.000Z</time></trkpt><trkpt lon="5.75998" lat="51.144699"><ele>23.8</ele><time>2022-05-22T10:05:35.000Z</time></trkpt><trkpt lon="5.759861" lat="51.144703"><ele>23.8</ele><time>2022-05-22T10:05:36.000Z</time></trkpt><trkpt lon="5.759758" lat="51.144706"><ele>23.8</ele><time>2022-05-22T10:05:37.000Z</time></trkpt><trkpt lon="5.759633" lat="51.14471"><ele>23.8</ele><time>2022-05-22T10:05:38.000Z</time></trkpt><trkpt lon="5.759517" lat="51.144714"><ele>23.8</ele><time>2022-05-22T10:05:39.000Z</time></trkpt><trkpt lon="5.759392" lat="51.144718"><ele>23.8</ele><time>2022-05-22T10:05:40.000Z</time></trkpt><trkpt lon="5.759274" lat="51.144725"><ele>23.8</ele><time>2022-05-22T10:05:41.000Z</time></trkpt><trkpt lon="5.759148" lat="51.144733"><ele>23.8</ele><time>2022-05-22T10:05:42.000Z</time></trkpt><trkpt lon="5.759032" lat="51.14474"><ele>23.8</ele><time>2022-05-22T10:05:43.000Z</time></trkpt><trkpt lon="5.758903" lat="51.144748"><ele>23.8</ele><time>2022-05-22T10:05:44.000Z</time></trkpt><trkpt lon="5.758785" lat="51.144756"><ele>23.8</ele><time>2022-05-22T10:05:45.000Z</time></trkpt><trkpt lon="5.758654" lat="51.14476"><ele>23.8</ele><time>2022-05-22T10:05:46.000Z</time></trkpt><trkpt lon="5.758536" lat="51.144771"><ele>23.8</ele><time>2022-05-22T10:05:47.000Z</time></trkpt><trkpt lon="5.758408" lat="51.144775"><ele>23.8</ele><time>2022-05-22T10:05:48.000Z</time></trkpt><trkpt lon="5.758289" lat="51.144782"><ele>23.8</ele><time>2022-05-22T10:05:49.000Z</time></trkpt><trkpt lon="5.758159" lat="51.144787"><ele>23.8</ele><time>2022-05-22T10:05:50.000Z</time></trkpt><trkpt lon="5.75804" lat="51.144797"><ele>23.8</ele><time>2022-05-22T10:05:51.000Z</time></trkpt><trkpt lon="5.75791" lat="51.144802"><ele>23.8</ele><time>2022-05-22T10:05:52.000Z</time></trkpt><trkpt lon="5.757793" lat="51.144809"><ele>23.8</ele><time>2022-05-22T10:05:53.000Z</time></trkpt><trkpt lon="5.757663" lat="51.144817"><ele>23.8</ele><time>2022-05-22T10:05:54.000Z</time></trkpt><trkpt lon="5.757555" lat="51.144824"><ele>23.8</ele><time>2022-05-22T10:05:55.000Z</time></trkpt><trkpt lon="5.75742" lat="51.144832"><ele>23.6</ele><time>2022-05-22T10:05:56.000Z</time></trkpt><trkpt lon="5.757302" lat="51.14484"><ele>23.8</ele><time>2022-05-22T10:05:57.000Z</time></trkpt><trkpt lon="5.75718" lat="51.144844"><ele>23.8</ele><time>2022-05-22T10:05:58.000Z</time></trkpt><trkpt lon="5.757069" lat="51.144851"><ele>23.8</ele><time>2022-05-22T10:05:59.000Z</time></trkpt><trkpt lon="5.756948" lat="51.144855"><ele>23.8</ele><time>2022-05-22T10:06:00.000Z</time></trkpt><trkpt lon="5.756835" lat="51.144862"><ele>23.6</ele><time>2022-05-22T10:06:01.000Z</time></trkpt><trkpt lon="5.756713" lat="51.14487"><ele>23.6</ele><time>2022-05-22T10:06:02.000Z</time></trkpt><trkpt lon="5.756602" lat="51.144878"><ele>23.6</ele><time>2022-05-22T10:06:03.000Z</time></trkpt><trkpt lon="5.75648" lat="51.144886"><ele>23.8</ele><time>2022-05-22T10:06:04.000Z</time></trkpt><trkpt lon="5.756376" lat="51.144889"><ele>23.8</ele><time>2022-05-22T10:06:05.000Z</time></trkpt><trkpt lon="5.75625" lat="51.144897"><ele>23.6</ele><time>2022-05-22T10:06:06.000Z</time></trkpt><trkpt lon="5.75614" lat="51.144904"><ele>23.6</ele><time>2022-05-22T10:06:07.000Z</time></trkpt><trkpt lon="5.756021" lat="51.144912"><ele>23.8</ele><time>2022-05-22T10:06:08.000Z</time></trkpt><trkpt lon="5.755908" lat="51.14492"><ele>23.8</ele><time>2022-05-22T10:06:09.000Z</time></trkpt><trkpt lon="5.755785" lat="51.144928"><ele>23.8</ele><time>2022-05-22T10:06:10.000Z</time></trkpt><trkpt lon="5.755672" lat="51.144935"><ele>23.8</ele><time>2022-05-22T10:06:11.000Z</time></trkpt><trkpt lon="5.755548" lat="51.144939"><ele>23.8</ele><time>2022-05-22T10:06:12.000Z</time></trkpt><trkpt lon="5.755433" lat="51.144947"><ele>24</ele><time>2022-05-22T10:06:13.000Z</time></trkpt><trkpt lon="5.755311" lat="51.144951"><ele>24</ele><time>2022-05-22T10:06:14.000Z</time></trkpt><trkpt lon="5.755209" lat="51.144957"><ele>23.8</ele><time>2022-05-22T10:06:15.000Z</time></trkpt><trkpt lon="5.755077" lat="51.144962"><ele>23.8</ele><time>2022-05-22T10:06:16.000Z</time></trkpt><trkpt lon="5.754962" lat="51.144966"><ele>24</ele><time>2022-05-22T10:06:17.000Z</time></trkpt><trkpt lon="5.754834" lat="51.144966"><ele>24</ele><time>2022-05-22T10:06:18.000Z</time></trkpt><trkpt lon="5.754727" lat="51.14497"><ele>23.8</ele><time>2022-05-22T10:06:19.000Z</time></trkpt><trkpt lon="5.754608" lat="51.144977"><ele>23.8</ele><time>2022-05-22T10:06:20.000Z</time></trkpt><trkpt lon="5.754494" lat="51.144988"><ele>24</ele><time>2022-05-22T10:06:21.000Z</time></trkpt><trkpt lon="5.754377" lat="51.145"><ele>24</ele><time>2022-05-22T10:06:22.000Z</time></trkpt><trkpt lon="5.754266" lat="51.145011"><ele>24</ele><time>2022-05-22T10:06:23.000Z</time></trkpt><trkpt lon="5.754136" lat="51.145019"><ele>24</ele><time>2022-05-22T10:06:24.000Z</time></trkpt><trkpt lon="5.754017" lat="51.145026"><ele>24</ele><time>2022-05-22T10:06:25.000Z</time></trkpt><trkpt lon="5.753894" lat="51.145034"><ele>24</ele><time>2022-05-22T10:06:26.000Z</time></trkpt><trkpt lon="5.753782" lat="51.145041"><ele>24</ele><time>2022-05-22T10:06:27.000Z</time></trkpt><trkpt lon="5.753657" lat="51.14505"><ele>24</ele><time>2022-05-22T10:06:28.000Z</time></trkpt><trkpt lon="5.753544" lat="51.145057"><ele>24</ele><time>2022-05-22T10:06:29.000Z</time></trkpt><trkpt lon="5.753427" lat="51.145065"><ele>24.2</ele><time>2022-05-22T10:06:30.000Z</time></trkpt><trkpt lon="5.753319" lat="51.145072"><ele>24.2</ele><time>2022-05-22T10:06:31.000Z</time></trkpt><trkpt lon="5.753201" lat="51.14508"><ele>24</ele><time>2022-05-22T10:06:32.000Z</time></trkpt><trkpt lon="5.753091" lat="51.145087"><ele>24</ele><time>2022-05-22T10:06:33.000Z</time></trkpt><trkpt lon="5.752969" lat="51.145095"><ele>24</ele><time>2022-05-22T10:06:34.000Z</time></trkpt><trkpt lon="5.752865" lat="51.145102"><ele>24.2</ele><time>2022-05-22T10:06:35.000Z</time></trkpt><trkpt lon="5.75274" lat="51.145107"><ele>24</ele><time>2022-05-22T10:06:36.000Z</time></trkpt><trkpt lon="5.752627" lat="51.145114"><ele>24.2</ele><time>2022-05-22T10:06:37.000Z</time></trkpt><trkpt lon="5.752508" lat="51.145122"><ele>24.2</ele><time>2022-05-22T10:06:38.000Z</time></trkpt><trkpt lon="5.752401" lat="51.145129"><ele>24.2</ele><time>2022-05-22T10:06:39.000Z</time></trkpt><trkpt lon="5.752279" lat="51.145134"><ele>24.2</ele><time>2022-05-22T10:06:40.000Z</time></trkpt><trkpt lon="5.752165" lat="51.145141"><ele>24.2</ele><time>2022-05-22T10:06:41.000Z</time></trkpt><trkpt lon="5.752044" lat="51.145149"><ele>24.2</ele><time>2022-05-22T10:06:42.000Z</time></trkpt><trkpt lon="5.75193" lat="51.145156"><ele>24.2</ele><time>2022-05-22T10:06:43.000Z</time></trkpt><trkpt lon="5.751807" lat="51.14516"><ele>24.2</ele><time>2022-05-22T10:06:44.000Z</time></trkpt><trkpt lon="5.751702" lat="51.145167"><ele>24.2</ele><time>2022-05-22T10:06:45.000Z</time></trkpt><trkpt lon="5.751573" lat="51.145176"><ele>24.2</ele><time>2022-05-22T10:06:46.000Z</time></trkpt><trkpt lon="5.751463" lat="51.145183"><ele>24.4</ele><time>2022-05-22T10:06:47.000Z</time></trkpt><trkpt lon="5.751342" lat="51.145187"><ele>24.2</ele><time>2022-05-22T10:06:48.000Z</time></trkpt><trkpt lon="5.751232" lat="51.145194"><ele>24.2</ele><time>2022-05-22T10:06:49.000Z</time></trkpt><trkpt lon="5.751117" lat="51.145202"><ele>24.2</ele><time>2022-05-22T10:06:50.000Z</time></trkpt><trkpt lon="5.751006" lat="51.145206"><ele>24.2</ele><time>2022-05-22T10:06:51.000Z</time></trkpt><trkpt lon="5.750885" lat="51.145206"><ele>24.4</ele><time>2022-05-22T10:06:52.000Z</time></trkpt><trkpt lon="5.750779" lat="51.145203"><ele>24.4</ele><time>2022-05-22T10:06:53.000Z</time></trkpt><trkpt lon="5.750658" lat="51.145203"><ele>24.4</ele><time>2022-05-22T10:06:54.000Z</time></trkpt><trkpt lon="5.75055" lat="51.145206"><ele>24.4</ele><time>2022-05-22T10:06:55.000Z</time></trkpt><trkpt lon="5.750427" lat="51.145214"><ele>24.4</ele><time>2022-05-22T10:06:56.000Z</time></trkpt><trkpt lon="5.750314" lat="51.145221"><ele>24.4</ele><time>2022-05-22T10:06:57.000Z</time></trkpt><trkpt lon="5.75019" lat="51.145229"><ele>24.2</ele><time>2022-05-22T10:06:58.000Z</time></trkpt><trkpt lon="5.750078" lat="51.145236"><ele>24.2</ele><time>2022-05-22T10:06:59.000Z</time></trkpt><trkpt lon="5.749949" lat="51.145244"><ele>24.2</ele><time>2022-05-22T10:07:00.000Z</time></trkpt><trkpt lon="5.749859" lat="51.145247"><ele>24.2</ele><time>2022-05-22T10:07:01.000Z</time></trkpt><trkpt lon="5.749721" lat="51.145256"><ele>24.2</ele><time>2022-05-22T10:07:02.000Z</time></trkpt><trkpt lon="5.749608" lat="51.145263"><ele>24.2</ele><time>2022-05-22T10:07:03.000Z</time></trkpt><trkpt lon="5.749493" lat="51.145271"><ele>24.2</ele><time>2022-05-22T10:07:04.000Z</time></trkpt><trkpt lon="5.749379" lat="51.145278"><ele>24.2</ele><time>2022-05-22T10:07:05.000Z</time></trkpt><trkpt lon="5.749246" lat="51.145286"><ele>24.2</ele><time>2022-05-22T10:07:06.000Z</time></trkpt><trkpt lon="5.749135" lat="51.145293"><ele>24.2</ele><time>2022-05-22T10:07:07.000Z</time></trkpt><trkpt lon="5.749008" lat="51.145301"><ele>24.4</ele><time>2022-05-22T10:07:08.000Z</time></trkpt><trkpt lon="5.748895" lat="51.145308"><ele>24.4</ele><time>2022-05-22T10:07:09.000Z</time></trkpt><trkpt lon="5.748763" lat="51.145317"><ele>24.4</ele><time>2022-05-22T10:07:10.000Z</time></trkpt><trkpt lon="5.748644" lat="51.145328"><ele>24.4</ele><time>2022-05-22T10:07:11.000Z</time></trkpt><trkpt lon="5.748518" lat="51.145336"><ele>24.4</ele><time>2022-05-22T10:07:12.000Z</time></trkpt><trkpt lon="5.748402" lat="51.145343"><ele>24.4</ele><time>2022-05-22T10:07:13.000Z</time></trkpt><trkpt lon="5.748277" lat="51.145355"><ele>24.4</ele><time>2022-05-22T10:07:14.000Z</time></trkpt><trkpt lon="5.748173" lat="51.145365"><ele>24.2</ele><time>2022-05-22T10:07:15.000Z</time></trkpt><trkpt lon="5.748041" lat="51.145378"><ele>24.2</ele><time>2022-05-22T10:07:16.000Z</time></trkpt><trkpt lon="5.747924" lat="51.145389"><ele>24.2</ele><time>2022-05-22T10:07:17.000Z</time></trkpt><trkpt lon="5.747803" lat="51.145397"><ele>24.2</ele><time>2022-05-22T10:07:18.000Z</time></trkpt><trkpt lon="5.747691" lat="51.145404"><ele>24.2</ele><time>2022-05-22T10:07:19.000Z</time></trkpt><trkpt lon="5.747577" lat="51.145412"><ele>24.2</ele><time>2022-05-22T10:07:20.000Z</time></trkpt><trkpt lon="5.747469" lat="51.145423"><ele>24.4</ele><time>2022-05-22T10:07:21.000Z</time></trkpt><trkpt lon="5.747351" lat="51.145431"><ele>24.4</ele><time>2022-05-22T10:07:22.000Z</time></trkpt><trkpt lon="5.747241" lat="51.145442"><ele>24.4</ele><time>2022-05-22T10:07:23.000Z</time></trkpt><trkpt lon="5.747117" lat="51.14545"><ele>24.4</ele><time>2022-05-22T10:07:24.000Z</time></trkpt><trkpt lon="5.747006" lat="51.145461"><ele>24.4</ele><time>2022-05-22T10:07:25.000Z</time></trkpt><trkpt lon="5.746879" lat="51.145473"><ele>24.4</ele><time>2022-05-22T10:07:26.000Z</time></trkpt><trkpt lon="5.746771" lat="51.145484"><ele>24.4</ele><time>2022-05-22T10:07:27.000Z</time></trkpt><trkpt lon="5.746648" lat="51.145492"><ele>24.4</ele><time>2022-05-22T10:07:28.000Z</time></trkpt><trkpt lon="5.746542" lat="51.145499"><ele>24.4</ele><time>2022-05-22T10:07:29.000Z</time></trkpt><trkpt lon="5.746415" lat="51.145511"><ele>24.6</ele><time>2022-05-22T10:07:30.000Z</time></trkpt><trkpt lon="5.746302" lat="51.145522"><ele>24.6</ele><time>2022-05-22T10:07:31.000Z</time></trkpt><trkpt lon="5.746184" lat="51.14553"><ele>24.6</ele><time>2022-05-22T10:07:32.000Z</time></trkpt><trkpt lon="5.746069" lat="51.145541"><ele>24.6</ele><time>2022-05-22T10:07:33.000Z</time></trkpt><trkpt lon="5.745947" lat="51.145549"><ele>24.6</ele><time>2022-05-22T10:07:34.000Z</time></trkpt><trkpt lon="5.745849" lat="51.145559"><ele>24.6</ele><time>2022-05-22T10:07:35.000Z</time></trkpt><trkpt lon="5.74572" lat="51.145572"><ele>24.6</ele><time>2022-05-22T10:07:36.000Z</time></trkpt><trkpt lon="5.745611" lat="51.14558"><ele>24.6</ele><time>2022-05-22T10:07:37.000Z</time></trkpt><trkpt lon="5.745495" lat="51.145591"><ele>24.6</ele><time>2022-05-22T10:07:38.000Z</time></trkpt><trkpt lon="5.745387" lat="51.145598"><ele>24.6</ele><time>2022-05-22T10:07:39.000Z</time></trkpt><trkpt lon="5.745261" lat="51.145607"><ele>24.8</ele><time>2022-05-22T10:07:40.000Z</time></trkpt><trkpt lon="5.745148" lat="51.145614"><ele>24.8</ele><time>2022-05-22T10:07:41.000Z</time></trkpt><trkpt lon="5.745033" lat="51.145622"><ele>24.8</ele><time>2022-05-22T10:07:42.000Z</time></trkpt><trkpt lon="5.744927" lat="51.145629"><ele>24.8</ele><time>2022-05-22T10:07:43.000Z</time></trkpt><trkpt lon="5.744812" lat="51.145641"><ele>24.8</ele><time>2022-05-22T10:07:44.000Z</time></trkpt><trkpt lon="5.744717" lat="51.145651"><ele>24.8</ele><time>2022-05-22T10:07:45.000Z</time></trkpt><trkpt lon="5.744597" lat="51.14566"><ele>24.8</ele><time>2022-05-22T10:07:46.000Z</time></trkpt><trkpt lon="5.744498" lat="51.145671"><ele>24.8</ele><time>2022-05-22T10:07:47.000Z</time></trkpt><trkpt lon="5.74439" lat="51.145675"><ele>24.8</ele><time>2022-05-22T10:07:48.000Z</time></trkpt><trkpt lon="5.744295" lat="51.145682"><ele>24.8</ele><time>2022-05-22T10:07:49.000Z</time></trkpt><trkpt lon="5.744182" lat="51.145691"><ele>24.8</ele><time>2022-05-22T10:07:50.000Z</time></trkpt><trkpt lon="5.744086" lat="51.145698"><ele>24.8</ele><time>2022-05-22T10:07:51.000Z</time></trkpt><trkpt lon="5.743978" lat="51.145706"><ele>24.8</ele><time>2022-05-22T10:07:52.000Z</time></trkpt><trkpt lon="5.743886" lat="51.145713"><ele>25</ele><time>2022-05-22T10:07:53.000Z</time></trkpt><trkpt lon="5.743778" lat="51.145721"><ele>25</ele><time>2022-05-22T10:07:54.000Z</time></trkpt><trkpt lon="5.743685" lat="51.145729"><ele>25</ele><time>2022-05-22T10:07:55.000Z</time></trkpt><trkpt lon="5.743597" lat="51.145736"><ele>25</ele><time>2022-05-22T10:07:56.000Z</time></trkpt><trkpt lon="5.743511" lat="51.14574"><ele>25</ele><time>2022-05-22T10:07:57.000Z</time></trkpt><trkpt lon="5.743434" lat="51.145744"><ele>25.2</ele><time>2022-05-22T10:07:58.000Z</time></trkpt><trkpt lon="5.743368" lat="51.145759"><ele>25.2</ele><time>2022-05-22T10:07:59.000Z</time></trkpt><trkpt lon="5.743314" lat="51.145781"><ele>25.2</ele><time>2022-05-22T10:08:00.000Z</time></trkpt><trkpt lon="5.743277" lat="51.145804"><ele>25.2</ele><time>2022-05-22T10:08:01.000Z</time></trkpt><trkpt lon="5.743256" lat="51.145834"><ele>25.2</ele><time>2022-05-22T10:08:02.000Z</time></trkpt><trkpt lon="5.743242" lat="51.145861"><ele>25.4</ele><time>2022-05-22T10:08:03.000Z</time></trkpt><trkpt lon="5.74323" lat="51.145884"><ele>25.4</ele><time>2022-05-22T10:08:04.000Z</time></trkpt><trkpt lon="5.74322" lat="51.145907"><ele>25.4</ele><time>2022-05-22T10:08:05.000Z</time></trkpt><trkpt lon="5.743207" lat="51.145922"><ele>25.4</ele><time>2022-05-22T10:08:06.000Z</time></trkpt><trkpt lon="5.743189" lat="51.145938"><ele>25.6</ele><time>2022-05-22T10:08:07.000Z</time></trkpt><trkpt lon="5.743176" lat="51.145946"><ele>25.6</ele><time>2022-05-22T10:08:08.000Z</time></trkpt></trkseg></trk></gpx>